<?xml version="1.0" encoding="UTF-8" standalone="no" ?>
<gpx xmlns="http://www.topografix.com/GPX/1/1" xmlns:xsi="http://www.w3.org/2001/XMLSchema-instance" xsi:schemaLocation="http://www.topografix.com/GPX/1/1 http://www.topografix.com/GPX/1/1/gpx.xsd" version="1.1" creator="VisuGPX - https://www.visugpx.com">
  <metadata>
    <name>81 vtt castres sidobre 35km 1100d+</name>
  </metadata>
  <trk>
    <name><![CDATA[vtt sidobre 35km 1100d+]]></name>
    <desc><![CDATA[]]></desc>
    <extensions>
      <line xmlns="http://www.topografix.com/GPX/gpx_style/0/2">
        <color>0040ff</color>
        <width>4</width>
      </line>
    </extensions>
    <trkseg>
      <trkpt lat="43.62887" lon="2.26931">
        <ele>176.842212</ele>
        <time>2021-10-03T07:38:37.000Z</time>
      </trkpt>
      <trkpt lat="43.62883" lon="2.26932">
        <ele>176.842212</ele>
        <time>2021-10-03T07:38:38.000Z</time>
      </trkpt>
      <trkpt lat="43.62879" lon="2.26932">
        <ele>176.842212</ele>
        <time>2021-10-03T07:38:39.000Z</time>
      </trkpt>
      <trkpt lat="43.62875" lon="2.26933">
        <ele>176.842212</ele>
        <time>2021-10-03T07:38:40.000Z</time>
      </trkpt>
      <trkpt lat="43.62871" lon="2.26934">
        <ele>176.842212</ele>
        <time>2021-10-03T07:38:41.000Z</time>
      </trkpt>
      <trkpt lat="43.62867" lon="2.26935">
        <ele>176.842212</ele>
        <time>2021-10-03T07:38:42.000Z</time>
      </trkpt>
      <trkpt lat="43.62863" lon="2.26935">
        <ele>176.842212</ele>
        <time>2021-10-03T07:38:43.000Z</time>
      </trkpt>
      <trkpt lat="43.62858" lon="2.26936">
        <ele>176.842212</ele>
        <time>2021-10-03T07:38:44.000Z</time>
      </trkpt>
      <trkpt lat="43.62854" lon="2.26936">
        <ele>176.842212</ele>
        <time>2021-10-03T07:38:45.000Z</time>
      </trkpt>
      <trkpt lat="43.6285" lon="2.26937">
        <ele>176.842212</ele>
        <time>2021-10-03T07:38:46.000Z</time>
      </trkpt>
      <trkpt lat="43.62846" lon="2.26937">
        <ele>176.842212</ele>
        <time>2021-10-03T07:38:47.000Z</time>
      </trkpt>
      <trkpt lat="43.62842" lon="2.2694">
        <ele>176.842212</ele>
        <time>2021-10-03T07:38:48.000Z</time>
      </trkpt>
      <trkpt lat="43.6284" lon="2.26943">
        <ele>176.842212</ele>
        <time>2021-10-03T07:38:49.000Z</time>
      </trkpt>
      <trkpt lat="43.6284" lon="2.26949">
        <ele>176.842212</ele>
        <time>2021-10-03T07:38:50.000Z</time>
      </trkpt>
      <trkpt lat="43.6284" lon="2.26954">
        <ele>176.842212</ele>
        <time>2021-10-03T07:38:51.000Z</time>
      </trkpt>
      <trkpt lat="43.6284" lon="2.2696">
        <ele>176.842212</ele>
        <time>2021-10-03T07:38:52.000Z</time>
      </trkpt>
      <trkpt lat="43.62841" lon="2.26965">
        <ele>176.842212</ele>
        <time>2021-10-03T07:38:53.000Z</time>
      </trkpt>
      <trkpt lat="43.62841" lon="2.26971">
        <ele>176.842212</ele>
        <time>2021-10-03T07:38:54.000Z</time>
      </trkpt>
      <trkpt lat="43.62842" lon="2.26977">
        <ele>176.851952</ele>
        <time>2021-10-03T07:38:55.000Z</time>
      </trkpt>
      <trkpt lat="43.62843" lon="2.26983">
        <ele>176.871347</ele>
        <time>2021-10-03T07:38:56.000Z</time>
      </trkpt>
      <trkpt lat="43.62843" lon="2.26989">
        <ele>176.890817</ele>
        <time>2021-10-03T07:38:57.000Z</time>
      </trkpt>
      <trkpt lat="43.62843" lon="2.26995">
        <ele>176.910285</ele>
        <time>2021-10-03T07:38:58.000Z</time>
      </trkpt>
      <trkpt lat="43.62844" lon="2.27001">
        <ele>176.92905</ele>
        <time>2021-10-03T07:38:59.000Z</time>
      </trkpt>
      <trkpt lat="43.62844" lon="2.27007">
        <ele>176.947962</ele>
        <time>2021-10-03T07:39:00.000Z</time>
      </trkpt>
      <trkpt lat="43.62845" lon="2.27013">
        <ele>176.966238</ele>
        <time>2021-10-03T07:39:01.000Z</time>
      </trkpt>
      <trkpt lat="43.62845" lon="2.27018">
        <ele>176.984514</ele>
        <time>2021-10-03T07:39:02.000Z</time>
      </trkpt>
      <trkpt lat="43.62846" lon="2.27024">
        <ele>177.00265</ele>
        <time>2021-10-03T07:39:03.000Z</time>
      </trkpt>
      <trkpt lat="43.62846" lon="2.2703">
        <ele>177.020527</ele>
        <time>2021-10-03T07:39:04.000Z</time>
      </trkpt>
      <trkpt lat="43.62846" lon="2.27035">
        <ele>177.038718</ele>
        <time>2021-10-03T07:39:05.000Z</time>
      </trkpt>
      <trkpt lat="43.62846" lon="2.27041">
        <ele>177.05763</ele>
        <time>2021-10-03T07:39:06.000Z</time>
      </trkpt>
      <trkpt lat="43.62846" lon="2.27047">
        <ele>177.076778</ele>
        <time>2021-10-03T07:39:07.000Z</time>
      </trkpt>
      <trkpt lat="43.62846" lon="2.27053">
        <ele>177.096643</ele>
        <time>2021-10-03T07:39:08.000Z</time>
      </trkpt>
      <trkpt lat="43.62846" lon="2.27059">
        <ele>177.115518</ele>
        <time>2021-10-03T07:39:09.000Z</time>
      </trkpt>
      <trkpt lat="43.62847" lon="2.27065">
        <ele>177.134962</ele>
        <time>2021-10-03T07:39:10.000Z</time>
      </trkpt>
      <trkpt lat="43.62848" lon="2.27071">
        <ele>177.154432</ele>
        <time>2021-10-03T07:39:11.000Z</time>
      </trkpt>
      <trkpt lat="43.62849" lon="2.27077">
        <ele>177.174531</ele>
        <time>2021-10-03T07:39:12.000Z</time>
      </trkpt>
      <trkpt lat="43.6285" lon="2.27084">
        <ele>177.194629</ele>
        <time>2021-10-03T07:39:13.000Z</time>
      </trkpt>
      <trkpt lat="43.6285" lon="2.27089">
        <ele>177.213541</ele>
        <time>2021-10-03T07:39:14.000Z</time>
      </trkpt>
      <trkpt lat="43.62851" lon="2.27096">
        <ele>177.233882</ele>
        <time>2021-10-03T07:39:15.000Z</time>
      </trkpt>
      <trkpt lat="43.62851" lon="2.27102">
        <ele>177.253111</ele>
        <time>2021-10-03T07:39:16.000Z</time>
      </trkpt>
      <trkpt lat="43.62852" lon="2.27108">
        <ele>177.272658</ele>
        <time>2021-10-03T07:39:17.000Z</time>
      </trkpt>
      <trkpt lat="43.62852" lon="2.27114">
        <ele>177.291887</ele>
        <time>2021-10-03T07:39:18.000Z</time>
      </trkpt>
      <trkpt lat="43.62853" lon="2.2712">
        <ele>177.311117</ele>
        <time>2021-10-03T07:39:19.000Z</time>
      </trkpt>
      <trkpt lat="43.62853" lon="2.27126">
        <ele>177.331142</ele>
        <time>2021-10-03T07:39:20.000Z</time>
      </trkpt>
      <trkpt lat="43.62854" lon="2.27132">
        <ele>177.350371</ele>
        <time>2021-10-03T07:39:21.000Z</time>
      </trkpt>
      <trkpt lat="43.62854" lon="2.27138">
        <ele>177.370554</ele>
        <time>2021-10-03T07:39:22.000Z</time>
      </trkpt>
      <trkpt lat="43.62855" lon="2.27145">
        <ele>177.391237</ele>
        <time>2021-10-03T07:39:23.000Z</time>
      </trkpt>
      <trkpt lat="43.62856" lon="2.27151">
        <ele>177.411737</ele>
        <time>2021-10-03T07:39:24.000Z</time>
      </trkpt>
      <trkpt lat="43.62856" lon="2.27157">
        <ele>177.431763</ele>
        <time>2021-10-03T07:39:25.000Z</time>
      </trkpt>
      <trkpt lat="43.62857" lon="2.27164">
        <ele>177.452582</ele>
        <time>2021-10-03T07:39:26.000Z</time>
      </trkpt>
      <trkpt lat="43.62857" lon="2.2717">
        <ele>177.472366</ele>
        <time>2021-10-03T07:39:27.000Z</time>
      </trkpt>
      <trkpt lat="43.62858" lon="2.27176">
        <ele>177.491913</ele>
        <time>2021-10-03T07:39:28.000Z</time>
      </trkpt>
      <trkpt lat="43.62859" lon="2.27181">
        <ele>177.509107</ele>
        <time>2021-10-03T07:39:29.000Z</time>
      </trkpt>
      <trkpt lat="43.6286" lon="2.27187">
        <ele>177.526829</ele>
        <time>2021-10-03T07:39:30.000Z</time>
      </trkpt>
      <trkpt lat="43.6286" lon="2.27192">
        <ele>177.544337</ele>
        <time>2021-10-03T07:39:31.000Z</time>
      </trkpt>
      <trkpt lat="43.62862" lon="2.27198">
        <ele>177.564293</ele>
        <time>2021-10-03T07:39:32.000Z</time>
      </trkpt>
      <trkpt lat="43.62863" lon="2.27204">
        <ele>177.583852</ele>
        <time>2021-10-03T07:39:33.000Z</time>
      </trkpt>
      <trkpt lat="43.62865" lon="2.2721">
        <ele>177.604714</ele>
        <time>2021-10-03T07:39:34.000Z</time>
      </trkpt>
      <trkpt lat="43.62865" lon="2.27216">
        <ele>177.623557</ele>
        <time>2021-10-03T07:39:35.000Z</time>
      </trkpt>
      <trkpt lat="43.62867" lon="2.27222">
        <ele>177.652908</ele>
        <time>2021-10-03T07:39:36.000Z</time>
      </trkpt>
      <trkpt lat="43.62868" lon="2.27227">
        <ele>177.695639</ele>
        <time>2021-10-03T07:39:37.000Z</time>
      </trkpt>
      <trkpt lat="43.62869" lon="2.27232">
        <ele>177.735853</ele>
        <time>2021-10-03T07:39:38.000Z</time>
      </trkpt>
      <trkpt lat="43.6287" lon="2.27238">
        <ele>177.779243</ele>
        <time>2021-10-03T07:39:39.000Z</time>
      </trkpt>
      <trkpt lat="43.62872" lon="2.27243">
        <ele>177.825489</ele>
        <time>2021-10-03T07:39:40.000Z</time>
      </trkpt>
      <trkpt lat="43.62873" lon="2.27249">
        <ele>177.870113</ele>
        <time>2021-10-03T07:39:41.000Z</time>
      </trkpt>
      <trkpt lat="43.62873" lon="2.27255">
        <ele>177.917008</ele>
        <time>2021-10-03T07:39:42.000Z</time>
      </trkpt>
      <trkpt lat="43.62874" lon="2.27261">
        <ele>177.964676</ele>
        <time>2021-10-03T07:39:43.000Z</time>
      </trkpt>
      <trkpt lat="43.62872" lon="2.27267">
        <ele>178.010764</ele>
        <time>2021-10-03T07:39:44.000Z</time>
      </trkpt>
      <trkpt lat="43.6287" lon="2.27272">
        <ele>178.057357</ele>
        <time>2021-10-03T07:39:45.000Z</time>
      </trkpt>
      <trkpt lat="43.62867" lon="2.27276">
        <ele>178.102253</ele>
        <time>2021-10-03T07:39:46.000Z</time>
      </trkpt>
      <trkpt lat="43.62863" lon="2.2728">
        <ele>178.146669</ele>
        <time>2021-10-03T07:39:47.000Z</time>
      </trkpt>
      <trkpt lat="43.62859" lon="2.27283">
        <ele>178.194807</ele>
        <time>2021-10-03T07:39:48.000Z</time>
      </trkpt>
      <trkpt lat="43.62855" lon="2.27286">
        <ele>178.240926</ele>
        <time>2021-10-03T07:39:49.000Z</time>
      </trkpt>
      <trkpt lat="43.62852" lon="2.2729">
        <ele>178.28847</ele>
        <time>2021-10-03T07:39:50.000Z</time>
      </trkpt>
      <trkpt lat="43.6285" lon="2.27295">
        <ele>178.331684</ele>
        <time>2021-10-03T07:39:51.000Z</time>
      </trkpt>
      <trkpt lat="43.62849" lon="2.27301">
        <ele>178.375123</ele>
        <time>2021-10-03T07:39:52.000Z</time>
      </trkpt>
      <trkpt lat="43.62848" lon="2.27305">
        <ele>178.412489</ele>
        <time>2021-10-03T07:39:53.000Z</time>
      </trkpt>
      <trkpt lat="43.62845" lon="2.2731">
        <ele>178.452942</ele>
        <time>2021-10-03T07:39:54.000Z</time>
      </trkpt>
      <trkpt lat="43.62842" lon="2.27313">
        <ele>178.492068</ele>
        <time>2021-10-03T07:39:55.000Z</time>
      </trkpt>
      <trkpt lat="43.62838" lon="2.27314">
        <ele>178.536205</ele>
        <time>2021-10-03T07:39:56.000Z</time>
      </trkpt>
      <trkpt lat="43.62834" lon="2.27314">
        <ele>178.580105</ele>
        <time>2021-10-03T07:39:57.000Z</time>
      </trkpt>
      <trkpt lat="43.62829" lon="2.27313">
        <ele>178.628558</ele>
        <time>2021-10-03T07:39:58.000Z</time>
      </trkpt>
      <trkpt lat="43.62825" lon="2.27312">
        <ele>178.676454</ele>
        <time>2021-10-03T07:39:59.000Z</time>
      </trkpt>
      <trkpt lat="43.6282" lon="2.27311">
        <ele>178.727304</ele>
        <time>2021-10-03T07:40:00.000Z</time>
      </trkpt>
      <trkpt lat="43.62815" lon="2.2731">
        <ele>178.777122</ele>
        <time>2021-10-03T07:40:01.000Z</time>
      </trkpt>
      <trkpt lat="43.62811" lon="2.27309">
        <ele>178.82591</ele>
        <time>2021-10-03T07:40:02.000Z</time>
      </trkpt>
      <trkpt lat="43.62806" lon="2.27308">
        <ele>178.874274</ele>
        <time>2021-10-03T07:40:03.000Z</time>
      </trkpt>
      <trkpt lat="43.62801" lon="2.27309">
        <ele>178.926725</ele>
        <time>2021-10-03T07:40:04.000Z</time>
      </trkpt>
      <trkpt lat="43.62797" lon="2.27311">
        <ele>178.970711</ele>
        <time>2021-10-03T07:40:05.000Z</time>
      </trkpt>
      <trkpt lat="43.62794" lon="2.27316">
        <ele>179.019373</ele>
        <time>2021-10-03T07:40:06.000Z</time>
      </trkpt>
      <trkpt lat="43.62792" lon="2.27321">
        <ele>179.066665</ele>
        <time>2021-10-03T07:40:07.000Z</time>
      </trkpt>
      <trkpt lat="43.6279" lon="2.27327">
        <ele>179.114824</ele>
        <time>2021-10-03T07:40:08.000Z</time>
      </trkpt>
      <trkpt lat="43.62788" lon="2.27333">
        <ele>179.160925</ele>
        <time>2021-10-03T07:40:09.000Z</time>
      </trkpt>
      <trkpt lat="43.62786" lon="2.27339">
        <ele>179.209084</ele>
        <time>2021-10-03T07:40:10.000Z</time>
      </trkpt>
      <trkpt lat="43.62784" lon="2.27344">
        <ele>179.256555</ele>
        <time>2021-10-03T07:40:11.000Z</time>
      </trkpt>
      <trkpt lat="43.62782" lon="2.2735">
        <ele>179.304714</ele>
        <time>2021-10-03T07:40:12.000Z</time>
      </trkpt>
      <trkpt lat="43.62781" lon="2.27356">
        <ele>179.350593</ele>
        <time>2021-10-03T07:40:13.000Z</time>
      </trkpt>
      <trkpt lat="43.62779" lon="2.27362">
        <ele>179.397547</ele>
        <time>2021-10-03T07:40:14.000Z</time>
      </trkpt>
      <trkpt lat="43.62777" lon="2.27367">
        <ele>179.442966</ele>
        <time>2021-10-03T07:40:15.000Z</time>
      </trkpt>
      <trkpt lat="43.62775" lon="2.27372">
        <ele>179.489183</ele>
        <time>2021-10-03T07:40:16.000Z</time>
      </trkpt>
      <trkpt lat="43.62773" lon="2.27378">
        <ele>179.597038</ele>
        <time>2021-10-03T07:40:17.000Z</time>
      </trkpt>
      <trkpt lat="43.62771" lon="2.27384">
        <ele>179.78991</ele>
        <time>2021-10-03T07:40:18.000Z</time>
      </trkpt>
      <trkpt lat="43.6277" lon="2.2739">
        <ele>179.979504</ele>
        <time>2021-10-03T07:40:19.000Z</time>
      </trkpt>
      <trkpt lat="43.62768" lon="2.27396">
        <ele>180.171923</ele>
        <time>2021-10-03T07:40:20.000Z</time>
      </trkpt>
      <trkpt lat="43.62767" lon="2.27401">
        <ele>180.354522</ele>
        <time>2021-10-03T07:40:21.000Z</time>
      </trkpt>
      <trkpt lat="43.62765" lon="2.27407">
        <ele>180.532087</ele>
        <time>2021-10-03T07:40:22.000Z</time>
      </trkpt>
      <trkpt lat="43.62763" lon="2.27413">
        <ele>180.721281</ele>
        <time>2021-10-03T07:40:23.000Z</time>
      </trkpt>
      <trkpt lat="43.62762" lon="2.27418">
        <ele>180.892853</ele>
        <time>2021-10-03T07:40:24.000Z</time>
      </trkpt>
      <trkpt lat="43.6276" lon="2.27423">
        <ele>181.070419</ele>
        <time>2021-10-03T07:40:25.000Z</time>
      </trkpt>
      <trkpt lat="43.62758" lon="2.27429">
        <ele>181.247462</ele>
        <time>2021-10-03T07:40:26.000Z</time>
      </trkpt>
      <trkpt lat="43.62757" lon="2.27435">
        <ele>181.43047</ele>
        <time>2021-10-03T07:40:27.000Z</time>
      </trkpt>
      <trkpt lat="43.62755" lon="2.2744">
        <ele>181.615192</ele>
        <time>2021-10-03T07:40:28.000Z</time>
      </trkpt>
      <trkpt lat="43.62753" lon="2.27446">
        <ele>181.800579</ele>
        <time>2021-10-03T07:40:29.000Z</time>
      </trkpt>
      <trkpt lat="43.62751" lon="2.27452">
        <ele>181.98801</ele>
        <time>2021-10-03T07:40:30.000Z</time>
      </trkpt>
      <trkpt lat="43.6275" lon="2.27457">
        <ele>182.171968</ele>
        <time>2021-10-03T07:40:31.000Z</time>
      </trkpt>
      <trkpt lat="43.62748" lon="2.27463">
        <ele>182.351786</ele>
        <time>2021-10-03T07:40:32.000Z</time>
      </trkpt>
      <trkpt lat="43.62747" lon="2.27469">
        <ele>182.527332</ele>
        <time>2021-10-03T07:40:33.000Z</time>
      </trkpt>
      <trkpt lat="43.62745" lon="2.27474">
        <ele>182.697302</ele>
        <time>2021-10-03T07:40:34.000Z</time>
      </trkpt>
      <trkpt lat="43.62743" lon="2.27479">
        <ele>182.873951</ele>
        <time>2021-10-03T07:40:35.000Z</time>
      </trkpt>
      <trkpt lat="43.62742" lon="2.27484">
        <ele>183.030107</ele>
        <time>2021-10-03T07:40:36.000Z</time>
      </trkpt>
      <trkpt lat="43.62739" lon="2.27488">
        <ele>183.194642</ele>
        <time>2021-10-03T07:40:37.000Z</time>
      </trkpt>
      <trkpt lat="43.62737" lon="2.27493">
        <ele>183.356746</ele>
        <time>2021-10-03T07:40:38.000Z</time>
      </trkpt>
      <trkpt lat="43.62735" lon="2.27497">
        <ele>183.509324</ele>
        <time>2021-10-03T07:40:39.000Z</time>
      </trkpt>
      <trkpt lat="43.62732" lon="2.27501">
        <ele>183.667686</ele>
        <time>2021-10-03T07:40:40.000Z</time>
      </trkpt>
      <trkpt lat="43.62729" lon="2.27504">
        <ele>183.818433</ele>
        <time>2021-10-03T07:40:41.000Z</time>
      </trkpt>
      <trkpt lat="43.62726" lon="2.27508">
        <ele>183.978546</ele>
        <time>2021-10-03T07:40:42.000Z</time>
      </trkpt>
      <trkpt lat="43.62723" lon="2.27511">
        <ele>184.145013</ele>
        <time>2021-10-03T07:40:43.000Z</time>
      </trkpt>
      <trkpt lat="43.6272" lon="2.27514">
        <ele>184.319862</ele>
        <time>2021-10-03T07:40:44.000Z</time>
      </trkpt>
      <trkpt lat="43.62716" lon="2.27517">
        <ele>184.49482</ele>
        <time>2021-10-03T07:40:45.000Z</time>
      </trkpt>
      <trkpt lat="43.62713" lon="2.27521">
        <ele>184.67158</ele>
        <time>2021-10-03T07:40:46.000Z</time>
      </trkpt>
      <trkpt lat="43.62709" lon="2.27525">
        <ele>184.851632</ele>
        <time>2021-10-03T07:40:47.000Z</time>
      </trkpt>
      <trkpt lat="43.62706" lon="2.27528">
        <ele>185.028391</ele>
        <time>2021-10-03T07:40:48.000Z</time>
      </trkpt>
      <trkpt lat="43.62702" lon="2.27532">
        <ele>185.20335</ele>
        <time>2021-10-03T07:40:49.000Z</time>
      </trkpt>
      <trkpt lat="43.62699" lon="2.27535">
        <ele>185.390162</ele>
        <time>2021-10-03T07:40:50.000Z</time>
      </trkpt>
      <trkpt lat="43.62695" lon="2.27538">
        <ele>185.575367</ele>
        <time>2021-10-03T07:40:51.000Z</time>
      </trkpt>
      <trkpt lat="43.62691" lon="2.27542">
        <ele>185.750215</ele>
        <time>2021-10-03T07:40:52.000Z</time>
      </trkpt>
      <trkpt lat="43.62688" lon="2.27545">
        <ele>185.925174</ele>
        <time>2021-10-03T07:40:53.000Z</time>
      </trkpt>
      <trkpt lat="43.62684" lon="2.27549">
        <ele>186.117005</ele>
        <time>2021-10-03T07:40:54.000Z</time>
      </trkpt>
      <trkpt lat="43.62681" lon="2.27553">
        <ele>186.298856</ele>
        <time>2021-10-03T07:40:55.000Z</time>
      </trkpt>
      <trkpt lat="43.62677" lon="2.27556">
        <ele>186.492423</ele>
        <time>2021-10-03T07:40:56.000Z</time>
      </trkpt>
      <trkpt lat="43.62673" lon="2.2756">
        <ele>186.671015</ele>
        <time>2021-10-03T07:40:57.000Z</time>
      </trkpt>
      <trkpt lat="43.6267" lon="2.27564">
        <ele>186.864582</ele>
        <time>2021-10-03T07:40:58.000Z</time>
      </trkpt>
      <trkpt lat="43.62666" lon="2.27568">
        <ele>186.907089</ele>
        <time>2021-10-03T07:40:59.000Z</time>
      </trkpt>
      <trkpt lat="43.62662" lon="2.27571">
        <ele>186.864292</ele>
        <time>2021-10-03T07:41:00.000Z</time>
      </trkpt>
      <trkpt lat="43.62659" lon="2.27575">
        <ele>186.818147</ele>
        <time>2021-10-03T07:41:01.000Z</time>
      </trkpt>
      <trkpt lat="43.62655" lon="2.27578">
        <ele>186.771951</ele>
        <time>2021-10-03T07:41:02.000Z</time>
      </trkpt>
      <trkpt lat="43.62652" lon="2.27582">
        <ele>186.726561</ele>
        <time>2021-10-03T07:41:03.000Z</time>
      </trkpt>
      <trkpt lat="43.62648" lon="2.27586">
        <ele>186.678728</ele>
        <time>2021-10-03T07:41:04.000Z</time>
      </trkpt>
      <trkpt lat="43.62644" lon="2.2759">
        <ele>186.631325</ele>
        <time>2021-10-03T07:41:05.000Z</time>
      </trkpt>
      <trkpt lat="43.6264" lon="2.27594">
        <ele>186.581239</ele>
        <time>2021-10-03T07:41:06.000Z</time>
      </trkpt>
      <trkpt lat="43.62636" lon="2.27598">
        <ele>186.524595</ele>
        <time>2021-10-03T07:41:07.000Z</time>
      </trkpt>
      <trkpt lat="43.62632" lon="2.27603">
        <ele>186.469483</ele>
        <time>2021-10-03T07:41:08.000Z</time>
      </trkpt>
      <trkpt lat="43.62627" lon="2.27608">
        <ele>186.410254</ele>
        <time>2021-10-03T07:41:09.000Z</time>
      </trkpt>
      <trkpt lat="43.62622" lon="2.27613">
        <ele>186.34644</ele>
        <time>2021-10-03T07:41:10.000Z</time>
      </trkpt>
      <trkpt lat="43.62617" lon="2.27618">
        <ele>186.283437</ele>
        <time>2021-10-03T07:41:11.000Z</time>
      </trkpt>
      <trkpt lat="43.62612" lon="2.27624">
        <ele>186.222362</ele>
        <time>2021-10-03T07:41:12.000Z</time>
      </trkpt>
      <trkpt lat="43.62608" lon="2.27629">
        <ele>186.158906</ele>
        <time>2021-10-03T07:41:13.000Z</time>
      </trkpt>
      <trkpt lat="43.62603" lon="2.27635">
        <ele>186.095404</ele>
        <time>2021-10-03T07:41:14.000Z</time>
      </trkpt>
      <trkpt lat="43.62599" lon="2.27641">
        <ele>186.032028</ele>
        <time>2021-10-03T07:41:15.000Z</time>
      </trkpt>
      <trkpt lat="43.62595" lon="2.27647">
        <ele>185.973434</ele>
        <time>2021-10-03T07:41:16.000Z</time>
      </trkpt>
      <trkpt lat="43.62591" lon="2.27654">
        <ele>185.912338</ele>
        <time>2021-10-03T07:41:17.000Z</time>
      </trkpt>
      <trkpt lat="43.62588" lon="2.2766">
        <ele>185.854268</ele>
        <time>2021-10-03T07:41:18.000Z</time>
      </trkpt>
      <trkpt lat="43.62585" lon="2.27667">
        <ele>185.794477</ele>
        <time>2021-10-03T07:41:19.000Z</time>
      </trkpt>
      <trkpt lat="43.62582" lon="2.27673">
        <ele>185.738251</ele>
        <time>2021-10-03T07:41:20.000Z</time>
      </trkpt>
      <trkpt lat="43.62579" lon="2.2768">
        <ele>185.681353</ele>
        <time>2021-10-03T07:41:21.000Z</time>
      </trkpt>
      <trkpt lat="43.62575" lon="2.27686">
        <ele>185.621559</ele>
        <time>2021-10-03T07:41:22.000Z</time>
      </trkpt>
      <trkpt lat="43.62573" lon="2.27693">
        <ele>185.564315</ele>
        <time>2021-10-03T07:41:23.000Z</time>
      </trkpt>
      <trkpt lat="43.6257" lon="2.277">
        <ele>185.508205</ele>
        <time>2021-10-03T07:41:24.000Z</time>
      </trkpt>
      <trkpt lat="43.62567" lon="2.27706">
        <ele>185.450204</ele>
        <time>2021-10-03T07:41:25.000Z</time>
      </trkpt>
      <trkpt lat="43.62563" lon="2.27712">
        <ele>185.393901</ele>
        <time>2021-10-03T07:41:26.000Z</time>
      </trkpt>
      <trkpt lat="43.62559" lon="2.27717">
        <ele>185.340392</ele>
        <time>2021-10-03T07:41:27.000Z</time>
      </trkpt>
      <trkpt lat="43.62555" lon="2.27721">
        <ele>185.28583</ele>
        <time>2021-10-03T07:41:28.000Z</time>
      </trkpt>
      <trkpt lat="43.62549" lon="2.27723">
        <ele>185.226041</ele>
        <time>2021-10-03T07:41:29.000Z</time>
      </trkpt>
      <trkpt lat="43.62543" lon="2.27723">
        <ele>185.167902</ele>
        <time>2021-10-03T07:41:30.000Z</time>
      </trkpt>
      <trkpt lat="43.62537" lon="2.27721">
        <ele>185.103619</ele>
        <time>2021-10-03T07:41:31.000Z</time>
      </trkpt>
      <trkpt lat="43.62531" lon="2.27717">
        <ele>185.339807</ele>
        <time>2021-10-03T07:41:32.000Z</time>
      </trkpt>
      <trkpt lat="43.62527" lon="2.27715">
        <ele>185.517554</ele>
        <time>2021-10-03T07:41:33.000Z</time>
      </trkpt>
      <trkpt lat="43.62523" lon="2.27715">
        <ele>185.661326</ele>
        <time>2021-10-03T07:41:34.000Z</time>
      </trkpt>
      <trkpt lat="43.6252" lon="2.27716">
        <ele>185.751037</ele>
        <time>2021-10-03T07:41:35.000Z</time>
      </trkpt>
      <trkpt lat="43.62519" lon="2.27719">
        <ele>185.842046</ele>
        <time>2021-10-03T07:41:36.000Z</time>
      </trkpt>
      <trkpt lat="43.62519" lon="2.27724">
        <ele>185.970589</ele>
        <time>2021-10-03T07:41:37.000Z</time>
      </trkpt>
      <trkpt lat="43.62521" lon="2.2773">
        <ele>186.12798</ele>
        <time>2021-10-03T07:41:38.000Z</time>
      </trkpt>
      <trkpt lat="43.62522" lon="2.27736">
        <ele>186.288924</ele>
        <time>2021-10-03T07:41:39.000Z</time>
      </trkpt>
      <trkpt lat="43.62523" lon="2.27742">
        <ele>186.454062</ele>
        <time>2021-10-03T07:41:40.000Z</time>
      </trkpt>
      <trkpt lat="43.62524" lon="2.27747">
        <ele>186.615006</ele>
        <time>2021-10-03T07:41:41.000Z</time>
      </trkpt>
      <trkpt lat="43.62525" lon="2.27753">
        <ele>186.780144</ele>
        <time>2021-10-03T07:41:42.000Z</time>
      </trkpt>
      <trkpt lat="43.62526" lon="2.2776">
        <ele>186.956535</ele>
        <time>2021-10-03T07:41:43.000Z</time>
      </trkpt>
      <trkpt lat="43.62527" lon="2.27766">
        <ele>187.121673</ele>
        <time>2021-10-03T07:41:44.000Z</time>
      </trkpt>
      <trkpt lat="43.62528" lon="2.27772">
        <ele>187.287748</ele>
        <time>2021-10-03T07:41:45.000Z</time>
      </trkpt>
      <trkpt lat="43.62529" lon="2.27778">
        <ele>187.458402</ele>
        <time>2021-10-03T07:41:46.000Z</time>
      </trkpt>
      <trkpt lat="43.62529" lon="2.27784">
        <ele>187.615285</ele>
        <time>2021-10-03T07:41:47.000Z</time>
      </trkpt>
      <trkpt lat="43.6253" lon="2.2779">
        <ele>187.772816</ele>
        <time>2021-10-03T07:41:48.000Z</time>
      </trkpt>
      <trkpt lat="43.62531" lon="2.27796">
        <ele>187.935593</ele>
        <time>2021-10-03T07:41:49.000Z</time>
      </trkpt>
      <trkpt lat="43.62532" lon="2.27802">
        <ele>188.097742</ele>
        <time>2021-10-03T07:41:50.000Z</time>
      </trkpt>
      <trkpt lat="43.62532" lon="2.27808">
        <ele>188.2552</ele>
        <time>2021-10-03T07:41:51.000Z</time>
      </trkpt>
      <trkpt lat="43.62532" lon="2.27814">
        <ele>188.415664</ele>
        <time>2021-10-03T07:41:52.000Z</time>
      </trkpt>
      <trkpt lat="43.62532" lon="2.2782">
        <ele>188.576425</ele>
        <time>2021-10-03T07:41:53.000Z</time>
      </trkpt>
      <trkpt lat="43.62533" lon="2.27826">
        <ele>188.739843</ele>
        <time>2021-10-03T07:41:54.000Z</time>
      </trkpt>
      <trkpt lat="43.62533" lon="2.27832">
        <ele>188.905262</ele>
        <time>2021-10-03T07:41:55.000Z</time>
      </trkpt>
      <trkpt lat="43.62533" lon="2.27838">
        <ele>189.068013</ele>
        <time>2021-10-03T07:41:56.000Z</time>
      </trkpt>
      <trkpt lat="43.62533" lon="2.27844">
        <ele>189.234088</ele>
        <time>2021-10-03T07:41:57.000Z</time>
      </trkpt>
      <trkpt lat="43.62533" lon="2.27851">
        <ele>189.399507</ele>
        <time>2021-10-03T07:41:58.000Z</time>
      </trkpt>
      <trkpt lat="43.62533" lon="2.27857">
        <ele>189.55959</ele>
        <time>2021-10-03T07:41:59.000Z</time>
      </trkpt>
      <trkpt lat="43.62533" lon="2.27862">
        <ele>189.706333</ele>
        <time>2021-10-03T07:42:00.000Z</time>
      </trkpt>
      <trkpt lat="43.62533" lon="2.27869">
        <ele>189.879756</ele>
        <time>2021-10-03T07:42:01.000Z</time>
      </trkpt>
      <trkpt lat="43.62533" lon="2.27874">
        <ele>190.037171</ele>
        <time>2021-10-03T07:42:02.000Z</time>
      </trkpt>
      <trkpt lat="43.62533" lon="2.27881">
        <ele>190.202591</ele>
        <time>2021-10-03T07:42:03.000Z</time>
      </trkpt>
      <trkpt lat="43.62533" lon="2.27887">
        <ele>190.360006</ele>
        <time>2021-10-03T07:42:04.000Z</time>
      </trkpt>
      <trkpt lat="43.62533" lon="2.27892">
        <ele>190.514753</ele>
        <time>2021-10-03T07:42:05.000Z</time>
      </trkpt>
      <trkpt lat="43.62533" lon="2.27899">
        <ele>190.680172</ele>
        <time>2021-10-03T07:42:06.000Z</time>
      </trkpt>
      <trkpt lat="43.62533" lon="2.27905">
        <ele>190.845591</ele>
        <time>2021-10-03T07:42:07.000Z</time>
      </trkpt>
      <trkpt lat="43.62533" lon="2.27911">
        <ele>191.014324</ele>
        <time>2021-10-03T07:42:08.000Z</time>
      </trkpt>
      <trkpt lat="43.62532" lon="2.27917">
        <ele>191.175084</ele>
        <time>2021-10-03T07:42:09.000Z</time>
      </trkpt>
      <trkpt lat="43.62532" lon="2.27923">
        <ele>191.340873</ele>
        <time>2021-10-03T07:42:10.000Z</time>
      </trkpt>
      <trkpt lat="43.62532" lon="2.27929">
        <ele>191.495664</ele>
        <time>2021-10-03T07:42:11.000Z</time>
      </trkpt>
      <trkpt lat="43.62533" lon="2.27935">
        <ele>191.653195</ele>
        <time>2021-10-03T07:42:12.000Z</time>
      </trkpt>
      <trkpt lat="43.62533" lon="2.27941">
        <ele>191.900797</ele>
        <time>2021-10-03T07:42:13.000Z</time>
      </trkpt>
      <trkpt lat="43.62532" lon="2.27947">
        <ele>192.27165</ele>
        <time>2021-10-03T07:42:14.000Z</time>
      </trkpt>
      <trkpt lat="43.62532" lon="2.27953">
        <ele>192.640941</ele>
        <time>2021-10-03T07:42:15.000Z</time>
      </trkpt>
      <trkpt lat="43.62533" lon="2.27958">
        <ele>192.999539</ele>
        <time>2021-10-03T07:42:16.000Z</time>
      </trkpt>
      <trkpt lat="43.62533" lon="2.27964">
        <ele>193.362675</ele>
        <time>2021-10-03T07:42:17.000Z</time>
      </trkpt>
      <trkpt lat="43.62533" lon="2.2797">
        <ele>193.70902</ele>
        <time>2021-10-03T07:42:18.000Z</time>
      </trkpt>
      <trkpt lat="43.62533" lon="2.27975">
        <ele>194.041382</ele>
        <time>2021-10-03T07:42:19.000Z</time>
      </trkpt>
      <trkpt lat="43.62534" lon="2.27981">
        <ele>194.399979</ele>
        <time>2021-10-03T07:42:20.000Z</time>
      </trkpt>
      <trkpt lat="43.62534" lon="2.27987">
        <ele>194.74465</ele>
        <time>2021-10-03T07:42:21.000Z</time>
      </trkpt>
      <trkpt lat="43.62534" lon="2.27992">
        <ele>195.070857</ele>
        <time>2021-10-03T07:42:22.000Z</time>
      </trkpt>
      <trkpt lat="43.62533" lon="2.27997">
        <ele>195.356016</ele>
        <time>2021-10-03T07:42:23.000Z</time>
      </trkpt>
      <trkpt lat="43.62533" lon="2.28001">
        <ele>195.616747</ele>
        <time>2021-10-03T07:42:24.000Z</time>
      </trkpt>
      <trkpt lat="43.62532" lon="2.28005">
        <ele>195.882014</ele>
        <time>2021-10-03T07:42:25.000Z</time>
      </trkpt>
      <trkpt lat="43.62531" lon="2.2801">
        <ele>196.197184</ele>
        <time>2021-10-03T07:42:26.000Z</time>
      </trkpt>
      <trkpt lat="43.62531" lon="2.28015">
        <ele>196.5068</ele>
        <time>2021-10-03T07:42:27.000Z</time>
      </trkpt>
      <trkpt lat="43.62531" lon="2.2802">
        <ele>196.8103</ele>
        <time>2021-10-03T07:42:28.000Z</time>
      </trkpt>
      <trkpt lat="43.62529" lon="2.28025">
        <ele>197.126057</ele>
        <time>2021-10-03T07:42:29.000Z</time>
      </trkpt>
      <trkpt lat="43.62529" lon="2.28029">
        <ele>197.397326</ele>
        <time>2021-10-03T07:42:30.000Z</time>
      </trkpt>
      <trkpt lat="43.62528" lon="2.28033">
        <ele>197.652498</ele>
        <time>2021-10-03T07:42:31.000Z</time>
      </trkpt>
      <trkpt lat="43.62526" lon="2.28037">
        <ele>197.933197</ele>
        <time>2021-10-03T07:42:32.000Z</time>
      </trkpt>
      <trkpt lat="43.62525" lon="2.28041">
        <ele>198.216843</ele>
        <time>2021-10-03T07:42:33.000Z</time>
      </trkpt>
      <trkpt lat="43.62524" lon="2.28046">
        <ele>198.509177</ele>
        <time>2021-10-03T07:42:34.000Z</time>
      </trkpt>
      <trkpt lat="43.62523" lon="2.28051">
        <ele>198.807349</ele>
        <time>2021-10-03T07:42:35.000Z</time>
      </trkpt>
      <trkpt lat="43.62522" lon="2.28055">
        <ele>199.096747</ele>
        <time>2021-10-03T07:42:36.000Z</time>
      </trkpt>
      <trkpt lat="43.62521" lon="2.28059">
        <ele>199.358103</ele>
        <time>2021-10-03T07:42:37.000Z</time>
      </trkpt>
      <trkpt lat="43.6252" lon="2.28063">
        <ele>199.61572</ele>
        <time>2021-10-03T07:42:38.000Z</time>
      </trkpt>
      <trkpt lat="43.62519" lon="2.28067">
        <ele>199.908055</ele>
        <time>2021-10-03T07:42:39.000Z</time>
      </trkpt>
      <trkpt lat="43.62517" lon="2.28072">
        <ele>200.229843</ele>
        <time>2021-10-03T07:42:40.000Z</time>
      </trkpt>
      <trkpt lat="43.62516" lon="2.28077">
        <ele>200.565766</ele>
        <time>2021-10-03T07:42:41.000Z</time>
      </trkpt>
      <trkpt lat="43.62515" lon="2.28082">
        <ele>200.898892</ele>
        <time>2021-10-03T07:42:42.000Z</time>
      </trkpt>
      <trkpt lat="43.62513" lon="2.28087">
        <ele>201.205638</ele>
        <time>2021-10-03T07:42:43.000Z</time>
      </trkpt>
      <trkpt lat="43.62513" lon="2.28093">
        <ele>201.581084</ele>
        <time>2021-10-03T07:42:44.000Z</time>
      </trkpt>
      <trkpt lat="43.62513" lon="2.28099">
        <ele>201.950376</ele>
        <time>2021-10-03T07:42:45.000Z</time>
      </trkpt>
      <trkpt lat="43.62513" lon="2.28105">
        <ele>202.313781</ele>
        <time>2021-10-03T07:42:46.000Z</time>
      </trkpt>
      <trkpt lat="43.62512" lon="2.2811">
        <ele>202.651432</ele>
        <time>2021-10-03T07:42:47.000Z</time>
      </trkpt>
      <trkpt lat="43.62512" lon="2.28116">
        <ele>202.997778</ele>
        <time>2021-10-03T07:42:48.000Z</time>
      </trkpt>
      <trkpt lat="43.6251" lon="2.28121">
        <ele>203.34305</ele>
        <time>2021-10-03T07:42:49.000Z</time>
      </trkpt>
      <trkpt lat="43.6251" lon="2.28127">
        <ele>203.682303</ele>
        <time>2021-10-03T07:42:50.000Z</time>
      </trkpt>
      <trkpt lat="43.62509" lon="2.28132">
        <ele>204.033623</ele>
        <time>2021-10-03T07:42:51.000Z</time>
      </trkpt>
      <trkpt lat="43.62508" lon="2.28138">
        <ele>204.373846</ele>
        <time>2021-10-03T07:42:52.000Z</time>
      </trkpt>
      <trkpt lat="43.62508" lon="2.28143">
        <ele>204.705439</ele>
        <time>2021-10-03T07:42:53.000Z</time>
      </trkpt>
      <trkpt lat="43.62507" lon="2.28149">
        <ele>205.050724</ele>
        <time>2021-10-03T07:42:54.000Z</time>
      </trkpt>
      <trkpt lat="43.62505" lon="2.28154">
        <ele>205.38385</ele>
        <time>2021-10-03T07:42:55.000Z</time>
      </trkpt>
      <trkpt lat="43.62504" lon="2.28159">
        <ele>205.735051</ele>
        <time>2021-10-03T07:42:56.000Z</time>
      </trkpt>
      <trkpt lat="43.62504" lon="2.28165">
        <ele>206.068276</ele>
        <time>2021-10-03T07:42:57.000Z</time>
      </trkpt>
      <trkpt lat="43.62503" lon="2.2817">
        <ele>206.401501</ele>
        <time>2021-10-03T07:42:58.000Z</time>
      </trkpt>
      <trkpt lat="43.62502" lon="2.28175">
        <ele>206.734941</ele>
        <time>2021-10-03T07:42:59.000Z</time>
      </trkpt>
      <trkpt lat="43.62501" lon="2.2818">
        <ele>207.059114</ele>
        <time>2021-10-03T07:43:00.000Z</time>
      </trkpt>
      <trkpt lat="43.62499" lon="2.28186">
        <ele>207.462851</ele>
        <time>2021-10-03T07:43:01.000Z</time>
      </trkpt>
      <trkpt lat="43.62498" lon="2.28191">
        <ele>207.826173</ele>
        <time>2021-10-03T07:43:02.000Z</time>
      </trkpt>
      <trkpt lat="43.62497" lon="2.28196">
        <ele>208.13459</ele>
        <time>2021-10-03T07:43:03.000Z</time>
      </trkpt>
      <trkpt lat="43.62497" lon="2.28201">
        <ele>208.48197</ele>
        <time>2021-10-03T07:43:04.000Z</time>
      </trkpt>
      <trkpt lat="43.62496" lon="2.28206">
        <ele>208.822847</ele>
        <time>2021-10-03T07:43:05.000Z</time>
      </trkpt>
      <trkpt lat="43.62495" lon="2.28211">
        <ele>209.168397</ele>
        <time>2021-10-03T07:43:06.000Z</time>
      </trkpt>
      <trkpt lat="43.62494" lon="2.28216">
        <ele>209.522285</ele>
        <time>2021-10-03T07:43:07.000Z</time>
      </trkpt>
      <trkpt lat="43.62494" lon="2.28221">
        <ele>209.861297</ele>
        <time>2021-10-03T07:43:08.000Z</time>
      </trkpt>
      <trkpt lat="43.62493" lon="2.28226">
        <ele>210.182703</ele>
        <time>2021-10-03T07:43:09.000Z</time>
      </trkpt>
      <trkpt lat="43.62492" lon="2.28231">
        <ele>210.530083</ele>
        <time>2021-10-03T07:43:10.000Z</time>
      </trkpt>
      <trkpt lat="43.62491" lon="2.28236">
        <ele>210.871596</ele>
        <time>2021-10-03T07:43:11.000Z</time>
      </trkpt>
      <trkpt lat="43.62491" lon="2.2824">
        <ele>211.193236</ele>
        <time>2021-10-03T07:43:12.000Z</time>
      </trkpt>
      <trkpt lat="43.62489" lon="2.28245">
        <ele>211.516995</ele>
        <time>2021-10-03T07:43:13.000Z</time>
      </trkpt>
      <trkpt lat="43.62487" lon="2.28249">
        <ele>211.847657</ele>
        <time>2021-10-03T07:43:14.000Z</time>
      </trkpt>
      <trkpt lat="43.62485" lon="2.28253">
        <ele>212.171278</ele>
        <time>2021-10-03T07:43:15.000Z</time>
      </trkpt>
      <trkpt lat="43.62484" lon="2.28257">
        <ele>212.483044</ele>
        <time>2021-10-03T07:43:16.000Z</time>
      </trkpt>
      <trkpt lat="43.62482" lon="2.28261">
        <ele>212.785031</ele>
        <time>2021-10-03T07:43:17.000Z</time>
      </trkpt>
      <trkpt lat="43.6248" lon="2.28265">
        <ele>213.061543</ele>
        <time>2021-10-03T07:43:18.000Z</time>
      </trkpt>
      <trkpt lat="43.62479" lon="2.28268">
        <ele>213.33144</ele>
        <time>2021-10-03T07:43:19.000Z</time>
      </trkpt>
      <trkpt lat="43.62478" lon="2.28272">
        <ele>213.585223</ele>
        <time>2021-10-03T07:43:20.000Z</time>
      </trkpt>
      <trkpt lat="43.62476" lon="2.28275">
        <ele>213.867525</ele>
        <time>2021-10-03T07:43:21.000Z</time>
      </trkpt>
      <trkpt lat="43.62475" lon="2.2828">
        <ele>214.19302</ele>
        <time>2021-10-03T07:43:22.000Z</time>
      </trkpt>
      <trkpt lat="43.62474" lon="2.28284">
        <ele>214.456463</ele>
        <time>2021-10-03T07:43:23.000Z</time>
      </trkpt>
      <trkpt lat="43.62474" lon="2.28288">
        <ele>214.725267</ele>
        <time>2021-10-03T07:43:24.000Z</time>
      </trkpt>
      <trkpt lat="43.62474" lon="2.28292">
        <ele>215.004857</ele>
        <time>2021-10-03T07:43:25.000Z</time>
      </trkpt>
      <trkpt lat="43.62474" lon="2.28297">
        <ele>215.337701</ele>
        <time>2021-10-03T07:43:26.000Z</time>
      </trkpt>
      <trkpt lat="43.62473" lon="2.28301">
        <ele>215.64612</ele>
        <time>2021-10-03T07:43:27.000Z</time>
      </trkpt>
      <trkpt lat="43.62474" lon="2.28306">
        <ele>215.953577</ele>
        <time>2021-10-03T07:43:28.000Z</time>
      </trkpt>
      <trkpt lat="43.62474" lon="2.28311">
        <ele>216.3205</ele>
        <time>2021-10-03T07:43:29.000Z</time>
      </trkpt>
      <trkpt lat="43.62474" lon="2.28317">
        <ele>216.673315</ele>
        <time>2021-10-03T07:43:30.000Z</time>
      </trkpt>
      <trkpt lat="43.62474" lon="2.28322">
        <ele>217.020571</ele>
        <time>2021-10-03T07:43:31.000Z</time>
      </trkpt>
      <trkpt lat="43.62474" lon="2.28327">
        <ele>217.347924</ele>
        <time>2021-10-03T07:43:32.000Z</time>
      </trkpt>
      <trkpt lat="43.62474" lon="2.28332">
        <ele>217.674111</ele>
        <time>2021-10-03T07:43:33.000Z</time>
      </trkpt>
      <trkpt lat="43.62474" lon="2.28337">
        <ele>218.006956</ele>
        <time>2021-10-03T07:43:34.000Z</time>
      </trkpt>
      <trkpt lat="43.62474" lon="2.28342">
        <ele>218.333143</ele>
        <time>2021-10-03T07:43:35.000Z</time>
      </trkpt>
      <trkpt lat="43.62475" lon="2.28347">
        <ele>218.668014</ele>
        <time>2021-10-03T07:43:36.000Z</time>
      </trkpt>
      <trkpt lat="43.62475" lon="2.28351">
        <ele>218.980888</ele>
        <time>2021-10-03T07:43:37.000Z</time>
      </trkpt>
      <trkpt lat="43.62475" lon="2.28357">
        <ele>219.333703</ele>
        <time>2021-10-03T07:43:38.000Z</time>
      </trkpt>
      <trkpt lat="43.62475" lon="2.28361">
        <ele>219.646577</ele>
        <time>2021-10-03T07:43:39.000Z</time>
      </trkpt>
      <trkpt lat="43.62475" lon="2.28366">
        <ele>219.986079</ele>
        <time>2021-10-03T07:43:40.000Z</time>
      </trkpt>
      <trkpt lat="43.62475" lon="2.28371">
        <ele>220.30772</ele>
        <time>2021-10-03T07:43:41.000Z</time>
      </trkpt>
      <trkpt lat="43.62476" lon="2.28376">
        <ele>220.62063</ele>
        <time>2021-10-03T07:43:42.000Z</time>
      </trkpt>
      <trkpt lat="43.62476" lon="2.2838">
        <ele>220.876252</ele>
        <time>2021-10-03T07:43:43.000Z</time>
      </trkpt>
      <trkpt lat="43.62477" lon="2.28384">
        <ele>221.152504</ele>
        <time>2021-10-03T07:43:44.000Z</time>
      </trkpt>
      <trkpt lat="43.62478" lon="2.28388">
        <ele>221.454314</ele>
        <time>2021-10-03T07:43:45.000Z</time>
      </trkpt>
      <trkpt lat="43.62478" lon="2.28393">
        <ele>221.767188</ele>
        <time>2021-10-03T07:43:46.000Z</time>
      </trkpt>
      <trkpt lat="43.62478" lon="2.28398">
        <ele>222.082216</ele>
        <time>2021-10-03T07:43:47.000Z</time>
      </trkpt>
      <trkpt lat="43.62478" lon="2.28402">
        <ele>222.357616</ele>
        <time>2021-10-03T07:43:48.000Z</time>
      </trkpt>
      <trkpt lat="43.62477" lon="2.28406">
        <ele>222.619828</ele>
        <time>2021-10-03T07:43:49.000Z</time>
      </trkpt>
      <trkpt lat="43.62478" lon="2.2841">
        <ele>222.948083</ele>
        <time>2021-10-03T07:43:50.000Z</time>
      </trkpt>
      <trkpt lat="43.62477" lon="2.28415">
        <ele>223.230082</ele>
        <time>2021-10-03T07:43:51.000Z</time>
      </trkpt>
      <trkpt lat="43.62477" lon="2.2842">
        <ele>223.562926</ele>
        <time>2021-10-03T07:43:52.000Z</time>
      </trkpt>
      <trkpt lat="43.62478" lon="2.28425">
        <ele>223.808031</ele>
        <time>2021-10-03T07:43:53.000Z</time>
      </trkpt>
      <trkpt lat="43.62479" lon="2.28429">
        <ele>224.0433</ele>
        <time>2021-10-03T07:43:54.000Z</time>
      </trkpt>
      <trkpt lat="43.6248" lon="2.28433">
        <ele>224.255252</ele>
        <time>2021-10-03T07:43:55.000Z</time>
      </trkpt>
      <trkpt lat="43.6248" lon="2.28437">
        <ele>224.47</ele>
        <time>2021-10-03T07:43:56.000Z</time>
      </trkpt>
      <trkpt lat="43.62481" lon="2.28443">
        <ele>224.747873</ele>
        <time>2021-10-03T07:43:57.000Z</time>
      </trkpt>
      <trkpt lat="43.62482" lon="2.28448">
        <ele>225.01605</ele>
        <time>2021-10-03T07:43:58.000Z</time>
      </trkpt>
      <trkpt lat="43.62483" lon="2.28452">
        <ele>225.24077</ele>
        <time>2021-10-03T07:43:59.000Z</time>
      </trkpt>
      <trkpt lat="43.62483" lon="2.28457">
        <ele>225.48844</ele>
        <time>2021-10-03T07:44:00.000Z</time>
      </trkpt>
      <trkpt lat="43.62483" lon="2.28462">
        <ele>225.716296</ele>
        <time>2021-10-03T07:44:01.000Z</time>
      </trkpt>
      <trkpt lat="43.62483" lon="2.28467">
        <ele>225.95988</ele>
        <time>2021-10-03T07:44:02.000Z</time>
      </trkpt>
      <trkpt lat="43.62483" lon="2.28472">
        <ele>226.20755</ele>
        <time>2021-10-03T07:44:03.000Z</time>
      </trkpt>
      <trkpt lat="43.62483" lon="2.28477">
        <ele>226.446198</ele>
        <time>2021-10-03T07:44:04.000Z</time>
      </trkpt>
      <trkpt lat="43.62482" lon="2.28481">
        <ele>226.674189</ele>
        <time>2021-10-03T07:44:05.000Z</time>
      </trkpt>
      <trkpt lat="43.62482" lon="2.28486">
        <ele>226.888937</ele>
        <time>2021-10-03T07:44:06.000Z</time>
      </trkpt>
      <trkpt lat="43.62481" lon="2.28491">
        <ele>227.147793</ele>
        <time>2021-10-03T07:44:07.000Z</time>
      </trkpt>
      <trkpt lat="43.62479" lon="2.28497">
        <ele>227.506439</ele>
        <time>2021-10-03T07:44:08.000Z</time>
      </trkpt>
      <trkpt lat="43.62478" lon="2.28503">
        <ele>227.790848</ele>
        <time>2021-10-03T07:44:09.000Z</time>
      </trkpt>
      <trkpt lat="43.62477" lon="2.2851">
        <ele>228.149494</ele>
        <time>2021-10-03T07:44:10.000Z</time>
      </trkpt>
      <trkpt lat="43.62475" lon="2.28515">
        <ele>228.401038</ele>
        <time>2021-10-03T07:44:11.000Z</time>
      </trkpt>
      <trkpt lat="43.62475" lon="2.28521">
        <ele>228.714973</ele>
        <time>2021-10-03T07:44:12.000Z</time>
      </trkpt>
      <trkpt lat="43.62473" lon="2.28528">
        <ele>229.074702</ele>
        <time>2021-10-03T07:44:13.000Z</time>
      </trkpt>
      <trkpt lat="43.62472" lon="2.28534">
        <ele>229.394569</ele>
        <time>2021-10-03T07:44:14.000Z</time>
      </trkpt>
      <trkpt lat="43.6247" lon="2.2854">
        <ele>229.712469</ele>
        <time>2021-10-03T07:44:15.000Z</time>
      </trkpt>
      <trkpt lat="43.62468" lon="2.28546">
        <ele>230.032336</ele>
        <time>2021-10-03T07:44:16.000Z</time>
      </trkpt>
      <trkpt lat="43.62467" lon="2.28551">
        <ele>230.323468</ele>
        <time>2021-10-03T07:44:17.000Z</time>
      </trkpt>
      <trkpt lat="43.62467" lon="2.28557">
        <ele>230.581136</ele>
        <time>2021-10-03T07:44:18.000Z</time>
      </trkpt>
      <trkpt lat="43.62466" lon="2.28563">
        <ele>230.891961</ele>
        <time>2021-10-03T07:44:19.000Z</time>
      </trkpt>
      <trkpt lat="43.62466" lon="2.28568">
        <ele>231.1707</ele>
        <time>2021-10-03T07:44:20.000Z</time>
      </trkpt>
      <trkpt lat="43.62465" lon="2.28574">
        <ele>231.448583</ele>
        <time>2021-10-03T07:44:21.000Z</time>
      </trkpt>
      <trkpt lat="43.62465" lon="2.28578">
        <ele>231.67243</ele>
        <time>2021-10-03T07:44:22.000Z</time>
      </trkpt>
      <trkpt lat="43.62465" lon="2.28584">
        <ele>231.940002</ele>
        <time>2021-10-03T07:44:23.000Z</time>
      </trkpt>
      <trkpt lat="43.62465" lon="2.28589">
        <ele>232.217393</ele>
        <time>2021-10-03T07:44:24.000Z</time>
      </trkpt>
      <trkpt lat="43.62465" lon="2.28596">
        <ele>232.534412</ele>
        <time>2021-10-03T07:44:25.000Z</time>
      </trkpt>
      <trkpt lat="43.62465" lon="2.28602">
        <ele>232.831617</ele>
        <time>2021-10-03T07:44:26.000Z</time>
      </trkpt>
      <trkpt lat="43.62465" lon="2.28607">
        <ele>233.099101</ele>
        <time>2021-10-03T07:44:27.000Z</time>
      </trkpt>
      <trkpt lat="43.62465" lon="2.28613">
        <ele>233.391353</ele>
        <time>2021-10-03T07:44:28.000Z</time>
      </trkpt>
      <trkpt lat="43.62463" lon="2.2862">
        <ele>233.717185</ele>
        <time>2021-10-03T07:44:29.000Z</time>
      </trkpt>
      <trkpt lat="43.62462" lon="2.28626">
        <ele>234.023774</ele>
        <time>2021-10-03T07:44:30.000Z</time>
      </trkpt>
      <trkpt lat="43.62462" lon="2.28631">
        <ele>234.297583</ele>
        <time>2021-10-03T07:44:31.000Z</time>
      </trkpt>
      <trkpt lat="43.62461" lon="2.28637">
        <ele>234.590051</ele>
        <time>2021-10-03T07:44:32.000Z</time>
      </trkpt>
      <trkpt lat="43.6246" lon="2.28643">
        <ele>234.891091</ele>
        <time>2021-10-03T07:44:33.000Z</time>
      </trkpt>
      <trkpt lat="43.62459" lon="2.2865">
        <ele>235.242603</ele>
        <time>2021-10-03T07:44:34.000Z</time>
      </trkpt>
      <trkpt lat="43.62459" lon="2.28656">
        <ele>235.548535</ele>
        <time>2021-10-03T07:44:35.000Z</time>
      </trkpt>
      <trkpt lat="43.62458" lon="2.28662">
        <ele>235.874543</ele>
        <time>2021-10-03T07:44:36.000Z</time>
      </trkpt>
      <trkpt lat="43.62457" lon="2.28669">
        <ele>235.998976</ele>
        <time>2021-10-03T07:44:37.000Z</time>
      </trkpt>
      <trkpt lat="43.62455" lon="2.28675">
        <ele>236.119097</ele>
        <time>2021-10-03T07:44:38.000Z</time>
      </trkpt>
      <trkpt lat="43.62454" lon="2.28681">
        <ele>236.230097</ele>
        <time>2021-10-03T07:44:39.000Z</time>
      </trkpt>
      <trkpt lat="43.62453" lon="2.28685">
        <ele>236.308758</ele>
        <time>2021-10-03T07:44:40.000Z</time>
      </trkpt>
      <trkpt lat="43.62452" lon="2.28689">
        <ele>236.386259</ele>
        <time>2021-10-03T07:44:41.000Z</time>
      </trkpt>
      <trkpt lat="43.62451" lon="2.28695">
        <ele>236.492712</ele>
        <time>2021-10-03T07:44:42.000Z</time>
      </trkpt>
      <trkpt lat="43.62449" lon="2.28699">
        <ele>236.579571</ele>
        <time>2021-10-03T07:44:43.000Z</time>
      </trkpt>
      <trkpt lat="43.62448" lon="2.28706">
        <ele>236.698883</ele>
        <time>2021-10-03T07:44:44.000Z</time>
      </trkpt>
      <trkpt lat="43.62446" lon="2.28711">
        <ele>236.802771</ele>
        <time>2021-10-03T07:44:45.000Z</time>
      </trkpt>
      <trkpt lat="43.62443" lon="2.28716">
        <ele>236.914694</ele>
        <time>2021-10-03T07:44:46.000Z</time>
      </trkpt>
      <trkpt lat="43.62442" lon="2.28722">
        <ele>237.039045</ele>
        <time>2021-10-03T07:44:47.000Z</time>
      </trkpt>
      <trkpt lat="43.62441" lon="2.28728">
        <ele>237.144141</ele>
        <time>2021-10-03T07:44:48.000Z</time>
      </trkpt>
      <trkpt lat="43.62439" lon="2.28734">
        <ele>237.256886</ele>
        <time>2021-10-03T07:44:49.000Z</time>
      </trkpt>
      <trkpt lat="43.62439" lon="2.28741">
        <ele>237.376305</ele>
        <time>2021-10-03T07:44:50.000Z</time>
      </trkpt>
      <trkpt lat="43.62437" lon="2.28748">
        <ele>237.517701</ele>
        <time>2021-10-03T07:44:51.000Z</time>
      </trkpt>
      <trkpt lat="43.62436" lon="2.28754">
        <ele>237.634292</ele>
        <time>2021-10-03T07:44:52.000Z</time>
      </trkpt>
      <trkpt lat="43.62435" lon="2.28761">
        <ele>237.749912</ele>
        <time>2021-10-03T07:44:53.000Z</time>
      </trkpt>
      <trkpt lat="43.62434" lon="2.28767">
        <ele>237.869053</ele>
        <time>2021-10-03T07:44:54.000Z</time>
      </trkpt>
      <trkpt lat="43.62434" lon="2.28773">
        <ele>237.976646</ele>
        <time>2021-10-03T07:44:55.000Z</time>
      </trkpt>
      <trkpt lat="43.62433" lon="2.28779">
        <ele>238.090299</ele>
        <time>2021-10-03T07:44:56.000Z</time>
      </trkpt>
      <trkpt lat="43.62432" lon="2.28785">
        <ele>238.204161</ele>
        <time>2021-10-03T07:44:57.000Z</time>
      </trkpt>
      <trkpt lat="43.62431" lon="2.28792">
        <ele>238.327415</ele>
        <time>2021-10-03T07:44:58.000Z</time>
      </trkpt>
      <trkpt lat="43.6243" lon="2.28799">
        <ele>238.458925</ele>
        <time>2021-10-03T07:44:59.000Z</time>
      </trkpt>
      <trkpt lat="43.62428" lon="2.28806">
        <ele>238.590434</ele>
        <time>2021-10-03T07:45:00.000Z</time>
      </trkpt>
      <trkpt lat="43.62428" lon="2.28813">
        <ele>238.72237</ele>
        <time>2021-10-03T07:45:01.000Z</time>
      </trkpt>
      <trkpt lat="43.62428" lon="2.28819">
        <ele>238.834694</ele>
        <time>2021-10-03T07:45:02.000Z</time>
      </trkpt>
      <trkpt lat="43.62427" lon="2.28825">
        <ele>238.94477</ele>
        <time>2021-10-03T07:45:03.000Z</time>
      </trkpt>
      <trkpt lat="43.62426" lon="2.28832">
        <ele>239.062404</ele>
        <time>2021-10-03T07:45:04.000Z</time>
      </trkpt>
      <trkpt lat="43.62425" lon="2.28838">
        <ele>239.185073</ele>
        <time>2021-10-03T07:45:05.000Z</time>
      </trkpt>
      <trkpt lat="43.62425" lon="2.28845">
        <ele>239.312254</ele>
        <time>2021-10-03T07:45:06.000Z</time>
      </trkpt>
      <trkpt lat="43.62424" lon="2.28852">
        <ele>239.42632</ele>
        <time>2021-10-03T07:45:07.000Z</time>
      </trkpt>
      <trkpt lat="43.62423" lon="2.28858">
        <ele>239.545346</ele>
        <time>2021-10-03T07:45:08.000Z</time>
      </trkpt>
      <trkpt lat="43.62423" lon="2.28865">
        <ele>239.668915</ele>
        <time>2021-10-03T07:45:09.000Z</time>
      </trkpt>
      <trkpt lat="43.62422" lon="2.28872">
        <ele>239.796096</ele>
        <time>2021-10-03T07:45:10.000Z</time>
      </trkpt>
      <trkpt lat="43.62422" lon="2.28879">
        <ele>239.920499</ele>
        <time>2021-10-03T07:45:11.000Z</time>
      </trkpt>
      <trkpt lat="43.62421" lon="2.28886">
        <ele>240.049485</ele>
        <time>2021-10-03T07:45:12.000Z</time>
      </trkpt>
      <trkpt lat="43.62421" lon="2.28893">
        <ele>240.174485</ele>
        <time>2021-10-03T07:45:13.000Z</time>
      </trkpt>
      <trkpt lat="43.62421" lon="2.289">
        <ele>240.303301</ele>
        <time>2021-10-03T07:45:14.000Z</time>
      </trkpt>
      <trkpt lat="43.62421" lon="2.28906">
        <ele>240.484459</ele>
        <time>2021-10-03T07:45:15.000Z</time>
      </trkpt>
      <trkpt lat="43.62421" lon="2.28913">
        <ele>240.739454</ele>
        <time>2021-10-03T07:45:16.000Z</time>
      </trkpt>
      <trkpt lat="43.62421" lon="2.28919">
        <ele>241.001867</ele>
        <time>2021-10-03T07:45:17.000Z</time>
      </trkpt>
      <trkpt lat="43.62422" lon="2.28926">
        <ele>241.251357</ele>
        <time>2021-10-03T07:45:18.000Z</time>
      </trkpt>
      <trkpt lat="43.62422" lon="2.28932">
        <ele>241.491491</ele>
        <time>2021-10-03T07:45:19.000Z</time>
      </trkpt>
      <trkpt lat="43.62423" lon="2.28937">
        <ele>241.709608</ele>
        <time>2021-10-03T07:45:20.000Z</time>
      </trkpt>
      <trkpt lat="43.62424" lon="2.28942">
        <ele>241.924867</ele>
        <time>2021-10-03T07:45:21.000Z</time>
      </trkpt>
      <trkpt lat="43.62424" lon="2.28948">
        <ele>242.144646</ele>
        <time>2021-10-03T07:45:22.000Z</time>
      </trkpt>
      <trkpt lat="43.62425" lon="2.28954">
        <ele>242.405928</ele>
        <time>2021-10-03T07:45:23.000Z</time>
      </trkpt>
      <trkpt lat="43.62425" lon="2.2896">
        <ele>242.628582</ele>
        <time>2021-10-03T07:45:24.000Z</time>
      </trkpt>
      <trkpt lat="43.62426" lon="2.28966">
        <ele>242.859432</ele>
        <time>2021-10-03T07:45:25.000Z</time>
      </trkpt>
      <trkpt lat="43.62426" lon="2.28972">
        <ele>243.098999</ele>
        <time>2021-10-03T07:45:26.000Z</time>
      </trkpt>
      <trkpt lat="43.62427" lon="2.28978">
        <ele>243.352419</ele>
        <time>2021-10-03T07:45:27.000Z</time>
      </trkpt>
      <trkpt lat="43.62428" lon="2.28984">
        <ele>243.583269</ele>
        <time>2021-10-03T07:45:28.000Z</time>
      </trkpt>
      <trkpt lat="43.62428" lon="2.2899">
        <ele>243.832759</ele>
        <time>2021-10-03T07:45:29.000Z</time>
      </trkpt>
      <trkpt lat="43.62429" lon="2.28996">
        <ele>244.064409</ele>
        <time>2021-10-03T07:45:30.000Z</time>
      </trkpt>
      <trkpt lat="43.62429" lon="2.29002">
        <ele>244.310891</ele>
        <time>2021-10-03T07:45:31.000Z</time>
      </trkpt>
      <trkpt lat="43.6243" lon="2.29008">
        <ele>244.560381</ele>
        <time>2021-10-03T07:45:32.000Z</time>
      </trkpt>
      <trkpt lat="43.62431" lon="2.29014">
        <ele>244.807876</ele>
        <time>2021-10-03T07:45:33.000Z</time>
      </trkpt>
      <trkpt lat="43.62432" lon="2.2902">
        <ele>245.046537</ele>
        <time>2021-10-03T07:45:34.000Z</time>
      </trkpt>
      <trkpt lat="43.62433" lon="2.29026">
        <ele>245.292627</ele>
        <time>2021-10-03T07:45:35.000Z</time>
      </trkpt>
      <trkpt lat="43.62434" lon="2.29032">
        <ele>245.554773</ele>
        <time>2021-10-03T07:45:36.000Z</time>
      </trkpt>
      <trkpt lat="43.62435" lon="2.29038">
        <ele>245.780722</ele>
        <time>2021-10-03T07:45:37.000Z</time>
      </trkpt>
      <trkpt lat="43.62436" lon="2.29043">
        <ele>245.992089</ele>
        <time>2021-10-03T07:45:38.000Z</time>
      </trkpt>
      <trkpt lat="43.62436" lon="2.29049">
        <ele>246.221957</ele>
        <time>2021-10-03T07:45:39.000Z</time>
      </trkpt>
      <trkpt lat="43.62437" lon="2.29054">
        <ele>246.450352</ele>
        <time>2021-10-03T07:45:40.000Z</time>
      </trkpt>
      <trkpt lat="43.62438" lon="2.2906">
        <ele>246.669503</ele>
        <time>2021-10-03T07:45:41.000Z</time>
      </trkpt>
      <trkpt lat="43.62439" lon="2.29066">
        <ele>246.915593</ele>
        <time>2021-10-03T07:45:42.000Z</time>
      </trkpt>
      <trkpt lat="43.6244" lon="2.29071">
        <ele>247.135371</ele>
        <time>2021-10-03T07:45:43.000Z</time>
      </trkpt>
      <trkpt lat="43.6244" lon="2.29076">
        <ele>247.341758</ele>
        <time>2021-10-03T07:45:44.000Z</time>
      </trkpt>
      <trkpt lat="43.62441" lon="2.29082">
        <ele>247.556529</ele>
        <time>2021-10-03T07:45:45.000Z</time>
      </trkpt>
      <trkpt lat="43.62441" lon="2.29087">
        <ele>247.766823</ele>
        <time>2021-10-03T07:45:46.000Z</time>
      </trkpt>
      <trkpt lat="43.62442" lon="2.29092">
        <ele>247.989872</ele>
        <time>2021-10-03T07:45:47.000Z</time>
      </trkpt>
      <trkpt lat="43.62442" lon="2.29098">
        <ele>248.213606</ele>
        <time>2021-10-03T07:45:48.000Z</time>
      </trkpt>
      <trkpt lat="43.62443" lon="2.29104">
        <ele>248.447395</ele>
        <time>2021-10-03T07:45:49.000Z</time>
      </trkpt>
      <trkpt lat="43.62443" lon="2.29109">
        <ele>248.666141</ele>
        <time>2021-10-03T07:45:50.000Z</time>
      </trkpt>
      <trkpt lat="43.62443" lon="2.29116">
        <ele>248.91265</ele>
        <time>2021-10-03T07:45:51.000Z</time>
      </trkpt>
      <trkpt lat="43.62444" lon="2.29122">
        <ele>249.173931</ele>
        <time>2021-10-03T07:45:52.000Z</time>
      </trkpt>
      <trkpt lat="43.62444" lon="2.29129">
        <ele>249.4333</ele>
        <time>2021-10-03T07:45:53.000Z</time>
      </trkpt>
      <trkpt lat="43.62445" lon="2.29135">
        <ele>249.696631</ele>
        <time>2021-10-03T07:45:54.000Z</time>
      </trkpt>
      <trkpt lat="43.62445" lon="2.29142">
        <ele>249.951092</ele>
        <time>2021-10-03T07:45:55.000Z</time>
      </trkpt>
      <trkpt lat="43.62445" lon="2.29149">
        <ele>250.23599</ele>
        <time>2021-10-03T07:45:56.000Z</time>
      </trkpt>
      <trkpt lat="43.62446" lon="2.29156">
        <ele>250.397842</ele>
        <time>2021-10-03T07:45:57.000Z</time>
      </trkpt>
      <trkpt lat="43.62446" lon="2.29164">
        <ele>250.559137</ele>
        <time>2021-10-03T07:45:58.000Z</time>
      </trkpt>
      <trkpt lat="43.62447" lon="2.29172">
        <ele>250.718399</ele>
        <time>2021-10-03T07:45:59.000Z</time>
      </trkpt>
      <trkpt lat="43.62447" lon="2.29178">
        <ele>250.849839</ele>
        <time>2021-10-03T07:46:00.000Z</time>
      </trkpt>
      <trkpt lat="43.62448" lon="2.29186">
        <ele>251.014733</ele>
        <time>2021-10-03T07:46:01.000Z</time>
      </trkpt>
      <trkpt lat="43.62449" lon="2.29194">
        <ele>251.166601</ele>
        <time>2021-10-03T07:46:02.000Z</time>
      </trkpt>
      <trkpt lat="43.6245" lon="2.29201">
        <ele>251.316976</ele>
        <time>2021-10-03T07:46:03.000Z</time>
      </trkpt>
      <trkpt lat="43.62451" lon="2.29208">
        <ele>251.468844</ele>
        <time>2021-10-03T07:46:04.000Z</time>
      </trkpt>
      <trkpt lat="43.62452" lon="2.29215">
        <ele>251.61795</ele>
        <time>2021-10-03T07:46:05.000Z</time>
      </trkpt>
      <trkpt lat="43.62452" lon="2.29223">
        <ele>251.762995</ele>
        <time>2021-10-03T07:46:06.000Z</time>
      </trkpt>
      <trkpt lat="43.62453" lon="2.29229">
        <ele>251.90532</ele>
        <time>2021-10-03T07:46:07.000Z</time>
      </trkpt>
      <trkpt lat="43.62453" lon="2.29236">
        <ele>252.047228</ele>
        <time>2021-10-03T07:46:08.000Z</time>
      </trkpt>
      <trkpt lat="43.62454" lon="2.29243">
        <ele>252.188211</ele>
        <time>2021-10-03T07:46:09.000Z</time>
      </trkpt>
      <trkpt lat="43.62454" lon="2.2925">
        <ele>252.333256</ele>
        <time>2021-10-03T07:46:10.000Z</time>
      </trkpt>
      <trkpt lat="43.62455" lon="2.29257">
        <ele>252.47627</ele>
        <time>2021-10-03T07:46:11.000Z</time>
      </trkpt>
      <trkpt lat="43.62455" lon="2.29264">
        <ele>252.621315</ele>
        <time>2021-10-03T07:46:12.000Z</time>
      </trkpt>
      <trkpt lat="43.62455" lon="2.29272">
        <ele>252.767959</ele>
        <time>2021-10-03T07:46:13.000Z</time>
      </trkpt>
      <trkpt lat="43.62455" lon="2.29279">
        <ele>252.916879</ele>
        <time>2021-10-03T07:46:14.000Z</time>
      </trkpt>
      <trkpt lat="43.62456" lon="2.29286">
        <ele>253.063955</ele>
        <time>2021-10-03T07:46:15.000Z</time>
      </trkpt>
      <trkpt lat="43.62456" lon="2.29293">
        <ele>253.206969</ele>
        <time>2021-10-03T07:46:16.000Z</time>
      </trkpt>
      <trkpt lat="43.62457" lon="2.293">
        <ele>253.354044</ele>
        <time>2021-10-03T07:46:17.000Z</time>
      </trkpt>
      <trkpt lat="43.62457" lon="2.29308">
        <ele>253.500688</ele>
        <time>2021-10-03T07:46:18.000Z</time>
      </trkpt>
      <trkpt lat="43.62457" lon="2.29315">
        <ele>253.645733</ele>
        <time>2021-10-03T07:46:19.000Z</time>
      </trkpt>
      <trkpt lat="43.62457" lon="2.29322">
        <ele>253.78652</ele>
        <time>2021-10-03T07:46:20.000Z</time>
      </trkpt>
      <trkpt lat="43.62458" lon="2.29328">
        <ele>253.923443</ele>
        <time>2021-10-03T07:46:21.000Z</time>
      </trkpt>
      <trkpt lat="43.62458" lon="2.29336">
        <ele>254.072151</ele>
        <time>2021-10-03T07:46:22.000Z</time>
      </trkpt>
      <trkpt lat="43.62458" lon="2.29343">
        <ele>254.214721</ele>
        <time>2021-10-03T07:46:23.000Z</time>
      </trkpt>
      <trkpt lat="43.62457" lon="2.2935">
        <ele>254.359766</ele>
        <time>2021-10-03T07:46:24.000Z</time>
      </trkpt>
      <trkpt lat="43.62457" lon="2.29357">
        <ele>254.50278</ele>
        <time>2021-10-03T07:46:25.000Z</time>
      </trkpt>
      <trkpt lat="43.62457" lon="2.29363">
        <ele>254.641734</ele>
        <time>2021-10-03T07:46:26.000Z</time>
      </trkpt>
      <trkpt lat="43.62456" lon="2.2937">
        <ele>254.782521</ele>
        <time>2021-10-03T07:46:27.000Z</time>
      </trkpt>
      <trkpt lat="43.62455" lon="2.29377">
        <ele>254.924846</ele>
        <time>2021-10-03T07:46:28.000Z</time>
      </trkpt>
      <trkpt lat="43.62455" lon="2.29384">
        <ele>255.0638</ele>
        <time>2021-10-03T07:46:29.000Z</time>
      </trkpt>
      <trkpt lat="43.62454" lon="2.29391">
        <ele>255.199659</ele>
        <time>2021-10-03T07:46:30.000Z</time>
      </trkpt>
      <trkpt lat="43.62453" lon="2.29397">
        <ele>255.331157</ele>
        <time>2021-10-03T07:46:31.000Z</time>
      </trkpt>
      <trkpt lat="43.62452" lon="2.29404">
        <ele>255.426448</ele>
        <time>2021-10-03T07:46:32.000Z</time>
      </trkpt>
      <trkpt lat="43.62451" lon="2.2941">
        <ele>255.520568</ele>
        <time>2021-10-03T07:46:33.000Z</time>
      </trkpt>
      <trkpt lat="43.62451" lon="2.29417">
        <ele>255.613691</ele>
        <time>2021-10-03T07:46:34.000Z</time>
      </trkpt>
      <trkpt lat="43.6245" lon="2.29423">
        <ele>255.706815</ele>
        <time>2021-10-03T07:46:35.000Z</time>
      </trkpt>
      <trkpt lat="43.6245" lon="2.2943">
        <ele>255.803449</ele>
        <time>2021-10-03T07:46:36.000Z</time>
      </trkpt>
      <trkpt lat="43.62449" lon="2.29437">
        <ele>255.908495</ele>
        <time>2021-10-03T07:46:37.000Z</time>
      </trkpt>
      <trkpt lat="43.62448" lon="2.29444">
        <ele>256.01248</ele>
        <time>2021-10-03T07:46:38.000Z</time>
      </trkpt>
      <trkpt lat="43.62447" lon="2.29452">
        <ele>256.119288</ele>
        <time>2021-10-03T07:46:39.000Z</time>
      </trkpt>
      <trkpt lat="43.62446" lon="2.2946">
        <ele>256.232728</ele>
        <time>2021-10-03T07:46:40.000Z</time>
      </trkpt>
      <trkpt lat="43.62445" lon="2.29467">
        <ele>256.345187</ele>
        <time>2021-10-03T07:46:41.000Z</time>
      </trkpt>
      <trkpt lat="43.62444" lon="2.29475">
        <ele>256.457645</ele>
        <time>2021-10-03T07:46:42.000Z</time>
      </trkpt>
      <trkpt lat="43.62444" lon="2.29483">
        <ele>256.56418</ele>
        <time>2021-10-03T07:46:43.000Z</time>
      </trkpt>
      <trkpt lat="43.62443" lon="2.2949">
        <ele>256.6724</ele>
        <time>2021-10-03T07:46:44.000Z</time>
      </trkpt>
      <trkpt lat="43.62442" lon="2.29498">
        <ele>256.783182</ele>
        <time>2021-10-03T07:46:45.000Z</time>
      </trkpt>
      <trkpt lat="43.62441" lon="2.29505">
        <ele>256.892815</ele>
        <time>2021-10-03T07:46:46.000Z</time>
      </trkpt>
      <trkpt lat="43.62441" lon="2.29513">
        <ele>256.999623</ele>
        <time>2021-10-03T07:46:47.000Z</time>
      </trkpt>
      <trkpt lat="43.62439" lon="2.2952">
        <ele>257.111662</ele>
        <time>2021-10-03T07:46:48.000Z</time>
      </trkpt>
      <trkpt lat="43.62438" lon="2.29528">
        <ele>257.219503</ele>
        <time>2021-10-03T07:46:49.000Z</time>
      </trkpt>
      <trkpt lat="43.62438" lon="2.29536">
        <ele>257.330548</ele>
        <time>2021-10-03T07:46:50.000Z</time>
      </trkpt>
      <trkpt lat="43.62437" lon="2.29543">
        <ele>257.438769</ele>
        <time>2021-10-03T07:46:51.000Z</time>
      </trkpt>
      <trkpt lat="43.62436" lon="2.29551">
        <ele>257.552209</ele>
        <time>2021-10-03T07:46:52.000Z</time>
      </trkpt>
      <trkpt lat="43.62435" lon="2.29558">
        <ele>257.66005</ele>
        <time>2021-10-03T07:46:53.000Z</time>
      </trkpt>
      <trkpt lat="43.62434" lon="2.29566">
        <ele>257.771095</ele>
        <time>2021-10-03T07:46:54.000Z</time>
      </trkpt>
      <trkpt lat="43.62433" lon="2.29573">
        <ele>257.879316</ele>
        <time>2021-10-03T07:46:55.000Z</time>
      </trkpt>
      <trkpt lat="43.62432" lon="2.29581">
        <ele>257.988948</ele>
        <time>2021-10-03T07:46:56.000Z</time>
      </trkpt>
      <trkpt lat="43.62431" lon="2.29589">
        <ele>258.096899</ele>
        <time>2021-10-03T07:46:57.000Z</time>
      </trkpt>
      <trkpt lat="43.62431" lon="2.29596">
        <ele>258.206532</ele>
        <time>2021-10-03T07:46:58.000Z</time>
      </trkpt>
      <trkpt lat="43.6243" lon="2.29603">
        <ele>258.311651</ele>
        <time>2021-10-03T07:46:59.000Z</time>
      </trkpt>
      <trkpt lat="43.6243" lon="2.29611">
        <ele>258.414735</ele>
        <time>2021-10-03T07:47:00.000Z</time>
      </trkpt>
      <trkpt lat="43.62429" lon="2.29618">
        <ele>258.527194</ele>
        <time>2021-10-03T07:47:01.000Z</time>
      </trkpt>
      <trkpt lat="43.62428" lon="2.29626">
        <ele>258.634002</ele>
        <time>2021-10-03T07:47:02.000Z</time>
      </trkpt>
      <trkpt lat="43.62427" lon="2.29633">
        <ele>258.741953</ele>
        <time>2021-10-03T07:47:03.000Z</time>
      </trkpt>
      <trkpt lat="43.62426" lon="2.29641">
        <ele>258.850173</ele>
        <time>2021-10-03T07:47:04.000Z</time>
      </trkpt>
      <trkpt lat="43.62426" lon="2.29648">
        <ele>258.831864</ele>
        <time>2021-10-03T07:47:05.000Z</time>
      </trkpt>
      <trkpt lat="43.62425" lon="2.29656">
        <ele>258.798202</ele>
        <time>2021-10-03T07:47:06.000Z</time>
      </trkpt>
      <trkpt lat="43.62425" lon="2.29663">
        <ele>258.765239</ele>
        <time>2021-10-03T07:47:07.000Z</time>
      </trkpt>
      <trkpt lat="43.62424" lon="2.29671">
        <ele>258.732444</ele>
        <time>2021-10-03T07:47:08.000Z</time>
      </trkpt>
      <trkpt lat="43.62423" lon="2.29678">
        <ele>258.702338</ele>
        <time>2021-10-03T07:47:09.000Z</time>
      </trkpt>
      <trkpt lat="43.62422" lon="2.29685">
        <ele>258.671276</ele>
        <time>2021-10-03T07:47:10.000Z</time>
      </trkpt>
      <trkpt lat="43.62422" lon="2.29692">
        <ele>258.639868</ele>
        <time>2021-10-03T07:47:11.000Z</time>
      </trkpt>
      <trkpt lat="43.62421" lon="2.29698">
        <ele>258.610631</ele>
        <time>2021-10-03T07:47:12.000Z</time>
      </trkpt>
      <trkpt lat="43.62419" lon="2.29707">
        <ele>258.572983</ele>
        <time>2021-10-03T07:47:13.000Z</time>
      </trkpt>
      <trkpt lat="43.62418" lon="2.29714">
        <ele>258.538459</ele>
        <time>2021-10-03T07:47:14.000Z</time>
      </trkpt>
      <trkpt lat="43.62417" lon="2.29722">
        <ele>258.505347</ele>
        <time>2021-10-03T07:47:15.000Z</time>
      </trkpt>
      <trkpt lat="43.62417" lon="2.29729">
        <ele>258.473695</ele>
        <time>2021-10-03T07:47:16.000Z</time>
      </trkpt>
      <trkpt lat="43.62415" lon="2.29736">
        <ele>258.442727</ele>
        <time>2021-10-03T07:47:17.000Z</time>
      </trkpt>
      <trkpt lat="43.62415" lon="2.29742">
        <ele>258.416847</ele>
        <time>2021-10-03T07:47:18.000Z</time>
      </trkpt>
      <trkpt lat="43.62414" lon="2.29747">
        <ele>258.392182</ele>
        <time>2021-10-03T07:47:19.000Z</time>
      </trkpt>
      <trkpt lat="43.62413" lon="2.29752">
        <ele>258.370165</ele>
        <time>2021-10-03T07:47:20.000Z</time>
      </trkpt>
      <trkpt lat="43.62414" lon="2.29756">
        <ele>258.351597</ele>
        <time>2021-10-03T07:47:21.000Z</time>
      </trkpt>
      <trkpt lat="43.62415" lon="2.2976">
        <ele>258.333685</ele>
        <time>2021-10-03T07:47:22.000Z</time>
      </trkpt>
      <trkpt lat="43.62418" lon="2.29763">
        <ele>258.314227</ele>
        <time>2021-10-03T07:47:23.000Z</time>
      </trkpt>
      <trkpt lat="43.62421" lon="2.29766">
        <ele>258.292547</ele>
        <time>2021-10-03T07:47:24.000Z</time>
      </trkpt>
      <trkpt lat="43.62424" lon="2.29769">
        <ele>258.268579</ele>
        <time>2021-10-03T07:47:25.000Z</time>
      </trkpt>
      <trkpt lat="43.62428" lon="2.29772">
        <ele>258.241857</ele>
        <time>2021-10-03T07:47:26.000Z</time>
      </trkpt>
      <trkpt lat="43.62431" lon="2.29775">
        <ele>258.213941</ele>
        <time>2021-10-03T07:47:27.000Z</time>
      </trkpt>
      <trkpt lat="43.62436" lon="2.2978">
        <ele>258.182304</ele>
        <time>2021-10-03T07:47:28.000Z</time>
      </trkpt>
      <trkpt lat="43.6244" lon="2.29783">
        <ele>258.151904</ele>
        <time>2021-10-03T07:47:29.000Z</time>
      </trkpt>
      <trkpt lat="43.62444" lon="2.29788">
        <ele>258.12025</ele>
        <time>2021-10-03T07:47:30.000Z</time>
      </trkpt>
      <trkpt lat="43.62448" lon="2.29792">
        <ele>258.088595</ele>
        <time>2021-10-03T07:47:31.000Z</time>
      </trkpt>
      <trkpt lat="43.62452" lon="2.29796">
        <ele>258.060445</ele>
        <time>2021-10-03T07:47:32.000Z</time>
      </trkpt>
      <trkpt lat="43.62457" lon="2.29799">
        <ele>258.029388</ele>
        <time>2021-10-03T07:47:33.000Z</time>
      </trkpt>
      <trkpt lat="43.62461" lon="2.29802">
        <ele>257.999603</ele>
        <time>2021-10-03T07:47:34.000Z</time>
      </trkpt>
      <trkpt lat="43.62465" lon="2.29806">
        <ele>257.970346</ele>
        <time>2021-10-03T07:47:35.000Z</time>
      </trkpt>
      <trkpt lat="43.62469" lon="2.2981">
        <ele>257.939704</ele>
        <time>2021-10-03T07:47:36.000Z</time>
      </trkpt>
      <trkpt lat="43.62473" lon="2.29814">
        <ele>257.908534</ele>
        <time>2021-10-03T07:47:37.000Z</time>
      </trkpt>
      <trkpt lat="43.62478" lon="2.29818">
        <ele>257.877139</ele>
        <time>2021-10-03T07:47:38.000Z</time>
      </trkpt>
      <trkpt lat="43.62482" lon="2.29822">
        <ele>257.846496</ele>
        <time>2021-10-03T07:47:39.000Z</time>
      </trkpt>
      <trkpt lat="43.62486" lon="2.29826">
        <ele>257.817849</ele>
        <time>2021-10-03T07:47:40.000Z</time>
      </trkpt>
      <trkpt lat="43.62489" lon="2.2983">
        <ele>257.79109</ele>
        <time>2021-10-03T07:47:41.000Z</time>
      </trkpt>
      <trkpt lat="43.62493" lon="2.29833">
        <ele>257.727774</ele>
        <time>2021-10-03T07:47:42.000Z</time>
      </trkpt>
      <trkpt lat="43.62496" lon="2.29837">
        <ele>257.59823</ele>
        <time>2021-10-03T07:47:43.000Z</time>
      </trkpt>
      <trkpt lat="43.62499" lon="2.29841">
        <ele>257.461544</ele>
        <time>2021-10-03T07:47:44.000Z</time>
      </trkpt>
      <trkpt lat="43.62501" lon="2.29844">
        <ele>257.361778</ele>
        <time>2021-10-03T07:47:45.000Z</time>
      </trkpt>
      <trkpt lat="43.62503" lon="2.29847">
        <ele>257.271212</ele>
        <time>2021-10-03T07:47:46.000Z</time>
      </trkpt>
      <trkpt lat="43.62504" lon="2.2985">
        <ele>257.173705</ele>
        <time>2021-10-03T07:47:47.000Z</time>
      </trkpt>
      <trkpt lat="43.62506" lon="2.29854">
        <ele>257.07032</ele>
        <time>2021-10-03T07:47:48.000Z</time>
      </trkpt>
      <trkpt lat="43.62509" lon="2.29857">
        <ele>256.957329</ele>
        <time>2021-10-03T07:47:49.000Z</time>
      </trkpt>
      <trkpt lat="43.62511" lon="2.29862">
        <ele>256.812009</ele>
        <time>2021-10-03T07:47:50.000Z</time>
      </trkpt>
      <trkpt lat="43.62514" lon="2.29867">
        <ele>256.660566</ele>
        <time>2021-10-03T07:47:51.000Z</time>
      </trkpt>
      <trkpt lat="43.62518" lon="2.29872">
        <ele>256.491107</ele>
        <time>2021-10-03T07:47:52.000Z</time>
      </trkpt>
      <trkpt lat="43.62523" lon="2.29876">
        <ele>256.31793</ele>
        <time>2021-10-03T07:47:53.000Z</time>
      </trkpt>
      <trkpt lat="43.62528" lon="2.29879">
        <ele>256.136254</ele>
        <time>2021-10-03T07:47:54.000Z</time>
      </trkpt>
      <trkpt lat="43.62534" lon="2.29882">
        <ele>255.933265</ele>
        <time>2021-10-03T07:47:55.000Z</time>
      </trkpt>
      <trkpt lat="43.62539" lon="2.29883">
        <ele>255.74365</ele>
        <time>2021-10-03T07:47:56.000Z</time>
      </trkpt>
      <trkpt lat="43.62545" lon="2.29884">
        <ele>255.566838</ele>
        <time>2021-10-03T07:47:57.000Z</time>
      </trkpt>
      <trkpt lat="43.6255" lon="2.29884">
        <ele>255.38078</ele>
        <time>2021-10-03T07:47:58.000Z</time>
      </trkpt>
      <trkpt lat="43.62556" lon="2.29885">
        <ele>255.203464</ele>
        <time>2021-10-03T07:47:59.000Z</time>
      </trkpt>
      <trkpt lat="43.62561" lon="2.29886">
        <ele>255.041235</ele>
        <time>2021-10-03T07:48:00.000Z</time>
      </trkpt>
      <trkpt lat="43.62566" lon="2.29887">
        <ele>254.876182</ele>
        <time>2021-10-03T07:48:01.000Z</time>
      </trkpt>
      <trkpt lat="43.62571" lon="2.29889">
        <ele>254.709869</ele>
        <time>2021-10-03T07:48:02.000Z</time>
      </trkpt>
      <trkpt lat="43.62575" lon="2.2989">
        <ele>254.569021</ele>
        <time>2021-10-03T07:48:03.000Z</time>
      </trkpt>
      <trkpt lat="43.62579" lon="2.29892">
        <ele>254.424948</ele>
        <time>2021-10-03T07:48:04.000Z</time>
      </trkpt>
      <trkpt lat="43.62583" lon="2.29894">
        <ele>254.293989</ele>
        <time>2021-10-03T07:48:05.000Z</time>
      </trkpt>
      <trkpt lat="43.62587" lon="2.29897">
        <ele>254.143952</ele>
        <time>2021-10-03T07:48:06.000Z</time>
      </trkpt>
      <trkpt lat="43.62591" lon="2.299">
        <ele>254.000086</ele>
        <time>2021-10-03T07:48:07.000Z</time>
      </trkpt>
      <trkpt lat="43.62595" lon="2.29903">
        <ele>253.849748</ele>
        <time>2021-10-03T07:48:08.000Z</time>
      </trkpt>
      <trkpt lat="43.62599" lon="2.29906">
        <ele>253.710445</ele>
        <time>2021-10-03T07:48:09.000Z</time>
      </trkpt>
      <trkpt lat="43.62603" lon="2.29909">
        <ele>253.560286</ele>
        <time>2021-10-03T07:48:10.000Z</time>
      </trkpt>
      <trkpt lat="43.62607" lon="2.29911">
        <ele>253.410249</ele>
        <time>2021-10-03T07:48:11.000Z</time>
      </trkpt>
      <trkpt lat="43.62611" lon="2.29914">
        <ele>253.25213</ele>
        <time>2021-10-03T07:48:12.000Z</time>
      </trkpt>
      <trkpt lat="43.62616" lon="2.29919">
        <ele>253.061613</ele>
        <time>2021-10-03T07:48:13.000Z</time>
      </trkpt>
      <trkpt lat="43.6262" lon="2.29924">
        <ele>252.892155</ele>
        <time>2021-10-03T07:48:14.000Z</time>
      </trkpt>
      <trkpt lat="43.62623" lon="2.29929">
        <ele>252.726318</ele>
        <time>2021-10-03T07:48:15.000Z</time>
      </trkpt>
      <trkpt lat="43.62627" lon="2.29934">
        <ele>252.552027</ele>
        <time>2021-10-03T07:48:16.000Z</time>
      </trkpt>
      <trkpt lat="43.62631" lon="2.29941">
        <ele>252.348177</ele>
        <time>2021-10-03T07:48:17.000Z</time>
      </trkpt>
      <trkpt lat="43.62635" lon="2.29947">
        <ele>252.158266</ele>
        <time>2021-10-03T07:48:18.000Z</time>
      </trkpt>
      <trkpt lat="43.62638" lon="2.29954">
        <ele>251.977745</ele>
        <time>2021-10-03T07:48:19.000Z</time>
      </trkpt>
      <trkpt lat="43.6264" lon="2.2996">
        <ele>251.635504</ele>
        <time>2021-10-03T07:48:20.000Z</time>
      </trkpt>
      <trkpt lat="43.62641" lon="2.29968">
        <ele>251.168465</ele>
        <time>2021-10-03T07:48:21.000Z</time>
      </trkpt>
      <trkpt lat="43.62643" lon="2.29975">
        <ele>250.715575</ele>
        <time>2021-10-03T07:48:22.000Z</time>
      </trkpt>
      <trkpt lat="43.62644" lon="2.29982">
        <ele>250.270978</ele>
        <time>2021-10-03T07:48:23.000Z</time>
      </trkpt>
      <trkpt lat="43.62645" lon="2.29989">
        <ele>249.812831</ele>
        <time>2021-10-03T07:48:24.000Z</time>
      </trkpt>
      <trkpt lat="43.62644" lon="2.29996">
        <ele>249.407901</ele>
        <time>2021-10-03T07:48:25.000Z</time>
      </trkpt>
      <trkpt lat="43.62644" lon="2.30003">
        <ele>248.967027</ele>
        <time>2021-10-03T07:48:26.000Z</time>
      </trkpt>
      <trkpt lat="43.62644" lon="2.3001">
        <ele>248.51875</ele>
        <time>2021-10-03T07:48:27.000Z</time>
      </trkpt>
      <trkpt lat="43.62644" lon="2.30018">
        <ele>248.052692</ele>
        <time>2021-10-03T07:48:28.000Z</time>
      </trkpt>
      <trkpt lat="43.62644" lon="2.30026">
        <ele>247.55606</ele>
        <time>2021-10-03T07:48:29.000Z</time>
      </trkpt>
      <trkpt lat="43.62644" lon="2.30034">
        <ele>247.090001</ele>
        <time>2021-10-03T07:48:30.000Z</time>
      </trkpt>
      <trkpt lat="43.62644" lon="2.30042">
        <ele>246.605599</ele>
        <time>2021-10-03T07:48:31.000Z</time>
      </trkpt>
      <trkpt lat="43.62644" lon="2.3005">
        <ele>246.102851</ele>
        <time>2021-10-03T07:48:32.000Z</time>
      </trkpt>
      <trkpt lat="43.62643" lon="2.30057">
        <ele>245.632589</ele>
        <time>2021-10-03T07:48:33.000Z</time>
      </trkpt>
      <trkpt lat="43.62642" lon="2.30065">
        <ele>245.174443</ele>
        <time>2021-10-03T07:48:34.000Z</time>
      </trkpt>
      <trkpt lat="43.62643" lon="2.30073">
        <ele>244.656692</ele>
        <time>2021-10-03T07:48:35.000Z</time>
      </trkpt>
      <trkpt lat="43.62644" lon="2.30082">
        <ele>244.114384</ele>
        <time>2021-10-03T07:48:36.000Z</time>
      </trkpt>
      <trkpt lat="43.62645" lon="2.30089">
        <ele>243.637933</ele>
        <time>2021-10-03T07:48:37.000Z</time>
      </trkpt>
      <trkpt lat="43.62647" lon="2.30096">
        <ele>243.220185</ele>
        <time>2021-10-03T07:48:38.000Z</time>
      </trkpt>
      <trkpt lat="43.62649" lon="2.30101">
        <ele>242.86351</ele>
        <time>2021-10-03T07:48:39.000Z</time>
      </trkpt>
      <trkpt lat="43.6265" lon="2.30105">
        <ele>242.571231</ele>
        <time>2021-10-03T07:48:40.000Z</time>
      </trkpt>
      <trkpt lat="43.62651" lon="2.30111">
        <ele>242.22772</ele>
        <time>2021-10-03T07:48:41.000Z</time>
      </trkpt>
      <trkpt lat="43.62653" lon="2.30117">
        <ele>241.821623</ele>
        <time>2021-10-03T07:48:42.000Z</time>
      </trkpt>
      <trkpt lat="43.62654" lon="2.30124">
        <ele>241.380477</ele>
        <time>2021-10-03T07:48:43.000Z</time>
      </trkpt>
      <trkpt lat="43.62656" lon="2.30129">
        <ele>241.029258</ele>
        <time>2021-10-03T07:48:44.000Z</time>
      </trkpt>
      <trkpt lat="43.62658" lon="2.30135">
        <ele>240.639434</ele>
        <time>2021-10-03T07:48:45.000Z</time>
      </trkpt>
      <trkpt lat="43.6266" lon="2.3014">
        <ele>240.315134</ele>
        <time>2021-10-03T07:48:46.000Z</time>
      </trkpt>
      <trkpt lat="43.62662" lon="2.30144">
        <ele>239.996139</ele>
        <time>2021-10-03T07:48:47.000Z</time>
      </trkpt>
      <trkpt lat="43.62664" lon="2.30149">
        <ele>239.658826</ele>
        <time>2021-10-03T07:48:48.000Z</time>
      </trkpt>
      <trkpt lat="43.62666" lon="2.30154">
        <ele>239.274573</ele>
        <time>2021-10-03T07:48:49.000Z</time>
      </trkpt>
      <trkpt lat="43.62668" lon="2.30161">
        <ele>238.862312</ele>
        <time>2021-10-03T07:48:50.000Z</time>
      </trkpt>
      <trkpt lat="43.6267" lon="2.30167">
        <ele>238.402718</ele>
        <time>2021-10-03T07:48:51.000Z</time>
      </trkpt>
      <trkpt lat="43.62672" lon="2.30174">
        <ele>237.970712</ele>
        <time>2021-10-03T07:48:52.000Z</time>
      </trkpt>
      <trkpt lat="43.62674" lon="2.30181">
        <ele>237.480865</ele>
        <time>2021-10-03T07:48:53.000Z</time>
      </trkpt>
      <trkpt lat="43.62675" lon="2.30188">
        <ele>237.083582</ele>
        <time>2021-10-03T07:48:54.000Z</time>
      </trkpt>
      <trkpt lat="43.62677" lon="2.30194">
        <ele>236.707442</ele>
        <time>2021-10-03T07:48:55.000Z</time>
      </trkpt>
      <trkpt lat="43.62679" lon="2.30199">
        <ele>236.848985</ele>
        <time>2021-10-03T07:48:56.000Z</time>
      </trkpt>
      <trkpt lat="43.6268" lon="2.30204">
        <ele>236.964239</ele>
        <time>2021-10-03T07:48:57.000Z</time>
      </trkpt>
      <trkpt lat="43.62681" lon="2.30207">
        <ele>237.061432</ele>
        <time>2021-10-03T07:48:58.000Z</time>
      </trkpt>
      <trkpt lat="43.62682" lon="2.3021">
        <ele>237.142198</ele>
        <time>2021-10-03T07:48:59.000Z</time>
      </trkpt>
      <trkpt lat="43.62684" lon="2.30211">
        <ele>237.218524</ele>
        <time>2021-10-03T07:49:00.000Z</time>
      </trkpt>
      <trkpt lat="43.62686" lon="2.30212">
        <ele>237.29485</ele>
        <time>2021-10-03T07:49:01.000Z</time>
      </trkpt>
      <trkpt lat="43.62689" lon="2.30213">
        <ele>237.378484</ele>
        <time>2021-10-03T07:49:02.000Z</time>
      </trkpt>
      <trkpt lat="43.6269" lon="2.30215">
        <ele>237.449386</ele>
        <time>2021-10-03T07:49:03.000Z</time>
      </trkpt>
      <trkpt lat="43.62691" lon="2.30218">
        <ele>237.544292</ele>
        <time>2021-10-03T07:49:04.000Z</time>
      </trkpt>
      <trkpt lat="43.62693" lon="2.3022">
        <ele>237.608905</ele>
        <time>2021-10-03T07:49:05.000Z</time>
      </trkpt>
      <trkpt lat="43.62693" lon="2.30222">
        <ele>237.651008</ele>
        <time>2021-10-03T07:49:06.000Z</time>
      </trkpt>
      <trkpt lat="43.62693" lon="2.30223">
        <ele>237.678368</ele>
        <time>2021-10-03T07:49:07.000Z</time>
      </trkpt>
      <trkpt lat="43.62693" lon="2.30223">
        <ele>237.692986</ele>
        <time>2021-10-03T07:49:08.000Z</time>
      </trkpt>
      <trkpt lat="43.62693" lon="2.30223">
        <ele>237.695473</ele>
        <time>2021-10-03T07:49:09.000Z</time>
      </trkpt>
      <trkpt lat="43.62693" lon="2.30223">
        <ele>237.695473</ele>
        <time>2021-10-03T07:49:11.000Z</time>
      </trkpt>
      <trkpt lat="43.62693" lon="2.30223">
        <ele>237.695473</ele>
        <time>2021-10-03T07:49:12.000Z</time>
      </trkpt>
      <trkpt lat="43.62693" lon="2.30223">
        <ele>237.695473</ele>
        <time>2021-10-03T07:49:15.000Z</time>
      </trkpt>
      <trkpt lat="43.62709" lon="2.30241">
        <ele>238.38178</ele>
        <time>2021-10-03T07:49:53.000Z</time>
      </trkpt>
      <trkpt lat="43.6271" lon="2.30243">
        <ele>238.450052</ele>
        <time>2021-10-03T07:49:54.000Z</time>
      </trkpt>
      <trkpt lat="43.62711" lon="2.30244">
        <ele>238.474512</ele>
        <time>2021-10-03T07:49:55.000Z</time>
      </trkpt>
      <trkpt lat="43.62711" lon="2.30244">
        <ele>238.500542</ele>
        <time>2021-10-03T07:49:56.000Z</time>
      </trkpt>
      <trkpt lat="43.62712" lon="2.30245">
        <ele>238.530713</ele>
        <time>2021-10-03T07:49:57.000Z</time>
      </trkpt>
      <trkpt lat="43.62712" lon="2.30245">
        <ele>238.530713</ele>
        <time>2021-10-03T07:49:58.000Z</time>
      </trkpt>
      <trkpt lat="43.62712" lon="2.30245">
        <ele>238.530713</ele>
        <time>2021-10-03T07:50:01.000Z</time>
      </trkpt>
      <trkpt lat="43.6272" lon="2.30247">
        <ele>238.798599</ele>
        <time>2021-10-03T07:50:09.000Z</time>
      </trkpt>
      <trkpt lat="43.62721" lon="2.30246">
        <ele>238.85162</ele>
        <time>2021-10-03T07:50:10.000Z</time>
      </trkpt>
      <trkpt lat="43.62722" lon="2.30246">
        <ele>238.893235</ele>
        <time>2021-10-03T07:50:11.000Z</time>
      </trkpt>
      <trkpt lat="43.62724" lon="2.30244">
        <ele>238.958354</ele>
        <time>2021-10-03T07:50:12.000Z</time>
      </trkpt>
      <trkpt lat="43.62726" lon="2.30242">
        <ele>239.036137</ele>
        <time>2021-10-03T07:50:13.000Z</time>
      </trkpt>
      <trkpt lat="43.62728" lon="2.30241">
        <ele>239.12577</ele>
        <time>2021-10-03T07:50:14.000Z</time>
      </trkpt>
      <trkpt lat="43.6273" lon="2.30239">
        <ele>239.20223</ele>
        <time>2021-10-03T07:50:15.000Z</time>
      </trkpt>
      <trkpt lat="43.62732" lon="2.30238">
        <ele>239.28762</ele>
        <time>2021-10-03T07:50:16.000Z</time>
      </trkpt>
      <trkpt lat="43.62735" lon="2.30237">
        <ele>239.369119</ele>
        <time>2021-10-03T07:50:17.000Z</time>
      </trkpt>
      <trkpt lat="43.62736" lon="2.30236">
        <ele>239.440905</ele>
        <time>2021-10-03T07:50:18.000Z</time>
      </trkpt>
      <trkpt lat="43.62738" lon="2.30234">
        <ele>239.516101</ele>
        <time>2021-10-03T07:50:19.000Z</time>
      </trkpt>
      <trkpt lat="43.6274" lon="2.30232">
        <ele>239.596697</ele>
        <time>2021-10-03T07:50:20.000Z</time>
      </trkpt>
      <trkpt lat="43.62743" lon="2.30231">
        <ele>239.684093</ele>
        <time>2021-10-03T07:50:21.000Z</time>
      </trkpt>
      <trkpt lat="43.62744" lon="2.30229">
        <ele>239.759288</ele>
        <time>2021-10-03T07:50:22.000Z</time>
      </trkpt>
      <trkpt lat="43.62747" lon="2.30228">
        <ele>239.85012</ele>
        <time>2021-10-03T07:50:23.000Z</time>
      </trkpt>
      <trkpt lat="43.62748" lon="2.30226">
        <ele>239.910966</ele>
        <time>2021-10-03T07:50:24.000Z</time>
      </trkpt>
      <trkpt lat="43.6275" lon="2.30225">
        <ele>239.981754</ele>
        <time>2021-10-03T07:50:25.000Z</time>
      </trkpt>
      <trkpt lat="43.62752" lon="2.30224">
        <ele>240.068117</ele>
        <time>2021-10-03T07:50:26.000Z</time>
      </trkpt>
      <trkpt lat="43.62754" lon="2.30223">
        <ele>240.139903</ele>
        <time>2021-10-03T07:50:27.000Z</time>
      </trkpt>
      <trkpt lat="43.62756" lon="2.30222">
        <ele>240.209768</ele>
        <time>2021-10-03T07:50:28.000Z</time>
      </trkpt>
      <trkpt lat="43.62759" lon="2.30219">
        <ele>240.307332</ele>
        <time>2021-10-03T07:50:29.000Z</time>
      </trkpt>
      <trkpt lat="43.6276" lon="2.30217">
        <ele>240.3849</ele>
        <time>2021-10-03T07:50:30.000Z</time>
      </trkpt>
      <trkpt lat="43.62762" lon="2.30215">
        <ele>240.46851</ele>
        <time>2021-10-03T07:50:31.000Z</time>
      </trkpt>
      <trkpt lat="43.62764" lon="2.30213">
        <ele>240.540142</ele>
        <time>2021-10-03T07:50:32.000Z</time>
      </trkpt>
      <trkpt lat="43.62766" lon="2.30211">
        <ele>240.630637</ele>
        <time>2021-10-03T07:50:33.000Z</time>
      </trkpt>
      <trkpt lat="43.62768" lon="2.30209">
        <ele>240.724021</ele>
        <time>2021-10-03T07:50:34.000Z</time>
      </trkpt>
      <trkpt lat="43.6277" lon="2.30206">
        <ele>240.819481</ele>
        <time>2021-10-03T07:50:35.000Z</time>
      </trkpt>
      <trkpt lat="43.62772" lon="2.30204">
        <ele>240.902482</ele>
        <time>2021-10-03T07:50:36.000Z</time>
      </trkpt>
      <trkpt lat="43.62773" lon="2.30201">
        <ele>240.991135</ele>
        <time>2021-10-03T07:50:37.000Z</time>
      </trkpt>
      <trkpt lat="43.62775" lon="2.30198">
        <ele>241.085958</ele>
        <time>2021-10-03T07:50:38.000Z</time>
      </trkpt>
      <trkpt lat="43.62776" lon="2.30194">
        <ele>241.182692</ele>
        <time>2021-10-03T07:50:39.000Z</time>
      </trkpt>
      <trkpt lat="43.62778" lon="2.30191">
        <ele>241.28817</ele>
        <time>2021-10-03T07:50:40.000Z</time>
      </trkpt>
      <trkpt lat="43.6278" lon="2.30188">
        <ele>241.400335</ele>
        <time>2021-10-03T07:50:41.000Z</time>
      </trkpt>
      <trkpt lat="43.62782" lon="2.30184">
        <ele>241.50915</ele>
        <time>2021-10-03T07:50:42.000Z</time>
      </trkpt>
      <trkpt lat="43.62784" lon="2.30176">
        <ele>242.184569</ele>
        <time>2021-10-03T07:51:04.000Z</time>
      </trkpt>
      <trkpt lat="43.62784" lon="2.30173">
        <ele>242.245146</ele>
        <time>2021-10-03T07:51:05.000Z</time>
      </trkpt>
      <trkpt lat="43.62785" lon="2.30171">
        <ele>242.311258</ele>
        <time>2021-10-03T07:51:06.000Z</time>
      </trkpt>
      <trkpt lat="43.62785" lon="2.30168">
        <ele>242.394405</ele>
        <time>2021-10-03T07:51:07.000Z</time>
      </trkpt>
      <trkpt lat="43.62786" lon="2.30164">
        <ele>242.477626</ele>
        <time>2021-10-03T07:51:08.000Z</time>
      </trkpt>
      <trkpt lat="43.62786" lon="2.30161">
        <ele>242.567167</ele>
        <time>2021-10-03T07:51:09.000Z</time>
      </trkpt>
      <trkpt lat="43.62786" lon="2.30157">
        <ele>242.662286</ele>
        <time>2021-10-03T07:51:10.000Z</time>
      </trkpt>
      <trkpt lat="43.62788" lon="2.30154">
        <ele>242.754914</ele>
        <time>2021-10-03T07:51:11.000Z</time>
      </trkpt>
      <trkpt lat="43.62789" lon="2.3015">
        <ele>242.866962</ele>
        <time>2021-10-03T07:51:12.000Z</time>
      </trkpt>
      <trkpt lat="43.62791" lon="2.30146">
        <ele>242.844564</ele>
        <time>2021-10-03T07:51:13.000Z</time>
      </trkpt>
      <trkpt lat="43.62792" lon="2.30142">
        <ele>242.813982</ele>
        <time>2021-10-03T07:51:14.000Z</time>
      </trkpt>
      <trkpt lat="43.62794" lon="2.30138">
        <ele>242.78027</ele>
        <time>2021-10-03T07:51:15.000Z</time>
      </trkpt>
      <trkpt lat="43.62796" lon="2.30134">
        <ele>242.748045</ele>
        <time>2021-10-03T07:51:16.000Z</time>
      </trkpt>
      <trkpt lat="43.62799" lon="2.3013">
        <ele>242.71267</ele>
        <time>2021-10-03T07:51:17.000Z</time>
      </trkpt>
      <trkpt lat="43.62801" lon="2.30126">
        <ele>242.678974</ele>
        <time>2021-10-03T07:51:18.000Z</time>
      </trkpt>
      <trkpt lat="43.62803" lon="2.30123">
        <ele>242.646239</ele>
        <time>2021-10-03T07:51:19.000Z</time>
      </trkpt>
      <trkpt lat="43.62805" lon="2.3012">
        <ele>242.615901</ele>
        <time>2021-10-03T07:51:20.000Z</time>
      </trkpt>
      <trkpt lat="43.62807" lon="2.30116">
        <ele>242.588917</ele>
        <time>2021-10-03T07:51:21.000Z</time>
      </trkpt>
      <trkpt lat="43.62809" lon="2.30113">
        <ele>242.559718</ele>
        <time>2021-10-03T07:51:22.000Z</time>
      </trkpt>
      <trkpt lat="43.6281" lon="2.30109">
        <ele>242.526664</ele>
        <time>2021-10-03T07:51:23.000Z</time>
      </trkpt>
      <trkpt lat="43.62812" lon="2.30104">
        <ele>242.493798</ele>
        <time>2021-10-03T07:51:24.000Z</time>
      </trkpt>
      <trkpt lat="43.62813" lon="2.301">
        <ele>242.460119</ele>
        <time>2021-10-03T07:51:25.000Z</time>
      </trkpt>
      <trkpt lat="43.62814" lon="2.30095">
        <ele>242.426011</ele>
        <time>2021-10-03T07:51:26.000Z</time>
      </trkpt>
      <trkpt lat="43.62816" lon="2.3009">
        <ele>242.386097</ele>
        <time>2021-10-03T07:51:27.000Z</time>
      </trkpt>
      <trkpt lat="43.62818" lon="2.30085">
        <ele>242.345141</ele>
        <time>2021-10-03T07:51:28.000Z</time>
      </trkpt>
      <trkpt lat="43.62819" lon="2.3008">
        <ele>242.308547</ele>
        <time>2021-10-03T07:51:29.000Z</time>
      </trkpt>
      <trkpt lat="43.62821" lon="2.30075">
        <ele>242.269205</ele>
        <time>2021-10-03T07:51:30.000Z</time>
      </trkpt>
      <trkpt lat="43.62824" lon="2.30071">
        <ele>242.231054</ele>
        <time>2021-10-03T07:51:31.000Z</time>
      </trkpt>
      <trkpt lat="43.62826" lon="2.30067">
        <ele>242.197897</ele>
        <time>2021-10-03T07:51:32.000Z</time>
      </trkpt>
      <trkpt lat="43.62828" lon="2.30064">
        <ele>242.170392</ele>
        <time>2021-10-03T07:51:33.000Z</time>
      </trkpt>
      <trkpt lat="43.62829" lon="2.3006">
        <ele>242.141408</ele>
        <time>2021-10-03T07:51:34.000Z</time>
      </trkpt>
      <trkpt lat="43.62831" lon="2.30056">
        <ele>242.106522</ele>
        <time>2021-10-03T07:51:35.000Z</time>
      </trkpt>
      <trkpt lat="43.62833" lon="2.30052">
        <ele>242.07567</ele>
        <time>2021-10-03T07:51:36.000Z</time>
      </trkpt>
      <trkpt lat="43.62834" lon="2.30048">
        <ele>242.044256</ele>
        <time>2021-10-03T07:51:37.000Z</time>
      </trkpt>
      <trkpt lat="43.62836" lon="2.30045">
        <ele>242.016652</ele>
        <time>2021-10-03T07:51:38.000Z</time>
      </trkpt>
      <trkpt lat="43.62838" lon="2.30041">
        <ele>241.984099</ele>
        <time>2021-10-03T07:51:39.000Z</time>
      </trkpt>
      <trkpt lat="43.6284" lon="2.30037">
        <ele>241.952452</ele>
        <time>2021-10-03T07:51:40.000Z</time>
      </trkpt>
      <trkpt lat="43.62841" lon="2.30034">
        <ele>241.925634</ele>
        <time>2021-10-03T07:51:41.000Z</time>
      </trkpt>
      <trkpt lat="43.62842" lon="2.3003">
        <ele>241.899845</ele>
        <time>2021-10-03T07:51:42.000Z</time>
      </trkpt>
      <trkpt lat="43.62842" lon="2.30027">
        <ele>241.876282</ele>
        <time>2021-10-03T07:51:43.000Z</time>
      </trkpt>
      <trkpt lat="43.62843" lon="2.30024">
        <ele>241.853251</ele>
        <time>2021-10-03T07:51:44.000Z</time>
      </trkpt>
      <trkpt lat="43.62843" lon="2.30021">
        <ele>241.834954</ele>
        <time>2021-10-03T07:51:45.000Z</time>
      </trkpt>
      <trkpt lat="43.62844" lon="2.30018">
        <ele>241.811047</ele>
        <time>2021-10-03T07:51:46.000Z</time>
      </trkpt>
      <trkpt lat="43.62845" lon="2.30014">
        <ele>241.78231</ele>
        <time>2021-10-03T07:51:47.000Z</time>
      </trkpt>
      <trkpt lat="43.62846" lon="2.30011">
        <ele>241.759823</ele>
        <time>2021-10-03T07:51:48.000Z</time>
      </trkpt>
      <trkpt lat="43.62847" lon="2.30008">
        <ele>241.73638</ele>
        <time>2021-10-03T07:51:49.000Z</time>
      </trkpt>
      <trkpt lat="43.62848" lon="2.30006">
        <ele>241.714422</ele>
        <time>2021-10-03T07:51:50.000Z</time>
      </trkpt>
      <trkpt lat="43.6285" lon="2.30004">
        <ele>241.689602</ele>
        <time>2021-10-03T07:51:51.000Z</time>
      </trkpt>
      <trkpt lat="43.62853" lon="2.30002">
        <ele>241.659959</ele>
        <time>2021-10-03T07:51:52.000Z</time>
      </trkpt>
      <trkpt lat="43.62856" lon="2.29998">
        <ele>241.621782</ele>
        <time>2021-10-03T07:51:53.000Z</time>
      </trkpt>
      <trkpt lat="43.6286" lon="2.29995">
        <ele>241.580448</ele>
        <time>2021-10-03T07:51:54.000Z</time>
      </trkpt>
      <trkpt lat="43.62863" lon="2.29992">
        <ele>241.542221</ele>
        <time>2021-10-03T07:51:55.000Z</time>
      </trkpt>
      <trkpt lat="43.62866" lon="2.2999">
        <ele>241.510313</ele>
        <time>2021-10-03T07:51:56.000Z</time>
      </trkpt>
      <trkpt lat="43.6287" lon="2.29988">
        <ele>241.476972</ele>
        <time>2021-10-03T07:51:57.000Z</time>
      </trkpt>
      <trkpt lat="43.62872" lon="2.29986">
        <ele>241.446627</ele>
        <time>2021-10-03T07:51:58.000Z</time>
      </trkpt>
      <trkpt lat="43.62875" lon="2.29983">
        <ele>241.413771</ele>
        <time>2021-10-03T07:51:59.000Z</time>
      </trkpt>
      <trkpt lat="43.62878" lon="2.2998">
        <ele>241.379738</ele>
        <time>2021-10-03T07:52:00.000Z</time>
      </trkpt>
      <trkpt lat="43.6288" lon="2.29976">
        <ele>241.342368</ele>
        <time>2021-10-03T07:52:01.000Z</time>
      </trkpt>
      <trkpt lat="43.62882" lon="2.29972">
        <ele>241.310954</ele>
        <time>2021-10-03T07:52:02.000Z</time>
      </trkpt>
      <trkpt lat="43.62884" lon="2.29967">
        <ele>241.271093</ele>
        <time>2021-10-03T07:52:03.000Z</time>
      </trkpt>
      <trkpt lat="43.62887" lon="2.29963">
        <ele>241.234623</ele>
        <time>2021-10-03T07:52:04.000Z</time>
      </trkpt>
      <trkpt lat="43.62889" lon="2.29959">
        <ele>241.200851</ele>
        <time>2021-10-03T07:52:05.000Z</time>
      </trkpt>
      <trkpt lat="43.62891" lon="2.29956">
        <ele>241.172685</ele>
        <time>2021-10-03T07:52:06.000Z</time>
      </trkpt>
      <trkpt lat="43.62892" lon="2.29953">
        <ele>241.151104</ele>
        <time>2021-10-03T07:52:07.000Z</time>
      </trkpt>
      <trkpt lat="43.62893" lon="2.29952">
        <ele>241.134741</ele>
        <time>2021-10-03T07:52:08.000Z</time>
      </trkpt>
      <trkpt lat="43.62893" lon="2.29952">
        <ele>241.127582</ele>
        <time>2021-10-03T07:52:09.000Z</time>
      </trkpt>
      <trkpt lat="43.62893" lon="2.29952">
        <ele>241.127582</ele>
        <time>2021-10-03T07:52:10.000Z</time>
      </trkpt>
      <trkpt lat="43.62893" lon="2.29952">
        <ele>241.127582</ele>
        <time>2021-10-03T07:52:11.000Z</time>
      </trkpt>
      <trkpt lat="43.62896" lon="2.29947">
        <ele>241.066337</ele>
        <time>2021-10-03T07:52:16.000Z</time>
      </trkpt>
      <trkpt lat="43.62897" lon="2.29945">
        <ele>241.032937</ele>
        <time>2021-10-03T07:52:17.000Z</time>
      </trkpt>
      <trkpt lat="43.62899" lon="2.29943">
        <ele>240.997221</ele>
        <time>2021-10-03T07:52:18.000Z</time>
      </trkpt>
      <trkpt lat="43.629" lon="2.2994">
        <ele>240.961504</ele>
        <time>2021-10-03T07:52:19.000Z</time>
      </trkpt>
      <trkpt lat="43.62903" lon="2.29937">
        <ele>240.914181</ele>
        <time>2021-10-03T07:52:20.000Z</time>
      </trkpt>
      <trkpt lat="43.62906" lon="2.29933">
        <ele>240.858586</ele>
        <time>2021-10-03T07:52:21.000Z</time>
      </trkpt>
      <trkpt lat="43.62909" lon="2.2993">
        <ele>240.799527</ele>
        <time>2021-10-03T07:52:22.000Z</time>
      </trkpt>
      <trkpt lat="43.62912" lon="2.29927">
        <ele>240.744656</ele>
        <time>2021-10-03T07:52:23.000Z</time>
      </trkpt>
      <trkpt lat="43.62915" lon="2.29924">
        <ele>240.690343</ele>
        <time>2021-10-03T07:52:24.000Z</time>
      </trkpt>
      <trkpt lat="43.62918" lon="2.29921">
        <ele>240.641399</ele>
        <time>2021-10-03T07:52:25.000Z</time>
      </trkpt>
      <trkpt lat="43.62921" lon="2.29919">
        <ele>240.587122</ele>
        <time>2021-10-03T07:52:26.000Z</time>
      </trkpt>
      <trkpt lat="43.62924" lon="2.29916">
        <ele>240.538677</ele>
        <time>2021-10-03T07:52:27.000Z</time>
      </trkpt>
      <trkpt lat="43.62926" lon="2.29913">
        <ele>240.492691</ele>
        <time>2021-10-03T07:52:28.000Z</time>
      </trkpt>
      <trkpt lat="43.62929" lon="2.29912">
        <ele>240.457734</ele>
        <time>2021-10-03T07:52:29.000Z</time>
      </trkpt>
      <trkpt lat="43.62931" lon="2.29912">
        <ele>240.423349</ele>
        <time>2021-10-03T07:52:30.000Z</time>
      </trkpt>
      <trkpt lat="43.62933" lon="2.29912">
        <ele>240.389988</ele>
        <time>2021-10-03T07:52:31.000Z</time>
      </trkpt>
      <trkpt lat="43.62936" lon="2.29912">
        <ele>240.350494</ele>
        <time>2021-10-03T07:52:32.000Z</time>
      </trkpt>
      <trkpt lat="43.62937" lon="2.29914">
        <ele>240.323649</ele>
        <time>2021-10-03T07:52:33.000Z</time>
      </trkpt>
      <trkpt lat="43.62939" lon="2.29916">
        <ele>240.291654</ele>
        <time>2021-10-03T07:52:34.000Z</time>
      </trkpt>
      <trkpt lat="43.62941" lon="2.29918">
        <ele>240.261432</ele>
        <time>2021-10-03T07:52:35.000Z</time>
      </trkpt>
      <trkpt lat="43.62942" lon="2.29921">
        <ele>240.218806</ele>
        <time>2021-10-03T07:52:36.000Z</time>
      </trkpt>
      <trkpt lat="43.62945" lon="2.29925">
        <ele>240.165199</ele>
        <time>2021-10-03T07:52:37.000Z</time>
      </trkpt>
      <trkpt lat="43.62947" lon="2.29928">
        <ele>240.111833</ele>
        <time>2021-10-03T07:52:38.000Z</time>
      </trkpt>
      <trkpt lat="43.62951" lon="2.29933">
        <ele>240.043572</ele>
        <time>2021-10-03T07:52:39.000Z</time>
      </trkpt>
      <trkpt lat="43.62955" lon="2.29937">
        <ele>239.970787</ele>
        <time>2021-10-03T07:52:40.000Z</time>
      </trkpt>
      <trkpt lat="43.62959" lon="2.2994">
        <ele>239.897887</ele>
        <time>2021-10-03T07:52:41.000Z</time>
      </trkpt>
      <trkpt lat="43.62964" lon="2.29942">
        <ele>239.828281</ele>
        <time>2021-10-03T07:52:42.000Z</time>
      </trkpt>
      <trkpt lat="43.62969" lon="2.29942">
        <ele>239.761296</ele>
        <time>2021-10-03T07:52:43.000Z</time>
      </trkpt>
      <trkpt lat="43.62975" lon="2.29943">
        <ele>239.674152</ele>
        <time>2021-10-03T07:52:44.000Z</time>
      </trkpt>
      <trkpt lat="43.62979" lon="2.29943">
        <ele>239.605981</ele>
        <time>2021-10-03T07:52:45.000Z</time>
      </trkpt>
      <trkpt lat="43.62985" lon="2.29943">
        <ele>239.530586</ele>
        <time>2021-10-03T07:52:46.000Z</time>
      </trkpt>
      <trkpt lat="43.62991" lon="2.29943">
        <ele>239.442144</ele>
        <time>2021-10-03T07:52:47.000Z</time>
      </trkpt>
      <trkpt lat="43.62997" lon="2.29944">
        <ele>239.352958</ele>
        <time>2021-10-03T07:52:48.000Z</time>
      </trkpt>
      <trkpt lat="43.63003" lon="2.29945">
        <ele>239.264367</ele>
        <time>2021-10-03T07:52:49.000Z</time>
      </trkpt>
      <trkpt lat="43.63009" lon="2.29947">
        <ele>239.173712</ele>
        <time>2021-10-03T07:52:50.000Z</time>
      </trkpt>
      <trkpt lat="43.63015" lon="2.29949">
        <ele>239.087011</ele>
        <time>2021-10-03T07:52:51.000Z</time>
      </trkpt>
      <trkpt lat="43.63021" lon="2.29953">
        <ele>238.980668</ele>
        <time>2021-10-03T07:52:52.000Z</time>
      </trkpt>
      <trkpt lat="43.63027" lon="2.29957">
        <ele>238.892938</ele>
        <time>2021-10-03T07:52:53.000Z</time>
      </trkpt>
      <trkpt lat="43.63033" lon="2.29964">
        <ele>238.784313</ele>
        <time>2021-10-03T07:52:54.000Z</time>
      </trkpt>
      <trkpt lat="43.63037" lon="2.29971">
        <ele>238.682572</ele>
        <time>2021-10-03T07:52:55.000Z</time>
      </trkpt>
      <trkpt lat="43.63042" lon="2.29978">
        <ele>238.582993</ele>
        <time>2021-10-03T07:52:56.000Z</time>
      </trkpt>
      <trkpt lat="43.63046" lon="2.29985">
        <ele>238.401673</ele>
        <time>2021-10-03T07:52:57.000Z</time>
      </trkpt>
      <trkpt lat="43.63049" lon="2.29992">
        <ele>238.20569</ele>
        <time>2021-10-03T07:52:58.000Z</time>
      </trkpt>
      <trkpt lat="43.63052" lon="2.3">
        <ele>237.995166</ele>
        <time>2021-10-03T07:52:59.000Z</time>
      </trkpt>
      <trkpt lat="43.63054" lon="2.30008">
        <ele>237.780703</ele>
        <time>2021-10-03T07:53:00.000Z</time>
      </trkpt>
      <trkpt lat="43.63057" lon="2.30019">
        <ele>237.497033</ele>
        <time>2021-10-03T07:53:01.000Z</time>
      </trkpt>
      <trkpt lat="43.63059" lon="2.3003">
        <ele>237.237349</ele>
        <time>2021-10-03T07:53:02.000Z</time>
      </trkpt>
      <trkpt lat="43.6306" lon="2.3004">
        <ele>236.976052</ele>
        <time>2021-10-03T07:53:03.000Z</time>
      </trkpt>
      <trkpt lat="43.63063" lon="2.30051">
        <ele>236.721518</ele>
        <time>2021-10-03T07:53:04.000Z</time>
      </trkpt>
      <trkpt lat="43.63065" lon="2.30059">
        <ele>236.501232</ele>
        <time>2021-10-03T07:53:05.000Z</time>
      </trkpt>
      <trkpt lat="43.63066" lon="2.30067">
        <ele>236.297125</ele>
        <time>2021-10-03T07:53:06.000Z</time>
      </trkpt>
      <trkpt lat="43.63067" lon="2.30075">
        <ele>236.109402</ele>
        <time>2021-10-03T07:53:07.000Z</time>
      </trkpt>
      <trkpt lat="43.63068" lon="2.30083">
        <ele>235.922365</ele>
        <time>2021-10-03T07:53:08.000Z</time>
      </trkpt>
      <trkpt lat="43.63069" lon="2.3009">
        <ele>235.741805</ele>
        <time>2021-10-03T07:53:09.000Z</time>
      </trkpt>
      <trkpt lat="43.6307" lon="2.30098">
        <ele>235.554082</ele>
        <time>2021-10-03T07:53:10.000Z</time>
      </trkpt>
      <trkpt lat="43.63069" lon="2.30106">
        <ele>235.351124</ele>
        <time>2021-10-03T07:53:11.000Z</time>
      </trkpt>
      <trkpt lat="43.63069" lon="2.30115">
        <ele>235.13876</ele>
        <time>2021-10-03T07:53:12.000Z</time>
      </trkpt>
      <trkpt lat="43.63068" lon="2.30123">
        <ele>234.939086</ele>
        <time>2021-10-03T07:53:13.000Z</time>
      </trkpt>
      <trkpt lat="43.63068" lon="2.30131">
        <ele>234.740752</ele>
        <time>2021-10-03T07:53:14.000Z</time>
      </trkpt>
      <trkpt lat="43.63068" lon="2.30139">
        <ele>234.55252</ele>
        <time>2021-10-03T07:53:15.000Z</time>
      </trkpt>
      <trkpt lat="43.63068" lon="2.30147">
        <ele>234.373444</ele>
        <time>2021-10-03T07:53:16.000Z</time>
      </trkpt>
      <trkpt lat="43.63067" lon="2.30153">
        <ele>234.218674</ele>
        <time>2021-10-03T07:53:17.000Z</time>
      </trkpt>
      <trkpt lat="43.63067" lon="2.30158">
        <ele>234.095776</ele>
        <time>2021-10-03T07:53:18.000Z</time>
      </trkpt>
      <trkpt lat="43.63066" lon="2.30165">
        <ele>233.938033</ele>
        <time>2021-10-03T07:53:19.000Z</time>
      </trkpt>
      <trkpt lat="43.63065" lon="2.3017">
        <ele>233.797337</ele>
        <time>2021-10-03T07:53:20.000Z</time>
      </trkpt>
      <trkpt lat="43.63063" lon="2.30174">
        <ele>233.67576</ele>
        <time>2021-10-03T07:53:21.000Z</time>
      </trkpt>
      <trkpt lat="43.63061" lon="2.30179">
        <ele>233.556202</ele>
        <time>2021-10-03T07:53:22.000Z</time>
      </trkpt>
      <trkpt lat="43.63059" lon="2.30184">
        <ele>233.417284</ele>
        <time>2021-10-03T07:53:23.000Z</time>
      </trkpt>
      <trkpt lat="43.63057" lon="2.30188">
        <ele>233.291562</ele>
        <time>2021-10-03T07:53:24.000Z</time>
      </trkpt>
      <trkpt lat="43.63056" lon="2.30193">
        <ele>233.157423</ele>
        <time>2021-10-03T07:53:25.000Z</time>
      </trkpt>
      <trkpt lat="43.63054" lon="2.302">
        <ele>232.995541</ele>
        <time>2021-10-03T07:53:26.000Z</time>
      </trkpt>
      <trkpt lat="43.63054" lon="2.30208">
        <ele>232.801077</ele>
        <time>2021-10-03T07:53:27.000Z</time>
      </trkpt>
      <trkpt lat="43.63052" lon="2.30215">
        <ele>232.625128</ele>
        <time>2021-10-03T07:53:28.000Z</time>
      </trkpt>
      <trkpt lat="43.63052" lon="2.30224">
        <ele>232.567716</ele>
        <time>2021-10-03T07:53:29.000Z</time>
      </trkpt>
      <trkpt lat="43.63052" lon="2.30231">
        <ele>232.591723</ele>
        <time>2021-10-03T07:53:30.000Z</time>
      </trkpt>
      <trkpt lat="43.63052" lon="2.30238">
        <ele>232.618084</ele>
        <time>2021-10-03T07:53:31.000Z</time>
      </trkpt>
      <trkpt lat="43.63052" lon="2.30244">
        <ele>232.637725</ele>
        <time>2021-10-03T07:53:32.000Z</time>
      </trkpt>
      <trkpt lat="43.63053" lon="2.3025">
        <ele>232.659245</ele>
        <time>2021-10-03T07:53:33.000Z</time>
      </trkpt>
      <trkpt lat="43.63054" lon="2.30256">
        <ele>232.677496</ele>
        <time>2021-10-03T07:53:34.000Z</time>
      </trkpt>
      <trkpt lat="43.63055" lon="2.30262">
        <ele>232.697651</ele>
        <time>2021-10-03T07:53:35.000Z</time>
      </trkpt>
      <trkpt lat="43.63055" lon="2.30269">
        <ele>232.723949</ele>
        <time>2021-10-03T07:53:36.000Z</time>
      </trkpt>
      <trkpt lat="43.63055" lon="2.30274">
        <ele>232.738512</ele>
        <time>2021-10-03T07:53:37.000Z</time>
      </trkpt>
      <trkpt lat="43.63055" lon="2.30279">
        <ele>232.757147</ele>
        <time>2021-10-03T07:53:38.000Z</time>
      </trkpt>
      <trkpt lat="43.63056" lon="2.30286">
        <ele>232.778633</ele>
        <time>2021-10-03T07:53:39.000Z</time>
      </trkpt>
      <trkpt lat="43.63057" lon="2.30292">
        <ele>232.800269</ele>
        <time>2021-10-03T07:53:40.000Z</time>
      </trkpt>
      <trkpt lat="43.63059" lon="2.30297">
        <ele>232.820004</ele>
        <time>2021-10-03T07:53:41.000Z</time>
      </trkpt>
      <trkpt lat="43.6306" lon="2.303">
        <ele>232.830382</ele>
        <time>2021-10-03T07:53:42.000Z</time>
      </trkpt>
      <trkpt lat="43.6306" lon="2.30304">
        <ele>232.844663</ele>
        <time>2021-10-03T07:53:43.000Z</time>
      </trkpt>
      <trkpt lat="43.6306" lon="2.30309">
        <ele>232.860616</ele>
        <time>2021-10-03T07:53:44.000Z</time>
      </trkpt>
      <trkpt lat="43.6306" lon="2.30313">
        <ele>232.873764</ele>
        <time>2021-10-03T07:53:45.000Z</time>
      </trkpt>
      <trkpt lat="43.63061" lon="2.30316">
        <ele>232.884307</ele>
        <time>2021-10-03T07:53:46.000Z</time>
      </trkpt>
      <trkpt lat="43.63061" lon="2.30319">
        <ele>232.895778</ele>
        <time>2021-10-03T07:53:47.000Z</time>
      </trkpt>
      <trkpt lat="43.63061" lon="2.30322">
        <ele>232.903195</ele>
        <time>2021-10-03T07:53:48.000Z</time>
      </trkpt>
      <trkpt lat="43.63061" lon="2.30324">
        <ele>232.912403</ele>
        <time>2021-10-03T07:53:49.000Z</time>
      </trkpt>
      <trkpt lat="43.63061" lon="2.30328">
        <ele>232.92395</ele>
        <time>2021-10-03T07:53:50.000Z</time>
      </trkpt>
      <trkpt lat="43.63059" lon="2.3033">
        <ele>232.935424</ele>
        <time>2021-10-03T07:53:51.000Z</time>
      </trkpt>
      <trkpt lat="43.63059" lon="2.30333">
        <ele>232.944055</ele>
        <time>2021-10-03T07:53:52.000Z</time>
      </trkpt>
      <trkpt lat="43.63057" lon="2.30335">
        <ele>232.953533</ele>
        <time>2021-10-03T07:53:53.000Z</time>
      </trkpt>
      <trkpt lat="43.63056" lon="2.30336">
        <ele>232.960731</ele>
        <time>2021-10-03T07:53:54.000Z</time>
      </trkpt>
      <trkpt lat="43.63056" lon="2.30338">
        <ele>232.967864</ele>
        <time>2021-10-03T07:53:55.000Z</time>
      </trkpt>
      <trkpt lat="43.63055" lon="2.3034">
        <ele>232.975353</ele>
        <time>2021-10-03T07:53:56.000Z</time>
      </trkpt>
      <trkpt lat="43.63055" lon="2.30343">
        <ele>232.985637</ele>
        <time>2021-10-03T07:53:57.000Z</time>
      </trkpt>
      <trkpt lat="43.63053" lon="2.30345">
        <ele>232.995792</ele>
        <time>2021-10-03T07:53:58.000Z</time>
      </trkpt>
      <trkpt lat="43.63051" lon="2.30347">
        <ele>233.005402</ele>
        <time>2021-10-03T07:53:59.000Z</time>
      </trkpt>
      <trkpt lat="43.63049" lon="2.30349">
        <ele>233.018251</ele>
        <time>2021-10-03T07:54:00.000Z</time>
      </trkpt>
      <trkpt lat="43.63047" lon="2.30351">
        <ele>233.030732</ele>
        <time>2021-10-03T07:54:01.000Z</time>
      </trkpt>
      <trkpt lat="43.63045" lon="2.30354">
        <ele>233.042759</ele>
        <time>2021-10-03T07:54:02.000Z</time>
      </trkpt>
      <trkpt lat="43.63043" lon="2.30356">
        <ele>233.055416</ele>
        <time>2021-10-03T07:54:03.000Z</time>
      </trkpt>
      <trkpt lat="43.6304" lon="2.30361">
        <ele>233.077833</ele>
        <time>2021-10-03T07:54:04.000Z</time>
      </trkpt>
      <trkpt lat="43.63039" lon="2.30364">
        <ele>233.089246</ele>
        <time>2021-10-03T07:54:05.000Z</time>
      </trkpt>
      <trkpt lat="43.63038" lon="2.30367">
        <ele>233.099641</ele>
        <time>2021-10-03T07:54:06.000Z</time>
      </trkpt>
      <trkpt lat="43.63037" lon="2.30369">
        <ele>233.108109</ele>
        <time>2021-10-03T07:54:07.000Z</time>
      </trkpt>
      <trkpt lat="43.63036" lon="2.30371">
        <ele>233.11674</ele>
        <time>2021-10-03T07:54:08.000Z</time>
      </trkpt>
      <trkpt lat="43.63036" lon="2.30374">
        <ele>233.126361</ele>
        <time>2021-10-03T07:54:09.000Z</time>
      </trkpt>
      <trkpt lat="43.63035" lon="2.30377">
        <ele>233.138105</ele>
        <time>2021-10-03T07:54:10.000Z</time>
      </trkpt>
      <trkpt lat="43.63033" lon="2.30379">
        <ele>233.147398</ele>
        <time>2021-10-03T07:54:11.000Z</time>
      </trkpt>
      <trkpt lat="43.63032" lon="2.30382">
        <ele>233.160584</ele>
        <time>2021-10-03T07:54:12.000Z</time>
      </trkpt>
      <trkpt lat="43.63031" lon="2.30384">
        <ele>233.169492</ele>
        <time>2021-10-03T07:54:13.000Z</time>
      </trkpt>
      <trkpt lat="43.6303" lon="2.30388">
        <ele>233.18316</ele>
        <time>2021-10-03T07:54:14.000Z</time>
      </trkpt>
      <trkpt lat="43.63028" lon="2.30392">
        <ele>233.199905</ele>
        <time>2021-10-03T07:54:15.000Z</time>
      </trkpt>
      <trkpt lat="43.63025" lon="2.30396">
        <ele>233.219323</ele>
        <time>2021-10-03T07:54:16.000Z</time>
      </trkpt>
      <trkpt lat="43.63023" lon="2.30401">
        <ele>233.236832</ele>
        <time>2021-10-03T07:54:17.000Z</time>
      </trkpt>
      <trkpt lat="43.63022" lon="2.30404">
        <ele>233.248684</ele>
        <time>2021-10-03T07:54:18.000Z</time>
      </trkpt>
      <trkpt lat="43.63021" lon="2.30408">
        <ele>233.261238</ele>
        <time>2021-10-03T07:54:19.000Z</time>
      </trkpt>
      <trkpt lat="43.6302" lon="2.30411">
        <ele>233.271945</ele>
        <time>2021-10-03T07:54:20.000Z</time>
      </trkpt>
      <trkpt lat="43.6302" lon="2.30413">
        <ele>233.280488</ele>
        <time>2021-10-03T07:54:21.000Z</time>
      </trkpt>
      <trkpt lat="43.6302" lon="2.30417">
        <ele>233.293307</ele>
        <time>2021-10-03T07:54:22.000Z</time>
      </trkpt>
      <trkpt lat="43.63019" lon="2.3042">
        <ele>233.304899</ele>
        <time>2021-10-03T07:54:23.000Z</time>
      </trkpt>
      <trkpt lat="43.63019" lon="2.30424">
        <ele>233.318846</ele>
        <time>2021-10-03T07:54:24.000Z</time>
      </trkpt>
      <trkpt lat="43.63019" lon="2.30429">
        <ele>233.33413</ele>
        <time>2021-10-03T07:54:25.000Z</time>
      </trkpt>
      <trkpt lat="43.6302" lon="2.30431">
        <ele>233.343993</ele>
        <time>2021-10-03T07:54:26.000Z</time>
      </trkpt>
      <trkpt lat="43.63022" lon="2.30435">
        <ele>233.35739</ele>
        <time>2021-10-03T07:54:27.000Z</time>
      </trkpt>
      <trkpt lat="43.63025" lon="2.30438">
        <ele>233.376576</ele>
        <time>2021-10-03T07:54:28.000Z</time>
      </trkpt>
      <trkpt lat="43.63028" lon="2.30442">
        <ele>233.530613</ele>
        <time>2021-10-03T07:54:29.000Z</time>
      </trkpt>
      <trkpt lat="43.63029" lon="2.30444">
        <ele>233.677708</ele>
        <time>2021-10-03T07:54:30.000Z</time>
      </trkpt>
      <trkpt lat="43.63031" lon="2.30447">
        <ele>233.899692</ele>
        <time>2021-10-03T07:54:31.000Z</time>
      </trkpt>
      <trkpt lat="43.63032" lon="2.30449">
        <ele>234.085782</ele>
        <time>2021-10-03T07:54:32.000Z</time>
      </trkpt>
      <trkpt lat="43.63034" lon="2.30451">
        <ele>234.250777</ele>
        <time>2021-10-03T07:54:33.000Z</time>
      </trkpt>
      <trkpt lat="43.63036" lon="2.30452">
        <ele>234.482512</ele>
        <time>2021-10-03T07:54:34.000Z</time>
      </trkpt>
      <trkpt lat="43.63039" lon="2.30453">
        <ele>234.716278</ele>
        <time>2021-10-03T07:54:35.000Z</time>
      </trkpt>
      <trkpt lat="43.63042" lon="2.30454">
        <ele>234.940405</ele>
        <time>2021-10-03T07:54:36.000Z</time>
      </trkpt>
      <trkpt lat="43.63043" lon="2.30457">
        <ele>235.130349</ele>
        <time>2021-10-03T07:54:37.000Z</time>
      </trkpt>
      <trkpt lat="43.63045" lon="2.30458">
        <ele>235.289318</ele>
        <time>2021-10-03T07:54:38.000Z</time>
      </trkpt>
      <trkpt lat="43.63047" lon="2.30459">
        <ele>235.471046</ele>
        <time>2021-10-03T07:54:39.000Z</time>
      </trkpt>
      <trkpt lat="43.6305" lon="2.30461">
        <ele>235.740322</ele>
        <time>2021-10-03T07:54:40.000Z</time>
      </trkpt>
      <trkpt lat="43.63052" lon="2.30462">
        <ele>235.940559</ele>
        <time>2021-10-03T07:54:41.000Z</time>
      </trkpt>
      <trkpt lat="43.63054" lon="2.30463">
        <ele>236.139075</ele>
        <time>2021-10-03T07:54:42.000Z</time>
      </trkpt>
      <trkpt lat="43.63056" lon="2.30464">
        <ele>236.317842</ele>
        <time>2021-10-03T07:54:43.000Z</time>
      </trkpt>
      <trkpt lat="43.63059" lon="2.30466">
        <ele>236.551827</ele>
        <time>2021-10-03T07:54:44.000Z</time>
      </trkpt>
      <trkpt lat="43.63061" lon="2.30467">
        <ele>236.758195</ele>
        <time>2021-10-03T07:54:45.000Z</time>
      </trkpt>
      <trkpt lat="43.63063" lon="2.30469">
        <ele>236.993981</ele>
        <time>2021-10-03T07:54:46.000Z</time>
      </trkpt>
      <trkpt lat="43.63066" lon="2.30471">
        <ele>237.235488</ele>
        <time>2021-10-03T07:54:47.000Z</time>
      </trkpt>
      <trkpt lat="43.63069" lon="2.30473">
        <ele>237.510304</ele>
        <time>2021-10-03T07:54:48.000Z</time>
      </trkpt>
      <trkpt lat="43.63071" lon="2.30475">
        <ele>237.735989</ele>
        <time>2021-10-03T07:54:49.000Z</time>
      </trkpt>
      <trkpt lat="43.63074" lon="2.30477">
        <ele>237.990404</ele>
        <time>2021-10-03T07:54:50.000Z</time>
      </trkpt>
      <trkpt lat="43.63077" lon="2.30479">
        <ele>238.24051</ele>
        <time>2021-10-03T07:54:51.000Z</time>
      </trkpt>
      <trkpt lat="43.63079" lon="2.3048">
        <ele>238.426701</ele>
        <time>2021-10-03T07:54:52.000Z</time>
      </trkpt>
      <trkpt lat="43.63081" lon="2.30481">
        <ele>238.630869</ele>
        <time>2021-10-03T07:54:53.000Z</time>
      </trkpt>
      <trkpt lat="43.63083" lon="2.30482">
        <ele>238.799715</ele>
        <time>2021-10-03T07:54:54.000Z</time>
      </trkpt>
      <trkpt lat="43.63085" lon="2.30483">
        <ele>238.957957</ele>
        <time>2021-10-03T07:54:55.000Z</time>
      </trkpt>
      <trkpt lat="43.63087" lon="2.30485">
        <ele>239.194515</ele>
        <time>2021-10-03T07:54:56.000Z</time>
      </trkpt>
      <trkpt lat="43.63089" lon="2.30489">
        <ele>239.487676</ele>
        <time>2021-10-03T07:54:57.000Z</time>
      </trkpt>
      <trkpt lat="43.63091" lon="2.30493">
        <ele>239.783651</ele>
        <time>2021-10-03T07:54:58.000Z</time>
      </trkpt>
      <trkpt lat="43.63092" lon="2.30497">
        <ele>240.033092</ele>
        <time>2021-10-03T07:54:59.000Z</time>
      </trkpt>
      <trkpt lat="43.63092" lon="2.30501">
        <ele>240.251353</ele>
        <time>2021-10-03T07:55:00.000Z</time>
      </trkpt>
      <trkpt lat="43.63092" lon="2.30505">
        <ele>240.491927</ele>
        <time>2021-10-03T07:55:01.000Z</time>
      </trkpt>
      <trkpt lat="43.63092" lon="2.30507">
        <ele>240.636186</ele>
        <time>2021-10-03T07:55:02.000Z</time>
      </trkpt>
      <trkpt lat="43.63092" lon="2.30509">
        <ele>240.738369</ele>
        <time>2021-10-03T07:55:03.000Z</time>
      </trkpt>
      <trkpt lat="43.63091" lon="2.3051">
        <ele>240.875431</ele>
        <time>2021-10-03T07:55:04.000Z</time>
      </trkpt>
      <trkpt lat="43.63091" lon="2.30512">
        <ele>240.988609</ele>
        <time>2021-10-03T07:55:05.000Z</time>
      </trkpt>
      <trkpt lat="43.6309" lon="2.30515">
        <ele>241.138582</ele>
        <time>2021-10-03T07:55:06.000Z</time>
      </trkpt>
      <trkpt lat="43.63089" lon="2.30517">
        <ele>241.315923</ele>
        <time>2021-10-03T07:55:07.000Z</time>
      </trkpt>
      <trkpt lat="43.63088" lon="2.30518">
        <ele>241.463018</ele>
        <time>2021-10-03T07:55:08.000Z</time>
      </trkpt>
      <trkpt lat="43.63086" lon="2.30521">
        <ele>241.623739</ele>
        <time>2021-10-03T07:55:09.000Z</time>
      </trkpt>
      <trkpt lat="43.63085" lon="2.30522">
        <ele>241.784855</ele>
        <time>2021-10-03T07:55:10.000Z</time>
      </trkpt>
      <trkpt lat="43.63084" lon="2.30525">
        <ele>241.970204</ele>
        <time>2021-10-03T07:55:11.000Z</time>
      </trkpt>
      <trkpt lat="43.63083" lon="2.30527">
        <ele>242.123587</ele>
        <time>2021-10-03T07:55:12.000Z</time>
      </trkpt>
      <trkpt lat="43.63082" lon="2.3053">
        <ele>242.289289</ele>
        <time>2021-10-03T07:55:13.000Z</time>
      </trkpt>
      <trkpt lat="43.6308" lon="2.30532">
        <ele>242.470958</ele>
        <time>2021-10-03T07:55:14.000Z</time>
      </trkpt>
      <trkpt lat="43.63079" lon="2.30533">
        <ele>242.601389</ele>
        <time>2021-10-03T07:55:15.000Z</time>
      </trkpt>
      <trkpt lat="43.63078" lon="2.30534">
        <ele>242.685008</ele>
        <time>2021-10-03T07:55:16.000Z</time>
      </trkpt>
      <trkpt lat="43.63077" lon="2.30536">
        <ele>242.80921</ele>
        <time>2021-10-03T07:55:17.000Z</time>
      </trkpt>
      <trkpt lat="43.63071" lon="2.30557">
        <ele>271.1</ele>
      </trkpt>
      <trkpt lat="43.6307" lon="2.30589">
        <ele>271.6</ele>
      </trkpt>
      <trkpt lat="43.63074" lon="2.30621">
        <ele>272.5</ele>
      </trkpt>
      <trkpt lat="43.63066" lon="2.30627">
        <ele>275</ele>
      </trkpt>
      <trkpt lat="43.63047" lon="2.30614">
        <ele>278.3</ele>
      </trkpt>
      <trkpt lat="43.63031" lon="2.30599">
        <ele>281.1</ele>
      </trkpt>
      <trkpt lat="43.63023" lon="2.30613">
        <ele>283.4</ele>
      </trkpt>
      <trkpt lat="43.63039" lon="2.30641">
        <ele>281.7</ele>
      </trkpt>
      <trkpt lat="43.63064" lon="2.30672">
        <ele>280.7</ele>
      </trkpt>
      <trkpt lat="43.63071" lon="2.30711">
        <ele>280.9</ele>
      </trkpt>
      <trkpt lat="43.6305" lon="2.30859">
        <ele>285.8</ele>
      </trkpt>
      <trkpt lat="43.63043" lon="2.3089">
        <ele>283.7</ele>
      </trkpt>
      <trkpt lat="43.63027" lon="2.30908">
        <ele>282.5</ele>
      </trkpt>
      <trkpt lat="43.62996" lon="2.30906">
        <ele>278.6</ele>
      </trkpt>
      <trkpt lat="43.6297" lon="2.30911">
        <ele>278</ele>
      </trkpt>
      <trkpt lat="43.62947" lon="2.30921">
        <ele>279.5</ele>
      </trkpt>
      <trkpt lat="43.62918" lon="2.30917">
        <ele>283.8</ele>
      </trkpt>
      <trkpt lat="43.62905" lon="2.30913">
        <ele>258.814588</ele>
        <time>2021-10-03T07:59:27.000Z</time>
      </trkpt>
      <trkpt lat="43.62902" lon="2.30916">
        <ele>259.267766</ele>
        <time>2021-10-03T07:59:28.000Z</time>
      </trkpt>
      <trkpt lat="43.629" lon="2.30921">
        <ele>259.724807</ele>
        <time>2021-10-03T07:59:29.000Z</time>
      </trkpt>
      <trkpt lat="43.62899" lon="2.30925">
        <ele>260.101579</ele>
        <time>2021-10-03T07:59:30.000Z</time>
      </trkpt>
      <trkpt lat="43.62897" lon="2.30927">
        <ele>260.445611</ele>
        <time>2021-10-03T07:59:31.000Z</time>
      </trkpt>
      <trkpt lat="43.62893" lon="2.30931">
        <ele>260.990656</ele>
        <time>2021-10-03T07:59:32.000Z</time>
      </trkpt>
      <trkpt lat="43.62891" lon="2.30935">
        <ele>261.39434</ele>
        <time>2021-10-03T07:59:33.000Z</time>
      </trkpt>
      <trkpt lat="43.62889" lon="2.30939">
        <ele>261.857842</ele>
        <time>2021-10-03T07:59:34.000Z</time>
      </trkpt>
      <trkpt lat="43.62887" lon="2.30944">
        <ele>262.326933</ele>
        <time>2021-10-03T07:59:35.000Z</time>
      </trkpt>
      <trkpt lat="43.62884" lon="2.30949">
        <ele>262.921774</ele>
        <time>2021-10-03T07:59:36.000Z</time>
      </trkpt>
      <trkpt lat="43.62881" lon="2.30954">
        <ele>263.453546</ele>
        <time>2021-10-03T07:59:37.000Z</time>
      </trkpt>
      <trkpt lat="43.6288" lon="2.30959">
        <ele>263.872774</ele>
        <time>2021-10-03T07:59:38.000Z</time>
      </trkpt>
      <trkpt lat="43.62879" lon="2.30963">
        <ele>264.27971</ele>
        <time>2021-10-03T07:59:39.000Z</time>
      </trkpt>
      <trkpt lat="43.62878" lon="2.30967">
        <ele>264.625664</ele>
        <time>2021-10-03T07:59:40.000Z</time>
      </trkpt>
      <trkpt lat="43.62877" lon="2.30971">
        <ele>265.016116</ele>
        <time>2021-10-03T07:59:41.000Z</time>
      </trkpt>
      <trkpt lat="43.62876" lon="2.30975">
        <ele>265.336972</ele>
        <time>2021-10-03T07:59:42.000Z</time>
      </trkpt>
      <trkpt lat="43.62875" lon="2.30978">
        <ele>265.691403</ele>
        <time>2021-10-03T07:59:43.000Z</time>
      </trkpt>
      <trkpt lat="43.62874" lon="2.30981">
        <ele>265.939731</ele>
        <time>2021-10-03T07:59:44.000Z</time>
      </trkpt>
      <trkpt lat="43.62872" lon="2.30983">
        <ele>266.223598</ele>
        <time>2021-10-03T07:59:45.000Z</time>
      </trkpt>
      <trkpt lat="43.62872" lon="2.30986">
        <ele>266.519551</ele>
        <time>2021-10-03T07:59:46.000Z</time>
      </trkpt>
      <trkpt lat="43.6287" lon="2.3099">
        <ele>266.88077</ele>
        <time>2021-10-03T07:59:47.000Z</time>
      </trkpt>
      <trkpt lat="43.62869" lon="2.30992">
        <ele>267.200378</ele>
        <time>2021-10-03T07:59:48.000Z</time>
      </trkpt>
      <trkpt lat="43.62867" lon="2.30994">
        <ele>267.570969</ele>
        <time>2021-10-03T07:59:49.000Z</time>
      </trkpt>
      <trkpt lat="43.62866" lon="2.30997">
        <ele>268.083329</ele>
        <time>2021-10-03T07:59:50.000Z</time>
      </trkpt>
      <trkpt lat="43.62865" lon="2.31">
        <ele>268.427391</ele>
        <time>2021-10-03T07:59:51.000Z</time>
      </trkpt>
      <trkpt lat="43.62863" lon="2.31001">
        <ele>268.786216</ele>
        <time>2021-10-03T07:59:52.000Z</time>
      </trkpt>
      <trkpt lat="43.62862" lon="2.31004">
        <ele>269.172909</ele>
        <time>2021-10-03T07:59:53.000Z</time>
      </trkpt>
      <trkpt lat="43.6286" lon="2.31007">
        <ele>269.735225</ele>
        <time>2021-10-03T07:59:54.000Z</time>
      </trkpt>
      <trkpt lat="43.62859" lon="2.31008">
        <ele>269.976164</ele>
        <time>2021-10-03T07:59:55.000Z</time>
      </trkpt>
      <trkpt lat="43.62857" lon="2.31011">
        <ele>270.467737</ele>
        <time>2021-10-03T07:59:56.000Z</time>
      </trkpt>
      <trkpt lat="43.62855" lon="2.31012">
        <ele>270.811479</ele>
        <time>2021-10-03T07:59:57.000Z</time>
      </trkpt>
      <trkpt lat="43.62853" lon="2.31014">
        <ele>271.214178</ele>
        <time>2021-10-03T07:59:58.000Z</time>
      </trkpt>
      <trkpt lat="43.62852" lon="2.31016">
        <ele>271.59776</ele>
        <time>2021-10-03T07:59:59.000Z</time>
      </trkpt>
      <trkpt lat="43.6285" lon="2.31018">
        <ele>271.968351</ele>
        <time>2021-10-03T08:00:00.000Z</time>
      </trkpt>
      <trkpt lat="43.62847" lon="2.31022">
        <ele>272.658158</ele>
        <time>2021-10-03T08:00:01.000Z</time>
      </trkpt>
      <trkpt lat="43.62845" lon="2.31023">
        <ele>273.082492</ele>
        <time>2021-10-03T08:00:02.000Z</time>
      </trkpt>
      <trkpt lat="43.62843" lon="2.31025">
        <ele>273.518627</ele>
        <time>2021-10-03T08:00:03.000Z</time>
      </trkpt>
      <trkpt lat="43.62841" lon="2.31027">
        <ele>274.001753</ele>
        <time>2021-10-03T08:00:04.000Z</time>
      </trkpt>
      <trkpt lat="43.62838" lon="2.3103">
        <ele>274.645368</ele>
        <time>2021-10-03T08:00:05.000Z</time>
      </trkpt>
      <trkpt lat="43.62835" lon="2.31031">
        <ele>275.108495</ele>
        <time>2021-10-03T08:00:06.000Z</time>
      </trkpt>
      <trkpt lat="43.62833" lon="2.31032">
        <ele>275.512916</ele>
        <time>2021-10-03T08:00:07.000Z</time>
      </trkpt>
      <trkpt lat="43.62831" lon="2.31032">
        <ele>275.868693</ele>
        <time>2021-10-03T08:00:08.000Z</time>
      </trkpt>
      <trkpt lat="43.62829" lon="2.31032">
        <ele>276.260638</ele>
        <time>2021-10-03T08:00:09.000Z</time>
      </trkpt>
      <trkpt lat="43.62827" lon="2.31031">
        <ele>276.584285</ele>
        <time>2021-10-03T08:00:10.000Z</time>
      </trkpt>
      <trkpt lat="43.62826" lon="2.3103">
        <ele>276.861895</ele>
        <time>2021-10-03T08:00:11.000Z</time>
      </trkpt>
      <trkpt lat="43.62825" lon="2.3103">
        <ele>277.078687</ele>
        <time>2021-10-03T08:00:12.000Z</time>
      </trkpt>
      <trkpt lat="43.62823" lon="2.31031">
        <ele>277.445902</ele>
        <time>2021-10-03T08:00:13.000Z</time>
      </trkpt>
      <trkpt lat="43.62821" lon="2.31031">
        <ele>277.7315</ele>
        <time>2021-10-03T08:00:14.000Z</time>
      </trkpt>
      <trkpt lat="43.62819" lon="2.31032">
        <ele>278.075341</ele>
        <time>2021-10-03T08:00:15.000Z</time>
      </trkpt>
      <trkpt lat="43.62818" lon="2.31032">
        <ele>278.413353</ele>
        <time>2021-10-03T08:00:16.000Z</time>
      </trkpt>
      <trkpt lat="43.62816" lon="2.31032">
        <ele>278.698951</ele>
        <time>2021-10-03T08:00:17.000Z</time>
      </trkpt>
      <trkpt lat="43.62814" lon="2.31031">
        <ele>278.973262</ele>
        <time>2021-10-03T08:00:18.000Z</time>
      </trkpt>
      <trkpt lat="43.62813" lon="2.31031">
        <ele>279.293511</ele>
        <time>2021-10-03T08:00:19.000Z</time>
      </trkpt>
      <trkpt lat="43.62811" lon="2.31031">
        <ele>279.649288</ele>
        <time>2021-10-03T08:00:20.000Z</time>
      </trkpt>
      <trkpt lat="43.62809" lon="2.31032">
        <ele>279.94001</ele>
        <time>2021-10-03T08:00:21.000Z</time>
      </trkpt>
      <trkpt lat="43.62807" lon="2.31031">
        <ele>280.297079</ele>
        <time>2021-10-03T08:00:22.000Z</time>
      </trkpt>
      <trkpt lat="43.62805" lon="2.31031">
        <ele>280.634847</ele>
        <time>2021-10-03T08:00:23.000Z</time>
      </trkpt>
      <trkpt lat="43.62804" lon="2.31031">
        <ele>280.923902</ele>
        <time>2021-10-03T08:00:24.000Z</time>
      </trkpt>
      <trkpt lat="43.62802" lon="2.31031">
        <ele>281.193341</ele>
        <time>2021-10-03T08:00:25.000Z</time>
      </trkpt>
      <trkpt lat="43.628" lon="2.31032">
        <ele>281.538235</ele>
        <time>2021-10-03T08:00:26.000Z</time>
      </trkpt>
      <trkpt lat="43.62798" lon="2.31033">
        <ele>281.950338</ele>
        <time>2021-10-03T08:00:27.000Z</time>
      </trkpt>
      <trkpt lat="43.62796" lon="2.31032">
        <ele>282.324269</ele>
        <time>2021-10-03T08:00:28.000Z</time>
      </trkpt>
      <trkpt lat="43.62795" lon="2.3103">
        <ele>282.632409</ele>
        <time>2021-10-03T08:00:29.000Z</time>
      </trkpt>
      <trkpt lat="43.62793" lon="2.3103">
        <ele>282.985515</ele>
        <time>2021-10-03T08:00:30.000Z</time>
      </trkpt>
      <trkpt lat="43.62791" lon="2.3103">
        <ele>283.335087</ele>
        <time>2021-10-03T08:00:31.000Z</time>
      </trkpt>
      <trkpt lat="43.62789" lon="2.31031">
        <ele>283.633445</ele>
        <time>2021-10-03T08:00:32.000Z</time>
      </trkpt>
      <trkpt lat="43.62788" lon="2.31031">
        <ele>283.900414</ele>
        <time>2021-10-03T08:00:33.000Z</time>
      </trkpt>
      <trkpt lat="43.62786" lon="2.31031">
        <ele>284.24038</ele>
        <time>2021-10-03T08:00:34.000Z</time>
      </trkpt>
      <trkpt lat="43.62784" lon="2.31031">
        <ele>284.507039</ele>
        <time>2021-10-03T08:00:35.000Z</time>
      </trkpt>
      <trkpt lat="43.62783" lon="2.31031">
        <ele>284.72383</ele>
        <time>2021-10-03T08:00:36.000Z</time>
      </trkpt>
      <trkpt lat="43.62781" lon="2.31031">
        <ele>285.115141</ele>
        <time>2021-10-03T08:00:37.000Z</time>
      </trkpt>
      <trkpt lat="43.62779" lon="2.31031">
        <ele>285.452909</ele>
        <time>2021-10-03T08:00:38.000Z</time>
      </trkpt>
      <trkpt lat="43.62777" lon="2.31031">
        <ele>285.790921</ele>
        <time>2021-10-03T08:00:39.000Z</time>
      </trkpt>
      <trkpt lat="43.62776" lon="2.31031">
        <ele>286.075357</ele>
        <time>2021-10-03T08:00:40.000Z</time>
      </trkpt>
      <trkpt lat="43.62774" lon="2.31031">
        <ele>286.415324</ele>
        <time>2021-10-03T08:00:41.000Z</time>
      </trkpt>
      <trkpt lat="43.62771" lon="2.31031">
        <ele>286.807269</ele>
        <time>2021-10-03T08:00:42.000Z</time>
      </trkpt>
      <trkpt lat="43.62769" lon="2.3103">
        <ele>287.301028</ele>
        <time>2021-10-03T08:00:43.000Z</time>
      </trkpt>
      <trkpt lat="43.62767" lon="2.31029">
        <ele>287.672418</ele>
        <time>2021-10-03T08:00:44.000Z</time>
      </trkpt>
      <trkpt lat="43.62765" lon="2.31028">
        <ele>288.086326</ele>
        <time>2021-10-03T08:00:45.000Z</time>
      </trkpt>
      <trkpt lat="43.62763" lon="2.31028">
        <ele>288.371053</ele>
        <time>2021-10-03T08:00:46.000Z</time>
      </trkpt>
      <trkpt lat="43.62761" lon="2.31029">
        <ele>288.638951</ele>
        <time>2021-10-03T08:00:47.000Z</time>
      </trkpt>
      <trkpt lat="43.62759" lon="2.31028">
        <ele>289.031951</ele>
        <time>2021-10-03T08:00:48.000Z</time>
      </trkpt>
      <trkpt lat="43.62757" lon="2.31028">
        <ele>289.518106</ele>
        <time>2021-10-03T08:00:49.000Z</time>
      </trkpt>
      <trkpt lat="43.62755" lon="2.31026">
        <ele>289.889496</ele>
        <time>2021-10-03T08:00:50.000Z</time>
      </trkpt>
      <trkpt lat="43.62753" lon="2.31026">
        <ele>290.191988</ele>
        <time>2021-10-03T08:00:51.000Z</time>
      </trkpt>
      <trkpt lat="43.62752" lon="2.31025">
        <ele>290.469599</ele>
        <time>2021-10-03T08:00:52.000Z</time>
      </trkpt>
      <trkpt lat="43.6275" lon="2.31024">
        <ele>290.835826</ele>
        <time>2021-10-03T08:00:53.000Z</time>
      </trkpt>
      <trkpt lat="43.62748" lon="2.31022">
        <ele>291.245381</ele>
        <time>2021-10-03T08:00:54.000Z</time>
      </trkpt>
      <trkpt lat="43.62746" lon="2.31021">
        <ele>291.63441</ele>
        <time>2021-10-03T08:00:55.000Z</time>
      </trkpt>
      <trkpt lat="43.62744" lon="2.31019">
        <ele>291.971097</ele>
        <time>2021-10-03T08:00:56.000Z</time>
      </trkpt>
      <trkpt lat="43.62742" lon="2.31019">
        <ele>292.291346</ele>
        <time>2021-10-03T08:00:57.000Z</time>
      </trkpt>
      <trkpt lat="43.62741" lon="2.31019">
        <ele>292.629113</ele>
        <time>2021-10-03T08:00:58.000Z</time>
      </trkpt>
      <trkpt lat="43.62739" lon="2.3102">
        <ele>292.916157</ele>
        <time>2021-10-03T08:00:59.000Z</time>
      </trkpt>
      <trkpt lat="43.62737" lon="2.3102">
        <ele>293.222722</ele>
        <time>2021-10-03T08:01:00.000Z</time>
      </trkpt>
      <trkpt lat="43.62736" lon="2.31021">
        <ele>293.531708</ele>
        <time>2021-10-03T08:01:01.000Z</time>
      </trkpt>
      <trkpt lat="43.62735" lon="2.31022">
        <ele>293.792628</ele>
        <time>2021-10-03T08:01:02.000Z</time>
      </trkpt>
      <trkpt lat="43.62734" lon="2.31024">
        <ele>294.086668</ele>
        <time>2021-10-03T08:01:03.000Z</time>
      </trkpt>
      <trkpt lat="43.62734" lon="2.31026">
        <ele>294.280345</ele>
        <time>2021-10-03T08:01:04.000Z</time>
      </trkpt>
      <trkpt lat="43.62732" lon="2.31027">
        <ele>294.564298</ele>
        <time>2021-10-03T08:01:05.000Z</time>
      </trkpt>
      <trkpt lat="43.62732" lon="2.31029">
        <ele>294.856187</ele>
        <time>2021-10-03T08:01:06.000Z</time>
      </trkpt>
      <trkpt lat="43.62732" lon="2.31032">
        <ele>295.135613</ele>
        <time>2021-10-03T08:01:07.000Z</time>
      </trkpt>
      <trkpt lat="43.62731" lon="2.31033">
        <ele>295.365635</ele>
        <time>2021-10-03T08:01:08.000Z</time>
      </trkpt>
      <trkpt lat="43.62731" lon="2.31034">
        <ele>295.554105</ele>
        <time>2021-10-03T08:01:09.000Z</time>
      </trkpt>
      <trkpt lat="43.6273" lon="2.31035">
        <ele>295.620856</ele>
        <time>2021-10-03T08:01:10.000Z</time>
      </trkpt>
      <trkpt lat="43.6273" lon="2.31035">
        <ele>295.620856</ele>
        <time>2021-10-03T08:01:11.000Z</time>
      </trkpt>
      <trkpt lat="43.6273" lon="2.31035">
        <ele>295.620856</ele>
        <time>2021-10-03T08:01:13.000Z</time>
      </trkpt>
      <trkpt lat="43.6273" lon="2.31035">
        <ele>295.620856</ele>
        <time>2021-10-03T08:01:15.000Z</time>
      </trkpt>
      <trkpt lat="43.6273" lon="2.31035">
        <ele>295.620856</ele>
        <time>2021-10-03T08:01:17.000Z</time>
      </trkpt>
      <trkpt lat="43.62729" lon="2.31038">
        <ele>296.102</ele>
        <time>2021-10-03T08:01:18.000Z</time>
      </trkpt>
      <trkpt lat="43.62729" lon="2.3104">
        <ele>296.326255</ele>
        <time>2021-10-03T08:01:19.000Z</time>
      </trkpt>
      <trkpt lat="43.62728" lon="2.31041">
        <ele>296.531956</ele>
        <time>2021-10-03T08:01:20.000Z</time>
      </trkpt>
      <trkpt lat="43.62727" lon="2.31043">
        <ele>296.866239</ele>
        <time>2021-10-03T08:01:21.000Z</time>
      </trkpt>
      <trkpt lat="43.62726" lon="2.31046">
        <ele>297.183049</ele>
        <time>2021-10-03T08:01:22.000Z</time>
      </trkpt>
      <trkpt lat="43.62726" lon="2.31048">
        <ele>297.499859</ele>
        <time>2021-10-03T08:01:23.000Z</time>
      </trkpt>
      <trkpt lat="43.62725" lon="2.3105">
        <ele>297.805226</ele>
        <time>2021-10-03T08:01:24.000Z</time>
      </trkpt>
      <trkpt lat="43.62724" lon="2.31053">
        <ele>298.174273</ele>
        <time>2021-10-03T08:01:25.000Z</time>
      </trkpt>
      <trkpt lat="43.62723" lon="2.31056">
        <ele>298.597773</ele>
        <time>2021-10-03T08:01:26.000Z</time>
      </trkpt>
      <trkpt lat="43.62722" lon="2.31059">
        <ele>298.972091</ele>
        <time>2021-10-03T08:01:27.000Z</time>
      </trkpt>
      <trkpt lat="43.62721" lon="2.31061">
        <ele>299.161961</ele>
        <time>2021-10-03T08:01:28.000Z</time>
      </trkpt>
      <trkpt lat="43.62721" lon="2.31064">
        <ele>299.379836</ele>
        <time>2021-10-03T08:01:29.000Z</time>
      </trkpt>
      <trkpt lat="43.6272" lon="2.31066">
        <ele>299.608288</ele>
        <time>2021-10-03T08:01:30.000Z</time>
      </trkpt>
      <trkpt lat="43.62719" lon="2.3107">
        <ele>299.881486</ele>
        <time>2021-10-03T08:01:31.000Z</time>
      </trkpt>
      <trkpt lat="43.62717" lon="2.31073">
        <ele>300.162676</ele>
        <time>2021-10-03T08:01:32.000Z</time>
      </trkpt>
      <trkpt lat="43.62716" lon="2.31075">
        <ele>300.402015</ele>
        <time>2021-10-03T08:01:33.000Z</time>
      </trkpt>
      <trkpt lat="43.62715" lon="2.31079">
        <ele>300.68682</ele>
        <time>2021-10-03T08:01:34.000Z</time>
      </trkpt>
      <trkpt lat="43.62714" lon="2.31082">
        <ele>300.94617</ele>
        <time>2021-10-03T08:01:35.000Z</time>
      </trkpt>
      <trkpt lat="43.62713" lon="2.31085">
        <ele>301.210505</ele>
        <time>2021-10-03T08:01:36.000Z</time>
      </trkpt>
      <trkpt lat="43.62712" lon="2.31088">
        <ele>301.486219</ele>
        <time>2021-10-03T08:01:37.000Z</time>
      </trkpt>
      <trkpt lat="43.62711" lon="2.31092">
        <ele>301.787573</ele>
        <time>2021-10-03T08:01:38.000Z</time>
      </trkpt>
      <trkpt lat="43.62709" lon="2.31095">
        <ele>302.112428</ele>
        <time>2021-10-03T08:01:39.000Z</time>
      </trkpt>
      <trkpt lat="43.62708" lon="2.31099">
        <ele>302.425178</ele>
        <time>2021-10-03T08:01:40.000Z</time>
      </trkpt>
      <trkpt lat="43.62706" lon="2.31102">
        <ele>302.712747</ele>
        <time>2021-10-03T08:01:41.000Z</time>
      </trkpt>
      <trkpt lat="43.62705" lon="2.31105">
        <ele>303.019819</ele>
        <time>2021-10-03T08:01:42.000Z</time>
      </trkpt>
      <trkpt lat="43.62703" lon="2.31108">
        <ele>303.304624</ele>
        <time>2021-10-03T08:01:43.000Z</time>
      </trkpt>
      <trkpt lat="43.62702" lon="2.31112">
        <ele>303.59889</ele>
        <time>2021-10-03T08:01:44.000Z</time>
      </trkpt>
      <trkpt lat="43.62702" lon="2.31115">
        <ele>303.859978</ele>
        <time>2021-10-03T08:01:45.000Z</time>
      </trkpt>
      <trkpt lat="43.62701" lon="2.31119">
        <ele>304.1504</ele>
        <time>2021-10-03T08:01:46.000Z</time>
      </trkpt>
      <trkpt lat="43.627" lon="2.31122">
        <ele>304.426114</ele>
        <time>2021-10-03T08:01:47.000Z</time>
      </trkpt>
      <trkpt lat="43.627" lon="2.31125">
        <ele>304.668955</ele>
        <time>2021-10-03T08:01:48.000Z</time>
      </trkpt>
      <trkpt lat="43.62699" lon="2.31127">
        <ele>304.834031</ele>
        <time>2021-10-03T08:01:49.000Z</time>
      </trkpt>
      <trkpt lat="43.62698" lon="2.3113">
        <ele>305.037802</ele>
        <time>2021-10-03T08:01:50.000Z</time>
      </trkpt>
      <trkpt lat="43.62698" lon="2.31132">
        <ele>305.255678</ele>
        <time>2021-10-03T08:01:51.000Z</time>
      </trkpt>
      <trkpt lat="43.62697" lon="2.31134">
        <ele>305.408278</ele>
        <time>2021-10-03T08:01:52.000Z</time>
      </trkpt>
      <trkpt lat="43.62697" lon="2.31136">
        <ele>305.588511</ele>
        <time>2021-10-03T08:01:53.000Z</time>
      </trkpt>
      <trkpt lat="43.62696" lon="2.31139">
        <ele>305.813505</ele>
        <time>2021-10-03T08:01:54.000Z</time>
      </trkpt>
      <trkpt lat="43.62695" lon="2.31141">
        <ele>305.991805</ele>
        <time>2021-10-03T08:01:55.000Z</time>
      </trkpt>
      <trkpt lat="43.62695" lon="2.31144">
        <ele>306.174229</ele>
        <time>2021-10-03T08:01:56.000Z</time>
      </trkpt>
      <trkpt lat="43.62694" lon="2.31146">
        <ele>306.419919</ele>
        <time>2021-10-03T08:01:57.000Z</time>
      </trkpt>
      <trkpt lat="43.62693" lon="2.31149">
        <ele>306.644913</ele>
        <time>2021-10-03T08:01:58.000Z</time>
      </trkpt>
      <trkpt lat="43.62692" lon="2.31152">
        <ele>306.89586</ele>
        <time>2021-10-03T08:01:59.000Z</time>
      </trkpt>
      <trkpt lat="43.62691" lon="2.31155">
        <ele>307.168469</ele>
        <time>2021-10-03T08:02:00.000Z</time>
      </trkpt>
      <trkpt lat="43.62691" lon="2.31158">
        <ele>307.403722</ele>
        <time>2021-10-03T08:02:01.000Z</time>
      </trkpt>
      <trkpt lat="43.6269" lon="2.31162">
        <ele>307.705077</ele>
        <time>2021-10-03T08:02:02.000Z</time>
      </trkpt>
      <trkpt lat="43.62689" lon="2.31165">
        <ele>307.988136</ele>
        <time>2021-10-03T08:02:03.000Z</time>
      </trkpt>
      <trkpt lat="43.62688" lon="2.31169">
        <ele>308.271194</ele>
        <time>2021-10-03T08:02:04.000Z</time>
      </trkpt>
      <trkpt lat="43.62687" lon="2.31172">
        <ele>308.532284</ele>
        <time>2021-10-03T08:02:05.000Z</time>
      </trkpt>
      <trkpt lat="43.62687" lon="2.31175">
        <ele>308.752386</ele>
        <time>2021-10-03T08:02:06.000Z</time>
      </trkpt>
      <trkpt lat="43.62687" lon="2.31178">
        <ele>308.96305</ele>
        <time>2021-10-03T08:02:07.000Z</time>
      </trkpt>
      <trkpt lat="43.62686" lon="2.3118">
        <ele>309.195199</ele>
        <time>2021-10-03T08:02:08.000Z</time>
      </trkpt>
      <trkpt lat="43.62685" lon="2.31184">
        <ele>309.475234</ele>
        <time>2021-10-03T08:02:09.000Z</time>
      </trkpt>
      <trkpt lat="43.62684" lon="2.31186">
        <ele>309.700187</ele>
        <time>2021-10-03T08:02:10.000Z</time>
      </trkpt>
      <trkpt lat="43.62683" lon="2.31188">
        <ele>309.876037</ele>
        <time>2021-10-03T08:02:11.000Z</time>
      </trkpt>
      <trkpt lat="43.62682" lon="2.3119">
        <ele>310.065969</ele>
        <time>2021-10-03T08:02:12.000Z</time>
      </trkpt>
      <trkpt lat="43.62681" lon="2.31192">
        <ele>310.259683</ele>
        <time>2021-10-03T08:02:13.000Z</time>
      </trkpt>
      <trkpt lat="43.6268" lon="2.31195">
        <ele>310.510631</ele>
        <time>2021-10-03T08:02:14.000Z</time>
      </trkpt>
      <trkpt lat="43.62679" lon="2.31199">
        <ele>310.830975</ele>
        <time>2021-10-03T08:02:15.000Z</time>
      </trkpt>
      <trkpt lat="43.62677" lon="2.31202">
        <ele>311.118545</ele>
        <time>2021-10-03T08:02:16.000Z</time>
      </trkpt>
      <trkpt lat="43.62676" lon="2.31204">
        <ele>311.36897</ele>
        <time>2021-10-03T08:02:17.000Z</time>
      </trkpt>
      <trkpt lat="43.62674" lon="2.31208">
        <ele>311.709562</ele>
        <time>2021-10-03T08:02:18.000Z</time>
      </trkpt>
      <trkpt lat="43.62673" lon="2.31212">
        <ele>312.055281</ele>
        <time>2021-10-03T08:02:19.000Z</time>
      </trkpt>
      <trkpt lat="43.62671" lon="2.31216">
        <ele>312.368965</ele>
        <time>2021-10-03T08:02:20.000Z</time>
      </trkpt>
      <trkpt lat="43.6267" lon="2.31219">
        <ele>312.626579</ele>
        <time>2021-10-03T08:02:21.000Z</time>
      </trkpt>
      <trkpt lat="43.62669" lon="2.31221">
        <ele>312.840513</ele>
        <time>2021-10-03T08:02:22.000Z</time>
      </trkpt>
      <trkpt lat="43.62667" lon="2.31223">
        <ele>313.109661</ele>
        <time>2021-10-03T08:02:23.000Z</time>
      </trkpt>
      <trkpt lat="43.62665" lon="2.31227">
        <ele>313.428849</ele>
        <time>2021-10-03T08:02:24.000Z</time>
      </trkpt>
      <trkpt lat="43.62664" lon="2.3123">
        <ele>313.710058</ele>
        <time>2021-10-03T08:02:25.000Z</time>
      </trkpt>
      <trkpt lat="43.62663" lon="2.31232">
        <ele>313.935685</ele>
        <time>2021-10-03T08:02:26.000Z</time>
      </trkpt>
      <trkpt lat="43.62662" lon="2.31235">
        <ele>314.188181</ele>
        <time>2021-10-03T08:02:27.000Z</time>
      </trkpt>
      <trkpt lat="43.6266" lon="2.31238">
        <ele>314.488696</ele>
        <time>2021-10-03T08:02:28.000Z</time>
      </trkpt>
      <trkpt lat="43.62658" lon="2.31242">
        <ele>314.795011</ele>
        <time>2021-10-03T08:02:29.000Z</time>
      </trkpt>
      <trkpt lat="43.62657" lon="2.31245">
        <ele>315.100668</ele>
        <time>2021-10-03T08:02:30.000Z</time>
      </trkpt>
      <trkpt lat="43.62655" lon="2.31249">
        <ele>315.463903</ele>
        <time>2021-10-03T08:02:31.000Z</time>
      </trkpt>
      <trkpt lat="43.62653" lon="2.31253">
        <ele>315.861593</ele>
        <time>2021-10-03T08:02:32.000Z</time>
      </trkpt>
      <trkpt lat="43.6265" lon="2.31256">
        <ele>316.27389</ele>
        <time>2021-10-03T08:02:33.000Z</time>
      </trkpt>
      <trkpt lat="43.62647" lon="2.31259">
        <ele>316.620189</ele>
        <time>2021-10-03T08:02:34.000Z</time>
      </trkpt>
      <trkpt lat="43.62645" lon="2.31261">
        <ele>316.916174</ele>
        <time>2021-10-03T08:02:35.000Z</time>
      </trkpt>
      <trkpt lat="43.62642" lon="2.31265">
        <ele>317.397007</ele>
        <time>2021-10-03T08:02:36.000Z</time>
      </trkpt>
      <trkpt lat="43.62639" lon="2.31269">
        <ele>317.786243</ele>
        <time>2021-10-03T08:02:37.000Z</time>
      </trkpt>
      <trkpt lat="43.62636" lon="2.31272">
        <ele>318.104788</ele>
        <time>2021-10-03T08:02:38.000Z</time>
      </trkpt>
      <trkpt lat="43.62632" lon="2.31276">
        <ele>318.267701</ele>
        <time>2021-10-03T08:02:39.000Z</time>
      </trkpt>
      <trkpt lat="43.62628" lon="2.31279">
        <ele>318.444977</ele>
        <time>2021-10-03T08:02:40.000Z</time>
      </trkpt>
      <trkpt lat="43.62625" lon="2.31283">
        <ele>318.603994</ele>
        <time>2021-10-03T08:02:41.000Z</time>
      </trkpt>
      <trkpt lat="43.62622" lon="2.31286">
        <ele>318.754612</ele>
        <time>2021-10-03T08:02:42.000Z</time>
      </trkpt>
      <trkpt lat="43.62619" lon="2.31289">
        <ele>318.92591</ele>
        <time>2021-10-03T08:02:43.000Z</time>
      </trkpt>
      <trkpt lat="43.62615" lon="2.31293">
        <ele>319.107997</ele>
        <time>2021-10-03T08:02:44.000Z</time>
      </trkpt>
      <trkpt lat="43.62611" lon="2.31297">
        <ele>319.277751</ele>
        <time>2021-10-03T08:02:45.000Z</time>
      </trkpt>
      <trkpt lat="43.62607" lon="2.313">
        <ele>319.452402</ele>
        <time>2021-10-03T08:02:46.000Z</time>
      </trkpt>
      <trkpt lat="43.62604" lon="2.31304">
        <ele>319.61327</ele>
        <time>2021-10-03T08:02:47.000Z</time>
      </trkpt>
      <trkpt lat="43.62601" lon="2.31308">
        <ele>319.800425</ele>
        <time>2021-10-03T08:02:48.000Z</time>
      </trkpt>
      <trkpt lat="43.62597" lon="2.31312">
        <ele>319.980879</ele>
        <time>2021-10-03T08:02:49.000Z</time>
      </trkpt>
      <trkpt lat="43.62593" lon="2.31315">
        <ele>320.156613</ele>
        <time>2021-10-03T08:02:50.000Z</time>
      </trkpt>
      <trkpt lat="43.62589" lon="2.31319">
        <ele>320.333889</ele>
        <time>2021-10-03T08:02:51.000Z</time>
      </trkpt>
      <trkpt lat="43.62585" lon="2.31322">
        <ele>320.51274</ele>
        <time>2021-10-03T08:02:52.000Z</time>
      </trkpt>
      <trkpt lat="43.62582" lon="2.31326">
        <ele>320.690016</ele>
        <time>2021-10-03T08:02:53.000Z</time>
      </trkpt>
      <trkpt lat="43.62577" lon="2.31329">
        <ele>320.87897</ele>
        <time>2021-10-03T08:02:54.000Z</time>
      </trkpt>
      <trkpt lat="43.62574" lon="2.31333">
        <ele>321.057821</ele>
        <time>2021-10-03T08:02:55.000Z</time>
      </trkpt>
      <trkpt lat="43.6257" lon="2.31336">
        <ele>321.23389</ele>
        <time>2021-10-03T08:02:56.000Z</time>
      </trkpt>
      <trkpt lat="43.62566" lon="2.31339">
        <ele>321.413979</ele>
        <time>2021-10-03T08:02:57.000Z</time>
      </trkpt>
      <trkpt lat="43.62561" lon="2.31341">
        <ele>321.604841</ele>
        <time>2021-10-03T08:02:58.000Z</time>
      </trkpt>
      <trkpt lat="43.62557" lon="2.31345">
        <ele>321.780574</ele>
        <time>2021-10-03T08:02:59.000Z</time>
      </trkpt>
      <trkpt lat="43.62554" lon="2.31348">
        <ele>321.948287</ele>
        <time>2021-10-03T08:03:00.000Z</time>
      </trkpt>
      <trkpt lat="43.6255" lon="2.31352">
        <ele>322.111208</ele>
        <time>2021-10-03T08:03:01.000Z</time>
      </trkpt>
      <trkpt lat="43.62546" lon="2.31355">
        <ele>322.281094</ele>
        <time>2021-10-03T08:03:02.000Z</time>
      </trkpt>
      <trkpt lat="43.62543" lon="2.31357">
        <ele>322.448263</ele>
        <time>2021-10-03T08:03:03.000Z</time>
      </trkpt>
      <trkpt lat="43.62539" lon="2.3136">
        <ele>322.614129</ele>
        <time>2021-10-03T08:03:04.000Z</time>
      </trkpt>
      <trkpt lat="43.62535" lon="2.31362">
        <ele>322.77985</ele>
        <time>2021-10-03T08:03:05.000Z</time>
      </trkpt>
      <trkpt lat="43.62531" lon="2.31366">
        <ele>322.960305</ele>
        <time>2021-10-03T08:03:06.000Z</time>
      </trkpt>
      <trkpt lat="43.62527" lon="2.31369">
        <ele>323.126171</ele>
        <time>2021-10-03T08:03:07.000Z</time>
      </trkpt>
      <trkpt lat="43.62523" lon="2.31372">
        <ele>323.316605</ele>
        <time>2021-10-03T08:03:08.000Z</time>
      </trkpt>
      <trkpt lat="43.62518" lon="2.31374">
        <ele>323.523521</ele>
        <time>2021-10-03T08:03:09.000Z</time>
      </trkpt>
      <trkpt lat="43.62513" lon="2.31378">
        <ele>323.726024</ele>
        <time>2021-10-03T08:03:10.000Z</time>
      </trkpt>
      <trkpt lat="43.62508" lon="2.31381">
        <ele>323.94488</ele>
        <time>2021-10-03T08:03:11.000Z</time>
      </trkpt>
      <trkpt lat="43.62504" lon="2.31384">
        <ele>324.131122</ele>
        <time>2021-10-03T08:03:12.000Z</time>
      </trkpt>
      <trkpt lat="43.625" lon="2.31386">
        <ele>324.305524</ele>
        <time>2021-10-03T08:03:13.000Z</time>
      </trkpt>
      <trkpt lat="43.62496" lon="2.31387">
        <ele>324.462388</ele>
        <time>2021-10-03T08:03:14.000Z</time>
      </trkpt>
      <trkpt lat="43.62491" lon="2.3139">
        <ele>324.643083</ele>
        <time>2021-10-03T08:03:15.000Z</time>
      </trkpt>
      <trkpt lat="43.62488" lon="2.31391">
        <ele>324.796302</ele>
        <time>2021-10-03T08:03:16.000Z</time>
      </trkpt>
      <trkpt lat="43.62484" lon="2.31395">
        <ele>324.981918</ele>
        <time>2021-10-03T08:03:17.000Z</time>
      </trkpt>
      <trkpt lat="43.6248" lon="2.31397">
        <ele>325.213386</ele>
        <time>2021-10-03T08:03:18.000Z</time>
      </trkpt>
      <trkpt lat="43.62476" lon="2.31399">
        <ele>325.487627</ele>
        <time>2021-10-03T08:03:19.000Z</time>
      </trkpt>
      <trkpt lat="43.62472" lon="2.31403">
        <ele>325.761508</ele>
        <time>2021-10-03T08:03:20.000Z</time>
      </trkpt>
      <trkpt lat="43.62468" lon="2.31405">
        <ele>326.02404</ele>
        <time>2021-10-03T08:03:21.000Z</time>
      </trkpt>
      <trkpt lat="43.62464" lon="2.31407">
        <ele>326.266082</ele>
        <time>2021-10-03T08:03:22.000Z</time>
      </trkpt>
      <trkpt lat="43.62461" lon="2.3141">
        <ele>326.500099</ele>
        <time>2021-10-03T08:03:23.000Z</time>
      </trkpt>
      <trkpt lat="43.62456" lon="2.31412">
        <ele>326.77434</ele>
        <time>2021-10-03T08:03:24.000Z</time>
      </trkpt>
      <trkpt lat="43.62453" lon="2.31414">
        <ele>327.028692</ele>
        <time>2021-10-03T08:03:25.000Z</time>
      </trkpt>
      <trkpt lat="43.62449" lon="2.31416">
        <ele>327.274219</ele>
        <time>2021-10-03T08:03:26.000Z</time>
      </trkpt>
      <trkpt lat="43.62445" lon="2.31419">
        <ele>327.49909</ele>
        <time>2021-10-03T08:03:27.000Z</time>
      </trkpt>
      <trkpt lat="43.62442" lon="2.31422">
        <ele>327.747789</ele>
        <time>2021-10-03T08:03:28.000Z</time>
      </trkpt>
      <trkpt lat="43.62438" lon="2.31424">
        <ele>327.978323</ele>
        <time>2021-10-03T08:03:29.000Z</time>
      </trkpt>
      <trkpt lat="43.62436" lon="2.31428">
        <ele>328.214187</ele>
        <time>2021-10-03T08:03:30.000Z</time>
      </trkpt>
      <trkpt lat="43.62433" lon="2.31431">
        <ele>328.451276</ele>
        <time>2021-10-03T08:03:31.000Z</time>
      </trkpt>
      <trkpt lat="43.6243" lon="2.31436">
        <ele>328.716522</ele>
        <time>2021-10-03T08:03:32.000Z</time>
      </trkpt>
      <trkpt lat="43.62427" lon="2.3144">
        <ele>328.965314</ele>
        <time>2021-10-03T08:03:33.000Z</time>
      </trkpt>
      <trkpt lat="43.62424" lon="2.31444">
        <ele>329.214043</ele>
        <time>2021-10-03T08:03:34.000Z</time>
      </trkpt>
      <trkpt lat="43.62422" lon="2.31448">
        <ele>329.451253</ele>
        <time>2021-10-03T08:03:35.000Z</time>
      </trkpt>
      <trkpt lat="43.6242" lon="2.31453">
        <ele>329.678333</ele>
        <time>2021-10-03T08:03:36.000Z</time>
      </trkpt>
      <trkpt lat="43.62417" lon="2.31457">
        <ele>329.8979</ele>
        <time>2021-10-03T08:03:37.000Z</time>
      </trkpt>
      <trkpt lat="43.62415" lon="2.31462">
        <ele>330.174058</ele>
        <time>2021-10-03T08:03:38.000Z</time>
      </trkpt>
      <trkpt lat="43.62412" lon="2.31467">
        <ele>330.436083</ele>
        <time>2021-10-03T08:03:39.000Z</time>
      </trkpt>
      <trkpt lat="43.6241" lon="2.31471">
        <ele>330.687474</ele>
        <time>2021-10-03T08:03:40.000Z</time>
      </trkpt>
      <trkpt lat="43.62408" lon="2.31476">
        <ele>330.938168</ele>
        <time>2021-10-03T08:03:41.000Z</time>
      </trkpt>
      <trkpt lat="43.62406" lon="2.31482">
        <ele>331.196666</ele>
        <time>2021-10-03T08:03:42.000Z</time>
      </trkpt>
      <trkpt lat="43.62404" lon="2.31486">
        <ele>331.448258</ele>
        <time>2021-10-03T08:03:43.000Z</time>
      </trkpt>
      <trkpt lat="43.62402" lon="2.31492">
        <ele>331.691198</ele>
        <time>2021-10-03T08:03:44.000Z</time>
      </trkpt>
      <trkpt lat="43.62401" lon="2.31496">
        <ele>331.923725</ele>
        <time>2021-10-03T08:03:45.000Z</time>
      </trkpt>
      <trkpt lat="43.62399" lon="2.31501">
        <ele>332.153959</ele>
        <time>2021-10-03T08:03:46.000Z</time>
      </trkpt>
      <trkpt lat="43.62399" lon="2.31506">
        <ele>332.376544</ele>
        <time>2021-10-03T08:03:47.000Z</time>
      </trkpt>
      <trkpt lat="43.62398" lon="2.31512">
        <ele>332.608897</ele>
        <time>2021-10-03T08:03:48.000Z</time>
      </trkpt>
      <trkpt lat="43.62398" lon="2.31517">
        <ele>332.853657</ele>
        <time>2021-10-03T08:03:49.000Z</time>
      </trkpt>
      <trkpt lat="43.62397" lon="2.31523">
        <ele>333.099605</ele>
        <time>2021-10-03T08:03:50.000Z</time>
      </trkpt>
      <trkpt lat="43.62397" lon="2.31528">
        <ele>333.335624</ele>
        <time>2021-10-03T08:03:51.000Z</time>
      </trkpt>
      <trkpt lat="43.62397" lon="2.31534">
        <ele>333.585922</ele>
        <time>2021-10-03T08:03:52.000Z</time>
      </trkpt>
      <trkpt lat="43.62397" lon="2.31539">
        <ele>333.787789</ele>
        <time>2021-10-03T08:03:53.000Z</time>
      </trkpt>
      <trkpt lat="43.62397" lon="2.31544">
        <ele>334.01143</ele>
        <time>2021-10-03T08:03:54.000Z</time>
      </trkpt>
      <trkpt lat="43.62397" lon="2.31548">
        <ele>334.196582</ele>
        <time>2021-10-03T08:03:55.000Z</time>
      </trkpt>
      <trkpt lat="43.62397" lon="2.31552">
        <ele>334.37141</ele>
        <time>2021-10-03T08:03:56.000Z</time>
      </trkpt>
      <trkpt lat="43.62397" lon="2.31557">
        <ele>334.585575</ele>
        <time>2021-10-03T08:03:57.000Z</time>
      </trkpt>
      <trkpt lat="43.62397" lon="2.31562">
        <ele>334.827175</ele>
        <time>2021-10-03T08:03:58.000Z</time>
      </trkpt>
      <trkpt lat="43.62397" lon="2.31567">
        <ele>335.032598</ele>
        <time>2021-10-03T08:03:59.000Z</time>
      </trkpt>
      <trkpt lat="43.62397" lon="2.31571">
        <ele>335.21271</ele>
        <time>2021-10-03T08:04:00.000Z</time>
      </trkpt>
      <trkpt lat="43.62397" lon="2.31576">
        <ele>335.440067</ele>
        <time>2021-10-03T08:04:01.000Z</time>
      </trkpt>
      <trkpt lat="43.62397" lon="2.31581">
        <ele>335.638227</ele>
        <time>2021-10-03T08:04:02.000Z</time>
      </trkpt>
      <trkpt lat="43.62396" lon="2.31585">
        <ele>335.822343</ele>
        <time>2021-10-03T08:04:03.000Z</time>
      </trkpt>
      <trkpt lat="43.62395" lon="2.31589">
        <ele>335.895579</ele>
        <time>2021-10-03T08:04:04.000Z</time>
      </trkpt>
      <trkpt lat="43.62393" lon="2.31593">
        <ele>335.927174</ele>
        <time>2021-10-03T08:04:05.000Z</time>
      </trkpt>
      <trkpt lat="43.62392" lon="2.31597">
        <ele>335.960039</ele>
        <time>2021-10-03T08:04:06.000Z</time>
      </trkpt>
      <trkpt lat="43.6239" lon="2.31601">
        <ele>335.99211</ele>
        <time>2021-10-03T08:04:07.000Z</time>
      </trkpt>
      <trkpt lat="43.62388" lon="2.31605">
        <ele>336.028266</ele>
        <time>2021-10-03T08:04:08.000Z</time>
      </trkpt>
      <trkpt lat="43.62386" lon="2.3161">
        <ele>336.070393</ele>
        <time>2021-10-03T08:04:09.000Z</time>
      </trkpt>
      <trkpt lat="43.62384" lon="2.31615">
        <ele>336.112253</ele>
        <time>2021-10-03T08:04:10.000Z</time>
      </trkpt>
      <trkpt lat="43.62382" lon="2.3162">
        <ele>336.152897</ele>
        <time>2021-10-03T08:04:11.000Z</time>
      </trkpt>
      <trkpt lat="43.6238" lon="2.31625">
        <ele>336.194873</ele>
        <time>2021-10-03T08:04:12.000Z</time>
      </trkpt>
      <trkpt lat="43.62378" lon="2.3163">
        <ele>336.236123</ele>
        <time>2021-10-03T08:04:13.000Z</time>
      </trkpt>
      <trkpt lat="43.62376" lon="2.31635">
        <ele>336.276545</ele>
        <time>2021-10-03T08:04:14.000Z</time>
      </trkpt>
      <trkpt lat="43.62374" lon="2.31641">
        <ele>336.320254</ele>
        <time>2021-10-03T08:04:15.000Z</time>
      </trkpt>
      <trkpt lat="43.62372" lon="2.31645">
        <ele>336.360497</ele>
        <time>2021-10-03T08:04:16.000Z</time>
      </trkpt>
      <trkpt lat="43.6237" lon="2.31651">
        <ele>336.405453</ele>
        <time>2021-10-03T08:04:17.000Z</time>
      </trkpt>
      <trkpt lat="43.62368" lon="2.31656">
        <ele>336.449486</ele>
        <time>2021-10-03T08:04:18.000Z</time>
      </trkpt>
      <trkpt lat="43.62366" lon="2.31662">
        <ele>336.493194</ele>
        <time>2021-10-03T08:04:19.000Z</time>
      </trkpt>
      <trkpt lat="43.62364" lon="2.31667">
        <ele>336.535506</ele>
        <time>2021-10-03T08:04:20.000Z</time>
      </trkpt>
      <trkpt lat="43.62361" lon="2.31673">
        <ele>336.580947</ele>
        <time>2021-10-03T08:04:21.000Z</time>
      </trkpt>
      <trkpt lat="43.6236" lon="2.31679">
        <ele>336.626692</ele>
        <time>2021-10-03T08:04:22.000Z</time>
      </trkpt>
      <trkpt lat="43.62358" lon="2.31685">
        <ele>336.672105</ele>
        <time>2021-10-03T08:04:23.000Z</time>
      </trkpt>
      <trkpt lat="43.62356" lon="2.31691">
        <ele>336.722254</ele>
        <time>2021-10-03T08:04:24.000Z</time>
      </trkpt>
      <trkpt lat="43.62355" lon="2.31698">
        <ele>336.771371</ele>
        <time>2021-10-03T08:04:25.000Z</time>
      </trkpt>
      <trkpt lat="43.62353" lon="2.31704">
        <ele>336.821828</ele>
        <time>2021-10-03T08:04:26.000Z</time>
      </trkpt>
      <trkpt lat="43.62351" lon="2.31711">
        <ele>336.872302</ele>
        <time>2021-10-03T08:04:27.000Z</time>
      </trkpt>
      <trkpt lat="43.62349" lon="2.31717">
        <ele>336.9185</ele>
        <time>2021-10-03T08:04:28.000Z</time>
      </trkpt>
      <trkpt lat="43.62348" lon="2.31722">
        <ele>336.961218</ele>
        <time>2021-10-03T08:04:29.000Z</time>
      </trkpt>
      <trkpt lat="43.62347" lon="2.31728">
        <ele>337.005062</ele>
        <time>2021-10-03T08:04:30.000Z</time>
      </trkpt>
      <trkpt lat="43.62346" lon="2.31734">
        <ele>337.044506</ele>
        <time>2021-10-03T08:04:31.000Z</time>
      </trkpt>
      <trkpt lat="43.62344" lon="2.31738">
        <ele>337.077476</ele>
        <time>2021-10-03T08:04:32.000Z</time>
      </trkpt>
      <trkpt lat="43.62343" lon="2.31747">
        <ele>337.147987</ele>
        <time>2021-10-03T08:04:51.000Z</time>
      </trkpt>
      <trkpt lat="43.62346" lon="2.31767">
        <ele>327.489084</ele>
        <time>2021-10-03T08:06:39.000Z</time>
      </trkpt>
      <trkpt lat="43.62347" lon="2.31768">
        <ele>327.411894</ele>
        <time>2021-10-03T08:06:40.000Z</time>
      </trkpt>
      <trkpt lat="43.62349" lon="2.31769">
        <ele>327.267888</ele>
        <time>2021-10-03T08:06:41.000Z</time>
      </trkpt>
      <trkpt lat="43.6235" lon="2.3177">
        <ele>327.120904</ele>
        <time>2021-10-03T08:06:42.000Z</time>
      </trkpt>
      <trkpt lat="43.62352" lon="2.31771">
        <ele>326.979673</ele>
        <time>2021-10-03T08:06:43.000Z</time>
      </trkpt>
      <trkpt lat="43.62353" lon="2.31772">
        <ele>326.812928</ele>
        <time>2021-10-03T08:06:44.000Z</time>
      </trkpt>
      <trkpt lat="43.62355" lon="2.31773">
        <ele>326.702472</ele>
        <time>2021-10-03T08:06:45.000Z</time>
      </trkpt>
      <trkpt lat="43.62356" lon="2.31773">
        <ele>326.570053</ele>
        <time>2021-10-03T08:06:46.000Z</time>
      </trkpt>
      <trkpt lat="43.62357" lon="2.31774">
        <ele>326.459597</ele>
        <time>2021-10-03T08:06:47.000Z</time>
      </trkpt>
      <trkpt lat="43.62358" lon="2.31774">
        <ele>326.389304</ele>
        <time>2021-10-03T08:06:48.000Z</time>
      </trkpt>
      <trkpt lat="43.62358" lon="2.31775">
        <ele>326.364751</ele>
        <time>2021-10-03T08:06:49.000Z</time>
      </trkpt>
      <trkpt lat="43.62359" lon="2.31775">
        <ele>326.330833</ele>
        <time>2021-10-03T08:06:50.000Z</time>
      </trkpt>
      <trkpt lat="43.62359" lon="2.31775">
        <ele>326.330833</ele>
        <time>2021-10-03T08:06:51.000Z</time>
      </trkpt>
      <trkpt lat="43.62359" lon="2.31775">
        <ele>326.330833</ele>
        <time>2021-10-03T08:06:52.000Z</time>
      </trkpt>
      <trkpt lat="43.62359" lon="2.31775">
        <ele>326.330833</ele>
        <time>2021-10-03T08:06:53.000Z</time>
      </trkpt>
      <trkpt lat="43.62359" lon="2.31775">
        <ele>326.330833</ele>
        <time>2021-10-03T08:06:55.000Z</time>
      </trkpt>
      <trkpt lat="43.62359" lon="2.31775">
        <ele>326.330833</ele>
        <time>2021-10-03T08:06:57.000Z</time>
      </trkpt>
      <trkpt lat="43.62359" lon="2.31775">
        <ele>326.330833</ele>
        <time>2021-10-03T08:07:05.000Z</time>
      </trkpt>
      <trkpt lat="43.62365" lon="2.31777">
        <ele>325.793004</ele>
        <time>2021-10-03T08:07:06.000Z</time>
      </trkpt>
      <trkpt lat="43.62367" lon="2.31777">
        <ele>325.580215</ele>
        <time>2021-10-03T08:07:07.000Z</time>
      </trkpt>
      <trkpt lat="43.62369" lon="2.31778">
        <ele>325.418052</ele>
        <time>2021-10-03T08:07:08.000Z</time>
      </trkpt>
      <trkpt lat="43.62372" lon="2.31777">
        <ele>325.195455</ele>
        <time>2021-10-03T08:07:09.000Z</time>
      </trkpt>
      <trkpt lat="43.62375" lon="2.31777">
        <ele>324.90656</ele>
        <time>2021-10-03T08:07:10.000Z</time>
      </trkpt>
      <trkpt lat="43.62379" lon="2.31778">
        <ele>324.582875</ele>
        <time>2021-10-03T08:07:11.000Z</time>
      </trkpt>
      <trkpt lat="43.62382" lon="2.31779">
        <ele>324.312934</ele>
        <time>2021-10-03T08:07:12.000Z</time>
      </trkpt>
      <trkpt lat="43.62385" lon="2.31779">
        <ele>324.073528</ele>
        <time>2021-10-03T08:07:13.000Z</time>
      </trkpt>
      <trkpt lat="43.62388" lon="2.3178">
        <ele>323.817294</ele>
        <time>2021-10-03T08:07:14.000Z</time>
      </trkpt>
      <trkpt lat="43.62391" lon="2.3178">
        <ele>323.56106</ele>
        <time>2021-10-03T08:07:15.000Z</time>
      </trkpt>
      <trkpt lat="43.62394" lon="2.31781">
        <ele>323.296405</ele>
        <time>2021-10-03T08:07:16.000Z</time>
      </trkpt>
      <trkpt lat="43.62397" lon="2.31781">
        <ele>323.042016</ele>
        <time>2021-10-03T08:07:17.000Z</time>
      </trkpt>
      <trkpt lat="43.62399" lon="2.3178">
        <ele>322.837029</ele>
        <time>2021-10-03T08:07:18.000Z</time>
      </trkpt>
      <trkpt lat="43.62402" lon="2.31779">
        <ele>322.570159</ele>
        <time>2021-10-03T08:07:19.000Z</time>
      </trkpt>
      <trkpt lat="43.62405" lon="2.31778">
        <ele>322.282174</ele>
        <time>2021-10-03T08:07:20.000Z</time>
      </trkpt>
      <trkpt lat="43.62408" lon="2.31777">
        <ele>321.996104</ele>
        <time>2021-10-03T08:07:21.000Z</time>
      </trkpt>
      <trkpt lat="43.62411" lon="2.31776">
        <ele>321.735474</ele>
        <time>2021-10-03T08:07:22.000Z</time>
      </trkpt>
      <trkpt lat="43.62414" lon="2.31775">
        <ele>321.415626</ele>
        <time>2021-10-03T08:07:23.000Z</time>
      </trkpt>
      <trkpt lat="43.62418" lon="2.31775">
        <ele>321.101675</ele>
        <time>2021-10-03T08:07:24.000Z</time>
      </trkpt>
      <trkpt lat="43.62421" lon="2.31775">
        <ele>320.790254</ele>
        <time>2021-10-03T08:07:25.000Z</time>
      </trkpt>
      <trkpt lat="43.62425" lon="2.31775">
        <ele>320.469057</ele>
        <time>2021-10-03T08:07:26.000Z</time>
      </trkpt>
      <trkpt lat="43.62428" lon="2.31775">
        <ele>320.166723</ele>
        <time>2021-10-03T08:07:27.000Z</time>
      </trkpt>
      <trkpt lat="43.62431" lon="2.31774">
        <ele>319.871752</ele>
        <time>2021-10-03T08:07:28.000Z</time>
      </trkpt>
      <trkpt lat="43.62435" lon="2.31774">
        <ele>319.532852</ele>
        <time>2021-10-03T08:07:29.000Z</time>
      </trkpt>
      <trkpt lat="43.62439" lon="2.31774">
        <ele>319.184731</ele>
        <time>2021-10-03T08:07:30.000Z</time>
      </trkpt>
      <trkpt lat="43.62442" lon="2.31774">
        <ele>318.891628</ele>
        <time>2021-10-03T08:07:31.000Z</time>
      </trkpt>
      <trkpt lat="43.62445" lon="2.31775">
        <ele>318.584748</ele>
        <time>2021-10-03T08:07:32.000Z</time>
      </trkpt>
      <trkpt lat="43.62448" lon="2.31776">
        <ele>318.293167</ele>
        <time>2021-10-03T08:07:33.000Z</time>
      </trkpt>
      <trkpt lat="43.62452" lon="2.31778">
        <ele>317.943655</ele>
        <time>2021-10-03T08:07:34.000Z</time>
      </trkpt>
      <trkpt lat="43.62455" lon="2.3178">
        <ele>317.599765</ele>
        <time>2021-10-03T08:07:35.000Z</time>
      </trkpt>
      <trkpt lat="43.62458" lon="2.31783">
        <ele>317.286507</ele>
        <time>2021-10-03T08:07:36.000Z</time>
      </trkpt>
      <trkpt lat="43.6246" lon="2.31786">
        <ele>317.034961</ele>
        <time>2021-10-03T08:07:37.000Z</time>
      </trkpt>
      <trkpt lat="43.62462" lon="2.31789">
        <ele>316.765642</ele>
        <time>2021-10-03T08:07:38.000Z</time>
      </trkpt>
      <trkpt lat="43.62464" lon="2.31792">
        <ele>316.482499</ele>
        <time>2021-10-03T08:07:39.000Z</time>
      </trkpt>
      <trkpt lat="43.62466" lon="2.31797">
        <ele>316.131348</ele>
        <time>2021-10-03T08:07:40.000Z</time>
      </trkpt>
      <trkpt lat="43.62468" lon="2.31801">
        <ele>315.781235</ele>
        <time>2021-10-03T08:07:41.000Z</time>
      </trkpt>
      <trkpt lat="43.62469" lon="2.31806">
        <ele>315.454655</ele>
        <time>2021-10-03T08:07:42.000Z</time>
      </trkpt>
      <trkpt lat="43.6247" lon="2.31809">
        <ele>315.207734</ele>
        <time>2021-10-03T08:07:43.000Z</time>
      </trkpt>
      <trkpt lat="43.62472" lon="2.31813">
        <ele>314.890264</ele>
        <time>2021-10-03T08:07:44.000Z</time>
      </trkpt>
      <trkpt lat="43.62474" lon="2.31818">
        <ele>314.551888</ele>
        <time>2021-10-03T08:07:45.000Z</time>
      </trkpt>
      <trkpt lat="43.62476" lon="2.31823">
        <ele>314.153489</ele>
        <time>2021-10-03T08:07:46.000Z</time>
      </trkpt>
      <trkpt lat="43.62479" lon="2.31827">
        <ele>313.766961</ele>
        <time>2021-10-03T08:07:47.000Z</time>
      </trkpt>
      <trkpt lat="43.62481" lon="2.3183">
        <ele>313.4925</ele>
        <time>2021-10-03T08:07:48.000Z</time>
      </trkpt>
      <trkpt lat="43.62482" lon="2.31833">
        <ele>313.245434</ele>
        <time>2021-10-03T08:07:49.000Z</time>
      </trkpt>
      <trkpt lat="43.62484" lon="2.31838">
        <ele>312.885399</ele>
        <time>2021-10-03T08:07:50.000Z</time>
      </trkpt>
      <trkpt lat="43.62486" lon="2.31842">
        <ele>312.579188</ele>
        <time>2021-10-03T08:07:51.000Z</time>
      </trkpt>
      <trkpt lat="43.62488" lon="2.31846">
        <ele>312.261258</ele>
        <time>2021-10-03T08:07:52.000Z</time>
      </trkpt>
      <trkpt lat="43.6249" lon="2.3185">
        <ele>311.94975</ele>
        <time>2021-10-03T08:07:53.000Z</time>
      </trkpt>
      <trkpt lat="43.62493" lon="2.31854">
        <ele>311.563223</ele>
        <time>2021-10-03T08:07:54.000Z</time>
      </trkpt>
      <trkpt lat="43.62496" lon="2.31858">
        <ele>311.147754</ele>
        <time>2021-10-03T08:07:55.000Z</time>
      </trkpt>
      <trkpt lat="43.62499" lon="2.31862">
        <ele>310.799414</ele>
        <time>2021-10-03T08:07:56.000Z</time>
      </trkpt>
      <trkpt lat="43.62501" lon="2.31865">
        <ele>310.494116</ele>
        <time>2021-10-03T08:07:57.000Z</time>
      </trkpt>
      <trkpt lat="43.62504" lon="2.31868">
        <ele>310.204384</ele>
        <time>2021-10-03T08:07:58.000Z</time>
      </trkpt>
      <trkpt lat="43.62506" lon="2.31871">
        <ele>309.867211</ele>
        <time>2021-10-03T08:07:59.000Z</time>
      </trkpt>
      <trkpt lat="43.62508" lon="2.31875">
        <ele>309.544884</ele>
        <time>2021-10-03T08:08:00.000Z</time>
      </trkpt>
      <trkpt lat="43.62511" lon="2.31879">
        <ele>309.252274</ele>
        <time>2021-10-03T08:08:01.000Z</time>
      </trkpt>
      <trkpt lat="43.62513" lon="2.31882">
        <ele>308.956624</ele>
        <time>2021-10-03T08:08:02.000Z</time>
      </trkpt>
      <trkpt lat="43.62516" lon="2.31885">
        <ele>308.628672</ele>
        <time>2021-10-03T08:08:03.000Z</time>
      </trkpt>
      <trkpt lat="43.62518" lon="2.31886">
        <ele>308.392802</ele>
        <time>2021-10-03T08:08:04.000Z</time>
      </trkpt>
      <trkpt lat="43.62521" lon="2.31886">
        <ele>308.142318</ele>
        <time>2021-10-03T08:08:05.000Z</time>
      </trkpt>
      <trkpt lat="43.62523" lon="2.31885">
        <ele>307.899692</ele>
        <time>2021-10-03T08:08:06.000Z</time>
      </trkpt>
      <trkpt lat="43.62525" lon="2.31885">
        <ele>307.689025</ele>
        <time>2021-10-03T08:08:07.000Z</time>
      </trkpt>
      <trkpt lat="43.62527" lon="2.31884">
        <ele>307.572134</ele>
        <time>2021-10-03T08:08:08.000Z</time>
      </trkpt>
      <trkpt lat="43.62528" lon="2.31883">
        <ele>307.419377</ele>
        <time>2021-10-03T08:08:09.000Z</time>
      </trkpt>
      <trkpt lat="43.6253" lon="2.31881">
        <ele>307.194796</ele>
        <time>2021-10-03T08:08:10.000Z</time>
      </trkpt>
      <trkpt lat="43.62531" lon="2.31879">
        <ele>307.027612</ele>
        <time>2021-10-03T08:08:11.000Z</time>
      </trkpt>
      <trkpt lat="43.62532" lon="2.31877">
        <ele>306.860428</ele>
        <time>2021-10-03T08:08:12.000Z</time>
      </trkpt>
      <trkpt lat="43.62534" lon="2.31875">
        <ele>306.660046</ele>
        <time>2021-10-03T08:08:13.000Z</time>
      </trkpt>
      <trkpt lat="43.62535" lon="2.31872">
        <ele>306.400708</ele>
        <time>2021-10-03T08:08:14.000Z</time>
      </trkpt>
      <trkpt lat="43.62537" lon="2.31868">
        <ele>306.165628</ele>
        <time>2021-10-03T08:08:15.000Z</time>
      </trkpt>
      <trkpt lat="43.62538" lon="2.31865">
        <ele>306.167934</ele>
        <time>2021-10-03T08:08:16.000Z</time>
      </trkpt>
      <trkpt lat="43.62539" lon="2.31861">
        <ele>306.170464</ele>
        <time>2021-10-03T08:08:17.000Z</time>
      </trkpt>
      <trkpt lat="43.6254" lon="2.31856">
        <ele>306.173193</ele>
        <time>2021-10-03T08:08:18.000Z</time>
      </trkpt>
      <trkpt lat="43.6254" lon="2.31852">
        <ele>306.175994</ele>
        <time>2021-10-03T08:08:19.000Z</time>
      </trkpt>
      <trkpt lat="43.62541" lon="2.31848">
        <ele>306.178494</ele>
        <time>2021-10-03T08:08:20.000Z</time>
      </trkpt>
      <trkpt lat="43.62541" lon="2.31843">
        <ele>306.181115</ele>
        <time>2021-10-03T08:08:21.000Z</time>
      </trkpt>
      <trkpt lat="43.62542" lon="2.31839">
        <ele>306.183701</ele>
        <time>2021-10-03T08:08:22.000Z</time>
      </trkpt>
      <trkpt lat="43.62543" lon="2.31836">
        <ele>306.186119</ele>
        <time>2021-10-03T08:08:23.000Z</time>
      </trkpt>
      <trkpt lat="43.62545" lon="2.31832">
        <ele>306.188569</ele>
        <time>2021-10-03T08:08:24.000Z</time>
      </trkpt>
      <trkpt lat="43.62546" lon="2.31828">
        <ele>306.190931</ele>
        <time>2021-10-03T08:08:25.000Z</time>
      </trkpt>
      <trkpt lat="43.62547" lon="2.31825">
        <ele>306.19339</ele>
        <time>2021-10-03T08:08:26.000Z</time>
      </trkpt>
      <trkpt lat="43.6255" lon="2.31822">
        <ele>306.196202</ele>
        <time>2021-10-03T08:08:27.000Z</time>
      </trkpt>
      <trkpt lat="43.62552" lon="2.31818">
        <ele>306.198971</ele>
        <time>2021-10-03T08:08:28.000Z</time>
      </trkpt>
      <trkpt lat="43.62554" lon="2.31815">
        <ele>306.201381</ele>
        <time>2021-10-03T08:08:29.000Z</time>
      </trkpt>
      <trkpt lat="43.62556" lon="2.31812">
        <ele>306.20379</ele>
        <time>2021-10-03T08:08:30.000Z</time>
      </trkpt>
      <trkpt lat="43.62558" lon="2.31809">
        <ele>306.206603</ele>
        <time>2021-10-03T08:08:31.000Z</time>
      </trkpt>
      <trkpt lat="43.6256" lon="2.31806">
        <ele>306.20906</ele>
        <time>2021-10-03T08:08:32.000Z</time>
      </trkpt>
      <trkpt lat="43.62562" lon="2.31803">
        <ele>306.21162</ele>
        <time>2021-10-03T08:08:33.000Z</time>
      </trkpt>
      <trkpt lat="43.62565" lon="2.31801">
        <ele>306.213889</ele>
        <time>2021-10-03T08:08:34.000Z</time>
      </trkpt>
      <trkpt lat="43.62567" lon="2.318">
        <ele>306.216297</ele>
        <time>2021-10-03T08:08:35.000Z</time>
      </trkpt>
      <trkpt lat="43.6257" lon="2.31798">
        <ele>306.218727</ele>
        <time>2021-10-03T08:08:36.000Z</time>
      </trkpt>
      <trkpt lat="43.62572" lon="2.31796">
        <ele>306.221031</ele>
        <time>2021-10-03T08:08:37.000Z</time>
      </trkpt>
      <trkpt lat="43.62575" lon="2.31794">
        <ele>306.223534</ele>
        <time>2021-10-03T08:08:38.000Z</time>
      </trkpt>
      <trkpt lat="43.62578" lon="2.31793">
        <ele>306.225942</ele>
        <time>2021-10-03T08:08:39.000Z</time>
      </trkpt>
      <trkpt lat="43.62581" lon="2.31793">
        <ele>306.228784</ele>
        <time>2021-10-03T08:08:40.000Z</time>
      </trkpt>
      <trkpt lat="43.62584" lon="2.31792">
        <ele>306.231118</ele>
        <time>2021-10-03T08:08:41.000Z</time>
      </trkpt>
      <trkpt lat="43.62587" lon="2.3179">
        <ele>306.234064</ele>
        <time>2021-10-03T08:08:42.000Z</time>
      </trkpt>
      <trkpt lat="43.6259" lon="2.3179">
        <ele>306.23606</ele>
        <time>2021-10-03T08:08:43.000Z</time>
      </trkpt>
      <trkpt lat="43.62592" lon="2.31789">
        <ele>306.23804</ele>
        <time>2021-10-03T08:08:44.000Z</time>
      </trkpt>
      <trkpt lat="43.62603" lon="2.31786">
        <ele>306.247112</ele>
        <time>2021-10-03T08:10:28.000Z</time>
      </trkpt>
      <trkpt lat="43.62604" lon="2.31784">
        <ele>306.249144</ele>
        <time>2021-10-03T08:10:29.000Z</time>
      </trkpt>
      <trkpt lat="43.62607" lon="2.31782">
        <ele>306.251587</ele>
        <time>2021-10-03T08:10:30.000Z</time>
      </trkpt>
      <trkpt lat="43.62609" lon="2.31778">
        <ele>306.254495</ele>
        <time>2021-10-03T08:10:31.000Z</time>
      </trkpt>
      <trkpt lat="43.62612" lon="2.31775">
        <ele>306.2578</ele>
        <time>2021-10-03T08:10:32.000Z</time>
      </trkpt>
      <trkpt lat="43.62615" lon="2.31772">
        <ele>306.260928</ele>
        <time>2021-10-03T08:10:33.000Z</time>
      </trkpt>
      <trkpt lat="43.62618" lon="2.31769">
        <ele>306.26386</ele>
        <time>2021-10-03T08:10:34.000Z</time>
      </trkpt>
      <trkpt lat="43.62621" lon="2.31766">
        <ele>306.26683</ele>
        <time>2021-10-03T08:10:35.000Z</time>
      </trkpt>
      <trkpt lat="43.62624" lon="2.31763">
        <ele>306.270046</ele>
        <time>2021-10-03T08:10:36.000Z</time>
      </trkpt>
      <trkpt lat="43.62627" lon="2.31761">
        <ele>306.272956</ele>
        <time>2021-10-03T08:10:37.000Z</time>
      </trkpt>
      <trkpt lat="43.6263" lon="2.31759">
        <ele>306.27508</ele>
        <time>2021-10-03T08:10:38.000Z</time>
      </trkpt>
      <trkpt lat="43.62632" lon="2.31758">
        <ele>306.27741</ele>
        <time>2021-10-03T08:10:39.000Z</time>
      </trkpt>
      <trkpt lat="43.62635" lon="2.31756">
        <ele>306.280174</ele>
        <time>2021-10-03T08:10:40.000Z</time>
      </trkpt>
      <trkpt lat="43.62639" lon="2.31754">
        <ele>306.283159</ele>
        <time>2021-10-03T08:10:41.000Z</time>
      </trkpt>
      <trkpt lat="43.62642" lon="2.31752">
        <ele>306.286042</ele>
        <time>2021-10-03T08:10:42.000Z</time>
      </trkpt>
      <trkpt lat="43.62645" lon="2.3175">
        <ele>306.289253</ele>
        <time>2021-10-03T08:10:43.000Z</time>
      </trkpt>
      <trkpt lat="43.62649" lon="2.31748">
        <ele>306.292508</ele>
        <time>2021-10-03T08:10:44.000Z</time>
      </trkpt>
      <trkpt lat="43.62653" lon="2.31747">
        <ele>306.296102</ele>
        <time>2021-10-03T08:10:45.000Z</time>
      </trkpt>
      <trkpt lat="43.62657" lon="2.31746">
        <ele>306.299467</ele>
        <time>2021-10-03T08:10:46.000Z</time>
      </trkpt>
      <trkpt lat="43.6266" lon="2.31745">
        <ele>306.302337</ele>
        <time>2021-10-03T08:10:47.000Z</time>
      </trkpt>
      <trkpt lat="43.62665" lon="2.31745">
        <ele>306.305774</ele>
        <time>2021-10-03T08:10:48.000Z</time>
      </trkpt>
      <trkpt lat="43.62669" lon="2.31744">
        <ele>306.309882</ele>
        <time>2021-10-03T08:10:49.000Z</time>
      </trkpt>
      <trkpt lat="43.62674" lon="2.31743">
        <ele>306.314092</ele>
        <time>2021-10-03T08:10:50.000Z</time>
      </trkpt>
      <trkpt lat="43.62679" lon="2.31743">
        <ele>306.261002</ele>
        <time>2021-10-03T08:10:51.000Z</time>
      </trkpt>
      <trkpt lat="43.62683" lon="2.31743">
        <ele>306.182898</ele>
        <time>2021-10-03T08:10:52.000Z</time>
      </trkpt>
      <trkpt lat="43.62686" lon="2.31744">
        <ele>306.123172</ele>
        <time>2021-10-03T08:10:53.000Z</time>
      </trkpt>
      <trkpt lat="43.6269" lon="2.31747">
        <ele>306.045542</ele>
        <time>2021-10-03T08:10:54.000Z</time>
      </trkpt>
      <trkpt lat="43.62695" lon="2.3175">
        <ele>305.952286</ele>
        <time>2021-10-03T08:10:55.000Z</time>
      </trkpt>
      <trkpt lat="43.62699" lon="2.31753">
        <ele>305.861289</ele>
        <time>2021-10-03T08:10:56.000Z</time>
      </trkpt>
      <trkpt lat="43.62702" lon="2.31757">
        <ele>305.782627</ele>
        <time>2021-10-03T08:10:57.000Z</time>
      </trkpt>
      <trkpt lat="43.62705" lon="2.31761">
        <ele>305.710744</ele>
        <time>2021-10-03T08:10:58.000Z</time>
      </trkpt>
      <trkpt lat="43.62707" lon="2.31765">
        <ele>305.642143</ele>
        <time>2021-10-03T08:10:59.000Z</time>
      </trkpt>
      <trkpt lat="43.6271" lon="2.31769">
        <ele>305.567929</ele>
        <time>2021-10-03T08:11:00.000Z</time>
      </trkpt>
      <trkpt lat="43.62714" lon="2.31773">
        <ele>305.473306</ele>
        <time>2021-10-03T08:11:01.000Z</time>
      </trkpt>
      <trkpt lat="43.62718" lon="2.31779">
        <ele>305.370228</ele>
        <time>2021-10-03T08:11:02.000Z</time>
      </trkpt>
      <trkpt lat="43.62721" lon="2.31785">
        <ele>305.274486</ele>
        <time>2021-10-03T08:11:03.000Z</time>
      </trkpt>
      <trkpt lat="43.62725" lon="2.31791">
        <ele>305.167425</ele>
        <time>2021-10-03T08:11:04.000Z</time>
      </trkpt>
      <trkpt lat="43.62728" lon="2.31796">
        <ele>305.071683</ele>
        <time>2021-10-03T08:11:05.000Z</time>
      </trkpt>
      <trkpt lat="43.62731" lon="2.31802">
        <ele>304.971458</ele>
        <time>2021-10-03T08:11:06.000Z</time>
      </trkpt>
      <trkpt lat="43.62734" lon="2.31807">
        <ele>304.885521</ele>
        <time>2021-10-03T08:11:07.000Z</time>
      </trkpt>
      <trkpt lat="43.62736" lon="2.31812">
        <ele>304.807096</ele>
        <time>2021-10-03T08:11:08.000Z</time>
      </trkpt>
      <trkpt lat="43.62738" lon="2.31816">
        <ele>304.745725</ele>
        <time>2021-10-03T08:11:09.000Z</time>
      </trkpt>
      <trkpt lat="43.6274" lon="2.3182">
        <ele>304.673531</ele>
        <time>2021-10-03T08:11:10.000Z</time>
      </trkpt>
      <trkpt lat="43.62743" lon="2.31824">
        <ele>304.61005</ele>
        <time>2021-10-03T08:11:11.000Z</time>
      </trkpt>
      <trkpt lat="43.62744" lon="2.31828">
        <ele>304.545803</ele>
        <time>2021-10-03T08:11:12.000Z</time>
      </trkpt>
      <trkpt lat="43.62747" lon="2.31831">
        <ele>304.48712</ele>
        <time>2021-10-03T08:11:13.000Z</time>
      </trkpt>
      <trkpt lat="43.62749" lon="2.31834">
        <ele>304.427507</ele>
        <time>2021-10-03T08:11:14.000Z</time>
      </trkpt>
      <trkpt lat="43.62752" lon="2.31836">
        <ele>304.374703</ele>
        <time>2021-10-03T08:11:15.000Z</time>
      </trkpt>
      <trkpt lat="43.62755" lon="2.31836">
        <ele>304.319046</ele>
        <time>2021-10-03T08:11:16.000Z</time>
      </trkpt>
      <trkpt lat="43.62757" lon="2.31836">
        <ele>304.268956</ele>
        <time>2021-10-03T08:11:17.000Z</time>
      </trkpt>
      <trkpt lat="43.6276" lon="2.31835">
        <ele>304.217428</ele>
        <time>2021-10-03T08:11:18.000Z</time>
      </trkpt>
      <trkpt lat="43.62762" lon="2.31833">
        <ele>304.170824</ele>
        <time>2021-10-03T08:11:19.000Z</time>
      </trkpt>
      <trkpt lat="43.62764" lon="2.31829">
        <ele>304.109305</ele>
        <time>2021-10-03T08:11:20.000Z</time>
      </trkpt>
      <trkpt lat="43.62768" lon="2.31827">
        <ele>304.030833</ele>
        <time>2021-10-03T08:11:21.000Z</time>
      </trkpt>
      <trkpt lat="43.62771" lon="2.31825">
        <ele>303.97296</ele>
        <time>2021-10-03T08:11:22.000Z</time>
      </trkpt>
      <trkpt lat="43.62774" lon="2.31822">
        <ele>303.902645</ele>
        <time>2021-10-03T08:11:23.000Z</time>
      </trkpt>
      <trkpt lat="43.62776" lon="2.31819">
        <ele>303.843032</ele>
        <time>2021-10-03T08:11:24.000Z</time>
      </trkpt>
      <trkpt lat="43.62779" lon="2.31815">
        <ele>303.770562</ele>
        <time>2021-10-03T08:11:25.000Z</time>
      </trkpt>
      <trkpt lat="43.62781" lon="2.31812">
        <ele>303.714983</ele>
        <time>2021-10-03T08:11:26.000Z</time>
      </trkpt>
      <trkpt lat="43.62783" lon="2.31807">
        <ele>303.64645</ele>
        <time>2021-10-03T08:11:27.000Z</time>
      </trkpt>
      <trkpt lat="43.62784" lon="2.31804">
        <ele>303.589542</ele>
        <time>2021-10-03T08:11:28.000Z</time>
      </trkpt>
      <trkpt lat="43.62786" lon="2.31799">
        <ele>303.518831</ele>
        <time>2021-10-03T08:11:29.000Z</time>
      </trkpt>
      <trkpt lat="43.62788" lon="2.31795">
        <ele>303.448873</ele>
        <time>2021-10-03T08:11:30.000Z</time>
      </trkpt>
      <trkpt lat="43.62791" lon="2.31791">
        <ele>303.375675</ele>
        <time>2021-10-03T08:11:31.000Z</time>
      </trkpt>
      <trkpt lat="43.62792" lon="2.31786">
        <ele>303.309552</ele>
        <time>2021-10-03T08:11:32.000Z</time>
      </trkpt>
      <trkpt lat="43.62795" lon="2.31782">
        <ele>303.231178</ele>
        <time>2021-10-03T08:11:33.000Z</time>
      </trkpt>
      <trkpt lat="43.62797" lon="2.31778">
        <ele>303.170238</ele>
        <time>2021-10-03T08:11:34.000Z</time>
      </trkpt>
      <trkpt lat="43.62799" lon="2.31775">
        <ele>303.109895</ele>
        <time>2021-10-03T08:11:35.000Z</time>
      </trkpt>
      <trkpt lat="43.62801" lon="2.31773">
        <ele>303.058017</ele>
        <time>2021-10-03T08:11:36.000Z</time>
      </trkpt>
      <trkpt lat="43.62803" lon="2.3177">
        <ele>303.008725</ele>
        <time>2021-10-03T08:11:37.000Z</time>
      </trkpt>
      <trkpt lat="43.62804" lon="2.31767">
        <ele>302.993753</ele>
        <time>2021-10-03T08:11:38.000Z</time>
      </trkpt>
      <trkpt lat="43.62806" lon="2.31763">
        <ele>303.029641</ele>
        <time>2021-10-03T08:11:39.000Z</time>
      </trkpt>
      <trkpt lat="43.62806" lon="2.3176">
        <ele>303.06254</ele>
        <time>2021-10-03T08:11:40.000Z</time>
      </trkpt>
      <trkpt lat="43.62808" lon="2.31757">
        <ele>303.1014</ele>
        <time>2021-10-03T08:11:41.000Z</time>
      </trkpt>
      <trkpt lat="43.62809" lon="2.31753">
        <ele>303.145811</ele>
        <time>2021-10-03T08:11:42.000Z</time>
      </trkpt>
      <trkpt lat="43.62811" lon="2.31749">
        <ele>303.189896</ele>
        <time>2021-10-03T08:11:43.000Z</time>
      </trkpt>
      <trkpt lat="43.62813" lon="2.31745">
        <ele>303.231957</ele>
        <time>2021-10-03T08:11:44.000Z</time>
      </trkpt>
      <trkpt lat="43.62815" lon="2.31741">
        <ele>303.276042</ele>
        <time>2021-10-03T08:11:45.000Z</time>
      </trkpt>
      <trkpt lat="43.62817" lon="2.31737">
        <ele>303.324091</ele>
        <time>2021-10-03T08:11:46.000Z</time>
      </trkpt>
      <trkpt lat="43.62818" lon="2.31734">
        <ele>303.365974</ele>
        <time>2021-10-03T08:11:47.000Z</time>
      </trkpt>
      <trkpt lat="43.6282" lon="2.3173">
        <ele>303.413282</ele>
        <time>2021-10-03T08:11:48.000Z</time>
      </trkpt>
      <trkpt lat="43.62822" lon="2.31726">
        <ele>303.457367</ele>
        <time>2021-10-03T08:11:49.000Z</time>
      </trkpt>
      <trkpt lat="43.62824" lon="2.31723">
        <ele>303.497587</ele>
        <time>2021-10-03T08:11:50.000Z</time>
      </trkpt>
      <trkpt lat="43.62826" lon="2.3172">
        <ele>303.535381</ele>
        <time>2021-10-03T08:11:51.000Z</time>
      </trkpt>
      <trkpt lat="43.62828" lon="2.31717">
        <ele>303.574118</ele>
        <time>2021-10-03T08:11:52.000Z</time>
      </trkpt>
      <trkpt lat="43.6283" lon="2.31714">
        <ele>303.610712</ele>
        <time>2021-10-03T08:11:53.000Z</time>
      </trkpt>
      <trkpt lat="43.62832" lon="2.31711">
        <ele>303.65497</ele>
        <time>2021-10-03T08:11:54.000Z</time>
      </trkpt>
      <trkpt lat="43.62834" lon="2.31707">
        <ele>303.703106</ele>
        <time>2021-10-03T08:11:55.000Z</time>
      </trkpt>
      <trkpt lat="43.62837" lon="2.31704">
        <ele>303.752153</ele>
        <time>2021-10-03T08:11:56.000Z</time>
      </trkpt>
      <trkpt lat="43.6284" lon="2.31701">
        <ele>303.797631</ele>
        <time>2021-10-03T08:11:57.000Z</time>
      </trkpt>
      <trkpt lat="43.62843" lon="2.31698">
        <ele>303.849008</ele>
        <time>2021-10-03T08:11:58.000Z</time>
      </trkpt>
      <trkpt lat="43.62845" lon="2.31695">
        <ele>303.891536</ele>
        <time>2021-10-03T08:11:59.000Z</time>
      </trkpt>
      <trkpt lat="43.62848" lon="2.31693">
        <ele>303.936921</ele>
        <time>2021-10-03T08:12:00.000Z</time>
      </trkpt>
      <trkpt lat="43.62852" lon="2.31691">
        <ele>303.985348</ele>
        <time>2021-10-03T08:12:01.000Z</time>
      </trkpt>
      <trkpt lat="43.62854" lon="2.31688">
        <ele>304.030096</ele>
        <time>2021-10-03T08:12:02.000Z</time>
      </trkpt>
      <trkpt lat="43.62857" lon="2.31686">
        <ele>304.077336</ele>
        <time>2021-10-03T08:12:03.000Z</time>
      </trkpt>
      <trkpt lat="43.62861" lon="2.31683">
        <ele>304.127336</ele>
        <time>2021-10-03T08:12:04.000Z</time>
      </trkpt>
      <trkpt lat="43.62864" lon="2.31681">
        <ele>304.172056</ele>
        <time>2021-10-03T08:12:05.000Z</time>
      </trkpt>
      <trkpt lat="43.62867" lon="2.3168">
        <ele>304.22155</ele>
        <time>2021-10-03T08:12:06.000Z</time>
      </trkpt>
      <trkpt lat="43.6287" lon="2.31678">
        <ele>304.26062</ele>
        <time>2021-10-03T08:12:07.000Z</time>
      </trkpt>
      <trkpt lat="43.62874" lon="2.31677">
        <ele>304.31143</ele>
        <time>2021-10-03T08:12:08.000Z</time>
      </trkpt>
      <trkpt lat="43.62877" lon="2.31677">
        <ele>304.362677</ele>
        <time>2021-10-03T08:12:09.000Z</time>
      </trkpt>
      <trkpt lat="43.62881" lon="2.31677">
        <ele>304.415036</ele>
        <time>2021-10-03T08:12:10.000Z</time>
      </trkpt>
      <trkpt lat="43.62884" lon="2.31677">
        <ele>304.456655</ele>
        <time>2021-10-03T08:12:11.000Z</time>
      </trkpt>
      <trkpt lat="43.62887" lon="2.31677">
        <ele>304.496931</ele>
        <time>2021-10-03T08:12:12.000Z</time>
      </trkpt>
      <trkpt lat="43.62891" lon="2.31677">
        <ele>304.542742</ele>
        <time>2021-10-03T08:12:13.000Z</time>
      </trkpt>
      <trkpt lat="43.62895" lon="2.31678">
        <ele>304.594502</ele>
        <time>2021-10-03T08:12:14.000Z</time>
      </trkpt>
      <trkpt lat="43.62898" lon="2.3168">
        <ele>304.639647</ele>
        <time>2021-10-03T08:12:15.000Z</time>
      </trkpt>
      <trkpt lat="43.62901" lon="2.31683">
        <ele>304.688285</ele>
        <time>2021-10-03T08:12:16.000Z</time>
      </trkpt>
      <trkpt lat="43.62904" lon="2.31686">
        <ele>304.747949</ele>
        <time>2021-10-03T08:12:17.000Z</time>
      </trkpt>
      <trkpt lat="43.62907" lon="2.31691">
        <ele>304.799127</ele>
        <time>2021-10-03T08:12:18.000Z</time>
      </trkpt>
      <trkpt lat="43.62909" lon="2.31695">
        <ele>304.857436</ele>
        <time>2021-10-03T08:12:19.000Z</time>
      </trkpt>
      <trkpt lat="43.62912" lon="2.317">
        <ele>304.919063</ele>
        <time>2021-10-03T08:12:20.000Z</time>
      </trkpt>
      <trkpt lat="43.62915" lon="2.31705">
        <ele>304.983779</ele>
        <time>2021-10-03T08:12:21.000Z</time>
      </trkpt>
      <trkpt lat="43.62919" lon="2.31711">
        <ele>305.059367</ele>
        <time>2021-10-03T08:12:22.000Z</time>
      </trkpt>
      <trkpt lat="43.62923" lon="2.31718">
        <ele>305.142081</ele>
        <time>2021-10-03T08:12:23.000Z</time>
      </trkpt>
      <trkpt lat="43.62926" lon="2.31725">
        <ele>305.22562</ele>
        <time>2021-10-03T08:12:24.000Z</time>
      </trkpt>
      <trkpt lat="43.62929" lon="2.31732">
        <ele>305.308294</ele>
        <time>2021-10-03T08:12:25.000Z</time>
      </trkpt>
      <trkpt lat="43.62934" lon="2.31739">
        <ele>305.392076</ele>
        <time>2021-10-03T08:12:26.000Z</time>
      </trkpt>
      <trkpt lat="43.62937" lon="2.31744">
        <ele>305.345877</ele>
        <time>2021-10-03T08:12:27.000Z</time>
      </trkpt>
      <trkpt lat="43.62942" lon="2.31749">
        <ele>305.299986</ele>
        <time>2021-10-03T08:12:28.000Z</time>
      </trkpt>
      <trkpt lat="43.62946" lon="2.31752">
        <ele>305.2559</ele>
        <time>2021-10-03T08:12:29.000Z</time>
      </trkpt>
      <trkpt lat="43.62951" lon="2.31754">
        <ele>305.215327</ele>
        <time>2021-10-03T08:12:30.000Z</time>
      </trkpt>
      <trkpt lat="43.62954" lon="2.31754">
        <ele>305.186013</ele>
        <time>2021-10-03T08:12:31.000Z</time>
      </trkpt>
      <trkpt lat="43.62958" lon="2.31753">
        <ele>305.155455</ele>
        <time>2021-10-03T08:12:32.000Z</time>
      </trkpt>
      <trkpt lat="43.6296" lon="2.31751">
        <ele>305.131358</ele>
        <time>2021-10-03T08:12:33.000Z</time>
      </trkpt>
      <trkpt lat="43.62963" lon="2.3175">
        <ele>305.106927</ele>
        <time>2021-10-03T08:12:34.000Z</time>
      </trkpt>
      <trkpt lat="43.62966" lon="2.31748">
        <ele>305.077958</ele>
        <time>2021-10-03T08:12:35.000Z</time>
      </trkpt>
      <trkpt lat="43.62968" lon="2.31745">
        <ele>305.048499</ele>
        <time>2021-10-03T08:12:36.000Z</time>
      </trkpt>
      <trkpt lat="43.62971" lon="2.31741">
        <ele>305.017447</ele>
        <time>2021-10-03T08:12:37.000Z</time>
      </trkpt>
      <trkpt lat="43.62974" lon="2.31737">
        <ele>304.981964</ele>
        <time>2021-10-03T08:12:38.000Z</time>
      </trkpt>
      <trkpt lat="43.62976" lon="2.31734">
        <ele>304.951449</ele>
        <time>2021-10-03T08:12:39.000Z</time>
      </trkpt>
      <trkpt lat="43.6298" lon="2.31729">
        <ele>304.911945</ele>
        <time>2021-10-03T08:12:40.000Z</time>
      </trkpt>
      <trkpt lat="43.62983" lon="2.31726">
        <ele>304.878612</ele>
        <time>2021-10-03T08:12:41.000Z</time>
      </trkpt>
      <trkpt lat="43.62986" lon="2.31723">
        <ele>304.847969</ele>
        <time>2021-10-03T08:12:42.000Z</time>
      </trkpt>
      <trkpt lat="43.62989" lon="2.3172">
        <ele>304.816069</ele>
        <time>2021-10-03T08:12:43.000Z</time>
      </trkpt>
      <trkpt lat="43.62992" lon="2.31717">
        <ele>304.783037</ele>
        <time>2021-10-03T08:12:44.000Z</time>
      </trkpt>
      <trkpt lat="43.62994" lon="2.31714">
        <ele>304.753578</ele>
        <time>2021-10-03T08:12:45.000Z</time>
      </trkpt>
      <trkpt lat="43.62997" lon="2.31711">
        <ele>304.720615</ele>
        <time>2021-10-03T08:12:46.000Z</time>
      </trkpt>
      <trkpt lat="43.63" lon="2.31708">
        <ele>304.689076</ele>
        <time>2021-10-03T08:12:47.000Z</time>
      </trkpt>
      <trkpt lat="43.63004" lon="2.31705">
        <ele>304.654326</ele>
        <time>2021-10-03T08:12:48.000Z</time>
      </trkpt>
      <trkpt lat="43.63007" lon="2.31701">
        <ele>304.6218</ele>
        <time>2021-10-03T08:12:49.000Z</time>
      </trkpt>
      <trkpt lat="43.6301" lon="2.31698">
        <ele>304.586742</ele>
        <time>2021-10-03T08:12:50.000Z</time>
      </trkpt>
      <trkpt lat="43.63012" lon="2.31695">
        <ele>304.559496</ele>
        <time>2021-10-03T08:12:51.000Z</time>
      </trkpt>
      <trkpt lat="43.63015" lon="2.31691">
        <ele>304.528444</ele>
        <time>2021-10-03T08:12:52.000Z</time>
      </trkpt>
      <trkpt lat="43.63018" lon="2.31689">
        <ele>304.497939</ele>
        <time>2021-10-03T08:12:53.000Z</time>
      </trkpt>
      <trkpt lat="43.6302" lon="2.31686">
        <ele>304.46959</ele>
        <time>2021-10-03T08:12:54.000Z</time>
      </trkpt>
      <trkpt lat="43.63023" lon="2.31682">
        <ele>304.432353</ele>
        <time>2021-10-03T08:12:55.000Z</time>
      </trkpt>
      <trkpt lat="43.63026" lon="2.31677">
        <ele>304.393958</ele>
        <time>2021-10-03T08:12:56.000Z</time>
      </trkpt>
      <trkpt lat="43.63028" lon="2.31672">
        <ele>304.357021</ele>
        <time>2021-10-03T08:12:57.000Z</time>
      </trkpt>
      <trkpt lat="43.63029" lon="2.31666">
        <ele>304.321803</ele>
        <time>2021-10-03T08:12:58.000Z</time>
      </trkpt>
      <trkpt lat="43.63031" lon="2.31663">
        <ele>304.294817</ele>
        <time>2021-10-03T08:12:59.000Z</time>
      </trkpt>
      <trkpt lat="43.63032" lon="2.31659">
        <ele>304.269457</ele>
        <time>2021-10-03T08:13:00.000Z</time>
      </trkpt>
      <trkpt lat="43.63034" lon="2.31656">
        <ele>304.246722</ele>
        <time>2021-10-03T08:13:01.000Z</time>
      </trkpt>
      <trkpt lat="43.63036" lon="2.31648">
        <ele>304.190145</ele>
        <time>2021-10-03T08:13:46.000Z</time>
      </trkpt>
      <trkpt lat="43.63037" lon="2.31645">
        <ele>304.171368</ele>
        <time>2021-10-03T08:13:47.000Z</time>
      </trkpt>
      <trkpt lat="43.63039" lon="2.31642">
        <ele>304.14698</ele>
        <time>2021-10-03T08:13:48.000Z</time>
      </trkpt>
      <trkpt lat="43.63042" lon="2.31639">
        <ele>304.117507</ele>
        <time>2021-10-03T08:13:49.000Z</time>
      </trkpt>
      <trkpt lat="43.63045" lon="2.31635">
        <ele>304.081594</ele>
        <time>2021-10-03T08:13:50.000Z</time>
      </trkpt>
      <trkpt lat="43.63049" lon="2.31631">
        <ele>304.04008</ele>
        <time>2021-10-03T08:13:51.000Z</time>
      </trkpt>
      <trkpt lat="43.63053" lon="2.31628">
        <ele>303.996526</ele>
        <time>2021-10-03T08:13:52.000Z</time>
      </trkpt>
      <trkpt lat="43.63059" lon="2.31626">
        <ele>303.948857</ele>
        <time>2021-10-03T08:13:53.000Z</time>
      </trkpt>
      <trkpt lat="43.63063" lon="2.31625">
        <ele>303.908533</ele>
        <time>2021-10-03T08:13:54.000Z</time>
      </trkpt>
      <trkpt lat="43.63067" lon="2.31625">
        <ele>303.87235</ele>
        <time>2021-10-03T08:13:55.000Z</time>
      </trkpt>
      <trkpt lat="43.63071" lon="2.31626">
        <ele>303.821166</ele>
        <time>2021-10-03T08:13:56.000Z</time>
      </trkpt>
      <trkpt lat="43.63074" lon="2.31627">
        <ele>303.383193</ele>
        <time>2021-10-03T08:13:57.000Z</time>
      </trkpt>
      <trkpt lat="43.63076" lon="2.31628">
        <ele>303.006858</ele>
        <time>2021-10-03T08:13:58.000Z</time>
      </trkpt>
      <trkpt lat="43.63077" lon="2.31629">
        <ele>302.786651</ele>
        <time>2021-10-03T08:13:59.000Z</time>
      </trkpt>
      <trkpt lat="43.63078" lon="2.31629">
        <ele>302.621545</ele>
        <time>2021-10-03T08:14:00.000Z</time>
      </trkpt>
      <trkpt lat="43.63079" lon="2.31629">
        <ele>302.545036</ele>
        <time>2021-10-03T08:14:01.000Z</time>
      </trkpt>
      <trkpt lat="43.63079" lon="2.31629">
        <ele>302.545036</ele>
        <time>2021-10-03T08:14:02.000Z</time>
      </trkpt>
      <trkpt lat="43.63079" lon="2.31629">
        <ele>302.545036</ele>
        <time>2021-10-03T08:14:03.000Z</time>
      </trkpt>
      <trkpt lat="43.63079" lon="2.31629">
        <ele>302.545036</ele>
        <time>2021-10-03T08:14:04.000Z</time>
      </trkpt>
      <trkpt lat="43.63079" lon="2.31629">
        <ele>302.545036</ele>
        <time>2021-10-03T08:14:31.000Z</time>
      </trkpt>
      <trkpt lat="43.6308" lon="2.31635">
        <ele>301.919603</ele>
        <time>2021-10-03T08:14:32.000Z</time>
      </trkpt>
      <trkpt lat="43.63081" lon="2.31637">
        <ele>301.573737</ele>
        <time>2021-10-03T08:14:33.000Z</time>
      </trkpt>
      <trkpt lat="43.63083" lon="2.3164">
        <ele>301.209287</ele>
        <time>2021-10-03T08:14:34.000Z</time>
      </trkpt>
      <trkpt lat="43.63084" lon="2.31643">
        <ele>300.880472</ele>
        <time>2021-10-03T08:14:35.000Z</time>
      </trkpt>
      <trkpt lat="43.63086" lon="2.31645">
        <ele>300.498634</ele>
        <time>2021-10-03T08:14:36.000Z</time>
      </trkpt>
      <trkpt lat="43.63087" lon="2.31649">
        <ele>300.044953</ele>
        <time>2021-10-03T08:14:37.000Z</time>
      </trkpt>
      <trkpt lat="43.63089" lon="2.31652">
        <ele>299.565394</ele>
        <time>2021-10-03T08:14:38.000Z</time>
      </trkpt>
      <trkpt lat="43.63092" lon="2.31655">
        <ele>299.081622</ele>
        <time>2021-10-03T08:14:39.000Z</time>
      </trkpt>
      <trkpt lat="43.63094" lon="2.31658">
        <ele>298.638433</ele>
        <time>2021-10-03T08:14:40.000Z</time>
      </trkpt>
      <trkpt lat="43.63097" lon="2.3166">
        <ele>298.133675</ele>
        <time>2021-10-03T08:14:41.000Z</time>
      </trkpt>
      <trkpt lat="43.63099" lon="2.31662">
        <ele>297.688242</ele>
        <time>2021-10-03T08:14:42.000Z</time>
      </trkpt>
      <trkpt lat="43.63101" lon="2.31664">
        <ele>297.338249</ele>
        <time>2021-10-03T08:14:43.000Z</time>
      </trkpt>
      <trkpt lat="43.63103" lon="2.31666">
        <ele>296.920746</ele>
        <time>2021-10-03T08:14:44.000Z</time>
      </trkpt>
      <trkpt lat="43.63105" lon="2.31668">
        <ele>296.565546</ele>
        <time>2021-10-03T08:14:45.000Z</time>
      </trkpt>
      <trkpt lat="43.63108" lon="2.3167">
        <ele>296.165232</ele>
        <time>2021-10-03T08:14:46.000Z</time>
      </trkpt>
      <trkpt lat="43.6311" lon="2.31672">
        <ele>295.724818</ele>
        <time>2021-10-03T08:14:47.000Z</time>
      </trkpt>
      <trkpt lat="43.63113" lon="2.31674">
        <ele>295.255588</ele>
        <time>2021-10-03T08:14:48.000Z</time>
      </trkpt>
      <trkpt lat="43.63115" lon="2.31676">
        <ele>294.838085</ele>
        <time>2021-10-03T08:14:49.000Z</time>
      </trkpt>
      <trkpt lat="43.63117" lon="2.31678">
        <ele>294.511326</ele>
        <time>2021-10-03T08:14:50.000Z</time>
      </trkpt>
      <trkpt lat="43.63119" lon="2.31679">
        <ele>294.139795</ele>
        <time>2021-10-03T08:14:51.000Z</time>
      </trkpt>
      <trkpt lat="43.63122" lon="2.31681">
        <ele>293.680921</ele>
        <time>2021-10-03T08:14:52.000Z</time>
      </trkpt>
      <trkpt lat="43.63124" lon="2.31683">
        <ele>293.288014</ele>
        <time>2021-10-03T08:14:53.000Z</time>
      </trkpt>
      <trkpt lat="43.63127" lon="2.31685">
        <ele>292.813311</ele>
        <time>2021-10-03T08:14:54.000Z</time>
      </trkpt>
      <trkpt lat="43.63129" lon="2.31688">
        <ele>292.281659</ele>
        <time>2021-10-03T08:14:55.000Z</time>
      </trkpt>
      <trkpt lat="43.63132" lon="2.31692">
        <ele>291.728411</ele>
        <time>2021-10-03T08:14:56.000Z</time>
      </trkpt>
      <trkpt lat="43.63135" lon="2.31696">
        <ele>291.147222</ele>
        <time>2021-10-03T08:14:57.000Z</time>
      </trkpt>
      <trkpt lat="43.63138" lon="2.31699">
        <ele>290.526833</ele>
        <time>2021-10-03T08:14:58.000Z</time>
      </trkpt>
      <trkpt lat="43.63141" lon="2.31703">
        <ele>289.828646</ele>
        <time>2021-10-03T08:14:59.000Z</time>
      </trkpt>
      <trkpt lat="43.63146" lon="2.31707">
        <ele>289.056119</ele>
        <time>2021-10-03T08:15:00.000Z</time>
      </trkpt>
      <trkpt lat="43.63149" lon="2.31712">
        <ele>288.335457</ele>
        <time>2021-10-03T08:15:01.000Z</time>
      </trkpt>
      <trkpt lat="43.63152" lon="2.31716">
        <ele>287.676642</ele>
        <time>2021-10-03T08:15:02.000Z</time>
      </trkpt>
      <trkpt lat="43.63154" lon="2.31721">
        <ele>287.045657</ele>
        <time>2021-10-03T08:15:03.000Z</time>
      </trkpt>
      <trkpt lat="43.63156" lon="2.31725">
        <ele>286.494235</ele>
        <time>2021-10-03T08:15:04.000Z</time>
      </trkpt>
      <trkpt lat="43.63159" lon="2.31729">
        <ele>285.899317</ele>
        <time>2021-10-03T08:15:05.000Z</time>
      </trkpt>
      <trkpt lat="43.63161" lon="2.31734">
        <ele>285.322028</ele>
        <time>2021-10-03T08:15:06.000Z</time>
      </trkpt>
      <trkpt lat="43.63163" lon="2.31738">
        <ele>284.74149</ele>
        <time>2021-10-03T08:15:07.000Z</time>
      </trkpt>
      <trkpt lat="43.63165" lon="2.31744">
        <ele>284.093196</ele>
        <time>2021-10-03T08:15:08.000Z</time>
      </trkpt>
      <trkpt lat="43.63166" lon="2.31749">
        <ele>283.4592</ele>
        <time>2021-10-03T08:15:09.000Z</time>
      </trkpt>
      <trkpt lat="43.63168" lon="2.31754">
        <ele>282.87995</ele>
        <time>2021-10-03T08:15:10.000Z</time>
      </trkpt>
      <trkpt lat="43.63169" lon="2.31758">
        <ele>282.421154</ele>
        <time>2021-10-03T08:15:11.000Z</time>
      </trkpt>
      <trkpt lat="43.6317" lon="2.31761">
        <ele>281.976738</ele>
        <time>2021-10-03T08:15:12.000Z</time>
      </trkpt>
      <trkpt lat="43.63171" lon="2.31765">
        <ele>281.507712</ele>
        <time>2021-10-03T08:15:13.000Z</time>
      </trkpt>
      <trkpt lat="43.63173" lon="2.31769">
        <ele>281.052396</ele>
        <time>2021-10-03T08:15:14.000Z</time>
      </trkpt>
      <trkpt lat="43.63174" lon="2.31772">
        <ele>280.667057</ele>
        <time>2021-10-03T08:15:15.000Z</time>
      </trkpt>
      <trkpt lat="43.63176" lon="2.31775">
        <ele>280.230108</ele>
        <time>2021-10-03T08:15:16.000Z</time>
      </trkpt>
      <trkpt lat="43.63179" lon="2.31778">
        <ele>279.73754</ele>
        <time>2021-10-03T08:15:17.000Z</time>
      </trkpt>
      <trkpt lat="43.63181" lon="2.31781">
        <ele>279.226281</ele>
        <time>2021-10-03T08:15:18.000Z</time>
      </trkpt>
      <trkpt lat="43.63184" lon="2.31785">
        <ele>278.640215</ele>
        <time>2021-10-03T08:15:19.000Z</time>
      </trkpt>
      <trkpt lat="43.63185" lon="2.31789">
        <ele>278.069173</ele>
        <time>2021-10-03T08:15:20.000Z</time>
      </trkpt>
      <trkpt lat="43.63187" lon="2.31793">
        <ele>277.535545</ele>
        <time>2021-10-03T08:15:21.000Z</time>
      </trkpt>
      <trkpt lat="43.63189" lon="2.31798">
        <ele>276.964504</ele>
        <time>2021-10-03T08:15:22.000Z</time>
      </trkpt>
      <trkpt lat="43.6319" lon="2.31802">
        <ele>276.481477</ele>
        <time>2021-10-03T08:15:23.000Z</time>
      </trkpt>
      <trkpt lat="43.63192" lon="2.31807">
        <ele>276.040151</ele>
        <time>2021-10-03T08:15:24.000Z</time>
      </trkpt>
      <trkpt lat="43.63192" lon="2.31813">
        <ele>275.605654</ele>
        <time>2021-10-03T08:15:25.000Z</time>
      </trkpt>
      <trkpt lat="43.63193" lon="2.31817">
        <ele>275.22788</ele>
        <time>2021-10-03T08:15:26.000Z</time>
      </trkpt>
      <trkpt lat="43.63193" lon="2.31821">
        <ele>274.918033</ele>
        <time>2021-10-03T08:15:27.000Z</time>
      </trkpt>
      <trkpt lat="43.63194" lon="2.31825">
        <ele>274.599409</ele>
        <time>2021-10-03T08:15:28.000Z</time>
      </trkpt>
      <trkpt lat="43.63193" lon="2.31827">
        <ele>274.430382</ele>
        <time>2021-10-03T08:15:29.000Z</time>
      </trkpt>
      <trkpt lat="43.63193" lon="2.31827">
        <ele>274.357661</ele>
        <time>2021-10-03T08:15:30.000Z</time>
      </trkpt>
      <trkpt lat="43.63192" lon="2.31828">
        <ele>274.296893</ele>
        <time>2021-10-03T08:15:31.000Z</time>
      </trkpt>
      <trkpt lat="43.63193" lon="2.31828">
        <ele>274.259368</ele>
        <time>2021-10-03T08:15:32.000Z</time>
      </trkpt>
      <trkpt lat="43.63193" lon="2.31828">
        <ele>274.259368</ele>
        <time>2021-10-03T08:15:33.000Z</time>
      </trkpt>
      <trkpt lat="43.63193" lon="2.31828">
        <ele>274.259368</ele>
        <time>2021-10-03T08:15:35.000Z</time>
      </trkpt>
      <trkpt lat="43.63194" lon="2.31836">
        <ele>273.6354</ele>
        <time>2021-10-03T08:16:07.000Z</time>
      </trkpt>
      <trkpt lat="43.63194" lon="2.31837">
        <ele>273.480068</ele>
        <time>2021-10-03T08:16:08.000Z</time>
      </trkpt>
      <trkpt lat="43.63195" lon="2.3184">
        <ele>273.2615</ele>
        <time>2021-10-03T08:16:09.000Z</time>
      </trkpt>
      <trkpt lat="43.63196" lon="2.31844">
        <ele>272.897307</ele>
        <time>2021-10-03T08:16:10.000Z</time>
      </trkpt>
      <trkpt lat="43.63195" lon="2.31848">
        <ele>272.577516</ele>
        <time>2021-10-03T08:16:11.000Z</time>
      </trkpt>
      <trkpt lat="43.63194" lon="2.31851">
        <ele>272.288661</ele>
        <time>2021-10-03T08:16:12.000Z</time>
      </trkpt>
      <trkpt lat="43.63194" lon="2.31855">
        <ele>271.984714</ele>
        <time>2021-10-03T08:16:13.000Z</time>
      </trkpt>
      <trkpt lat="43.63194" lon="2.3186">
        <ele>271.567497</ele>
        <time>2021-10-03T08:16:14.000Z</time>
      </trkpt>
      <trkpt lat="43.63194" lon="2.31865">
        <ele>271.159804</ele>
        <time>2021-10-03T08:16:15.000Z</time>
      </trkpt>
      <trkpt lat="43.63194" lon="2.3187">
        <ele>270.765834</ele>
        <time>2021-10-03T08:16:16.000Z</time>
      </trkpt>
      <trkpt lat="43.63194" lon="2.31875">
        <ele>270.317372</ele>
        <time>2021-10-03T08:16:17.000Z</time>
      </trkpt>
      <trkpt lat="43.63194" lon="2.3188">
        <ele>269.893372</ele>
        <time>2021-10-03T08:16:18.000Z</time>
      </trkpt>
      <trkpt lat="43.63194" lon="2.31884">
        <ele>269.607987</ele>
        <time>2021-10-03T08:16:19.000Z</time>
      </trkpt>
      <trkpt lat="43.63193" lon="2.31889">
        <ele>269.216727</ele>
        <time>2021-10-03T08:16:20.000Z</time>
      </trkpt>
      <trkpt lat="43.63189" lon="2.3195">
        <ele>249.236944</ele>
        <time>2021-10-03T08:20:19.000Z</time>
      </trkpt>
      <trkpt lat="43.6319" lon="2.31955">
        <ele>248.850118</ele>
        <time>2021-10-03T08:20:20.000Z</time>
      </trkpt>
      <trkpt lat="43.6319" lon="2.31961">
        <ele>248.340214</ele>
        <time>2021-10-03T08:20:21.000Z</time>
      </trkpt>
      <trkpt lat="43.6319" lon="2.31971">
        <ele>247.61066</ele>
        <time>2021-10-03T08:20:22.000Z</time>
      </trkpt>
      <trkpt lat="43.6319" lon="2.3198">
        <ele>246.880381</ele>
        <time>2021-10-03T08:20:23.000Z</time>
      </trkpt>
      <trkpt lat="43.6319" lon="2.31991">
        <ele>246.000709</ele>
        <time>2021-10-03T08:20:24.000Z</time>
      </trkpt>
      <trkpt lat="43.63191" lon="2.32003">
        <ele>245.051442</ele>
        <time>2021-10-03T08:20:25.000Z</time>
      </trkpt>
      <trkpt lat="43.6319" lon="2.32015">
        <ele>244.11692</ele>
        <time>2021-10-03T08:20:26.000Z</time>
      </trkpt>
      <trkpt lat="43.63189" lon="2.32026">
        <ele>243.289742</ele>
        <time>2021-10-03T08:20:27.000Z</time>
      </trkpt>
      <trkpt lat="43.63189" lon="2.32036">
        <ele>242.449244</ele>
        <time>2021-10-03T08:20:28.000Z</time>
      </trkpt>
      <trkpt lat="43.63188" lon="2.32046">
        <ele>241.683386</ele>
        <time>2021-10-03T08:20:29.000Z</time>
      </trkpt>
      <trkpt lat="43.63189" lon="2.32055">
        <ele>240.976617</ele>
        <time>2021-10-03T08:20:30.000Z</time>
      </trkpt>
      <trkpt lat="43.63189" lon="2.32062">
        <ele>240.428434</ele>
        <time>2021-10-03T08:20:31.000Z</time>
      </trkpt>
      <trkpt lat="43.63191" lon="2.32068">
        <ele>239.937875</ele>
        <time>2021-10-03T08:20:32.000Z</time>
      </trkpt>
      <trkpt lat="43.63194" lon="2.32072">
        <ele>239.504685</ele>
        <time>2021-10-03T08:20:33.000Z</time>
      </trkpt>
      <trkpt lat="43.63197" lon="2.32075">
        <ele>239.094473</ele>
        <time>2021-10-03T08:20:34.000Z</time>
      </trkpt>
      <trkpt lat="43.632" lon="2.32077">
        <ele>238.737772</ele>
        <time>2021-10-03T08:20:35.000Z</time>
      </trkpt>
      <trkpt lat="43.63201" lon="2.32079">
        <ele>238.487519</ele>
        <time>2021-10-03T08:20:36.000Z</time>
      </trkpt>
      <trkpt lat="43.63202" lon="2.32082">
        <ele>238.27126</ele>
        <time>2021-10-03T08:20:37.000Z</time>
      </trkpt>
      <trkpt lat="43.63203" lon="2.32084">
        <ele>238.035937</ele>
        <time>2021-10-03T08:20:38.000Z</time>
      </trkpt>
      <trkpt lat="43.63205" lon="2.32087">
        <ele>237.781197</ele>
        <time>2021-10-03T08:20:39.000Z</time>
      </trkpt>
      <trkpt lat="43.63206" lon="2.3209">
        <ele>237.481867</ele>
        <time>2021-10-03T08:20:40.000Z</time>
      </trkpt>
      <trkpt lat="43.63207" lon="2.32094">
        <ele>237.186448</ele>
        <time>2021-10-03T08:20:41.000Z</time>
      </trkpt>
      <trkpt lat="43.63208" lon="2.32098">
        <ele>236.850776</ele>
        <time>2021-10-03T08:20:42.000Z</time>
      </trkpt>
      <trkpt lat="43.63209" lon="2.32102">
        <ele>236.47457</ele>
        <time>2021-10-03T08:20:43.000Z</time>
      </trkpt>
      <trkpt lat="43.63211" lon="2.32106">
        <ele>236.135023</ele>
        <time>2021-10-03T08:20:44.000Z</time>
      </trkpt>
      <trkpt lat="43.63212" lon="2.32111">
        <ele>235.710433</ele>
        <time>2021-10-03T08:20:45.000Z</time>
      </trkpt>
      <trkpt lat="43.63214" lon="2.32116">
        <ele>235.302989</ele>
        <time>2021-10-03T08:20:46.000Z</time>
      </trkpt>
      <trkpt lat="43.63215" lon="2.3212">
        <ele>234.94522</ele>
        <time>2021-10-03T08:20:47.000Z</time>
      </trkpt>
      <trkpt lat="43.63216" lon="2.32124">
        <ele>234.594838</ele>
        <time>2021-10-03T08:20:48.000Z</time>
      </trkpt>
      <trkpt lat="43.63217" lon="2.32129">
        <ele>234.185474</ele>
        <time>2021-10-03T08:20:49.000Z</time>
      </trkpt>
      <trkpt lat="43.63218" lon="2.32134">
        <ele>233.838542</ele>
        <time>2021-10-03T08:20:50.000Z</time>
      </trkpt>
      <trkpt lat="43.63218" lon="2.32137">
        <ele>233.569848</ele>
        <time>2021-10-03T08:20:51.000Z</time>
      </trkpt>
      <trkpt lat="43.63219" lon="2.3214">
        <ele>233.378683</ele>
        <time>2021-10-03T08:20:52.000Z</time>
      </trkpt>
      <trkpt lat="43.63219" lon="2.32143">
        <ele>233.1411</ele>
        <time>2021-10-03T08:20:53.000Z</time>
      </trkpt>
      <trkpt lat="43.63219" lon="2.32147">
        <ele>232.867879</ele>
        <time>2021-10-03T08:20:54.000Z</time>
      </trkpt>
      <trkpt lat="43.6322" lon="2.32151">
        <ele>232.589166</ele>
        <time>2021-10-03T08:20:55.000Z</time>
      </trkpt>
      <trkpt lat="43.63221" lon="2.32155">
        <ele>232.321314</ele>
        <time>2021-10-03T08:20:56.000Z</time>
      </trkpt>
      <trkpt lat="43.63223" lon="2.32159">
        <ele>231.956056</ele>
        <time>2021-10-03T08:20:57.000Z</time>
      </trkpt>
      <trkpt lat="43.63225" lon="2.32163">
        <ele>231.589768</ele>
        <time>2021-10-03T08:20:58.000Z</time>
      </trkpt>
      <trkpt lat="43.63226" lon="2.32168">
        <ele>231.227283</ele>
        <time>2021-10-03T08:20:59.000Z</time>
      </trkpt>
      <trkpt lat="43.63228" lon="2.32173">
        <ele>230.891913</ele>
        <time>2021-10-03T08:21:00.000Z</time>
      </trkpt>
      <trkpt lat="43.63229" lon="2.32176">
        <ele>230.633588</ele>
        <time>2021-10-03T08:21:01.000Z</time>
      </trkpt>
      <trkpt lat="43.6323" lon="2.32179">
        <ele>230.40188</ele>
        <time>2021-10-03T08:21:02.000Z</time>
      </trkpt>
      <trkpt lat="43.63231" lon="2.32182">
        <ele>230.224284</ele>
        <time>2021-10-03T08:21:03.000Z</time>
      </trkpt>
      <trkpt lat="43.63231" lon="2.32184">
        <ele>230.063915</ele>
        <time>2021-10-03T08:21:04.000Z</time>
      </trkpt>
      <trkpt lat="43.63231" lon="2.32185">
        <ele>229.980129</ele>
        <time>2021-10-03T08:21:05.000Z</time>
      </trkpt>
      <trkpt lat="43.63232" lon="2.32188">
        <ele>229.781195</ele>
        <time>2021-10-03T08:21:06.000Z</time>
      </trkpt>
      <trkpt lat="43.63233" lon="2.32189">
        <ele>229.623025</ele>
        <time>2021-10-03T08:21:07.000Z</time>
      </trkpt>
      <trkpt lat="43.63234" lon="2.3219">
        <ele>229.537637</ele>
        <time>2021-10-03T08:21:08.000Z</time>
      </trkpt>
      <trkpt lat="43.63234" lon="2.3219">
        <ele>229.528054</ele>
        <time>2021-10-03T08:21:09.000Z</time>
      </trkpt>
      <trkpt lat="43.63234" lon="2.3219">
        <ele>229.528054</ele>
        <time>2021-10-03T08:21:10.000Z</time>
      </trkpt>
      <trkpt lat="43.63237" lon="2.32204">
        <ele>228.536241</ele>
        <time>2021-10-03T08:21:40.000Z</time>
      </trkpt>
      <trkpt lat="43.63237" lon="2.32203">
        <ele>228.48892</ele>
        <time>2021-10-03T08:21:41.000Z</time>
      </trkpt>
      <trkpt lat="43.63237" lon="2.32203">
        <ele>228.48892</ele>
        <time>2021-10-03T08:21:42.000Z</time>
      </trkpt>
      <trkpt lat="43.63237" lon="2.32203">
        <ele>228.48892</ele>
        <time>2021-10-03T08:21:43.000Z</time>
      </trkpt>
      <trkpt lat="43.63251" lon="2.3219">
        <ele>226.836611</ele>
        <time>2021-10-03T08:24:24.000Z</time>
      </trkpt>
      <trkpt lat="43.63253" lon="2.3219">
        <ele>226.720776</ele>
        <time>2021-10-03T08:24:25.000Z</time>
      </trkpt>
      <trkpt lat="43.63253" lon="2.3219">
        <ele>226.681819</ele>
        <time>2021-10-03T08:24:26.000Z</time>
      </trkpt>
      <trkpt lat="43.63254" lon="2.3219">
        <ele>226.613316</ele>
        <time>2021-10-03T08:24:27.000Z</time>
      </trkpt>
      <trkpt lat="43.63254" lon="2.3219">
        <ele>226.603732</ele>
        <time>2021-10-03T08:24:28.000Z</time>
      </trkpt>
      <trkpt lat="43.63254" lon="2.3219">
        <ele>226.603732</ele>
        <time>2021-10-03T08:24:30.000Z</time>
      </trkpt>
      <trkpt lat="43.63254" lon="2.3219">
        <ele>226.603732</ele>
        <time>2021-10-03T08:24:32.000Z</time>
      </trkpt>
      <trkpt lat="43.63254" lon="2.3219">
        <ele>226.603732</ele>
        <time>2021-10-03T08:24:34.000Z</time>
      </trkpt>
      <trkpt lat="43.63254" lon="2.3219">
        <ele>226.603732</ele>
        <time>2021-10-03T08:24:35.000Z</time>
      </trkpt>
      <trkpt lat="43.63254" lon="2.3219">
        <ele>226.603732</ele>
        <time>2021-10-03T08:24:36.000Z</time>
      </trkpt>
      <trkpt lat="43.63254" lon="2.3219">
        <ele>226.603732</ele>
        <time>2021-10-03T08:24:37.000Z</time>
      </trkpt>
      <trkpt lat="43.63254" lon="2.3219">
        <ele>226.603732</ele>
        <time>2021-10-03T08:24:39.000Z</time>
      </trkpt>
      <trkpt lat="43.63254" lon="2.3219">
        <ele>226.603732</ele>
        <time>2021-10-03T08:24:40.000Z</time>
      </trkpt>
      <trkpt lat="43.63254" lon="2.3219">
        <ele>226.603732</ele>
        <time>2021-10-03T08:24:41.000Z</time>
      </trkpt>
      <trkpt lat="43.63262" lon="2.32188">
        <ele>225.797459</ele>
        <time>2021-10-03T08:24:42.000Z</time>
      </trkpt>
      <trkpt lat="43.63263" lon="2.32188">
        <ele>225.679158</ele>
        <time>2021-10-03T08:24:43.000Z</time>
      </trkpt>
      <trkpt lat="43.63264" lon="2.32188">
        <ele>225.57374</ele>
        <time>2021-10-03T08:24:44.000Z</time>
      </trkpt>
      <trkpt lat="43.63265" lon="2.32187">
        <ele>225.511877</ele>
        <time>2021-10-03T08:24:45.000Z</time>
      </trkpt>
      <trkpt lat="43.63265" lon="2.32187">
        <ele>225.511877</ele>
        <time>2021-10-03T08:24:46.000Z</time>
      </trkpt>
      <trkpt lat="43.63267" lon="2.32185">
        <ele>225.306757</ele>
        <time>2021-10-03T08:24:47.000Z</time>
      </trkpt>
      <trkpt lat="43.63268" lon="2.32184">
        <ele>225.128873</ele>
        <time>2021-10-03T08:24:48.000Z</time>
      </trkpt>
      <trkpt lat="43.6327" lon="2.32182">
        <ele>224.942945</ele>
        <time>2021-10-03T08:24:49.000Z</time>
      </trkpt>
      <trkpt lat="43.63271" lon="2.3218">
        <ele>224.736168</ele>
        <time>2021-10-03T08:24:50.000Z</time>
      </trkpt>
      <trkpt lat="43.63272" lon="2.32177">
        <ele>224.496691</ele>
        <time>2021-10-03T08:24:51.000Z</time>
      </trkpt>
      <trkpt lat="43.63274" lon="2.32175">
        <ele>224.293498</ele>
        <time>2021-10-03T08:24:52.000Z</time>
      </trkpt>
      <trkpt lat="43.63275" lon="2.32172">
        <ele>224.038962</ele>
        <time>2021-10-03T08:24:53.000Z</time>
      </trkpt>
      <trkpt lat="43.63276" lon="2.32169">
        <ele>223.819769</ele>
        <time>2021-10-03T08:24:54.000Z</time>
      </trkpt>
      <trkpt lat="43.63277" lon="2.32166">
        <ele>223.577026</ele>
        <time>2021-10-03T08:24:55.000Z</time>
      </trkpt>
      <trkpt lat="43.63277" lon="2.32163">
        <ele>223.389501</ele>
        <time>2021-10-03T08:24:56.000Z</time>
      </trkpt>
      <trkpt lat="43.63277" lon="2.32161">
        <ele>223.227396</ele>
        <time>2021-10-03T08:24:57.000Z</time>
      </trkpt>
      <trkpt lat="43.63278" lon="2.32159">
        <ele>223.090144</ele>
        <time>2021-10-03T08:24:58.000Z</time>
      </trkpt>
      <trkpt lat="43.63278" lon="2.32157">
        <ele>222.914369</ele>
        <time>2021-10-03T08:24:59.000Z</time>
      </trkpt>
      <trkpt lat="43.63277" lon="2.32154">
        <ele>222.719916</ele>
        <time>2021-10-03T08:25:00.000Z</time>
      </trkpt>
      <trkpt lat="43.63276" lon="2.32151">
        <ele>222.478149</ele>
        <time>2021-10-03T08:25:01.000Z</time>
      </trkpt>
      <trkpt lat="43.63275" lon="2.32148">
        <ele>222.236104</ele>
        <time>2021-10-03T08:25:02.000Z</time>
      </trkpt>
      <trkpt lat="43.63273" lon="2.32145">
        <ele>222.000014</ele>
        <time>2021-10-03T08:25:03.000Z</time>
      </trkpt>
      <trkpt lat="43.63271" lon="2.32142">
        <ele>221.718249</ele>
        <time>2021-10-03T08:25:04.000Z</time>
      </trkpt>
      <trkpt lat="43.63271" lon="2.32139">
        <ele>221.496485</ele>
        <time>2021-10-03T08:25:05.000Z</time>
      </trkpt>
      <trkpt lat="43.6327" lon="2.32135">
        <ele>221.243853</ele>
        <time>2021-10-03T08:25:06.000Z</time>
      </trkpt>
      <trkpt lat="43.63269" lon="2.32132">
        <ele>220.966402</ele>
        <time>2021-10-03T08:25:07.000Z</time>
      </trkpt>
      <trkpt lat="43.63268" lon="2.32128">
        <ele>220.691898</ele>
        <time>2021-10-03T08:25:08.000Z</time>
      </trkpt>
      <trkpt lat="43.63267" lon="2.32124">
        <ele>220.379417</ele>
        <time>2021-10-03T08:25:09.000Z</time>
      </trkpt>
      <trkpt lat="43.63265" lon="2.32122">
        <ele>220.159468</ele>
        <time>2021-10-03T08:25:10.000Z</time>
      </trkpt>
      <trkpt lat="43.63263" lon="2.32119">
        <ele>219.921893</ele>
        <time>2021-10-03T08:25:11.000Z</time>
      </trkpt>
      <trkpt lat="43.63263" lon="2.32117">
        <ele>219.734367</ele>
        <time>2021-10-03T08:25:12.000Z</time>
      </trkpt>
      <trkpt lat="43.63264" lon="2.32113">
        <ele>219.4691</ele>
        <time>2021-10-03T08:25:13.000Z</time>
      </trkpt>
      <trkpt lat="43.63265" lon="2.3211">
        <ele>219.219115</ele>
        <time>2021-10-03T08:25:14.000Z</time>
      </trkpt>
      <trkpt lat="43.63266" lon="2.32107">
        <ele>219.034742</ele>
        <time>2021-10-03T08:25:15.000Z</time>
      </trkpt>
      <trkpt lat="43.63265" lon="2.32105">
        <ele>218.861676</ele>
        <time>2021-10-03T08:25:16.000Z</time>
      </trkpt>
      <trkpt lat="43.63264" lon="2.32102">
        <ele>218.639912</ele>
        <time>2021-10-03T08:25:17.000Z</time>
      </trkpt>
      <trkpt lat="43.63264" lon="2.32097">
        <ele>218.311659</ele>
        <time>2021-10-03T08:25:18.000Z</time>
      </trkpt>
      <trkpt lat="43.63264" lon="2.32092">
        <ele>217.930161</ele>
        <time>2021-10-03T08:25:19.000Z</time>
      </trkpt>
      <trkpt lat="43.63263" lon="2.32087">
        <ele>217.608796</ele>
        <time>2021-10-03T08:25:20.000Z</time>
      </trkpt>
      <trkpt lat="43.63263" lon="2.32084">
        <ele>217.366024</ele>
        <time>2021-10-03T08:25:21.000Z</time>
      </trkpt>
      <trkpt lat="43.63263" lon="2.32081">
        <ele>217.164871</ele>
        <time>2021-10-03T08:25:22.000Z</time>
      </trkpt>
      <trkpt lat="43.63262" lon="2.32079">
        <ele>216.990509</ele>
        <time>2021-10-03T08:25:23.000Z</time>
      </trkpt>
      <trkpt lat="43.63261" lon="2.32076">
        <ele>216.799429</ele>
        <time>2021-10-03T08:25:24.000Z</time>
      </trkpt>
      <trkpt lat="43.63261" lon="2.32075">
        <ele>216.726171</ele>
        <time>2021-10-03T08:25:25.000Z</time>
      </trkpt>
      <trkpt lat="43.63261" lon="2.32074">
        <ele>216.642386</ele>
        <time>2021-10-03T08:25:26.000Z</time>
      </trkpt>
      <trkpt lat="43.63261" lon="2.32073">
        <ele>216.574942</ele>
        <time>2021-10-03T08:25:27.000Z</time>
      </trkpt>
      <trkpt lat="43.63261" lon="2.32073">
        <ele>216.568005</ele>
        <time>2021-10-03T08:25:28.000Z</time>
      </trkpt>
      <trkpt lat="43.63255" lon="2.32062">
        <ele>215.493841</ele>
        <time>2021-10-03T08:26:32.000Z</time>
      </trkpt>
      <trkpt lat="43.63255" lon="2.32059">
        <ele>215.280024</ele>
        <time>2021-10-03T08:26:33.000Z</time>
      </trkpt>
      <trkpt lat="43.63256" lon="2.32057">
        <ele>215.072059</ele>
        <time>2021-10-03T08:26:34.000Z</time>
      </trkpt>
      <trkpt lat="43.63257" lon="2.32054">
        <ele>214.859991</ele>
        <time>2021-10-03T08:26:35.000Z</time>
      </trkpt>
      <trkpt lat="43.63257" lon="2.32052">
        <ele>214.666034</ele>
        <time>2021-10-03T08:26:36.000Z</time>
      </trkpt>
      <trkpt lat="43.63258" lon="2.32049">
        <ele>214.417991</ele>
        <time>2021-10-03T08:26:37.000Z</time>
      </trkpt>
      <trkpt lat="43.63257" lon="2.32046">
        <ele>214.158402</ele>
        <time>2021-10-03T08:26:38.000Z</time>
      </trkpt>
      <trkpt lat="43.63257" lon="2.32043">
        <ele>213.964445</ele>
        <time>2021-10-03T08:26:39.000Z</time>
      </trkpt>
      <trkpt lat="43.63258" lon="2.32041">
        <ele>213.819396</ele>
        <time>2021-10-03T08:26:40.000Z</time>
      </trkpt>
      <trkpt lat="43.63259" lon="2.3204">
        <ele>213.67484</ele>
        <time>2021-10-03T08:26:41.000Z</time>
      </trkpt>
      <trkpt lat="43.6326" lon="2.32039">
        <ele>213.533695</ele>
        <time>2021-10-03T08:26:42.000Z</time>
      </trkpt>
      <trkpt lat="43.63262" lon="2.32038">
        <ele>213.287754</ele>
        <time>2021-10-03T08:26:43.000Z</time>
      </trkpt>
      <trkpt lat="43.63263" lon="2.32037">
        <ele>213.128264</ele>
        <time>2021-10-03T08:26:44.000Z</time>
      </trkpt>
      <trkpt lat="43.63265" lon="2.32036">
        <ele>212.965868</ele>
        <time>2021-10-03T08:26:45.000Z</time>
      </trkpt>
      <trkpt lat="43.63266" lon="2.32036">
        <ele>212.861889</ele>
        <time>2021-10-03T08:26:46.000Z</time>
      </trkpt>
      <trkpt lat="43.63267" lon="2.32035">
        <ele>212.692178</ele>
        <time>2021-10-03T08:26:47.000Z</time>
      </trkpt>
      <trkpt lat="43.63269" lon="2.32034">
        <ele>212.451442</ele>
        <time>2021-10-03T08:26:48.000Z</time>
      </trkpt>
      <trkpt lat="43.63271" lon="2.32032">
        <ele>212.243481</ele>
        <time>2021-10-03T08:26:49.000Z</time>
      </trkpt>
      <trkpt lat="43.63272" lon="2.32031">
        <ele>212.066803</ele>
        <time>2021-10-03T08:26:50.000Z</time>
      </trkpt>
      <trkpt lat="43.63273" lon="2.32029">
        <ele>211.922246</ele>
        <time>2021-10-03T08:26:51.000Z</time>
      </trkpt>
      <trkpt lat="43.63273" lon="2.32028">
        <ele>211.783561</ele>
        <time>2021-10-03T08:26:52.000Z</time>
      </trkpt>
      <trkpt lat="43.63274" lon="2.32025">
        <ele>211.57734</ele>
        <time>2021-10-03T08:26:53.000Z</time>
      </trkpt>
      <trkpt lat="43.63274" lon="2.32023">
        <ele>211.369376</ele>
        <time>2021-10-03T08:26:54.000Z</time>
      </trkpt>
      <trkpt lat="43.63276" lon="2.3202">
        <ele>211.11744</ele>
        <time>2021-10-03T08:26:55.000Z</time>
      </trkpt>
      <trkpt lat="43.63278" lon="2.32017">
        <ele>210.82528</ele>
        <time>2021-10-03T08:26:56.000Z</time>
      </trkpt>
      <trkpt lat="43.63279" lon="2.32015">
        <ele>210.566371</ele>
        <time>2021-10-03T08:26:57.000Z</time>
      </trkpt>
      <trkpt lat="43.6328" lon="2.32013">
        <ele>210.405391</ele>
        <time>2021-10-03T08:26:58.000Z</time>
      </trkpt>
      <trkpt lat="43.6328" lon="2.32011">
        <ele>210.259309</ele>
        <time>2021-10-03T08:26:59.000Z</time>
      </trkpt>
      <trkpt lat="43.63281" lon="2.32009">
        <ele>210.098329</ele>
        <time>2021-10-03T08:27:00.000Z</time>
      </trkpt>
      <trkpt lat="43.63282" lon="2.32008">
        <ele>209.938016</ele>
        <time>2021-10-03T08:27:01.000Z</time>
      </trkpt>
      <trkpt lat="43.63283" lon="2.32007">
        <ele>209.730058</ele>
        <time>2021-10-03T08:27:02.000Z</time>
      </trkpt>
      <trkpt lat="43.63285" lon="2.32006">
        <ele>209.550159</ele>
        <time>2021-10-03T08:27:03.000Z</time>
      </trkpt>
      <trkpt lat="43.63288" lon="2.32005">
        <ele>209.262848</ele>
        <time>2021-10-03T08:27:04.000Z</time>
      </trkpt>
      <trkpt lat="43.63291" lon="2.32003">
        <ele>208.834701</ele>
        <time>2021-10-03T08:27:05.000Z</time>
      </trkpt>
      <trkpt lat="43.63295" lon="2.32001">
        <ele>208.421853</ele>
        <time>2021-10-03T08:27:06.000Z</time>
      </trkpt>
      <trkpt lat="43.63298" lon="2.31996">
        <ele>207.974316</ele>
        <time>2021-10-03T08:27:07.000Z</time>
      </trkpt>
      <trkpt lat="43.63301" lon="2.31993">
        <ele>207.546292</ele>
        <time>2021-10-03T08:27:08.000Z</time>
      </trkpt>
      <trkpt lat="43.63304" lon="2.3199">
        <ele>207.103461</ele>
        <time>2021-10-03T08:27:09.000Z</time>
      </trkpt>
      <trkpt lat="43.63308" lon="2.31988">
        <ele>206.63475</ele>
        <time>2021-10-03T08:27:10.000Z</time>
      </trkpt>
      <trkpt lat="43.63313" lon="2.31985">
        <ele>206.082996</ele>
        <time>2021-10-03T08:27:11.000Z</time>
      </trkpt>
      <trkpt lat="43.63317" lon="2.31982">
        <ele>205.646342</ele>
        <time>2021-10-03T08:27:12.000Z</time>
      </trkpt>
      <trkpt lat="43.6332" lon="2.31978">
        <ele>205.169199</ele>
        <time>2021-10-03T08:27:13.000Z</time>
      </trkpt>
      <trkpt lat="43.63323" lon="2.31975">
        <ele>204.705276</ele>
        <time>2021-10-03T08:27:14.000Z</time>
      </trkpt>
      <trkpt lat="43.63327" lon="2.31971">
        <ele>204.281015</ele>
        <time>2021-10-03T08:27:15.000Z</time>
      </trkpt>
      <trkpt lat="43.63329" lon="2.31968">
        <ele>203.931113</ele>
        <time>2021-10-03T08:27:16.000Z</time>
      </trkpt>
      <trkpt lat="43.63332" lon="2.31964">
        <ele>203.49939</ele>
        <time>2021-10-03T08:27:17.000Z</time>
      </trkpt>
      <trkpt lat="43.63334" lon="2.31961">
        <ele>203.099301</ele>
        <time>2021-10-03T08:27:18.000Z</time>
      </trkpt>
      <trkpt lat="43.63337" lon="2.31957">
        <ele>202.678593</ele>
        <time>2021-10-03T08:27:19.000Z</time>
      </trkpt>
      <trkpt lat="43.6334" lon="2.31953">
        <ele>202.287319</ele>
        <time>2021-10-03T08:27:20.000Z</time>
      </trkpt>
      <trkpt lat="43.63343" lon="2.31948">
        <ele>201.790223</ele>
        <time>2021-10-03T08:27:21.000Z</time>
      </trkpt>
      <trkpt lat="43.63345" lon="2.31944">
        <ele>201.354407</ele>
        <time>2021-10-03T08:27:22.000Z</time>
      </trkpt>
      <trkpt lat="43.63348" lon="2.3194">
        <ele>200.912761</ele>
        <time>2021-10-03T08:27:23.000Z</time>
      </trkpt>
      <trkpt lat="43.63351" lon="2.31935">
        <ele>200.472081</ele>
        <time>2021-10-03T08:27:24.000Z</time>
      </trkpt>
      <trkpt lat="43.63354" lon="2.31929">
        <ele>199.868599</ele>
        <time>2021-10-03T08:27:25.000Z</time>
      </trkpt>
      <trkpt lat="43.63357" lon="2.31923">
        <ele>199.271282</ele>
        <time>2021-10-03T08:27:26.000Z</time>
      </trkpt>
      <trkpt lat="43.63361" lon="2.31915">
        <ele>198.54825</ele>
        <time>2021-10-03T08:27:27.000Z</time>
      </trkpt>
      <trkpt lat="43.63365" lon="2.31908">
        <ele>197.849392</ele>
        <time>2021-10-03T08:27:28.000Z</time>
      </trkpt>
      <trkpt lat="43.63367" lon="2.31899">
        <ele>197.163177</ele>
        <time>2021-10-03T08:27:29.000Z</time>
      </trkpt>
      <trkpt lat="43.63369" lon="2.31891">
        <ele>196.887103</ele>
        <time>2021-10-03T08:27:30.000Z</time>
      </trkpt>
      <trkpt lat="43.63371" lon="2.31882">
        <ele>196.62344</ele>
        <time>2021-10-03T08:27:31.000Z</time>
      </trkpt>
      <trkpt lat="43.63373" lon="2.31874">
        <ele>196.380396</ele>
        <time>2021-10-03T08:27:32.000Z</time>
      </trkpt>
      <trkpt lat="43.63376" lon="2.31867">
        <ele>196.16213</ele>
        <time>2021-10-03T08:27:33.000Z</time>
      </trkpt>
      <trkpt lat="43.6338" lon="2.31862">
        <ele>195.960207</ele>
        <time>2021-10-03T08:27:34.000Z</time>
      </trkpt>
      <trkpt lat="43.63383" lon="2.31857">
        <ele>195.76382</ele>
        <time>2021-10-03T08:27:35.000Z</time>
      </trkpt>
      <trkpt lat="43.63387" lon="2.31853">
        <ele>195.58355</ele>
        <time>2021-10-03T08:27:36.000Z</time>
      </trkpt>
      <trkpt lat="43.63392" lon="2.31851">
        <ele>195.371411</ele>
        <time>2021-10-03T08:27:37.000Z</time>
      </trkpt>
      <trkpt lat="43.63398" lon="2.3185">
        <ele>195.164788</ele>
        <time>2021-10-03T08:27:38.000Z</time>
      </trkpt>
      <trkpt lat="43.63403" lon="2.3185">
        <ele>194.959632</ele>
        <time>2021-10-03T08:27:39.000Z</time>
      </trkpt>
      <trkpt lat="43.63408" lon="2.31852">
        <ele>194.757419</ele>
        <time>2021-10-03T08:27:40.000Z</time>
      </trkpt>
      <trkpt lat="43.63413" lon="2.31856">
        <ele>194.531312</ele>
        <time>2021-10-03T08:27:41.000Z</time>
      </trkpt>
      <trkpt lat="43.63418" lon="2.31859">
        <ele>194.321486</ele>
        <time>2021-10-03T08:27:42.000Z</time>
      </trkpt>
      <trkpt lat="43.63423" lon="2.31861">
        <ele>194.13313</ele>
        <time>2021-10-03T08:27:43.000Z</time>
      </trkpt>
      <trkpt lat="43.63428" lon="2.31863">
        <ele>193.930917</ele>
        <time>2021-10-03T08:27:44.000Z</time>
      </trkpt>
      <trkpt lat="43.63432" lon="2.31866">
        <ele>193.751672</ele>
        <time>2021-10-03T08:27:45.000Z</time>
      </trkpt>
      <trkpt lat="43.63437" lon="2.31868">
        <ele>193.568761</ele>
        <time>2021-10-03T08:27:46.000Z</time>
      </trkpt>
      <trkpt lat="43.63441" lon="2.3187">
        <ele>193.382984</ele>
        <time>2021-10-03T08:27:47.000Z</time>
      </trkpt>
      <trkpt lat="43.63446" lon="2.31871">
        <ele>193.175555</ele>
        <time>2021-10-03T08:27:48.000Z</time>
      </trkpt>
      <trkpt lat="43.63451" lon="2.31874">
        <ele>192.986265</ele>
        <time>2021-10-03T08:27:49.000Z</time>
      </trkpt>
      <trkpt lat="43.63456" lon="2.31877">
        <ele>192.776438</ele>
        <time>2021-10-03T08:27:50.000Z</time>
      </trkpt>
      <trkpt lat="43.63461" lon="2.31879">
        <ele>192.556945</ele>
        <time>2021-10-03T08:27:51.000Z</time>
      </trkpt>
      <trkpt lat="43.63466" lon="2.31881">
        <ele>192.366684</ele>
        <time>2021-10-03T08:27:52.000Z</time>
      </trkpt>
      <trkpt lat="43.6347" lon="2.31883">
        <ele>192.198827</ele>
        <time>2021-10-03T08:27:53.000Z</time>
      </trkpt>
      <trkpt lat="43.63474" lon="2.31885">
        <ele>192.039722</ele>
        <time>2021-10-03T08:27:54.000Z</time>
      </trkpt>
      <trkpt lat="43.6349" lon="2.31888">
        <ele>208.9</ele>
      </trkpt>
      <trkpt lat="43.63505" lon="2.31907">
        <ele>210</ele>
      </trkpt>
      <trkpt lat="43.63605" lon="2.31966">
        <ele>212.5</ele>
      </trkpt>
      <trkpt lat="43.63646" lon="2.31991">
        <ele>209</ele>
      </trkpt>
      <trkpt lat="43.63654" lon="2.31997">
        <ele>207.9</ele>
      </trkpt>
      <trkpt lat="43.63696" lon="2.32008">
        <ele>207.9</ele>
      </trkpt>
      <trkpt lat="43.63789" lon="2.32021">
        <ele>210.9</ele>
      </trkpt>
      <trkpt lat="43.63809" lon="2.32002">
        <ele>203.7</ele>
      </trkpt>
      <trkpt lat="43.6385" lon="2.31981">
        <ele>202.4</ele>
      </trkpt>
      <trkpt lat="43.63917" lon="2.31927">
        <ele>197.5</ele>
      </trkpt>
      <trkpt lat="43.63937" lon="2.31916">
        <ele>189.178879</ele>
        <time>2021-10-03T08:29:57.000Z</time>
      </trkpt>
      <trkpt lat="43.63942" lon="2.31911">
        <ele>189.17251</ele>
        <time>2021-10-03T08:29:58.000Z</time>
      </trkpt>
      <trkpt lat="43.63948" lon="2.31907">
        <ele>189.166224</ele>
        <time>2021-10-03T08:29:59.000Z</time>
      </trkpt>
      <trkpt lat="43.63953" lon="2.31902">
        <ele>189.16034</ele>
        <time>2021-10-03T08:30:00.000Z</time>
      </trkpt>
      <trkpt lat="43.63958" lon="2.31896">
        <ele>189.153775</ele>
        <time>2021-10-03T08:30:01.000Z</time>
      </trkpt>
      <trkpt lat="43.63963" lon="2.31891">
        <ele>189.147492</ele>
        <time>2021-10-03T08:30:02.000Z</time>
      </trkpt>
      <trkpt lat="43.63968" lon="2.31886">
        <ele>189.141571</ele>
        <time>2021-10-03T08:30:03.000Z</time>
      </trkpt>
      <trkpt lat="43.63974" lon="2.31881">
        <ele>189.135087</ele>
        <time>2021-10-03T08:30:04.000Z</time>
      </trkpt>
      <trkpt lat="43.63979" lon="2.31876">
        <ele>189.129086</ele>
        <time>2021-10-03T08:30:05.000Z</time>
      </trkpt>
      <trkpt lat="43.63984" lon="2.31872">
        <ele>189.122958</ele>
        <time>2021-10-03T08:30:06.000Z</time>
      </trkpt>
      <trkpt lat="43.6399" lon="2.31868">
        <ele>189.116731</ele>
        <time>2021-10-03T08:30:07.000Z</time>
      </trkpt>
      <trkpt lat="43.63995" lon="2.31865">
        <ele>189.11076</ele>
        <time>2021-10-03T08:30:08.000Z</time>
      </trkpt>
      <trkpt lat="43.64002" lon="2.31863">
        <ele>189.104606</ele>
        <time>2021-10-03T08:30:09.000Z</time>
      </trkpt>
      <trkpt lat="43.64008" lon="2.31861">
        <ele>189.09854</ele>
        <time>2021-10-03T08:30:10.000Z</time>
      </trkpt>
      <trkpt lat="43.64014" lon="2.3186">
        <ele>189.121181</ele>
        <time>2021-10-03T08:30:11.000Z</time>
      </trkpt>
      <trkpt lat="43.6402" lon="2.3186">
        <ele>189.158313</ele>
        <time>2021-10-03T08:30:12.000Z</time>
      </trkpt>
      <trkpt lat="43.64026" lon="2.31859">
        <ele>189.197225</ele>
        <time>2021-10-03T08:30:13.000Z</time>
      </trkpt>
      <trkpt lat="43.64032" lon="2.31859">
        <ele>189.234899</ele>
        <time>2021-10-03T08:30:14.000Z</time>
      </trkpt>
      <trkpt lat="43.64038" lon="2.31859">
        <ele>189.270751</ele>
        <time>2021-10-03T08:30:15.000Z</time>
      </trkpt>
      <trkpt lat="43.64045" lon="2.31859">
        <ele>189.310251</ele>
        <time>2021-10-03T08:30:16.000Z</time>
      </trkpt>
      <trkpt lat="43.64051" lon="2.3186">
        <ele>189.350416</ele>
        <time>2021-10-03T08:30:17.000Z</time>
      </trkpt>
      <trkpt lat="43.64058" lon="2.3186">
        <ele>189.389923</ele>
        <time>2021-10-03T08:30:18.000Z</time>
      </trkpt>
      <trkpt lat="43.64064" lon="2.3186">
        <ele>189.428815</ele>
        <time>2021-10-03T08:30:19.000Z</time>
      </trkpt>
      <trkpt lat="43.64071" lon="2.31861">
        <ele>189.468959</ele>
        <time>2021-10-03T08:30:20.000Z</time>
      </trkpt>
      <trkpt lat="43.64077" lon="2.31861">
        <ele>189.506091</ele>
        <time>2021-10-03T08:30:21.000Z</time>
      </trkpt>
      <trkpt lat="43.64083" lon="2.31861">
        <ele>189.543181</ele>
        <time>2021-10-03T08:30:22.000Z</time>
      </trkpt>
      <trkpt lat="43.6409" lon="2.31862">
        <ele>189.582093</ele>
        <time>2021-10-03T08:30:23.000Z</time>
      </trkpt>
      <trkpt lat="43.64096" lon="2.31862">
        <ele>189.619832</ele>
        <time>2021-10-03T08:30:24.000Z</time>
      </trkpt>
      <trkpt lat="43.64102" lon="2.31863">
        <ele>189.658761</ele>
        <time>2021-10-03T08:30:25.000Z</time>
      </trkpt>
      <trkpt lat="43.64109" lon="2.31863">
        <ele>189.699061</ele>
        <time>2021-10-03T08:30:26.000Z</time>
      </trkpt>
      <trkpt lat="43.64115" lon="2.31865">
        <ele>189.737103</ele>
        <time>2021-10-03T08:30:27.000Z</time>
      </trkpt>
      <trkpt lat="43.64121" lon="2.31866">
        <ele>189.776027</ele>
        <time>2021-10-03T08:30:28.000Z</time>
      </trkpt>
      <trkpt lat="43.64127" lon="2.31868">
        <ele>189.812247</ele>
        <time>2021-10-03T08:30:29.000Z</time>
      </trkpt>
      <trkpt lat="43.64133" lon="2.3187">
        <ele>189.849858</ele>
        <time>2021-10-03T08:30:30.000Z</time>
      </trkpt>
      <trkpt lat="43.64139" lon="2.31872">
        <ele>189.885886</ele>
        <time>2021-10-03T08:30:31.000Z</time>
      </trkpt>
      <trkpt lat="43.64145" lon="2.31874">
        <ele>189.924308</ele>
        <time>2021-10-03T08:30:32.000Z</time>
      </trkpt>
      <trkpt lat="43.64151" lon="2.31876">
        <ele>189.960528</ele>
        <time>2021-10-03T08:30:33.000Z</time>
      </trkpt>
      <trkpt lat="43.64156" lon="2.31878">
        <ele>189.996057</ele>
        <time>2021-10-03T08:30:34.000Z</time>
      </trkpt>
      <trkpt lat="43.64162" lon="2.3188">
        <ele>190.032396</ele>
        <time>2021-10-03T08:30:35.000Z</time>
      </trkpt>
      <trkpt lat="43.64168" lon="2.31882">
        <ele>190.068132</ele>
        <time>2021-10-03T08:30:36.000Z</time>
      </trkpt>
      <trkpt lat="43.64174" lon="2.31885">
        <ele>190.106922</ele>
        <time>2021-10-03T08:30:37.000Z</time>
      </trkpt>
      <trkpt lat="43.6418" lon="2.31888">
        <ele>190.147294</ele>
        <time>2021-10-03T08:30:38.000Z</time>
      </trkpt>
      <trkpt lat="43.64186" lon="2.31891">
        <ele>190.18565</ele>
        <time>2021-10-03T08:30:39.000Z</time>
      </trkpt>
      <trkpt lat="43.64191" lon="2.31894">
        <ele>190.401334</ele>
        <time>2021-10-03T08:30:40.000Z</time>
      </trkpt>
      <trkpt lat="43.64197" lon="2.31897">
        <ele>190.646186</ele>
        <time>2021-10-03T08:30:41.000Z</time>
      </trkpt>
      <trkpt lat="43.64202" lon="2.31901">
        <ele>190.914112</ele>
        <time>2021-10-03T08:30:42.000Z</time>
      </trkpt>
      <trkpt lat="43.64207" lon="2.31904">
        <ele>191.129628</ele>
        <time>2021-10-03T08:30:43.000Z</time>
      </trkpt>
      <trkpt lat="43.64213" lon="2.31909">
        <ele>191.431948</ele>
        <time>2021-10-03T08:30:44.000Z</time>
      </trkpt>
      <trkpt lat="43.64217" lon="2.31913">
        <ele>191.661062</ele>
        <time>2021-10-03T08:30:45.000Z</time>
      </trkpt>
      <trkpt lat="43.64223" lon="2.31917">
        <ele>191.913999</ele>
        <time>2021-10-03T08:30:46.000Z</time>
      </trkpt>
      <trkpt lat="43.64228" lon="2.31922">
        <ele>192.195449</ele>
        <time>2021-10-03T08:30:47.000Z</time>
      </trkpt>
      <trkpt lat="43.64234" lon="2.31926">
        <ele>192.470165</ele>
        <time>2021-10-03T08:30:48.000Z</time>
      </trkpt>
      <trkpt lat="43.64239" lon="2.31929">
        <ele>192.72784</ele>
        <time>2021-10-03T08:30:49.000Z</time>
      </trkpt>
      <trkpt lat="43.64245" lon="2.31933">
        <ele>192.973881</ele>
        <time>2021-10-03T08:30:50.000Z</time>
      </trkpt>
      <trkpt lat="43.6425" lon="2.31935">
        <ele>193.21456</ele>
        <time>2021-10-03T08:30:51.000Z</time>
      </trkpt>
      <trkpt lat="43.64255" lon="2.31936">
        <ele>193.4555</ele>
        <time>2021-10-03T08:30:52.000Z</time>
      </trkpt>
      <trkpt lat="43.64261" lon="2.31937">
        <ele>193.692656</ele>
        <time>2021-10-03T08:30:53.000Z</time>
      </trkpt>
      <trkpt lat="43.64266" lon="2.31938">
        <ele>193.920268</ele>
        <time>2021-10-03T08:30:54.000Z</time>
      </trkpt>
      <trkpt lat="43.64271" lon="2.31939">
        <ele>194.13625</ele>
        <time>2021-10-03T08:30:55.000Z</time>
      </trkpt>
      <trkpt lat="43.64276" lon="2.3194">
        <ele>194.352231</ele>
        <time>2021-10-03T08:30:56.000Z</time>
      </trkpt>
      <trkpt lat="43.64282" lon="2.31941">
        <ele>194.581832</ele>
        <time>2021-10-03T08:30:57.000Z</time>
      </trkpt>
      <trkpt lat="43.64287" lon="2.31943">
        <ele>194.799337</ele>
        <time>2021-10-03T08:30:58.000Z</time>
      </trkpt>
      <trkpt lat="43.64291" lon="2.31944">
        <ele>195.001392</ele>
        <time>2021-10-03T08:30:59.000Z</time>
      </trkpt>
      <trkpt lat="43.64296" lon="2.31946">
        <ele>195.204958</ele>
        <time>2021-10-03T08:31:00.000Z</time>
      </trkpt>
      <trkpt lat="43.64301" lon="2.31948">
        <ele>195.427206</ele>
        <time>2021-10-03T08:31:01.000Z</time>
      </trkpt>
      <trkpt lat="43.64306" lon="2.3195">
        <ele>195.651534</ele>
        <time>2021-10-03T08:31:02.000Z</time>
      </trkpt>
      <trkpt lat="43.6431" lon="2.31952">
        <ele>195.838632</ele>
        <time>2021-10-03T08:31:03.000Z</time>
      </trkpt>
      <trkpt lat="43.64314" lon="2.31954">
        <ele>196.033603</ele>
        <time>2021-10-03T08:31:04.000Z</time>
      </trkpt>
      <trkpt lat="43.64318" lon="2.31957">
        <ele>196.222774</ele>
        <time>2021-10-03T08:31:05.000Z</time>
      </trkpt>
      <trkpt lat="43.64322" lon="2.31959">
        <ele>196.418276</ele>
        <time>2021-10-03T08:31:06.000Z</time>
      </trkpt>
      <trkpt lat="43.64326" lon="2.31961">
        <ele>196.60079</ele>
        <time>2021-10-03T08:31:07.000Z</time>
      </trkpt>
      <trkpt lat="43.64331" lon="2.31964">
        <ele>196.793928</ele>
        <time>2021-10-03T08:31:08.000Z</time>
      </trkpt>
      <trkpt lat="43.64334" lon="2.31966">
        <ele>196.970002</ele>
        <time>2021-10-03T08:31:09.000Z</time>
      </trkpt>
      <trkpt lat="43.64339" lon="2.31969">
        <ele>197.171918</ele>
        <time>2021-10-03T08:31:10.000Z</time>
      </trkpt>
      <trkpt lat="43.64342" lon="2.31972">
        <ele>197.349373</ele>
        <time>2021-10-03T08:31:11.000Z</time>
      </trkpt>
      <trkpt lat="43.64346" lon="2.31974">
        <ele>197.544876</ele>
        <time>2021-10-03T08:31:12.000Z</time>
      </trkpt>
      <trkpt lat="43.6435" lon="2.31976">
        <ele>197.723492</ele>
        <time>2021-10-03T08:31:13.000Z</time>
      </trkpt>
      <trkpt lat="43.64354" lon="2.31979">
        <ele>197.913701</ele>
        <time>2021-10-03T08:31:14.000Z</time>
      </trkpt>
      <trkpt lat="43.64358" lon="2.31981">
        <ele>198.16953</ele>
        <time>2021-10-03T08:31:15.000Z</time>
      </trkpt>
      <trkpt lat="43.64362" lon="2.31984">
        <ele>198.418317</ele>
        <time>2021-10-03T08:31:16.000Z</time>
      </trkpt>
      <trkpt lat="43.64366" lon="2.31986">
        <ele>198.660127</ele>
        <time>2021-10-03T08:31:17.000Z</time>
      </trkpt>
      <trkpt lat="43.64369" lon="2.31988">
        <ele>198.881046</ele>
        <time>2021-10-03T08:31:18.000Z</time>
      </trkpt>
      <trkpt lat="43.64373" lon="2.31991">
        <ele>199.114148</ele>
        <time>2021-10-03T08:31:19.000Z</time>
      </trkpt>
      <trkpt lat="43.64377" lon="2.31993">
        <ele>199.38218</ele>
        <time>2021-10-03T08:31:20.000Z</time>
      </trkpt>
      <trkpt lat="43.64381" lon="2.31996">
        <ele>199.60346</ele>
        <time>2021-10-03T08:31:21.000Z</time>
      </trkpt>
      <trkpt lat="43.64385" lon="2.31998">
        <ele>199.854082</ele>
        <time>2021-10-03T08:31:22.000Z</time>
      </trkpt>
      <trkpt lat="43.64389" lon="2.32001">
        <ele>200.109911</ele>
        <time>2021-10-03T08:31:23.000Z</time>
      </trkpt>
      <trkpt lat="43.64393" lon="2.32003">
        <ele>200.3552</ele>
        <time>2021-10-03T08:31:24.000Z</time>
      </trkpt>
      <trkpt lat="43.64396" lon="2.32006">
        <ele>200.59369</ele>
        <time>2021-10-03T08:31:25.000Z</time>
      </trkpt>
      <trkpt lat="43.644" lon="2.32009">
        <ele>200.844312</ele>
        <time>2021-10-03T08:31:26.000Z</time>
      </trkpt>
      <trkpt lat="43.64404" lon="2.32011">
        <ele>201.086122</ele>
        <time>2021-10-03T08:31:27.000Z</time>
      </trkpt>
      <trkpt lat="43.64408" lon="2.32014">
        <ele>201.33162</ele>
        <time>2021-10-03T08:31:28.000Z</time>
      </trkpt>
      <trkpt lat="43.64412" lon="2.32016">
        <ele>201.594366</ele>
        <time>2021-10-03T08:31:29.000Z</time>
      </trkpt>
      <trkpt lat="43.64416" lon="2.32019">
        <ele>201.839864</ele>
        <time>2021-10-03T08:31:30.000Z</time>
      </trkpt>
      <trkpt lat="43.6442" lon="2.32022">
        <ele>202.08349</ele>
        <time>2021-10-03T08:31:31.000Z</time>
      </trkpt>
      <trkpt lat="43.64424" lon="2.32024">
        <ele>202.349634</ele>
        <time>2021-10-03T08:31:32.000Z</time>
      </trkpt>
      <trkpt lat="43.64428" lon="2.32027">
        <ele>202.577508</ele>
        <time>2021-10-03T08:31:33.000Z</time>
      </trkpt>
      <trkpt lat="43.64475" lon="2.32063">
        <ele>206.05109</ele>
        <time>2021-10-03T08:31:45.000Z</time>
      </trkpt>
      <trkpt lat="43.64479" lon="2.32065">
        <ele>206.290096</ele>
        <time>2021-10-03T08:31:46.000Z</time>
      </trkpt>
      <trkpt lat="43.64483" lon="2.32067">
        <ele>206.523725</ele>
        <time>2021-10-03T08:31:47.000Z</time>
      </trkpt>
      <trkpt lat="43.64487" lon="2.32069">
        <ele>206.754524</ele>
        <time>2021-10-03T08:31:48.000Z</time>
      </trkpt>
      <trkpt lat="43.6449" lon="2.32071">
        <ele>206.966833</ele>
        <time>2021-10-03T08:31:49.000Z</time>
      </trkpt>
      <trkpt lat="43.64494" lon="2.32074">
        <ele>207.199934</ele>
        <time>2021-10-03T08:31:50.000Z</time>
      </trkpt>
      <trkpt lat="43.64498" lon="2.32076">
        <ele>207.433317</ele>
        <time>2021-10-03T08:31:51.000Z</time>
      </trkpt>
      <trkpt lat="43.64501" lon="2.32079">
        <ele>207.675125</ele>
        <time>2021-10-03T08:31:52.000Z</time>
      </trkpt>
      <trkpt lat="43.64505" lon="2.32081">
        <ele>207.913478</ele>
        <time>2021-10-03T08:31:53.000Z</time>
      </trkpt>
      <trkpt lat="43.64509" lon="2.32083">
        <ele>208.134396</ele>
        <time>2021-10-03T08:31:54.000Z</time>
      </trkpt>
      <trkpt lat="43.64513" lon="2.32085">
        <ele>208.397264</ele>
        <time>2021-10-03T08:31:55.000Z</time>
      </trkpt>
      <trkpt lat="43.64516" lon="2.32087">
        <ele>208.680554</ele>
        <time>2021-10-03T08:31:56.000Z</time>
      </trkpt>
      <trkpt lat="43.6452" lon="2.3209">
        <ele>208.967951</ele>
        <time>2021-10-03T08:31:57.000Z</time>
      </trkpt>
      <trkpt lat="43.64524" lon="2.32092">
        <ele>209.255348</ele>
        <time>2021-10-03T08:31:58.000Z</time>
      </trkpt>
      <trkpt lat="43.64528" lon="2.32095">
        <ele>209.540656</ele>
        <time>2021-10-03T08:31:59.000Z</time>
      </trkpt>
      <trkpt lat="43.64532" lon="2.32097">
        <ele>209.823945</ele>
        <time>2021-10-03T08:32:00.000Z</time>
      </trkpt>
      <trkpt lat="43.64535" lon="2.32099">
        <ele>210.092743</ele>
        <time>2021-10-03T08:32:01.000Z</time>
      </trkpt>
      <trkpt lat="43.64539" lon="2.32102">
        <ele>210.386731</ele>
        <time>2021-10-03T08:32:02.000Z</time>
      </trkpt>
      <trkpt lat="43.64543" lon="2.32104">
        <ele>210.672553</ele>
        <time>2021-10-03T08:32:03.000Z</time>
      </trkpt>
      <trkpt lat="43.64547" lon="2.32106">
        <ele>210.981058</ele>
        <time>2021-10-03T08:32:04.000Z</time>
      </trkpt>
      <trkpt lat="43.64551" lon="2.32108">
        <ele>211.2542</ele>
        <time>2021-10-03T08:32:05.000Z</time>
      </trkpt>
      <trkpt lat="43.64555" lon="2.3211">
        <ele>211.536585</ele>
        <time>2021-10-03T08:32:06.000Z</time>
      </trkpt>
      <trkpt lat="43.64559" lon="2.32112">
        <ele>211.836867</ele>
        <time>2021-10-03T08:32:07.000Z</time>
      </trkpt>
      <trkpt lat="43.64563" lon="2.32114">
        <ele>212.112821</ele>
        <time>2021-10-03T08:32:08.000Z</time>
      </trkpt>
      <trkpt lat="43.64567" lon="2.32115">
        <ele>212.413103</ele>
        <time>2021-10-03T08:32:09.000Z</time>
      </trkpt>
      <trkpt lat="43.6457" lon="2.32117">
        <ele>212.656824</ele>
        <time>2021-10-03T08:32:10.000Z</time>
      </trkpt>
      <trkpt lat="43.64575" lon="2.32119">
        <ele>212.96018</ele>
        <time>2021-10-03T08:32:11.000Z</time>
      </trkpt>
      <trkpt lat="43.64578" lon="2.3212">
        <ele>213.199809</ele>
        <time>2021-10-03T08:32:12.000Z</time>
      </trkpt>
      <trkpt lat="43.64582" lon="2.32122">
        <ele>213.508313</ele>
        <time>2021-10-03T08:32:13.000Z</time>
      </trkpt>
      <trkpt lat="43.64586" lon="2.32124">
        <ele>213.789093</ele>
        <time>2021-10-03T08:32:14.000Z</time>
      </trkpt>
      <trkpt lat="43.6459" lon="2.32126">
        <ele>214.04546</ele>
        <time>2021-10-03T08:32:15.000Z</time>
      </trkpt>
      <trkpt lat="43.64593" lon="2.32129">
        <ele>214.339533</ele>
        <time>2021-10-03T08:32:16.000Z</time>
      </trkpt>
      <trkpt lat="43.64597" lon="2.32133">
        <ele>214.628867</ele>
        <time>2021-10-03T08:32:17.000Z</time>
      </trkpt>
      <trkpt lat="43.646" lon="2.32136">
        <ele>214.918379</ele>
        <time>2021-10-03T08:32:18.000Z</time>
      </trkpt>
      <trkpt lat="43.64603" lon="2.3214">
        <ele>215.201348</ele>
        <time>2021-10-03T08:32:19.000Z</time>
      </trkpt>
      <trkpt lat="43.64606" lon="2.32144">
        <ele>215.477673</ele>
        <time>2021-10-03T08:32:20.000Z</time>
      </trkpt>
      <trkpt lat="43.64609" lon="2.32148">
        <ele>215.774702</ele>
        <time>2021-10-03T08:32:21.000Z</time>
      </trkpt>
      <trkpt lat="43.64612" lon="2.32153">
        <ele>216.067381</ele>
        <time>2021-10-03T08:32:22.000Z</time>
      </trkpt>
      <trkpt lat="43.64614" lon="2.32158">
        <ele>216.363914</ele>
        <time>2021-10-03T08:32:23.000Z</time>
      </trkpt>
      <trkpt lat="43.64617" lon="2.32163">
        <ele>216.665065</ele>
        <time>2021-10-03T08:32:24.000Z</time>
      </trkpt>
      <trkpt lat="43.64619" lon="2.32168">
        <ele>216.957335</ele>
        <time>2021-10-03T08:32:25.000Z</time>
      </trkpt>
      <trkpt lat="43.64621" lon="2.32173">
        <ele>217.240784</ele>
        <time>2021-10-03T08:32:26.000Z</time>
      </trkpt>
      <trkpt lat="43.64622" lon="2.32179">
        <ele>217.526603</ele>
        <time>2021-10-03T08:32:27.000Z</time>
      </trkpt>
      <trkpt lat="43.64623" lon="2.32184">
        <ele>217.798971</ele>
        <time>2021-10-03T08:32:28.000Z</time>
      </trkpt>
      <trkpt lat="43.64624" lon="2.3219">
        <ele>218.082832</ele>
        <time>2021-10-03T08:32:29.000Z</time>
      </trkpt>
      <trkpt lat="43.64625" lon="2.32195">
        <ele>218.364796</ele>
        <time>2021-10-03T08:32:30.000Z</time>
      </trkpt>
      <trkpt lat="43.64626" lon="2.32201">
        <ele>218.653391</ele>
        <time>2021-10-03T08:32:31.000Z</time>
      </trkpt>
      <trkpt lat="43.64627" lon="2.32206">
        <ele>218.931452</ele>
        <time>2021-10-03T08:32:32.000Z</time>
      </trkpt>
      <trkpt lat="43.64628" lon="2.32212">
        <ele>219.222955</ele>
        <time>2021-10-03T08:32:33.000Z</time>
      </trkpt>
      <trkpt lat="43.64628" lon="2.32217">
        <ele>219.481353</ele>
        <time>2021-10-03T08:32:34.000Z</time>
      </trkpt>
      <trkpt lat="43.64629" lon="2.32223">
        <ele>219.787203</ele>
        <time>2021-10-03T08:32:35.000Z</time>
      </trkpt>
      <trkpt lat="43.6463" lon="2.32229">
        <ele>220.06926</ele>
        <time>2021-10-03T08:32:36.000Z</time>
      </trkpt>
      <trkpt lat="43.64631" lon="2.32234">
        <ele>220.356167</ele>
        <time>2021-10-03T08:32:37.000Z</time>
      </trkpt>
      <trkpt lat="43.64632" lon="2.3224">
        <ele>220.594325</ele>
        <time>2021-10-03T08:32:38.000Z</time>
      </trkpt>
      <trkpt lat="43.64633" lon="2.32246">
        <ele>220.808049</ele>
        <time>2021-10-03T08:32:39.000Z</time>
      </trkpt>
      <trkpt lat="43.64633" lon="2.32251">
        <ele>220.994079</ele>
        <time>2021-10-03T08:32:40.000Z</time>
      </trkpt>
      <trkpt lat="43.64634" lon="2.32258">
        <ele>221.225986</ele>
        <time>2021-10-03T08:32:41.000Z</time>
      </trkpt>
      <trkpt lat="43.64635" lon="2.32264">
        <ele>221.42562</ele>
        <time>2021-10-03T08:32:42.000Z</time>
      </trkpt>
      <trkpt lat="43.64636" lon="2.3227">
        <ele>221.643081</ele>
        <time>2021-10-03T08:32:43.000Z</time>
      </trkpt>
      <trkpt lat="43.64637" lon="2.32276">
        <ele>221.852934</ele>
        <time>2021-10-03T08:32:44.000Z</time>
      </trkpt>
      <trkpt lat="43.64637" lon="2.32282">
        <ele>222.0806</ele>
        <time>2021-10-03T08:32:45.000Z</time>
      </trkpt>
      <trkpt lat="43.64638" lon="2.32289">
        <ele>222.301461</ele>
        <time>2021-10-03T08:32:46.000Z</time>
      </trkpt>
      <trkpt lat="43.64639" lon="2.32295">
        <ele>222.518921</ele>
        <time>2021-10-03T08:32:47.000Z</time>
      </trkpt>
      <trkpt lat="43.6464" lon="2.32301">
        <ele>222.742421</ele>
        <time>2021-10-03T08:32:48.000Z</time>
      </trkpt>
      <trkpt lat="43.6464" lon="2.32308">
        <ele>222.960793</ele>
        <time>2021-10-03T08:32:49.000Z</time>
      </trkpt>
      <trkpt lat="43.6464" lon="2.32314">
        <ele>223.182606</ele>
        <time>2021-10-03T08:32:50.000Z</time>
      </trkpt>
      <trkpt lat="43.64641" lon="2.3232">
        <ele>223.400978</ele>
        <time>2021-10-03T08:32:51.000Z</time>
      </trkpt>
      <trkpt lat="43.64641" lon="2.32327">
        <ele>223.618515</ele>
        <time>2021-10-03T08:32:52.000Z</time>
      </trkpt>
      <trkpt lat="43.64641" lon="2.32333">
        <ele>223.829145</ele>
        <time>2021-10-03T08:32:53.000Z</time>
      </trkpt>
      <trkpt lat="43.6464" lon="2.32339">
        <ele>224.045819</ele>
        <time>2021-10-03T08:32:54.000Z</time>
      </trkpt>
      <trkpt lat="43.6464" lon="2.32345">
        <ele>224.267632</ele>
        <time>2021-10-03T08:32:55.000Z</time>
      </trkpt>
      <trkpt lat="43.64639" lon="2.32351">
        <ele>224.468811</ele>
        <time>2021-10-03T08:32:56.000Z</time>
      </trkpt>
      <trkpt lat="43.64639" lon="2.32358">
        <ele>224.709395</ele>
        <time>2021-10-03T08:32:57.000Z</time>
      </trkpt>
      <trkpt lat="43.64638" lon="2.32364">
        <ele>224.920889</ele>
        <time>2021-10-03T08:32:58.000Z</time>
      </trkpt>
      <trkpt lat="43.64637" lon="2.3237">
        <ele>225.13835</ele>
        <time>2021-10-03T08:32:59.000Z</time>
      </trkpt>
      <trkpt lat="43.64637" lon="2.32376">
        <ele>225.355024</ele>
        <time>2021-10-03T08:33:00.000Z</time>
      </trkpt>
      <trkpt lat="43.64637" lon="2.32383">
        <ele>225.569161</ele>
        <time>2021-10-03T08:33:01.000Z</time>
      </trkpt>
      <trkpt lat="43.64637" lon="2.32389">
        <ele>225.783245</ele>
        <time>2021-10-03T08:33:02.000Z</time>
      </trkpt>
      <trkpt lat="43.64636" lon="2.32395">
        <ele>226.001617</ele>
        <time>2021-10-03T08:33:03.000Z</time>
      </trkpt>
      <trkpt lat="43.64636" lon="2.32401">
        <ele>226.205844</ele>
        <time>2021-10-03T08:33:04.000Z</time>
      </trkpt>
      <trkpt lat="43.64636" lon="2.32407">
        <ele>226.406627</ele>
        <time>2021-10-03T08:33:05.000Z</time>
      </trkpt>
      <trkpt lat="43.64637" lon="2.32413">
        <ele>226.61989</ele>
        <time>2021-10-03T08:33:06.000Z</time>
      </trkpt>
      <trkpt lat="43.64637" lon="2.32418">
        <ele>226.802959</ele>
        <time>2021-10-03T08:33:07.000Z</time>
      </trkpt>
      <trkpt lat="43.64637" lon="2.32425">
        <ele>227.038197</ele>
        <time>2021-10-03T08:33:08.000Z</time>
      </trkpt>
      <trkpt lat="43.64638" lon="2.32431">
        <ele>227.234427</ele>
        <time>2021-10-03T08:33:09.000Z</time>
      </trkpt>
      <trkpt lat="43.64639" lon="2.32437">
        <ele>227.467002</ele>
        <time>2021-10-03T08:33:10.000Z</time>
      </trkpt>
      <trkpt lat="43.64639" lon="2.32443">
        <ele>227.673447</ele>
        <time>2021-10-03T08:33:11.000Z</time>
      </trkpt>
      <trkpt lat="43.6464" lon="2.32449">
        <ele>227.881502</ele>
        <time>2021-10-03T08:33:12.000Z</time>
      </trkpt>
      <trkpt lat="43.64641" lon="2.32455">
        <ele>228.103963</ele>
        <time>2021-10-03T08:33:13.000Z</time>
      </trkpt>
      <trkpt lat="43.64643" lon="2.32461">
        <ele>228.333278</ele>
        <time>2021-10-03T08:33:14.000Z</time>
      </trkpt>
      <trkpt lat="43.64645" lon="2.32467">
        <ele>228.53857</ele>
        <time>2021-10-03T08:33:15.000Z</time>
      </trkpt>
      <trkpt lat="43.64646" lon="2.32473">
        <ele>228.76586</ele>
        <time>2021-10-03T08:33:16.000Z</time>
      </trkpt>
      <trkpt lat="43.64648" lon="2.32479">
        <ele>228.983422</ele>
        <time>2021-10-03T08:33:17.000Z</time>
      </trkpt>
      <trkpt lat="43.6465" lon="2.32485">
        <ele>229.223712</ele>
        <time>2021-10-03T08:33:18.000Z</time>
      </trkpt>
      <trkpt lat="43.64651" lon="2.32491">
        <ele>229.486197</ele>
        <time>2021-10-03T08:33:19.000Z</time>
      </trkpt>
      <trkpt lat="43.64653" lon="2.32496">
        <ele>229.748682</ele>
        <time>2021-10-03T08:33:20.000Z</time>
      </trkpt>
      <trkpt lat="43.64654" lon="2.32502">
        <ele>230.017194</ele>
        <time>2021-10-03T08:33:21.000Z</time>
      </trkpt>
      <trkpt lat="43.64656" lon="2.32508">
        <ele>230.284639</ele>
        <time>2021-10-03T08:33:22.000Z</time>
      </trkpt>
      <trkpt lat="43.64658" lon="2.32514">
        <ele>230.539114</ele>
        <time>2021-10-03T08:33:23.000Z</time>
      </trkpt>
      <trkpt lat="43.64659" lon="2.32519">
        <ele>230.785613</ele>
        <time>2021-10-03T08:33:24.000Z</time>
      </trkpt>
      <trkpt lat="43.64661" lon="2.32525">
        <ele>231.050138</ele>
        <time>2021-10-03T08:33:25.000Z</time>
      </trkpt>
      <trkpt lat="43.64662" lon="2.3253">
        <ele>231.297424</ele>
        <time>2021-10-03T08:33:26.000Z</time>
      </trkpt>
      <trkpt lat="43.64663" lon="2.32536">
        <ele>231.558601</ele>
        <time>2021-10-03T08:33:27.000Z</time>
      </trkpt>
      <trkpt lat="43.64664" lon="2.32542">
        <ele>231.810002</ele>
        <time>2021-10-03T08:33:28.000Z</time>
      </trkpt>
      <trkpt lat="43.64666" lon="2.32548">
        <ele>232.068477</ele>
        <time>2021-10-03T08:33:29.000Z</time>
      </trkpt>
      <trkpt lat="43.64667" lon="2.32553">
        <ele>232.314976</ele>
        <time>2021-10-03T08:33:30.000Z</time>
      </trkpt>
      <trkpt lat="43.64669" lon="2.32559">
        <ele>232.567596</ele>
        <time>2021-10-03T08:33:31.000Z</time>
      </trkpt>
      <trkpt lat="43.6467" lon="2.32564">
        <ele>232.826071</ele>
        <time>2021-10-03T08:33:32.000Z</time>
      </trkpt>
      <trkpt lat="43.64672" lon="2.3257">
        <ele>233.076553</ele>
        <time>2021-10-03T08:33:33.000Z</time>
      </trkpt>
      <trkpt lat="43.64673" lon="2.32574">
        <ele>233.261086</ele>
        <time>2021-10-03T08:33:34.000Z</time>
      </trkpt>
      <trkpt lat="43.64675" lon="2.3258">
        <ele>233.574634</ele>
        <time>2021-10-03T08:33:35.000Z</time>
      </trkpt>
      <trkpt lat="43.64677" lon="2.32586">
        <ele>233.834361</ele>
        <time>2021-10-03T08:33:36.000Z</time>
      </trkpt>
      <trkpt lat="43.64679" lon="2.32591">
        <ele>234.094083</ele>
        <time>2021-10-03T08:33:37.000Z</time>
      </trkpt>
      <trkpt lat="43.64682" lon="2.32596">
        <ele>234.332362</ele>
        <time>2021-10-03T08:33:38.000Z</time>
      </trkpt>
      <trkpt lat="43.64685" lon="2.32601">
        <ele>234.632731</ele>
        <time>2021-10-03T08:33:39.000Z</time>
      </trkpt>
      <trkpt lat="43.64687" lon="2.32606">
        <ele>234.895199</ele>
        <time>2021-10-03T08:33:40.000Z</time>
      </trkpt>
      <trkpt lat="43.6469" lon="2.32611">
        <ele>235.155952</ele>
        <time>2021-10-03T08:33:41.000Z</time>
      </trkpt>
      <trkpt lat="43.64693" lon="2.32615">
        <ele>235.423833</ele>
        <time>2021-10-03T08:33:42.000Z</time>
      </trkpt>
      <trkpt lat="43.64696" lon="2.3262">
        <ele>235.687735</ele>
        <time>2021-10-03T08:33:43.000Z</time>
      </trkpt>
      <trkpt lat="43.64699" lon="2.32625">
        <ele>235.946825</ele>
        <time>2021-10-03T08:33:44.000Z</time>
      </trkpt>
      <trkpt lat="43.64702" lon="2.3263">
        <ele>236.220358</ele>
        <time>2021-10-03T08:33:45.000Z</time>
      </trkpt>
      <trkpt lat="43.64705" lon="2.32635">
        <ele>236.493107</ele>
        <time>2021-10-03T08:33:46.000Z</time>
      </trkpt>
      <trkpt lat="43.64707" lon="2.32641">
        <ele>236.771231</ele>
        <time>2021-10-03T08:33:47.000Z</time>
      </trkpt>
      <trkpt lat="43.64709" lon="2.32646">
        <ele>237.035754</ele>
        <time>2021-10-03T08:33:48.000Z</time>
      </trkpt>
      <trkpt lat="43.64711" lon="2.32652">
        <ele>237.307074</ele>
        <time>2021-10-03T08:33:49.000Z</time>
      </trkpt>
      <trkpt lat="43.64712" lon="2.32658">
        <ele>237.579577</ele>
        <time>2021-10-03T08:33:50.000Z</time>
      </trkpt>
      <trkpt lat="43.64714" lon="2.32664">
        <ele>237.846077</ele>
        <time>2021-10-03T08:33:51.000Z</time>
      </trkpt>
      <trkpt lat="43.64715" lon="2.3267">
        <ele>238.10455</ele>
        <time>2021-10-03T08:33:52.000Z</time>
      </trkpt>
      <trkpt lat="43.64717" lon="2.32675">
        <ele>238.360437</ele>
        <time>2021-10-03T08:33:53.000Z</time>
      </trkpt>
      <trkpt lat="43.64719" lon="2.3268">
        <ele>238.60489</ele>
        <time>2021-10-03T08:33:54.000Z</time>
      </trkpt>
      <trkpt lat="43.64721" lon="2.32686">
        <ele>238.868256</ele>
        <time>2021-10-03T08:33:55.000Z</time>
      </trkpt>
      <trkpt lat="43.64723" lon="2.32691">
        <ele>239.116506</ele>
        <time>2021-10-03T08:33:56.000Z</time>
      </trkpt>
      <trkpt lat="43.64725" lon="2.32696">
        <ele>239.3726</ele>
        <time>2021-10-03T08:33:57.000Z</time>
      </trkpt>
      <trkpt lat="43.64728" lon="2.32701">
        <ele>239.638463</ele>
        <time>2021-10-03T08:33:58.000Z</time>
      </trkpt>
      <trkpt lat="43.6473" lon="2.32706">
        <ele>239.890917</ele>
        <time>2021-10-03T08:33:59.000Z</time>
      </trkpt>
      <trkpt lat="43.64732" lon="2.32711">
        <ele>240.13779</ele>
        <time>2021-10-03T08:34:00.000Z</time>
      </trkpt>
      <trkpt lat="43.64735" lon="2.32717">
        <ele>240.393937</ele>
        <time>2021-10-03T08:34:01.000Z</time>
      </trkpt>
      <trkpt lat="43.64736" lon="2.32722">
        <ele>240.616978</ele>
        <time>2021-10-03T08:34:02.000Z</time>
      </trkpt>
      <trkpt lat="43.64738" lon="2.32727">
        <ele>240.871285</ele>
        <time>2021-10-03T08:34:03.000Z</time>
      </trkpt>
      <trkpt lat="43.6474" lon="2.32731">
        <ele>241.067634</ele>
        <time>2021-10-03T08:34:04.000Z</time>
      </trkpt>
      <trkpt lat="43.64742" lon="2.32737">
        <ele>241.364421</ele>
        <time>2021-10-03T08:34:05.000Z</time>
      </trkpt>
      <trkpt lat="43.64744" lon="2.32742">
        <ele>241.611294</ele>
        <time>2021-10-03T08:34:06.000Z</time>
      </trkpt>
      <trkpt lat="43.64746" lon="2.32748">
        <ele>241.855501</ele>
        <time>2021-10-03T08:34:07.000Z</time>
      </trkpt>
      <trkpt lat="43.64748" lon="2.32752">
        <ele>242.093694</ele>
        <time>2021-10-03T08:34:08.000Z</time>
      </trkpt>
      <trkpt lat="43.64751" lon="2.32757">
        <ele>242.34207</ele>
        <time>2021-10-03T08:34:09.000Z</time>
      </trkpt>
      <trkpt lat="43.64753" lon="2.32762">
        <ele>242.583413</ele>
        <time>2021-10-03T08:34:10.000Z</time>
      </trkpt>
      <trkpt lat="43.64755" lon="2.32767">
        <ele>242.81781</ele>
        <time>2021-10-03T08:34:11.000Z</time>
      </trkpt>
      <trkpt lat="43.64758" lon="2.32771">
        <ele>243.065213</ele>
        <time>2021-10-03T08:34:12.000Z</time>
      </trkpt>
      <trkpt lat="43.64761" lon="2.32775">
        <ele>243.30528</ele>
        <time>2021-10-03T08:34:13.000Z</time>
      </trkpt>
      <trkpt lat="43.64764" lon="2.32778">
        <ele>243.526977</ele>
        <time>2021-10-03T08:34:14.000Z</time>
      </trkpt>
      <trkpt lat="43.64769" lon="2.3278">
        <ele>243.802593</ele>
        <time>2021-10-03T08:34:15.000Z</time>
      </trkpt>
      <trkpt lat="43.64773" lon="2.32782">
        <ele>244.041282</ele>
        <time>2021-10-03T08:34:16.000Z</time>
      </trkpt>
      <trkpt lat="43.64777" lon="2.32784">
        <ele>244.297312</ele>
        <time>2021-10-03T08:34:17.000Z</time>
      </trkpt>
      <trkpt lat="43.64781" lon="2.32786">
        <ele>244.525152</ele>
        <time>2021-10-03T08:34:18.000Z</time>
      </trkpt>
      <trkpt lat="43.64785" lon="2.32787">
        <ele>244.778699</ele>
        <time>2021-10-03T08:34:19.000Z</time>
      </trkpt>
      <trkpt lat="43.64789" lon="2.32789">
        <ele>245.010098</ele>
        <time>2021-10-03T08:34:20.000Z</time>
      </trkpt>
      <trkpt lat="43.64793" lon="2.32791">
        <ele>245.262499</ele>
        <time>2021-10-03T08:34:21.000Z</time>
      </trkpt>
      <trkpt lat="43.64797" lon="2.32793">
        <ele>245.511728</ele>
        <time>2021-10-03T08:34:22.000Z</time>
      </trkpt>
      <trkpt lat="43.64801" lon="2.32795">
        <ele>245.754218</ele>
        <time>2021-10-03T08:34:23.000Z</time>
      </trkpt>
      <trkpt lat="43.64805" lon="2.32796">
        <ele>246.001038</ele>
        <time>2021-10-03T08:34:24.000Z</time>
      </trkpt>
      <trkpt lat="43.64809" lon="2.32798">
        <ele>246.259029</ele>
        <time>2021-10-03T08:34:25.000Z</time>
      </trkpt>
      <trkpt lat="43.64813" lon="2.328">
        <ele>246.513786</ele>
        <time>2021-10-03T08:34:26.000Z</time>
      </trkpt>
      <trkpt lat="43.64817" lon="2.32801">
        <ele>246.74651</ele>
        <time>2021-10-03T08:34:27.000Z</time>
      </trkpt>
      <trkpt lat="43.64821" lon="2.32803">
        <ele>247.001267</ele>
        <time>2021-10-03T08:34:28.000Z</time>
      </trkpt>
      <trkpt lat="43.64826" lon="2.32805">
        <ele>247.252586</ele>
        <time>2021-10-03T08:34:29.000Z</time>
      </trkpt>
      <trkpt lat="43.64829" lon="2.32806">
        <ele>247.480426</ele>
        <time>2021-10-03T08:34:30.000Z</time>
      </trkpt>
      <trkpt lat="43.64834" lon="2.32807">
        <ele>247.751632</ele>
        <time>2021-10-03T08:34:31.000Z</time>
      </trkpt>
      <trkpt lat="43.64838" lon="2.32808">
        <ele>247.97005</ele>
        <time>2021-10-03T08:34:32.000Z</time>
      </trkpt>
      <trkpt lat="43.64843" lon="2.32809">
        <ele>248.262741</ele>
        <time>2021-10-03T08:34:33.000Z</time>
      </trkpt>
      <trkpt lat="43.64847" lon="2.3281">
        <ele>248.501196</ele>
        <time>2021-10-03T08:34:34.000Z</time>
      </trkpt>
      <trkpt lat="43.64851" lon="2.32811">
        <ele>248.752037</ele>
        <time>2021-10-03T08:34:35.000Z</time>
      </trkpt>
      <trkpt lat="43.64856" lon="2.32811">
        <ele>249.019359</ele>
        <time>2021-10-03T08:34:36.000Z</time>
      </trkpt>
      <trkpt lat="43.6486" lon="2.32811">
        <ele>249.263009</ele>
        <time>2021-10-03T08:34:37.000Z</time>
      </trkpt>
      <trkpt lat="43.64864" lon="2.32812">
        <ele>249.525361</ele>
        <time>2021-10-03T08:34:38.000Z</time>
      </trkpt>
      <trkpt lat="43.64869" lon="2.32813">
        <ele>249.777982</ele>
        <time>2021-10-03T08:34:39.000Z</time>
      </trkpt>
      <trkpt lat="43.64873" lon="2.32814">
        <ele>250.028286</ele>
        <time>2021-10-03T08:34:40.000Z</time>
      </trkpt>
      <trkpt lat="43.64877" lon="2.32816">
        <ele>250.306713</ele>
        <time>2021-10-03T08:34:41.000Z</time>
      </trkpt>
      <trkpt lat="43.64881" lon="2.32817">
        <ele>250.562351</ele>
        <time>2021-10-03T08:34:42.000Z</time>
      </trkpt>
      <trkpt lat="43.64885" lon="2.32819">
        <ele>250.860392</ele>
        <time>2021-10-03T08:34:43.000Z</time>
      </trkpt>
      <trkpt lat="43.64889" lon="2.32821">
        <ele>251.134941</ele>
        <time>2021-10-03T08:34:44.000Z</time>
      </trkpt>
      <trkpt lat="43.64893" lon="2.32823">
        <ele>251.413862</ele>
        <time>2021-10-03T08:34:45.000Z</time>
      </trkpt>
      <trkpt lat="43.64896" lon="2.32826">
        <ele>251.670506</ele>
        <time>2021-10-03T08:34:46.000Z</time>
      </trkpt>
      <trkpt lat="43.649" lon="2.32829">
        <ele>251.95285</ele>
        <time>2021-10-03T08:34:47.000Z</time>
      </trkpt>
      <trkpt lat="43.64902" lon="2.32833">
        <ele>252.200495</ele>
        <time>2021-10-03T08:34:48.000Z</time>
      </trkpt>
      <trkpt lat="43.64905" lon="2.32838">
        <ele>252.505358</ele>
        <time>2021-10-03T08:34:49.000Z</time>
      </trkpt>
      <trkpt lat="43.64907" lon="2.32843">
        <ele>252.768975</ele>
        <time>2021-10-03T08:34:50.000Z</time>
      </trkpt>
      <trkpt lat="43.64908" lon="2.32848">
        <ele>253.056906</ele>
        <time>2021-10-03T08:34:51.000Z</time>
      </trkpt>
      <trkpt lat="43.64909" lon="2.32854">
        <ele>253.338522</ele>
        <time>2021-10-03T08:34:52.000Z</time>
      </trkpt>
      <trkpt lat="43.6491" lon="2.3286">
        <ele>253.624257</ele>
        <time>2021-10-03T08:34:53.000Z</time>
      </trkpt>
      <trkpt lat="43.6491" lon="2.32866">
        <ele>253.895593</ele>
        <time>2021-10-03T08:34:54.000Z</time>
      </trkpt>
      <trkpt lat="43.6491" lon="2.32871">
        <ele>254.170438</ele>
        <time>2021-10-03T08:34:55.000Z</time>
      </trkpt>
      <trkpt lat="43.64911" lon="2.32877">
        <ele>254.432179</ele>
        <time>2021-10-03T08:34:56.000Z</time>
      </trkpt>
      <trkpt lat="43.64911" lon="2.32882">
        <ele>254.706202</ele>
        <time>2021-10-03T08:34:57.000Z</time>
      </trkpt>
      <trkpt lat="43.64912" lon="2.32888">
        <ele>254.977538</ele>
        <time>2021-10-03T08:34:58.000Z</time>
      </trkpt>
      <trkpt lat="43.64912" lon="2.32894">
        <ele>255.263273</ele>
        <time>2021-10-03T08:34:59.000Z</time>
      </trkpt>
      <trkpt lat="43.64913" lon="2.32898">
        <ele>255.459004</ele>
        <time>2021-10-03T08:35:00.000Z</time>
      </trkpt>
      <trkpt lat="43.64913" lon="2.32905">
        <ele>255.818054</ele>
        <time>2021-10-03T08:35:01.000Z</time>
      </trkpt>
      <trkpt lat="43.64914" lon="2.32911">
        <ele>256.103789</ele>
        <time>2021-10-03T08:35:02.000Z</time>
      </trkpt>
      <trkpt lat="43.64914" lon="2.32917">
        <ele>256.370327</ele>
        <time>2021-10-03T08:35:03.000Z</time>
      </trkpt>
      <trkpt lat="43.64914" lon="2.32922">
        <ele>256.636865</ele>
        <time>2021-10-03T08:35:04.000Z</time>
      </trkpt>
      <trkpt lat="43.64915" lon="2.32928">
        <ele>256.927401</ele>
        <time>2021-10-03T08:35:05.000Z</time>
      </trkpt>
      <trkpt lat="43.64915" lon="2.32934">
        <ele>257.198737</ele>
        <time>2021-10-03T08:35:06.000Z</time>
      </trkpt>
      <trkpt lat="43.64915" lon="2.32939">
        <ele>257.479117</ele>
        <time>2021-10-03T08:35:07.000Z</time>
      </trkpt>
      <trkpt lat="43.64916" lon="2.32945">
        <ele>257.750453</ele>
        <time>2021-10-03T08:35:08.000Z</time>
      </trkpt>
      <trkpt lat="43.64916" lon="2.32951">
        <ele>258.020477</ele>
        <time>2021-10-03T08:35:09.000Z</time>
      </trkpt>
      <trkpt lat="43.64917" lon="2.32956">
        <ele>258.300444</ele>
        <time>2021-10-03T08:35:10.000Z</time>
      </trkpt>
      <trkpt lat="43.64917" lon="2.32962">
        <ele>258.576579</ele>
        <time>2021-10-03T08:35:11.000Z</time>
      </trkpt>
      <trkpt lat="43.64918" lon="2.32968">
        <ele>258.86011</ele>
        <time>2021-10-03T08:35:12.000Z</time>
      </trkpt>
      <trkpt lat="43.64918" lon="2.32973">
        <ele>259.120575</ele>
        <time>2021-10-03T08:35:13.000Z</time>
      </trkpt>
      <trkpt lat="43.64918" lon="2.32979">
        <ele>259.380954</ele>
        <time>2021-10-03T08:35:14.000Z</time>
      </trkpt>
      <trkpt lat="43.64918" lon="2.32984">
        <ele>259.651716</ele>
        <time>2021-10-03T08:35:15.000Z</time>
      </trkpt>
      <trkpt lat="43.64919" lon="2.3299">
        <ele>259.918254</ele>
        <time>2021-10-03T08:35:16.000Z</time>
      </trkpt>
      <trkpt lat="43.64919" lon="2.32995">
        <ele>260.183455</ele>
        <time>2021-10-03T08:35:17.000Z</time>
      </trkpt>
      <trkpt lat="43.6492" lon="2.33001">
        <ele>260.463251</ele>
        <time>2021-10-03T08:35:18.000Z</time>
      </trkpt>
      <trkpt lat="43.6492" lon="2.33007">
        <ele>260.739386</ele>
        <time>2021-10-03T08:35:19.000Z</time>
      </trkpt>
      <trkpt lat="43.64921" lon="2.33012">
        <ele>261.009887</ele>
        <time>2021-10-03T08:35:20.000Z</time>
      </trkpt>
      <trkpt lat="43.64922" lon="2.33017">
        <ele>261.286882</ele>
        <time>2021-10-03T08:35:21.000Z</time>
      </trkpt>
      <trkpt lat="43.64924" lon="2.33023">
        <ele>261.549898</ele>
        <time>2021-10-03T08:35:22.000Z</time>
      </trkpt>
      <trkpt lat="43.64925" lon="2.33028">
        <ele>261.840209</ele>
        <time>2021-10-03T08:35:23.000Z</time>
      </trkpt>
      <trkpt lat="43.64927" lon="2.33033">
        <ele>262.116798</ele>
        <time>2021-10-03T08:35:24.000Z</time>
      </trkpt>
      <trkpt lat="43.64931" lon="2.33039">
        <ele>262.465551</ele>
        <time>2021-10-03T08:35:25.000Z</time>
      </trkpt>
      <trkpt lat="43.64933" lon="2.33044">
        <ele>262.758496</ele>
        <time>2021-10-03T08:35:26.000Z</time>
      </trkpt>
      <trkpt lat="43.64936" lon="2.33048">
        <ele>263.028009</ele>
        <time>2021-10-03T08:35:27.000Z</time>
      </trkpt>
      <trkpt lat="43.64939" lon="2.33052">
        <ele>263.297615</ele>
        <time>2021-10-03T08:35:28.000Z</time>
      </trkpt>
      <trkpt lat="43.64941" lon="2.33056">
        <ele>263.565931</ele>
        <time>2021-10-03T08:35:29.000Z</time>
      </trkpt>
      <trkpt lat="43.64944" lon="2.33059">
        <ele>263.824432</ele>
        <time>2021-10-03T08:35:30.000Z</time>
      </trkpt>
      <trkpt lat="43.64948" lon="2.33063">
        <ele>264.121934</ele>
        <time>2021-10-03T08:35:31.000Z</time>
      </trkpt>
      <trkpt lat="43.64951" lon="2.33067">
        <ele>264.379738</ele>
        <time>2021-10-03T08:35:32.000Z</time>
      </trkpt>
      <trkpt lat="43.64955" lon="2.33071">
        <ele>264.69876</ele>
        <time>2021-10-03T08:35:33.000Z</time>
      </trkpt>
      <trkpt lat="43.64958" lon="2.33075">
        <ele>264.971673</ele>
        <time>2021-10-03T08:35:34.000Z</time>
      </trkpt>
      <trkpt lat="43.64961" lon="2.33079">
        <ele>265.27428</ele>
        <time>2021-10-03T08:35:35.000Z</time>
      </trkpt>
      <trkpt lat="43.64964" lon="2.33082">
        <ele>265.549201</ele>
        <time>2021-10-03T08:35:36.000Z</time>
      </trkpt>
      <trkpt lat="43.64968" lon="2.33086">
        <ele>265.856971</ele>
        <time>2021-10-03T08:35:37.000Z</time>
      </trkpt>
      <trkpt lat="43.64971" lon="2.3309">
        <ele>266.129883</ele>
        <time>2021-10-03T08:35:38.000Z</time>
      </trkpt>
      <trkpt lat="43.64975" lon="2.33093">
        <ele>266.4315</ele>
        <time>2021-10-03T08:35:39.000Z</time>
      </trkpt>
      <trkpt lat="43.64979" lon="2.33096">
        <ele>266.725508</ele>
        <time>2021-10-03T08:35:40.000Z</time>
      </trkpt>
      <trkpt lat="43.64982" lon="2.33099">
        <ele>267.019516</ele>
        <time>2021-10-03T08:35:41.000Z</time>
      </trkpt>
      <trkpt lat="43.64986" lon="2.33102">
        <ele>267.285722</ele>
        <time>2021-10-03T08:35:42.000Z</time>
      </trkpt>
      <trkpt lat="43.6499" lon="2.33105">
        <ele>267.580798</ele>
        <time>2021-10-03T08:35:43.000Z</time>
      </trkpt>
      <trkpt lat="43.64994" lon="2.33108">
        <ele>267.88136</ele>
        <time>2021-10-03T08:35:44.000Z</time>
      </trkpt>
      <trkpt lat="43.64998" lon="2.3311">
        <ele>268.165807</ele>
        <time>2021-10-03T08:35:45.000Z</time>
      </trkpt>
      <trkpt lat="43.65002" lon="2.33112">
        <ele>268.436734</ele>
        <time>2021-10-03T08:35:46.000Z</time>
      </trkpt>
      <trkpt lat="43.65006" lon="2.33114">
        <ele>268.735999</ele>
        <time>2021-10-03T08:35:47.000Z</time>
      </trkpt>
      <trkpt lat="43.6501" lon="2.33116">
        <ele>269.006926</ele>
        <time>2021-10-03T08:35:48.000Z</time>
      </trkpt>
      <trkpt lat="43.65013" lon="2.33118">
        <ele>269.274573</ele>
        <time>2021-10-03T08:35:49.000Z</time>
      </trkpt>
      <trkpt lat="43.65018" lon="2.3312">
        <ele>269.566167</ele>
        <time>2021-10-03T08:35:50.000Z</time>
      </trkpt>
      <trkpt lat="43.65021" lon="2.33121">
        <ele>269.825881</ele>
        <time>2021-10-03T08:35:51.000Z</time>
      </trkpt>
      <trkpt lat="43.65025" lon="2.33122">
        <ele>270.103279</ele>
        <time>2021-10-03T08:35:52.000Z</time>
      </trkpt>
      <trkpt lat="43.6503" lon="2.33123">
        <ele>270.396557</ele>
        <time>2021-10-03T08:35:53.000Z</time>
      </trkpt>
      <trkpt lat="43.65034" lon="2.33125">
        <ele>270.65987</ele>
        <time>2021-10-03T08:35:54.000Z</time>
      </trkpt>
      <trkpt lat="43.65038" lon="2.33126">
        <ele>270.945627</ele>
        <time>2021-10-03T08:35:55.000Z</time>
      </trkpt>
      <trkpt lat="43.65042" lon="2.33127">
        <ele>271.229589</ele>
        <time>2021-10-03T08:35:56.000Z</time>
      </trkpt>
      <trkpt lat="43.65046" lon="2.33128">
        <ele>271.512773</ele>
        <time>2021-10-03T08:35:57.000Z</time>
      </trkpt>
      <trkpt lat="43.6505" lon="2.33129">
        <ele>271.795956</ele>
        <time>2021-10-03T08:35:58.000Z</time>
      </trkpt>
      <trkpt lat="43.65055" lon="2.3313">
        <ele>272.07914</ele>
        <time>2021-10-03T08:35:59.000Z</time>
      </trkpt>
      <trkpt lat="43.65059" lon="2.33131">
        <ele>272.36396</ele>
        <time>2021-10-03T08:36:00.000Z</time>
      </trkpt>
      <trkpt lat="43.65063" lon="2.33132">
        <ele>272.651824</ele>
        <time>2021-10-03T08:36:01.000Z</time>
      </trkpt>
      <trkpt lat="43.65067" lon="2.33134">
        <ele>272.910135</ele>
        <time>2021-10-03T08:36:02.000Z</time>
      </trkpt>
      <trkpt lat="43.65071" lon="2.33136">
        <ele>273.217346</ele>
        <time>2021-10-03T08:36:03.000Z</time>
      </trkpt>
      <trkpt lat="43.65074" lon="2.33138">
        <ele>273.429161</ele>
        <time>2021-10-03T08:36:04.000Z</time>
      </trkpt>
      <trkpt lat="43.65079" lon="2.33141">
        <ele>273.77017</ele>
        <time>2021-10-03T08:36:05.000Z</time>
      </trkpt>
      <trkpt lat="43.65082" lon="2.33143">
        <ele>274.012752</ele>
        <time>2021-10-03T08:36:06.000Z</time>
      </trkpt>
      <trkpt lat="43.65085" lon="2.33146">
        <ele>274.310413</ele>
        <time>2021-10-03T08:36:07.000Z</time>
      </trkpt>
      <trkpt lat="43.65089" lon="2.33149">
        <ele>274.61085</ele>
        <time>2021-10-03T08:36:08.000Z</time>
      </trkpt>
      <trkpt lat="43.65093" lon="2.33151">
        <ele>274.909105</ele>
        <time>2021-10-03T08:36:09.000Z</time>
      </trkpt>
      <trkpt lat="43.65097" lon="2.33153">
        <ele>275.224583</ele>
        <time>2021-10-03T08:36:10.000Z</time>
      </trkpt>
      <trkpt lat="43.65101" lon="2.33155">
        <ele>275.516737</ele>
        <time>2021-10-03T08:36:11.000Z</time>
      </trkpt>
      <trkpt lat="43.65105" lon="2.33157">
        <ele>275.814991</ele>
        <time>2021-10-03T08:36:12.000Z</time>
      </trkpt>
      <trkpt lat="43.65108" lon="2.33161">
        <ele>276.120391</ele>
        <time>2021-10-03T08:36:13.000Z</time>
      </trkpt>
      <trkpt lat="43.65111" lon="2.33165">
        <ele>276.395484</ele>
        <time>2021-10-03T08:36:14.000Z</time>
      </trkpt>
      <trkpt lat="43.65114" lon="2.33168">
        <ele>276.691287</ele>
        <time>2021-10-03T08:36:15.000Z</time>
      </trkpt>
      <trkpt lat="43.65117" lon="2.33172">
        <ele>276.969023</ele>
        <time>2021-10-03T08:36:16.000Z</time>
      </trkpt>
      <trkpt lat="43.65119" lon="2.33176">
        <ele>277.236992</ele>
        <time>2021-10-03T08:36:17.000Z</time>
      </trkpt>
      <trkpt lat="43.65122" lon="2.33181">
        <ele>277.534989</ele>
        <time>2021-10-03T08:36:18.000Z</time>
      </trkpt>
      <trkpt lat="43.65125" lon="2.33185">
        <ele>277.843528</ele>
        <time>2021-10-03T08:36:19.000Z</time>
      </trkpt>
      <trkpt lat="43.65128" lon="2.3319">
        <ele>278.160743</ele>
        <time>2021-10-03T08:36:20.000Z</time>
      </trkpt>
      <trkpt lat="43.65131" lon="2.33193">
        <ele>278.454758</ele>
        <time>2021-10-03T08:36:21.000Z</time>
      </trkpt>
      <trkpt lat="43.65134" lon="2.33197">
        <ele>278.770179</ele>
        <time>2021-10-03T08:36:22.000Z</time>
      </trkpt>
      <trkpt lat="43.65137" lon="2.33201">
        <ele>279.055935</ele>
        <time>2021-10-03T08:36:23.000Z</time>
      </trkpt>
      <trkpt lat="43.65141" lon="2.33204">
        <ele>279.376312</ele>
        <time>2021-10-03T08:36:24.000Z</time>
      </trkpt>
      <trkpt lat="43.65145" lon="2.33208">
        <ele>279.678957</ele>
        <time>2021-10-03T08:36:25.000Z</time>
      </trkpt>
      <trkpt lat="43.65148" lon="2.33211">
        <ele>279.984356</ele>
        <time>2021-10-03T08:36:26.000Z</time>
      </trkpt>
      <trkpt lat="43.65151" lon="2.33215">
        <ele>280.281306</ele>
        <time>2021-10-03T08:36:27.000Z</time>
      </trkpt>
      <trkpt lat="43.65155" lon="2.33219">
        <ele>280.605519</ele>
        <time>2021-10-03T08:36:28.000Z</time>
      </trkpt>
      <trkpt lat="43.65158" lon="2.33222">
        <ele>280.92094</ele>
        <time>2021-10-03T08:36:29.000Z</time>
      </trkpt>
      <trkpt lat="43.65161" lon="2.33227">
        <ele>281.236995</ele>
        <time>2021-10-03T08:36:30.000Z</time>
      </trkpt>
      <trkpt lat="43.65164" lon="2.33232">
        <ele>281.552133</ele>
        <time>2021-10-03T08:36:31.000Z</time>
      </trkpt>
      <trkpt lat="43.65167" lon="2.33236">
        <ele>281.875861</ele>
        <time>2021-10-03T08:36:32.000Z</time>
      </trkpt>
      <trkpt lat="43.6517" lon="2.33241">
        <ele>282.217864</ele>
        <time>2021-10-03T08:36:33.000Z</time>
      </trkpt>
      <trkpt lat="43.65173" lon="2.33246">
        <ele>282.544439</ele>
        <time>2021-10-03T08:36:34.000Z</time>
      </trkpt>
      <trkpt lat="43.65176" lon="2.33251">
        <ele>282.866685</ele>
        <time>2021-10-03T08:36:35.000Z</time>
      </trkpt>
      <trkpt lat="43.65179" lon="2.33256">
        <ele>283.202885</ele>
        <time>2021-10-03T08:36:36.000Z</time>
      </trkpt>
      <trkpt lat="43.65182" lon="2.33261">
        <ele>283.53443</ele>
        <time>2021-10-03T08:36:37.000Z</time>
      </trkpt>
      <trkpt lat="43.65185" lon="2.33266">
        <ele>283.86084</ele>
        <time>2021-10-03T08:36:38.000Z</time>
      </trkpt>
      <trkpt lat="43.65187" lon="2.33271">
        <ele>284.183095</ele>
        <time>2021-10-03T08:36:39.000Z</time>
      </trkpt>
      <trkpt lat="43.6519" lon="2.33276">
        <ele>284.488577</ele>
        <time>2021-10-03T08:36:40.000Z</time>
      </trkpt>
      <trkpt lat="43.65193" lon="2.33281">
        <ele>284.845125</ele>
        <time>2021-10-03T08:36:41.000Z</time>
      </trkpt>
      <trkpt lat="43.65196" lon="2.33286">
        <ele>285.163255</ele>
        <time>2021-10-03T08:36:42.000Z</time>
      </trkpt>
      <trkpt lat="43.65199" lon="2.33291">
        <ele>285.498759</ele>
        <time>2021-10-03T08:36:43.000Z</time>
      </trkpt>
      <trkpt lat="43.65202" lon="2.33296">
        <ele>285.834262</ele>
        <time>2021-10-03T08:36:44.000Z</time>
      </trkpt>
      <trkpt lat="43.65205" lon="2.33301">
        <ele>286.152731</ele>
        <time>2021-10-03T08:36:45.000Z</time>
      </trkpt>
      <trkpt lat="43.65208" lon="2.33306">
        <ele>286.480348</ele>
        <time>2021-10-03T08:36:46.000Z</time>
      </trkpt>
      <trkpt lat="43.65211" lon="2.3331">
        <ele>286.801282</ele>
        <time>2021-10-03T08:36:47.000Z</time>
      </trkpt>
      <trkpt lat="43.65214" lon="2.33315">
        <ele>287.089341</ele>
        <time>2021-10-03T08:36:48.000Z</time>
      </trkpt>
      <trkpt lat="43.65217" lon="2.33319">
        <ele>287.367088</ele>
        <time>2021-10-03T08:36:49.000Z</time>
      </trkpt>
      <trkpt lat="43.6522" lon="2.33323">
        <ele>287.630698</ele>
        <time>2021-10-03T08:36:50.000Z</time>
      </trkpt>
      <trkpt lat="43.65223" lon="2.33326">
        <ele>287.898798</ele>
        <time>2021-10-03T08:36:51.000Z</time>
      </trkpt>
      <trkpt lat="43.65227" lon="2.33329">
        <ele>288.169003</ele>
        <time>2021-10-03T08:36:52.000Z</time>
      </trkpt>
      <trkpt lat="43.65231" lon="2.3333">
        <ele>288.441186</ele>
        <time>2021-10-03T08:36:53.000Z</time>
      </trkpt>
      <trkpt lat="43.65236" lon="2.33329">
        <ele>288.734986</ele>
        <time>2021-10-03T08:36:54.000Z</time>
      </trkpt>
      <trkpt lat="43.65239" lon="2.33327">
        <ele>288.982067</ele>
        <time>2021-10-03T08:36:55.000Z</time>
      </trkpt>
      <trkpt lat="43.65241" lon="2.33323">
        <ele>289.191198</ele>
        <time>2021-10-03T08:36:56.000Z</time>
      </trkpt>
      <trkpt lat="43.65241" lon="2.33318">
        <ele>289.402529</ele>
        <time>2021-10-03T08:36:57.000Z</time>
      </trkpt>
      <trkpt lat="43.65239" lon="2.33313">
        <ele>289.654427</ele>
        <time>2021-10-03T08:36:58.000Z</time>
      </trkpt>
      <trkpt lat="43.65237" lon="2.33308">
        <ele>289.9169</ele>
        <time>2021-10-03T08:36:59.000Z</time>
      </trkpt>
      <trkpt lat="43.65235" lon="2.33302">
        <ele>290.2468</ele>
        <time>2021-10-03T08:37:00.000Z</time>
      </trkpt>
      <trkpt lat="43.65233" lon="2.33296">
        <ele>290.540783</ele>
        <time>2021-10-03T08:37:01.000Z</time>
      </trkpt>
      <trkpt lat="43.65231" lon="2.3329">
        <ele>290.843414</ele>
        <time>2021-10-03T08:37:02.000Z</time>
      </trkpt>
      <trkpt lat="43.65228" lon="2.33284">
        <ele>291.150064</ele>
        <time>2021-10-03T08:37:03.000Z</time>
      </trkpt>
      <trkpt lat="43.65226" lon="2.33278">
        <ele>291.46075</ele>
        <time>2021-10-03T08:37:04.000Z</time>
      </trkpt>
      <trkpt lat="43.65224" lon="2.33273">
        <ele>291.731392</ele>
        <time>2021-10-03T08:37:05.000Z</time>
      </trkpt>
      <trkpt lat="43.65222" lon="2.33267">
        <ele>292.02206</ele>
        <time>2021-10-03T08:37:06.000Z</time>
      </trkpt>
      <trkpt lat="43.6522" lon="2.33261">
        <ele>292.308202</ele>
        <time>2021-10-03T08:37:07.000Z</time>
      </trkpt>
      <trkpt lat="43.65219" lon="2.33256">
        <ele>292.579828</ele>
        <time>2021-10-03T08:37:08.000Z</time>
      </trkpt>
      <trkpt lat="43.65218" lon="2.3325">
        <ele>292.855851</ele>
        <time>2021-10-03T08:37:09.000Z</time>
      </trkpt>
      <trkpt lat="43.65217" lon="2.33244">
        <ele>293.12136</ele>
        <time>2021-10-03T08:37:10.000Z</time>
      </trkpt>
      <trkpt lat="43.65215" lon="2.33239">
        <ele>293.390303</ele>
        <time>2021-10-03T08:37:11.000Z</time>
      </trkpt>
      <trkpt lat="43.65214" lon="2.33234">
        <ele>293.646448</ele>
        <time>2021-10-03T08:37:12.000Z</time>
      </trkpt>
      <trkpt lat="43.65213" lon="2.33228">
        <ele>293.92247</ele>
        <time>2021-10-03T08:37:13.000Z</time>
      </trkpt>
      <trkpt lat="43.65212" lon="2.33223">
        <ele>294.174758</ele>
        <time>2021-10-03T08:37:14.000Z</time>
      </trkpt>
      <trkpt lat="43.65211" lon="2.33217">
        <ele>294.44043</ele>
        <time>2021-10-03T08:37:15.000Z</time>
      </trkpt>
      <trkpt lat="43.6521" lon="2.33211">
        <ele>294.71959</ele>
        <time>2021-10-03T08:37:16.000Z</time>
      </trkpt>
      <trkpt lat="43.65209" lon="2.33205">
        <ele>294.988534</ele>
        <time>2021-10-03T08:37:17.000Z</time>
      </trkpt>
      <trkpt lat="43.65207" lon="2.332">
        <ele>295.271541</ele>
        <time>2021-10-03T08:37:18.000Z</time>
      </trkpt>
      <trkpt lat="43.65206" lon="2.33194">
        <ele>295.528236</ele>
        <time>2021-10-03T08:37:19.000Z</time>
      </trkpt>
      <trkpt lat="43.65207" lon="2.33189">
        <ele>295.765754</ele>
        <time>2021-10-03T08:37:20.000Z</time>
      </trkpt>
      <trkpt lat="43.65208" lon="2.33185">
        <ele>295.993062</ele>
        <time>2021-10-03T08:37:21.000Z</time>
      </trkpt>
      <trkpt lat="43.65211" lon="2.33181">
        <ele>296.227158</ele>
        <time>2021-10-03T08:37:22.000Z</time>
      </trkpt>
      <trkpt lat="43.65214" lon="2.33179">
        <ele>296.441927</ele>
        <time>2021-10-03T08:37:23.000Z</time>
      </trkpt>
      <trkpt lat="43.65217" lon="2.33178">
        <ele>296.666279</ele>
        <time>2021-10-03T08:37:24.000Z</time>
      </trkpt>
      <trkpt lat="43.65221" lon="2.33178">
        <ele>296.881487</ele>
        <time>2021-10-03T08:37:25.000Z</time>
      </trkpt>
      <trkpt lat="43.65224" lon="2.33178">
        <ele>297.0717</ele>
        <time>2021-10-03T08:37:26.000Z</time>
      </trkpt>
      <trkpt lat="43.65227" lon="2.33178">
        <ele>297.274271</ele>
        <time>2021-10-03T08:37:27.000Z</time>
      </trkpt>
      <trkpt lat="43.6523" lon="2.33178">
        <ele>297.457665</ele>
        <time>2021-10-03T08:37:28.000Z</time>
      </trkpt>
      <trkpt lat="43.65234" lon="2.33178">
        <ele>297.691828</ele>
        <time>2021-10-03T08:37:29.000Z</time>
      </trkpt>
      <trkpt lat="43.65238" lon="2.33177">
        <ele>297.939138</ele>
        <time>2021-10-03T08:37:30.000Z</time>
      </trkpt>
      <trkpt lat="43.65241" lon="2.33176">
        <ele>298.174441</ele>
        <time>2021-10-03T08:37:31.000Z</time>
      </trkpt>
      <trkpt lat="43.65245" lon="2.33175">
        <ele>298.396055</ele>
        <time>2021-10-03T08:37:32.000Z</time>
      </trkpt>
      <trkpt lat="43.65248" lon="2.33173">
        <ele>298.617187</ele>
        <time>2021-10-03T08:37:33.000Z</time>
      </trkpt>
      <trkpt lat="43.65252" lon="2.33171">
        <ele>298.864335</ele>
        <time>2021-10-03T08:37:34.000Z</time>
      </trkpt>
      <trkpt lat="43.65256" lon="2.33169">
        <ele>299.117243</ele>
        <time>2021-10-03T08:37:35.000Z</time>
      </trkpt>
      <trkpt lat="43.65259" lon="2.33167">
        <ele>299.332633</ele>
        <time>2021-10-03T08:37:36.000Z</time>
      </trkpt>
      <trkpt lat="43.65263" lon="2.33166">
        <ele>299.575226</ele>
        <time>2021-10-03T08:37:37.000Z</time>
      </trkpt>
      <trkpt lat="43.65266" lon="2.33166">
        <ele>299.785464</ele>
        <time>2021-10-03T08:37:38.000Z</time>
      </trkpt>
      <trkpt lat="43.6527" lon="2.33165">
        <ele>300.004987</ele>
        <time>2021-10-03T08:37:39.000Z</time>
      </trkpt>
      <trkpt lat="43.65273" lon="2.33164">
        <ele>300.192739</ele>
        <time>2021-10-03T08:37:40.000Z</time>
      </trkpt>
      <trkpt lat="43.65276" lon="2.33164">
        <ele>300.406981</ele>
        <time>2021-10-03T08:37:41.000Z</time>
      </trkpt>
      <trkpt lat="43.6528" lon="2.33163">
        <ele>300.633445</ele>
        <time>2021-10-03T08:37:42.000Z</time>
      </trkpt>
      <trkpt lat="43.65284" lon="2.33164">
        <ele>300.890468</ele>
        <time>2021-10-03T08:37:43.000Z</time>
      </trkpt>
      <trkpt lat="43.65288" lon="2.33164">
        <ele>301.147491</ele>
        <time>2021-10-03T08:37:44.000Z</time>
      </trkpt>
      <trkpt lat="43.65293" lon="2.33164">
        <ele>301.404704</ele>
        <time>2021-10-03T08:37:45.000Z</time>
      </trkpt>
      <trkpt lat="43.65297" lon="2.33164">
        <ele>301.668026</ele>
        <time>2021-10-03T08:37:46.000Z</time>
      </trkpt>
      <trkpt lat="43.65301" lon="2.33163">
        <ele>301.945512</ele>
        <time>2021-10-03T08:37:47.000Z</time>
      </trkpt>
      <trkpt lat="43.65306" lon="2.33162">
        <ele>302.248443</ele>
        <time>2021-10-03T08:37:48.000Z</time>
      </trkpt>
      <trkpt lat="43.65311" lon="2.33162">
        <ele>302.530334</ele>
        <time>2021-10-03T08:37:49.000Z</time>
      </trkpt>
      <trkpt lat="43.65316" lon="2.33162">
        <ele>302.836421</ele>
        <time>2021-10-03T08:37:50.000Z</time>
      </trkpt>
      <trkpt lat="43.6532" lon="2.33162">
        <ele>303.10556</ele>
        <time>2021-10-03T08:37:51.000Z</time>
      </trkpt>
      <trkpt lat="43.65325" lon="2.33162">
        <ele>303.393317</ele>
        <time>2021-10-03T08:37:52.000Z</time>
      </trkpt>
      <trkpt lat="43.6533" lon="2.33162">
        <ele>303.717735</ele>
        <time>2021-10-03T08:37:53.000Z</time>
      </trkpt>
      <trkpt lat="43.65335" lon="2.33162">
        <ele>304.023821</ele>
        <time>2021-10-03T08:37:54.000Z</time>
      </trkpt>
      <trkpt lat="43.65341" lon="2.33162">
        <ele>304.347967</ele>
        <time>2021-10-03T08:37:55.000Z</time>
      </trkpt>
      <trkpt lat="43.65345" lon="2.33162">
        <ele>304.641834</ele>
        <time>2021-10-03T08:37:56.000Z</time>
      </trkpt>
      <trkpt lat="43.6535" lon="2.33163">
        <ele>304.94792</ele>
        <time>2021-10-03T08:37:57.000Z</time>
      </trkpt>
      <trkpt lat="43.65355" lon="2.33163">
        <ele>305.230505</ele>
        <time>2021-10-03T08:37:58.000Z</time>
      </trkpt>
      <trkpt lat="43.65359" lon="2.33164">
        <ele>305.507461</ele>
        <time>2021-10-03T08:37:59.000Z</time>
      </trkpt>
      <trkpt lat="43.65364" lon="2.33165">
        <ele>305.780177</ele>
        <time>2021-10-03T08:38:00.000Z</time>
      </trkpt>
      <trkpt lat="43.65368" lon="2.33166">
        <ele>306.020173</ele>
        <time>2021-10-03T08:38:01.000Z</time>
      </trkpt>
      <trkpt lat="43.65372" lon="2.33167">
        <ele>306.260695</ele>
        <time>2021-10-03T08:38:02.000Z</time>
      </trkpt>
      <trkpt lat="43.65375" lon="2.33168">
        <ele>306.508281</ele>
        <time>2021-10-03T08:38:03.000Z</time>
      </trkpt>
      <trkpt lat="43.65379" lon="2.3317">
        <ele>306.734274</ele>
        <time>2021-10-03T08:38:04.000Z</time>
      </trkpt>
      <trkpt lat="43.65382" lon="2.33171">
        <ele>306.945996</ele>
        <time>2021-10-03T08:38:05.000Z</time>
      </trkpt>
      <trkpt lat="43.65386" lon="2.33173">
        <ele>307.165662</ele>
        <time>2021-10-03T08:38:06.000Z</time>
      </trkpt>
      <trkpt lat="43.65388" lon="2.33175">
        <ele>307.352703</ele>
        <time>2021-10-03T08:38:07.000Z</time>
      </trkpt>
      <trkpt lat="43.65391" lon="2.33176">
        <ele>307.552725</ele>
        <time>2021-10-03T08:38:08.000Z</time>
      </trkpt>
      <trkpt lat="43.65394" lon="2.33178">
        <ele>307.75455</ele>
        <time>2021-10-03T08:38:09.000Z</time>
      </trkpt>
      <trkpt lat="43.65398" lon="2.3318">
        <ele>307.95268</ele>
        <time>2021-10-03T08:38:10.000Z</time>
      </trkpt>
      <trkpt lat="43.65401" lon="2.33181">
        <ele>308.14142</ele>
        <time>2021-10-03T08:38:11.000Z</time>
      </trkpt>
      <trkpt lat="43.65404" lon="2.33182">
        <ele>308.349033</ele>
        <time>2021-10-03T08:38:12.000Z</time>
      </trkpt>
      <trkpt lat="43.65407" lon="2.33182">
        <ele>308.569919</ele>
        <time>2021-10-03T08:38:13.000Z</time>
      </trkpt>
      <trkpt lat="43.65411" lon="2.33183">
        <ele>308.780156</ele>
        <time>2021-10-03T08:38:14.000Z</time>
      </trkpt>
      <trkpt lat="43.65414" lon="2.33183">
        <ele>308.971037</ele>
        <time>2021-10-03T08:38:15.000Z</time>
      </trkpt>
      <trkpt lat="43.65417" lon="2.33184">
        <ele>309.180154</ele>
        <time>2021-10-03T08:38:16.000Z</time>
      </trkpt>
      <trkpt lat="43.65421" lon="2.33184">
        <ele>309.391218</ele>
        <time>2021-10-03T08:38:17.000Z</time>
      </trkpt>
      <trkpt lat="43.65424" lon="2.33183">
        <ele>309.61424</ele>
        <time>2021-10-03T08:38:18.000Z</time>
      </trkpt>
      <trkpt lat="43.65428" lon="2.33182">
        <ele>309.858316</ele>
        <time>2021-10-03T08:38:19.000Z</time>
      </trkpt>
      <trkpt lat="43.65431" lon="2.33181">
        <ele>310.060702</ele>
        <time>2021-10-03T08:38:20.000Z</time>
      </trkpt>
      <trkpt lat="43.65435" lon="2.33179">
        <ele>310.304427</ele>
        <time>2021-10-03T08:38:21.000Z</time>
      </trkpt>
      <trkpt lat="43.65438" lon="2.33178">
        <ele>310.53113</ele>
        <time>2021-10-03T08:38:22.000Z</time>
      </trkpt>
      <trkpt lat="43.65443" lon="2.33177">
        <ele>310.800752</ele>
        <time>2021-10-03T08:38:23.000Z</time>
      </trkpt>
      <trkpt lat="43.65447" lon="2.33176">
        <ele>311.059507</ele>
        <time>2021-10-03T08:38:24.000Z</time>
      </trkpt>
      <trkpt lat="43.65451" lon="2.33175">
        <ele>311.328245</ele>
        <time>2021-10-03T08:38:25.000Z</time>
      </trkpt>
      <trkpt lat="43.65455" lon="2.33174">
        <ele>311.56717</ele>
        <time>2021-10-03T08:38:26.000Z</time>
      </trkpt>
      <trkpt lat="43.6546" lon="2.33173">
        <ele>311.887016</ele>
        <time>2021-10-03T08:38:27.000Z</time>
      </trkpt>
      <trkpt lat="43.65463" lon="2.33172">
        <ele>312.115565</ele>
        <time>2021-10-03T08:38:28.000Z</time>
      </trkpt>
      <trkpt lat="43.65467" lon="2.33172">
        <ele>312.37396</ele>
        <time>2021-10-03T08:38:29.000Z</time>
      </trkpt>
      <trkpt lat="43.65471" lon="2.33171">
        <ele>312.634269</ele>
        <time>2021-10-03T08:38:30.000Z</time>
      </trkpt>
      <trkpt lat="43.65475" lon="2.33169">
        <ele>312.892594</ele>
        <time>2021-10-03T08:38:31.000Z</time>
      </trkpt>
      <trkpt lat="43.65479" lon="2.33169">
        <ele>313.13153</ele>
        <time>2021-10-03T08:38:32.000Z</time>
      </trkpt>
      <trkpt lat="43.65483" lon="2.3317">
        <ele>313.372536</ele>
        <time>2021-10-03T08:38:33.000Z</time>
      </trkpt>
      <trkpt lat="43.65487" lon="2.33171">
        <ele>313.634272</ele>
        <time>2021-10-03T08:38:34.000Z</time>
      </trkpt>
      <trkpt lat="43.65491" lon="2.33172">
        <ele>313.907036</ele>
        <time>2021-10-03T08:38:35.000Z</time>
      </trkpt>
      <trkpt lat="43.65495" lon="2.33173">
        <ele>314.154902</ele>
        <time>2021-10-03T08:38:36.000Z</time>
      </trkpt>
      <trkpt lat="43.65499" lon="2.33173">
        <ele>314.414614</ele>
        <time>2021-10-03T08:38:37.000Z</time>
      </trkpt>
      <trkpt lat="43.65503" lon="2.33174">
        <ele>314.67635</ele>
        <time>2021-10-03T08:38:38.000Z</time>
      </trkpt>
      <trkpt lat="43.65508" lon="2.33175">
        <ele>314.965679</ele>
        <time>2021-10-03T08:38:39.000Z</time>
      </trkpt>
      <trkpt lat="43.65513" lon="2.33174">
        <ele>315.280834</ele>
        <time>2021-10-03T08:38:40.000Z</time>
      </trkpt>
      <trkpt lat="43.65518" lon="2.33174">
        <ele>315.602259</ele>
        <time>2021-10-03T08:38:41.000Z</time>
      </trkpt>
      <trkpt lat="43.65523" lon="2.33174">
        <ele>315.929166</ele>
        <time>2021-10-03T08:38:42.000Z</time>
      </trkpt>
      <trkpt lat="43.65528" lon="2.33173">
        <ele>316.237347</ele>
        <time>2021-10-03T08:38:43.000Z</time>
      </trkpt>
      <trkpt lat="43.65533" lon="2.33172">
        <ele>316.529416</ele>
        <time>2021-10-03T08:38:44.000Z</time>
      </trkpt>
      <trkpt lat="43.65538" lon="2.33172">
        <ele>316.845358</ele>
        <time>2021-10-03T08:38:45.000Z</time>
      </trkpt>
      <trkpt lat="43.65542" lon="2.33171">
        <ele>317.114096</ele>
        <time>2021-10-03T08:38:46.000Z</time>
      </trkpt>
      <trkpt lat="43.65546" lon="2.33168">
        <ele>317.408253</ele>
        <time>2021-10-03T08:38:47.000Z</time>
      </trkpt>
      <trkpt lat="43.6555" lon="2.33167">
        <ele>317.670038</ele>
        <time>2021-10-03T08:38:48.000Z</time>
      </trkpt>
      <trkpt lat="43.65555" lon="2.33164">
        <ele>317.96124</ele>
        <time>2021-10-03T08:38:49.000Z</time>
      </trkpt>
      <trkpt lat="43.65559" lon="2.33162">
        <ele>318.236369</ele>
        <time>2021-10-03T08:38:50.000Z</time>
      </trkpt>
      <trkpt lat="43.65563" lon="2.3316">
        <ele>318.520378</ele>
        <time>2021-10-03T08:38:51.000Z</time>
      </trkpt>
      <trkpt lat="43.65567" lon="2.33158">
        <ele>318.78189</ele>
        <time>2021-10-03T08:38:52.000Z</time>
      </trkpt>
      <trkpt lat="43.65571" lon="2.33157">
        <ele>319.04972</ele>
        <time>2021-10-03T08:38:53.000Z</time>
      </trkpt>
      <trkpt lat="43.65575" lon="2.33155">
        <ele>319.312284</ele>
        <time>2021-10-03T08:38:54.000Z</time>
      </trkpt>
      <trkpt lat="43.65579" lon="2.33154">
        <ele>319.594737</ele>
        <time>2021-10-03T08:38:55.000Z</time>
      </trkpt>
      <trkpt lat="43.65583" lon="2.33152">
        <ele>319.827961</ele>
        <time>2021-10-03T08:38:56.000Z</time>
      </trkpt>
      <trkpt lat="43.65586" lon="2.33151">
        <ele>320.032986</ele>
        <time>2021-10-03T08:38:57.000Z</time>
      </trkpt>
      <trkpt lat="43.6559" lon="2.33148">
        <ele>320.309482</ele>
        <time>2021-10-03T08:38:58.000Z</time>
      </trkpt>
      <trkpt lat="43.65594" lon="2.33147">
        <ele>320.553558</ele>
        <time>2021-10-03T08:38:59.000Z</time>
      </trkpt>
      <trkpt lat="43.65597" lon="2.33147">
        <ele>320.873902</ele>
        <time>2021-10-03T08:39:00.000Z</time>
      </trkpt>
      <trkpt lat="43.656" lon="2.33147">
        <ele>321.250739</ele>
        <time>2021-10-03T08:39:01.000Z</time>
      </trkpt>
      <trkpt lat="43.65604" lon="2.33146">
        <ele>321.637592</ele>
        <time>2021-10-03T08:39:02.000Z</time>
      </trkpt>
      <trkpt lat="43.65607" lon="2.33147">
        <ele>321.93012</ele>
        <time>2021-10-03T08:39:03.000Z</time>
      </trkpt>
      <trkpt lat="43.6561" lon="2.33148">
        <ele>322.27581</ele>
        <time>2021-10-03T08:39:04.000Z</time>
      </trkpt>
      <trkpt lat="43.65613" lon="2.33148">
        <ele>322.611803</ele>
        <time>2021-10-03T08:39:05.000Z</time>
      </trkpt>
      <trkpt lat="43.65616" lon="2.33148">
        <ele>322.987368</ele>
        <time>2021-10-03T08:39:06.000Z</time>
      </trkpt>
      <trkpt lat="43.6562" lon="2.33147">
        <ele>323.383757</ele>
        <time>2021-10-03T08:39:07.000Z</time>
      </trkpt>
      <trkpt lat="43.65624" lon="2.33145">
        <ele>323.86937</ele>
        <time>2021-10-03T08:39:08.000Z</time>
      </trkpt>
      <trkpt lat="43.65627" lon="2.33143">
        <ele>324.283958</ele>
        <time>2021-10-03T08:39:09.000Z</time>
      </trkpt>
      <trkpt lat="43.6563" lon="2.33141">
        <ele>324.672511</ele>
        <time>2021-10-03T08:39:10.000Z</time>
      </trkpt>
      <trkpt lat="43.65634" lon="2.33138">
        <ele>325.117977</ele>
        <time>2021-10-03T08:39:11.000Z</time>
      </trkpt>
      <trkpt lat="43.65637" lon="2.33136">
        <ele>325.50653</ele>
        <time>2021-10-03T08:39:12.000Z</time>
      </trkpt>
      <trkpt lat="43.6564" lon="2.33134">
        <ele>325.861644</ele>
        <time>2021-10-03T08:39:13.000Z</time>
      </trkpt>
      <trkpt lat="43.65643" lon="2.33132">
        <ele>326.239452</ele>
        <time>2021-10-03T08:39:14.000Z</time>
      </trkpt>
      <trkpt lat="43.65646" lon="2.3313">
        <ele>326.61831</ele>
        <time>2021-10-03T08:39:15.000Z</time>
      </trkpt>
      <trkpt lat="43.65649" lon="2.33125">
        <ele>327.097699</ele>
        <time>2021-10-03T08:39:16.000Z</time>
      </trkpt>
      <trkpt lat="43.65651" lon="2.33123">
        <ele>327.458133</ele>
        <time>2021-10-03T08:39:17.000Z</time>
      </trkpt>
      <trkpt lat="43.65655" lon="2.33119">
        <ele>327.894318</ele>
        <time>2021-10-03T08:39:18.000Z</time>
      </trkpt>
      <trkpt lat="43.65657" lon="2.33117">
        <ele>328.205667</ele>
        <time>2021-10-03T08:39:19.000Z</time>
      </trkpt>
      <trkpt lat="43.6566" lon="2.33113">
        <ele>328.666407</ele>
        <time>2021-10-03T08:39:20.000Z</time>
      </trkpt>
      <trkpt lat="43.65663" lon="2.33111">
        <ele>329.001002</ele>
        <time>2021-10-03T08:39:21.000Z</time>
      </trkpt>
      <trkpt lat="43.65666" lon="2.33109">
        <ele>329.369312</ele>
        <time>2021-10-03T08:39:22.000Z</time>
      </trkpt>
      <trkpt lat="43.65668" lon="2.33107">
        <ele>329.701873</ele>
        <time>2021-10-03T08:39:23.000Z</time>
      </trkpt>
      <trkpt lat="43.65671" lon="2.33106">
        <ele>330.029528</ele>
        <time>2021-10-03T08:39:24.000Z</time>
      </trkpt>
      <trkpt lat="43.65674" lon="2.33105">
        <ele>330.327568</ele>
        <time>2021-10-03T08:39:25.000Z</time>
      </trkpt>
      <trkpt lat="43.65676" lon="2.33104">
        <ele>330.641804</ele>
        <time>2021-10-03T08:39:26.000Z</time>
      </trkpt>
      <trkpt lat="43.65679" lon="2.33103">
        <ele>330.905788</ele>
        <time>2021-10-03T08:39:27.000Z</time>
      </trkpt>
      <trkpt lat="43.65681" lon="2.33102">
        <ele>331.183328</ele>
        <time>2021-10-03T08:39:28.000Z</time>
      </trkpt>
      <trkpt lat="43.65684" lon="2.331">
        <ele>331.511931</ele>
        <time>2021-10-03T08:39:29.000Z</time>
      </trkpt>
      <trkpt lat="43.65687" lon="2.33098">
        <ele>331.873105</ele>
        <time>2021-10-03T08:39:30.000Z</time>
      </trkpt>
      <trkpt lat="43.65689" lon="2.33096">
        <ele>332.178545</ele>
        <time>2021-10-03T08:39:31.000Z</time>
      </trkpt>
      <trkpt lat="43.65692" lon="2.33094">
        <ele>332.507148</ele>
        <time>2021-10-03T08:39:32.000Z</time>
      </trkpt>
      <trkpt lat="43.65694" lon="2.33092">
        <ele>332.793633</ele>
        <time>2021-10-03T08:39:33.000Z</time>
      </trkpt>
      <trkpt lat="43.65697" lon="2.3309">
        <ele>333.164963</ele>
        <time>2021-10-03T08:39:34.000Z</time>
      </trkpt>
      <trkpt lat="43.657" lon="2.33088">
        <ele>333.511092</ele>
        <time>2021-10-03T08:39:35.000Z</time>
      </trkpt>
      <trkpt lat="43.65702" lon="2.33086">
        <ele>333.819983</ele>
        <time>2021-10-03T08:39:36.000Z</time>
      </trkpt>
      <trkpt lat="43.65705" lon="2.33083">
        <ele>334.183387</ele>
        <time>2021-10-03T08:39:37.000Z</time>
      </trkpt>
      <trkpt lat="43.65707" lon="2.33081">
        <ele>334.487803</ele>
        <time>2021-10-03T08:39:38.000Z</time>
      </trkpt>
      <trkpt lat="43.6571" lon="2.33079">
        <ele>334.820363</ele>
        <time>2021-10-03T08:39:39.000Z</time>
      </trkpt>
      <trkpt lat="43.65712" lon="2.33076">
        <ele>335.188393</ele>
        <time>2021-10-03T08:39:40.000Z</time>
      </trkpt>
      <trkpt lat="43.65715" lon="2.33074">
        <ele>335.56725</ele>
        <time>2021-10-03T08:39:41.000Z</time>
      </trkpt>
      <trkpt lat="43.65718" lon="2.33071">
        <ele>335.944868</ele>
        <time>2021-10-03T08:39:42.000Z</time>
      </trkpt>
      <trkpt lat="43.65721" lon="2.33069">
        <ele>336.28153</ele>
        <time>2021-10-03T08:39:43.000Z</time>
      </trkpt>
      <trkpt lat="43.65723" lon="2.33067">
        <ele>336.608667</ele>
        <time>2021-10-03T08:39:44.000Z</time>
      </trkpt>
      <trkpt lat="43.65725" lon="2.33064">
        <ele>336.903931</ele>
        <time>2021-10-03T08:39:45.000Z</time>
      </trkpt>
      <trkpt lat="43.65728" lon="2.33061">
        <ele>337.266692</ele>
        <time>2021-10-03T08:39:46.000Z</time>
      </trkpt>
      <trkpt lat="43.6573" lon="2.33059">
        <ele>337.569903</ele>
        <time>2021-10-03T08:39:47.000Z</time>
      </trkpt>
      <trkpt lat="43.65732" lon="2.33056">
        <ele>337.922603</ele>
        <time>2021-10-03T08:39:48.000Z</time>
      </trkpt>
      <trkpt lat="43.65733" lon="2.33053">
        <ele>338.220386</ele>
        <time>2021-10-03T08:39:49.000Z</time>
      </trkpt>
      <trkpt lat="43.65736" lon="2.33049">
        <ele>338.596897</ele>
        <time>2021-10-03T08:39:50.000Z</time>
      </trkpt>
      <trkpt lat="43.65737" lon="2.33045">
        <ele>338.95293</ele>
        <time>2021-10-03T08:39:51.000Z</time>
      </trkpt>
      <trkpt lat="43.6574" lon="2.33042">
        <ele>339.330708</ele>
        <time>2021-10-03T08:39:52.000Z</time>
      </trkpt>
      <trkpt lat="43.65742" lon="2.33038">
        <ele>339.70261</ele>
        <time>2021-10-03T08:39:53.000Z</time>
      </trkpt>
      <trkpt lat="43.65744" lon="2.33036">
        <ele>340.041083</ele>
        <time>2021-10-03T08:39:54.000Z</time>
      </trkpt>
      <trkpt lat="43.65747" lon="2.33032">
        <ele>340.40719</ele>
        <time>2021-10-03T08:39:55.000Z</time>
      </trkpt>
      <trkpt lat="43.65749" lon="2.33029">
        <ele>340.681474</ele>
        <time>2021-10-03T08:39:56.000Z</time>
      </trkpt>
      <trkpt lat="43.65751" lon="2.33027">
        <ele>340.966167</ele>
        <time>2021-10-03T08:39:57.000Z</time>
      </trkpt>
      <trkpt lat="43.65753" lon="2.33024">
        <ele>341.268243</ele>
        <time>2021-10-03T08:39:58.000Z</time>
      </trkpt>
      <trkpt lat="43.65756" lon="2.33022">
        <ele>341.516591</ele>
        <time>2021-10-03T08:39:59.000Z</time>
      </trkpt>
      <trkpt lat="43.65758" lon="2.33019">
        <ele>341.854068</ele>
        <time>2021-10-03T08:40:00.000Z</time>
      </trkpt>
      <trkpt lat="43.65761" lon="2.33016">
        <ele>342.147818</ele>
        <time>2021-10-03T08:40:01.000Z</time>
      </trkpt>
      <trkpt lat="43.65763" lon="2.33012">
        <ele>342.475701</ele>
        <time>2021-10-03T08:40:02.000Z</time>
      </trkpt>
      <trkpt lat="43.65766" lon="2.33009">
        <ele>342.793318</ele>
        <time>2021-10-03T08:40:03.000Z</time>
      </trkpt>
      <trkpt lat="43.65769" lon="2.33006">
        <ele>343.115102</ele>
        <time>2021-10-03T08:40:04.000Z</time>
      </trkpt>
      <trkpt lat="43.65771" lon="2.33003">
        <ele>343.429701</ele>
        <time>2021-10-03T08:40:05.000Z</time>
      </trkpt>
      <trkpt lat="43.65774" lon="2.33">
        <ele>343.785112</ele>
        <time>2021-10-03T08:40:06.000Z</time>
      </trkpt>
      <trkpt lat="43.65777" lon="2.32998">
        <ele>344.075525</ele>
        <time>2021-10-03T08:40:07.000Z</time>
      </trkpt>
      <trkpt lat="43.65779" lon="2.32995">
        <ele>344.35877</ele>
        <time>2021-10-03T08:40:08.000Z</time>
      </trkpt>
      <trkpt lat="43.65782" lon="2.32993">
        <ele>344.660845</ele>
        <time>2021-10-03T08:40:09.000Z</time>
      </trkpt>
      <trkpt lat="43.65784" lon="2.3299">
        <ele>344.941141</ele>
        <time>2021-10-03T08:40:10.000Z</time>
      </trkpt>
      <trkpt lat="43.65786" lon="2.32988">
        <ele>345.144214</ele>
        <time>2021-10-03T08:40:11.000Z</time>
      </trkpt>
      <trkpt lat="43.65789" lon="2.32985">
        <ele>345.434826</ele>
        <time>2021-10-03T08:40:12.000Z</time>
      </trkpt>
      <trkpt lat="43.65791" lon="2.32983">
        <ele>345.702326</ele>
        <time>2021-10-03T08:40:13.000Z</time>
      </trkpt>
      <trkpt lat="43.65794" lon="2.32981">
        <ele>346.012896</ele>
        <time>2021-10-03T08:40:14.000Z</time>
      </trkpt>
      <trkpt lat="43.65797" lon="2.32979">
        <ele>346.294326</ele>
        <time>2021-10-03T08:40:15.000Z</time>
      </trkpt>
      <trkpt lat="43.658" lon="2.32978">
        <ele>346.59524</ele>
        <time>2021-10-03T08:40:16.000Z</time>
      </trkpt>
      <trkpt lat="43.65803" lon="2.32976">
        <ele>346.882858</ele>
        <time>2021-10-03T08:40:17.000Z</time>
      </trkpt>
      <trkpt lat="43.65806" lon="2.32975">
        <ele>347.196727</ele>
        <time>2021-10-03T08:40:18.000Z</time>
      </trkpt>
      <trkpt lat="43.65809" lon="2.32973">
        <ele>347.493063</ele>
        <time>2021-10-03T08:40:19.000Z</time>
      </trkpt>
      <trkpt lat="43.65811" lon="2.32972">
        <ele>347.752709</ele>
        <time>2021-10-03T08:40:20.000Z</time>
      </trkpt>
      <trkpt lat="43.65814" lon="2.32971">
        <ele>348.049045</ele>
        <time>2021-10-03T08:40:21.000Z</time>
      </trkpt>
      <trkpt lat="43.65818" lon="2.32969">
        <ele>348.380561</ele>
        <time>2021-10-03T08:40:22.000Z</time>
      </trkpt>
      <trkpt lat="43.65821" lon="2.32968">
        <ele>348.679593</ele>
        <time>2021-10-03T08:40:23.000Z</time>
      </trkpt>
      <trkpt lat="43.65824" lon="2.32967">
        <ele>348.943037</ele>
        <time>2021-10-03T08:40:24.000Z</time>
      </trkpt>
      <trkpt lat="43.65827" lon="2.32965">
        <ele>349.235074</ele>
        <time>2021-10-03T08:40:25.000Z</time>
      </trkpt>
      <trkpt lat="43.6583" lon="2.32964">
        <ele>349.534106</ele>
        <time>2021-10-03T08:40:26.000Z</time>
      </trkpt>
      <trkpt lat="43.65832" lon="2.32963">
        <ele>349.790602</ele>
        <time>2021-10-03T08:40:27.000Z</time>
      </trkpt>
      <trkpt lat="43.65835" lon="2.32962">
        <ele>350.050247</ele>
        <time>2021-10-03T08:40:28.000Z</time>
      </trkpt>
      <trkpt lat="43.65837" lon="2.32961">
        <ele>350.265367</ele>
        <time>2021-10-03T08:40:29.000Z</time>
      </trkpt>
      <trkpt lat="43.6584" lon="2.3296">
        <ele>350.528811</ele>
        <time>2021-10-03T08:40:30.000Z</time>
      </trkpt>
      <trkpt lat="43.65843" lon="2.32959">
        <ele>350.820848</ele>
        <time>2021-10-03T08:40:31.000Z</time>
      </trkpt>
      <trkpt lat="43.65846" lon="2.32958">
        <ele>351.148528</ele>
        <time>2021-10-03T08:40:32.000Z</time>
      </trkpt>
      <trkpt lat="43.6585" lon="2.32956">
        <ele>351.451461</ele>
        <time>2021-10-03T08:40:33.000Z</time>
      </trkpt>
      <trkpt lat="43.65853" lon="2.32955">
        <ele>351.779141</ele>
        <time>2021-10-03T08:40:34.000Z</time>
      </trkpt>
      <trkpt lat="43.65856" lon="2.32953">
        <ele>352.082926</ele>
        <time>2021-10-03T08:40:35.000Z</time>
      </trkpt>
      <trkpt lat="43.65859" lon="2.32952">
        <ele>352.421374</ele>
        <time>2021-10-03T08:40:36.000Z</time>
      </trkpt>
      <trkpt lat="43.65863" lon="2.3295">
        <ele>352.733702</ele>
        <time>2021-10-03T08:40:37.000Z</time>
      </trkpt>
      <trkpt lat="43.65866" lon="2.32948">
        <ele>353.069549</ele>
        <time>2021-10-03T08:40:38.000Z</time>
      </trkpt>
      <trkpt lat="43.65868" lon="2.32947">
        <ele>353.28912</ele>
        <time>2021-10-03T08:40:39.000Z</time>
      </trkpt>
      <trkpt lat="43.65871" lon="2.32945">
        <ele>353.612625</ele>
        <time>2021-10-03T08:40:40.000Z</time>
      </trkpt>
      <trkpt lat="43.65874" lon="2.32943">
        <ele>353.882733</ele>
        <time>2021-10-03T08:40:41.000Z</time>
      </trkpt>
      <trkpt lat="43.65877" lon="2.32941">
        <ele>354.220912</ele>
        <time>2021-10-03T08:40:42.000Z</time>
      </trkpt>
      <trkpt lat="43.6588" lon="2.32939">
        <ele>354.527436</ele>
        <time>2021-10-03T08:40:43.000Z</time>
      </trkpt>
      <trkpt lat="43.65883" lon="2.32937">
        <ele>354.842427</ele>
        <time>2021-10-03T08:40:44.000Z</time>
      </trkpt>
      <trkpt lat="43.65886" lon="2.32935">
        <ele>355.1436</ele>
        <time>2021-10-03T08:40:45.000Z</time>
      </trkpt>
      <trkpt lat="43.65889" lon="2.32934">
        <ele>355.407043</ele>
        <time>2021-10-03T08:40:46.000Z</time>
      </trkpt>
      <trkpt lat="43.65892" lon="2.32933">
        <ele>355.729933</ele>
        <time>2021-10-03T08:40:47.000Z</time>
      </trkpt>
      <trkpt lat="43.65895" lon="2.32932">
        <ele>356.028965</ele>
        <time>2021-10-03T08:40:48.000Z</time>
      </trkpt>
      <trkpt lat="43.65898" lon="2.32931">
        <ele>356.326255</ele>
        <time>2021-10-03T08:40:49.000Z</time>
      </trkpt>
      <trkpt lat="43.65901" lon="2.3293">
        <ele>356.606213</ele>
        <time>2021-10-03T08:40:50.000Z</time>
      </trkpt>
      <trkpt lat="43.65905" lon="2.3293">
        <ele>356.89612</ele>
        <time>2021-10-03T08:40:51.000Z</time>
      </trkpt>
      <trkpt lat="43.65908" lon="2.3293">
        <ele>357.198153</ele>
        <time>2021-10-03T08:40:52.000Z</time>
      </trkpt>
      <trkpt lat="43.65911" lon="2.3293">
        <ele>357.438372</ele>
        <time>2021-10-03T08:40:53.000Z</time>
      </trkpt>
      <trkpt lat="43.65914" lon="2.32929">
        <ele>357.632461</ele>
        <time>2021-10-03T08:40:54.000Z</time>
      </trkpt>
      <trkpt lat="43.65917" lon="2.32929">
        <ele>357.84448</ele>
        <time>2021-10-03T08:40:55.000Z</time>
      </trkpt>
      <trkpt lat="43.6592" lon="2.32929">
        <ele>358.063563</ele>
        <time>2021-10-03T08:40:56.000Z</time>
      </trkpt>
      <trkpt lat="43.65923" lon="2.32929">
        <ele>358.254394</ele>
        <time>2021-10-03T08:40:57.000Z</time>
      </trkpt>
      <trkpt lat="43.65926" lon="2.32929">
        <ele>358.49483</ele>
        <time>2021-10-03T08:40:58.000Z</time>
      </trkpt>
      <trkpt lat="43.6593" lon="2.32929">
        <ele>358.735103</ele>
        <time>2021-10-03T08:40:59.000Z</time>
      </trkpt>
      <trkpt lat="43.65933" lon="2.32929">
        <ele>358.982599</ele>
        <time>2021-10-03T08:41:00.000Z</time>
      </trkpt>
      <trkpt lat="43.65937" lon="2.3293">
        <ele>359.224173</ele>
        <time>2021-10-03T08:41:01.000Z</time>
      </trkpt>
      <trkpt lat="43.6594" lon="2.3293">
        <ele>359.464447</ele>
        <time>2021-10-03T08:41:02.000Z</time>
      </trkpt>
      <trkpt lat="43.65944" lon="2.3293">
        <ele>359.7353</ele>
        <time>2021-10-03T08:41:03.000Z</time>
      </trkpt>
      <trkpt lat="43.65947" lon="2.3293">
        <ele>359.982637</ele>
        <time>2021-10-03T08:41:04.000Z</time>
      </trkpt>
      <trkpt lat="43.65951" lon="2.3293">
        <ele>360.215847</ele>
        <time>2021-10-03T08:41:05.000Z</time>
      </trkpt>
      <trkpt lat="43.65954" lon="2.3293">
        <ele>360.442455</ele>
        <time>2021-10-03T08:41:06.000Z</time>
      </trkpt>
      <trkpt lat="43.65957" lon="2.3293">
        <ele>360.682674</ele>
        <time>2021-10-03T08:41:07.000Z</time>
      </trkpt>
      <trkpt lat="43.6596" lon="2.3293">
        <ele>360.895185</ele>
        <time>2021-10-03T08:41:08.000Z</time>
      </trkpt>
      <trkpt lat="43.65963" lon="2.3293">
        <ele>361.114209</ele>
        <time>2021-10-03T08:41:09.000Z</time>
      </trkpt>
      <trkpt lat="43.65967" lon="2.32929">
        <ele>361.349371</ele>
        <time>2021-10-03T08:41:10.000Z</time>
      </trkpt>
      <trkpt lat="43.6597" lon="2.32929">
        <ele>361.624963</ele>
        <time>2021-10-03T08:41:11.000Z</time>
      </trkpt>
      <trkpt lat="43.65974" lon="2.32929">
        <ele>361.893443</ele>
        <time>2021-10-03T08:41:12.000Z</time>
      </trkpt>
      <trkpt lat="43.65978" lon="2.32929">
        <ele>362.161923</ele>
        <time>2021-10-03T08:41:13.000Z</time>
      </trkpt>
      <trkpt lat="43.65982" lon="2.32929">
        <ele>362.437895</ele>
        <time>2021-10-03T08:41:14.000Z</time>
      </trkpt>
      <trkpt lat="43.65985" lon="2.32929">
        <ele>362.678603</ele>
        <time>2021-10-03T08:41:15.000Z</time>
      </trkpt>
      <trkpt lat="43.65989" lon="2.32929">
        <ele>362.947131</ele>
        <time>2021-10-03T08:41:16.000Z</time>
      </trkpt>
      <trkpt lat="43.65992" lon="2.3293">
        <ele>363.18118</ele>
        <time>2021-10-03T08:41:17.000Z</time>
      </trkpt>
      <trkpt lat="43.65996" lon="2.3293">
        <ele>363.438795</ele>
        <time>2021-10-03T08:41:18.000Z</time>
      </trkpt>
      <trkpt lat="43.65999" lon="2.32931">
        <ele>363.63767</ele>
        <time>2021-10-03T08:41:19.000Z</time>
      </trkpt>
      <trkpt lat="43.66002" lon="2.32932">
        <ele>363.880539</ele>
        <time>2021-10-03T08:41:20.000Z</time>
      </trkpt>
      <trkpt lat="43.66006" lon="2.32933">
        <ele>364.122114</ele>
        <time>2021-10-03T08:41:21.000Z</time>
      </trkpt>
      <trkpt lat="43.66009" lon="2.32933">
        <ele>364.392967</ele>
        <time>2021-10-03T08:41:22.000Z</time>
      </trkpt>
      <trkpt lat="43.66013" lon="2.32933">
        <ele>364.635136</ele>
        <time>2021-10-03T08:41:23.000Z</time>
      </trkpt>
      <trkpt lat="43.66016" lon="2.32934">
        <ele>364.861261</ele>
        <time>2021-10-03T08:41:24.000Z</time>
      </trkpt>
      <trkpt lat="43.66019" lon="2.32934">
        <ele>365.08177</ele>
        <time>2021-10-03T08:41:25.000Z</time>
      </trkpt>
      <trkpt lat="43.66022" lon="2.32935">
        <ele>365.304577</ele>
        <time>2021-10-03T08:41:26.000Z</time>
      </trkpt>
      <trkpt lat="43.66024" lon="2.32936">
        <ele>365.478269</ele>
        <time>2021-10-03T08:41:27.000Z</time>
      </trkpt>
      <trkpt lat="43.66028" lon="2.32938">
        <ele>365.741378</ele>
        <time>2021-10-03T08:41:28.000Z</time>
      </trkpt>
      <trkpt lat="43.66031" lon="2.3294">
        <ele>365.972443</ele>
        <time>2021-10-03T08:41:29.000Z</time>
      </trkpt>
      <trkpt lat="43.66034" lon="2.32942">
        <ele>366.237679</ele>
        <time>2021-10-03T08:41:30.000Z</time>
      </trkpt>
      <trkpt lat="43.66037" lon="2.32945">
        <ele>366.486258</ele>
        <time>2021-10-03T08:41:31.000Z</time>
      </trkpt>
      <trkpt lat="43.6604" lon="2.32947">
        <ele>366.734837</ele>
        <time>2021-10-03T08:41:32.000Z</time>
      </trkpt>
      <trkpt lat="43.66043" lon="2.3295">
        <ele>366.958607</ele>
        <time>2021-10-03T08:41:33.000Z</time>
      </trkpt>
      <trkpt lat="43.66045" lon="2.32952">
        <ele>367.167894</ele>
        <time>2021-10-03T08:41:34.000Z</time>
      </trkpt>
      <trkpt lat="43.66048" lon="2.32954">
        <ele>367.391664</ele>
        <time>2021-10-03T08:41:35.000Z</time>
      </trkpt>
      <trkpt lat="43.66051" lon="2.32957">
        <ele>367.663755</ele>
        <time>2021-10-03T08:41:36.000Z</time>
      </trkpt>
      <trkpt lat="43.66054" lon="2.32959">
        <ele>367.899978</ele>
        <time>2021-10-03T08:41:37.000Z</time>
      </trkpt>
      <trkpt lat="43.66058" lon="2.32962">
        <ele>368.170914</ele>
        <time>2021-10-03T08:41:38.000Z</time>
      </trkpt>
      <trkpt lat="43.6606" lon="2.32964">
        <ele>368.351502</ele>
        <time>2021-10-03T08:41:39.000Z</time>
      </trkpt>
      <trkpt lat="43.66063" lon="2.32967">
        <ele>368.604428</ele>
        <time>2021-10-03T08:41:40.000Z</time>
      </trkpt>
      <trkpt lat="43.66066" lon="2.3297">
        <ele>368.895223</ele>
        <time>2021-10-03T08:41:41.000Z</time>
      </trkpt>
      <trkpt lat="43.66069" lon="2.32974">
        <ele>369.153275</ele>
        <time>2021-10-03T08:41:42.000Z</time>
      </trkpt>
      <trkpt lat="43.66071" lon="2.32977">
        <ele>369.411328</ele>
        <time>2021-10-03T08:41:43.000Z</time>
      </trkpt>
      <trkpt lat="43.66074" lon="2.3298">
        <ele>369.627866</ele>
        <time>2021-10-03T08:41:44.000Z</time>
      </trkpt>
      <trkpt lat="43.66076" lon="2.32982">
        <ele>369.837788</ele>
        <time>2021-10-03T08:41:45.000Z</time>
      </trkpt>
      <trkpt lat="43.66079" lon="2.32984">
        <ele>370.107865</ele>
        <time>2021-10-03T08:41:46.000Z</time>
      </trkpt>
      <trkpt lat="43.66082" lon="2.32986">
        <ele>370.364887</ele>
        <time>2021-10-03T08:41:47.000Z</time>
      </trkpt>
      <trkpt lat="43.66085" lon="2.32985">
        <ele>370.644951</ele>
        <time>2021-10-03T08:41:48.000Z</time>
      </trkpt>
      <trkpt lat="43.66088" lon="2.32984">
        <ele>370.872565</ele>
        <time>2021-10-03T08:41:49.000Z</time>
      </trkpt>
      <trkpt lat="43.6609" lon="2.32979">
        <ele>371.181456</ele>
        <time>2021-10-03T08:41:50.000Z</time>
      </trkpt>
      <trkpt lat="43.66091" lon="2.32975">
        <ele>371.471048</ele>
        <time>2021-10-03T08:41:51.000Z</time>
      </trkpt>
      <trkpt lat="43.66093" lon="2.3297">
        <ele>371.796011</ele>
        <time>2021-10-03T08:41:52.000Z</time>
      </trkpt>
      <trkpt lat="43.66093" lon="2.32965">
        <ele>372.099761</ele>
        <time>2021-10-03T08:41:53.000Z</time>
      </trkpt>
      <trkpt lat="43.66093" lon="2.3296">
        <ele>372.385539</ele>
        <time>2021-10-03T08:41:54.000Z</time>
      </trkpt>
      <trkpt lat="43.66093" lon="2.32955">
        <ele>372.672381</ele>
        <time>2021-10-03T08:41:55.000Z</time>
      </trkpt>
      <trkpt lat="43.66094" lon="2.3295">
        <ele>372.97726</ele>
        <time>2021-10-03T08:41:56.000Z</time>
      </trkpt>
      <trkpt lat="43.66094" lon="2.32945">
        <ele>373.274945</ele>
        <time>2021-10-03T08:41:57.000Z</time>
      </trkpt>
      <trkpt lat="43.66094" lon="2.3294">
        <ele>373.586283</ele>
        <time>2021-10-03T08:41:58.000Z</time>
      </trkpt>
      <trkpt lat="43.66095" lon="2.32935">
        <ele>373.903542</ele>
        <time>2021-10-03T08:41:59.000Z</time>
      </trkpt>
      <trkpt lat="43.66095" lon="2.32929">
        <ele>374.214117</ele>
        <time>2021-10-03T08:42:00.000Z</time>
      </trkpt>
      <trkpt lat="43.66095" lon="2.32925">
        <ele>374.472234</ele>
        <time>2021-10-03T08:42:01.000Z</time>
      </trkpt>
      <trkpt lat="43.66095" lon="2.32921">
        <ele>374.734326</ele>
        <time>2021-10-03T08:42:02.000Z</time>
      </trkpt>
      <trkpt lat="43.66095" lon="2.32916">
        <ele>375.020104</ele>
        <time>2021-10-03T08:42:03.000Z</time>
      </trkpt>
      <trkpt lat="43.66095" lon="2.32911">
        <ele>375.299928</ele>
        <time>2021-10-03T08:42:04.000Z</time>
      </trkpt>
      <trkpt lat="43.66095" lon="2.32907">
        <ele>375.573798</ele>
        <time>2021-10-03T08:42:05.000Z</time>
      </trkpt>
      <trkpt lat="43.66096" lon="2.32902">
        <ele>375.854709</ele>
        <time>2021-10-03T08:42:06.000Z</time>
      </trkpt>
      <trkpt lat="43.66096" lon="2.32897">
        <ele>376.12464</ele>
        <time>2021-10-03T08:42:07.000Z</time>
      </trkpt>
      <trkpt lat="43.66096" lon="2.32893">
        <ele>376.386603</ele>
        <time>2021-10-03T08:42:08.000Z</time>
      </trkpt>
      <trkpt lat="43.66096" lon="2.32889">
        <ele>376.612844</ele>
        <time>2021-10-03T08:42:09.000Z</time>
      </trkpt>
      <trkpt lat="43.66096" lon="2.32885">
        <ele>376.874807</ele>
        <time>2021-10-03T08:42:10.000Z</time>
      </trkpt>
      <trkpt lat="43.66097" lon="2.3288">
        <ele>377.168389</ele>
        <time>2021-10-03T08:42:11.000Z</time>
      </trkpt>
      <trkpt lat="43.66097" lon="2.32875">
        <ele>377.438321</ele>
        <time>2021-10-03T08:42:12.000Z</time>
      </trkpt>
      <trkpt lat="43.66097" lon="2.32871">
        <ele>377.695517</ele>
        <time>2021-10-03T08:42:13.000Z</time>
      </trkpt>
      <trkpt lat="43.66097" lon="2.32867">
        <ele>377.957609</ele>
        <time>2021-10-03T08:42:14.000Z</time>
      </trkpt>
      <trkpt lat="43.66098" lon="2.32863">
        <ele>378.185193</ele>
        <time>2021-10-03T08:42:15.000Z</time>
      </trkpt>
      <trkpt lat="43.66098" lon="2.32859">
        <ele>378.413816</ele>
        <time>2021-10-03T08:42:16.000Z</time>
      </trkpt>
      <trkpt lat="43.66098" lon="2.32855">
        <ele>378.663871</ele>
        <time>2021-10-03T08:42:17.000Z</time>
      </trkpt>
      <trkpt lat="43.66098" lon="2.3285">
        <ele>378.932923</ele>
        <time>2021-10-03T08:42:18.000Z</time>
      </trkpt>
      <trkpt lat="43.66097" lon="2.32846">
        <ele>379.208764</ele>
        <time>2021-10-03T08:42:19.000Z</time>
      </trkpt>
      <trkpt lat="43.66097" lon="2.32841">
        <ele>379.470727</ele>
        <time>2021-10-03T08:42:20.000Z</time>
      </trkpt>
      <trkpt lat="43.66097" lon="2.32837">
        <ele>379.744597</ele>
        <time>2021-10-03T08:42:21.000Z</time>
      </trkpt>
      <trkpt lat="43.66097" lon="2.32832">
        <ele>380.036329</ele>
        <time>2021-10-03T08:42:22.000Z</time>
      </trkpt>
      <trkpt lat="43.66098" lon="2.32827">
        <ele>380.311309</ele>
        <time>2021-10-03T08:42:23.000Z</time>
      </trkpt>
      <trkpt lat="43.66098" lon="2.32822">
        <ele>380.603041</ele>
        <time>2021-10-03T08:42:24.000Z</time>
      </trkpt>
      <trkpt lat="43.66097" lon="2.32818">
        <ele>380.878021</ele>
        <time>2021-10-03T08:42:25.000Z</time>
      </trkpt>
      <trkpt lat="43.66098" lon="2.32813">
        <ele>381.158932</ele>
        <time>2021-10-03T08:42:26.000Z</time>
      </trkpt>
      <trkpt lat="43.66098" lon="2.32809">
        <ele>381.423272</ele>
        <time>2021-10-03T08:42:27.000Z</time>
      </trkpt>
      <trkpt lat="43.661" lon="2.32804">
        <ele>381.723678</ele>
        <time>2021-10-03T08:42:28.000Z</time>
      </trkpt>
      <trkpt lat="43.66102" lon="2.32801">
        <ele>381.984637</ele>
        <time>2021-10-03T08:42:29.000Z</time>
      </trkpt>
      <trkpt lat="43.66104" lon="2.32797">
        <ele>382.284964</ele>
        <time>2021-10-03T08:42:30.000Z</time>
      </trkpt>
      <trkpt lat="43.66107" lon="2.32793">
        <ele>382.575456</ele>
        <time>2021-10-03T08:42:31.000Z</time>
      </trkpt>
      <trkpt lat="43.6611" lon="2.32791">
        <ele>382.880214</ele>
        <time>2021-10-03T08:42:32.000Z</time>
      </trkpt>
      <trkpt lat="43.66113" lon="2.32789">
        <ele>383.15432</ele>
        <time>2021-10-03T08:42:33.000Z</time>
      </trkpt>
      <trkpt lat="43.66116" lon="2.32787">
        <ele>383.454178</ele>
        <time>2021-10-03T08:42:34.000Z</time>
      </trkpt>
      <trkpt lat="43.6612" lon="2.32786">
        <ele>383.732209</ele>
        <time>2021-10-03T08:42:35.000Z</time>
      </trkpt>
      <trkpt lat="43.66123" lon="2.32786">
        <ele>383.989061</ele>
        <time>2021-10-03T08:42:36.000Z</time>
      </trkpt>
      <trkpt lat="43.66126" lon="2.32785">
        <ele>384.245292</ele>
        <time>2021-10-03T08:42:37.000Z</time>
      </trkpt>
      <trkpt lat="43.66129" lon="2.32785">
        <ele>384.527374</ele>
        <time>2021-10-03T08:42:38.000Z</time>
      </trkpt>
      <trkpt lat="43.66133" lon="2.32784">
        <ele>384.807102</ele>
        <time>2021-10-03T08:42:39.000Z</time>
      </trkpt>
      <trkpt lat="43.66136" lon="2.32784">
        <ele>385.062166</ele>
        <time>2021-10-03T08:42:40.000Z</time>
      </trkpt>
      <trkpt lat="43.66139" lon="2.32784">
        <ele>385.317848</ele>
        <time>2021-10-03T08:42:41.000Z</time>
      </trkpt>
      <trkpt lat="43.66142" lon="2.32783">
        <ele>385.565395</ele>
        <time>2021-10-03T08:42:42.000Z</time>
      </trkpt>
      <trkpt lat="43.66145" lon="2.32783">
        <ele>385.819424</ele>
        <time>2021-10-03T08:42:43.000Z</time>
      </trkpt>
      <trkpt lat="43.66148" lon="2.32783">
        <ele>386.065262</ele>
        <time>2021-10-03T08:42:44.000Z</time>
      </trkpt>
      <trkpt lat="43.66151" lon="2.32783">
        <ele>386.343862</ele>
        <time>2021-10-03T08:42:45.000Z</time>
      </trkpt>
      <trkpt lat="43.66154" lon="2.32782">
        <ele>386.598443</ele>
        <time>2021-10-03T08:42:46.000Z</time>
      </trkpt>
      <trkpt lat="43.66157" lon="2.32782">
        <ele>386.852678</ele>
        <time>2021-10-03T08:42:47.000Z</time>
      </trkpt>
      <trkpt lat="43.6616" lon="2.32782">
        <ele>387.098446</ele>
        <time>2021-10-03T08:42:48.000Z</time>
      </trkpt>
      <trkpt lat="43.66164" lon="2.32783">
        <ele>387.353509</ele>
        <time>2021-10-03T08:42:49.000Z</time>
      </trkpt>
      <trkpt lat="43.66167" lon="2.32783">
        <ele>387.599348</ele>
        <time>2021-10-03T08:42:50.000Z</time>
      </trkpt>
      <trkpt lat="43.66169" lon="2.32782">
        <ele>387.82834</ele>
        <time>2021-10-03T08:42:51.000Z</time>
      </trkpt>
      <trkpt lat="43.66172" lon="2.32781">
        <ele>388.089123</ele>
        <time>2021-10-03T08:42:52.000Z</time>
      </trkpt>
      <trkpt lat="43.66176" lon="2.3278">
        <ele>388.371665</ele>
        <time>2021-10-03T08:42:53.000Z</time>
      </trkpt>
      <trkpt lat="43.6618" lon="2.32779">
        <ele>388.685723</ele>
        <time>2021-10-03T08:42:54.000Z</time>
      </trkpt>
      <trkpt lat="43.66183" lon="2.32779">
        <ele>388.997253</ele>
        <time>2021-10-03T08:42:55.000Z</time>
      </trkpt>
      <trkpt lat="43.66187" lon="2.32779">
        <ele>389.276041</ele>
        <time>2021-10-03T08:42:56.000Z</time>
      </trkpt>
      <trkpt lat="43.6619" lon="2.32779">
        <ele>389.538193</ele>
        <time>2021-10-03T08:42:57.000Z</time>
      </trkpt>
      <trkpt lat="43.66194" lon="2.32779">
        <ele>389.842751</ele>
        <time>2021-10-03T08:42:58.000Z</time>
      </trkpt>
      <trkpt lat="43.66197" lon="2.32779">
        <ele>390.091077</ele>
        <time>2021-10-03T08:42:59.000Z</time>
      </trkpt>
      <trkpt lat="43.662" lon="2.32779">
        <ele>390.377806</ele>
        <time>2021-10-03T08:43:00.000Z</time>
      </trkpt>
      <trkpt lat="43.66204" lon="2.32779">
        <ele>390.657349</ele>
        <time>2021-10-03T08:43:01.000Z</time>
      </trkpt>
      <trkpt lat="43.66207" lon="2.32779">
        <ele>390.968879</ele>
        <time>2021-10-03T08:43:02.000Z</time>
      </trkpt>
      <trkpt lat="43.6621" lon="2.32779">
        <ele>391.190783</ele>
        <time>2021-10-03T08:43:03.000Z</time>
      </trkpt>
      <trkpt lat="43.66213" lon="2.32779">
        <ele>391.469571</ele>
        <time>2021-10-03T08:43:04.000Z</time>
      </trkpt>
      <trkpt lat="43.66216" lon="2.32779">
        <ele>391.691079</ele>
        <time>2021-10-03T08:43:05.000Z</time>
      </trkpt>
      <trkpt lat="43.6622" lon="2.32779">
        <ele>392.02717</ele>
        <time>2021-10-03T08:43:06.000Z</time>
      </trkpt>
      <trkpt lat="43.66224" lon="2.32779">
        <ele>392.313898</ele>
        <time>2021-10-03T08:43:07.000Z</time>
      </trkpt>
      <trkpt lat="43.66228" lon="2.32779">
        <ele>392.625711</ele>
        <time>2021-10-03T08:43:08.000Z</time>
      </trkpt>
      <trkpt lat="43.66231" lon="2.32778">
        <ele>392.915425</ele>
        <time>2021-10-03T08:43:09.000Z</time>
      </trkpt>
      <trkpt lat="43.66235" lon="2.32778">
        <ele>393.259703</ele>
        <time>2021-10-03T08:43:10.000Z</time>
      </trkpt>
      <trkpt lat="43.66239" lon="2.32777">
        <ele>393.540499</ele>
        <time>2021-10-03T08:43:11.000Z</time>
      </trkpt>
      <trkpt lat="43.66242" lon="2.32777">
        <ele>393.852706</ele>
        <time>2021-10-03T08:43:12.000Z</time>
      </trkpt>
      <trkpt lat="43.66246" lon="2.32777">
        <ele>394.140961</ele>
        <time>2021-10-03T08:43:13.000Z</time>
      </trkpt>
      <trkpt lat="43.6625" lon="2.32777">
        <ele>394.444074</ele>
        <time>2021-10-03T08:43:14.000Z</time>
      </trkpt>
      <trkpt lat="43.66253" lon="2.32777">
        <ele>394.698655</ele>
        <time>2021-10-03T08:43:15.000Z</time>
      </trkpt>
      <trkpt lat="43.66256" lon="2.32777">
        <ele>394.985628</ele>
        <time>2021-10-03T08:43:16.000Z</time>
      </trkpt>
      <trkpt lat="43.6626" lon="2.32777">
        <ele>395.288741</ele>
        <time>2021-10-03T08:43:17.000Z</time>
      </trkpt>
      <trkpt lat="43.66263" lon="2.32777">
        <ele>395.57602</ele>
        <time>2021-10-03T08:43:18.000Z</time>
      </trkpt>
      <trkpt lat="43.66267" lon="2.32778">
        <ele>395.855123</ele>
        <time>2021-10-03T08:43:19.000Z</time>
      </trkpt>
      <trkpt lat="43.66271" lon="2.32778">
        <ele>396.166485</ele>
        <time>2021-10-03T08:43:20.000Z</time>
      </trkpt>
      <trkpt lat="43.66274" lon="2.32778">
        <ele>396.445273</ele>
        <time>2021-10-03T08:43:21.000Z</time>
      </trkpt>
      <trkpt lat="43.66277" lon="2.32778">
        <ele>396.709094</ele>
        <time>2021-10-03T08:43:22.000Z</time>
      </trkpt>
      <trkpt lat="43.6628" lon="2.32778">
        <ele>396.939698</ele>
        <time>2021-10-03T08:43:23.000Z</time>
      </trkpt>
      <trkpt lat="43.66283" lon="2.32779">
        <ele>397.202452</ele>
        <time>2021-10-03T08:43:24.000Z</time>
      </trkpt>
      <trkpt lat="43.66286" lon="2.32779">
        <ele>397.423642</ele>
        <time>2021-10-03T08:43:25.000Z</time>
      </trkpt>
      <trkpt lat="43.66289" lon="2.32779">
        <ele>397.703185</ele>
        <time>2021-10-03T08:43:26.000Z</time>
      </trkpt>
      <trkpt lat="43.66293" lon="2.3278">
        <ele>398.015392</ele>
        <time>2021-10-03T08:43:27.000Z</time>
      </trkpt>
      <trkpt lat="43.66297" lon="2.3278">
        <ele>398.302671</ele>
        <time>2021-10-03T08:43:28.000Z</time>
      </trkpt>
      <trkpt lat="43.663" lon="2.3278">
        <ele>398.550218</ele>
        <time>2021-10-03T08:43:29.000Z</time>
      </trkpt>
      <trkpt lat="43.66303" lon="2.32781">
        <ele>398.838473</ele>
        <time>2021-10-03T08:43:30.000Z</time>
      </trkpt>
      <trkpt lat="43.66307" lon="2.32781">
        <ele>399.141818</ele>
        <time>2021-10-03T08:43:31.000Z</time>
      </trkpt>
      <trkpt lat="43.6631" lon="2.32782">
        <ele>399.438273</ele>
        <time>2021-10-03T08:43:32.000Z</time>
      </trkpt>
      <trkpt lat="43.66314" lon="2.32782">
        <ele>399.812605</ele>
        <time>2021-10-03T08:43:33.000Z</time>
      </trkpt>
      <trkpt lat="43.66318" lon="2.32781">
        <ele>400.271296</ele>
        <time>2021-10-03T08:43:34.000Z</time>
      </trkpt>
      <trkpt lat="43.66321" lon="2.32781">
        <ele>400.583351</ele>
        <time>2021-10-03T08:43:35.000Z</time>
      </trkpt>
      <trkpt lat="43.66325" lon="2.32781">
        <ele>400.947303</ele>
        <time>2021-10-03T08:43:36.000Z</time>
      </trkpt>
      <trkpt lat="43.66328" lon="2.32781">
        <ele>401.301273</ele>
        <time>2021-10-03T08:43:37.000Z</time>
      </trkpt>
      <trkpt lat="43.66332" lon="2.3278">
        <ele>401.6677</ele>
        <time>2021-10-03T08:43:38.000Z</time>
      </trkpt>
      <trkpt lat="43.66336" lon="2.32779">
        <ele>402.074421</ele>
        <time>2021-10-03T08:43:39.000Z</time>
      </trkpt>
      <trkpt lat="43.66339" lon="2.32777">
        <ele>402.443011</ele>
        <time>2021-10-03T08:43:40.000Z</time>
      </trkpt>
      <trkpt lat="43.66343" lon="2.32777">
        <ele>402.838465</ele>
        <time>2021-10-03T08:43:41.000Z</time>
      </trkpt>
      <trkpt lat="43.66347" lon="2.32777">
        <ele>403.234418</ele>
        <time>2021-10-03T08:43:42.000Z</time>
      </trkpt>
      <trkpt lat="43.6635" lon="2.32778">
        <ele>403.607339</ele>
        <time>2021-10-03T08:43:43.000Z</time>
      </trkpt>
      <trkpt lat="43.66354" lon="2.32781">
        <ele>404.035377</ele>
        <time>2021-10-03T08:43:44.000Z</time>
      </trkpt>
      <trkpt lat="43.66357" lon="2.32783">
        <ele>404.369999</ele>
        <time>2021-10-03T08:43:45.000Z</time>
      </trkpt>
      <trkpt lat="43.66359" lon="2.32786">
        <ele>404.731687</ele>
        <time>2021-10-03T08:43:46.000Z</time>
      </trkpt>
      <trkpt lat="43.66362" lon="2.32789">
        <ele>405.076102</ele>
        <time>2021-10-03T08:43:47.000Z</time>
      </trkpt>
      <trkpt lat="43.66364" lon="2.32793">
        <ele>405.448494</ele>
        <time>2021-10-03T08:43:48.000Z</time>
      </trkpt>
      <trkpt lat="43.66366" lon="2.32797">
        <ele>405.795684</ele>
        <time>2021-10-03T08:43:49.000Z</time>
      </trkpt>
      <trkpt lat="43.66368" lon="2.32802">
        <ele>406.193807</ele>
        <time>2021-10-03T08:43:50.000Z</time>
      </trkpt>
      <trkpt lat="43.66369" lon="2.32806">
        <ele>406.561336</ele>
        <time>2021-10-03T08:43:51.000Z</time>
      </trkpt>
      <trkpt lat="43.6637" lon="2.3281">
        <ele>406.895041</ele>
        <time>2021-10-03T08:43:52.000Z</time>
      </trkpt>
      <trkpt lat="43.6637" lon="2.32814">
        <ele>407.199721</ele>
        <time>2021-10-03T08:43:53.000Z</time>
      </trkpt>
      <trkpt lat="43.66371" lon="2.32818">
        <ele>407.494443</ele>
        <time>2021-10-03T08:43:54.000Z</time>
      </trkpt>
      <trkpt lat="43.66371" lon="2.32822">
        <ele>407.759343</ele>
        <time>2021-10-03T08:43:55.000Z</time>
      </trkpt>
      <trkpt lat="43.6637" lon="2.32825">
        <ele>407.98912</ele>
        <time>2021-10-03T08:43:56.000Z</time>
      </trkpt>
      <trkpt lat="43.66369" lon="2.32827">
        <ele>408.180933</ele>
        <time>2021-10-03T08:43:57.000Z</time>
      </trkpt>
      <trkpt lat="43.66368" lon="2.32829">
        <ele>408.387308</ele>
        <time>2021-10-03T08:43:58.000Z</time>
      </trkpt>
      <trkpt lat="43.66366" lon="2.3283">
        <ele>408.593684</ele>
        <time>2021-10-03T08:43:59.000Z</time>
      </trkpt>
      <trkpt lat="43.66365" lon="2.32832">
        <ele>408.800059</ele>
        <time>2021-10-03T08:44:00.000Z</time>
      </trkpt>
      <trkpt lat="43.66363" lon="2.32834">
        <ele>409.043702</ele>
        <time>2021-10-03T08:44:01.000Z</time>
      </trkpt>
      <trkpt lat="43.66361" lon="2.32836">
        <ele>409.272932</ele>
        <time>2021-10-03T08:44:02.000Z</time>
      </trkpt>
      <trkpt lat="43.6636" lon="2.32838">
        <ele>409.486437</ele>
        <time>2021-10-03T08:44:03.000Z</time>
      </trkpt>
      <trkpt lat="43.66358" lon="2.32842">
        <ele>409.797081</ele>
        <time>2021-10-03T08:44:04.000Z</time>
      </trkpt>
      <trkpt lat="43.66357" lon="2.32845">
        <ele>410.073045</ele>
        <time>2021-10-03T08:44:05.000Z</time>
      </trkpt>
      <trkpt lat="43.66354" lon="2.32847">
        <ele>410.39454</ele>
        <time>2021-10-03T08:44:06.000Z</time>
      </trkpt>
      <trkpt lat="43.66352" lon="2.3285">
        <ele>410.723597</ele>
        <time>2021-10-03T08:44:07.000Z</time>
      </trkpt>
      <trkpt lat="43.66349" lon="2.32852">
        <ele>411.069826</ele>
        <time>2021-10-03T08:44:08.000Z</time>
      </trkpt>
      <trkpt lat="43.66346" lon="2.32855">
        <ele>411.416929</ele>
        <time>2021-10-03T08:44:09.000Z</time>
      </trkpt>
      <trkpt lat="43.66343" lon="2.32859">
        <ele>411.818904</ele>
        <time>2021-10-03T08:44:10.000Z</time>
      </trkpt>
      <trkpt lat="43.66341" lon="2.32861">
        <ele>412.127308</ele>
        <time>2021-10-03T08:44:11.000Z</time>
      </trkpt>
      <trkpt lat="43.66339" lon="2.32865">
        <ele>412.50238</ele>
        <time>2021-10-03T08:44:12.000Z</time>
      </trkpt>
      <trkpt lat="43.66336" lon="2.32868">
        <ele>412.846795</ele>
        <time>2021-10-03T08:44:13.000Z</time>
      </trkpt>
      <trkpt lat="43.66334" lon="2.32872">
        <ele>413.221244</ele>
        <time>2021-10-03T08:44:14.000Z</time>
      </trkpt>
      <trkpt lat="43.66331" lon="2.32875">
        <ele>413.577979</ele>
        <time>2021-10-03T08:44:15.000Z</time>
      </trkpt>
      <trkpt lat="43.66329" lon="2.32878">
        <ele>413.940441</ele>
        <time>2021-10-03T08:44:16.000Z</time>
      </trkpt>
      <trkpt lat="43.66326" lon="2.32881">
        <ele>414.266836</ele>
        <time>2021-10-03T08:44:17.000Z</time>
      </trkpt>
      <trkpt lat="43.66324" lon="2.32885">
        <ele>414.63635</ele>
        <time>2021-10-03T08:44:18.000Z</time>
      </trkpt>
      <trkpt lat="43.66321" lon="2.32887">
        <ele>414.95219</ele>
        <time>2021-10-03T08:44:19.000Z</time>
      </trkpt>
      <trkpt lat="43.66319" lon="2.32891">
        <ele>415.326639</ele>
        <time>2021-10-03T08:44:20.000Z</time>
      </trkpt>
      <trkpt lat="43.66316" lon="2.32894">
        <ele>415.681889</ele>
        <time>2021-10-03T08:44:21.000Z</time>
      </trkpt>
      <trkpt lat="43.66313" lon="2.32897">
        <ele>416.046555</ele>
        <time>2021-10-03T08:44:22.000Z</time>
      </trkpt>
      <trkpt lat="43.66311" lon="2.329">
        <ele>416.398427</ele>
        <time>2021-10-03T08:44:23.000Z</time>
      </trkpt>
      <trkpt lat="43.66308" lon="2.32903">
        <ele>416.753677</ele>
        <time>2021-10-03T08:44:24.000Z</time>
      </trkpt>
      <trkpt lat="43.66305" lon="2.32906">
        <ele>417.115366</ele>
        <time>2021-10-03T08:44:25.000Z</time>
      </trkpt>
      <trkpt lat="43.66303" lon="2.32909">
        <ele>417.470616</ele>
        <time>2021-10-03T08:44:26.000Z</time>
      </trkpt>
      <trkpt lat="43.663" lon="2.32911">
        <ele>417.77002</ele>
        <time>2021-10-03T08:44:27.000Z</time>
      </trkpt>
      <trkpt lat="43.66298" lon="2.32914">
        <ele>418.06047</ele>
        <time>2021-10-03T08:44:28.000Z</time>
      </trkpt>
      <trkpt lat="43.66297" lon="2.32917">
        <ele>418.297227</ele>
        <time>2021-10-03T08:44:29.000Z</time>
      </trkpt>
      <trkpt lat="43.66296" lon="2.32921">
        <ele>418.552353</ele>
        <time>2021-10-03T08:44:30.000Z</time>
      </trkpt>
      <trkpt lat="43.66296" lon="2.32924">
        <ele>418.766333</ele>
        <time>2021-10-03T08:44:31.000Z</time>
      </trkpt>
      <trkpt lat="43.66297" lon="2.32929">
        <ele>419.044611</ele>
        <time>2021-10-03T08:44:32.000Z</time>
      </trkpt>
      <trkpt lat="43.66299" lon="2.32932">
        <ele>419.279331</ele>
        <time>2021-10-03T08:44:33.000Z</time>
      </trkpt>
      <trkpt lat="43.66301" lon="2.32935">
        <ele>419.581608</ele>
        <time>2021-10-03T08:44:34.000Z</time>
      </trkpt>
      <trkpt lat="43.66303" lon="2.32939">
        <ele>419.857005</ele>
        <time>2021-10-03T08:44:35.000Z</time>
      </trkpt>
      <trkpt lat="43.66305" lon="2.32942">
        <ele>420.132402</ele>
        <time>2021-10-03T08:44:36.000Z</time>
      </trkpt>
      <trkpt lat="43.66307" lon="2.32945">
        <ele>420.38811</ele>
        <time>2021-10-03T08:44:37.000Z</time>
      </trkpt>
      <trkpt lat="43.66309" lon="2.32949">
        <ele>420.638129</ele>
        <time>2021-10-03T08:44:38.000Z</time>
      </trkpt>
      <trkpt lat="43.6631" lon="2.32952">
        <ele>420.878105</ele>
        <time>2021-10-03T08:44:39.000Z</time>
      </trkpt>
      <trkpt lat="43.66311" lon="2.32956">
        <ele>421.144833</ele>
        <time>2021-10-03T08:44:40.000Z</time>
      </trkpt>
      <trkpt lat="43.66313" lon="2.3296">
        <ele>421.428387</ele>
        <time>2021-10-03T08:44:41.000Z</time>
      </trkpt>
      <trkpt lat="43.66314" lon="2.32964">
        <ele>421.707816</ele>
        <time>2021-10-03T08:44:42.000Z</time>
      </trkpt>
      <trkpt lat="43.66314" lon="2.32968">
        <ele>421.975072</ele>
        <time>2021-10-03T08:44:43.000Z</time>
      </trkpt>
      <trkpt lat="43.66314" lon="2.32973">
        <ele>422.251988</ele>
        <time>2021-10-03T08:44:44.000Z</time>
      </trkpt>
      <trkpt lat="43.66315" lon="2.32977">
        <ele>422.512358</ele>
        <time>2021-10-03T08:44:45.000Z</time>
      </trkpt>
      <trkpt lat="43.66315" lon="2.32981">
        <ele>422.801861</ele>
        <time>2021-10-03T08:44:46.000Z</time>
      </trkpt>
      <trkpt lat="43.66315" lon="2.32986">
        <ele>423.080954</ele>
        <time>2021-10-03T08:44:47.000Z</time>
      </trkpt>
      <trkpt lat="43.66315" lon="2.3299">
        <ele>423.37675</ele>
        <time>2021-10-03T08:44:48.000Z</time>
      </trkpt>
      <trkpt lat="43.66315" lon="2.32995">
        <ele>423.672546</ele>
        <time>2021-10-03T08:44:49.000Z</time>
      </trkpt>
      <trkpt lat="43.66315" lon="2.33">
        <ele>423.987223</ele>
        <time>2021-10-03T08:44:50.000Z</time>
      </trkpt>
      <trkpt lat="43.66315" lon="2.33005">
        <ele>424.285059</ele>
        <time>2021-10-03T08:44:51.000Z</time>
      </trkpt>
      <trkpt lat="43.66315" lon="2.33009">
        <ele>424.576645</ele>
        <time>2021-10-03T08:44:52.000Z</time>
      </trkpt>
      <trkpt lat="43.66315" lon="2.33014">
        <ele>424.842259</ele>
        <time>2021-10-03T08:44:53.000Z</time>
      </trkpt>
      <trkpt lat="43.66316" lon="2.33018">
        <ele>425.094151</ele>
        <time>2021-10-03T08:44:54.000Z</time>
      </trkpt>
      <trkpt lat="43.66316" lon="2.33021">
        <ele>425.333305</ele>
        <time>2021-10-03T08:44:55.000Z</time>
      </trkpt>
      <trkpt lat="43.66316" lon="2.33026">
        <ele>425.611447</ele>
        <time>2021-10-03T08:44:56.000Z</time>
      </trkpt>
      <trkpt lat="43.66317" lon="2.3303">
        <ele>425.8827</ele>
        <time>2021-10-03T08:44:57.000Z</time>
      </trkpt>
      <trkpt lat="43.66317" lon="2.33036">
        <ele>426.244059</ele>
        <time>2021-10-03T08:44:58.000Z</time>
      </trkpt>
      <trkpt lat="43.66317" lon="2.33041">
        <ele>426.553545</ele>
        <time>2021-10-03T08:44:59.000Z</time>
      </trkpt>
      <trkpt lat="43.66317" lon="2.33046">
        <ele>426.887215</ele>
        <time>2021-10-03T08:45:00.000Z</time>
      </trkpt>
      <trkpt lat="43.66317" lon="2.3305">
        <ele>427.171624</ele>
        <time>2021-10-03T08:45:01.000Z</time>
      </trkpt>
      <trkpt lat="43.66317" lon="2.33056">
        <ele>427.526736</ele>
        <time>2021-10-03T08:45:02.000Z</time>
      </trkpt>
      <trkpt lat="43.66316" lon="2.3306">
        <ele>427.802346</ele>
        <time>2021-10-03T08:45:03.000Z</time>
      </trkpt>
      <trkpt lat="43.66316" lon="2.33066">
        <ele>428.138728</ele>
        <time>2021-10-03T08:45:04.000Z</time>
      </trkpt>
      <trkpt lat="43.66315" lon="2.3307">
        <ele>428.436478</ele>
        <time>2021-10-03T08:45:05.000Z</time>
      </trkpt>
      <trkpt lat="43.66314" lon="2.33075">
        <ele>428.734314</ele>
        <time>2021-10-03T08:45:06.000Z</time>
      </trkpt>
      <trkpt lat="43.66314" lon="2.3308">
        <ele>429.036404</ele>
        <time>2021-10-03T08:45:07.000Z</time>
      </trkpt>
      <trkpt lat="43.66314" lon="2.33085">
        <ele>429.34589</ele>
        <time>2021-10-03T08:45:08.000Z</time>
      </trkpt>
      <trkpt lat="43.66314" lon="2.33089">
        <ele>429.649977</ele>
        <time>2021-10-03T08:45:09.000Z</time>
      </trkpt>
      <trkpt lat="43.66313" lon="2.33094">
        <ele>429.947813</ele>
        <time>2021-10-03T08:45:10.000Z</time>
      </trkpt>
      <trkpt lat="43.66313" lon="2.33099">
        <ele>430.237316</ele>
        <time>2021-10-03T08:45:11.000Z</time>
      </trkpt>
      <trkpt lat="43.66313" lon="2.33103">
        <ele>430.535152</ele>
        <time>2021-10-03T08:45:12.000Z</time>
      </trkpt>
      <trkpt lat="43.66313" lon="2.33108">
        <ele>430.805774</ele>
        <time>2021-10-03T08:45:13.000Z</time>
      </trkpt>
      <trkpt lat="43.66312" lon="2.33112">
        <ele>431.089306</ele>
        <time>2021-10-03T08:45:14.000Z</time>
      </trkpt>
      <trkpt lat="43.66312" lon="2.33116">
        <ele>431.349677</ele>
        <time>2021-10-03T08:45:15.000Z</time>
      </trkpt>
      <trkpt lat="43.66311" lon="2.3312">
        <ele>431.623015</ele>
        <time>2021-10-03T08:45:16.000Z</time>
      </trkpt>
      <trkpt lat="43.66311" lon="2.33125">
        <ele>431.914602</ele>
        <time>2021-10-03T08:45:17.000Z</time>
      </trkpt>
      <trkpt lat="43.6631" lon="2.3313">
        <ele>432.21044</ele>
        <time>2021-10-03T08:45:18.000Z</time>
      </trkpt>
      <trkpt lat="43.66309" lon="2.33134">
        <ele>432.502027</ele>
        <time>2021-10-03T08:45:19.000Z</time>
      </trkpt>
      <trkpt lat="43.66309" lon="2.33139">
        <ele>432.799863</ele>
        <time>2021-10-03T08:45:20.000Z</time>
      </trkpt>
      <trkpt lat="43.66309" lon="2.33144">
        <ele>433.103951</ele>
        <time>2021-10-03T08:45:21.000Z</time>
      </trkpt>
      <trkpt lat="43.66308" lon="2.33149">
        <ele>433.41829</ele>
        <time>2021-10-03T08:45:22.000Z</time>
      </trkpt>
      <trkpt lat="43.66307" lon="2.33153">
        <ele>433.709926</ele>
        <time>2021-10-03T08:45:23.000Z</time>
      </trkpt>
      <trkpt lat="43.66307" lon="2.33158">
        <ele>434.079883</ele>
        <time>2021-10-03T08:45:24.000Z</time>
      </trkpt>
      <trkpt lat="43.66306" lon="2.33162">
        <ele>434.437901</ele>
        <time>2021-10-03T08:45:25.000Z</time>
      </trkpt>
      <trkpt lat="43.66305" lon="2.33167">
        <ele>434.798333</ele>
        <time>2021-10-03T08:45:26.000Z</time>
      </trkpt>
      <trkpt lat="43.66305" lon="2.33171">
        <ele>435.118434</ele>
        <time>2021-10-03T08:45:27.000Z</time>
      </trkpt>
      <trkpt lat="43.66304" lon="2.33176">
        <ele>435.516742</ele>
        <time>2021-10-03T08:45:28.000Z</time>
      </trkpt>
      <trkpt lat="43.66303" lon="2.3318">
        <ele>435.862087</ele>
        <time>2021-10-03T08:45:29.000Z</time>
      </trkpt>
      <trkpt lat="43.66302" lon="2.33185">
        <ele>436.224187</ele>
        <time>2021-10-03T08:45:30.000Z</time>
      </trkpt>
      <trkpt lat="43.66301" lon="2.33189">
        <ele>436.559429</ele>
        <time>2021-10-03T08:45:31.000Z</time>
      </trkpt>
      <trkpt lat="43.663" lon="2.33193">
        <ele>436.939778</ele>
        <time>2021-10-03T08:45:32.000Z</time>
      </trkpt>
      <trkpt lat="43.663" lon="2.33198">
        <ele>437.292429</ele>
        <time>2021-10-03T08:45:33.000Z</time>
      </trkpt>
      <trkpt lat="43.66299" lon="2.33202">
        <ele>437.637361</ele>
        <time>2021-10-03T08:45:34.000Z</time>
      </trkpt>
      <trkpt lat="43.66299" lon="2.33207">
        <ele>437.997733</ele>
        <time>2021-10-03T08:45:35.000Z</time>
      </trkpt>
      <trkpt lat="43.66298" lon="2.33211">
        <ele>438.350383</ele>
        <time>2021-10-03T08:45:36.000Z</time>
      </trkpt>
      <trkpt lat="43.66298" lon="2.33216">
        <ele>438.723625</ele>
        <time>2021-10-03T08:45:37.000Z</time>
      </trkpt>
      <trkpt lat="43.66297" lon="2.33221">
        <ele>439.091721</ele>
        <time>2021-10-03T08:45:38.000Z</time>
      </trkpt>
      <trkpt lat="43.66296" lon="2.33225">
        <ele>439.452154</ele>
        <time>2021-10-03T08:45:39.000Z</time>
      </trkpt>
      <trkpt lat="43.66296" lon="2.3323">
        <ele>439.804805</ele>
        <time>2021-10-03T08:45:40.000Z</time>
      </trkpt>
      <trkpt lat="43.66296" lon="2.33234">
        <ele>440.133077</ele>
        <time>2021-10-03T08:45:41.000Z</time>
      </trkpt>
      <trkpt lat="43.66295" lon="2.33239">
        <ele>440.501068</ele>
        <time>2021-10-03T08:45:42.000Z</time>
      </trkpt>
      <trkpt lat="43.66295" lon="2.33243">
        <ele>440.838284</ele>
        <time>2021-10-03T08:45:43.000Z</time>
      </trkpt>
      <trkpt lat="43.66294" lon="2.33247">
        <ele>441.190935</ele>
        <time>2021-10-03T08:45:44.000Z</time>
      </trkpt>
      <trkpt lat="43.66294" lon="2.33252">
        <ele>441.566757</ele>
        <time>2021-10-03T08:45:45.000Z</time>
      </trkpt>
      <trkpt lat="43.66293" lon="2.33257">
        <ele>441.910514</ele>
        <time>2021-10-03T08:45:46.000Z</time>
      </trkpt>
      <trkpt lat="43.66293" lon="2.33261">
        <ele>442.24773</ele>
        <time>2021-10-03T08:45:47.000Z</time>
      </trkpt>
      <trkpt lat="43.66293" lon="2.33265">
        <ele>442.577233</ele>
        <time>2021-10-03T08:45:48.000Z</time>
      </trkpt>
      <trkpt lat="43.66292" lon="2.33269">
        <ele>442.891319</ele>
        <time>2021-10-03T08:45:49.000Z</time>
      </trkpt>
      <trkpt lat="43.66292" lon="2.33273">
        <ele>443.197702</ele>
        <time>2021-10-03T08:45:50.000Z</time>
      </trkpt>
      <trkpt lat="43.66292" lon="2.33277">
        <ele>443.479569</ele>
        <time>2021-10-03T08:45:51.000Z</time>
      </trkpt>
      <trkpt lat="43.66291" lon="2.3328">
        <ele>443.762868</ele>
        <time>2021-10-03T08:45:52.000Z</time>
      </trkpt>
      <trkpt lat="43.66291" lon="2.33284">
        <ele>444.050862</ele>
        <time>2021-10-03T08:45:53.000Z</time>
      </trkpt>
      <trkpt lat="43.66291" lon="2.33288">
        <ele>444.338655</ele>
        <time>2021-10-03T08:45:54.000Z</time>
      </trkpt>
      <trkpt lat="43.66291" lon="2.33292">
        <ele>444.642004</ele>
        <time>2021-10-03T08:45:55.000Z</time>
      </trkpt>
      <trkpt lat="43.66291" lon="2.33296">
        <ele>444.963797</ele>
        <time>2021-10-03T08:45:56.000Z</time>
      </trkpt>
      <trkpt lat="43.66292" lon="2.33299">
        <ele>445.268801</ele>
        <time>2021-10-03T08:45:57.000Z</time>
      </trkpt>
      <trkpt lat="43.66293" lon="2.33304">
        <ele>445.629234</ele>
        <time>2021-10-03T08:45:58.000Z</time>
      </trkpt>
      <trkpt lat="43.66293" lon="2.33308">
        <ele>445.912532</ele>
        <time>2021-10-03T08:45:59.000Z</time>
      </trkpt>
      <trkpt lat="43.66294" lon="2.33312">
        <ele>446.249748</ele>
        <time>2021-10-03T08:46:00.000Z</time>
      </trkpt>
      <trkpt lat="43.66294" lon="2.33315">
        <ele>446.506428</ele>
        <time>2021-10-03T08:46:01.000Z</time>
      </trkpt>
      <trkpt lat="43.66293" lon="2.33318">
        <ele>446.757412</ele>
        <time>2021-10-03T08:46:02.000Z</time>
      </trkpt>
      <trkpt lat="43.66293" lon="2.33321">
        <ele>446.991005</ele>
        <time>2021-10-03T08:46:03.000Z</time>
      </trkpt>
      <trkpt lat="43.66293" lon="2.33325">
        <ele>447.241989</ele>
        <time>2021-10-03T08:46:04.000Z</time>
      </trkpt>
      <trkpt lat="43.66293" lon="2.33328">
        <ele>447.506447</ele>
        <time>2021-10-03T08:46:05.000Z</time>
      </trkpt>
      <trkpt lat="43.66293" lon="2.33332">
        <ele>447.786462</ele>
        <time>2021-10-03T08:46:06.000Z</time>
      </trkpt>
      <trkpt lat="43.66293" lon="2.33335">
        <ele>448.068329</ele>
        <time>2021-10-03T08:46:07.000Z</time>
      </trkpt>
      <trkpt lat="43.66293" lon="2.33339">
        <ele>448.356122</ele>
        <time>2021-10-03T08:46:08.000Z</time>
      </trkpt>
      <trkpt lat="43.66293" lon="2.33343">
        <ele>448.675027</ele>
        <time>2021-10-03T08:46:09.000Z</time>
      </trkpt>
      <trkpt lat="43.66294" lon="2.33347">
        <ele>449.00533</ele>
        <time>2021-10-03T08:46:10.000Z</time>
      </trkpt>
      <trkpt lat="43.66294" lon="2.33351">
        <ele>449.300901</ele>
        <time>2021-10-03T08:46:11.000Z</time>
      </trkpt>
      <trkpt lat="43.66295" lon="2.33355">
        <ele>449.599585</ele>
        <time>2021-10-03T08:46:12.000Z</time>
      </trkpt>
      <trkpt lat="43.66295" lon="2.33358">
        <ele>449.864043</ele>
        <time>2021-10-03T08:46:13.000Z</time>
      </trkpt>
      <trkpt lat="43.66295" lon="2.33362">
        <ele>450.153638</ele>
        <time>2021-10-03T08:46:14.000Z</time>
      </trkpt>
      <trkpt lat="43.66295" lon="2.33366">
        <ele>450.467724</ele>
        <time>2021-10-03T08:46:15.000Z</time>
      </trkpt>
      <trkpt lat="43.66296" lon="2.3337">
        <ele>450.78181</ele>
        <time>2021-10-03T08:46:16.000Z</time>
      </trkpt>
      <trkpt lat="43.66296" lon="2.33374">
        <ele>451.139607</ele>
        <time>2021-10-03T08:46:17.000Z</time>
      </trkpt>
      <trkpt lat="43.66296" lon="2.33379">
        <ele>451.484539</ele>
        <time>2021-10-03T08:46:18.000Z</time>
      </trkpt>
      <trkpt lat="43.66296" lon="2.33383">
        <ele>451.83719</ele>
        <time>2021-10-03T08:46:19.000Z</time>
      </trkpt>
      <trkpt lat="43.66296" lon="2.33388">
        <ele>452.187208</ele>
        <time>2021-10-03T08:46:20.000Z</time>
      </trkpt>
      <trkpt lat="43.66296" lon="2.33392">
        <ele>452.552783</ele>
        <time>2021-10-03T08:46:21.000Z</time>
      </trkpt>
      <trkpt lat="43.66296" lon="2.33397">
        <ele>452.889999</ele>
        <time>2021-10-03T08:46:22.000Z</time>
      </trkpt>
      <trkpt lat="43.66296" lon="2.33401">
        <ele>453.211052</ele>
        <time>2021-10-03T08:46:23.000Z</time>
      </trkpt>
      <trkpt lat="43.66296" lon="2.33405">
        <ele>453.503144</ele>
        <time>2021-10-03T08:46:24.000Z</time>
      </trkpt>
      <trkpt lat="43.66297" lon="2.33409">
        <ele>453.760684</ele>
        <time>2021-10-03T08:46:25.000Z</time>
      </trkpt>
      <trkpt lat="43.66297" lon="2.33413">
        <ele>454.037073</ele>
        <time>2021-10-03T08:46:26.000Z</time>
      </trkpt>
      <trkpt lat="43.66297" lon="2.33418">
        <ele>454.328123</ele>
        <time>2021-10-03T08:46:27.000Z</time>
      </trkpt>
      <trkpt lat="43.66297" lon="2.33421">
        <ele>454.550651</ele>
        <time>2021-10-03T08:46:28.000Z</time>
      </trkpt>
      <trkpt lat="43.66298" lon="2.33425">
        <ele>454.848409</ele>
        <time>2021-10-03T08:46:29.000Z</time>
      </trkpt>
      <trkpt lat="43.66298" lon="2.33429">
        <ele>455.107125</ele>
        <time>2021-10-03T08:46:30.000Z</time>
      </trkpt>
      <trkpt lat="43.66298" lon="2.33433">
        <ele>455.399216</ele>
        <time>2021-10-03T08:46:31.000Z</time>
      </trkpt>
      <trkpt lat="43.66299" lon="2.33438">
        <ele>455.684627</ele>
        <time>2021-10-03T08:46:32.000Z</time>
      </trkpt>
      <trkpt lat="43.66299" lon="2.33442">
        <ele>455.948865</ele>
        <time>2021-10-03T08:46:33.000Z</time>
      </trkpt>
      <trkpt lat="43.663" lon="2.33446">
        <ele>456.245816</ele>
        <time>2021-10-03T08:46:34.000Z</time>
      </trkpt>
      <trkpt lat="43.663" lon="2.33451">
        <ele>456.625971</ele>
        <time>2021-10-03T08:46:35.000Z</time>
      </trkpt>
      <trkpt lat="43.663" lon="2.33456">
        <ele>456.93589</ele>
        <time>2021-10-03T08:46:36.000Z</time>
      </trkpt>
      <trkpt lat="43.663" lon="2.3346">
        <ele>457.232333</ele>
        <time>2021-10-03T08:46:37.000Z</time>
      </trkpt>
      <trkpt lat="43.663" lon="2.33464">
        <ele>457.481616</ele>
        <time>2021-10-03T08:46:38.000Z</time>
      </trkpt>
      <trkpt lat="43.663" lon="2.33468">
        <ele>457.744373</ele>
        <time>2021-10-03T08:46:39.000Z</time>
      </trkpt>
      <trkpt lat="43.66301" lon="2.33472">
        <ele>458.008562</ele>
        <time>2021-10-03T08:46:40.000Z</time>
      </trkpt>
      <trkpt lat="43.66301" lon="2.33475">
        <ele>458.227352</ele>
        <time>2021-10-03T08:46:41.000Z</time>
      </trkpt>
      <trkpt lat="43.66301" lon="2.33479">
        <ele>458.471501</ele>
        <time>2021-10-03T08:46:42.000Z</time>
      </trkpt>
      <trkpt lat="43.66301" lon="2.33483">
        <ele>458.756912</ele>
        <time>2021-10-03T08:46:43.000Z</time>
      </trkpt>
      <trkpt lat="43.66301" lon="2.33487">
        <ele>459.019669</ele>
        <time>2021-10-03T08:46:44.000Z</time>
      </trkpt>
      <trkpt lat="43.66301" lon="2.33491">
        <ele>459.317426</ele>
        <time>2021-10-03T08:46:45.000Z</time>
      </trkpt>
      <trkpt lat="43.66301" lon="2.33496">
        <ele>459.647688</ele>
        <time>2021-10-03T08:46:46.000Z</time>
      </trkpt>
      <trkpt lat="43.66301" lon="2.335">
        <ele>459.938738</ele>
        <time>2021-10-03T08:46:47.000Z</time>
      </trkpt>
      <trkpt lat="43.66302" lon="2.33505">
        <ele>460.268637</ele>
        <time>2021-10-03T08:46:48.000Z</time>
      </trkpt>
      <trkpt lat="43.66303" lon="2.3351">
        <ele>460.615383</ele>
        <time>2021-10-03T08:46:49.000Z</time>
      </trkpt>
      <trkpt lat="43.66304" lon="2.33515">
        <ele>460.973935</ele>
        <time>2021-10-03T08:46:50.000Z</time>
      </trkpt>
      <trkpt lat="43.66304" lon="2.3352">
        <ele>461.325526</ele>
        <time>2021-10-03T08:46:51.000Z</time>
      </trkpt>
      <trkpt lat="43.66306" lon="2.33525">
        <ele>461.677626</ele>
        <time>2021-10-03T08:46:52.000Z</time>
      </trkpt>
      <trkpt lat="43.66306" lon="2.33531">
        <ele>462.029216</ele>
        <time>2021-10-03T08:46:53.000Z</time>
      </trkpt>
      <trkpt lat="43.66307" lon="2.33535">
        <ele>462.361442</ele>
        <time>2021-10-03T08:46:54.000Z</time>
      </trkpt>
      <trkpt lat="43.66307" lon="2.33541">
        <ele>462.717798</ele>
        <time>2021-10-03T08:46:55.000Z</time>
      </trkpt>
      <trkpt lat="43.66308" lon="2.33545">
        <ele>463.047696</ele>
        <time>2021-10-03T08:46:56.000Z</time>
      </trkpt>
      <trkpt lat="43.66309" lon="2.33551">
        <ele>463.405873</ele>
        <time>2021-10-03T08:46:57.000Z</time>
      </trkpt>
      <trkpt lat="43.6631" lon="2.33556">
        <ele>463.757463</ele>
        <time>2021-10-03T08:46:58.000Z</time>
      </trkpt>
      <trkpt lat="43.66311" lon="2.33561">
        <ele>464.095896</ele>
        <time>2021-10-03T08:46:59.000Z</time>
      </trkpt>
      <trkpt lat="43.66312" lon="2.33565">
        <ele>464.400204</ele>
        <time>2021-10-03T08:47:00.000Z</time>
      </trkpt>
      <trkpt lat="43.66313" lon="2.3357">
        <ele>464.780919</ele>
        <time>2021-10-03T08:47:01.000Z</time>
      </trkpt>
      <trkpt lat="43.66314" lon="2.33575">
        <ele>465.116718</ele>
        <time>2021-10-03T08:47:02.000Z</time>
      </trkpt>
      <trkpt lat="43.66315" lon="2.33579">
        <ele>465.433418</ele>
        <time>2021-10-03T08:47:03.000Z</time>
      </trkpt>
      <trkpt lat="43.66316" lon="2.33584">
        <ele>465.758721</ele>
        <time>2021-10-03T08:47:04.000Z</time>
      </trkpt>
      <trkpt lat="43.66316" lon="2.33589">
        <ele>466.097641</ele>
        <time>2021-10-03T08:47:05.000Z</time>
      </trkpt>
      <trkpt lat="43.66317" lon="2.33594">
        <ele>466.420937</ele>
        <time>2021-10-03T08:47:06.000Z</time>
      </trkpt>
      <trkpt lat="43.66318" lon="2.33599">
        <ele>466.74624</ele>
        <time>2021-10-03T08:47:07.000Z</time>
      </trkpt>
      <trkpt lat="43.66319" lon="2.33603">
        <ele>467.064987</ele>
        <time>2021-10-03T08:47:08.000Z</time>
      </trkpt>
      <trkpt lat="43.6632" lon="2.33608">
        <ele>467.417263</ele>
        <time>2021-10-03T08:47:09.000Z</time>
      </trkpt>
      <trkpt lat="43.66321" lon="2.33613">
        <ele>467.743674</ele>
        <time>2021-10-03T08:47:10.000Z</time>
      </trkpt>
      <trkpt lat="43.66322" lon="2.33617">
        <ele>468.073126</ele>
        <time>2021-10-03T08:47:11.000Z</time>
      </trkpt>
      <trkpt lat="43.66323" lon="2.33622">
        <ele>468.405941</ele>
        <time>2021-10-03T08:47:12.000Z</time>
      </trkpt>
      <trkpt lat="43.66324" lon="2.33627">
        <ele>468.731471</ele>
        <time>2021-10-03T08:47:13.000Z</time>
      </trkpt>
      <trkpt lat="43.66325" lon="2.33631">
        <ele>469.070702</ele>
        <time>2021-10-03T08:47:14.000Z</time>
      </trkpt>
      <trkpt lat="43.66325" lon="2.33636">
        <ele>469.397429</ele>
        <time>2021-10-03T08:47:15.000Z</time>
      </trkpt>
      <trkpt lat="43.66326" lon="2.33641">
        <ele>469.727496</ele>
        <time>2021-10-03T08:47:16.000Z</time>
      </trkpt>
      <trkpt lat="43.66327" lon="2.33646">
        <ele>469.821573</ele>
        <time>2021-10-03T08:47:17.000Z</time>
      </trkpt>
      <trkpt lat="43.66328" lon="2.33651">
        <ele>469.816523</ele>
        <time>2021-10-03T08:47:18.000Z</time>
      </trkpt>
      <trkpt lat="43.66329" lon="2.33656">
        <ele>469.811568</ele>
        <time>2021-10-03T08:47:19.000Z</time>
      </trkpt>
      <trkpt lat="43.6633" lon="2.33661">
        <ele>469.806225</ele>
        <time>2021-10-03T08:47:20.000Z</time>
      </trkpt>
      <trkpt lat="43.6633" lon="2.33666">
        <ele>469.800871</ele>
        <time>2021-10-03T08:47:21.000Z</time>
      </trkpt>
      <trkpt lat="43.66331" lon="2.33671">
        <ele>469.795848</ele>
        <time>2021-10-03T08:47:22.000Z</time>
      </trkpt>
      <trkpt lat="43.66331" lon="2.33677">
        <ele>469.790224</ele>
        <time>2021-10-03T08:47:23.000Z</time>
      </trkpt>
      <trkpt lat="43.66332" lon="2.33683">
        <ele>469.784772</ele>
        <time>2021-10-03T08:47:24.000Z</time>
      </trkpt>
      <trkpt lat="43.66332" lon="2.33688">
        <ele>469.779248</ele>
        <time>2021-10-03T08:47:25.000Z</time>
      </trkpt>
      <trkpt lat="43.66332" lon="2.33693">
        <ele>469.77412</ele>
        <time>2021-10-03T08:47:26.000Z</time>
      </trkpt>
      <trkpt lat="43.66332" lon="2.33699">
        <ele>469.768876</ele>
        <time>2021-10-03T08:47:27.000Z</time>
      </trkpt>
      <trkpt lat="43.66333" lon="2.33704">
        <ele>469.763729</ele>
        <time>2021-10-03T08:47:28.000Z</time>
      </trkpt>
      <trkpt lat="43.66334" lon="2.3371">
        <ele>469.75772</ele>
        <time>2021-10-03T08:47:29.000Z</time>
      </trkpt>
      <trkpt lat="43.66335" lon="2.33715">
        <ele>469.752508</ele>
        <time>2021-10-03T08:47:30.000Z</time>
      </trkpt>
      <trkpt lat="43.66336" lon="2.33721">
        <ele>469.745856</ele>
        <time>2021-10-03T08:47:31.000Z</time>
      </trkpt>
      <trkpt lat="43.66337" lon="2.33727">
        <ele>469.739936</ele>
        <time>2021-10-03T08:47:32.000Z</time>
      </trkpt>
      <trkpt lat="43.66338" lon="2.33733">
        <ele>469.733675</ele>
        <time>2021-10-03T08:47:33.000Z</time>
      </trkpt>
      <trkpt lat="43.6634" lon="2.33739">
        <ele>469.727506</ele>
        <time>2021-10-03T08:47:34.000Z</time>
      </trkpt>
      <trkpt lat="43.66342" lon="2.33745">
        <ele>469.720774</ele>
        <time>2021-10-03T08:47:35.000Z</time>
      </trkpt>
      <trkpt lat="43.66343" lon="2.33752">
        <ele>469.714139</ele>
        <time>2021-10-03T08:47:36.000Z</time>
      </trkpt>
      <trkpt lat="43.66345" lon="2.33758">
        <ele>469.707224</ele>
        <time>2021-10-03T08:47:37.000Z</time>
      </trkpt>
      <trkpt lat="43.66347" lon="2.33765">
        <ele>469.699551</ele>
        <time>2021-10-03T08:47:38.000Z</time>
      </trkpt>
      <trkpt lat="43.66349" lon="2.33772">
        <ele>469.69241</ele>
        <time>2021-10-03T08:47:39.000Z</time>
      </trkpt>
      <trkpt lat="43.66352" lon="2.3378">
        <ele>469.684556</ele>
        <time>2021-10-03T08:47:40.000Z</time>
      </trkpt>
      <trkpt lat="43.66354" lon="2.33787">
        <ele>469.676028</ele>
        <time>2021-10-03T08:47:41.000Z</time>
      </trkpt>
      <trkpt lat="43.66357" lon="2.33795">
        <ele>469.667902</ele>
        <time>2021-10-03T08:47:42.000Z</time>
      </trkpt>
      <trkpt lat="43.66359" lon="2.33802">
        <ele>469.660409</ele>
        <time>2021-10-03T08:47:43.000Z</time>
      </trkpt>
      <trkpt lat="43.66362" lon="2.33811">
        <ele>469.650307</ele>
        <time>2021-10-03T08:47:44.000Z</time>
      </trkpt>
      <trkpt lat="43.66365" lon="2.33819">
        <ele>469.641689</ele>
        <time>2021-10-03T08:47:45.000Z</time>
      </trkpt>
      <trkpt lat="43.66368" lon="2.33827">
        <ele>469.632538</ele>
        <time>2021-10-03T08:47:46.000Z</time>
      </trkpt>
      <trkpt lat="43.66371" lon="2.33834">
        <ele>469.624443</ele>
        <time>2021-10-03T08:47:47.000Z</time>
      </trkpt>
      <trkpt lat="43.66375" lon="2.33843">
        <ele>469.614587</ele>
        <time>2021-10-03T08:47:48.000Z</time>
      </trkpt>
      <trkpt lat="43.66379" lon="2.3385">
        <ele>469.605715</ele>
        <time>2021-10-03T08:47:49.000Z</time>
      </trkpt>
      <trkpt lat="43.66382" lon="2.33857">
        <ele>469.597714</ele>
        <time>2021-10-03T08:47:50.000Z</time>
      </trkpt>
      <trkpt lat="43.66386" lon="2.33865">
        <ele>469.588026</ele>
        <time>2021-10-03T08:47:51.000Z</time>
      </trkpt>
      <trkpt lat="43.66389" lon="2.33872">
        <ele>469.580805</ele>
        <time>2021-10-03T08:47:52.000Z</time>
      </trkpt>
      <trkpt lat="43.66392" lon="2.3388">
        <ele>469.608341</ele>
        <time>2021-10-03T08:47:53.000Z</time>
      </trkpt>
      <trkpt lat="43.66395" lon="2.33887">
        <ele>469.634878</ele>
        <time>2021-10-03T08:47:54.000Z</time>
      </trkpt>
      <trkpt lat="43.66398" lon="2.33894">
        <ele>469.66009</ele>
        <time>2021-10-03T08:47:55.000Z</time>
      </trkpt>
      <trkpt lat="43.66402" lon="2.33901">
        <ele>469.688308</ele>
        <time>2021-10-03T08:47:56.000Z</time>
      </trkpt>
      <trkpt lat="43.66405" lon="2.33908">
        <ele>469.713441</ele>
        <time>2021-10-03T08:47:57.000Z</time>
      </trkpt>
      <trkpt lat="43.66408" lon="2.33914">
        <ele>469.73958</ele>
        <time>2021-10-03T08:47:58.000Z</time>
      </trkpt>
      <trkpt lat="43.66411" lon="2.33921">
        <ele>469.763915</ele>
        <time>2021-10-03T08:47:59.000Z</time>
      </trkpt>
      <trkpt lat="43.66415" lon="2.33927">
        <ele>469.789534</ele>
        <time>2021-10-03T08:48:00.000Z</time>
      </trkpt>
      <trkpt lat="43.66418" lon="2.33933">
        <ele>469.813093</ele>
        <time>2021-10-03T08:48:01.000Z</time>
      </trkpt>
      <trkpt lat="43.66421" lon="2.3394">
        <ele>469.838973</ele>
        <time>2021-10-03T08:48:02.000Z</time>
      </trkpt>
      <trkpt lat="43.66424" lon="2.33946">
        <ele>469.863189</ele>
        <time>2021-10-03T08:48:03.000Z</time>
      </trkpt>
      <trkpt lat="43.66426" lon="2.33953">
        <ele>469.887473</ele>
        <time>2021-10-03T08:48:04.000Z</time>
      </trkpt>
      <trkpt lat="43.66429" lon="2.33959">
        <ele>469.912073</ele>
        <time>2021-10-03T08:48:05.000Z</time>
      </trkpt>
      <trkpt lat="43.66433" lon="2.33965">
        <ele>469.937011</ele>
        <time>2021-10-03T08:48:06.000Z</time>
      </trkpt>
      <trkpt lat="43.66437" lon="2.33971">
        <ele>469.961768</ele>
        <time>2021-10-03T08:48:07.000Z</time>
      </trkpt>
      <trkpt lat="43.6644" lon="2.33977">
        <ele>469.985892</ele>
        <time>2021-10-03T08:48:08.000Z</time>
      </trkpt>
      <trkpt lat="43.66444" lon="2.33982">
        <ele>470.009487</ele>
        <time>2021-10-03T08:48:09.000Z</time>
      </trkpt>
      <trkpt lat="43.66448" lon="2.33988">
        <ele>470.03448</ele>
        <time>2021-10-03T08:48:10.000Z</time>
      </trkpt>
      <trkpt lat="43.66451" lon="2.33994">
        <ele>470.05829</ele>
        <time>2021-10-03T08:48:11.000Z</time>
      </trkpt>
      <trkpt lat="43.66454" lon="2.34001">
        <ele>470.084426</ele>
        <time>2021-10-03T08:48:12.000Z</time>
      </trkpt>
      <trkpt lat="43.66457" lon="2.34007">
        <ele>470.108546</ele>
        <time>2021-10-03T08:48:13.000Z</time>
      </trkpt>
      <trkpt lat="43.6646" lon="2.34014">
        <ele>470.133536</ele>
        <time>2021-10-03T08:48:14.000Z</time>
      </trkpt>
      <trkpt lat="43.66463" lon="2.34021">
        <ele>470.158591</ele>
        <time>2021-10-03T08:48:15.000Z</time>
      </trkpt>
      <trkpt lat="43.66465" lon="2.34028">
        <ele>470.183146</ele>
        <time>2021-10-03T08:48:16.000Z</time>
      </trkpt>
      <trkpt lat="43.66467" lon="2.34035">
        <ele>470.207992</ele>
        <time>2021-10-03T08:48:17.000Z</time>
      </trkpt>
      <trkpt lat="43.66469" lon="2.34042">
        <ele>470.232171</ele>
        <time>2021-10-03T08:48:18.000Z</time>
      </trkpt>
      <trkpt lat="43.66471" lon="2.34049">
        <ele>470.256501</ele>
        <time>2021-10-03T08:48:19.000Z</time>
      </trkpt>
      <trkpt lat="43.66473" lon="2.34057">
        <ele>470.283233</ele>
        <time>2021-10-03T08:48:20.000Z</time>
      </trkpt>
      <trkpt lat="43.66474" lon="2.34065">
        <ele>470.309319</ele>
        <time>2021-10-03T08:48:21.000Z</time>
      </trkpt>
      <trkpt lat="43.66476" lon="2.34073">
        <ele>470.3351</ele>
        <time>2021-10-03T08:48:22.000Z</time>
      </trkpt>
      <trkpt lat="43.66477" lon="2.34081">
        <ele>470.361804</ele>
        <time>2021-10-03T08:48:23.000Z</time>
      </trkpt>
      <trkpt lat="43.66479" lon="2.3409">
        <ele>470.413597</ele>
        <time>2021-10-03T08:48:24.000Z</time>
      </trkpt>
      <trkpt lat="43.6648" lon="2.34098">
        <ele>470.486448</ele>
        <time>2021-10-03T08:48:25.000Z</time>
      </trkpt>
      <trkpt lat="43.66482" lon="2.34107">
        <ele>470.560642</ele>
        <time>2021-10-03T08:48:26.000Z</time>
      </trkpt>
      <trkpt lat="43.66483" lon="2.34115">
        <ele>470.633206</ele>
        <time>2021-10-03T08:48:27.000Z</time>
      </trkpt>
      <trkpt lat="43.66485" lon="2.34123">
        <ele>470.705246</ele>
        <time>2021-10-03T08:48:28.000Z</time>
      </trkpt>
      <trkpt lat="43.66486" lon="2.34131">
        <ele>470.776183</ele>
        <time>2021-10-03T08:48:29.000Z</time>
      </trkpt>
      <trkpt lat="43.66487" lon="2.34139">
        <ele>470.844479</ele>
        <time>2021-10-03T08:48:30.000Z</time>
      </trkpt>
      <trkpt lat="43.66489" lon="2.34148">
        <ele>470.915467</ele>
        <time>2021-10-03T08:48:31.000Z</time>
      </trkpt>
      <trkpt lat="43.6649" lon="2.34156">
        <ele>470.985412</ele>
        <time>2021-10-03T08:48:32.000Z</time>
      </trkpt>
      <trkpt lat="43.66491" lon="2.34164">
        <ele>471.056399</ele>
        <time>2021-10-03T08:48:33.000Z</time>
      </trkpt>
      <trkpt lat="43.66492" lon="2.34172">
        <ele>471.126344</ele>
        <time>2021-10-03T08:48:34.000Z</time>
      </trkpt>
      <trkpt lat="43.66493" lon="2.34181">
        <ele>471.195687</ele>
        <time>2021-10-03T08:48:35.000Z</time>
      </trkpt>
      <trkpt lat="43.66494" lon="2.34189">
        <ele>471.263983</ele>
        <time>2021-10-03T08:48:36.000Z</time>
      </trkpt>
      <trkpt lat="43.66496" lon="2.34197">
        <ele>471.333327</ele>
        <time>2021-10-03T08:48:37.000Z</time>
      </trkpt>
      <trkpt lat="43.66496" lon="2.34205">
        <ele>471.400911</ele>
        <time>2021-10-03T08:48:38.000Z</time>
      </trkpt>
      <trkpt lat="43.66497" lon="2.34213">
        <ele>471.467813</ele>
        <time>2021-10-03T08:48:39.000Z</time>
      </trkpt>
      <trkpt lat="43.66498" lon="2.34221">
        <ele>471.535545</ele>
        <time>2021-10-03T08:48:40.000Z</time>
      </trkpt>
      <trkpt lat="43.66499" lon="2.34228">
        <ele>471.600632</ele>
        <time>2021-10-03T08:48:41.000Z</time>
      </trkpt>
      <trkpt lat="43.66499" lon="2.34236">
        <ele>471.665377</ele>
        <time>2021-10-03T08:48:42.000Z</time>
      </trkpt>
      <trkpt lat="43.66499" lon="2.34244">
        <ele>471.730122</ele>
        <time>2021-10-03T08:48:43.000Z</time>
      </trkpt>
      <trkpt lat="43.665" lon="2.34251">
        <ele>471.793194</ele>
        <time>2021-10-03T08:48:44.000Z</time>
      </trkpt>
      <trkpt lat="43.665" lon="2.34258">
        <ele>471.854418</ele>
        <time>2021-10-03T08:48:45.000Z</time>
      </trkpt>
      <trkpt lat="43.665" lon="2.34266">
        <ele>471.914981</ele>
        <time>2021-10-03T08:48:46.000Z</time>
      </trkpt>
      <trkpt lat="43.665" lon="2.34273">
        <ele>471.973872</ele>
        <time>2021-10-03T08:48:47.000Z</time>
      </trkpt>
      <trkpt lat="43.66499" lon="2.3428">
        <ele>472.034435</ele>
        <time>2021-10-03T08:48:48.000Z</time>
      </trkpt>
      <trkpt lat="43.66498" lon="2.34287">
        <ele>472.093693</ele>
        <time>2021-10-03T08:48:49.000Z</time>
      </trkpt>
      <trkpt lat="43.66497" lon="2.34293">
        <ele>472.151313</ele>
        <time>2021-10-03T08:48:50.000Z</time>
      </trkpt>
      <trkpt lat="43.66496" lon="2.34301">
        <ele>472.21221</ele>
        <time>2021-10-03T08:48:51.000Z</time>
      </trkpt>
      <trkpt lat="43.66495" lon="2.34307">
        <ele>472.270099</ele>
        <time>2021-10-03T08:48:52.000Z</time>
      </trkpt>
      <trkpt lat="43.66494" lon="2.34314">
        <ele>472.326902</ele>
        <time>2021-10-03T08:48:53.000Z</time>
      </trkpt>
      <trkpt lat="43.66492" lon="2.34321">
        <ele>472.385724</ele>
        <time>2021-10-03T08:48:54.000Z</time>
      </trkpt>
      <trkpt lat="43.66491" lon="2.34327">
        <ele>472.444898</ele>
        <time>2021-10-03T08:48:55.000Z</time>
      </trkpt>
      <trkpt lat="43.66489" lon="2.34334">
        <ele>472.622362</ele>
        <time>2021-10-03T08:48:56.000Z</time>
      </trkpt>
      <trkpt lat="43.66487" lon="2.3434">
        <ele>472.818213</ele>
        <time>2021-10-03T08:48:57.000Z</time>
      </trkpt>
      <trkpt lat="43.66485" lon="2.34346">
        <ele>473.025947</ele>
        <time>2021-10-03T08:48:58.000Z</time>
      </trkpt>
      <trkpt lat="43.66484" lon="2.34352">
        <ele>473.224716</ele>
        <time>2021-10-03T08:48:59.000Z</time>
      </trkpt>
      <trkpt lat="43.66482" lon="2.34358">
        <ele>473.427801</ele>
        <time>2021-10-03T08:49:00.000Z</time>
      </trkpt>
      <trkpt lat="43.66481" lon="2.34364">
        <ele>473.618762</ele>
        <time>2021-10-03T08:49:01.000Z</time>
      </trkpt>
      <trkpt lat="43.6648" lon="2.3437">
        <ele>473.814613</ele>
        <time>2021-10-03T08:49:02.000Z</time>
      </trkpt>
      <trkpt lat="43.66478" lon="2.34376">
        <ele>474.00174</ele>
        <time>2021-10-03T08:49:03.000Z</time>
      </trkpt>
      <trkpt lat="43.66477" lon="2.34382">
        <ele>474.187495</ele>
        <time>2021-10-03T08:49:04.000Z</time>
      </trkpt>
      <trkpt lat="43.66475" lon="2.34387">
        <ele>474.374623</ele>
        <time>2021-10-03T08:49:05.000Z</time>
      </trkpt>
      <trkpt lat="43.66474" lon="2.34393">
        <ele>474.56175</ele>
        <time>2021-10-03T08:49:06.000Z</time>
      </trkpt>
      <trkpt lat="43.66472" lon="2.34399">
        <ele>474.741939</ele>
        <time>2021-10-03T08:49:07.000Z</time>
      </trkpt>
      <trkpt lat="43.66471" lon="2.34404">
        <ele>474.929066</ele>
        <time>2021-10-03T08:49:08.000Z</time>
      </trkpt>
      <trkpt lat="43.66469" lon="2.3441">
        <ele>475.116194</ele>
        <time>2021-10-03T08:49:09.000Z</time>
      </trkpt>
      <trkpt lat="43.66468" lon="2.34416">
        <ele>475.30195</ele>
        <time>2021-10-03T08:49:10.000Z</time>
      </trkpt>
      <trkpt lat="43.66467" lon="2.34421">
        <ele>475.486935</ele>
        <time>2021-10-03T08:49:11.000Z</time>
      </trkpt>
      <trkpt lat="43.66465" lon="2.34427">
        <ele>475.676965</ele>
        <time>2021-10-03T08:49:12.000Z</time>
      </trkpt>
      <trkpt lat="43.66464" lon="2.34433">
        <ele>475.863079</ele>
        <time>2021-10-03T08:49:13.000Z</time>
      </trkpt>
      <trkpt lat="43.66463" lon="2.34438">
        <ele>476.040053</ele>
        <time>2021-10-03T08:49:14.000Z</time>
      </trkpt>
      <trkpt lat="43.66461" lon="2.34444">
        <ele>476.234446</ele>
        <time>2021-10-03T08:49:15.000Z</time>
      </trkpt>
      <trkpt lat="43.66459" lon="2.3445">
        <ele>476.412905</ele>
        <time>2021-10-03T08:49:16.000Z</time>
      </trkpt>
      <trkpt lat="43.66458" lon="2.34455">
        <ele>476.592936</ele>
        <time>2021-10-03T08:49:17.000Z</time>
      </trkpt>
      <trkpt lat="43.66456" lon="2.34461">
        <ele>476.774278</ele>
        <time>2021-10-03T08:49:18.000Z</time>
      </trkpt>
      <trkpt lat="43.66454" lon="2.34466">
        <ele>476.959537</ele>
        <time>2021-10-03T08:49:19.000Z</time>
      </trkpt>
      <trkpt lat="43.66453" lon="2.34471">
        <ele>477.135119</ele>
        <time>2021-10-03T08:49:20.000Z</time>
      </trkpt>
      <trkpt lat="43.66451" lon="2.34476">
        <ele>477.31485</ele>
        <time>2021-10-03T08:49:21.000Z</time>
      </trkpt>
      <trkpt lat="43.66449" lon="2.34482">
        <ele>477.508475</ele>
        <time>2021-10-03T08:49:22.000Z</time>
      </trkpt>
      <trkpt lat="43.66448" lon="2.34488">
        <ele>477.694231</ele>
        <time>2021-10-03T08:49:23.000Z</time>
      </trkpt>
      <trkpt lat="43.66446" lon="2.34494">
        <ele>477.879217</ele>
        <time>2021-10-03T08:49:24.000Z</time>
      </trkpt>
      <trkpt lat="43.66445" lon="2.34499">
        <ele>478.072155</ele>
        <time>2021-10-03T08:49:25.000Z</time>
      </trkpt>
      <trkpt lat="43.66443" lon="2.34505">
        <ele>478.263664</ele>
        <time>2021-10-03T08:49:26.000Z</time>
      </trkpt>
      <trkpt lat="43.66442" lon="2.34511">
        <ele>478.453695</ele>
        <time>2021-10-03T08:49:27.000Z</time>
      </trkpt>
      <trkpt lat="43.6644" lon="2.34517">
        <ele>478.640823</ele>
        <time>2021-10-03T08:49:28.000Z</time>
      </trkpt>
      <trkpt lat="43.66439" lon="2.34523">
        <ele>478.835217</ele>
        <time>2021-10-03T08:49:29.000Z</time>
      </trkpt>
      <trkpt lat="43.66437" lon="2.34528">
        <ele>479.01945</ele>
        <time>2021-10-03T08:49:30.000Z</time>
      </trkpt>
      <trkpt lat="43.66435" lon="2.34534">
        <ele>479.205691</ele>
        <time>2021-10-03T08:49:31.000Z</time>
      </trkpt>
      <trkpt lat="43.66434" lon="2.34539">
        <ele>479.396518</ele>
        <time>2021-10-03T08:49:32.000Z</time>
      </trkpt>
      <trkpt lat="43.66432" lon="2.34545">
        <ele>479.577861</ele>
        <time>2021-10-03T08:49:33.000Z</time>
      </trkpt>
      <trkpt lat="43.6643" lon="2.34551">
        <ele>479.778879</ele>
        <time>2021-10-03T08:49:34.000Z</time>
      </trkpt>
      <trkpt lat="43.66428" lon="2.34557">
        <ele>479.975311</ele>
        <time>2021-10-03T08:49:35.000Z</time>
      </trkpt>
      <trkpt lat="43.66427" lon="2.34562">
        <ele>480.121684</ele>
        <time>2021-10-03T08:49:36.000Z</time>
      </trkpt>
      <trkpt lat="43.66425" lon="2.34568">
        <ele>480.071848</ele>
        <time>2021-10-03T08:49:37.000Z</time>
      </trkpt>
      <trkpt lat="43.66424" lon="2.34574">
        <ele>480.022078</ele>
        <time>2021-10-03T08:49:38.000Z</time>
      </trkpt>
      <trkpt lat="43.66422" lon="2.3458">
        <ele>479.970388</ele>
        <time>2021-10-03T08:49:39.000Z</time>
      </trkpt>
      <trkpt lat="43.6642" lon="2.34587">
        <ele>479.920244</ele>
        <time>2021-10-03T08:49:40.000Z</time>
      </trkpt>
      <trkpt lat="43.66418" lon="2.34593">
        <ele>479.867121</ele>
        <time>2021-10-03T08:49:41.000Z</time>
      </trkpt>
      <trkpt lat="43.66416" lon="2.34599">
        <ele>479.812557</ele>
        <time>2021-10-03T08:49:42.000Z</time>
      </trkpt>
      <trkpt lat="43.66414" lon="2.34606">
        <ele>479.756548</ele>
        <time>2021-10-03T08:49:43.000Z</time>
      </trkpt>
      <trkpt lat="43.66413" lon="2.34613">
        <ele>479.701984</ele>
        <time>2021-10-03T08:49:44.000Z</time>
      </trkpt>
      <trkpt lat="43.66411" lon="2.34619">
        <ele>479.647009</ele>
        <time>2021-10-03T08:49:45.000Z</time>
      </trkpt>
      <trkpt lat="43.66408" lon="2.34626">
        <ele>479.591156</ele>
        <time>2021-10-03T08:49:46.000Z</time>
      </trkpt>
      <trkpt lat="43.66407" lon="2.34632">
        <ele>479.536981</ele>
        <time>2021-10-03T08:49:47.000Z</time>
      </trkpt>
      <trkpt lat="43.66405" lon="2.34639">
        <ele>479.478791</ele>
        <time>2021-10-03T08:49:48.000Z</time>
      </trkpt>
      <trkpt lat="43.66403" lon="2.34646">
        <ele>479.422716</ele>
        <time>2021-10-03T08:49:49.000Z</time>
      </trkpt>
      <trkpt lat="43.66402" lon="2.34653">
        <ele>479.366726</ele>
        <time>2021-10-03T08:49:50.000Z</time>
      </trkpt>
      <trkpt lat="43.66401" lon="2.3466">
        <ele>479.310213</ele>
        <time>2021-10-03T08:49:51.000Z</time>
      </trkpt>
      <trkpt lat="43.66401" lon="2.34667">
        <ele>479.254693</ele>
        <time>2021-10-03T08:49:52.000Z</time>
      </trkpt>
      <trkpt lat="43.664" lon="2.34674">
        <ele>479.200465</ele>
        <time>2021-10-03T08:49:53.000Z</time>
      </trkpt>
      <trkpt lat="43.66399" lon="2.34681">
        <ele>479.145308</ele>
        <time>2021-10-03T08:49:54.000Z</time>
      </trkpt>
      <trkpt lat="43.66398" lon="2.34688">
        <ele>479.09185</ele>
        <time>2021-10-03T08:49:55.000Z</time>
      </trkpt>
      <trkpt lat="43.66397" lon="2.34695">
        <ele>479.037374</ele>
        <time>2021-10-03T08:49:56.000Z</time>
      </trkpt>
      <trkpt lat="43.66396" lon="2.34701">
        <ele>478.989954</ele>
        <time>2021-10-03T08:49:57.000Z</time>
      </trkpt>
      <trkpt lat="43.66395" lon="2.34707">
        <ele>478.939809</ele>
        <time>2021-10-03T08:49:58.000Z</time>
      </trkpt>
      <trkpt lat="43.66393" lon="2.34713">
        <ele>478.892858</ele>
        <time>2021-10-03T08:49:59.000Z</time>
      </trkpt>
      <trkpt lat="43.66391" lon="2.34718">
        <ele>478.843943</ele>
        <time>2021-10-03T08:50:00.000Z</time>
      </trkpt>
      <trkpt lat="43.66389" lon="2.34722">
        <ele>478.807991</ele>
        <time>2021-10-03T08:50:01.000Z</time>
      </trkpt>
      <trkpt lat="43.66387" lon="2.34723">
        <ele>478.784054</ele>
        <time>2021-10-03T08:50:02.000Z</time>
      </trkpt>
      <trkpt lat="43.66385" lon="2.34724">
        <ele>478.755218</ele>
        <time>2021-10-03T08:50:03.000Z</time>
      </trkpt>
      <trkpt lat="43.66381" lon="2.34725">
        <ele>478.717529</ele>
        <time>2021-10-03T08:50:04.000Z</time>
      </trkpt>
      <trkpt lat="43.66378" lon="2.34724">
        <ele>478.677653</ele>
        <time>2021-10-03T08:50:05.000Z</time>
      </trkpt>
      <trkpt lat="43.66374" lon="2.34724">
        <ele>478.636584</ele>
        <time>2021-10-03T08:50:06.000Z</time>
      </trkpt>
      <trkpt lat="43.6637" lon="2.34723">
        <ele>478.59376</ele>
        <time>2021-10-03T08:50:07.000Z</time>
      </trkpt>
      <trkpt lat="43.66366" lon="2.34721">
        <ele>478.548671</ele>
        <time>2021-10-03T08:50:08.000Z</time>
      </trkpt>
      <trkpt lat="43.66362" lon="2.3472">
        <ele>478.503581</ele>
        <time>2021-10-03T08:50:09.000Z</time>
      </trkpt>
      <trkpt lat="43.66357" lon="2.34719">
        <ele>478.456225</ele>
        <time>2021-10-03T08:50:10.000Z</time>
      </trkpt>
      <trkpt lat="43.66353" lon="2.34717">
        <ele>478.409353</ele>
        <time>2021-10-03T08:50:11.000Z</time>
      </trkpt>
      <trkpt lat="43.66349" lon="2.34715">
        <ele>478.3577</ele>
        <time>2021-10-03T08:50:12.000Z</time>
      </trkpt>
      <trkpt lat="43.66344" lon="2.34713">
        <ele>478.305818</ele>
        <time>2021-10-03T08:50:13.000Z</time>
      </trkpt>
      <trkpt lat="43.66339" lon="2.34712">
        <ele>478.25127</ele>
        <time>2021-10-03T08:50:14.000Z</time>
      </trkpt>
      <trkpt lat="43.66334" lon="2.34709">
        <ele>478.187837</ele>
        <time>2021-10-03T08:50:15.000Z</time>
      </trkpt>
      <trkpt lat="43.66328" lon="2.34707">
        <ele>478.049689</ele>
        <time>2021-10-03T08:50:16.000Z</time>
      </trkpt>
      <trkpt lat="43.66322" lon="2.34705">
        <ele>477.913329</ele>
        <time>2021-10-03T08:50:17.000Z</time>
      </trkpt>
      <trkpt lat="43.66316" lon="2.34703">
        <ele>477.768937</ele>
        <time>2021-10-03T08:50:18.000Z</time>
      </trkpt>
      <trkpt lat="43.6631" lon="2.347">
        <ele>477.613024</ele>
        <time>2021-10-03T08:50:19.000Z</time>
      </trkpt>
      <trkpt lat="43.66303" lon="2.34697">
        <ele>477.447791</ele>
        <time>2021-10-03T08:50:20.000Z</time>
      </trkpt>
      <trkpt lat="43.66296" lon="2.34695">
        <ele>477.285663</ele>
        <time>2021-10-03T08:50:21.000Z</time>
      </trkpt>
      <trkpt lat="43.66289" lon="2.34692">
        <ele>477.127984</ele>
        <time>2021-10-03T08:50:22.000Z</time>
      </trkpt>
      <trkpt lat="43.66284" lon="2.34691">
        <ele>476.995133</ele>
        <time>2021-10-03T08:50:23.000Z</time>
      </trkpt>
      <trkpt lat="43.66279" lon="2.34693">
        <ele>476.881364</ele>
        <time>2021-10-03T08:50:24.000Z</time>
      </trkpt>
      <trkpt lat="43.66276" lon="2.34698">
        <ele>476.766548</ele>
        <time>2021-10-03T08:50:25.000Z</time>
      </trkpt>
      <trkpt lat="43.66275" lon="2.34706">
        <ele>476.638533</ele>
        <time>2021-10-03T08:50:26.000Z</time>
      </trkpt>
      <trkpt lat="43.66276" lon="2.34714">
        <ele>476.502812</ele>
        <time>2021-10-03T08:50:27.000Z</time>
      </trkpt>
      <trkpt lat="43.66277" lon="2.34722">
        <ele>476.368259</ele>
        <time>2021-10-03T08:50:28.000Z</time>
      </trkpt>
      <trkpt lat="43.66278" lon="2.34729">
        <ele>476.239068</ele>
        <time>2021-10-03T08:50:29.000Z</time>
      </trkpt>
      <trkpt lat="43.66279" lon="2.34737">
        <ele>476.104452</ele>
        <time>2021-10-03T08:50:30.000Z</time>
      </trkpt>
      <trkpt lat="43.66279" lon="2.34745">
        <ele>475.974111</ele>
        <time>2021-10-03T08:50:31.000Z</time>
      </trkpt>
      <trkpt lat="43.66279" lon="2.34753">
        <ele>475.850571</ele>
        <time>2021-10-03T08:50:32.000Z</time>
      </trkpt>
      <trkpt lat="43.66279" lon="2.34759">
        <ele>475.740535</ele>
        <time>2021-10-03T08:50:33.000Z</time>
      </trkpt>
      <trkpt lat="43.66279" lon="2.34764">
        <ele>475.656906</ele>
        <time>2021-10-03T08:50:34.000Z</time>
      </trkpt>
      <trkpt lat="43.66279" lon="2.34767">
        <ele>475.616901</ele>
        <time>2021-10-03T08:50:35.000Z</time>
      </trkpt>
      <trkpt lat="43.66279" lon="2.34767">
        <ele>475.610234</ele>
        <time>2021-10-03T08:51:01.000Z</time>
      </trkpt>
      <trkpt lat="43.66279" lon="2.3477">
        <ele>475.561404</ele>
        <time>2021-10-03T08:51:02.000Z</time>
      </trkpt>
      <trkpt lat="43.66279" lon="2.34773">
        <ele>475.514732</ele>
        <time>2021-10-03T08:51:03.000Z</time>
      </trkpt>
      <trkpt lat="43.66279" lon="2.34776">
        <ele>475.458959</ele>
        <time>2021-10-03T08:51:04.000Z</time>
      </trkpt>
      <trkpt lat="43.6628" lon="2.34779">
        <ele>475.404829</ele>
        <time>2021-10-03T08:51:05.000Z</time>
      </trkpt>
      <trkpt lat="43.6628" lon="2.34783">
        <ele>475.344119</ele>
        <time>2021-10-03T08:51:06.000Z</time>
      </trkpt>
      <trkpt lat="43.6628" lon="2.34787">
        <ele>475.273771</ele>
        <time>2021-10-03T08:51:07.000Z</time>
      </trkpt>
      <trkpt lat="43.6628" lon="2.34792">
        <ele>475.193729</ele>
        <time>2021-10-03T08:51:08.000Z</time>
      </trkpt>
      <trkpt lat="43.6628" lon="2.34797">
        <ele>475.111535</ele>
        <time>2021-10-03T08:51:09.000Z</time>
      </trkpt>
      <trkpt lat="43.66279" lon="2.34802">
        <ele>475.016419</ele>
        <time>2021-10-03T08:51:10.000Z</time>
      </trkpt>
      <trkpt lat="43.66278" lon="2.34808">
        <ele>474.919695</ele>
        <time>2021-10-03T08:51:11.000Z</time>
      </trkpt>
      <trkpt lat="43.66277" lon="2.34814">
        <ele>474.818</ele>
        <time>2021-10-03T08:51:12.000Z</time>
      </trkpt>
      <trkpt lat="43.66276" lon="2.3482">
        <ele>474.714664</ele>
        <time>2021-10-03T08:51:13.000Z</time>
      </trkpt>
      <trkpt lat="43.66275" lon="2.34826">
        <ele>474.608047</ele>
        <time>2021-10-03T08:51:14.000Z</time>
      </trkpt>
      <trkpt lat="43.66275" lon="2.34833">
        <ele>474.501804</ele>
        <time>2021-10-03T08:51:15.000Z</time>
      </trkpt>
      <trkpt lat="43.66274" lon="2.34839">
        <ele>474.392156</ele>
        <time>2021-10-03T08:51:16.000Z</time>
      </trkpt>
      <trkpt lat="43.66272" lon="2.34845">
        <ele>474.287915</ele>
        <time>2021-10-03T08:51:17.000Z</time>
      </trkpt>
      <trkpt lat="43.66271" lon="2.34851">
        <ele>474.181326</ele>
        <time>2021-10-03T08:51:18.000Z</time>
      </trkpt>
      <trkpt lat="43.66269" lon="2.34857">
        <ele>474.075511</ele>
        <time>2021-10-03T08:51:19.000Z</time>
      </trkpt>
      <trkpt lat="43.66267" lon="2.34863">
        <ele>474.150786</ele>
        <time>2021-10-03T08:51:20.000Z</time>
      </trkpt>
      <trkpt lat="43.66266" lon="2.34869">
        <ele>474.274133</ele>
        <time>2021-10-03T08:51:21.000Z</time>
      </trkpt>
      <trkpt lat="43.66264" lon="2.34875">
        <ele>474.399713</ele>
        <time>2021-10-03T08:51:22.000Z</time>
      </trkpt>
      <trkpt lat="43.66261" lon="2.3488">
        <ele>474.525014</ele>
        <time>2021-10-03T08:51:23.000Z</time>
      </trkpt>
      <trkpt lat="43.66259" lon="2.34885">
        <ele>474.649691</ele>
        <time>2021-10-03T08:51:24.000Z</time>
      </trkpt>
      <trkpt lat="43.66256" lon="2.3489">
        <ele>474.778082</ele>
        <time>2021-10-03T08:51:25.000Z</time>
      </trkpt>
      <trkpt lat="43.66253" lon="2.34894">
        <ele>474.891725</ele>
        <time>2021-10-03T08:51:26.000Z</time>
      </trkpt>
      <trkpt lat="43.66249" lon="2.34897">
        <ele>475.005797</ele>
        <time>2021-10-03T08:51:27.000Z</time>
      </trkpt>
      <trkpt lat="43.66246" lon="2.34899">
        <ele>475.107614</ele>
        <time>2021-10-03T08:51:28.000Z</time>
      </trkpt>
      <trkpt lat="43.66242" lon="2.349">
        <ele>475.205057</ele>
        <time>2021-10-03T08:51:29.000Z</time>
      </trkpt>
      <trkpt lat="43.66239" lon="2.34901">
        <ele>475.280782</ele>
        <time>2021-10-03T08:51:30.000Z</time>
      </trkpt>
      <trkpt lat="43.66237" lon="2.34901">
        <ele>475.351916</ele>
        <time>2021-10-03T08:51:31.000Z</time>
      </trkpt>
      <trkpt lat="43.66234" lon="2.34901">
        <ele>475.436643</ele>
        <time>2021-10-03T08:51:32.000Z</time>
      </trkpt>
      <trkpt lat="43.6623" lon="2.34902">
        <ele>475.532317</ele>
        <time>2021-10-03T08:51:33.000Z</time>
      </trkpt>
      <trkpt lat="43.66227" lon="2.34905">
        <ele>475.629191</ele>
        <time>2021-10-03T08:51:34.000Z</time>
      </trkpt>
      <trkpt lat="43.66225" lon="2.34909">
        <ele>475.733796</ele>
        <time>2021-10-03T08:51:35.000Z</time>
      </trkpt>
      <trkpt lat="43.66223" lon="2.34914">
        <ele>475.839832</ele>
        <time>2021-10-03T08:51:36.000Z</time>
      </trkpt>
      <trkpt lat="43.66222" lon="2.34919">
        <ele>475.953139</ele>
        <time>2021-10-03T08:51:37.000Z</time>
      </trkpt>
      <trkpt lat="43.66221" lon="2.34925">
        <ele>476.067662</ele>
        <time>2021-10-03T08:51:38.000Z</time>
      </trkpt>
      <trkpt lat="43.6622" lon="2.34931">
        <ele>476.186059</ele>
        <time>2021-10-03T08:51:39.000Z</time>
      </trkpt>
      <trkpt lat="43.66219" lon="2.34936">
        <ele>476.304323</ele>
        <time>2021-10-03T08:51:40.000Z</time>
      </trkpt>
      <trkpt lat="43.66218" lon="2.34942">
        <ele>476.426407</ele>
        <time>2021-10-03T08:51:41.000Z</time>
      </trkpt>
      <trkpt lat="43.66217" lon="2.34949">
        <ele>476.551092</ele>
        <time>2021-10-03T08:51:42.000Z</time>
      </trkpt>
      <trkpt lat="43.66216" lon="2.34955">
        <ele>476.681725</ele>
        <time>2021-10-03T08:51:43.000Z</time>
      </trkpt>
      <trkpt lat="43.66217" lon="2.34961">
        <ele>476.805723</ele>
        <time>2021-10-03T08:51:44.000Z</time>
      </trkpt>
      <trkpt lat="43.66221" lon="2.34966">
        <ele>476.9335</ele>
        <time>2021-10-03T08:51:45.000Z</time>
      </trkpt>
      <trkpt lat="43.66225" lon="2.34969">
        <ele>477.06725</ele>
        <time>2021-10-03T08:51:46.000Z</time>
      </trkpt>
      <trkpt lat="43.6623" lon="2.3497">
        <ele>477.206342</ele>
        <time>2021-10-03T08:51:47.000Z</time>
      </trkpt>
      <trkpt lat="43.66235" lon="2.34971">
        <ele>477.340462</ele>
        <time>2021-10-03T08:51:48.000Z</time>
      </trkpt>
      <trkpt lat="43.6624" lon="2.34971">
        <ele>477.474058</ele>
        <time>2021-10-03T08:51:49.000Z</time>
      </trkpt>
      <trkpt lat="43.66245" lon="2.3497">
        <ele>477.602581</ele>
        <time>2021-10-03T08:51:50.000Z</time>
      </trkpt>
      <trkpt lat="43.6625" lon="2.34969">
        <ele>477.737352</ele>
        <time>2021-10-03T08:51:51.000Z</time>
      </trkpt>
      <trkpt lat="43.66254" lon="2.34968">
        <ele>477.866211</ele>
        <time>2021-10-03T08:51:52.000Z</time>
      </trkpt>
      <trkpt lat="43.66259" lon="2.34965">
        <ele>478.0073</ele>
        <time>2021-10-03T08:51:53.000Z</time>
      </trkpt>
      <trkpt lat="43.66264" lon="2.34963">
        <ele>478.15295</ele>
        <time>2021-10-03T08:51:54.000Z</time>
      </trkpt>
      <trkpt lat="43.66268" lon="2.3496">
        <ele>478.279238</ele>
        <time>2021-10-03T08:51:55.000Z</time>
      </trkpt>
      <trkpt lat="43.66273" lon="2.34957">
        <ele>478.415494</ele>
        <time>2021-10-03T08:51:56.000Z</time>
      </trkpt>
      <trkpt lat="43.66277" lon="2.34955">
        <ele>478.531096</ele>
        <time>2021-10-03T08:51:57.000Z</time>
      </trkpt>
      <trkpt lat="43.66281" lon="2.34951">
        <ele>478.663798</ele>
        <time>2021-10-03T08:51:58.000Z</time>
      </trkpt>
      <trkpt lat="43.66285" lon="2.34949">
        <ele>478.790087</ele>
        <time>2021-10-03T08:51:59.000Z</time>
      </trkpt>
      <trkpt lat="43.66289" lon="2.34946">
        <ele>478.9199</ele>
        <time>2021-10-03T08:52:00.000Z</time>
      </trkpt>
      <trkpt lat="43.66293" lon="2.34942">
        <ele>479.032259</ele>
        <time>2021-10-03T08:52:01.000Z</time>
      </trkpt>
      <trkpt lat="43.66297" lon="2.34938">
        <ele>479.154217</ele>
        <time>2021-10-03T08:52:02.000Z</time>
      </trkpt>
      <trkpt lat="43.66301" lon="2.34934">
        <ele>479.272278</ele>
        <time>2021-10-03T08:52:03.000Z</time>
      </trkpt>
      <trkpt lat="43.66305" lon="2.3493">
        <ele>479.389256</ele>
        <time>2021-10-03T08:52:04.000Z</time>
      </trkpt>
      <trkpt lat="43.66308" lon="2.34926">
        <ele>479.50517</ele>
        <time>2021-10-03T08:52:05.000Z</time>
      </trkpt>
      <trkpt lat="43.66312" lon="2.34922">
        <ele>479.620036</ele>
        <time>2021-10-03T08:52:06.000Z</time>
      </trkpt>
      <trkpt lat="43.66316" lon="2.34919">
        <ele>479.737489</ele>
        <time>2021-10-03T08:52:07.000Z</time>
      </trkpt>
      <trkpt lat="43.66321" lon="2.34917">
        <ele>479.854576</ele>
        <time>2021-10-03T08:52:08.000Z</time>
      </trkpt>
      <trkpt lat="43.66326" lon="2.34918">
        <ele>479.966497</ele>
        <time>2021-10-03T08:52:09.000Z</time>
      </trkpt>
      <trkpt lat="43.6633" lon="2.3492">
        <ele>480.071908</ele>
        <time>2021-10-03T08:52:10.000Z</time>
      </trkpt>
      <trkpt lat="43.66334" lon="2.34922">
        <ele>480.173505</ele>
        <time>2021-10-03T08:52:11.000Z</time>
      </trkpt>
      <trkpt lat="43.66337" lon="2.34925">
        <ele>480.272545</ele>
        <time>2021-10-03T08:52:12.000Z</time>
      </trkpt>
      <trkpt lat="43.66341" lon="2.34928">
        <ele>480.38537</ele>
        <time>2021-10-03T08:52:13.000Z</time>
      </trkpt>
      <trkpt lat="43.66345" lon="2.34933">
        <ele>480.505643</ele>
        <time>2021-10-03T08:52:14.000Z</time>
      </trkpt>
      <trkpt lat="43.66348" lon="2.34938">
        <ele>480.630192</ele>
        <time>2021-10-03T08:52:15.000Z</time>
      </trkpt>
      <trkpt lat="43.66351" lon="2.34944">
        <ele>480.759386</ele>
        <time>2021-10-03T08:52:16.000Z</time>
      </trkpt>
      <trkpt lat="43.66354" lon="2.3495">
        <ele>480.88861</ele>
        <time>2021-10-03T08:52:17.000Z</time>
      </trkpt>
      <trkpt lat="43.66357" lon="2.34956">
        <ele>481.018404</ele>
        <time>2021-10-03T08:52:18.000Z</time>
      </trkpt>
      <trkpt lat="43.66358" lon="2.34963">
        <ele>481.142611</ele>
        <time>2021-10-03T08:52:19.000Z</time>
      </trkpt>
      <trkpt lat="43.66361" lon="2.3497">
        <ele>481.277214</ele>
        <time>2021-10-03T08:52:20.000Z</time>
      </trkpt>
      <trkpt lat="43.66363" lon="2.34977">
        <ele>481.411816</ele>
        <time>2021-10-03T08:52:21.000Z</time>
      </trkpt>
      <trkpt lat="43.66365" lon="2.34983">
        <ele>481.540967</ele>
        <time>2021-10-03T08:52:22.000Z</time>
      </trkpt>
      <trkpt lat="43.66367" lon="2.3499">
        <ele>481.67718</ele>
        <time>2021-10-03T08:52:23.000Z</time>
      </trkpt>
      <trkpt lat="43.66369" lon="2.34997">
        <ele>481.80468</ele>
        <time>2021-10-03T08:52:24.000Z</time>
      </trkpt>
      <trkpt lat="43.66371" lon="2.35004">
        <ele>481.938803</ele>
        <time>2021-10-03T08:52:25.000Z</time>
      </trkpt>
      <trkpt lat="43.66372" lon="2.35011">
        <ele>482.071435</ele>
        <time>2021-10-03T08:52:26.000Z</time>
      </trkpt>
      <trkpt lat="43.66373" lon="2.35019">
        <ele>482.205751</ele>
        <time>2021-10-03T08:52:27.000Z</time>
      </trkpt>
      <trkpt lat="43.66374" lon="2.35027">
        <ele>482.341819</ele>
        <time>2021-10-03T08:52:28.000Z</time>
      </trkpt>
      <trkpt lat="43.66374" lon="2.35034">
        <ele>482.474697</ele>
        <time>2021-10-03T08:52:29.000Z</time>
      </trkpt>
      <trkpt lat="43.66374" lon="2.35042">
        <ele>482.620164</ele>
        <time>2021-10-03T08:52:30.000Z</time>
      </trkpt>
      <trkpt lat="43.66373" lon="2.3505">
        <ele>482.757985</ele>
        <time>2021-10-03T08:52:31.000Z</time>
      </trkpt>
      <trkpt lat="43.66372" lon="2.35058">
        <ele>482.89548</ele>
        <time>2021-10-03T08:52:32.000Z</time>
      </trkpt>
      <trkpt lat="43.66371" lon="2.35065">
        <ele>483.033302</ele>
        <time>2021-10-03T08:52:33.000Z</time>
      </trkpt>
      <trkpt lat="43.6637" lon="2.35073">
        <ele>483.164113</ele>
        <time>2021-10-03T08:52:34.000Z</time>
      </trkpt>
      <trkpt lat="43.6637" lon="2.3508">
        <ele>483.293819</ele>
        <time>2021-10-03T08:52:35.000Z</time>
      </trkpt>
      <trkpt lat="43.6637" lon="2.35087">
        <ele>483.446953</ele>
        <time>2021-10-03T08:52:36.000Z</time>
      </trkpt>
      <trkpt lat="43.6637" lon="2.35095">
        <ele>483.619646</ele>
        <time>2021-10-03T08:52:37.000Z</time>
      </trkpt>
      <trkpt lat="43.66371" lon="2.35103">
        <ele>483.795577</ele>
        <time>2021-10-03T08:52:38.000Z</time>
      </trkpt>
      <trkpt lat="43.66372" lon="2.3511">
        <ele>483.962853</ele>
        <time>2021-10-03T08:52:39.000Z</time>
      </trkpt>
      <trkpt lat="43.66373" lon="2.35117">
        <ele>484.139327</ele>
        <time>2021-10-03T08:52:40.000Z</time>
      </trkpt>
      <trkpt lat="43.66375" lon="2.35124">
        <ele>484.306975</ele>
        <time>2021-10-03T08:52:41.000Z</time>
      </trkpt>
      <trkpt lat="43.66376" lon="2.35131">
        <ele>484.478661</ele>
        <time>2021-10-03T08:52:42.000Z</time>
      </trkpt>
      <trkpt lat="43.66379" lon="2.35138">
        <ele>484.651235</ele>
        <time>2021-10-03T08:52:43.000Z</time>
      </trkpt>
      <trkpt lat="43.66381" lon="2.35144">
        <ele>484.813283</ele>
        <time>2021-10-03T08:52:44.000Z</time>
      </trkpt>
      <trkpt lat="43.66384" lon="2.3515">
        <ele>484.980771</ele>
        <time>2021-10-03T08:52:45.000Z</time>
      </trkpt>
      <trkpt lat="43.66388" lon="2.35155">
        <ele>485.153766</ele>
        <time>2021-10-03T08:52:46.000Z</time>
      </trkpt>
      <trkpt lat="43.66392" lon="2.3516">
        <ele>485.325298</ele>
        <time>2021-10-03T08:52:47.000Z</time>
      </trkpt>
      <trkpt lat="43.66397" lon="2.35165">
        <ele>485.501602</ele>
        <time>2021-10-03T08:52:48.000Z</time>
      </trkpt>
      <trkpt lat="43.66401" lon="2.35169">
        <ele>485.672802</ele>
        <time>2021-10-03T08:52:49.000Z</time>
      </trkpt>
      <trkpt lat="43.66405" lon="2.35173">
        <ele>485.837353</ele>
        <time>2021-10-03T08:52:50.000Z</time>
      </trkpt>
      <trkpt lat="43.6641" lon="2.35177">
        <ele>486.008435</ele>
        <time>2021-10-03T08:52:51.000Z</time>
      </trkpt>
      <trkpt lat="43.66414" lon="2.35182">
        <ele>486.183431</ele>
        <time>2021-10-03T08:52:52.000Z</time>
      </trkpt>
      <trkpt lat="43.66418" lon="2.35186">
        <ele>486.341786</ele>
        <time>2021-10-03T08:52:53.000Z</time>
      </trkpt>
      <trkpt lat="43.66422" lon="2.3519">
        <ele>486.507969</ele>
        <time>2021-10-03T08:52:54.000Z</time>
      </trkpt>
      <trkpt lat="43.66426" lon="2.35195">
        <ele>486.659698</ele>
        <time>2021-10-03T08:52:55.000Z</time>
      </trkpt>
      <trkpt lat="43.66429" lon="2.352">
        <ele>486.819468</ele>
        <time>2021-10-03T08:52:56.000Z</time>
      </trkpt>
      <trkpt lat="43.66432" lon="2.35205">
        <ele>486.9722</ele>
        <time>2021-10-03T08:52:57.000Z</time>
      </trkpt>
      <trkpt lat="43.66436" lon="2.35211">
        <ele>487.137797</ele>
        <time>2021-10-03T08:52:58.000Z</time>
      </trkpt>
      <trkpt lat="43.66438" lon="2.35216">
        <ele>487.29043</ele>
        <time>2021-10-03T08:52:59.000Z</time>
      </trkpt>
      <trkpt lat="43.66441" lon="2.35222">
        <ele>487.442315</ele>
        <time>2021-10-03T08:53:00.000Z</time>
      </trkpt>
      <trkpt lat="43.66442" lon="2.35228">
        <ele>487.594823</ele>
        <time>2021-10-03T08:53:01.000Z</time>
      </trkpt>
      <trkpt lat="43.66444" lon="2.35235">
        <ele>487.751494</ele>
        <time>2021-10-03T08:53:02.000Z</time>
      </trkpt>
      <trkpt lat="43.66446" lon="2.35241">
        <ele>487.910353</ele>
        <time>2021-10-03T08:53:03.000Z</time>
      </trkpt>
      <trkpt lat="43.66448" lon="2.35248">
        <ele>488.071338</ele>
        <time>2021-10-03T08:53:04.000Z</time>
      </trkpt>
      <trkpt lat="43.6645" lon="2.35254">
        <ele>488.232323</ele>
        <time>2021-10-03T08:53:05.000Z</time>
      </trkpt>
      <trkpt lat="43.66452" lon="2.35261">
        <ele>488.39437</ele>
        <time>2021-10-03T08:53:06.000Z</time>
      </trkpt>
      <trkpt lat="43.66454" lon="2.35267">
        <ele>488.556417</ele>
        <time>2021-10-03T08:53:07.000Z</time>
      </trkpt>
      <trkpt lat="43.66457" lon="2.35273">
        <ele>488.716733</ele>
        <time>2021-10-03T08:53:08.000Z</time>
      </trkpt>
      <trkpt lat="43.6646" lon="2.35278">
        <ele>488.875578</ele>
        <time>2021-10-03T08:53:09.000Z</time>
      </trkpt>
      <trkpt lat="43.66464" lon="2.35283">
        <ele>489.037438</ele>
        <time>2021-10-03T08:53:10.000Z</time>
      </trkpt>
      <trkpt lat="43.66468" lon="2.35286">
        <ele>489.160928</ele>
        <time>2021-10-03T08:53:11.000Z</time>
      </trkpt>
      <trkpt lat="43.66473" lon="2.35289">
        <ele>489.276045</ele>
        <time>2021-10-03T08:53:12.000Z</time>
      </trkpt>
      <trkpt lat="43.66477" lon="2.35291">
        <ele>489.38545</ele>
        <time>2021-10-03T08:53:13.000Z</time>
      </trkpt>
      <trkpt lat="43.66482" lon="2.35292">
        <ele>489.492713</ele>
        <time>2021-10-03T08:53:14.000Z</time>
      </trkpt>
      <trkpt lat="43.66487" lon="2.35293">
        <ele>489.615083</ele>
        <time>2021-10-03T08:53:15.000Z</time>
      </trkpt>
      <trkpt lat="43.66492" lon="2.35293">
        <ele>489.727967</ele>
        <time>2021-10-03T08:53:16.000Z</time>
      </trkpt>
      <trkpt lat="43.66497" lon="2.35293">
        <ele>489.836283</ele>
        <time>2021-10-03T08:53:17.000Z</time>
      </trkpt>
      <trkpt lat="43.66502" lon="2.35292">
        <ele>489.949265</ele>
        <time>2021-10-03T08:53:18.000Z</time>
      </trkpt>
      <trkpt lat="43.66507" lon="2.35292">
        <ele>490.06444</ele>
        <time>2021-10-03T08:53:19.000Z</time>
      </trkpt>
      <trkpt lat="43.66512" lon="2.35293">
        <ele>490.179723</ele>
        <time>2021-10-03T08:53:20.000Z</time>
      </trkpt>
      <trkpt lat="43.66517" lon="2.35293">
        <ele>490.292705</ele>
        <time>2021-10-03T08:53:21.000Z</time>
      </trkpt>
      <trkpt lat="43.66522" lon="2.35293">
        <ele>490.408181</ele>
        <time>2021-10-03T08:53:22.000Z</time>
      </trkpt>
      <trkpt lat="43.66526" lon="2.35294">
        <ele>490.505843</ele>
        <time>2021-10-03T08:53:23.000Z</time>
      </trkpt>
      <trkpt lat="43.66531" lon="2.35295">
        <ele>490.618911</ele>
        <time>2021-10-03T08:53:24.000Z</time>
      </trkpt>
      <trkpt lat="43.66535" lon="2.35295">
        <ele>490.716572</ele>
        <time>2021-10-03T08:53:25.000Z</time>
      </trkpt>
      <trkpt lat="43.66539" lon="2.35296">
        <ele>490.816515</ele>
        <time>2021-10-03T08:53:26.000Z</time>
      </trkpt>
      <trkpt lat="43.66543" lon="2.35298">
        <ele>490.916869</ele>
        <time>2021-10-03T08:53:27.000Z</time>
      </trkpt>
      <trkpt lat="43.66548" lon="2.353">
        <ele>491.022203</ele>
        <time>2021-10-03T08:53:28.000Z</time>
      </trkpt>
      <trkpt lat="43.66551" lon="2.35303">
        <ele>491.122189</ele>
        <time>2021-10-03T08:53:29.000Z</time>
      </trkpt>
      <trkpt lat="43.66555" lon="2.35307">
        <ele>491.218851</ele>
        <time>2021-10-03T08:53:30.000Z</time>
      </trkpt>
      <trkpt lat="43.66559" lon="2.3531">
        <ele>491.324967</ele>
        <time>2021-10-03T08:53:31.000Z</time>
      </trkpt>
      <trkpt lat="43.66563" lon="2.35314">
        <ele>491.435844</ele>
        <time>2021-10-03T08:53:32.000Z</time>
      </trkpt>
      <trkpt lat="43.66566" lon="2.35318">
        <ele>491.543126</ele>
        <time>2021-10-03T08:53:33.000Z</time>
      </trkpt>
      <trkpt lat="43.66569" lon="2.35323">
        <ele>491.64911</ele>
        <time>2021-10-03T08:53:34.000Z</time>
      </trkpt>
      <trkpt lat="43.66572" lon="2.35328">
        <ele>491.758643</ele>
        <time>2021-10-03T08:53:35.000Z</time>
      </trkpt>
      <trkpt lat="43.66574" lon="2.35333">
        <ele>491.858632</ele>
        <time>2021-10-03T08:53:36.000Z</time>
      </trkpt>
      <trkpt lat="43.66577" lon="2.35338">
        <ele>491.957224</ele>
        <time>2021-10-03T08:53:37.000Z</time>
      </trkpt>
      <trkpt lat="43.66579" lon="2.35342">
        <ele>492.043814</ele>
        <time>2021-10-03T08:53:38.000Z</time>
      </trkpt>
      <trkpt lat="43.66581" lon="2.35346">
        <ele>492.128876</ele>
        <time>2021-10-03T08:53:39.000Z</time>
      </trkpt>
      <trkpt lat="43.66583" lon="2.35351">
        <ele>492.213927</ele>
        <time>2021-10-03T08:53:40.000Z</time>
      </trkpt>
      <trkpt lat="43.66584" lon="2.35357">
        <ele>492.309651</ele>
        <time>2021-10-03T08:53:41.000Z</time>
      </trkpt>
      <trkpt lat="43.66585" lon="2.35363">
        <ele>492.417643</ele>
        <time>2021-10-03T08:53:42.000Z</time>
      </trkpt>
      <trkpt lat="43.66585" lon="2.35369">
        <ele>492.525977</ele>
        <time>2021-10-03T08:53:43.000Z</time>
      </trkpt>
      <trkpt lat="43.66585" lon="2.35376">
        <ele>492.630955</ele>
        <time>2021-10-03T08:53:44.000Z</time>
      </trkpt>
      <trkpt lat="43.66584" lon="2.35382">
        <ele>492.743812</ele>
        <time>2021-10-03T08:53:45.000Z</time>
      </trkpt>
      <trkpt lat="43.66583" lon="2.35389">
        <ele>492.860444</ele>
        <time>2021-10-03T08:53:46.000Z</time>
      </trkpt>
      <trkpt lat="43.66581" lon="2.35396">
        <ele>492.978903</ele>
        <time>2021-10-03T08:53:47.000Z</time>
      </trkpt>
      <trkpt lat="43.6658" lon="2.35402">
        <ele>493.095722</ele>
        <time>2021-10-03T08:53:48.000Z</time>
      </trkpt>
      <trkpt lat="43.66577" lon="2.35409">
        <ele>493.210793</ele>
        <time>2021-10-03T08:53:49.000Z</time>
      </trkpt>
      <trkpt lat="43.66575" lon="2.35414">
        <ele>492.748695</ele>
        <time>2021-10-03T08:53:50.000Z</time>
      </trkpt>
      <trkpt lat="43.66574" lon="2.35419">
        <ele>492.333389</ele>
        <time>2021-10-03T08:53:51.000Z</time>
      </trkpt>
      <trkpt lat="43.66572" lon="2.35424">
        <ele>491.914779</ele>
        <time>2021-10-03T08:53:52.000Z</time>
      </trkpt>
      <trkpt lat="43.6657" lon="2.35428">
        <ele>491.521022</ele>
        <time>2021-10-03T08:53:53.000Z</time>
      </trkpt>
      <trkpt lat="43.66568" lon="2.35433">
        <ele>491.087503</ele>
        <time>2021-10-03T08:53:54.000Z</time>
      </trkpt>
      <trkpt lat="43.66563" lon="2.35436">
        <ele>508.3</ele>
      </trkpt>
      <trkpt lat="43.66551" lon="2.35471">
        <ele>507.2</ele>
      </trkpt>
      <trkpt lat="43.66544" lon="2.35509">
        <ele>505.5</ele>
      </trkpt>
      <trkpt lat="43.66531" lon="2.35558">
        <ele>501.8</ele>
      </trkpt>
      <trkpt lat="43.66526" lon="2.35593">
        <ele>498.6</ele>
      </trkpt>
      <trkpt lat="43.66521" lon="2.35607">
        <ele>498.9</ele>
      </trkpt>
      <trkpt lat="43.66516" lon="2.35618">
        <ele>499.2</ele>
      </trkpt>
      <trkpt lat="43.66507" lon="2.3563">
        <ele>499.9</ele>
      </trkpt>
      <trkpt lat="43.66506" lon="2.35635">
        <ele>499.7</ele>
      </trkpt>
      <trkpt lat="43.66507" lon="2.35641">
        <ele>499.1</ele>
      </trkpt>
      <trkpt lat="43.6651" lon="2.35644">
        <ele>498.4</ele>
      </trkpt>
      <trkpt lat="43.66514" lon="2.35641">
        <ele>498</ele>
      </trkpt>
      <trkpt lat="43.66532" lon="2.35609">
        <ele>496.6</ele>
      </trkpt>
      <trkpt lat="43.66537" lon="2.35595">
        <ele>496.1</ele>
      </trkpt>
      <trkpt lat="43.6654" lon="2.35597">
        <ele>495.4</ele>
      </trkpt>
      <trkpt lat="43.66541" lon="2.35603">
        <ele>495</ele>
      </trkpt>
      <trkpt lat="43.66539" lon="2.35617">
        <ele>495</ele>
      </trkpt>
      <trkpt lat="43.66536" lon="2.35624">
        <ele>495.3</ele>
      </trkpt>
      <trkpt lat="43.66536" lon="2.35632">
        <ele>473.494155</ele>
        <time>2021-10-03T08:55:05.000Z</time>
      </trkpt>
      <trkpt lat="43.66535" lon="2.35636">
        <ele>473.415685</ele>
        <time>2021-10-03T08:55:06.000Z</time>
      </trkpt>
      <trkpt lat="43.66534" lon="2.35641">
        <ele>473.327484</ele>
        <time>2021-10-03T08:55:07.000Z</time>
      </trkpt>
      <trkpt lat="43.66532" lon="2.35646">
        <ele>473.219426</ele>
        <time>2021-10-03T08:55:08.000Z</time>
      </trkpt>
      <trkpt lat="43.66531" lon="2.35652">
        <ele>473.107231</ele>
        <time>2021-10-03T08:55:09.000Z</time>
      </trkpt>
      <trkpt lat="43.66529" lon="2.35659">
        <ele>472.972344</ele>
        <time>2021-10-03T08:55:10.000Z</time>
      </trkpt>
      <trkpt lat="43.66527" lon="2.35668">
        <ele>472.807634</ele>
        <time>2021-10-03T08:55:11.000Z</time>
      </trkpt>
      <trkpt lat="43.66525" lon="2.35678">
        <ele>472.630597</ele>
        <time>2021-10-03T08:55:12.000Z</time>
      </trkpt>
      <trkpt lat="43.66523" lon="2.35688">
        <ele>472.439307</ele>
        <time>2021-10-03T08:55:13.000Z</time>
      </trkpt>
      <trkpt lat="43.66521" lon="2.35699">
        <ele>472.243163</ele>
        <time>2021-10-03T08:55:14.000Z</time>
      </trkpt>
      <trkpt lat="43.66518" lon="2.35708">
        <ele>472.077794</ele>
        <time>2021-10-03T08:55:15.000Z</time>
      </trkpt>
      <trkpt lat="43.66516" lon="2.35718">
        <ele>471.892456</ele>
        <time>2021-10-03T08:55:16.000Z</time>
      </trkpt>
      <trkpt lat="43.66514" lon="2.35726">
        <ele>471.738937</ele>
        <time>2021-10-03T08:55:17.000Z</time>
      </trkpt>
      <trkpt lat="43.66512" lon="2.35734">
        <ele>471.587737</ele>
        <time>2021-10-03T08:55:18.000Z</time>
      </trkpt>
      <trkpt lat="43.66511" lon="2.35742">
        <ele>471.448508</ele>
        <time>2021-10-03T08:55:19.000Z</time>
      </trkpt>
      <trkpt lat="43.66509" lon="2.35749">
        <ele>471.315838</ele>
        <time>2021-10-03T08:55:20.000Z</time>
      </trkpt>
      <trkpt lat="43.66508" lon="2.35756">
        <ele>471.192334</ele>
        <time>2021-10-03T08:55:21.000Z</time>
      </trkpt>
      <trkpt lat="43.66507" lon="2.35762">
        <ele>471.075804</ele>
        <time>2021-10-03T08:55:22.000Z</time>
      </trkpt>
      <trkpt lat="43.66507" lon="2.35768">
        <ele>470.973297</ele>
        <time>2021-10-03T08:55:23.000Z</time>
      </trkpt>
      <trkpt lat="43.66507" lon="2.35773">
        <ele>470.873843</ele>
        <time>2021-10-03T08:55:24.000Z</time>
      </trkpt>
      <trkpt lat="43.66508" lon="2.35777">
        <ele>470.796895</ele>
        <time>2021-10-03T08:55:25.000Z</time>
      </trkpt>
      <trkpt lat="43.6651" lon="2.35782">
        <ele>470.700192</ele>
        <time>2021-10-03T08:55:26.000Z</time>
      </trkpt>
      <trkpt lat="43.66513" lon="2.35786">
        <ele>470.60515</ele>
        <time>2021-10-03T08:55:27.000Z</time>
      </trkpt>
      <trkpt lat="43.66516" lon="2.3579">
        <ele>470.507361</ele>
        <time>2021-10-03T08:55:28.000Z</time>
      </trkpt>
      <trkpt lat="43.66519" lon="2.35792">
        <ele>470.408245</ele>
        <time>2021-10-03T08:55:29.000Z</time>
      </trkpt>
      <trkpt lat="43.66523" lon="2.35793">
        <ele>470.3098</ele>
        <time>2021-10-03T08:55:30.000Z</time>
      </trkpt>
      <trkpt lat="43.66527" lon="2.35794">
        <ele>470.226264</ele>
        <time>2021-10-03T08:55:31.000Z</time>
      </trkpt>
      <trkpt lat="43.6653" lon="2.35794">
        <ele>470.152947</ele>
        <time>2021-10-03T08:55:32.000Z</time>
      </trkpt>
      <trkpt lat="43.66532" lon="2.35794">
        <ele>470.084515</ele>
        <time>2021-10-03T08:55:33.000Z</time>
      </trkpt>
      <trkpt lat="43.66536" lon="2.35794">
        <ele>470.197619</ele>
        <time>2021-10-03T08:55:34.000Z</time>
      </trkpt>
      <trkpt lat="43.6654" lon="2.35794">
        <ele>470.624067</ele>
        <time>2021-10-03T08:55:35.000Z</time>
      </trkpt>
      <trkpt lat="43.66543" lon="2.35793">
        <ele>470.999991</ele>
        <time>2021-10-03T08:55:36.000Z</time>
      </trkpt>
      <trkpt lat="43.66545" lon="2.35792">
        <ele>471.27717</ele>
        <time>2021-10-03T08:55:37.000Z</time>
      </trkpt>
      <trkpt lat="43.66547" lon="2.3579">
        <ele>471.586962</ele>
        <time>2021-10-03T08:55:38.000Z</time>
      </trkpt>
      <trkpt lat="43.66549" lon="2.35789">
        <ele>471.900615</ele>
        <time>2021-10-03T08:55:39.000Z</time>
      </trkpt>
      <trkpt lat="43.66551" lon="2.35787">
        <ele>472.176315</ele>
        <time>2021-10-03T08:55:40.000Z</time>
      </trkpt>
      <trkpt lat="43.66553" lon="2.35785">
        <ele>472.447329</ele>
        <time>2021-10-03T08:55:41.000Z</time>
      </trkpt>
      <trkpt lat="43.66554" lon="2.35784">
        <ele>472.656636</ele>
        <time>2021-10-03T08:55:42.000Z</time>
      </trkpt>
      <trkpt lat="43.66555" lon="2.35782">
        <ele>472.878032</ele>
        <time>2021-10-03T08:55:43.000Z</time>
      </trkpt>
      <trkpt lat="43.66557" lon="2.35779">
        <ele>473.172175</ele>
        <time>2021-10-03T08:55:44.000Z</time>
      </trkpt>
      <trkpt lat="43.66558" lon="2.35777">
        <ele>473.432237</ele>
        <time>2021-10-03T08:55:45.000Z</time>
      </trkpt>
      <trkpt lat="43.6656" lon="2.35775">
        <ele>473.660709</ele>
        <time>2021-10-03T08:55:46.000Z</time>
      </trkpt>
      <trkpt lat="43.66561" lon="2.35773">
        <ele>473.896992</ele>
        <time>2021-10-03T08:55:47.000Z</time>
      </trkpt>
      <trkpt lat="43.66562" lon="2.35772">
        <ele>474.08271</ele>
        <time>2021-10-03T08:55:48.000Z</time>
      </trkpt>
      <trkpt lat="43.66563" lon="2.3577">
        <ele>474.270931</ele>
        <time>2021-10-03T08:55:49.000Z</time>
      </trkpt>
      <trkpt lat="43.66565" lon="2.35769">
        <ele>474.50643</ele>
        <time>2021-10-03T08:55:50.000Z</time>
      </trkpt>
      <trkpt lat="43.66566" lon="2.35768">
        <ele>474.709293</ele>
        <time>2021-10-03T08:55:51.000Z</time>
      </trkpt>
      <trkpt lat="43.66568" lon="2.35767">
        <ele>474.920409</ele>
        <time>2021-10-03T08:55:52.000Z</time>
      </trkpt>
      <trkpt lat="43.66569" lon="2.35765">
        <ele>475.151205</ele>
        <time>2021-10-03T08:55:53.000Z</time>
      </trkpt>
      <trkpt lat="43.66571" lon="2.35764">
        <ele>475.413482</ele>
        <time>2021-10-03T08:55:54.000Z</time>
      </trkpt>
      <trkpt lat="43.66573" lon="2.35763">
        <ele>475.653011</ele>
        <time>2021-10-03T08:55:55.000Z</time>
      </trkpt>
      <trkpt lat="43.66576" lon="2.35762">
        <ele>475.941922</ele>
        <time>2021-10-03T08:55:56.000Z</time>
      </trkpt>
      <trkpt lat="43.66578" lon="2.35761">
        <ele>476.230832</ele>
        <time>2021-10-03T08:55:57.000Z</time>
      </trkpt>
      <trkpt lat="43.66581" lon="2.3576">
        <ele>476.613815</ele>
        <time>2021-10-03T08:55:58.000Z</time>
      </trkpt>
      <trkpt lat="43.66584" lon="2.35759">
        <ele>476.9919</ele>
        <time>2021-10-03T08:55:59.000Z</time>
      </trkpt>
      <trkpt lat="43.66587" lon="2.35758">
        <ele>477.340183</ele>
        <time>2021-10-03T08:56:00.000Z</time>
      </trkpt>
      <trkpt lat="43.6659" lon="2.35756">
        <ele>477.725893</ele>
        <time>2021-10-03T08:56:01.000Z</time>
      </trkpt>
      <trkpt lat="43.66593" lon="2.35755">
        <ele>478.115766</ele>
        <time>2021-10-03T08:56:02.000Z</time>
      </trkpt>
      <trkpt lat="43.66596" lon="2.35755">
        <ele>478.495958</ele>
        <time>2021-10-03T08:56:03.000Z</time>
      </trkpt>
      <trkpt lat="43.66599" lon="2.35754">
        <ele>478.866576</ele>
        <time>2021-10-03T08:56:04.000Z</time>
      </trkpt>
      <trkpt lat="43.66602" lon="2.35753">
        <ele>479.250731</ele>
        <time>2021-10-03T08:56:05.000Z</time>
      </trkpt>
      <trkpt lat="43.66605" lon="2.35753">
        <ele>479.618826</ele>
        <time>2021-10-03T08:56:06.000Z</time>
      </trkpt>
      <trkpt lat="43.66608" lon="2.35751">
        <ele>480.039324</ele>
        <time>2021-10-03T08:56:07.000Z</time>
      </trkpt>
      <trkpt lat="43.66611" lon="2.3575">
        <ele>480.448192</ele>
        <time>2021-10-03T08:56:08.000Z</time>
      </trkpt>
      <trkpt lat="43.66614" lon="2.35749">
        <ele>480.842816</ele>
        <time>2021-10-03T08:56:09.000Z</time>
      </trkpt>
      <trkpt lat="43.66617" lon="2.35748">
        <ele>481.169316</ele>
        <time>2021-10-03T08:56:10.000Z</time>
      </trkpt>
      <trkpt lat="43.6662" lon="2.35747">
        <ele>481.50982</ele>
        <time>2021-10-03T08:56:11.000Z</time>
      </trkpt>
      <trkpt lat="43.66622" lon="2.35746">
        <ele>481.85271</ele>
        <time>2021-10-03T08:56:12.000Z</time>
      </trkpt>
      <trkpt lat="43.66625" lon="2.35745">
        <ele>482.143896</ele>
        <time>2021-10-03T08:56:13.000Z</time>
      </trkpt>
      <trkpt lat="43.66627" lon="2.35744">
        <ele>482.430783</ele>
        <time>2021-10-03T08:56:14.000Z</time>
      </trkpt>
      <trkpt lat="43.66629" lon="2.35743">
        <ele>482.733475</ele>
        <time>2021-10-03T08:56:15.000Z</time>
      </trkpt>
      <trkpt lat="43.66632" lon="2.35741">
        <ele>483.081757</ele>
        <time>2021-10-03T08:56:16.000Z</time>
      </trkpt>
      <trkpt lat="43.66634" lon="2.3574">
        <ele>483.393173</ele>
        <time>2021-10-03T08:56:17.000Z</time>
      </trkpt>
      <trkpt lat="43.66637" lon="2.35738">
        <ele>483.78533</ele>
        <time>2021-10-03T08:56:18.000Z</time>
      </trkpt>
      <trkpt lat="43.6664" lon="2.35737">
        <ele>484.135692</ele>
        <time>2021-10-03T08:56:19.000Z</time>
      </trkpt>
      <trkpt lat="43.66642" lon="2.35735">
        <ele>484.468306</ele>
        <time>2021-10-03T08:56:20.000Z</time>
      </trkpt>
      <trkpt lat="43.66645" lon="2.35734">
        <ele>484.805108</ele>
        <time>2021-10-03T08:56:21.000Z</time>
      </trkpt>
      <trkpt lat="43.66648" lon="2.35733">
        <ele>485.192884</ele>
        <time>2021-10-03T08:56:22.000Z</time>
      </trkpt>
      <trkpt lat="43.6665" lon="2.35731">
        <ele>485.492351</ele>
        <time>2021-10-03T08:56:23.000Z</time>
      </trkpt>
      <trkpt lat="43.66653" lon="2.3573">
        <ele>485.811946</ele>
        <time>2021-10-03T08:56:24.000Z</time>
      </trkpt>
      <trkpt lat="43.66656" lon="2.35729">
        <ele>486.204102</ele>
        <time>2021-10-03T08:56:25.000Z</time>
      </trkpt>
      <trkpt lat="43.66659" lon="2.35728">
        <ele>486.558572</ele>
        <time>2021-10-03T08:56:26.000Z</time>
      </trkpt>
      <trkpt lat="43.66661" lon="2.35727">
        <ele>486.89321</ele>
        <time>2021-10-03T08:56:27.000Z</time>
      </trkpt>
      <trkpt lat="43.66664" lon="2.35726">
        <ele>487.279078</ele>
        <time>2021-10-03T08:56:28.000Z</time>
      </trkpt>
      <trkpt lat="43.66667" lon="2.35726">
        <ele>487.598851</ele>
        <time>2021-10-03T08:56:29.000Z</time>
      </trkpt>
      <trkpt lat="43.6667" lon="2.35725">
        <ele>487.983005</ele>
        <time>2021-10-03T08:56:30.000Z</time>
      </trkpt>
      <trkpt lat="43.66673" lon="2.35724">
        <ele>488.353623</ele>
        <time>2021-10-03T08:56:31.000Z</time>
      </trkpt>
      <trkpt lat="43.66676" lon="2.35723">
        <ele>488.741398</ele>
        <time>2021-10-03T08:56:32.000Z</time>
      </trkpt>
      <trkpt lat="43.66679" lon="2.35723">
        <ele>489.070774</ele>
        <time>2021-10-03T08:56:33.000Z</time>
      </trkpt>
      <trkpt lat="43.66682" lon="2.35723">
        <ele>489.388598</ele>
        <time>2021-10-03T08:56:34.000Z</time>
      </trkpt>
      <trkpt lat="43.66685" lon="2.35723">
        <ele>489.754153</ele>
        <time>2021-10-03T08:56:35.000Z</time>
      </trkpt>
      <trkpt lat="43.66687" lon="2.35723">
        <ele>490.083176</ele>
        <time>2021-10-03T08:56:36.000Z</time>
      </trkpt>
      <trkpt lat="43.6669" lon="2.35723">
        <ele>490.363353</ele>
        <time>2021-10-03T08:56:37.000Z</time>
      </trkpt>
      <trkpt lat="43.66692" lon="2.35723">
        <ele>490.692729</ele>
        <time>2021-10-03T08:56:38.000Z</time>
      </trkpt>
      <trkpt lat="43.66695" lon="2.35722">
        <ele>490.97635</ele>
        <time>2021-10-03T08:56:39.000Z</time>
      </trkpt>
      <trkpt lat="43.66696" lon="2.35721">
        <ele>491.213763</ele>
        <time>2021-10-03T08:56:40.000Z</time>
      </trkpt>
      <trkpt lat="43.66699" lon="2.35721">
        <ele>491.496149</ele>
        <time>2021-10-03T08:56:41.000Z</time>
      </trkpt>
      <trkpt lat="43.66701" lon="2.35721">
        <ele>491.72827</ele>
        <time>2021-10-03T08:56:42.000Z</time>
      </trkpt>
      <trkpt lat="43.66703" lon="2.35721">
        <ele>491.994068</ele>
        <time>2021-10-03T08:56:43.000Z</time>
      </trkpt>
      <trkpt lat="43.66705" lon="2.3572">
        <ele>492.203597</ele>
        <time>2021-10-03T08:56:44.000Z</time>
      </trkpt>
      <trkpt lat="43.66708" lon="2.35719">
        <ele>492.442021</ele>
        <time>2021-10-03T08:56:45.000Z</time>
      </trkpt>
      <trkpt lat="43.6671" lon="2.35719">
        <ele>492.646119</ele>
        <time>2021-10-03T08:56:46.000Z</time>
      </trkpt>
      <trkpt lat="43.66713" lon="2.3572">
        <ele>492.861589</ele>
        <time>2021-10-03T08:56:47.000Z</time>
      </trkpt>
      <trkpt lat="43.66715" lon="2.3572">
        <ele>493.062562</ele>
        <time>2021-10-03T08:56:48.000Z</time>
      </trkpt>
      <trkpt lat="43.66717" lon="2.35721">
        <ele>493.304159</ele>
        <time>2021-10-03T08:56:49.000Z</time>
      </trkpt>
      <trkpt lat="43.6672" lon="2.35722">
        <ele>493.509852</ele>
        <time>2021-10-03T08:56:50.000Z</time>
      </trkpt>
      <trkpt lat="43.66722" lon="2.35722">
        <ele>493.67771</ele>
        <time>2021-10-03T08:56:51.000Z</time>
      </trkpt>
      <trkpt lat="43.66724" lon="2.35722">
        <ele>493.845567</ele>
        <time>2021-10-03T08:56:52.000Z</time>
      </trkpt>
      <trkpt lat="43.66725" lon="2.35722">
        <ele>493.987066</ele>
        <time>2021-10-03T08:56:53.000Z</time>
      </trkpt>
      <trkpt lat="43.66727" lon="2.35722">
        <ele>494.126932</ele>
        <time>2021-10-03T08:56:54.000Z</time>
      </trkpt>
      <trkpt lat="43.66729" lon="2.35723">
        <ele>494.322236</ele>
        <time>2021-10-03T08:56:55.000Z</time>
      </trkpt>
      <trkpt lat="43.6673" lon="2.35724">
        <ele>494.477365</ele>
        <time>2021-10-03T08:56:56.000Z</time>
      </trkpt>
      <trkpt lat="43.66733" lon="2.35725">
        <ele>494.690373</ele>
        <time>2021-10-03T08:56:57.000Z</time>
      </trkpt>
      <trkpt lat="43.66735" lon="2.35726">
        <ele>494.874919</ele>
        <time>2021-10-03T08:56:58.000Z</time>
      </trkpt>
      <trkpt lat="43.66736" lon="2.35727">
        <ele>495.031327</ele>
        <time>2021-10-03T08:56:59.000Z</time>
      </trkpt>
      <trkpt lat="43.66739" lon="2.35728">
        <ele>495.303961</ele>
        <time>2021-10-03T08:57:00.000Z</time>
      </trkpt>
      <trkpt lat="43.66741" lon="2.35729">
        <ele>495.49921</ele>
        <time>2021-10-03T08:57:01.000Z</time>
      </trkpt>
      <trkpt lat="43.66743" lon="2.35731">
        <ele>495.69251</ele>
        <time>2021-10-03T08:57:02.000Z</time>
      </trkpt>
      <trkpt lat="43.66745" lon="2.35732">
        <ele>495.845619</ele>
        <time>2021-10-03T08:57:03.000Z</time>
      </trkpt>
      <trkpt lat="43.66746" lon="2.35733">
        <ele>496.02523</ele>
        <time>2021-10-03T08:57:04.000Z</time>
      </trkpt>
      <trkpt lat="43.66749" lon="2.35734">
        <ele>496.238239</ele>
        <time>2021-10-03T08:57:05.000Z</time>
      </trkpt>
      <trkpt lat="43.66751" lon="2.35736">
        <ele>496.441729</ele>
        <time>2021-10-03T08:57:06.000Z</time>
      </trkpt>
      <trkpt lat="43.66753" lon="2.35737">
        <ele>496.66375</ele>
        <time>2021-10-03T08:57:07.000Z</time>
      </trkpt>
      <trkpt lat="43.66755" lon="2.35739">
        <ele>496.888422</ele>
        <time>2021-10-03T08:57:08.000Z</time>
      </trkpt>
      <trkpt lat="43.66758" lon="2.35741">
        <ele>497.125132</ele>
        <time>2021-10-03T08:57:09.000Z</time>
      </trkpt>
      <trkpt lat="43.6676" lon="2.35742">
        <ele>497.379228</ele>
        <time>2021-10-03T08:57:10.000Z</time>
      </trkpt>
      <trkpt lat="43.66763" lon="2.35744">
        <ele>497.636303</ele>
        <time>2021-10-03T08:57:11.000Z</time>
      </trkpt>
      <trkpt lat="43.66765" lon="2.35746">
        <ele>497.890399</ele>
        <time>2021-10-03T08:57:12.000Z</time>
      </trkpt>
      <trkpt lat="43.66768" lon="2.35748">
        <ele>498.13045</ele>
        <time>2021-10-03T08:57:13.000Z</time>
      </trkpt>
      <trkpt lat="43.6677" lon="2.3575">
        <ele>498.370501</ele>
        <time>2021-10-03T08:57:14.000Z</time>
      </trkpt>
      <trkpt lat="43.66772" lon="2.35751">
        <ele>498.565749</ele>
        <time>2021-10-03T08:57:15.000Z</time>
      </trkpt>
      <trkpt lat="43.66774" lon="2.35751">
        <ele>498.735542</ele>
        <time>2021-10-03T08:57:16.000Z</time>
      </trkpt>
      <trkpt lat="43.66776" lon="2.35752">
        <ele>498.943604</ele>
        <time>2021-10-03T08:57:17.000Z</time>
      </trkpt>
      <trkpt lat="43.66778" lon="2.35753">
        <ele>499.114476</ele>
        <time>2021-10-03T08:57:18.000Z</time>
      </trkpt>
      <trkpt lat="43.66779" lon="2.35753">
        <ele>499.222211</ele>
        <time>2021-10-03T08:57:19.000Z</time>
      </trkpt>
      <trkpt lat="43.66781" lon="2.35754">
        <ele>499.36425</ele>
        <time>2021-10-03T08:57:20.000Z</time>
      </trkpt>
      <trkpt lat="43.66782" lon="2.35754">
        <ele>499.504115</ele>
        <time>2021-10-03T08:57:21.000Z</time>
      </trkpt>
      <trkpt lat="43.66784" lon="2.35755">
        <ele>499.610898</ele>
        <time>2021-10-03T08:57:22.000Z</time>
      </trkpt>
      <trkpt lat="43.66784" lon="2.35755">
        <ele>499.617289</ele>
        <time>2021-10-03T08:57:23.000Z</time>
      </trkpt>
      <trkpt lat="43.66784" lon="2.35755">
        <ele>499.653201</ele>
        <time>2021-10-03T08:57:24.000Z</time>
      </trkpt>
      <trkpt lat="43.66784" lon="2.35755">
        <ele>499.653201</ele>
        <time>2021-10-03T08:57:25.000Z</time>
      </trkpt>
      <trkpt lat="43.66794" lon="2.35754">
        <ele>500.51937</ele>
        <time>2021-10-03T08:58:10.000Z</time>
      </trkpt>
      <trkpt lat="43.66796" lon="2.35754">
        <ele>500.74907</ele>
        <time>2021-10-03T08:58:11.000Z</time>
      </trkpt>
      <trkpt lat="43.66799" lon="2.35754">
        <ele>501.024133</ele>
        <time>2021-10-03T08:58:12.000Z</time>
      </trkpt>
      <trkpt lat="43.66802" lon="2.35754">
        <ele>501.228931</ele>
        <time>2021-10-03T08:58:13.000Z</time>
      </trkpt>
      <trkpt lat="43.66804" lon="2.35753">
        <ele>501.432529</ele>
        <time>2021-10-03T08:58:14.000Z</time>
      </trkpt>
      <trkpt lat="43.66806" lon="2.35753">
        <ele>501.602321</ele>
        <time>2021-10-03T08:58:15.000Z</time>
      </trkpt>
      <trkpt lat="43.66809" lon="2.35752">
        <ele>501.840745</ele>
        <time>2021-10-03T08:58:16.000Z</time>
      </trkpt>
      <trkpt lat="43.66812" lon="2.3575">
        <ele>502.166424</ele>
        <time>2021-10-03T08:58:17.000Z</time>
      </trkpt>
      <trkpt lat="43.66815" lon="2.35749">
        <ele>502.452864</ele>
        <time>2021-10-03T08:58:18.000Z</time>
      </trkpt>
      <trkpt lat="43.66818" lon="2.35747">
        <ele>502.774513</ele>
        <time>2021-10-03T08:58:19.000Z</time>
      </trkpt>
      <trkpt lat="43.66822" lon="2.35745">
        <ele>503.085334</ele>
        <time>2021-10-03T08:58:20.000Z</time>
      </trkpt>
      <trkpt lat="43.66825" lon="2.35741">
        <ele>503.452349</ele>
        <time>2021-10-03T08:58:21.000Z</time>
      </trkpt>
      <trkpt lat="43.66828" lon="2.35738">
        <ele>503.81417</ele>
        <time>2021-10-03T08:58:22.000Z</time>
      </trkpt>
      <trkpt lat="43.66831" lon="2.35734">
        <ele>504.159154</ele>
        <time>2021-10-03T08:58:23.000Z</time>
      </trkpt>
      <trkpt lat="43.66833" lon="2.3573">
        <ele>504.479762</ele>
        <time>2021-10-03T08:58:24.000Z</time>
      </trkpt>
      <trkpt lat="43.66836" lon="2.35727">
        <ele>504.783351</ele>
        <time>2021-10-03T08:58:25.000Z</time>
      </trkpt>
      <trkpt lat="43.66838" lon="2.35723">
        <ele>505.080837</ele>
        <time>2021-10-03T08:58:26.000Z</time>
      </trkpt>
      <trkpt lat="43.66841" lon="2.3572">
        <ele>505.384165</ele>
        <time>2021-10-03T08:58:27.000Z</time>
      </trkpt>
      <trkpt lat="43.66844" lon="2.35717">
        <ele>505.708027</ele>
        <time>2021-10-03T08:58:28.000Z</time>
      </trkpt>
      <trkpt lat="43.66847" lon="2.35714">
        <ele>506.082306</ele>
        <time>2021-10-03T08:58:29.000Z</time>
      </trkpt>
      <trkpt lat="43.6685" lon="2.35711">
        <ele>506.412989</ele>
        <time>2021-10-03T08:58:30.000Z</time>
      </trkpt>
      <trkpt lat="43.66854" lon="2.35708">
        <ele>506.769333</ele>
        <time>2021-10-03T08:58:31.000Z</time>
      </trkpt>
      <trkpt lat="43.66857" lon="2.35705">
        <ele>507.107344</ele>
        <time>2021-10-03T08:58:32.000Z</time>
      </trkpt>
      <trkpt lat="43.6686" lon="2.35702">
        <ele>507.470724</ele>
        <time>2021-10-03T08:58:33.000Z</time>
      </trkpt>
      <trkpt lat="43.66864" lon="2.35699">
        <ele>507.839013</ele>
        <time>2021-10-03T08:58:34.000Z</time>
      </trkpt>
      <trkpt lat="43.66867" lon="2.35695">
        <ele>507.950881</ele>
        <time>2021-10-03T08:58:35.000Z</time>
      </trkpt>
      <trkpt lat="43.6687" lon="2.35692">
        <ele>508.068483</ele>
        <time>2021-10-03T08:58:36.000Z</time>
      </trkpt>
      <trkpt lat="43.66874" lon="2.35689">
        <ele>508.192588</ele>
        <time>2021-10-03T08:58:37.000Z</time>
      </trkpt>
      <trkpt lat="43.66878" lon="2.35687">
        <ele>508.306192</ele>
        <time>2021-10-03T08:58:38.000Z</time>
      </trkpt>
      <trkpt lat="43.66881" lon="2.35684">
        <ele>508.415344</ele>
        <time>2021-10-03T08:58:39.000Z</time>
      </trkpt>
      <trkpt lat="43.66885" lon="2.35682">
        <ele>508.53395</ele>
        <time>2021-10-03T08:58:40.000Z</time>
      </trkpt>
      <trkpt lat="43.66888" lon="2.3568">
        <ele>508.639597</ele>
        <time>2021-10-03T08:58:41.000Z</time>
      </trkpt>
      <trkpt lat="43.66892" lon="2.35678">
        <ele>508.750399</ele>
        <time>2021-10-03T08:58:42.000Z</time>
      </trkpt>
      <trkpt lat="43.66895" lon="2.35675">
        <ele>508.858626</ele>
        <time>2021-10-03T08:58:43.000Z</time>
      </trkpt>
      <trkpt lat="43.66899" lon="2.35673">
        <ele>508.970735</ele>
        <time>2021-10-03T08:58:44.000Z</time>
      </trkpt>
      <trkpt lat="43.66902" lon="2.3567">
        <ele>509.080665</ele>
        <time>2021-10-03T08:58:45.000Z</time>
      </trkpt>
      <trkpt lat="43.66905" lon="2.35668">
        <ele>509.190304</ele>
        <time>2021-10-03T08:58:46.000Z</time>
      </trkpt>
      <trkpt lat="43.66909" lon="2.35664">
        <ele>509.305699</ele>
        <time>2021-10-03T08:58:47.000Z</time>
      </trkpt>
      <trkpt lat="43.66912" lon="2.35661">
        <ele>509.426901</ele>
        <time>2021-10-03T08:58:48.000Z</time>
      </trkpt>
      <trkpt lat="43.66915" lon="2.35657">
        <ele>509.545361</ele>
        <time>2021-10-03T08:58:49.000Z</time>
      </trkpt>
      <trkpt lat="43.66918" lon="2.35653">
        <ele>509.661571</ele>
        <time>2021-10-03T08:58:50.000Z</time>
      </trkpt>
      <trkpt lat="43.6692" lon="2.35648">
        <ele>509.772175</ele>
        <time>2021-10-03T08:58:51.000Z</time>
      </trkpt>
      <trkpt lat="43.66922" lon="2.35644">
        <ele>509.88278</ele>
        <time>2021-10-03T08:58:52.000Z</time>
      </trkpt>
      <trkpt lat="43.66924" lon="2.35639">
        <ele>509.995944</ele>
        <time>2021-10-03T08:58:53.000Z</time>
      </trkpt>
      <trkpt lat="43.66926" lon="2.35634">
        <ele>510.112753</ele>
        <time>2021-10-03T08:58:54.000Z</time>
      </trkpt>
      <trkpt lat="43.66928" lon="2.35629">
        <ele>510.24955</ele>
        <time>2021-10-03T08:58:55.000Z</time>
      </trkpt>
      <trkpt lat="43.6693" lon="2.35622">
        <ele>510.390656</ele>
        <time>2021-10-03T08:58:56.000Z</time>
      </trkpt>
      <trkpt lat="43.66932" lon="2.35615">
        <ele>510.551109</ele>
        <time>2021-10-03T08:58:57.000Z</time>
      </trkpt>
      <trkpt lat="43.66933" lon="2.35607">
        <ele>510.718787</ele>
        <time>2021-10-03T08:58:58.000Z</time>
      </trkpt>
      <trkpt lat="43.66935" lon="2.35599">
        <ele>510.888114</ele>
        <time>2021-10-03T08:58:59.000Z</time>
      </trkpt>
      <trkpt lat="43.66938" lon="2.35591">
        <ele>511.066157</ele>
        <time>2021-10-03T08:59:00.000Z</time>
      </trkpt>
      <trkpt lat="43.6694" lon="2.35584">
        <ele>511.232731</ele>
        <time>2021-10-03T08:59:01.000Z</time>
      </trkpt>
      <trkpt lat="43.66942" lon="2.35577">
        <ele>511.391738</ele>
        <time>2021-10-03T08:59:02.000Z</time>
      </trkpt>
      <trkpt lat="43.66944" lon="2.3557">
        <ele>511.541392</ele>
        <time>2021-10-03T08:59:03.000Z</time>
      </trkpt>
      <trkpt lat="43.66946" lon="2.35564">
        <ele>511.684468</ele>
        <time>2021-10-03T08:59:04.000Z</time>
      </trkpt>
      <trkpt lat="43.66948" lon="2.35557">
        <ele>511.827545</ele>
        <time>2021-10-03T08:59:05.000Z</time>
      </trkpt>
      <trkpt lat="43.66951" lon="2.35551">
        <ele>511.975343</ele>
        <time>2021-10-03T08:59:06.000Z</time>
      </trkpt>
      <trkpt lat="43.66952" lon="2.35545">
        <ele>512.107024</ele>
        <time>2021-10-03T08:59:07.000Z</time>
      </trkpt>
      <trkpt lat="43.66955" lon="2.3554">
        <ele>512.23278</ele>
        <time>2021-10-03T08:59:08.000Z</time>
      </trkpt>
      <trkpt lat="43.66957" lon="2.35537">
        <ele>512.336848</ele>
        <time>2021-10-03T08:59:09.000Z</time>
      </trkpt>
      <trkpt lat="43.6696" lon="2.35534">
        <ele>512.416816</ele>
        <time>2021-10-03T08:59:10.000Z</time>
      </trkpt>
      <trkpt lat="43.66962" lon="2.35534">
        <ele>512.47118</ele>
        <time>2021-10-03T08:59:11.000Z</time>
      </trkpt>
      <trkpt lat="43.66963" lon="2.35536">
        <ele>512.517435</ele>
        <time>2021-10-03T08:59:12.000Z</time>
      </trkpt>
      <trkpt lat="43.66963" lon="2.35539">
        <ele>512.575344</ele>
        <time>2021-10-03T08:59:13.000Z</time>
      </trkpt>
      <trkpt lat="43.66962" lon="2.35541">
        <ele>512.63272</ele>
        <time>2021-10-03T08:59:14.000Z</time>
      </trkpt>
      <trkpt lat="43.66961" lon="2.35544">
        <ele>512.700442</ele>
        <time>2021-10-03T08:59:15.000Z</time>
      </trkpt>
      <trkpt lat="43.6696" lon="2.35547">
        <ele>512.771342</ele>
        <time>2021-10-03T08:59:16.000Z</time>
      </trkpt>
      <trkpt lat="43.66959" lon="2.35551">
        <ele>512.844625</ele>
        <time>2021-10-03T08:59:17.000Z</time>
      </trkpt>
      <trkpt lat="43.66959" lon="2.35555">
        <ele>512.927351</ele>
        <time>2021-10-03T08:59:18.000Z</time>
      </trkpt>
      <trkpt lat="43.6696" lon="2.35558">
        <ele>513.061359</ele>
        <time>2021-10-03T08:59:19.000Z</time>
      </trkpt>
      <trkpt lat="43.66962" lon="2.35561">
        <ele>513.275865</ele>
        <time>2021-10-03T08:59:20.000Z</time>
      </trkpt>
      <trkpt lat="43.66965" lon="2.35563">
        <ele>513.484892</ele>
        <time>2021-10-03T08:59:21.000Z</time>
      </trkpt>
      <trkpt lat="43.66968" lon="2.35565">
        <ele>513.69297</ele>
        <time>2021-10-03T08:59:22.000Z</time>
      </trkpt>
      <trkpt lat="43.6697" lon="2.35567">
        <ele>513.893144</ele>
        <time>2021-10-03T08:59:23.000Z</time>
      </trkpt>
      <trkpt lat="43.66973" lon="2.35567">
        <ele>514.104338</ele>
        <time>2021-10-03T08:59:24.000Z</time>
      </trkpt>
      <trkpt lat="43.66976" lon="2.35568">
        <ele>514.320056</ele>
        <time>2021-10-03T08:59:25.000Z</time>
      </trkpt>
      <trkpt lat="43.66979" lon="2.35568">
        <ele>514.529813</ele>
        <time>2021-10-03T08:59:26.000Z</time>
      </trkpt>
      <trkpt lat="43.66983" lon="2.35569">
        <ele>514.745939</ele>
        <time>2021-10-03T08:59:27.000Z</time>
      </trkpt>
      <trkpt lat="43.66986" lon="2.35569">
        <ele>514.956357</ele>
        <time>2021-10-03T08:59:28.000Z</time>
      </trkpt>
      <trkpt lat="43.66989" lon="2.3557">
        <ele>515.193704</ele>
        <time>2021-10-03T08:59:29.000Z</time>
      </trkpt>
      <trkpt lat="43.66992" lon="2.3557">
        <ele>515.43749</ele>
        <time>2021-10-03T08:59:30.000Z</time>
      </trkpt>
      <trkpt lat="43.66996" lon="2.35571">
        <ele>515.675421</ele>
        <time>2021-10-03T08:59:31.000Z</time>
      </trkpt>
      <trkpt lat="43.67" lon="2.35571">
        <ele>515.941535</ele>
        <time>2021-10-03T08:59:32.000Z</time>
      </trkpt>
      <trkpt lat="43.67003" lon="2.35572">
        <ele>516.187022</ele>
        <time>2021-10-03T08:59:33.000Z</time>
      </trkpt>
      <trkpt lat="43.67007" lon="2.35573">
        <ele>516.424369</ele>
        <time>2021-10-03T08:59:34.000Z</time>
      </trkpt>
      <trkpt lat="43.6701" lon="2.35573">
        <ele>516.661717</ele>
        <time>2021-10-03T08:59:35.000Z</time>
      </trkpt>
      <trkpt lat="43.67013" lon="2.35574">
        <ele>516.90202</ele>
        <time>2021-10-03T08:59:36.000Z</time>
      </trkpt>
      <trkpt lat="43.67017" lon="2.35575">
        <ele>517.150112</ele>
        <time>2021-10-03T08:59:37.000Z</time>
      </trkpt>
      <trkpt lat="43.6702" lon="2.35576">
        <ele>517.396374</ele>
        <time>2021-10-03T08:59:38.000Z</time>
      </trkpt>
      <trkpt lat="43.67024" lon="2.35578">
        <ele>517.649296</ele>
        <time>2021-10-03T08:59:39.000Z</time>
      </trkpt>
      <trkpt lat="43.67027" lon="2.35579">
        <ele>517.897038</ele>
        <time>2021-10-03T08:59:40.000Z</time>
      </trkpt>
      <trkpt lat="43.6703" lon="2.35581">
        <ele>518.123419</ele>
        <time>2021-10-03T08:59:41.000Z</time>
      </trkpt>
      <trkpt lat="43.67033" lon="2.35582">
        <ele>518.341659</ele>
        <time>2021-10-03T08:59:42.000Z</time>
      </trkpt>
      <trkpt lat="43.67036" lon="2.35583">
        <ele>518.559898</ele>
        <time>2021-10-03T08:59:43.000Z</time>
      </trkpt>
      <trkpt lat="43.67039" lon="2.35585">
        <ele>518.766585</ele>
        <time>2021-10-03T08:59:44.000Z</time>
      </trkpt>
      <trkpt lat="43.67041" lon="2.35586">
        <ele>518.943116</ele>
        <time>2021-10-03T08:59:45.000Z</time>
      </trkpt>
      <trkpt lat="43.67044" lon="2.35587">
        <ele>519.115602</ele>
        <time>2021-10-03T08:59:46.000Z</time>
      </trkpt>
      <trkpt lat="43.67046" lon="2.35588">
        <ele>519.302939</ele>
        <time>2021-10-03T08:59:47.000Z</time>
      </trkpt>
      <trkpt lat="43.67049" lon="2.3559">
        <ele>519.522732</ele>
        <time>2021-10-03T08:59:48.000Z</time>
      </trkpt>
      <trkpt lat="43.67052" lon="2.35591">
        <ele>519.718125</ele>
        <time>2021-10-03T08:59:49.000Z</time>
      </trkpt>
      <trkpt lat="43.67055" lon="2.35593">
        <ele>519.953515</ele>
        <time>2021-10-03T08:59:50.000Z</time>
      </trkpt>
      <trkpt lat="43.67058" lon="2.35595">
        <ele>520.205691</ele>
        <time>2021-10-03T08:59:51.000Z</time>
      </trkpt>
      <trkpt lat="43.67062" lon="2.35597">
        <ele>520.460838</ele>
        <time>2021-10-03T08:59:52.000Z</time>
      </trkpt>
      <trkpt lat="43.67064" lon="2.356">
        <ele>520.692153</ele>
        <time>2021-10-03T08:59:53.000Z</time>
      </trkpt>
      <trkpt lat="43.67067" lon="2.35603">
        <ele>520.904887</ele>
        <time>2021-10-03T08:59:54.000Z</time>
      </trkpt>
      <trkpt lat="43.67068" lon="2.35606">
        <ele>521.116665</ele>
        <time>2021-10-03T08:59:55.000Z</time>
      </trkpt>
      <trkpt lat="43.6707" lon="2.35609">
        <ele>521.316265</ele>
        <time>2021-10-03T08:59:56.000Z</time>
      </trkpt>
      <trkpt lat="43.67073" lon="2.35614">
        <ele>521.588973</ele>
        <time>2021-10-03T08:59:57.000Z</time>
      </trkpt>
      <trkpt lat="43.67075" lon="2.35618">
        <ele>521.837704</ele>
        <time>2021-10-03T08:59:58.000Z</time>
      </trkpt>
      <trkpt lat="43.67076" lon="2.35622">
        <ele>522.074241</ele>
        <time>2021-10-03T08:59:59.000Z</time>
      </trkpt>
      <trkpt lat="43.67078" lon="2.35626">
        <ele>522.312584</ele>
        <time>2021-10-03T09:00:00.000Z</time>
      </trkpt>
      <trkpt lat="43.6708" lon="2.3563">
        <ele>522.550927</ele>
        <time>2021-10-03T09:00:01.000Z</time>
      </trkpt>
      <trkpt lat="43.67081" lon="2.35635">
        <ele>522.784676</ele>
        <time>2021-10-03T09:00:02.000Z</time>
      </trkpt>
      <trkpt lat="43.67082" lon="2.35639">
        <ele>523.03346</ele>
        <time>2021-10-03T09:00:03.000Z</time>
      </trkpt>
      <trkpt lat="43.67083" lon="2.35644">
        <ele>523.288458</ele>
        <time>2021-10-03T09:00:04.000Z</time>
      </trkpt>
      <trkpt lat="43.67085" lon="2.3565">
        <ele>523.588296</ele>
        <time>2021-10-03T09:00:05.000Z</time>
      </trkpt>
      <trkpt lat="43.67086" lon="2.35656">
        <ele>523.921317</ele>
        <time>2021-10-03T09:00:06.000Z</time>
      </trkpt>
      <trkpt lat="43.67087" lon="2.35662">
        <ele>524.247425</ele>
        <time>2021-10-03T09:00:07.000Z</time>
      </trkpt>
      <trkpt lat="43.67088" lon="2.35668">
        <ele>524.553762</ele>
        <time>2021-10-03T09:00:08.000Z</time>
      </trkpt>
      <trkpt lat="43.67089" lon="2.35674">
        <ele>524.865038</ele>
        <time>2021-10-03T09:00:09.000Z</time>
      </trkpt>
      <trkpt lat="43.67089" lon="2.3568">
        <ele>525.161278</ele>
        <time>2021-10-03T09:00:10.000Z</time>
      </trkpt>
      <trkpt lat="43.67088" lon="2.35686">
        <ele>525.43813</ele>
        <time>2021-10-03T09:00:11.000Z</time>
      </trkpt>
      <trkpt lat="43.67087" lon="2.3569">
        <ele>525.660659</ele>
        <time>2021-10-03T09:00:12.000Z</time>
      </trkpt>
      <trkpt lat="43.67085" lon="2.35695">
        <ele>525.867309</ele>
        <time>2021-10-03T09:00:13.000Z</time>
      </trkpt>
      <trkpt lat="43.67083" lon="2.35699">
        <ele>526.105214</ele>
        <time>2021-10-03T09:00:14.000Z</time>
      </trkpt>
      <trkpt lat="43.67081" lon="2.35703">
        <ele>526.331279</ele>
        <time>2021-10-03T09:00:15.000Z</time>
      </trkpt>
      <trkpt lat="43.67077" lon="2.35706">
        <ele>526.555628</ele>
        <time>2021-10-03T09:00:16.000Z</time>
      </trkpt>
      <trkpt lat="43.67074" lon="2.35708">
        <ele>526.757416</ele>
        <time>2021-10-03T09:00:17.000Z</time>
      </trkpt>
      <trkpt lat="43.67072" lon="2.35709">
        <ele>526.929244</ele>
        <time>2021-10-03T09:00:18.000Z</time>
      </trkpt>
      <trkpt lat="43.67069" lon="2.3571">
        <ele>527.119723</ele>
        <time>2021-10-03T09:00:19.000Z</time>
      </trkpt>
      <trkpt lat="43.67065" lon="2.35711">
        <ele>527.330327</ele>
        <time>2021-10-03T09:00:20.000Z</time>
      </trkpt>
      <trkpt lat="43.67062" lon="2.35712">
        <ele>527.521389</ele>
        <time>2021-10-03T09:00:21.000Z</time>
      </trkpt>
      <trkpt lat="43.67059" lon="2.35713">
        <ele>527.713304</ele>
        <time>2021-10-03T09:00:22.000Z</time>
      </trkpt>
      <trkpt lat="43.67056" lon="2.35713">
        <ele>527.92046</ele>
        <time>2021-10-03T09:00:23.000Z</time>
      </trkpt>
      <trkpt lat="43.67052" lon="2.35714">
        <ele>528.128725</ele>
        <time>2021-10-03T09:00:24.000Z</time>
      </trkpt>
      <trkpt lat="43.67049" lon="2.35715">
        <ele>528.313835</ele>
        <time>2021-10-03T09:00:25.000Z</time>
      </trkpt>
      <trkpt lat="43.67047" lon="2.35716">
        <ele>528.487062</ele>
        <time>2021-10-03T09:00:26.000Z</time>
      </trkpt>
      <trkpt lat="43.67044" lon="2.35717">
        <ele>528.67403</ele>
        <time>2021-10-03T09:00:27.000Z</time>
      </trkpt>
      <trkpt lat="43.6704" lon="2.35718">
        <ele>528.873019</ele>
        <time>2021-10-03T09:00:28.000Z</time>
      </trkpt>
      <trkpt lat="43.67038" lon="2.3572">
        <ele>529.056575</ele>
        <time>2021-10-03T09:00:29.000Z</time>
      </trkpt>
      <trkpt lat="43.67035" lon="2.35722">
        <ele>529.231161</ele>
        <time>2021-10-03T09:00:30.000Z</time>
      </trkpt>
      <trkpt lat="43.67033" lon="2.35725">
        <ele>529.398156</ele>
        <time>2021-10-03T09:00:31.000Z</time>
      </trkpt>
      <trkpt lat="43.67031" lon="2.35728">
        <ele>529.582996</ele>
        <time>2021-10-03T09:00:32.000Z</time>
      </trkpt>
      <trkpt lat="43.67029" lon="2.35732">
        <ele>529.817364</ele>
        <time>2021-10-03T09:00:33.000Z</time>
      </trkpt>
      <trkpt lat="43.67027" lon="2.35736">
        <ele>530.034457</ele>
        <time>2021-10-03T09:00:34.000Z</time>
      </trkpt>
      <trkpt lat="43.67026" lon="2.35741">
        <ele>530.23973</ele>
        <time>2021-10-03T09:00:35.000Z</time>
      </trkpt>
      <trkpt lat="43.67024" lon="2.35744">
        <ele>530.43242</ele>
        <time>2021-10-03T09:00:36.000Z</time>
      </trkpt>
      <trkpt lat="43.67022" lon="2.35748">
        <ele>530.603223</ele>
        <time>2021-10-03T09:00:37.000Z</time>
      </trkpt>
      <trkpt lat="43.67021" lon="2.35751">
        <ele>530.774026</ele>
        <time>2021-10-03T09:00:38.000Z</time>
      </trkpt>
      <trkpt lat="43.67019" lon="2.35754">
        <ele>530.974856</ele>
        <time>2021-10-03T09:00:39.000Z</time>
      </trkpt>
      <trkpt lat="43.67017" lon="2.35758">
        <ele>531.163144</ele>
        <time>2021-10-03T09:00:40.000Z</time>
      </trkpt>
      <trkpt lat="43.67014" lon="2.35762">
        <ele>531.387078</ele>
        <time>2021-10-03T09:00:41.000Z</time>
      </trkpt>
      <trkpt lat="43.67012" lon="2.35766">
        <ele>531.617938</ele>
        <time>2021-10-03T09:00:42.000Z</time>
      </trkpt>
      <trkpt lat="43.6701" lon="2.3577">
        <ele>531.820383</ele>
        <time>2021-10-03T09:00:43.000Z</time>
      </trkpt>
      <trkpt lat="43.67008" lon="2.35772">
        <ele>531.976311</ele>
        <time>2021-10-03T09:00:44.000Z</time>
      </trkpt>
      <trkpt lat="43.67007" lon="2.35775">
        <ele>532.107799</ele>
        <time>2021-10-03T09:00:45.000Z</time>
      </trkpt>
      <trkpt lat="43.67006" lon="2.35777">
        <ele>532.215709</ele>
        <time>2021-10-03T09:00:46.000Z</time>
      </trkpt>
      <trkpt lat="43.67006" lon="2.35779">
        <ele>532.30243</ele>
        <time>2021-10-03T09:00:47.000Z</time>
      </trkpt>
      <trkpt lat="43.66998" lon="2.35788">
        <ele>532.935702</ele>
        <time>2021-10-03T09:01:22.000Z</time>
      </trkpt>
      <trkpt lat="43.66997" lon="2.35789">
        <ele>533.010287</ele>
        <time>2021-10-03T09:01:23.000Z</time>
      </trkpt>
      <trkpt lat="43.66997" lon="2.3579">
        <ele>533.045346</ele>
        <time>2021-10-03T09:01:24.000Z</time>
      </trkpt>
      <trkpt lat="43.66997" lon="2.35791">
        <ele>533.075256</ele>
        <time>2021-10-03T09:01:25.000Z</time>
      </trkpt>
      <trkpt lat="43.66997" lon="2.35791">
        <ele>533.075256</ele>
        <time>2021-10-03T09:01:26.000Z</time>
      </trkpt>
      <trkpt lat="43.66997" lon="2.35794">
        <ele>533.229713</ele>
        <time>2021-10-03T09:01:45.000Z</time>
      </trkpt>
      <trkpt lat="43.66996" lon="2.35797">
        <ele>533.359542</ele>
        <time>2021-10-03T09:01:46.000Z</time>
      </trkpt>
      <trkpt lat="43.66995" lon="2.358">
        <ele>533.499179</ele>
        <time>2021-10-03T09:01:47.000Z</time>
      </trkpt>
      <trkpt lat="43.66994" lon="2.35803">
        <ele>533.687381</ele>
        <time>2021-10-03T09:01:48.000Z</time>
      </trkpt>
      <trkpt lat="43.66991" lon="2.35807">
        <ele>533.911627</ele>
        <time>2021-10-03T09:01:49.000Z</time>
      </trkpt>
      <trkpt lat="43.66989" lon="2.3581">
        <ele>534.115635</ele>
        <time>2021-10-03T09:01:50.000Z</time>
      </trkpt>
      <trkpt lat="43.66987" lon="2.35814">
        <ele>534.307411</ele>
        <time>2021-10-03T09:01:51.000Z</time>
      </trkpt>
      <trkpt lat="43.66984" lon="2.35817">
        <ele>534.521254</ele>
        <time>2021-10-03T09:01:52.000Z</time>
      </trkpt>
      <trkpt lat="43.66982" lon="2.3582">
        <ele>534.70659</ele>
        <time>2021-10-03T09:01:53.000Z</time>
      </trkpt>
      <trkpt lat="43.6698" lon="2.35824">
        <ele>534.891758</ele>
        <time>2021-10-03T09:01:54.000Z</time>
      </trkpt>
      <trkpt lat="43.66979" lon="2.35828">
        <ele>535.094501</ele>
        <time>2021-10-03T09:01:55.000Z</time>
      </trkpt>
      <trkpt lat="43.66976" lon="2.35831">
        <ele>535.318747</ele>
        <time>2021-10-03T09:01:56.000Z</time>
      </trkpt>
      <trkpt lat="43.66973" lon="2.35835">
        <ele>535.538613</ele>
        <time>2021-10-03T09:01:57.000Z</time>
      </trkpt>
      <trkpt lat="43.66971" lon="2.35838">
        <ele>535.756958</ele>
        <time>2021-10-03T09:01:58.000Z</time>
      </trkpt>
      <trkpt lat="43.66968" lon="2.3584">
        <ele>535.931544</ele>
        <time>2021-10-03T09:01:59.000Z</time>
      </trkpt>
      <trkpt lat="43.66966" lon="2.35842">
        <ele>536.076229</ele>
        <time>2021-10-03T09:02:00.000Z</time>
      </trkpt>
      <trkpt lat="43.66965" lon="2.35845">
        <ele>536.24448</ele>
        <time>2021-10-03T09:02:01.000Z</time>
      </trkpt>
      <trkpt lat="43.66963" lon="2.35848">
        <ele>536.392215</ele>
        <time>2021-10-03T09:02:02.000Z</time>
      </trkpt>
      <trkpt lat="43.6696" lon="2.35851">
        <ele>536.542045</ele>
        <time>2021-10-03T09:02:03.000Z</time>
      </trkpt>
      <trkpt lat="43.66957" lon="2.35855">
        <ele>536.700099</ele>
        <time>2021-10-03T09:02:04.000Z</time>
      </trkpt>
      <trkpt lat="43.66954" lon="2.35858">
        <ele>536.867242</ele>
        <time>2021-10-03T09:02:05.000Z</time>
      </trkpt>
      <trkpt lat="43.66951" lon="2.35864">
        <ele>537.064925</ele>
        <time>2021-10-03T09:02:06.000Z</time>
      </trkpt>
      <trkpt lat="43.66949" lon="2.35869">
        <ele>537.257421</ele>
        <time>2021-10-03T09:02:07.000Z</time>
      </trkpt>
      <trkpt lat="43.66946" lon="2.35874">
        <ele>537.440717</ele>
        <time>2021-10-03T09:02:08.000Z</time>
      </trkpt>
      <trkpt lat="43.66944" lon="2.3588">
        <ele>537.634377</ele>
        <time>2021-10-03T09:02:09.000Z</time>
      </trkpt>
      <trkpt lat="43.66942" lon="2.35885">
        <ele>537.830658</ele>
        <time>2021-10-03T09:02:10.000Z</time>
      </trkpt>
      <trkpt lat="43.6694" lon="2.35891">
        <ele>538.008933</ele>
        <time>2021-10-03T09:02:11.000Z</time>
      </trkpt>
      <trkpt lat="43.66939" lon="2.35897">
        <ele>538.194167</ele>
        <time>2021-10-03T09:02:12.000Z</time>
      </trkpt>
      <trkpt lat="43.66937" lon="2.35902">
        <ele>538.368122</ele>
        <time>2021-10-03T09:02:13.000Z</time>
      </trkpt>
      <trkpt lat="43.66935" lon="2.35908">
        <ele>538.554797</ele>
        <time>2021-10-03T09:02:14.000Z</time>
      </trkpt>
      <trkpt lat="43.66934" lon="2.35913">
        <ele>538.731563</ele>
        <time>2021-10-03T09:02:15.000Z</time>
      </trkpt>
      <trkpt lat="43.66933" lon="2.35919">
        <ele>538.918769</ele>
        <time>2021-10-03T09:02:16.000Z</time>
      </trkpt>
      <trkpt lat="43.66932" lon="2.35926">
        <ele>539.128314</ele>
        <time>2021-10-03T09:02:17.000Z</time>
      </trkpt>
      <trkpt lat="43.66931" lon="2.35932">
        <ele>539.323213</ele>
        <time>2021-10-03T09:02:18.000Z</time>
      </trkpt>
      <trkpt lat="43.66929" lon="2.35938">
        <ele>539.517431</ele>
        <time>2021-10-03T09:02:19.000Z</time>
      </trkpt>
      <trkpt lat="43.66927" lon="2.35944">
        <ele>539.704107</ele>
        <time>2021-10-03T09:02:20.000Z</time>
      </trkpt>
      <trkpt lat="43.66925" lon="2.3595">
        <ele>539.911783</ele>
        <time>2021-10-03T09:02:21.000Z</time>
      </trkpt>
      <trkpt lat="43.66923" lon="2.35956">
        <ele>540.103258</ele>
        <time>2021-10-03T09:02:22.000Z</time>
      </trkpt>
      <trkpt lat="43.66921" lon="2.35962">
        <ele>540.294733</ele>
        <time>2021-10-03T09:02:23.000Z</time>
      </trkpt>
      <trkpt lat="43.66919" lon="2.35968">
        <ele>540.498885</ele>
        <time>2021-10-03T09:02:24.000Z</time>
      </trkpt>
      <trkpt lat="43.66917" lon="2.35975">
        <ele>540.72016</ele>
        <time>2021-10-03T09:02:25.000Z</time>
      </trkpt>
      <trkpt lat="43.66915" lon="2.35981">
        <ele>540.943187</ele>
        <time>2021-10-03T09:02:26.000Z</time>
      </trkpt>
      <trkpt lat="43.66913" lon="2.35988">
        <ele>541.159605</ele>
        <time>2021-10-03T09:02:27.000Z</time>
      </trkpt>
      <trkpt lat="43.6691" lon="2.35995">
        <ele>541.382631</ele>
        <time>2021-10-03T09:02:28.000Z</time>
      </trkpt>
      <trkpt lat="43.66909" lon="2.36001">
        <ele>541.589113</ele>
        <time>2021-10-03T09:02:29.000Z</time>
      </trkpt>
      <trkpt lat="43.66907" lon="2.36008">
        <ele>541.797159</ele>
        <time>2021-10-03T09:02:30.000Z</time>
      </trkpt>
      <trkpt lat="43.66906" lon="2.36015">
        <ele>542.005206</ele>
        <time>2021-10-03T09:02:31.000Z</time>
      </trkpt>
      <trkpt lat="43.66904" lon="2.36021">
        <ele>542.218828</ele>
        <time>2021-10-03T09:02:32.000Z</time>
      </trkpt>
      <trkpt lat="43.66902" lon="2.36028">
        <ele>542.428159</ele>
        <time>2021-10-03T09:02:33.000Z</time>
      </trkpt>
      <trkpt lat="43.66901" lon="2.36034">
        <ele>542.633339</ele>
        <time>2021-10-03T09:02:34.000Z</time>
      </trkpt>
      <trkpt lat="43.66899" lon="2.36041">
        <ele>542.832797</ele>
        <time>2021-10-03T09:02:35.000Z</time>
      </trkpt>
      <trkpt lat="43.66898" lon="2.36047">
        <ele>543.032255</ele>
        <time>2021-10-03T09:02:36.000Z</time>
      </trkpt>
      <trkpt lat="43.66896" lon="2.36053">
        <ele>543.238737</ele>
        <time>2021-10-03T09:02:37.000Z</time>
      </trkpt>
      <trkpt lat="43.66894" lon="2.3606">
        <ele>543.44524</ele>
        <time>2021-10-03T09:02:38.000Z</time>
      </trkpt>
      <trkpt lat="43.66892" lon="2.36066">
        <ele>543.660304</ele>
        <time>2021-10-03T09:02:39.000Z</time>
      </trkpt>
      <trkpt lat="43.66889" lon="2.36071">
        <ele>543.853946</ele>
        <time>2021-10-03T09:02:40.000Z</time>
      </trkpt>
      <trkpt lat="43.66887" lon="2.36077">
        <ele>544.04744</ele>
        <time>2021-10-03T09:02:41.000Z</time>
      </trkpt>
      <trkpt lat="43.66885" lon="2.36083">
        <ele>544.243553</ele>
        <time>2021-10-03T09:02:42.000Z</time>
      </trkpt>
      <trkpt lat="43.66883" lon="2.36089">
        <ele>544.434863</ele>
        <time>2021-10-03T09:02:43.000Z</time>
      </trkpt>
      <trkpt lat="43.66881" lon="2.36094">
        <ele>544.620715</ele>
        <time>2021-10-03T09:02:44.000Z</time>
      </trkpt>
      <trkpt lat="43.66879" lon="2.361">
        <ele>544.809293</ele>
        <time>2021-10-03T09:02:45.000Z</time>
      </trkpt>
      <trkpt lat="43.66877" lon="2.36105">
        <ele>544.989723</ele>
        <time>2021-10-03T09:02:46.000Z</time>
      </trkpt>
      <trkpt lat="43.66875" lon="2.36111">
        <ele>545.18061</ele>
        <time>2021-10-03T09:02:47.000Z</time>
      </trkpt>
      <trkpt lat="43.66873" lon="2.36116">
        <ele>545.354415</ele>
        <time>2021-10-03T09:02:48.000Z</time>
      </trkpt>
      <trkpt lat="43.66871" lon="2.36122">
        <ele>545.545303</ele>
        <time>2021-10-03T09:02:49.000Z</time>
      </trkpt>
      <trkpt lat="43.66869" lon="2.36127">
        <ele>545.725733</ele>
        <time>2021-10-03T09:02:50.000Z</time>
      </trkpt>
      <trkpt lat="43.66867" lon="2.36133">
        <ele>545.91721</ele>
        <time>2021-10-03T09:02:51.000Z</time>
      </trkpt>
      <trkpt lat="43.66865" lon="2.36138">
        <ele>546.105246</ele>
        <time>2021-10-03T09:02:52.000Z</time>
      </trkpt>
      <trkpt lat="43.66863" lon="2.36144">
        <ele>546.299369</ele>
        <time>2021-10-03T09:02:53.000Z</time>
      </trkpt>
      <trkpt lat="43.66861" lon="2.3615">
        <ele>546.493421</ele>
        <time>2021-10-03T09:02:54.000Z</time>
      </trkpt>
      <trkpt lat="43.66859" lon="2.36156">
        <ele>546.681999</ele>
        <time>2021-10-03T09:02:55.000Z</time>
      </trkpt>
      <trkpt lat="43.66857" lon="2.36161">
        <ele>546.867852</ele>
        <time>2021-10-03T09:02:56.000Z</time>
      </trkpt>
      <trkpt lat="43.66855" lon="2.36167">
        <ele>547.050989</ele>
        <time>2021-10-03T09:02:57.000Z</time>
      </trkpt>
      <trkpt lat="43.66854" lon="2.36172">
        <ele>547.231902</ele>
        <time>2021-10-03T09:02:58.000Z</time>
      </trkpt>
      <trkpt lat="43.66853" lon="2.36178">
        <ele>547.39877</ele>
        <time>2021-10-03T09:02:59.000Z</time>
      </trkpt>
      <trkpt lat="43.66852" lon="2.36183">
        <ele>547.570229</ele>
        <time>2021-10-03T09:03:00.000Z</time>
      </trkpt>
      <trkpt lat="43.6685" lon="2.36189">
        <ele>547.746844</ele>
        <time>2021-10-03T09:03:01.000Z</time>
      </trkpt>
      <trkpt lat="43.66848" lon="2.36194">
        <ele>547.916548</ele>
        <time>2021-10-03T09:03:02.000Z</time>
      </trkpt>
      <trkpt lat="43.66847" lon="2.36199">
        <ele>548.10026</ele>
        <time>2021-10-03T09:03:03.000Z</time>
      </trkpt>
      <trkpt lat="43.66845" lon="2.36206">
        <ele>548.303787</ele>
        <time>2021-10-03T09:03:04.000Z</time>
      </trkpt>
      <trkpt lat="43.66843" lon="2.36211">
        <ele>548.488753</ele>
        <time>2021-10-03T09:03:05.000Z</time>
      </trkpt>
      <trkpt lat="43.6684" lon="2.36216">
        <ele>548.67378</ele>
        <time>2021-10-03T09:03:06.000Z</time>
      </trkpt>
      <trkpt lat="43.66838" lon="2.36222">
        <ele>548.865091</ele>
        <time>2021-10-03T09:03:07.000Z</time>
      </trkpt>
      <trkpt lat="43.66836" lon="2.36229">
        <ele>549.089741</ele>
        <time>2021-10-03T09:03:08.000Z</time>
      </trkpt>
      <trkpt lat="43.66834" lon="2.36235">
        <ele>549.294831</ele>
        <time>2021-10-03T09:03:09.000Z</time>
      </trkpt>
      <trkpt lat="43.66833" lon="2.36241">
        <ele>549.491632</ele>
        <time>2021-10-03T09:03:10.000Z</time>
      </trkpt>
      <trkpt lat="43.6683" lon="2.36248">
        <ele>549.714468</ele>
        <time>2021-10-03T09:03:11.000Z</time>
      </trkpt>
      <trkpt lat="43.66828" lon="2.36255">
        <ele>549.934593</ele>
        <time>2021-10-03T09:03:12.000Z</time>
      </trkpt>
      <trkpt lat="43.66826" lon="2.36261">
        <ele>550.14932</ele>
        <time>2021-10-03T09:03:13.000Z</time>
      </trkpt>
      <trkpt lat="43.66824" lon="2.36267">
        <ele>550.351641</ele>
        <time>2021-10-03T09:03:14.000Z</time>
      </trkpt>
      <trkpt lat="43.66822" lon="2.36274">
        <ele>550.562291</ele>
        <time>2021-10-03T09:03:15.000Z</time>
      </trkpt>
      <trkpt lat="43.6682" lon="2.36281">
        <ele>550.806745</ele>
        <time>2021-10-03T09:03:16.000Z</time>
      </trkpt>
      <trkpt lat="43.66818" lon="2.36289">
        <ele>551.042686</ele>
        <time>2021-10-03T09:03:17.000Z</time>
      </trkpt>
      <trkpt lat="43.66816" lon="2.36296">
        <ele>551.267336</ele>
        <time>2021-10-03T09:03:18.000Z</time>
      </trkpt>
      <trkpt lat="43.66815" lon="2.36303">
        <ele>551.417023</ele>
        <time>2021-10-03T09:03:19.000Z</time>
      </trkpt>
      <trkpt lat="43.66813" lon="2.36309">
        <ele>551.549388</ele>
        <time>2021-10-03T09:03:20.000Z</time>
      </trkpt>
      <trkpt lat="43.66811" lon="2.36316">
        <ele>551.687198</ele>
        <time>2021-10-03T09:03:21.000Z</time>
      </trkpt>
      <trkpt lat="43.6681" lon="2.36321">
        <ele>551.807625</ele>
        <time>2021-10-03T09:03:22.000Z</time>
      </trkpt>
      <trkpt lat="43.66808" lon="2.36328">
        <ele>551.937133</ele>
        <time>2021-10-03T09:03:23.000Z</time>
      </trkpt>
      <trkpt lat="43.66807" lon="2.36335">
        <ele>552.082494</ele>
        <time>2021-10-03T09:03:24.000Z</time>
      </trkpt>
      <trkpt lat="43.66805" lon="2.36343">
        <ele>552.240533</ele>
        <time>2021-10-03T09:03:25.000Z</time>
      </trkpt>
      <trkpt lat="43.66803" lon="2.3635">
        <ele>552.384031</ele>
        <time>2021-10-03T09:03:26.000Z</time>
      </trkpt>
      <trkpt lat="43.66802" lon="2.36356">
        <ele>552.51042</ele>
        <time>2021-10-03T09:03:27.000Z</time>
      </trkpt>
      <trkpt lat="43.66801" lon="2.36362">
        <ele>552.624969</ele>
        <time>2021-10-03T09:03:28.000Z</time>
      </trkpt>
      <trkpt lat="43.668" lon="2.36367">
        <ele>552.733807</ele>
        <time>2021-10-03T09:03:29.000Z</time>
      </trkpt>
      <trkpt lat="43.66799" lon="2.36372">
        <ele>552.833153</ele>
        <time>2021-10-03T09:03:30.000Z</time>
      </trkpt>
      <trkpt lat="43.66799" lon="2.36377">
        <ele>552.924335</ele>
        <time>2021-10-03T09:03:31.000Z</time>
      </trkpt>
      <trkpt lat="43.668" lon="2.36381">
        <ele>553.007952</ele>
        <time>2021-10-03T09:03:32.000Z</time>
      </trkpt>
      <trkpt lat="43.66801" lon="2.36385">
        <ele>553.094089</ele>
        <time>2021-10-03T09:03:33.000Z</time>
      </trkpt>
      <trkpt lat="43.66802" lon="2.36391">
        <ele>553.204795</ele>
        <time>2021-10-03T09:03:34.000Z</time>
      </trkpt>
      <trkpt lat="43.66803" lon="2.36398">
        <ele>553.339009</ele>
        <time>2021-10-03T09:03:35.000Z</time>
      </trkpt>
      <trkpt lat="43.66804" lon="2.36404">
        <ele>553.468517</ele>
        <time>2021-10-03T09:03:36.000Z</time>
      </trkpt>
      <trkpt lat="43.66805" lon="2.36411">
        <ele>553.602173</ele>
        <time>2021-10-03T09:03:37.000Z</time>
      </trkpt>
      <trkpt lat="43.66805" lon="2.36418">
        <ele>553.747899</ele>
        <time>2021-10-03T09:03:38.000Z</time>
      </trkpt>
      <trkpt lat="43.66805" lon="2.36426">
        <ele>553.887993</ele>
        <time>2021-10-03T09:03:39.000Z</time>
      </trkpt>
      <trkpt lat="43.66804" lon="2.36432">
        <ele>554.018418</ele>
        <time>2021-10-03T09:03:40.000Z</time>
      </trkpt>
      <trkpt lat="43.66803" lon="2.36438">
        <ele>554.140382</ele>
        <time>2021-10-03T09:03:41.000Z</time>
      </trkpt>
      <trkpt lat="43.66803" lon="2.36445">
        <ele>554.266941</ele>
        <time>2021-10-03T09:03:42.000Z</time>
      </trkpt>
      <trkpt lat="43.66802" lon="2.36451">
        <ele>554.394433</ele>
        <time>2021-10-03T09:03:43.000Z</time>
      </trkpt>
      <trkpt lat="43.66802" lon="2.36457">
        <ele>554.509397</ele>
        <time>2021-10-03T09:03:44.000Z</time>
      </trkpt>
      <trkpt lat="43.66802" lon="2.36463">
        <ele>554.61998</ele>
        <time>2021-10-03T09:03:45.000Z</time>
      </trkpt>
      <trkpt lat="43.66802" lon="2.3647">
        <ele>554.749963</ele>
        <time>2021-10-03T09:03:46.000Z</time>
      </trkpt>
      <trkpt lat="43.66801" lon="2.36477">
        <ele>554.895861</ele>
        <time>2021-10-03T09:03:47.000Z</time>
      </trkpt>
      <trkpt lat="43.66801" lon="2.36485">
        <ele>555.045629</ele>
        <time>2021-10-03T09:03:48.000Z</time>
      </trkpt>
      <trkpt lat="43.668" lon="2.36492">
        <ele>555.191527</ele>
        <time>2021-10-03T09:03:49.000Z</time>
      </trkpt>
      <trkpt lat="43.66799" lon="2.365">
        <ele>555.33619</ele>
        <time>2021-10-03T09:03:50.000Z</time>
      </trkpt>
      <trkpt lat="43.66798" lon="2.36507">
        <ele>555.482754</ele>
        <time>2021-10-03T09:03:51.000Z</time>
      </trkpt>
      <trkpt lat="43.66797" lon="2.36514">
        <ele>555.627988</ele>
        <time>2021-10-03T09:03:52.000Z</time>
      </trkpt>
      <trkpt lat="43.66796" lon="2.36522">
        <ele>555.774697</ele>
        <time>2021-10-03T09:03:53.000Z</time>
      </trkpt>
      <trkpt lat="43.66795" lon="2.36529">
        <ele>555.923694</ele>
        <time>2021-10-03T09:03:54.000Z</time>
      </trkpt>
      <trkpt lat="43.66795" lon="2.36537">
        <ele>556.07461</ele>
        <time>2021-10-03T09:03:55.000Z</time>
      </trkpt>
      <trkpt lat="43.66794" lon="2.36545">
        <ele>556.333343</ele>
        <time>2021-10-03T09:03:56.000Z</time>
      </trkpt>
      <trkpt lat="43.66794" lon="2.36552">
        <ele>556.663585</ele>
        <time>2021-10-03T09:03:57.000Z</time>
      </trkpt>
      <trkpt lat="43.66793" lon="2.36559">
        <ele>556.949095</ele>
        <time>2021-10-03T09:03:58.000Z</time>
      </trkpt>
      <trkpt lat="43.66792" lon="2.36565">
        <ele>557.231268</ele>
        <time>2021-10-03T09:03:59.000Z</time>
      </trkpt>
      <trkpt lat="43.66791" lon="2.36572">
        <ele>557.521291</ele>
        <time>2021-10-03T09:04:00.000Z</time>
      </trkpt>
      <trkpt lat="43.6679" lon="2.36578">
        <ele>557.811314</ele>
        <time>2021-10-03T09:04:01.000Z</time>
      </trkpt>
      <trkpt lat="43.66789" lon="2.36585">
        <ele>558.132666</ele>
        <time>2021-10-03T09:04:02.000Z</time>
      </trkpt>
      <trkpt lat="43.66787" lon="2.36593">
        <ele>558.473817</ele>
        <time>2021-10-03T09:04:03.000Z</time>
      </trkpt>
      <trkpt lat="43.66785" lon="2.366">
        <ele>558.823169</ele>
        <time>2021-10-03T09:04:04.000Z</time>
      </trkpt>
      <trkpt lat="43.66783" lon="2.36608">
        <ele>559.164321</ele>
        <time>2021-10-03T09:04:05.000Z</time>
      </trkpt>
      <trkpt lat="43.66781" lon="2.36614">
        <ele>559.442145</ele>
        <time>2021-10-03T09:04:06.000Z</time>
      </trkpt>
      <trkpt lat="43.66779" lon="2.36621">
        <ele>559.805873</ele>
        <time>2021-10-03T09:04:07.000Z</time>
      </trkpt>
      <trkpt lat="43.66778" lon="2.36628">
        <ele>560.120675</ele>
        <time>2021-10-03T09:04:08.000Z</time>
      </trkpt>
      <trkpt lat="43.66776" lon="2.36635">
        <ele>560.437381</ele>
        <time>2021-10-03T09:04:09.000Z</time>
      </trkpt>
      <trkpt lat="43.66774" lon="2.36642">
        <ele>560.767084</ele>
        <time>2021-10-03T09:04:10.000Z</time>
      </trkpt>
      <trkpt lat="43.66773" lon="2.3665">
        <ele>561.100968</ele>
        <time>2021-10-03T09:04:11.000Z</time>
      </trkpt>
      <trkpt lat="43.66771" lon="2.36657">
        <ele>561.424057</ele>
        <time>2021-10-03T09:04:12.000Z</time>
      </trkpt>
      <trkpt lat="43.66769" lon="2.36664">
        <ele>561.747692</ele>
        <time>2021-10-03T09:04:13.000Z</time>
      </trkpt>
      <trkpt lat="43.66767" lon="2.3667">
        <ele>562.046554</ele>
        <time>2021-10-03T09:04:14.000Z</time>
      </trkpt>
      <trkpt lat="43.66764" lon="2.36676">
        <ele>562.364697</ele>
        <time>2021-10-03T09:04:15.000Z</time>
      </trkpt>
      <trkpt lat="43.66761" lon="2.36682">
        <ele>562.676055</ele>
        <time>2021-10-03T09:04:16.000Z</time>
      </trkpt>
      <trkpt lat="43.66759" lon="2.36688">
        <ele>562.983056</ele>
        <time>2021-10-03T09:04:17.000Z</time>
      </trkpt>
      <trkpt lat="43.66756" lon="2.36694">
        <ele>563.275445</ele>
        <time>2021-10-03T09:04:18.000Z</time>
      </trkpt>
      <trkpt lat="43.66754" lon="2.367">
        <ele>563.562813</ele>
        <time>2021-10-03T09:04:19.000Z</time>
      </trkpt>
      <trkpt lat="43.66751" lon="2.36705">
        <ele>563.823924</ele>
        <time>2021-10-03T09:04:20.000Z</time>
      </trkpt>
      <trkpt lat="43.66749" lon="2.3671">
        <ele>564.070802</ele>
        <time>2021-10-03T09:04:21.000Z</time>
      </trkpt>
      <trkpt lat="43.66747" lon="2.36715">
        <ele>564.312319</ele>
        <time>2021-10-03T09:04:22.000Z</time>
      </trkpt>
      <trkpt lat="43.66745" lon="2.36719">
        <ele>564.534319</ele>
        <time>2021-10-03T09:04:23.000Z</time>
      </trkpt>
      <trkpt lat="43.66743" lon="2.36722">
        <ele>564.761569</ele>
        <time>2021-10-03T09:04:24.000Z</time>
      </trkpt>
      <trkpt lat="43.66741" lon="2.36727">
        <ele>564.98734</ele>
        <time>2021-10-03T09:04:25.000Z</time>
      </trkpt>
      <trkpt lat="43.66739" lon="2.36731">
        <ele>565.202607</ele>
        <time>2021-10-03T09:04:26.000Z</time>
      </trkpt>
      <trkpt lat="43.66737" lon="2.36735">
        <ele>565.410511</ele>
        <time>2021-10-03T09:04:27.000Z</time>
      </trkpt>
      <trkpt lat="43.66735" lon="2.36739">
        <ele>565.635928</ele>
        <time>2021-10-03T09:04:28.000Z</time>
      </trkpt>
      <trkpt lat="43.66733" lon="2.36744">
        <ele>565.847477</ele>
        <time>2021-10-03T09:04:29.000Z</time>
      </trkpt>
      <trkpt lat="43.66731" lon="2.36747">
        <ele>566.038504</ele>
        <time>2021-10-03T09:04:30.000Z</time>
      </trkpt>
      <trkpt lat="43.66729" lon="2.36752">
        <ele>566.274477</ele>
        <time>2021-10-03T09:04:31.000Z</time>
      </trkpt>
      <trkpt lat="43.66727" lon="2.36756">
        <ele>566.48238</ele>
        <time>2021-10-03T09:04:32.000Z</time>
      </trkpt>
      <trkpt lat="43.66725" lon="2.3676">
        <ele>566.690081</ele>
        <time>2021-10-03T09:04:33.000Z</time>
      </trkpt>
      <trkpt lat="43.66723" lon="2.36764">
        <ele>566.904952</ele>
        <time>2021-10-03T09:04:34.000Z</time>
      </trkpt>
      <trkpt lat="43.66721" lon="2.36769">
        <ele>567.203667</ele>
        <time>2021-10-03T09:04:35.000Z</time>
      </trkpt>
      <trkpt lat="43.66719" lon="2.36773">
        <ele>567.47118</ele>
        <time>2021-10-03T09:04:36.000Z</time>
      </trkpt>
      <trkpt lat="43.66717" lon="2.36777">
        <ele>567.729509</ele>
        <time>2021-10-03T09:04:37.000Z</time>
      </trkpt>
      <trkpt lat="43.66715" lon="2.3678">
        <ele>567.989299</ele>
        <time>2021-10-03T09:04:38.000Z</time>
      </trkpt>
      <trkpt lat="43.66713" lon="2.36784">
        <ele>568.261514</ele>
        <time>2021-10-03T09:04:39.000Z</time>
      </trkpt>
      <trkpt lat="43.66711" lon="2.36787">
        <ele>568.502987</ele>
        <time>2021-10-03T09:04:40.000Z</time>
      </trkpt>
      <trkpt lat="43.66708" lon="2.36791">
        <ele>568.785191</ele>
        <time>2021-10-03T09:04:41.000Z</time>
      </trkpt>
      <trkpt lat="43.66706" lon="2.36794">
        <ele>569.027736</ele>
        <time>2021-10-03T09:04:42.000Z</time>
      </trkpt>
      <trkpt lat="43.66704" lon="2.36798">
        <ele>569.313254</ele>
        <time>2021-10-03T09:04:43.000Z</time>
      </trkpt>
      <trkpt lat="43.66701" lon="2.36802">
        <ele>569.616964</ele>
        <time>2021-10-03T09:04:44.000Z</time>
      </trkpt>
      <trkpt lat="43.66698" lon="2.36807">
        <ele>569.96237</ele>
        <time>2021-10-03T09:04:45.000Z</time>
      </trkpt>
      <trkpt lat="43.66695" lon="2.36812">
        <ele>570.291823</ele>
        <time>2021-10-03T09:04:46.000Z</time>
      </trkpt>
      <trkpt lat="43.66693" lon="2.36816">
        <ele>570.621564</ele>
        <time>2021-10-03T09:04:47.000Z</time>
      </trkpt>
      <trkpt lat="43.66691" lon="2.3682">
        <ele>570.884469</ele>
        <time>2021-10-03T09:04:48.000Z</time>
      </trkpt>
      <trkpt lat="43.66688" lon="2.36825">
        <ele>571.173882</ele>
        <time>2021-10-03T09:04:49.000Z</time>
      </trkpt>
      <trkpt lat="43.66686" lon="2.36829">
        <ele>571.467695</ele>
        <time>2021-10-03T09:04:50.000Z</time>
      </trkpt>
      <trkpt lat="43.66684" lon="2.36833">
        <ele>571.765944</ele>
        <time>2021-10-03T09:04:51.000Z</time>
      </trkpt>
      <trkpt lat="43.66682" lon="2.36837">
        <ele>572.015236</ele>
        <time>2021-10-03T09:04:52.000Z</time>
      </trkpt>
      <trkpt lat="43.6668" lon="2.3684">
        <ele>572.234302</ele>
        <time>2021-10-03T09:04:53.000Z</time>
      </trkpt>
      <trkpt lat="43.66677" lon="2.36843">
        <ele>572.481283</ele>
        <time>2021-10-03T09:04:54.000Z</time>
      </trkpt>
      <trkpt lat="43.66674" lon="2.36845">
        <ele>572.775615</ele>
        <time>2021-10-03T09:04:55.000Z</time>
      </trkpt>
      <trkpt lat="43.6667" lon="2.36848">
        <ele>573.095983</ele>
        <time>2021-10-03T09:04:56.000Z</time>
      </trkpt>
      <trkpt lat="43.66666" lon="2.3685">
        <ele>573.441153</ele>
        <time>2021-10-03T09:04:57.000Z</time>
      </trkpt>
      <trkpt lat="43.66662" lon="2.36853">
        <ele>573.760782</ele>
        <time>2021-10-03T09:04:58.000Z</time>
      </trkpt>
      <trkpt lat="43.66658" lon="2.36856">
        <ele>574.094554</ele>
        <time>2021-10-03T09:04:59.000Z</time>
      </trkpt>
      <trkpt lat="43.66655" lon="2.36858">
        <ele>574.372834</ele>
        <time>2021-10-03T09:05:00.000Z</time>
      </trkpt>
      <trkpt lat="43.66651" lon="2.3686">
        <ele>574.672982</ele>
        <time>2021-10-03T09:05:01.000Z</time>
      </trkpt>
      <trkpt lat="43.66648" lon="2.36861">
        <ele>574.944045</ele>
        <time>2021-10-03T09:05:02.000Z</time>
      </trkpt>
      <trkpt lat="43.66645" lon="2.36863">
        <ele>575.197341</ele>
        <time>2021-10-03T09:05:03.000Z</time>
      </trkpt>
      <trkpt lat="43.66642" lon="2.36865">
        <ele>575.418191</ele>
        <time>2021-10-03T09:05:04.000Z</time>
      </trkpt>
      <trkpt lat="43.66638" lon="2.36866">
        <ele>575.716877</ele>
        <time>2021-10-03T09:05:05.000Z</time>
      </trkpt>
      <trkpt lat="43.66635" lon="2.36867">
        <ele>575.958649</ele>
        <time>2021-10-03T09:05:06.000Z</time>
      </trkpt>
      <trkpt lat="43.66632" lon="2.36868">
        <ele>576.221573</ele>
        <time>2021-10-03T09:05:07.000Z</time>
      </trkpt>
      <trkpt lat="43.66629" lon="2.36868">
        <ele>576.45002</ele>
        <time>2021-10-03T09:05:08.000Z</time>
      </trkpt>
      <trkpt lat="43.66625" lon="2.36869">
        <ele>576.75233</ele>
        <time>2021-10-03T09:05:09.000Z</time>
      </trkpt>
      <trkpt lat="43.66621" lon="2.3687">
        <ele>577.042819</ele>
        <time>2021-10-03T09:05:10.000Z</time>
      </trkpt>
      <trkpt lat="43.66618" lon="2.3687">
        <ele>577.301285</ele>
        <time>2021-10-03T09:05:11.000Z</time>
      </trkpt>
      <trkpt lat="43.66614" lon="2.3687">
        <ele>577.590368</ele>
        <time>2021-10-03T09:05:12.000Z</time>
      </trkpt>
      <trkpt lat="43.6661" lon="2.3687">
        <ele>577.879816</ele>
        <time>2021-10-03T09:05:13.000Z</time>
      </trkpt>
      <trkpt lat="43.66606" lon="2.36869">
        <ele>578.176482</ele>
        <time>2021-10-03T09:05:14.000Z</time>
      </trkpt>
      <trkpt lat="43.66603" lon="2.36868">
        <ele>578.440494</ele>
        <time>2021-10-03T09:05:15.000Z</time>
      </trkpt>
      <trkpt lat="43.666" lon="2.36867">
        <ele>578.680008</ele>
        <time>2021-10-03T09:05:16.000Z</time>
      </trkpt>
      <trkpt lat="43.66596" lon="2.36867">
        <ele>578.938299</ele>
        <time>2021-10-03T09:05:17.000Z</time>
      </trkpt>
      <trkpt lat="43.66593" lon="2.36869">
        <ele>579.189621</ele>
        <time>2021-10-03T09:05:18.000Z</time>
      </trkpt>
      <trkpt lat="43.6659" lon="2.3687">
        <ele>579.431918</ele>
        <time>2021-10-03T09:05:19.000Z</time>
      </trkpt>
      <trkpt lat="43.66587" lon="2.36872">
        <ele>579.691082</ele>
        <time>2021-10-03T09:05:20.000Z</time>
      </trkpt>
      <trkpt lat="43.66584" lon="2.36873">
        <ele>579.949533</ele>
        <time>2021-10-03T09:05:21.000Z</time>
      </trkpt>
      <trkpt lat="43.6658" lon="2.36875">
        <ele>580.251269</ele>
        <time>2021-10-03T09:05:22.000Z</time>
      </trkpt>
      <trkpt lat="43.66577" lon="2.36877">
        <ele>580.533028</ele>
        <time>2021-10-03T09:05:23.000Z</time>
      </trkpt>
      <trkpt lat="43.66574" lon="2.36878">
        <ele>580.532664</ele>
        <time>2021-10-03T09:05:24.000Z</time>
      </trkpt>
      <trkpt lat="43.6657" lon="2.36879">
        <ele>580.456476</ele>
        <time>2021-10-03T09:05:25.000Z</time>
      </trkpt>
      <trkpt lat="43.66567" lon="2.36881">
        <ele>580.382565</ele>
        <time>2021-10-03T09:05:26.000Z</time>
      </trkpt>
      <trkpt lat="43.66564" lon="2.36882">
        <ele>580.296401</ele>
        <time>2021-10-03T09:05:27.000Z</time>
      </trkpt>
      <trkpt lat="43.6656" lon="2.36884">
        <ele>580.194594</ele>
        <time>2021-10-03T09:05:28.000Z</time>
      </trkpt>
      <trkpt lat="43.66555" lon="2.36885">
        <ele>580.085245</ele>
        <time>2021-10-03T09:05:29.000Z</time>
      </trkpt>
      <trkpt lat="43.6655" lon="2.36886">
        <ele>579.949817</ele>
        <time>2021-10-03T09:05:30.000Z</time>
      </trkpt>
      <trkpt lat="43.66545" lon="2.36886">
        <ele>579.835178</ele>
        <time>2021-10-03T09:05:31.000Z</time>
      </trkpt>
      <trkpt lat="43.66539" lon="2.36887">
        <ele>579.697392</ele>
        <time>2021-10-03T09:05:32.000Z</time>
      </trkpt>
      <trkpt lat="43.66534" lon="2.36888">
        <ele>579.575486</ele>
        <time>2021-10-03T09:05:33.000Z</time>
      </trkpt>
      <trkpt lat="43.66528" lon="2.36889">
        <ele>579.440057</ele>
        <time>2021-10-03T09:05:34.000Z</time>
      </trkpt>
      <trkpt lat="43.66522" lon="2.3689">
        <ele>579.297401</ele>
        <time>2021-10-03T09:05:35.000Z</time>
      </trkpt>
      <trkpt lat="43.66517" lon="2.36891">
        <ele>579.170011</ele>
        <time>2021-10-03T09:05:36.000Z</time>
      </trkpt>
      <trkpt lat="43.6651" lon="2.36894">
        <ele>578.989774</ele>
        <time>2021-10-03T09:05:37.000Z</time>
      </trkpt>
      <trkpt lat="43.66504" lon="2.36896">
        <ele>578.849459</ele>
        <time>2021-10-03T09:05:38.000Z</time>
      </trkpt>
      <trkpt lat="43.66497" lon="2.36897">
        <ele>578.694678</ele>
        <time>2021-10-03T09:05:39.000Z</time>
      </trkpt>
      <trkpt lat="43.66492" lon="2.36898">
        <ele>578.558904</ele>
        <time>2021-10-03T09:05:40.000Z</time>
      </trkpt>
      <trkpt lat="43.66486" lon="2.36899">
        <ele>578.431203</ele>
        <time>2021-10-03T09:05:41.000Z</time>
      </trkpt>
      <trkpt lat="43.6648" lon="2.36899">
        <ele>578.279585</ele>
        <time>2021-10-03T09:05:42.000Z</time>
      </trkpt>
      <trkpt lat="43.66474" lon="2.369">
        <ele>578.141639</ele>
        <time>2021-10-03T09:05:43.000Z</time>
      </trkpt>
      <trkpt lat="43.66468" lon="2.36902">
        <ele>577.995008</ele>
        <time>2021-10-03T09:05:44.000Z</time>
      </trkpt>
      <trkpt lat="43.66462" lon="2.36903">
        <ele>577.856681</ele>
        <time>2021-10-03T09:05:45.000Z</time>
      </trkpt>
      <trkpt lat="43.66457" lon="2.36903">
        <ele>577.721252</ele>
        <time>2021-10-03T09:05:46.000Z</time>
      </trkpt>
      <trkpt lat="43.66451" lon="2.36903">
        <ele>577.583604</ele>
        <time>2021-10-03T09:05:47.000Z</time>
      </trkpt>
      <trkpt lat="43.66443" lon="2.36906">
        <ele>577.390047</ele>
        <time>2021-10-03T09:05:48.000Z</time>
      </trkpt>
      <trkpt lat="43.66437" lon="2.36907">
        <ele>577.258974</ele>
        <time>2021-10-03T09:05:49.000Z</time>
      </trkpt>
      <trkpt lat="43.66433" lon="2.36907">
        <ele>577.142896</ele>
        <time>2021-10-03T09:05:50.000Z</time>
      </trkpt>
      <trkpt lat="43.66427" lon="2.36907">
        <ele>577.014995</ele>
        <time>2021-10-03T09:05:51.000Z</time>
      </trkpt>
      <trkpt lat="43.66423" lon="2.36907">
        <ele>576.922554</ele>
        <time>2021-10-03T09:05:52.000Z</time>
      </trkpt>
      <trkpt lat="43.6642" lon="2.36908">
        <ele>576.849109</ele>
        <time>2021-10-03T09:05:53.000Z</time>
      </trkpt>
      <trkpt lat="43.66418" lon="2.36908">
        <ele>576.786071</ele>
        <time>2021-10-03T09:05:54.000Z</time>
      </trkpt>
      <trkpt lat="43.66416" lon="2.36909">
        <ele>576.74759</ele>
        <time>2021-10-03T09:05:55.000Z</time>
      </trkpt>
      <trkpt lat="43.66414" lon="2.3691">
        <ele>576.696635</ele>
        <time>2021-10-03T09:05:56.000Z</time>
      </trkpt>
      <trkpt lat="43.66411" lon="2.3691">
        <ele>576.634723</ele>
        <time>2021-10-03T09:05:57.000Z</time>
      </trkpt>
      <trkpt lat="43.66408" lon="2.36911">
        <ele>576.559223</ele>
        <time>2021-10-03T09:05:58.000Z</time>
      </trkpt>
      <trkpt lat="43.66406" lon="2.36913">
        <ele>576.506168</ele>
        <time>2021-10-03T09:05:59.000Z</time>
      </trkpt>
      <trkpt lat="43.66403" lon="2.36914">
        <ele>576.429501</ele>
        <time>2021-10-03T09:06:00.000Z</time>
      </trkpt>
      <trkpt lat="43.664" lon="2.36915">
        <ele>576.354566</ele>
        <time>2021-10-03T09:06:01.000Z</time>
      </trkpt>
      <trkpt lat="43.66397" lon="2.36915">
        <ele>576.283539</ele>
        <time>2021-10-03T09:06:02.000Z</time>
      </trkpt>
      <trkpt lat="43.66394" lon="2.36915">
        <ele>576.222036</ele>
        <time>2021-10-03T09:06:03.000Z</time>
      </trkpt>
      <trkpt lat="43.66389" lon="2.36917">
        <ele>576.129497</ele>
        <time>2021-10-03T09:06:04.000Z</time>
      </trkpt>
      <trkpt lat="43.66387" lon="2.3692">
        <ele>576.057349</ele>
        <time>2021-10-03T09:06:05.000Z</time>
      </trkpt>
      <trkpt lat="43.66385" lon="2.36924">
        <ele>575.991346</ele>
        <time>2021-10-03T09:06:06.000Z</time>
      </trkpt>
      <trkpt lat="43.66382" lon="2.36928">
        <ele>575.913432</ele>
        <time>2021-10-03T09:06:07.000Z</time>
      </trkpt>
      <trkpt lat="43.66379" lon="2.36933">
        <ele>575.829887</ele>
        <time>2021-10-03T09:06:08.000Z</time>
      </trkpt>
      <trkpt lat="43.66377" lon="2.36938">
        <ele>575.744006</ele>
        <time>2021-10-03T09:06:09.000Z</time>
      </trkpt>
      <trkpt lat="43.66374" lon="2.36945">
        <ele>575.618734</ele>
        <time>2021-10-03T09:06:10.000Z</time>
      </trkpt>
      <trkpt lat="43.66371" lon="2.36951">
        <ele>575.5217</ele>
        <time>2021-10-03T09:06:11.000Z</time>
      </trkpt>
      <trkpt lat="43.66369" lon="2.36956">
        <ele>575.446005</ele>
        <time>2021-10-03T09:06:12.000Z</time>
      </trkpt>
      <trkpt lat="43.66367" lon="2.36962">
        <ele>575.345067</ele>
        <time>2021-10-03T09:06:13.000Z</time>
      </trkpt>
      <trkpt lat="43.66366" lon="2.3697">
        <ele>575.234203</ele>
        <time>2021-10-03T09:06:14.000Z</time>
      </trkpt>
      <trkpt lat="43.66363" lon="2.36976">
        <ele>575.138078</ele>
        <time>2021-10-03T09:06:15.000Z</time>
      </trkpt>
      <trkpt lat="43.66361" lon="2.36984">
        <ele>575.010632</ele>
        <time>2021-10-03T09:06:16.000Z</time>
      </trkpt>
      <trkpt lat="43.66358" lon="2.36993">
        <ele>574.867725</ele>
        <time>2021-10-03T09:06:17.000Z</time>
      </trkpt>
      <trkpt lat="43.66356" lon="2.37001">
        <ele>574.74677</ele>
        <time>2021-10-03T09:06:18.000Z</time>
      </trkpt>
      <trkpt lat="43.66354" lon="2.37009">
        <ele>574.627288</ele>
        <time>2021-10-03T09:06:19.000Z</time>
      </trkpt>
      <trkpt lat="43.66353" lon="2.37015">
        <ele>574.530525</ele>
        <time>2021-10-03T09:06:20.000Z</time>
      </trkpt>
      <trkpt lat="43.66351" lon="2.3702">
        <ele>574.450526</ele>
        <time>2021-10-03T09:06:21.000Z</time>
      </trkpt>
      <trkpt lat="43.6635" lon="2.37027">
        <ele>574.353487</ele>
        <time>2021-10-03T09:06:22.000Z</time>
      </trkpt>
      <trkpt lat="43.6635" lon="2.37033">
        <ele>574.270229</ele>
        <time>2021-10-03T09:06:23.000Z</time>
      </trkpt>
      <trkpt lat="43.66349" lon="2.37039">
        <ele>574.180558</ele>
        <time>2021-10-03T09:06:24.000Z</time>
      </trkpt>
      <trkpt lat="43.66348" lon="2.37044">
        <ele>574.103138</ele>
        <time>2021-10-03T09:06:25.000Z</time>
      </trkpt>
      <trkpt lat="43.66346" lon="2.3705">
        <ele>574.008232</ele>
        <time>2021-10-03T09:06:26.000Z</time>
      </trkpt>
      <trkpt lat="43.66345" lon="2.37058">
        <ele>573.898412</ele>
        <time>2021-10-03T09:06:27.000Z</time>
      </trkpt>
      <trkpt lat="43.66342" lon="2.37063">
        <ele>573.814942</ele>
        <time>2021-10-03T09:06:28.000Z</time>
      </trkpt>
      <trkpt lat="43.66341" lon="2.37069">
        <ele>573.718178</ele>
        <time>2021-10-03T09:06:29.000Z</time>
      </trkpt>
      <trkpt lat="43.6634" lon="2.37076">
        <ele>573.621441</ele>
        <time>2021-10-03T09:06:30.000Z</time>
      </trkpt>
      <trkpt lat="43.66339" lon="2.37083">
        <ele>573.51864</ele>
        <time>2021-10-03T09:06:31.000Z</time>
      </trkpt>
      <trkpt lat="43.66337" lon="2.3709">
        <ele>573.407075</ele>
        <time>2021-10-03T09:06:32.000Z</time>
      </trkpt>
      <trkpt lat="43.66335" lon="2.37095">
        <ele>573.324176</ele>
        <time>2021-10-03T09:06:33.000Z</time>
      </trkpt>
      <trkpt lat="43.66333" lon="2.37101">
        <ele>573.240926</ele>
        <time>2021-10-03T09:06:34.000Z</time>
      </trkpt>
      <trkpt lat="43.66332" lon="2.37106">
        <ele>573.160759</ele>
        <time>2021-10-03T09:06:35.000Z</time>
      </trkpt>
      <trkpt lat="43.6633" lon="2.37112">
        <ele>573.062076</ele>
        <time>2021-10-03T09:06:36.000Z</time>
      </trkpt>
      <trkpt lat="43.66329" lon="2.37117">
        <ele>572.982103</ele>
        <time>2021-10-03T09:06:37.000Z</time>
      </trkpt>
      <trkpt lat="43.66327" lon="2.37123">
        <ele>572.902742</ele>
        <time>2021-10-03T09:06:38.000Z</time>
      </trkpt>
      <trkpt lat="43.66326" lon="2.3713">
        <ele>572.799784</ele>
        <time>2021-10-03T09:06:39.000Z</time>
      </trkpt>
      <trkpt lat="43.66324" lon="2.37137">
        <ele>572.89779</ele>
        <time>2021-10-03T09:06:40.000Z</time>
      </trkpt>
      <trkpt lat="43.66323" lon="2.37144">
        <ele>573.012015</ele>
        <time>2021-10-03T09:06:41.000Z</time>
      </trkpt>
      <trkpt lat="43.66321" lon="2.3715">
        <ele>573.123975</ele>
        <time>2021-10-03T09:06:42.000Z</time>
      </trkpt>
      <trkpt lat="43.6632" lon="2.37159">
        <ele>573.270272</ele>
        <time>2021-10-03T09:06:43.000Z</time>
      </trkpt>
      <trkpt lat="43.66319" lon="2.37165">
        <ele>573.371259</ele>
        <time>2021-10-03T09:06:44.000Z</time>
      </trkpt>
      <trkpt lat="43.66318" lon="2.37171">
        <ele>573.481352</ele>
        <time>2021-10-03T09:06:45.000Z</time>
      </trkpt>
      <trkpt lat="43.66318" lon="2.37178">
        <ele>573.59105</ele>
        <time>2021-10-03T09:06:46.000Z</time>
      </trkpt>
      <trkpt lat="43.66317" lon="2.37184">
        <ele>573.692533</ele>
        <time>2021-10-03T09:06:47.000Z</time>
      </trkpt>
      <trkpt lat="43.66317" lon="2.37189">
        <ele>573.785369</ele>
        <time>2021-10-03T09:06:48.000Z</time>
      </trkpt>
      <trkpt lat="43.66316" lon="2.37193">
        <ele>573.852743</ele>
        <time>2021-10-03T09:06:49.000Z</time>
      </trkpt>
      <trkpt lat="43.66314" lon="2.37196">
        <ele>573.919816</ele>
        <time>2021-10-03T09:06:50.000Z</time>
      </trkpt>
      <trkpt lat="43.66313" lon="2.37198">
        <ele>573.973234</ele>
        <time>2021-10-03T09:06:51.000Z</time>
      </trkpt>
      <trkpt lat="43.66311" lon="2.37201">
        <ele>574.039131</ele>
        <time>2021-10-03T09:06:52.000Z</time>
      </trkpt>
      <trkpt lat="43.66309" lon="2.37205">
        <ele>574.107648</ele>
        <time>2021-10-03T09:06:53.000Z</time>
      </trkpt>
      <trkpt lat="43.66308" lon="2.37207">
        <ele>574.163867</ele>
        <time>2021-10-03T09:06:54.000Z</time>
      </trkpt>
      <trkpt lat="43.66305" lon="2.3721">
        <ele>574.235815</ele>
        <time>2021-10-03T09:06:55.000Z</time>
      </trkpt>
      <trkpt lat="43.66303" lon="2.37215">
        <ele>574.32869</ele>
        <time>2021-10-03T09:06:56.000Z</time>
      </trkpt>
      <trkpt lat="43.66301" lon="2.37219">
        <ele>574.418835</ele>
        <time>2021-10-03T09:06:57.000Z</time>
      </trkpt>
      <trkpt lat="43.66299" lon="2.37223">
        <ele>574.495256</ele>
        <time>2021-10-03T09:06:58.000Z</time>
      </trkpt>
      <trkpt lat="43.66297" lon="2.37228">
        <ele>574.585802</ele>
        <time>2021-10-03T09:06:59.000Z</time>
      </trkpt>
      <trkpt lat="43.66296" lon="2.37231">
        <ele>574.651443</ele>
        <time>2021-10-03T09:07:00.000Z</time>
      </trkpt>
      <trkpt lat="43.66294" lon="2.37234">
        <ele>574.712864</ele>
        <time>2021-10-03T09:07:01.000Z</time>
      </trkpt>
      <trkpt lat="43.66293" lon="2.37236">
        <ele>574.752869</ele>
        <time>2021-10-03T09:07:02.000Z</time>
      </trkpt>
      <trkpt lat="43.6629" lon="2.37239">
        <ele>574.84032</ele>
        <time>2021-10-03T09:07:03.000Z</time>
      </trkpt>
      <trkpt lat="43.66287" lon="2.3724">
        <ele>574.907458</ele>
        <time>2021-10-03T09:07:04.000Z</time>
      </trkpt>
      <trkpt lat="43.66283" lon="2.37244">
        <ele>575.025648</ele>
        <time>2021-10-03T09:07:05.000Z</time>
      </trkpt>
      <trkpt lat="43.66279" lon="2.37249">
        <ele>575.148971</ele>
        <time>2021-10-03T09:07:06.000Z</time>
      </trkpt>
      <trkpt lat="43.66277" lon="2.37254">
        <ele>575.247349</ele>
        <time>2021-10-03T09:07:07.000Z</time>
      </trkpt>
      <trkpt lat="43.66274" lon="2.37256">
        <ele>575.311524</ele>
        <time>2021-10-03T09:07:08.000Z</time>
      </trkpt>
      <trkpt lat="43.66273" lon="2.37257">
        <ele>575.364218</ele>
        <time>2021-10-03T09:07:09.000Z</time>
      </trkpt>
      <trkpt lat="43.6627" lon="2.37259">
        <ele>575.440359</ele>
        <time>2021-10-03T09:07:10.000Z</time>
      </trkpt>
      <trkpt lat="43.66268" lon="2.37261">
        <ele>575.495022</ele>
        <time>2021-10-03T09:07:11.000Z</time>
      </trkpt>
      <trkpt lat="43.66266" lon="2.37262">
        <ele>575.545963</ele>
        <time>2021-10-03T09:07:12.000Z</time>
      </trkpt>
      <trkpt lat="43.66264" lon="2.37264">
        <ele>575.601564</ele>
        <time>2021-10-03T09:07:13.000Z</time>
      </trkpt>
      <trkpt lat="43.66262" lon="2.37266">
        <ele>575.646078</ele>
        <time>2021-10-03T09:07:14.000Z</time>
      </trkpt>
      <trkpt lat="43.66261" lon="2.37268">
        <ele>575.690125</ele>
        <time>2021-10-03T09:07:15.000Z</time>
      </trkpt>
      <trkpt lat="43.66258" lon="2.37269">
        <ele>575.753943</ele>
        <time>2021-10-03T09:07:16.000Z</time>
      </trkpt>
      <trkpt lat="43.66256" lon="2.37271">
        <ele>575.806136</ele>
        <time>2021-10-03T09:07:17.000Z</time>
      </trkpt>
      <trkpt lat="43.66256" lon="2.37273">
        <ele>575.844628</ele>
        <time>2021-10-03T09:07:18.000Z</time>
      </trkpt>
      <trkpt lat="43.66253" lon="2.37275">
        <ele>575.910934</ele>
        <time>2021-10-03T09:07:19.000Z</time>
      </trkpt>
      <trkpt lat="43.66253" lon="2.37277">
        <ele>575.949425</ele>
        <time>2021-10-03T09:07:20.000Z</time>
      </trkpt>
      <trkpt lat="43.66251" lon="2.37279">
        <ele>575.993536</ele>
        <time>2021-10-03T09:07:21.000Z</time>
      </trkpt>
      <trkpt lat="43.66251" lon="2.3728">
        <ele>576.018334</ele>
        <time>2021-10-03T09:07:22.000Z</time>
      </trkpt>
      <trkpt lat="43.6625" lon="2.37282">
        <ele>576.051088</ele>
        <time>2021-10-03T09:07:23.000Z</time>
      </trkpt>
      <trkpt lat="43.6625" lon="2.37284">
        <ele>576.089896</ele>
        <time>2021-10-03T09:07:24.000Z</time>
      </trkpt>
      <trkpt lat="43.6625" lon="2.37287">
        <ele>576.12695</ele>
        <time>2021-10-03T09:07:25.000Z</time>
      </trkpt>
      <trkpt lat="43.6625" lon="2.37289">
        <ele>576.164656</ele>
        <time>2021-10-03T09:07:26.000Z</time>
      </trkpt>
      <trkpt lat="43.6625" lon="2.37292">
        <ele>576.212726</ele>
        <time>2021-10-03T09:07:27.000Z</time>
      </trkpt>
      <trkpt lat="43.66248" lon="2.37294">
        <ele>576.262009</ele>
        <time>2021-10-03T09:07:28.000Z</time>
      </trkpt>
      <trkpt lat="43.66247" lon="2.37297">
        <ele>576.322053</ele>
        <time>2021-10-03T09:07:29.000Z</time>
      </trkpt>
      <trkpt lat="43.66246" lon="2.373">
        <ele>576.387287</ele>
        <time>2021-10-03T09:07:30.000Z</time>
      </trkpt>
      <trkpt lat="43.66245" lon="2.37304">
        <ele>576.453107</ele>
        <time>2021-10-03T09:07:31.000Z</time>
      </trkpt>
      <trkpt lat="43.66243" lon="2.37309">
        <ele>576.535467</ele>
        <time>2021-10-03T09:07:32.000Z</time>
      </trkpt>
      <trkpt lat="43.66243" lon="2.37313">
        <ele>576.616788</ele>
        <time>2021-10-03T09:07:33.000Z</time>
      </trkpt>
      <trkpt lat="43.66241" lon="2.37318">
        <ele>576.700841</ele>
        <time>2021-10-03T09:07:34.000Z</time>
      </trkpt>
      <trkpt lat="43.66239" lon="2.37323">
        <ele>576.791523</ele>
        <time>2021-10-03T09:07:35.000Z</time>
      </trkpt>
      <trkpt lat="43.66238" lon="2.37327">
        <ele>576.862904</ele>
        <time>2021-10-03T09:07:36.000Z</time>
      </trkpt>
      <trkpt lat="43.66237" lon="2.3733">
        <ele>576.923611</ele>
        <time>2021-10-03T09:07:37.000Z</time>
      </trkpt>
      <trkpt lat="43.66235" lon="2.37335">
        <ele>576.965273</ele>
        <time>2021-10-03T09:07:38.000Z</time>
      </trkpt>
      <trkpt lat="43.66235" lon="2.3734">
        <ele>576.959643</ele>
        <time>2021-10-03T09:07:39.000Z</time>
      </trkpt>
      <trkpt lat="43.66234" lon="2.37345">
        <ele>576.952967</ele>
        <time>2021-10-03T09:07:40.000Z</time>
      </trkpt>
      <trkpt lat="43.66233" lon="2.37349">
        <ele>576.948044</ele>
        <time>2021-10-03T09:07:41.000Z</time>
      </trkpt>
      <trkpt lat="43.66232" lon="2.37354">
        <ele>576.941931</ele>
        <time>2021-10-03T09:07:42.000Z</time>
      </trkpt>
      <trkpt lat="43.6623" lon="2.37359">
        <ele>576.934999</ele>
        <time>2021-10-03T09:07:43.000Z</time>
      </trkpt>
      <trkpt lat="43.66228" lon="2.37364">
        <ele>576.928237</ele>
        <time>2021-10-03T09:07:44.000Z</time>
      </trkpt>
      <trkpt lat="43.66226" lon="2.37369">
        <ele>576.921018</ele>
        <time>2021-10-03T09:07:45.000Z</time>
      </trkpt>
      <trkpt lat="43.66223" lon="2.37376">
        <ele>576.912371</ele>
        <time>2021-10-03T09:07:46.000Z</time>
      </trkpt>
      <trkpt lat="43.66222" lon="2.37381">
        <ele>576.906664</ele>
        <time>2021-10-03T09:07:47.000Z</time>
      </trkpt>
      <trkpt lat="43.66221" lon="2.37385">
        <ele>576.90062</ele>
        <time>2021-10-03T09:07:48.000Z</time>
      </trkpt>
      <trkpt lat="43.6622" lon="2.37389">
        <ele>576.89575</ele>
        <time>2021-10-03T09:07:49.000Z</time>
      </trkpt>
      <trkpt lat="43.66218" lon="2.37393">
        <ele>576.890599</ele>
        <time>2021-10-03T09:07:50.000Z</time>
      </trkpt>
      <trkpt lat="43.66217" lon="2.37396">
        <ele>576.885758</ele>
        <time>2021-10-03T09:07:51.000Z</time>
      </trkpt>
      <trkpt lat="43.66215" lon="2.374">
        <ele>576.880931</ele>
        <time>2021-10-03T09:07:52.000Z</time>
      </trkpt>
      <trkpt lat="43.66214" lon="2.37404">
        <ele>576.875728</ele>
        <time>2021-10-03T09:07:53.000Z</time>
      </trkpt>
      <trkpt lat="43.66212" lon="2.3741">
        <ele>576.867857</ele>
        <time>2021-10-03T09:07:54.000Z</time>
      </trkpt>
      <trkpt lat="43.6621" lon="2.37416">
        <ele>576.859954</ele>
        <time>2021-10-03T09:07:55.000Z</time>
      </trkpt>
      <trkpt lat="43.66208" lon="2.37422">
        <ele>576.852187</ele>
        <time>2021-10-03T09:07:56.000Z</time>
      </trkpt>
      <trkpt lat="43.66206" lon="2.37425">
        <ele>576.847036</ele>
        <time>2021-10-03T09:07:57.000Z</time>
      </trkpt>
      <trkpt lat="43.66204" lon="2.37429">
        <ele>576.841441</ele>
        <time>2021-10-03T09:07:58.000Z</time>
      </trkpt>
      <trkpt lat="43.66203" lon="2.37434">
        <ele>576.835845</ele>
        <time>2021-10-03T09:07:59.000Z</time>
      </trkpt>
      <trkpt lat="43.66202" lon="2.37438">
        <ele>576.829623</ele>
        <time>2021-10-03T09:08:00.000Z</time>
      </trkpt>
      <trkpt lat="43.662" lon="2.37442">
        <ele>576.824884</ele>
        <time>2021-10-03T09:08:01.000Z</time>
      </trkpt>
      <trkpt lat="43.66198" lon="2.37445">
        <ele>576.820157</ele>
        <time>2021-10-03T09:08:02.000Z</time>
      </trkpt>
      <trkpt lat="43.66196" lon="2.37448">
        <ele>576.815318</ele>
        <time>2021-10-03T09:08:03.000Z</time>
      </trkpt>
      <trkpt lat="43.66195" lon="2.37451">
        <ele>576.811172</ele>
        <time>2021-10-03T09:08:04.000Z</time>
      </trkpt>
      <trkpt lat="43.66193" lon="2.37453">
        <ele>576.807018</ele>
        <time>2021-10-03T09:08:05.000Z</time>
      </trkpt>
      <trkpt lat="43.66191" lon="2.37456">
        <ele>576.802274</ele>
        <time>2021-10-03T09:08:06.000Z</time>
      </trkpt>
      <trkpt lat="43.6619" lon="2.3746">
        <ele>576.797122</ele>
        <time>2021-10-03T09:08:07.000Z</time>
      </trkpt>
      <trkpt lat="43.66188" lon="2.37462">
        <ele>576.792968</ele>
        <time>2021-10-03T09:08:08.000Z</time>
      </trkpt>
      <trkpt lat="43.66186" lon="2.37465">
        <ele>576.788081</ele>
        <time>2021-10-03T09:08:09.000Z</time>
      </trkpt>
      <trkpt lat="43.66184" lon="2.37468">
        <ele>576.78431</ele>
        <time>2021-10-03T09:08:10.000Z</time>
      </trkpt>
      <trkpt lat="43.66182" lon="2.37471">
        <ele>576.779103</ele>
        <time>2021-10-03T09:08:11.000Z</time>
      </trkpt>
      <trkpt lat="43.66181" lon="2.37474">
        <ele>576.775329</ele>
        <time>2021-10-03T09:08:12.000Z</time>
      </trkpt>
      <trkpt lat="43.66179" lon="2.37478">
        <ele>576.769341</ele>
        <time>2021-10-03T09:08:13.000Z</time>
      </trkpt>
      <trkpt lat="43.66177" lon="2.37482">
        <ele>576.763547</ele>
        <time>2021-10-03T09:08:14.000Z</time>
      </trkpt>
      <trkpt lat="43.66174" lon="2.37487">
        <ele>576.756395</ele>
        <time>2021-10-03T09:08:15.000Z</time>
      </trkpt>
      <trkpt lat="43.66173" lon="2.37492">
        <ele>576.749512</ele>
        <time>2021-10-03T09:08:16.000Z</time>
      </trkpt>
      <trkpt lat="43.66172" lon="2.37497">
        <ele>576.743805</ele>
        <time>2021-10-03T09:08:17.000Z</time>
      </trkpt>
      <trkpt lat="43.6617" lon="2.37501">
        <ele>576.737801</ele>
        <time>2021-10-03T09:08:18.000Z</time>
      </trkpt>
      <trkpt lat="43.66168" lon="2.37504">
        <ele>576.732451</ele>
        <time>2021-10-03T09:08:19.000Z</time>
      </trkpt>
      <trkpt lat="43.66163" lon="2.37506">
        <ele>576.725061</ele>
        <time>2021-10-03T09:08:20.000Z</time>
      </trkpt>
      <trkpt lat="43.6616" lon="2.37509">
        <ele>576.718005</ele>
        <time>2021-10-03T09:08:21.000Z</time>
      </trkpt>
      <trkpt lat="43.66156" lon="2.3751">
        <ele>576.711505</ele>
        <time>2021-10-03T09:08:22.000Z</time>
      </trkpt>
      <trkpt lat="43.66153" lon="2.37514">
        <ele>576.705081</ele>
        <time>2021-10-03T09:08:23.000Z</time>
      </trkpt>
      <trkpt lat="43.66151" lon="2.37518">
        <ele>576.699584</ele>
        <time>2021-10-03T09:08:24.000Z</time>
      </trkpt>
      <trkpt lat="43.66149" lon="2.37518">
        <ele>576.696275</ele>
        <time>2021-10-03T09:08:25.000Z</time>
      </trkpt>
      <trkpt lat="43.66148" lon="2.37521">
        <ele>576.692273</ele>
        <time>2021-10-03T09:08:26.000Z</time>
      </trkpt>
      <trkpt lat="43.66147" lon="2.37523">
        <ele>576.689181</ele>
        <time>2021-10-03T09:08:27.000Z</time>
      </trkpt>
      <trkpt lat="43.66147" lon="2.37523">
        <ele>576.688978</ele>
        <time>2021-10-03T09:08:28.000Z</time>
      </trkpt>
      <trkpt lat="43.66147" lon="2.37523">
        <ele>576.688978</ele>
        <time>2021-10-03T09:08:31.000Z</time>
      </trkpt>
      <trkpt lat="43.66143" lon="2.37529">
        <ele>576.680526</ele>
        <time>2021-10-03T09:08:47.000Z</time>
      </trkpt>
      <trkpt lat="43.66142" lon="2.37531">
        <ele>576.676703</ele>
        <time>2021-10-03T09:08:48.000Z</time>
      </trkpt>
      <trkpt lat="43.66141" lon="2.37534">
        <ele>576.684751</ele>
        <time>2021-10-03T09:08:49.000Z</time>
      </trkpt>
      <trkpt lat="43.6614" lon="2.37539">
        <ele>576.808998</ele>
        <time>2021-10-03T09:08:50.000Z</time>
      </trkpt>
      <trkpt lat="43.66139" lon="2.37543">
        <ele>576.929806</ele>
        <time>2021-10-03T09:08:51.000Z</time>
      </trkpt>
      <trkpt lat="43.66139" lon="2.37547">
        <ele>577.036619</ele>
        <time>2021-10-03T09:08:52.000Z</time>
      </trkpt>
      <trkpt lat="43.66138" lon="2.3755">
        <ele>577.144037</ele>
        <time>2021-10-03T09:08:53.000Z</time>
      </trkpt>
      <trkpt lat="43.66138" lon="2.37554">
        <ele>577.236551</ele>
        <time>2021-10-03T09:08:54.000Z</time>
      </trkpt>
      <trkpt lat="43.66138" lon="2.37558">
        <ele>577.348411</ele>
        <time>2021-10-03T09:08:55.000Z</time>
      </trkpt>
      <trkpt lat="43.66137" lon="2.37563">
        <ele>577.498271</ele>
        <time>2021-10-03T09:08:56.000Z</time>
      </trkpt>
      <trkpt lat="43.66137" lon="2.37567">
        <ele>577.627167</ele>
        <time>2021-10-03T09:08:57.000Z</time>
      </trkpt>
      <trkpt lat="43.66136" lon="2.3757">
        <ele>577.716103</ele>
        <time>2021-10-03T09:08:58.000Z</time>
      </trkpt>
      <trkpt lat="43.66135" lon="2.37572">
        <ele>577.779545</ele>
        <time>2021-10-03T09:08:59.000Z</time>
      </trkpt>
      <trkpt lat="43.66133" lon="2.37575">
        <ele>577.902339</ele>
        <time>2021-10-03T09:09:00.000Z</time>
      </trkpt>
      <trkpt lat="43.66131" lon="2.37578">
        <ele>577.995269</ele>
        <time>2021-10-03T09:09:01.000Z</time>
      </trkpt>
      <trkpt lat="43.66129" lon="2.37583">
        <ele>578.150809</ele>
        <time>2021-10-03T09:09:02.000Z</time>
      </trkpt>
      <trkpt lat="43.66127" lon="2.37586">
        <ele>578.265961</ele>
        <time>2021-10-03T09:09:03.000Z</time>
      </trkpt>
      <trkpt lat="43.66125" lon="2.37589">
        <ele>578.366821</ele>
        <time>2021-10-03T09:09:04.000Z</time>
      </trkpt>
      <trkpt lat="43.66122" lon="2.37593">
        <ele>578.535002</ele>
        <time>2021-10-03T09:09:05.000Z</time>
      </trkpt>
      <trkpt lat="43.66119" lon="2.37596">
        <ele>578.679019</ele>
        <time>2021-10-03T09:09:06.000Z</time>
      </trkpt>
      <trkpt lat="43.66117" lon="2.37598">
        <ele>578.773932</ele>
        <time>2021-10-03T09:09:07.000Z</time>
      </trkpt>
      <trkpt lat="43.66115" lon="2.37598">
        <ele>578.874249</ele>
        <time>2021-10-03T09:09:08.000Z</time>
      </trkpt>
      <trkpt lat="43.66112" lon="2.37599">
        <ele>578.991726</ele>
        <time>2021-10-03T09:09:09.000Z</time>
      </trkpt>
      <trkpt lat="43.66108" lon="2.37599">
        <ele>579.126329</ele>
        <time>2021-10-03T09:09:10.000Z</time>
      </trkpt>
      <trkpt lat="43.66105" lon="2.37599">
        <ele>579.230292</ele>
        <time>2021-10-03T09:09:11.000Z</time>
      </trkpt>
      <trkpt lat="43.66102" lon="2.376">
        <ele>579.361494</ele>
        <time>2021-10-03T09:09:12.000Z</time>
      </trkpt>
      <trkpt lat="43.66099" lon="2.37601">
        <ele>579.473417</ele>
        <time>2021-10-03T09:09:13.000Z</time>
      </trkpt>
      <trkpt lat="43.66097" lon="2.37602">
        <ele>579.577964</ele>
        <time>2021-10-03T09:09:14.000Z</time>
      </trkpt>
      <trkpt lat="43.66094" lon="2.37603">
        <ele>579.683112</ele>
        <time>2021-10-03T09:09:15.000Z</time>
      </trkpt>
      <trkpt lat="43.66091" lon="2.37604">
        <ele>579.791342</ele>
        <time>2021-10-03T09:09:16.000Z</time>
      </trkpt>
      <trkpt lat="43.66089" lon="2.37606">
        <ele>579.904422</ele>
        <time>2021-10-03T09:09:17.000Z</time>
      </trkpt>
      <trkpt lat="43.66086" lon="2.37608">
        <ele>580.006873</ele>
        <time>2021-10-03T09:09:18.000Z</time>
      </trkpt>
      <trkpt lat="43.66085" lon="2.37608">
        <ele>580.065611</ele>
        <time>2021-10-03T09:09:19.000Z</time>
      </trkpt>
      <trkpt lat="43.66082" lon="2.37609">
        <ele>580.166964</ele>
        <time>2021-10-03T09:09:20.000Z</time>
      </trkpt>
      <trkpt lat="43.66079" lon="2.37611">
        <ele>580.317731</ele>
        <time>2021-10-03T09:09:21.000Z</time>
      </trkpt>
      <trkpt lat="43.66077" lon="2.37613">
        <ele>580.413274</ele>
        <time>2021-10-03T09:09:22.000Z</time>
      </trkpt>
      <trkpt lat="43.66074" lon="2.37615">
        <ele>580.5367</ele>
        <time>2021-10-03T09:09:23.000Z</time>
      </trkpt>
      <trkpt lat="43.6607" lon="2.37616">
        <ele>580.669805</ele>
        <time>2021-10-03T09:09:24.000Z</time>
      </trkpt>
      <trkpt lat="43.66067" lon="2.37616">
        <ele>580.804408</ele>
        <time>2021-10-03T09:09:25.000Z</time>
      </trkpt>
      <trkpt lat="43.66063" lon="2.37618">
        <ele>580.972527</ele>
        <time>2021-10-03T09:09:26.000Z</time>
      </trkpt>
      <trkpt lat="43.66059" lon="2.37621">
        <ele>581.150627</ele>
        <time>2021-10-03T09:09:27.000Z</time>
      </trkpt>
      <trkpt lat="43.66055" lon="2.37623">
        <ele>581.31711</ele>
        <time>2021-10-03T09:09:28.000Z</time>
      </trkpt>
      <trkpt lat="43.66051" lon="2.37624">
        <ele>581.450215</ele>
        <time>2021-10-03T09:09:29.000Z</time>
      </trkpt>
      <trkpt lat="43.66048" lon="2.37625">
        <ele>581.596985</ele>
        <time>2021-10-03T09:09:30.000Z</time>
      </trkpt>
      <trkpt lat="43.66045" lon="2.37626">
        <ele>581.705215</ele>
        <time>2021-10-03T09:09:31.000Z</time>
      </trkpt>
      <trkpt lat="43.66042" lon="2.37627">
        <ele>581.814264</ele>
        <time>2021-10-03T09:09:32.000Z</time>
      </trkpt>
      <trkpt lat="43.66039" lon="2.37628">
        <ele>581.932299</ele>
        <time>2021-10-03T09:09:33.000Z</time>
      </trkpt>
      <trkpt lat="43.66036" lon="2.37629">
        <ele>582.070308</ele>
        <time>2021-10-03T09:09:34.000Z</time>
      </trkpt>
      <trkpt lat="43.66033" lon="2.37629">
        <ele>582.185791</ele>
        <time>2021-10-03T09:09:35.000Z</time>
      </trkpt>
      <trkpt lat="43.6603" lon="2.3763">
        <ele>582.305794</ele>
        <time>2021-10-03T09:09:36.000Z</time>
      </trkpt>
      <trkpt lat="43.66028" lon="2.3763">
        <ele>582.367377</ele>
        <time>2021-10-03T09:09:37.000Z</time>
      </trkpt>
      <trkpt lat="43.66026" lon="2.37629">
        <ele>582.431409</ele>
        <time>2021-10-03T09:09:38.000Z</time>
      </trkpt>
      <trkpt lat="43.66025" lon="2.37629">
        <ele>582.489084</ele>
        <time>2021-10-03T09:09:39.000Z</time>
      </trkpt>
      <trkpt lat="43.66023" lon="2.3763">
        <ele>582.558675</ele>
        <time>2021-10-03T09:09:40.000Z</time>
      </trkpt>
      <trkpt lat="43.66022" lon="2.37632">
        <ele>582.647432</ele>
        <time>2021-10-03T09:09:41.000Z</time>
      </trkpt>
      <trkpt lat="43.6602" lon="2.37635">
        <ele>582.752207</ele>
        <time>2021-10-03T09:09:42.000Z</time>
      </trkpt>
      <trkpt lat="43.66019" lon="2.37639">
        <ele>582.858354</ele>
        <time>2021-10-03T09:09:43.000Z</time>
      </trkpt>
      <trkpt lat="43.66018" lon="2.37643">
        <ele>582.983964</ele>
        <time>2021-10-03T09:09:44.000Z</time>
      </trkpt>
      <trkpt lat="43.66016" lon="2.37647">
        <ele>583.12412</ele>
        <time>2021-10-03T09:09:45.000Z</time>
      </trkpt>
      <trkpt lat="43.66015" lon="2.37652">
        <ele>583.270656</ele>
        <time>2021-10-03T09:09:46.000Z</time>
      </trkpt>
      <trkpt lat="43.66013" lon="2.37656">
        <ele>583.397524</ele>
        <time>2021-10-03T09:09:47.000Z</time>
      </trkpt>
      <trkpt lat="43.66012" lon="2.3766">
        <ele>583.528313</ele>
        <time>2021-10-03T09:09:48.000Z</time>
      </trkpt>
      <trkpt lat="43.6601" lon="2.37664">
        <ele>583.686519</ele>
        <time>2021-10-03T09:09:49.000Z</time>
      </trkpt>
      <trkpt lat="43.66008" lon="2.37666">
        <ele>583.824597</ele>
        <time>2021-10-03T09:09:50.000Z</time>
      </trkpt>
      <trkpt lat="43.66007" lon="2.37668">
        <ele>583.958199</ele>
        <time>2021-10-03T09:09:51.000Z</time>
      </trkpt>
      <trkpt lat="43.66007" lon="2.37669">
        <ele>584.032682</ele>
        <time>2021-10-03T09:09:52.000Z</time>
      </trkpt>
      <trkpt lat="43.66004" lon="2.3767">
        <ele>584.188577</ele>
        <time>2021-10-03T09:09:53.000Z</time>
      </trkpt>
      <trkpt lat="43.66004" lon="2.3767">
        <ele>584.244718</ele>
        <time>2021-10-03T09:09:54.000Z</time>
      </trkpt>
      <trkpt lat="43.66002" lon="2.37671">
        <ele>584.336718</ele>
        <time>2021-10-03T09:09:55.000Z</time>
      </trkpt>
      <trkpt lat="43.66002" lon="2.37671">
        <ele>584.341714</ele>
        <time>2021-10-03T09:09:56.000Z</time>
      </trkpt>
      <trkpt lat="43.66002" lon="2.37671">
        <ele>584.341714</ele>
        <time>2021-10-03T09:09:57.000Z</time>
      </trkpt>
      <trkpt lat="43.66002" lon="2.3768">
        <ele>584.816315</ele>
        <time>2021-10-03T09:10:14.000Z</time>
      </trkpt>
      <trkpt lat="43.66003" lon="2.37684">
        <ele>584.997835</ele>
        <time>2021-10-03T09:10:15.000Z</time>
      </trkpt>
      <trkpt lat="43.66004" lon="2.37687">
        <ele>585.160073</ele>
        <time>2021-10-03T09:10:16.000Z</time>
      </trkpt>
      <trkpt lat="43.66005" lon="2.37689">
        <ele>585.301224</ele>
        <time>2021-10-03T09:10:17.000Z</time>
      </trkpt>
      <trkpt lat="43.66005" lon="2.37692">
        <ele>585.434019</ele>
        <time>2021-10-03T09:10:18.000Z</time>
      </trkpt>
      <trkpt lat="43.66005" lon="2.37696">
        <ele>585.653834</ele>
        <time>2021-10-03T09:10:19.000Z</time>
      </trkpt>
      <trkpt lat="43.66005" lon="2.37701">
        <ele>585.899503</ele>
        <time>2021-10-03T09:10:20.000Z</time>
      </trkpt>
      <trkpt lat="43.66005" lon="2.37707">
        <ele>586.180628</ele>
        <time>2021-10-03T09:10:21.000Z</time>
      </trkpt>
      <trkpt lat="43.66004" lon="2.37713">
        <ele>586.491597</ele>
        <time>2021-10-03T09:10:22.000Z</time>
      </trkpt>
      <trkpt lat="43.66003" lon="2.37718">
        <ele>586.780573</ele>
        <time>2021-10-03T09:10:23.000Z</time>
      </trkpt>
      <trkpt lat="43.66002" lon="2.37724">
        <ele>587.075291</ele>
        <time>2021-10-03T09:10:24.000Z</time>
      </trkpt>
      <trkpt lat="43.66" lon="2.37729">
        <ele>587.364267</ele>
        <time>2021-10-03T09:10:25.000Z</time>
      </trkpt>
      <trkpt lat="43.65999" lon="2.37734">
        <ele>587.622706</ele>
        <time>2021-10-03T09:10:26.000Z</time>
      </trkpt>
      <trkpt lat="43.65998" lon="2.37739">
        <ele>587.85906</ele>
        <time>2021-10-03T09:10:27.000Z</time>
      </trkpt>
      <trkpt lat="43.65998" lon="2.37744">
        <ele>588.100445</ele>
        <time>2021-10-03T09:10:28.000Z</time>
      </trkpt>
      <trkpt lat="43.65998" lon="2.37748">
        <ele>588.321234</ele>
        <time>2021-10-03T09:10:29.000Z</time>
      </trkpt>
      <trkpt lat="43.65997" lon="2.37752">
        <ele>588.510666</ele>
        <time>2021-10-03T09:10:30.000Z</time>
      </trkpt>
      <trkpt lat="43.65997" lon="2.37756">
        <ele>588.710617</ele>
        <time>2021-10-03T09:10:31.000Z</time>
      </trkpt>
      <trkpt lat="43.65997" lon="2.3776">
        <ele>588.895462</ele>
        <time>2021-10-03T09:10:32.000Z</time>
      </trkpt>
      <trkpt lat="43.65997" lon="2.37763">
        <ele>589.067264</ele>
        <time>2021-10-03T09:10:33.000Z</time>
      </trkpt>
      <trkpt lat="43.65996" lon="2.37766">
        <ele>589.236406</ele>
        <time>2021-10-03T09:10:34.000Z</time>
      </trkpt>
      <trkpt lat="43.65995" lon="2.37769">
        <ele>589.39121</ele>
        <time>2021-10-03T09:10:35.000Z</time>
      </trkpt>
      <trkpt lat="43.65994" lon="2.37771">
        <ele>589.527778</ele>
        <time>2021-10-03T09:10:36.000Z</time>
      </trkpt>
      <trkpt lat="43.65993" lon="2.37773">
        <ele>589.638773</ele>
        <time>2021-10-03T09:10:37.000Z</time>
      </trkpt>
      <trkpt lat="43.65992" lon="2.37776">
        <ele>589.801033</ele>
        <time>2021-10-03T09:10:38.000Z</time>
      </trkpt>
      <trkpt lat="43.6599" lon="2.37778">
        <ele>589.949999</ele>
        <time>2021-10-03T09:10:39.000Z</time>
      </trkpt>
      <trkpt lat="43.65989" lon="2.3778">
        <ele>590.090496</ele>
        <time>2021-10-03T09:10:40.000Z</time>
      </trkpt>
      <trkpt lat="43.65989" lon="2.37782">
        <ele>590.22057</ele>
        <time>2021-10-03T09:10:41.000Z</time>
      </trkpt>
      <trkpt lat="43.65988" lon="2.37785">
        <ele>590.378047</ele>
        <time>2021-10-03T09:10:42.000Z</time>
      </trkpt>
      <trkpt lat="43.65987" lon="2.37787">
        <ele>590.489042</ele>
        <time>2021-10-03T09:10:43.000Z</time>
      </trkpt>
      <trkpt lat="43.65986" lon="2.37789">
        <ele>590.640069</ele>
        <time>2021-10-03T09:10:44.000Z</time>
      </trkpt>
      <trkpt lat="43.65984" lon="2.37793">
        <ele>590.856402</ele>
        <time>2021-10-03T09:10:45.000Z</time>
      </trkpt>
      <trkpt lat="43.65984" lon="2.37797">
        <ele>591.039775</ele>
        <time>2021-10-03T09:10:46.000Z</time>
      </trkpt>
      <trkpt lat="43.65983" lon="2.37801">
        <ele>591.269725</ele>
        <time>2021-10-03T09:10:47.000Z</time>
      </trkpt>
      <trkpt lat="43.65983" lon="2.37806">
        <ele>591.496227</ele>
        <time>2021-10-03T09:10:48.000Z</time>
      </trkpt>
      <trkpt lat="43.65982" lon="2.37811">
        <ele>591.756935</ele>
        <time>2021-10-03T09:10:49.000Z</time>
      </trkpt>
      <trkpt lat="43.6598" lon="2.37816">
        <ele>592.045911</ele>
        <time>2021-10-03T09:10:50.000Z</time>
      </trkpt>
      <trkpt lat="43.65979" lon="2.37821">
        <ele>592.28891</ele>
        <time>2021-10-03T09:10:51.000Z</time>
      </trkpt>
      <trkpt lat="43.65978" lon="2.37826">
        <ele>592.547351</ele>
        <time>2021-10-03T09:10:52.000Z</time>
      </trkpt>
      <trkpt lat="43.65977" lon="2.37831">
        <ele>592.796873</ele>
        <time>2021-10-03T09:10:53.000Z</time>
      </trkpt>
      <trkpt lat="43.65976" lon="2.37836">
        <ele>593.072246</ele>
        <time>2021-10-03T09:10:54.000Z</time>
      </trkpt>
      <trkpt lat="43.65975" lon="2.37842">
        <ele>593.37663</ele>
        <time>2021-10-03T09:10:55.000Z</time>
      </trkpt>
      <trkpt lat="43.65974" lon="2.37847">
        <ele>593.656899</ele>
        <time>2021-10-03T09:10:56.000Z</time>
      </trkpt>
      <trkpt lat="43.65973" lon="2.37853">
        <ele>593.941976</ele>
        <time>2021-10-03T09:10:57.000Z</time>
      </trkpt>
      <trkpt lat="43.65972" lon="2.37858">
        <ele>594.190973</ele>
        <time>2021-10-03T09:10:58.000Z</time>
      </trkpt>
      <trkpt lat="43.65971" lon="2.37862">
        <ele>594.428271</ele>
        <time>2021-10-03T09:10:59.000Z</time>
      </trkpt>
      <trkpt lat="43.6597" lon="2.37867">
        <ele>594.663189</ele>
        <time>2021-10-03T09:11:00.000Z</time>
      </trkpt>
      <trkpt lat="43.65968" lon="2.37871">
        <ele>594.881649</ele>
        <time>2021-10-03T09:11:01.000Z</time>
      </trkpt>
      <trkpt lat="43.65967" lon="2.37874">
        <ele>595.084881</ele>
        <time>2021-10-03T09:11:02.000Z</time>
      </trkpt>
      <trkpt lat="43.65965" lon="2.37878">
        <ele>595.311559</ele>
        <time>2021-10-03T09:11:03.000Z</time>
      </trkpt>
      <trkpt lat="43.65963" lon="2.37882">
        <ele>595.550616</ele>
        <time>2021-10-03T09:11:04.000Z</time>
      </trkpt>
      <trkpt lat="43.65961" lon="2.37886">
        <ele>595.817775</ele>
        <time>2021-10-03T09:11:05.000Z</time>
      </trkpt>
      <trkpt lat="43.65959" lon="2.3789">
        <ele>596.093023</ele>
        <time>2021-10-03T09:11:06.000Z</time>
      </trkpt>
      <trkpt lat="43.65957" lon="2.37893">
        <ele>596.431645</ele>
        <time>2021-10-03T09:11:07.000Z</time>
      </trkpt>
      <trkpt lat="43.65955" lon="2.37896">
        <ele>596.706879</ele>
        <time>2021-10-03T09:11:08.000Z</time>
      </trkpt>
      <trkpt lat="43.65954" lon="2.379">
        <ele>597.0335</ele>
        <time>2021-10-03T09:11:09.000Z</time>
      </trkpt>
      <trkpt lat="43.65953" lon="2.37903">
        <ele>597.354677</ele>
        <time>2021-10-03T09:11:10.000Z</time>
      </trkpt>
      <trkpt lat="43.65952" lon="2.37908">
        <ele>597.711156</ele>
        <time>2021-10-03T09:11:11.000Z</time>
      </trkpt>
      <trkpt lat="43.65951" lon="2.37912">
        <ele>598.067634</ele>
        <time>2021-10-03T09:11:12.000Z</time>
      </trkpt>
      <trkpt lat="43.65951" lon="2.37917">
        <ele>598.439625</ele>
        <time>2021-10-03T09:11:13.000Z</time>
      </trkpt>
      <trkpt lat="43.6595" lon="2.37921">
        <ele>598.819588</ele>
        <time>2021-10-03T09:11:14.000Z</time>
      </trkpt>
      <trkpt lat="43.6595" lon="2.37926">
        <ele>599.175641</ele>
        <time>2021-10-03T09:11:15.000Z</time>
      </trkpt>
      <trkpt lat="43.65949" lon="2.3793">
        <ele>599.52169</ele>
        <time>2021-10-03T09:11:16.000Z</time>
      </trkpt>
      <trkpt lat="43.65948" lon="2.37934">
        <ele>599.890577</ele>
        <time>2021-10-03T09:11:17.000Z</time>
      </trkpt>
      <trkpt lat="43.65946" lon="2.37938">
        <ele>600.259463</ele>
        <time>2021-10-03T09:11:18.000Z</time>
      </trkpt>
      <trkpt lat="43.65945" lon="2.37942">
        <ele>600.586084</ele>
        <time>2021-10-03T09:11:19.000Z</time>
      </trkpt>
      <trkpt lat="43.65944" lon="2.37945">
        <ele>600.897058</ele>
        <time>2021-10-03T09:11:20.000Z</time>
      </trkpt>
      <trkpt lat="43.65943" lon="2.37948">
        <ele>601.168893</ele>
        <time>2021-10-03T09:11:21.000Z</time>
      </trkpt>
      <trkpt lat="43.65942" lon="2.37952">
        <ele>601.482659</ele>
        <time>2021-10-03T09:11:22.000Z</time>
      </trkpt>
      <trkpt lat="43.65941" lon="2.37956">
        <ele>601.815865</ele>
        <time>2021-10-03T09:11:23.000Z</time>
      </trkpt>
      <trkpt lat="43.6594" lon="2.3796">
        <ele>602.144483</ele>
        <time>2021-10-03T09:11:24.000Z</time>
      </trkpt>
      <trkpt lat="43.65939" lon="2.37963">
        <ele>602.446855</ele>
        <time>2021-10-03T09:11:25.000Z</time>
      </trkpt>
      <trkpt lat="43.65937" lon="2.37966">
        <ele>602.795514</ele>
        <time>2021-10-03T09:11:26.000Z</time>
      </trkpt>
      <trkpt lat="43.65935" lon="2.3797">
        <ele>603.107832</ele>
        <time>2021-10-03T09:11:27.000Z</time>
      </trkpt>
      <trkpt lat="43.65934" lon="2.37973">
        <ele>603.383067</ele>
        <time>2021-10-03T09:11:28.000Z</time>
      </trkpt>
      <trkpt lat="43.65933" lon="2.37976">
        <ele>603.716622</ele>
        <time>2021-10-03T09:11:29.000Z</time>
      </trkpt>
      <trkpt lat="43.65931" lon="2.3798">
        <ele>604.060201</ele>
        <time>2021-10-03T09:11:30.000Z</time>
      </trkpt>
      <trkpt lat="43.65931" lon="2.37984">
        <ele>604.416681</ele>
        <time>2021-10-03T09:11:31.000Z</time>
      </trkpt>
      <trkpt lat="43.6593" lon="2.37989">
        <ele>604.812167</ele>
        <time>2021-10-03T09:11:32.000Z</time>
      </trkpt>
      <trkpt lat="43.65928" lon="2.37994">
        <ele>605.232064</ele>
        <time>2021-10-03T09:11:33.000Z</time>
      </trkpt>
      <trkpt lat="43.65927" lon="2.37998">
        <ele>605.580774</ele>
        <time>2021-10-03T09:11:34.000Z</time>
      </trkpt>
      <trkpt lat="43.65926" lon="2.38002">
        <ele>605.935881</ele>
        <time>2021-10-03T09:11:35.000Z</time>
      </trkpt>
      <trkpt lat="43.65925" lon="2.38006">
        <ele>606.319167</ele>
        <time>2021-10-03T09:11:36.000Z</time>
      </trkpt>
      <trkpt lat="43.65923" lon="2.3801">
        <ele>606.618605</ele>
        <time>2021-10-03T09:11:37.000Z</time>
      </trkpt>
      <trkpt lat="43.65922" lon="2.38013">
        <ele>606.911404</ele>
        <time>2021-10-03T09:11:38.000Z</time>
      </trkpt>
      <trkpt lat="43.6592" lon="2.38016">
        <ele>607.217549</ele>
        <time>2021-10-03T09:11:39.000Z</time>
      </trkpt>
      <trkpt lat="43.65919" lon="2.38019">
        <ele>607.478847</ele>
        <time>2021-10-03T09:11:40.000Z</time>
      </trkpt>
      <trkpt lat="43.65918" lon="2.38021">
        <ele>607.71378</ele>
        <time>2021-10-03T09:11:41.000Z</time>
      </trkpt>
      <trkpt lat="43.65917" lon="2.38023">
        <ele>607.925947</ele>
        <time>2021-10-03T09:11:42.000Z</time>
      </trkpt>
      <trkpt lat="43.65915" lon="2.38027">
        <ele>608.29219</ele>
        <time>2021-10-03T09:11:43.000Z</time>
      </trkpt>
      <trkpt lat="43.65913" lon="2.3803">
        <ele>608.617847</ele>
        <time>2021-10-03T09:11:44.000Z</time>
      </trkpt>
      <trkpt lat="43.65912" lon="2.38032">
        <ele>608.849145</ele>
        <time>2021-10-03T09:11:45.000Z</time>
      </trkpt>
      <trkpt lat="43.6591" lon="2.38034">
        <ele>609.114191</ele>
        <time>2021-10-03T09:11:46.000Z</time>
      </trkpt>
      <trkpt lat="43.65909" lon="2.38036">
        <ele>609.335409</ele>
        <time>2021-10-03T09:11:47.000Z</time>
      </trkpt>
      <trkpt lat="43.65907" lon="2.38039">
        <ele>609.598313</ele>
        <time>2021-10-03T09:11:48.000Z</time>
      </trkpt>
      <trkpt lat="43.65906" lon="2.38043">
        <ele>609.910632</ele>
        <time>2021-10-03T09:11:49.000Z</time>
      </trkpt>
      <trkpt lat="43.65904" lon="2.38046">
        <ele>610.230373</ele>
        <time>2021-10-03T09:11:50.000Z</time>
      </trkpt>
      <trkpt lat="43.65903" lon="2.38049">
        <ele>610.497377</ele>
        <time>2021-10-03T09:11:51.000Z</time>
      </trkpt>
      <trkpt lat="43.65901" lon="2.38051">
        <ele>610.740099</ele>
        <time>2021-10-03T09:11:52.000Z</time>
      </trkpt>
      <trkpt lat="43.659" lon="2.38053">
        <ele>610.974199</ele>
        <time>2021-10-03T09:11:53.000Z</time>
      </trkpt>
      <trkpt lat="43.65899" lon="2.38054">
        <ele>611.163381</ele>
        <time>2021-10-03T09:11:54.000Z</time>
      </trkpt>
      <trkpt lat="43.65897" lon="2.38056">
        <ele>611.359868</ele>
        <time>2021-10-03T09:11:55.000Z</time>
      </trkpt>
      <trkpt lat="43.65895" lon="2.38057">
        <ele>611.602702</ele>
        <time>2021-10-03T09:11:56.000Z</time>
      </trkpt>
      <trkpt lat="43.65893" lon="2.38059">
        <ele>611.841655</ele>
        <time>2021-10-03T09:11:57.000Z</time>
      </trkpt>
      <trkpt lat="43.65891" lon="2.3806">
        <ele>612.073488</ele>
        <time>2021-10-03T09:11:58.000Z</time>
      </trkpt>
      <trkpt lat="43.65889" lon="2.38061">
        <ele>612.352398</ele>
        <time>2021-10-03T09:11:59.000Z</time>
      </trkpt>
      <trkpt lat="43.65887" lon="2.38063">
        <ele>612.591351</ele>
        <time>2021-10-03T09:12:00.000Z</time>
      </trkpt>
      <trkpt lat="43.65886" lon="2.38064">
        <ele>612.793376</ele>
        <time>2021-10-03T09:12:01.000Z</time>
      </trkpt>
      <trkpt lat="43.65885" lon="2.38065">
        <ele>612.953993</ele>
        <time>2021-10-03T09:12:02.000Z</time>
      </trkpt>
      <trkpt lat="43.65883" lon="2.38066">
        <ele>613.138815</ele>
        <time>2021-10-03T09:12:03.000Z</time>
      </trkpt>
      <trkpt lat="43.65881" lon="2.38068">
        <ele>613.383683</ele>
        <time>2021-10-03T09:12:04.000Z</time>
      </trkpt>
      <trkpt lat="43.6588" lon="2.38071">
        <ele>613.661241</ele>
        <time>2021-10-03T09:12:05.000Z</time>
      </trkpt>
      <trkpt lat="43.65879" lon="2.38074">
        <ele>613.914603</ele>
        <time>2021-10-03T09:12:06.000Z</time>
      </trkpt>
      <trkpt lat="43.65879" lon="2.38076">
        <ele>614.115329</ele>
        <time>2021-10-03T09:12:07.000Z</time>
      </trkpt>
      <trkpt lat="43.65879" lon="2.38079">
        <ele>614.380288</ele>
        <time>2021-10-03T09:12:08.000Z</time>
      </trkpt>
      <trkpt lat="43.65878" lon="2.38083">
        <ele>614.671846</ele>
        <time>2021-10-03T09:12:09.000Z</time>
      </trkpt>
      <trkpt lat="43.65878" lon="2.38086">
        <ele>614.964281</ele>
        <time>2021-10-03T09:12:10.000Z</time>
      </trkpt>
      <trkpt lat="43.65877" lon="2.3809">
        <ele>615.240855</ele>
        <time>2021-10-03T09:12:11.000Z</time>
      </trkpt>
      <trkpt lat="43.65877" lon="2.38093">
        <ele>615.473698</ele>
        <time>2021-10-03T09:12:12.000Z</time>
      </trkpt>
      <trkpt lat="43.65877" lon="2.38096">
        <ele>615.70654</ele>
        <time>2021-10-03T09:12:13.000Z</time>
      </trkpt>
      <trkpt lat="43.65878" lon="2.38098">
        <ele>615.878406</ele>
        <time>2021-10-03T09:12:14.000Z</time>
      </trkpt>
      <trkpt lat="43.65877" lon="2.381">
        <ele>616.021123</ele>
        <time>2021-10-03T09:12:15.000Z</time>
      </trkpt>
      <trkpt lat="43.65877" lon="2.38101">
        <ele>616.076525</ele>
        <time>2021-10-03T09:12:16.000Z</time>
      </trkpt>
      <trkpt lat="43.65877" lon="2.38102">
        <ele>616.136543</ele>
        <time>2021-10-03T09:12:17.000Z</time>
      </trkpt>
      <trkpt lat="43.65877" lon="2.38103">
        <ele>616.14116</ele>
        <time>2021-10-03T09:12:18.000Z</time>
      </trkpt>
      <trkpt lat="43.65877" lon="2.38103">
        <ele>616.14116</ele>
        <time>2021-10-03T09:12:19.000Z</time>
      </trkpt>
      <trkpt lat="43.65877" lon="2.38103">
        <ele>616.14116</ele>
        <time>2021-10-03T09:12:20.000Z</time>
      </trkpt>
      <trkpt lat="43.65877" lon="2.38103">
        <ele>616.14116</ele>
        <time>2021-10-03T09:12:21.000Z</time>
      </trkpt>
      <trkpt lat="43.65877" lon="2.38103">
        <ele>616.14116</ele>
        <time>2021-10-03T09:12:22.000Z</time>
      </trkpt>
      <trkpt lat="43.65875" lon="2.38112">
        <ele>616.601679</ele>
        <time>2021-10-03T09:12:23.000Z</time>
      </trkpt>
      <trkpt lat="43.65875" lon="2.38114">
        <ele>616.708143</ele>
        <time>2021-10-03T09:12:24.000Z</time>
      </trkpt>
      <trkpt lat="43.65874" lon="2.38125">
        <ele>617.218552</ele>
        <time>2021-10-03T09:12:28.000Z</time>
      </trkpt>
      <trkpt lat="43.65874" lon="2.38127">
        <ele>617.304878</ele>
        <time>2021-10-03T09:12:29.000Z</time>
      </trkpt>
      <trkpt lat="43.65875" lon="2.38128">
        <ele>617.367889</ele>
        <time>2021-10-03T09:12:30.000Z</time>
      </trkpt>
      <trkpt lat="43.65875" lon="2.3813">
        <ele>617.487927</ele>
        <time>2021-10-03T09:12:31.000Z</time>
      </trkpt>
      <trkpt lat="43.65875" lon="2.38134">
        <ele>617.677216</ele>
        <time>2021-10-03T09:12:32.000Z</time>
      </trkpt>
      <trkpt lat="43.65874" lon="2.38139">
        <ele>617.912268</ele>
        <time>2021-10-03T09:12:33.000Z</time>
      </trkpt>
      <trkpt lat="43.65874" lon="2.38144">
        <ele>618.131592</ele>
        <time>2021-10-03T09:12:34.000Z</time>
      </trkpt>
      <trkpt lat="43.65873" lon="2.38148">
        <ele>618.326441</ele>
        <time>2021-10-03T09:12:35.000Z</time>
      </trkpt>
      <trkpt lat="43.65873" lon="2.38153">
        <ele>618.540378</ele>
        <time>2021-10-03T09:12:36.000Z</time>
      </trkpt>
      <trkpt lat="43.65872" lon="2.38157">
        <ele>618.722234</ele>
        <time>2021-10-03T09:12:37.000Z</time>
      </trkpt>
      <trkpt lat="43.65873" lon="2.3816">
        <ele>618.890388</ele>
        <time>2021-10-03T09:12:38.000Z</time>
      </trkpt>
      <trkpt lat="43.65873" lon="2.38164">
        <ele>619.056594</ele>
        <time>2021-10-03T09:12:39.000Z</time>
      </trkpt>
      <trkpt lat="43.65873" lon="2.38168">
        <ele>619.2505</ele>
        <time>2021-10-03T09:12:40.000Z</time>
      </trkpt>
      <trkpt lat="43.65873" lon="2.38172">
        <ele>619.422604</ele>
        <time>2021-10-03T09:12:41.000Z</time>
      </trkpt>
      <trkpt lat="43.65873" lon="2.38175">
        <ele>619.585322</ele>
        <time>2021-10-03T09:12:42.000Z</time>
      </trkpt>
      <trkpt lat="43.65873" lon="2.38179">
        <ele>619.767178</ele>
        <time>2021-10-03T09:12:43.000Z</time>
      </trkpt>
      <trkpt lat="43.65873" lon="2.38183">
        <ele>619.933384</ele>
        <time>2021-10-03T09:12:44.000Z</time>
      </trkpt>
      <trkpt lat="43.65872" lon="2.38186">
        <ele>620.089694</ele>
        <time>2021-10-03T09:12:45.000Z</time>
      </trkpt>
      <trkpt lat="43.6587" lon="2.3819">
        <ele>620.307394</ele>
        <time>2021-10-03T09:12:46.000Z</time>
      </trkpt>
      <trkpt lat="43.6587" lon="2.38195">
        <ele>620.561875</ele>
        <time>2021-10-03T09:12:47.000Z</time>
      </trkpt>
      <trkpt lat="43.65868" lon="2.38201">
        <ele>620.809473</ele>
        <time>2021-10-03T09:12:48.000Z</time>
      </trkpt>
      <trkpt lat="43.65867" lon="2.38205">
        <ele>621.029869</ele>
        <time>2021-10-03T09:12:49.000Z</time>
      </trkpt>
      <trkpt lat="43.65865" lon="2.38209">
        <ele>621.262491</ele>
        <time>2021-10-03T09:12:50.000Z</time>
      </trkpt>
      <trkpt lat="43.65863" lon="2.38213">
        <ele>621.483603</ele>
        <time>2021-10-03T09:12:51.000Z</time>
      </trkpt>
      <trkpt lat="43.6586" lon="2.38216">
        <ele>621.725426</ele>
        <time>2021-10-03T09:12:52.000Z</time>
      </trkpt>
      <trkpt lat="43.65858" lon="2.38219">
        <ele>621.92489</ele>
        <time>2021-10-03T09:12:53.000Z</time>
      </trkpt>
      <trkpt lat="43.65855" lon="2.38223">
        <ele>622.179895</ele>
        <time>2021-10-03T09:12:54.000Z</time>
      </trkpt>
      <trkpt lat="43.65853" lon="2.38227">
        <ele>622.398193</ele>
        <time>2021-10-03T09:12:55.000Z</time>
      </trkpt>
      <trkpt lat="43.6585" lon="2.3823">
        <ele>622.637593</ele>
        <time>2021-10-03T09:12:56.000Z</time>
      </trkpt>
      <trkpt lat="43.65848" lon="2.38234">
        <ele>622.860835</ele>
        <time>2021-10-03T09:12:57.000Z</time>
      </trkpt>
      <trkpt lat="43.65847" lon="2.38239">
        <ele>623.067057</ele>
        <time>2021-10-03T09:12:58.000Z</time>
      </trkpt>
      <trkpt lat="43.65847" lon="2.38243">
        <ele>623.274913</ele>
        <time>2021-10-03T09:12:59.000Z</time>
      </trkpt>
      <trkpt lat="43.65846" lon="2.38247">
        <ele>623.464912</ele>
        <time>2021-10-03T09:13:00.000Z</time>
      </trkpt>
      <trkpt lat="43.65846" lon="2.38251">
        <ele>623.642199</ele>
        <time>2021-10-03T09:13:01.000Z</time>
      </trkpt>
      <trkpt lat="43.65846" lon="2.38256">
        <ele>623.874448</ele>
        <time>2021-10-03T09:13:02.000Z</time>
      </trkpt>
      <trkpt lat="43.65845" lon="2.38261">
        <ele>624.092935</ele>
        <time>2021-10-03T09:13:03.000Z</time>
      </trkpt>
      <trkpt lat="43.65845" lon="2.38266">
        <ele>624.342978</ele>
        <time>2021-10-03T09:13:04.000Z</time>
      </trkpt>
      <trkpt lat="43.65844" lon="2.38272">
        <ele>624.598184</ele>
        <time>2021-10-03T09:13:05.000Z</time>
      </trkpt>
      <trkpt lat="43.65844" lon="2.38276">
        <ele>624.824499</ele>
        <time>2021-10-03T09:13:06.000Z</time>
      </trkpt>
      <trkpt lat="43.65844" lon="2.38282">
        <ele>625.060735</ele>
        <time>2021-10-03T09:13:07.000Z</time>
      </trkpt>
      <trkpt lat="43.65844" lon="2.38287">
        <ele>625.306175</ele>
        <time>2021-10-03T09:13:08.000Z</time>
      </trkpt>
      <trkpt lat="43.65845" lon="2.38293">
        <ele>625.58785</ele>
        <time>2021-10-03T09:13:09.000Z</time>
      </trkpt>
      <trkpt lat="43.65845" lon="2.38299">
        <ele>625.86486</ele>
        <time>2021-10-03T09:13:10.000Z</time>
      </trkpt>
      <trkpt lat="43.65846" lon="2.38305">
        <ele>626.129255</ele>
        <time>2021-10-03T09:13:11.000Z</time>
      </trkpt>
      <trkpt lat="43.65846" lon="2.3831">
        <ele>626.397715</ele>
        <time>2021-10-03T09:13:12.000Z</time>
      </trkpt>
      <trkpt lat="43.65845" lon="2.38316">
        <ele>626.677359</ele>
        <time>2021-10-03T09:13:13.000Z</time>
      </trkpt>
      <trkpt lat="43.65844" lon="2.38322">
        <ele>626.949958</ele>
        <time>2021-10-03T09:13:14.000Z</time>
      </trkpt>
      <trkpt lat="43.65844" lon="2.38328">
        <ele>627.236175</ele>
        <time>2021-10-03T09:13:15.000Z</time>
      </trkpt>
      <trkpt lat="43.65843" lon="2.38335">
        <ele>627.50445</ele>
        <time>2021-10-03T09:13:16.000Z</time>
      </trkpt>
      <trkpt lat="43.65841" lon="2.38342">
        <ele>627.709936</ele>
        <time>2021-10-03T09:13:17.000Z</time>
      </trkpt>
      <trkpt lat="43.6584" lon="2.38349">
        <ele>627.920826</ele>
        <time>2021-10-03T09:13:18.000Z</time>
      </trkpt>
      <trkpt lat="43.65838" lon="2.38356">
        <ele>628.1151</ele>
        <time>2021-10-03T09:13:19.000Z</time>
      </trkpt>
      <trkpt lat="43.65837" lon="2.38362">
        <ele>628.307134</ele>
        <time>2021-10-03T09:13:20.000Z</time>
      </trkpt>
      <trkpt lat="43.65836" lon="2.38369">
        <ele>628.495949</ele>
        <time>2021-10-03T09:13:21.000Z</time>
      </trkpt>
      <trkpt lat="43.65835" lon="2.38375">
        <ele>628.673211</ele>
        <time>2021-10-03T09:13:22.000Z</time>
      </trkpt>
      <trkpt lat="43.65834" lon="2.3838">
        <ele>628.828797</ele>
        <time>2021-10-03T09:13:23.000Z</time>
      </trkpt>
      <trkpt lat="43.65834" lon="2.38386">
        <ele>628.992047</ele>
        <time>2021-10-03T09:13:24.000Z</time>
      </trkpt>
      <trkpt lat="43.65834" lon="2.38393">
        <ele>629.175371</ele>
        <time>2021-10-03T09:13:25.000Z</time>
      </trkpt>
      <trkpt lat="43.65834" lon="2.38399">
        <ele>629.353376</ele>
        <time>2021-10-03T09:13:26.000Z</time>
      </trkpt>
      <trkpt lat="43.65834" lon="2.38406">
        <ele>629.550747</ele>
        <time>2021-10-03T09:13:27.000Z</time>
      </trkpt>
      <trkpt lat="43.65834" lon="2.38413">
        <ele>629.750587</ele>
        <time>2021-10-03T09:13:28.000Z</time>
      </trkpt>
      <trkpt lat="43.65834" lon="2.3842">
        <ele>629.93953</ele>
        <time>2021-10-03T09:13:29.000Z</time>
      </trkpt>
      <trkpt lat="43.65834" lon="2.38426">
        <ele>630.122854</ele>
        <time>2021-10-03T09:13:30.000Z</time>
      </trkpt>
      <trkpt lat="43.65835" lon="2.38432">
        <ele>630.289044</ele>
        <time>2021-10-03T09:13:31.000Z</time>
      </trkpt>
      <trkpt lat="43.65835" lon="2.38437">
        <ele>630.43903</ele>
        <time>2021-10-03T09:13:32.000Z</time>
      </trkpt>
      <trkpt lat="43.65836" lon="2.38441">
        <ele>630.552129</ele>
        <time>2021-10-03T09:13:33.000Z</time>
      </trkpt>
      <trkpt lat="43.65837" lon="2.38461">
        <ele>631.099058</ele>
        <time>2021-10-03T09:13:42.000Z</time>
      </trkpt>
      <trkpt lat="43.65837" lon="2.38463">
        <ele>631.182441</ele>
        <time>2021-10-03T09:13:43.000Z</time>
      </trkpt>
      <trkpt lat="43.65839" lon="2.38466">
        <ele>631.271709</ele>
        <time>2021-10-03T09:13:44.000Z</time>
      </trkpt>
      <trkpt lat="43.6584" lon="2.38469">
        <ele>631.370668</ele>
        <time>2021-10-03T09:13:45.000Z</time>
      </trkpt>
      <trkpt lat="43.65842" lon="2.38472">
        <ele>631.482756</ele>
        <time>2021-10-03T09:13:46.000Z</time>
      </trkpt>
      <trkpt lat="43.65842" lon="2.38475">
        <ele>631.564878</ele>
        <time>2021-10-03T09:13:47.000Z</time>
      </trkpt>
      <trkpt lat="43.65843" lon="2.38478">
        <ele>631.645605</ele>
        <time>2021-10-03T09:13:48.000Z</time>
      </trkpt>
      <trkpt lat="43.65844" lon="2.38481">
        <ele>631.738244</ele>
        <time>2021-10-03T09:13:49.000Z</time>
      </trkpt>
      <trkpt lat="43.65844" lon="2.38485">
        <ele>631.849113</ele>
        <time>2021-10-03T09:13:50.000Z</time>
      </trkpt>
      <trkpt lat="43.65845" lon="2.38488">
        <ele>631.949745</ele>
        <time>2021-10-03T09:13:51.000Z</time>
      </trkpt>
      <trkpt lat="43.65846" lon="2.38491">
        <ele>632.052013</ele>
        <time>2021-10-03T09:13:52.000Z</time>
      </trkpt>
      <trkpt lat="43.65847" lon="2.38495">
        <ele>632.167214</ele>
        <time>2021-10-03T09:13:53.000Z</time>
      </trkpt>
      <trkpt lat="43.65849" lon="2.38499">
        <ele>632.299048</ele>
        <time>2021-10-03T09:13:54.000Z</time>
      </trkpt>
      <trkpt lat="43.6585" lon="2.38503">
        <ele>632.405527</ele>
        <time>2021-10-03T09:13:55.000Z</time>
      </trkpt>
      <trkpt lat="43.65851" lon="2.38506">
        <ele>632.510358</ele>
        <time>2021-10-03T09:13:56.000Z</time>
      </trkpt>
      <trkpt lat="43.65853" lon="2.38511">
        <ele>632.651486</ele>
        <time>2021-10-03T09:13:57.000Z</time>
      </trkpt>
      <trkpt lat="43.65854" lon="2.38515">
        <ele>632.783321</ele>
        <time>2021-10-03T09:13:58.000Z</time>
      </trkpt>
      <trkpt lat="43.65856" lon="2.38519">
        <ele>632.918307</ele>
        <time>2021-10-03T09:13:59.000Z</time>
      </trkpt>
      <trkpt lat="43.65857" lon="2.38523">
        <ele>633.039169</ele>
        <time>2021-10-03T09:14:00.000Z</time>
      </trkpt>
      <trkpt lat="43.65858" lon="2.38527">
        <ele>633.156987</ele>
        <time>2021-10-03T09:14:01.000Z</time>
      </trkpt>
      <trkpt lat="43.6586" lon="2.38531">
        <ele>633.286304</ele>
        <time>2021-10-03T09:14:02.000Z</time>
      </trkpt>
      <trkpt lat="43.65861" lon="2.38535">
        <ele>633.397697</ele>
        <time>2021-10-03T09:14:03.000Z</time>
      </trkpt>
      <trkpt lat="43.65862" lon="2.38539">
        <ele>633.518142</ele>
        <time>2021-10-03T09:14:04.000Z</time>
      </trkpt>
      <trkpt lat="43.65864" lon="2.38544">
        <ele>633.679603</ele>
        <time>2021-10-03T09:14:05.000Z</time>
      </trkpt>
      <trkpt lat="43.65866" lon="2.38548">
        <ele>633.831142</ele>
        <time>2021-10-03T09:14:06.000Z</time>
      </trkpt>
      <trkpt lat="43.65868" lon="2.38554">
        <ele>633.997628</ele>
        <time>2021-10-03T09:14:07.000Z</time>
      </trkpt>
      <trkpt lat="43.65868" lon="2.38558">
        <ele>634.133527</ele>
        <time>2021-10-03T09:14:08.000Z</time>
      </trkpt>
      <trkpt lat="43.65869" lon="2.38562">
        <ele>634.246119</ele>
        <time>2021-10-03T09:14:09.000Z</time>
      </trkpt>
      <trkpt lat="43.65871" lon="2.38566">
        <ele>634.377953</ele>
        <time>2021-10-03T09:14:10.000Z</time>
      </trkpt>
      <trkpt lat="43.65872" lon="2.38571">
        <ele>634.560218</ele>
        <time>2021-10-03T09:14:11.000Z</time>
      </trkpt>
      <trkpt lat="43.65873" lon="2.38575">
        <ele>634.782434</ele>
        <time>2021-10-03T09:14:12.000Z</time>
      </trkpt>
      <trkpt lat="43.65876" lon="2.38579">
        <ele>635.038907</ele>
        <time>2021-10-03T09:14:13.000Z</time>
      </trkpt>
      <trkpt lat="43.65877" lon="2.38583">
        <ele>635.251188</ele>
        <time>2021-10-03T09:14:14.000Z</time>
      </trkpt>
      <trkpt lat="43.65879" lon="2.38586">
        <ele>635.495719</ele>
        <time>2021-10-03T09:14:15.000Z</time>
      </trkpt>
      <trkpt lat="43.65882" lon="2.3859">
        <ele>635.740816</ele>
        <time>2021-10-03T09:14:16.000Z</time>
      </trkpt>
      <trkpt lat="43.65884" lon="2.38594">
        <ele>635.996393</ele>
        <time>2021-10-03T09:14:17.000Z</time>
      </trkpt>
      <trkpt lat="43.65886" lon="2.38597">
        <ele>636.216561</ele>
        <time>2021-10-03T09:14:18.000Z</time>
      </trkpt>
      <trkpt lat="43.65888" lon="2.38601">
        <ele>636.452795</ele>
        <time>2021-10-03T09:14:19.000Z</time>
      </trkpt>
      <trkpt lat="43.6589" lon="2.38604">
        <ele>636.668649</ele>
        <time>2021-10-03T09:14:20.000Z</time>
      </trkpt>
      <trkpt lat="43.65892" lon="2.38609">
        <ele>636.903982</ele>
        <time>2021-10-03T09:14:21.000Z</time>
      </trkpt>
      <trkpt lat="43.65893" lon="2.38612">
        <ele>637.140217</ele>
        <time>2021-10-03T09:14:22.000Z</time>
      </trkpt>
      <trkpt lat="43.65894" lon="2.38616">
        <ele>637.341111</ele>
        <time>2021-10-03T09:14:23.000Z</time>
      </trkpt>
      <trkpt lat="43.65895" lon="2.3862">
        <ele>637.565534</ele>
        <time>2021-10-03T09:14:24.000Z</time>
      </trkpt>
      <trkpt lat="43.65897" lon="2.38626">
        <ele>637.832919</ele>
        <time>2021-10-03T09:14:25.000Z</time>
      </trkpt>
      <trkpt lat="43.65898" lon="2.3863">
        <ele>638.100242</ele>
        <time>2021-10-03T09:14:26.000Z</time>
      </trkpt>
      <trkpt lat="43.65899" lon="2.38635">
        <ele>638.355402</ele>
        <time>2021-10-03T09:14:27.000Z</time>
      </trkpt>
      <trkpt lat="43.659" lon="2.3864">
        <ele>638.618138</ele>
        <time>2021-10-03T09:14:28.000Z</time>
      </trkpt>
      <trkpt lat="43.65901" lon="2.38645">
        <ele>638.871114</ele>
        <time>2021-10-03T09:14:29.000Z</time>
      </trkpt>
      <trkpt lat="43.65902" lon="2.38651">
        <ele>639.159744</ele>
        <time>2021-10-03T09:14:30.000Z</time>
      </trkpt>
      <trkpt lat="43.65904" lon="2.38656">
        <ele>639.472223</ele>
        <time>2021-10-03T09:14:31.000Z</time>
      </trkpt>
      <trkpt lat="43.65905" lon="2.38661">
        <ele>639.717907</ele>
        <time>2021-10-03T09:14:32.000Z</time>
      </trkpt>
      <trkpt lat="43.65905" lon="2.38666">
        <ele>639.976488</ele>
        <time>2021-10-03T09:14:33.000Z</time>
      </trkpt>
      <trkpt lat="43.65906" lon="2.38671">
        <ele>640.218552</ele>
        <time>2021-10-03T09:14:34.000Z</time>
      </trkpt>
      <trkpt lat="43.65907" lon="2.38676">
        <ele>640.490509</ele>
        <time>2021-10-03T09:14:35.000Z</time>
      </trkpt>
      <trkpt lat="43.65909" lon="2.3868">
        <ele>640.703606</ele>
        <time>2021-10-03T09:14:36.000Z</time>
      </trkpt>
      <trkpt lat="43.6591" lon="2.38684">
        <ele>640.930486</ele>
        <time>2021-10-03T09:14:37.000Z</time>
      </trkpt>
      <trkpt lat="43.65911" lon="2.38689">
        <ele>641.207428</ele>
        <time>2021-10-03T09:14:38.000Z</time>
      </trkpt>
      <trkpt lat="43.65911" lon="2.38694">
        <ele>641.468691</ele>
        <time>2021-10-03T09:14:39.000Z</time>
      </trkpt>
      <trkpt lat="43.6591" lon="2.387">
        <ele>641.735793</ele>
        <time>2021-10-03T09:14:40.000Z</time>
      </trkpt>
      <trkpt lat="43.65911" lon="2.38706">
        <ele>642.064761</ele>
        <time>2021-10-03T09:14:41.000Z</time>
      </trkpt>
      <trkpt lat="43.65912" lon="2.38712">
        <ele>642.3725</ele>
        <time>2021-10-03T09:14:42.000Z</time>
      </trkpt>
      <trkpt lat="43.65913" lon="2.38719">
        <ele>642.71529</ele>
        <time>2021-10-03T09:14:43.000Z</time>
      </trkpt>
      <trkpt lat="43.65914" lon="2.38724">
        <ele>642.997156</ele>
        <time>2021-10-03T09:14:44.000Z</time>
      </trkpt>
      <trkpt lat="43.65914" lon="2.38729">
        <ele>643.258511</ele>
        <time>2021-10-03T09:14:45.000Z</time>
      </trkpt>
      <trkpt lat="43.65915" lon="2.38734">
        <ele>643.504528</ele>
        <time>2021-10-03T09:14:46.000Z</time>
      </trkpt>
      <trkpt lat="43.65917" lon="2.38738">
        <ele>643.736954</ele>
        <time>2021-10-03T09:14:47.000Z</time>
      </trkpt>
      <trkpt lat="43.65918" lon="2.38742">
        <ele>643.940678</ele>
        <time>2021-10-03T09:14:48.000Z</time>
      </trkpt>
      <trkpt lat="43.65918" lon="2.38746">
        <ele>644.148539</ele>
        <time>2021-10-03T09:14:49.000Z</time>
      </trkpt>
      <trkpt lat="43.65919" lon="2.3875">
        <ele>644.371346</ele>
        <time>2021-10-03T09:14:50.000Z</time>
      </trkpt>
      <trkpt lat="43.65919" lon="2.38755">
        <ele>644.602463</ele>
        <time>2021-10-03T09:14:51.000Z</time>
      </trkpt>
      <trkpt lat="43.65919" lon="2.38759">
        <ele>644.82527</ele>
        <time>2021-10-03T09:14:52.000Z</time>
      </trkpt>
      <trkpt lat="43.6592" lon="2.38763">
        <ele>645.013232</ele>
        <time>2021-10-03T09:14:53.000Z</time>
      </trkpt>
      <trkpt lat="43.6592" lon="2.38767">
        <ele>645.229277</ele>
        <time>2021-10-03T09:14:54.000Z</time>
      </trkpt>
      <trkpt lat="43.6592" lon="2.38771">
        <ele>645.436044</ele>
        <time>2021-10-03T09:14:55.000Z</time>
      </trkpt>
      <trkpt lat="43.65921" lon="2.38775">
        <ele>645.624007</ele>
        <time>2021-10-03T09:14:56.000Z</time>
      </trkpt>
      <trkpt lat="43.65921" lon="2.38779">
        <ele>645.830002</ele>
        <time>2021-10-03T09:14:57.000Z</time>
      </trkpt>
      <trkpt lat="43.65921" lon="2.38783">
        <ele>646.042843</ele>
        <time>2021-10-03T09:14:58.000Z</time>
      </trkpt>
      <trkpt lat="43.65922" lon="2.38787">
        <ele>646.257843</ele>
        <time>2021-10-03T09:14:59.000Z</time>
      </trkpt>
      <trkpt lat="43.65924" lon="2.38791">
        <ele>646.457926</ele>
        <time>2021-10-03T09:15:00.000Z</time>
      </trkpt>
      <trkpt lat="43.65926" lon="2.38795">
        <ele>646.702559</ele>
        <time>2021-10-03T09:15:01.000Z</time>
      </trkpt>
      <trkpt lat="43.65927" lon="2.388">
        <ele>646.942107</ele>
        <time>2021-10-03T09:15:02.000Z</time>
      </trkpt>
      <trkpt lat="43.65928" lon="2.38805">
        <ele>646.975854</ele>
        <time>2021-10-03T09:15:03.000Z</time>
      </trkpt>
      <trkpt lat="43.65929" lon="2.3881">
        <ele>647.005782</ele>
        <time>2021-10-03T09:15:04.000Z</time>
      </trkpt>
      <trkpt lat="43.65931" lon="2.38815">
        <ele>647.042331</ele>
        <time>2021-10-03T09:15:05.000Z</time>
      </trkpt>
      <trkpt lat="43.65931" lon="2.3882">
        <ele>647.071882</ele>
        <time>2021-10-03T09:15:06.000Z</time>
      </trkpt>
      <trkpt lat="43.65932" lon="2.38825">
        <ele>647.099631</ele>
        <time>2021-10-03T09:15:07.000Z</time>
      </trkpt>
      <trkpt lat="43.65932" lon="2.3883">
        <ele>647.132855</ele>
        <time>2021-10-03T09:15:08.000Z</time>
      </trkpt>
      <trkpt lat="43.65933" lon="2.38836">
        <ele>647.170052</ele>
        <time>2021-10-03T09:15:09.000Z</time>
      </trkpt>
      <trkpt lat="43.65933" lon="2.38841">
        <ele>647.203275</ele>
        <time>2021-10-03T09:15:10.000Z</time>
      </trkpt>
      <trkpt lat="43.65934" lon="2.38846">
        <ele>647.233509</ele>
        <time>2021-10-03T09:15:11.000Z</time>
      </trkpt>
      <trkpt lat="43.65936" lon="2.38851">
        <ele>647.267204</ele>
        <time>2021-10-03T09:15:12.000Z</time>
      </trkpt>
      <trkpt lat="43.65937" lon="2.38857">
        <ele>647.306058</ele>
        <time>2021-10-03T09:15:13.000Z</time>
      </trkpt>
      <trkpt lat="43.65938" lon="2.38863">
        <ele>647.344603</ele>
        <time>2021-10-03T09:15:14.000Z</time>
      </trkpt>
      <trkpt lat="43.65939" lon="2.3887">
        <ele>647.385661</ele>
        <time>2021-10-03T09:15:15.000Z</time>
      </trkpt>
      <trkpt lat="43.6594" lon="2.38876">
        <ele>647.423149</ele>
        <time>2021-10-03T09:15:16.000Z</time>
      </trkpt>
      <trkpt lat="43.65941" lon="2.38882">
        <ele>647.462317</ele>
        <time>2021-10-03T09:15:17.000Z</time>
      </trkpt>
      <trkpt lat="43.65942" lon="2.38888">
        <ele>647.501599</ele>
        <time>2021-10-03T09:15:18.000Z</time>
      </trkpt>
      <trkpt lat="43.65944" lon="2.38895">
        <ele>647.545074</ele>
        <time>2021-10-03T09:15:19.000Z</time>
      </trkpt>
      <trkpt lat="43.65946" lon="2.38902">
        <ele>647.593711</ele>
        <time>2021-10-03T09:15:20.000Z</time>
      </trkpt>
      <trkpt lat="43.65948" lon="2.3891">
        <ele>647.644697</ele>
        <time>2021-10-03T09:15:21.000Z</time>
      </trkpt>
      <trkpt lat="43.6595" lon="2.38917">
        <ele>647.688726</ele>
        <time>2021-10-03T09:15:22.000Z</time>
      </trkpt>
      <trkpt lat="43.65949" lon="2.38924">
        <ele>647.733478</ele>
        <time>2021-10-03T09:15:23.000Z</time>
      </trkpt>
      <trkpt lat="43.65948" lon="2.38931">
        <ele>647.77732</ele>
        <time>2021-10-03T09:15:24.000Z</time>
      </trkpt>
      <trkpt lat="43.65947" lon="2.38937">
        <ele>647.811583</ele>
        <time>2021-10-03T09:15:25.000Z</time>
      </trkpt>
      <trkpt lat="43.65945" lon="2.38941">
        <ele>647.843929</ele>
        <time>2021-10-03T09:15:26.000Z</time>
      </trkpt>
      <trkpt lat="43.65944" lon="2.38946">
        <ele>647.872422</ele>
        <time>2021-10-03T09:15:27.000Z</time>
      </trkpt>
      <trkpt lat="43.65943" lon="2.3895">
        <ele>647.90235</ele>
        <time>2021-10-03T09:15:28.000Z</time>
      </trkpt>
      <trkpt lat="43.65941" lon="2.38955">
        <ele>647.935441</ele>
        <time>2021-10-03T09:15:29.000Z</time>
      </trkpt>
      <trkpt lat="43.6594" lon="2.3896">
        <ele>647.965369</ele>
        <time>2021-10-03T09:15:30.000Z</time>
      </trkpt>
      <trkpt lat="43.65939" lon="2.38963">
        <ele>647.989629</ele>
        <time>2021-10-03T09:15:31.000Z</time>
      </trkpt>
      <trkpt lat="43.65937" lon="2.38968">
        <ele>648.019399</ele>
        <time>2021-10-03T09:15:32.000Z</time>
      </trkpt>
      <trkpt lat="43.65935" lon="2.38972">
        <ele>648.051289</ele>
        <time>2021-10-03T09:15:33.000Z</time>
      </trkpt>
      <trkpt lat="43.65933" lon="2.38977">
        <ele>648.085039</ele>
        <time>2021-10-03T09:15:34.000Z</time>
      </trkpt>
      <trkpt lat="43.65931" lon="2.38981">
        <ele>648.116843</ele>
        <time>2021-10-03T09:15:35.000Z</time>
      </trkpt>
      <trkpt lat="43.6593" lon="2.38987">
        <ele>648.151179</ele>
        <time>2021-10-03T09:15:36.000Z</time>
      </trkpt>
      <trkpt lat="43.6593" lon="2.38994">
        <ele>648.192935</ele>
        <time>2021-10-03T09:15:37.000Z</time>
      </trkpt>
      <trkpt lat="43.65929" lon="2.39001">
        <ele>648.236186</ele>
        <time>2021-10-03T09:15:38.000Z</time>
      </trkpt>
      <trkpt lat="43.65929" lon="2.39008">
        <ele>648.280993</ele>
        <time>2021-10-03T09:15:39.000Z</time>
      </trkpt>
      <trkpt lat="43.65928" lon="2.39016">
        <ele>648.328604</ele>
        <time>2021-10-03T09:15:40.000Z</time>
      </trkpt>
      <trkpt lat="43.65928" lon="2.39023">
        <ele>648.372801</ele>
        <time>2021-10-03T09:15:41.000Z</time>
      </trkpt>
      <trkpt lat="43.65928" lon="2.3903">
        <ele>648.419317</ele>
        <time>2021-10-03T09:15:42.000Z</time>
      </trkpt>
      <trkpt lat="43.65928" lon="2.39039">
        <ele>648.42738</ele>
        <time>2021-10-03T09:15:43.000Z</time>
      </trkpt>
      <trkpt lat="43.65928" lon="2.39047">
        <ele>648.304281</ele>
        <time>2021-10-03T09:15:44.000Z</time>
      </trkpt>
      <trkpt lat="43.65928" lon="2.39054">
        <ele>648.188836</ele>
        <time>2021-10-03T09:15:45.000Z</time>
      </trkpt>
      <trkpt lat="43.65929" lon="2.3906">
        <ele>648.083776</ele>
        <time>2021-10-03T09:15:46.000Z</time>
      </trkpt>
      <trkpt lat="43.65929" lon="2.39067">
        <ele>647.97824</ele>
        <time>2021-10-03T09:15:47.000Z</time>
      </trkpt>
      <trkpt lat="43.65928" lon="2.39073">
        <ele>647.879287</ele>
        <time>2021-10-03T09:15:48.000Z</time>
      </trkpt>
      <trkpt lat="43.65925" lon="2.39079">
        <ele>647.774252</ele>
        <time>2021-10-03T09:15:49.000Z</time>
      </trkpt>
      <trkpt lat="43.65923" lon="2.39083">
        <ele>647.685698</ele>
        <time>2021-10-03T09:15:50.000Z</time>
      </trkpt>
      <trkpt lat="43.65921" lon="2.39089">
        <ele>647.582452</ele>
        <time>2021-10-03T09:15:51.000Z</time>
      </trkpt>
      <trkpt lat="43.65919" lon="2.39096">
        <ele>647.468892</ele>
        <time>2021-10-03T09:15:52.000Z</time>
      </trkpt>
      <trkpt lat="43.65917" lon="2.39103">
        <ele>647.349367</ele>
        <time>2021-10-03T09:15:53.000Z</time>
      </trkpt>
      <trkpt lat="43.65915" lon="2.39108">
        <ele>647.254804</ele>
        <time>2021-10-03T09:15:54.000Z</time>
      </trkpt>
      <trkpt lat="43.65913" lon="2.39114">
        <ele>647.154625</ele>
        <time>2021-10-03T09:15:55.000Z</time>
      </trkpt>
      <trkpt lat="43.65911" lon="2.39118">
        <ele>647.067152</ele>
        <time>2021-10-03T09:15:56.000Z</time>
      </trkpt>
      <trkpt lat="43.6591" lon="2.39123">
        <ele>646.986487</ele>
        <time>2021-10-03T09:15:57.000Z</time>
      </trkpt>
      <trkpt lat="43.65908" lon="2.39127">
        <ele>646.903191</ele>
        <time>2021-10-03T09:15:58.000Z</time>
      </trkpt>
      <trkpt lat="43.65905" lon="2.39132">
        <ele>646.811122</ele>
        <time>2021-10-03T09:15:59.000Z</time>
      </trkpt>
      <trkpt lat="43.65903" lon="2.39137">
        <ele>646.717842</ele>
        <time>2021-10-03T09:16:00.000Z</time>
      </trkpt>
      <trkpt lat="43.65901" lon="2.39142">
        <ele>646.624284</ele>
        <time>2021-10-03T09:16:01.000Z</time>
      </trkpt>
      <trkpt lat="43.65898" lon="2.39147">
        <ele>646.516564</ele>
        <time>2021-10-03T09:16:02.000Z</time>
      </trkpt>
      <trkpt lat="43.65895" lon="2.39151">
        <ele>646.419905</ele>
        <time>2021-10-03T09:16:03.000Z</time>
      </trkpt>
      <trkpt lat="43.65892" lon="2.39155">
        <ele>646.340698</ele>
        <time>2021-10-03T09:16:04.000Z</time>
      </trkpt>
      <trkpt lat="43.65891" lon="2.39159">
        <ele>646.275854</ele>
        <time>2021-10-03T09:16:05.000Z</time>
      </trkpt>
      <trkpt lat="43.6589" lon="2.39162">
        <ele>646.214107</ele>
        <time>2021-10-03T09:16:06.000Z</time>
      </trkpt>
      <trkpt lat="43.6589" lon="2.39166">
        <ele>646.150159</ele>
        <time>2021-10-03T09:16:07.000Z</time>
      </trkpt>
      <trkpt lat="43.65891" lon="2.3917">
        <ele>646.088769</ele>
        <time>2021-10-03T09:16:08.000Z</time>
      </trkpt>
      <trkpt lat="43.65891" lon="2.39175">
        <ele>646.006758</ele>
        <time>2021-10-03T09:16:09.000Z</time>
      </trkpt>
      <trkpt lat="43.65892" lon="2.3918">
        <ele>645.928477</ele>
        <time>2021-10-03T09:16:10.000Z</time>
      </trkpt>
      <trkpt lat="43.65893" lon="2.39186">
        <ele>645.826421</ele>
        <time>2021-10-03T09:16:11.000Z</time>
      </trkpt>
      <trkpt lat="43.65894" lon="2.39192">
        <ele>645.727154</ele>
        <time>2021-10-03T09:16:12.000Z</time>
      </trkpt>
      <trkpt lat="43.65896" lon="2.392">
        <ele>645.600864</ele>
        <time>2021-10-03T09:16:13.000Z</time>
      </trkpt>
      <trkpt lat="43.65898" lon="2.39207">
        <ele>645.483503</ele>
        <time>2021-10-03T09:16:14.000Z</time>
      </trkpt>
      <trkpt lat="43.65898" lon="2.39213">
        <ele>645.379213</ele>
        <time>2021-10-03T09:16:15.000Z</time>
      </trkpt>
      <trkpt lat="43.65897" lon="2.3922">
        <ele>645.26624</ele>
        <time>2021-10-03T09:16:16.000Z</time>
      </trkpt>
      <trkpt lat="43.65896" lon="2.39225">
        <ele>645.185745</ele>
        <time>2021-10-03T09:16:17.000Z</time>
      </trkpt>
      <trkpt lat="43.65896" lon="2.3923">
        <ele>645.100753</ele>
        <time>2021-10-03T09:16:18.000Z</time>
      </trkpt>
      <trkpt lat="43.65895" lon="2.39236">
        <ele>645.012382</ele>
        <time>2021-10-03T09:16:19.000Z</time>
      </trkpt>
      <trkpt lat="43.65895" lon="2.39241">
        <ele>644.92925</ele>
        <time>2021-10-03T09:16:20.000Z</time>
      </trkpt>
      <trkpt lat="43.65896" lon="2.39247">
        <ele>644.835244</ele>
        <time>2021-10-03T09:16:21.000Z</time>
      </trkpt>
      <trkpt lat="43.65897" lon="2.39252">
        <ele>644.745557</ele>
        <time>2021-10-03T09:16:22.000Z</time>
      </trkpt>
      <trkpt lat="43.65898" lon="2.39256">
        <ele>644.672106</ele>
        <time>2021-10-03T09:16:23.000Z</time>
      </trkpt>
      <trkpt lat="43.659" lon="2.3926">
        <ele>644.596932</ele>
        <time>2021-10-03T09:16:24.000Z</time>
      </trkpt>
      <trkpt lat="43.65901" lon="2.39265">
        <ele>644.513341</ele>
        <time>2021-10-03T09:16:25.000Z</time>
      </trkpt>
      <trkpt lat="43.65902" lon="2.3927">
        <ele>644.458182</ele>
        <time>2021-10-03T09:16:26.000Z</time>
      </trkpt>
      <trkpt lat="43.65902" lon="2.39275">
        <ele>644.420328</ele>
        <time>2021-10-03T09:16:27.000Z</time>
      </trkpt>
      <trkpt lat="43.65902" lon="2.39281">
        <ele>644.368964</ele>
        <time>2021-10-03T09:16:28.000Z</time>
      </trkpt>
      <trkpt lat="43.65902" lon="2.39287">
        <ele>644.323018</ele>
        <time>2021-10-03T09:16:29.000Z</time>
      </trkpt>
      <trkpt lat="43.65901" lon="2.39293">
        <ele>644.279754</ele>
        <time>2021-10-03T09:16:30.000Z</time>
      </trkpt>
      <trkpt lat="43.659" lon="2.39298">
        <ele>644.233695</ele>
        <time>2021-10-03T09:16:31.000Z</time>
      </trkpt>
      <trkpt lat="43.65898" lon="2.39305">
        <ele>644.173996</ele>
        <time>2021-10-03T09:16:32.000Z</time>
      </trkpt>
      <trkpt lat="43.65896" lon="2.39312">
        <ele>644.117933</ele>
        <time>2021-10-03T09:16:33.000Z</time>
      </trkpt>
      <trkpt lat="43.65895" lon="2.39319">
        <ele>644.061202</ele>
        <time>2021-10-03T09:16:34.000Z</time>
      </trkpt>
      <trkpt lat="43.65895" lon="2.39327">
        <ele>643.995747</ele>
        <time>2021-10-03T09:16:35.000Z</time>
      </trkpt>
      <trkpt lat="43.65895" lon="2.39333">
        <ele>643.95225</ele>
        <time>2021-10-03T09:16:36.000Z</time>
      </trkpt>
      <trkpt lat="43.65895" lon="2.39337">
        <ele>643.919752</ele>
        <time>2021-10-03T09:16:37.000Z</time>
      </trkpt>
      <trkpt lat="43.65894" lon="2.39341">
        <ele>643.888828</ele>
        <time>2021-10-03T09:16:38.000Z</time>
      </trkpt>
      <trkpt lat="43.65894" lon="2.39344">
        <ele>643.859882</ele>
        <time>2021-10-03T09:16:39.000Z</time>
      </trkpt>
      <trkpt lat="43.65893" lon="2.39347">
        <ele>643.835023</ele>
        <time>2021-10-03T09:16:40.000Z</time>
      </trkpt>
      <trkpt lat="43.65892" lon="2.39351">
        <ele>643.804565</ele>
        <time>2021-10-03T09:16:41.000Z</time>
      </trkpt>
      <trkpt lat="43.65892" lon="2.39355">
        <ele>643.776687</ele>
        <time>2021-10-03T09:16:42.000Z</time>
      </trkpt>
      <trkpt lat="43.65891" lon="2.39358">
        <ele>643.745624</ele>
        <time>2021-10-03T09:16:43.000Z</time>
      </trkpt>
      <trkpt lat="43.65891" lon="2.39363">
        <ele>643.710652</ele>
        <time>2021-10-03T09:16:44.000Z</time>
      </trkpt>
      <trkpt lat="43.6589" lon="2.39367">
        <ele>643.675893</ele>
        <time>2021-10-03T09:16:45.000Z</time>
      </trkpt>
      <trkpt lat="43.65889" lon="2.39372">
        <ele>643.635844</ele>
        <time>2021-10-03T09:16:46.000Z</time>
      </trkpt>
      <trkpt lat="43.65888" lon="2.39376">
        <ele>643.604155</ele>
        <time>2021-10-03T09:16:47.000Z</time>
      </trkpt>
      <trkpt lat="43.65887" lon="2.39381">
        <ele>643.560008</ele>
        <time>2021-10-03T09:16:48.000Z</time>
      </trkpt>
      <trkpt lat="43.65886" lon="2.39387">
        <ele>643.510156</ele>
        <time>2021-10-03T09:16:49.000Z</time>
      </trkpt>
      <trkpt lat="43.65885" lon="2.39393">
        <ele>643.459046</ele>
        <time>2021-10-03T09:16:50.000Z</time>
      </trkpt>
      <trkpt lat="43.65883" lon="2.394">
        <ele>643.402228</ele>
        <time>2021-10-03T09:16:51.000Z</time>
      </trkpt>
      <trkpt lat="43.65882" lon="2.39406">
        <ele>643.354677</ele>
        <time>2021-10-03T09:16:52.000Z</time>
      </trkpt>
      <trkpt lat="43.65881" lon="2.39411">
        <ele>643.312965</ele>
        <time>2021-10-03T09:16:53.000Z</time>
      </trkpt>
      <trkpt lat="43.65881" lon="2.39418">
        <ele>643.264076</ele>
        <time>2021-10-03T09:16:54.000Z</time>
      </trkpt>
      <trkpt lat="43.6588" lon="2.39425">
        <ele>643.207585</ele>
        <time>2021-10-03T09:16:55.000Z</time>
      </trkpt>
      <trkpt lat="43.65878" lon="2.39431">
        <ele>643.157523</ele>
        <time>2021-10-03T09:16:56.000Z</time>
      </trkpt>
      <trkpt lat="43.65877" lon="2.39438">
        <ele>643.097677</ele>
        <time>2021-10-03T09:16:57.000Z</time>
      </trkpt>
      <trkpt lat="43.65875" lon="2.39444">
        <ele>643.043121</ele>
        <time>2021-10-03T09:16:58.000Z</time>
      </trkpt>
      <trkpt lat="43.65873" lon="2.3945">
        <ele>642.994547</ele>
        <time>2021-10-03T09:16:59.000Z</time>
      </trkpt>
      <trkpt lat="43.65872" lon="2.39458">
        <ele>642.929091</ele>
        <time>2021-10-03T09:17:00.000Z</time>
      </trkpt>
      <trkpt lat="43.6587" lon="2.39466">
        <ele>642.861189</ele>
        <time>2021-10-03T09:17:01.000Z</time>
      </trkpt>
      <trkpt lat="43.65868" lon="2.39474">
        <ele>642.795986</ele>
        <time>2021-10-03T09:17:02.000Z</time>
      </trkpt>
      <trkpt lat="43.65867" lon="2.39482">
        <ele>642.732541</ele>
        <time>2021-10-03T09:17:03.000Z</time>
      </trkpt>
      <trkpt lat="43.65866" lon="2.39489">
        <ele>642.673454</ele>
        <time>2021-10-03T09:17:04.000Z</time>
      </trkpt>
      <trkpt lat="43.65864" lon="2.39496">
        <ele>642.618898</ele>
        <time>2021-10-03T09:17:05.000Z</time>
      </trkpt>
      <trkpt lat="43.65862" lon="2.39503">
        <ele>642.559701</ele>
        <time>2021-10-03T09:17:06.000Z</time>
      </trkpt>
      <trkpt lat="43.6586" lon="2.3951">
        <ele>642.550485</ele>
        <time>2021-10-03T09:17:07.000Z</time>
      </trkpt>
      <trkpt lat="43.65857" lon="2.39518">
        <ele>642.619606</ele>
        <time>2021-10-03T09:17:08.000Z</time>
      </trkpt>
      <trkpt lat="43.65854" lon="2.39526">
        <ele>642.690633</ele>
        <time>2021-10-03T09:17:09.000Z</time>
      </trkpt>
      <trkpt lat="43.65852" lon="2.39534">
        <ele>642.760938</ele>
        <time>2021-10-03T09:17:10.000Z</time>
      </trkpt>
      <trkpt lat="43.65851" lon="2.39544">
        <ele>642.839311</ele>
        <time>2021-10-03T09:17:11.000Z</time>
      </trkpt>
      <trkpt lat="43.65849" lon="2.39551">
        <ele>642.904858</ele>
        <time>2021-10-03T09:17:12.000Z</time>
      </trkpt>
      <trkpt lat="43.65847" lon="2.39559">
        <ele>642.96453</ele>
        <time>2021-10-03T09:17:13.000Z</time>
      </trkpt>
      <trkpt lat="43.65845" lon="2.39566">
        <ele>643.025567</ele>
        <time>2021-10-03T09:17:14.000Z</time>
      </trkpt>
      <trkpt lat="43.65844" lon="2.39572">
        <ele>643.078992</ele>
        <time>2021-10-03T09:17:15.000Z</time>
      </trkpt>
      <trkpt lat="43.65842" lon="2.39579">
        <ele>643.139045</ele>
        <time>2021-10-03T09:17:16.000Z</time>
      </trkpt>
      <trkpt lat="43.6584" lon="2.39585">
        <ele>643.189973</ele>
        <time>2021-10-03T09:17:17.000Z</time>
      </trkpt>
      <trkpt lat="43.65839" lon="2.39592">
        <ele>643.2478</ele>
        <time>2021-10-03T09:17:18.000Z</time>
      </trkpt>
      <trkpt lat="43.65838" lon="2.39599">
        <ele>643.301226</ele>
        <time>2021-10-03T09:17:19.000Z</time>
      </trkpt>
      <trkpt lat="43.65837" lon="2.39605">
        <ele>643.352066</ele>
        <time>2021-10-03T09:17:20.000Z</time>
      </trkpt>
      <trkpt lat="43.65835" lon="2.39611">
        <ele>643.401872</ele>
        <time>2021-10-03T09:17:21.000Z</time>
      </trkpt>
      <trkpt lat="43.65833" lon="2.39616">
        <ele>643.451778</ele>
        <time>2021-10-03T09:17:22.000Z</time>
      </trkpt>
      <trkpt lat="43.65831" lon="2.39622">
        <ele>643.501038</ele>
        <time>2021-10-03T09:17:23.000Z</time>
      </trkpt>
      <trkpt lat="43.65829" lon="2.39628">
        <ele>643.555397</ele>
        <time>2021-10-03T09:17:24.000Z</time>
      </trkpt>
      <trkpt lat="43.65828" lon="2.39634">
        <ele>643.606325</ele>
        <time>2021-10-03T09:17:25.000Z</time>
      </trkpt>
      <trkpt lat="43.65827" lon="2.39639">
        <ele>643.648664</ele>
        <time>2021-10-03T09:17:26.000Z</time>
      </trkpt>
      <trkpt lat="43.65826" lon="2.39645">
        <ele>643.693343</ele>
        <time>2021-10-03T09:17:27.000Z</time>
      </trkpt>
      <trkpt lat="43.65825" lon="2.39651">
        <ele>643.740326</ele>
        <time>2021-10-03T09:17:28.000Z</time>
      </trkpt>
      <trkpt lat="43.65824" lon="2.39656">
        <ele>643.782665</ele>
        <time>2021-10-03T09:17:29.000Z</time>
      </trkpt>
      <trkpt lat="43.65824" lon="2.39661">
        <ele>643.822501</ele>
        <time>2021-10-03T09:17:30.000Z</time>
      </trkpt>
      <trkpt lat="43.65823" lon="2.39665">
        <ele>643.857699</ele>
        <time>2021-10-03T09:17:31.000Z</time>
      </trkpt>
      <trkpt lat="43.65823" lon="2.39668">
        <ele>643.882778</ele>
        <time>2021-10-03T09:17:32.000Z</time>
      </trkpt>
      <trkpt lat="43.65822" lon="2.39672">
        <ele>643.914007</ele>
        <time>2021-10-03T09:17:33.000Z</time>
      </trkpt>
      <trkpt lat="43.65822" lon="2.39676">
        <ele>643.941903</ele>
        <time>2021-10-03T09:17:34.000Z</time>
      </trkpt>
      <trkpt lat="43.65822" lon="2.3968">
        <ele>643.977783</ele>
        <time>2021-10-03T09:17:35.000Z</time>
      </trkpt>
      <trkpt lat="43.6582" lon="2.39684">
        <ele>644.014858</ele>
        <time>2021-10-03T09:17:36.000Z</time>
      </trkpt>
      <trkpt lat="43.6582" lon="2.39687">
        <ele>644.040322</ele>
        <time>2021-10-03T09:17:37.000Z</time>
      </trkpt>
      <trkpt lat="43.65819" lon="2.39692">
        <ele>644.076646</ele>
        <time>2021-10-03T09:17:38.000Z</time>
      </trkpt>
      <trkpt lat="43.65818" lon="2.39696">
        <ele>644.115268</ele>
        <time>2021-10-03T09:17:39.000Z</time>
      </trkpt>
      <trkpt lat="43.65818" lon="2.39701">
        <ele>644.147921</ele>
        <time>2021-10-03T09:17:40.000Z</time>
      </trkpt>
      <trkpt lat="43.65818" lon="2.39706">
        <ele>644.190928</ele>
        <time>2021-10-03T09:17:41.000Z</time>
      </trkpt>
      <trkpt lat="43.65818" lon="2.39712">
        <ele>644.235744</ele>
        <time>2021-10-03T09:17:42.000Z</time>
      </trkpt>
      <trkpt lat="43.65818" lon="2.39716">
        <ele>644.270786</ele>
        <time>2021-10-03T09:17:43.000Z</time>
      </trkpt>
      <trkpt lat="43.65819" lon="2.39721">
        <ele>644.309783</ele>
        <time>2021-10-03T09:17:44.000Z</time>
      </trkpt>
      <trkpt lat="43.6582" lon="2.39725">
        <ele>644.344372</ele>
        <time>2021-10-03T09:17:45.000Z</time>
      </trkpt>
      <trkpt lat="43.65821" lon="2.3973">
        <ele>644.382957</ele>
        <time>2021-10-03T09:17:46.000Z</time>
      </trkpt>
      <trkpt lat="43.65822" lon="2.39735">
        <ele>644.428708</ele>
        <time>2021-10-03T09:17:47.000Z</time>
      </trkpt>
      <trkpt lat="43.65824" lon="2.39739">
        <ele>644.46699</ele>
        <time>2021-10-03T09:17:48.000Z</time>
      </trkpt>
      <trkpt lat="43.65825" lon="2.39744">
        <ele>644.493871</ele>
        <time>2021-10-03T09:17:49.000Z</time>
      </trkpt>
      <trkpt lat="43.65826" lon="2.3975">
        <ele>644.353709</ele>
        <time>2021-10-03T09:17:50.000Z</time>
      </trkpt>
      <trkpt lat="43.65828" lon="2.39755">
        <ele>644.230745</ele>
        <time>2021-10-03T09:17:51.000Z</time>
      </trkpt>
      <trkpt lat="43.6583" lon="2.3976">
        <ele>644.090982</ele>
        <time>2021-10-03T09:17:52.000Z</time>
      </trkpt>
      <trkpt lat="43.65832" lon="2.39765">
        <ele>643.961801</ele>
        <time>2021-10-03T09:17:53.000Z</time>
      </trkpt>
      <trkpt lat="43.65834" lon="2.3977">
        <ele>643.834641</ele>
        <time>2021-10-03T09:17:54.000Z</time>
      </trkpt>
      <trkpt lat="43.65836" lon="2.39776">
        <ele>643.693842</ele>
        <time>2021-10-03T09:17:55.000Z</time>
      </trkpt>
      <trkpt lat="43.65838" lon="2.39781">
        <ele>643.564049</ele>
        <time>2021-10-03T09:17:56.000Z</time>
      </trkpt>
      <trkpt lat="43.6584" lon="2.39787">
        <ele>643.406687</ele>
        <time>2021-10-03T09:17:57.000Z</time>
      </trkpt>
      <trkpt lat="43.65841" lon="2.39794">
        <ele>643.255877</ele>
        <time>2021-10-03T09:17:58.000Z</time>
      </trkpt>
      <trkpt lat="43.6584" lon="2.39799">
        <ele>643.13428</ele>
        <time>2021-10-03T09:17:59.000Z</time>
      </trkpt>
      <trkpt lat="43.6584" lon="2.39804">
        <ele>643.006153</ele>
        <time>2021-10-03T09:18:00.000Z</time>
      </trkpt>
      <trkpt lat="43.65839" lon="2.39809">
        <ele>642.902843</ele>
        <time>2021-10-03T09:18:01.000Z</time>
      </trkpt>
      <trkpt lat="43.65837" lon="2.39814">
        <ele>642.775683</ele>
        <time>2021-10-03T09:18:02.000Z</time>
      </trkpt>
      <trkpt lat="43.65835" lon="2.39819">
        <ele>642.632134</ele>
        <time>2021-10-03T09:18:03.000Z</time>
      </trkpt>
      <trkpt lat="43.65833" lon="2.39826">
        <ele>642.461126</ele>
        <time>2021-10-03T09:18:04.000Z</time>
      </trkpt>
      <trkpt lat="43.65831" lon="2.39832">
        <ele>642.317796</ele>
        <time>2021-10-03T09:18:05.000Z</time>
      </trkpt>
      <trkpt lat="43.65829" lon="2.39836">
        <ele>642.18801</ele>
        <time>2021-10-03T09:18:06.000Z</time>
      </trkpt>
      <trkpt lat="43.65827" lon="2.39842">
        <ele>642.04072</ele>
        <time>2021-10-03T09:18:07.000Z</time>
      </trkpt>
      <trkpt lat="43.65824" lon="2.39848">
        <ele>641.875673</ele>
        <time>2021-10-03T09:18:08.000Z</time>
      </trkpt>
      <trkpt lat="43.6582" lon="2.39854">
        <ele>641.693279</ele>
        <time>2021-10-03T09:18:09.000Z</time>
      </trkpt>
      <trkpt lat="43.65816" lon="2.39859">
        <ele>641.532492</ele>
        <time>2021-10-03T09:18:10.000Z</time>
      </trkpt>
      <trkpt lat="43.65814" lon="2.39863">
        <ele>641.410074</ele>
        <time>2021-10-03T09:18:11.000Z</time>
      </trkpt>
      <trkpt lat="43.65811" lon="2.39869">
        <ele>641.235855</ele>
        <time>2021-10-03T09:18:12.000Z</time>
      </trkpt>
      <trkpt lat="43.65808" lon="2.39875">
        <ele>641.069031</ele>
        <time>2021-10-03T09:18:13.000Z</time>
      </trkpt>
      <trkpt lat="43.65805" lon="2.39881">
        <ele>640.918922</ele>
        <time>2021-10-03T09:18:14.000Z</time>
      </trkpt>
      <trkpt lat="43.65801" lon="2.39884">
        <ele>640.775869</ele>
        <time>2021-10-03T09:18:15.000Z</time>
      </trkpt>
      <trkpt lat="43.65797" lon="2.39887">
        <ele>640.623375</ele>
        <time>2021-10-03T09:18:16.000Z</time>
      </trkpt>
      <trkpt lat="43.65792" lon="2.3989">
        <ele>640.451046</ele>
        <time>2021-10-03T09:18:17.000Z</time>
      </trkpt>
      <trkpt lat="43.65787" lon="2.39892">
        <ele>640.296391</ele>
        <time>2021-10-03T09:18:18.000Z</time>
      </trkpt>
      <trkpt lat="43.65782" lon="2.39894">
        <ele>640.140944</ele>
        <time>2021-10-03T09:18:19.000Z</time>
      </trkpt>
      <trkpt lat="43.65778" lon="2.39895">
        <ele>640.006202</ele>
        <time>2021-10-03T09:18:20.000Z</time>
      </trkpt>
      <trkpt lat="43.65774" lon="2.39898">
        <ele>639.864996</ele>
        <time>2021-10-03T09:18:21.000Z</time>
      </trkpt>
      <trkpt lat="43.65771" lon="2.39901">
        <ele>639.727065</ele>
        <time>2021-10-03T09:18:22.000Z</time>
      </trkpt>
      <trkpt lat="43.65767" lon="2.39905">
        <ele>639.585316</ele>
        <time>2021-10-03T09:18:23.000Z</time>
      </trkpt>
      <trkpt lat="43.65763" lon="2.39907">
        <ele>639.465578</ele>
        <time>2021-10-03T09:18:24.000Z</time>
      </trkpt>
      <trkpt lat="43.65759" lon="2.39908">
        <ele>639.330836</ele>
        <time>2021-10-03T09:18:25.000Z</time>
      </trkpt>
      <trkpt lat="43.65755" lon="2.39908">
        <ele>639.21061</ele>
        <time>2021-10-03T09:18:26.000Z</time>
      </trkpt>
      <trkpt lat="43.65752" lon="2.39908">
        <ele>639.111936</ele>
        <time>2021-10-03T09:18:27.000Z</time>
      </trkpt>
      <trkpt lat="43.6575" lon="2.39908">
        <ele>639.026299</ele>
        <time>2021-10-03T09:18:28.000Z</time>
      </trkpt>
      <trkpt lat="43.65748" lon="2.39908">
        <ele>638.965838</ele>
        <time>2021-10-03T09:18:29.000Z</time>
      </trkpt>
      <trkpt lat="43.65746" lon="2.39908">
        <ele>638.915047</ele>
        <time>2021-10-03T09:18:30.000Z</time>
      </trkpt>
      <trkpt lat="43.65745" lon="2.39908">
        <ele>638.889754</ele>
        <time>2021-10-03T09:18:31.000Z</time>
      </trkpt>
      <trkpt lat="43.65745" lon="2.39908">
        <ele>638.876306</ele>
        <time>2021-10-03T09:18:32.000Z</time>
      </trkpt>
      <trkpt lat="43.65744" lon="2.39908">
        <ele>638.86366</ele>
        <time>2021-10-03T09:18:33.000Z</time>
      </trkpt>
      <trkpt lat="43.65744" lon="2.39908">
        <ele>638.86366</ele>
        <time>2021-10-03T09:18:34.000Z</time>
      </trkpt>
      <trkpt lat="43.65741" lon="2.39908">
        <ele>638.801562</ele>
        <time>2021-10-03T09:18:36.000Z</time>
      </trkpt>
      <trkpt lat="43.65738" lon="2.39907">
        <ele>638.772592</ele>
        <time>2021-10-03T09:18:37.000Z</time>
      </trkpt>
      <trkpt lat="43.65735" lon="2.39906">
        <ele>638.742681</ele>
        <time>2021-10-03T09:18:38.000Z</time>
      </trkpt>
      <trkpt lat="43.65732" lon="2.39903">
        <ele>638.712893</ele>
        <time>2021-10-03T09:18:39.000Z</time>
      </trkpt>
      <trkpt lat="43.65729" lon="2.39901">
        <ele>638.681517</ele>
        <time>2021-10-03T09:18:40.000Z</time>
      </trkpt>
      <trkpt lat="43.65727" lon="2.399">
        <ele>638.656448</ele>
        <time>2021-10-03T09:18:41.000Z</time>
      </trkpt>
      <trkpt lat="43.65724" lon="2.399">
        <ele>638.630534</ele>
        <time>2021-10-03T09:18:42.000Z</time>
      </trkpt>
      <trkpt lat="43.65722" lon="2.39902">
        <ele>638.60755</ele>
        <time>2021-10-03T09:18:43.000Z</time>
      </trkpt>
      <trkpt lat="43.6572" lon="2.39903">
        <ele>638.591357</ele>
        <time>2021-10-03T09:18:44.000Z</time>
      </trkpt>
      <trkpt lat="43.65718" lon="2.39904">
        <ele>638.573668</ele>
        <time>2021-10-03T09:18:45.000Z</time>
      </trkpt>
      <trkpt lat="43.65716" lon="2.39905">
        <ele>638.554563</ele>
        <time>2021-10-03T09:18:46.000Z</time>
      </trkpt>
      <trkpt lat="43.65714" lon="2.39906">
        <ele>638.52795</ele>
        <time>2021-10-03T09:18:47.000Z</time>
      </trkpt>
      <trkpt lat="43.65711" lon="2.39909">
        <ele>638.502369</ele>
        <time>2021-10-03T09:18:48.000Z</time>
      </trkpt>
      <trkpt lat="43.6571" lon="2.39911">
        <ele>638.483308</ele>
        <time>2021-10-03T09:18:49.000Z</time>
      </trkpt>
      <trkpt lat="43.65708" lon="2.39913">
        <ele>638.45571</ele>
        <time>2021-10-03T09:18:50.000Z</time>
      </trkpt>
      <trkpt lat="43.65705" lon="2.39915">
        <ele>638.428955</ele>
        <time>2021-10-03T09:18:51.000Z</time>
      </trkpt>
      <trkpt lat="43.65702" lon="2.39917">
        <ele>638.401245</ele>
        <time>2021-10-03T09:18:52.000Z</time>
      </trkpt>
      <trkpt lat="43.65698" lon="2.3992">
        <ele>638.354727</ele>
        <time>2021-10-03T09:18:53.000Z</time>
      </trkpt>
      <trkpt lat="43.65694" lon="2.39922">
        <ele>638.318584</ele>
        <time>2021-10-03T09:18:54.000Z</time>
      </trkpt>
      <trkpt lat="43.6569" lon="2.39923">
        <ele>638.282055</ele>
        <time>2021-10-03T09:18:55.000Z</time>
      </trkpt>
      <trkpt lat="43.65687" lon="2.39925">
        <ele>638.249228</ele>
        <time>2021-10-03T09:18:56.000Z</time>
      </trkpt>
      <trkpt lat="43.65684" lon="2.39925">
        <ele>638.227935</ele>
        <time>2021-10-03T09:18:57.000Z</time>
      </trkpt>
      <trkpt lat="43.65681" lon="2.39924">
        <ele>638.196274</ele>
        <time>2021-10-03T09:18:58.000Z</time>
      </trkpt>
      <trkpt lat="43.65677" lon="2.39922">
        <ele>638.159746</ele>
        <time>2021-10-03T09:18:59.000Z</time>
      </trkpt>
      <trkpt lat="43.65673" lon="2.39921">
        <ele>638.120072</ele>
        <time>2021-10-03T09:19:00.000Z</time>
      </trkpt>
      <trkpt lat="43.65669" lon="2.39919">
        <ele>638.083114</ele>
        <time>2021-10-03T09:19:01.000Z</time>
      </trkpt>
      <trkpt lat="43.65666" lon="2.39917">
        <ele>638.04795</ele>
        <time>2021-10-03T09:19:02.000Z</time>
      </trkpt>
      <trkpt lat="43.65662" lon="2.39914">
        <ele>638.008873</ele>
        <time>2021-10-03T09:19:03.000Z</time>
      </trkpt>
      <trkpt lat="43.65658" lon="2.39911">
        <ele>637.967049</ele>
        <time>2021-10-03T09:19:04.000Z</time>
      </trkpt>
      <trkpt lat="43.65653" lon="2.39909">
        <ele>637.921079</ele>
        <time>2021-10-03T09:19:05.000Z</time>
      </trkpt>
      <trkpt lat="43.65649" lon="2.39906">
        <ele>637.878433</ele>
        <time>2021-10-03T09:19:06.000Z</time>
      </trkpt>
      <trkpt lat="43.65645" lon="2.39903">
        <ele>637.837737</ele>
        <time>2021-10-03T09:19:07.000Z</time>
      </trkpt>
      <trkpt lat="43.6564" lon="2.399">
        <ele>637.788643</ele>
        <time>2021-10-03T09:19:08.000Z</time>
      </trkpt>
      <trkpt lat="43.65637" lon="2.39898">
        <ele>637.754023</ele>
        <time>2021-10-03T09:19:09.000Z</time>
      </trkpt>
      <trkpt lat="43.65632" lon="2.39894">
        <ele>637.703758</ele>
        <time>2021-10-03T09:19:10.000Z</time>
      </trkpt>
      <trkpt lat="43.65627" lon="2.3989">
        <ele>637.654055</ele>
        <time>2021-10-03T09:19:11.000Z</time>
      </trkpt>
      <trkpt lat="43.65623" lon="2.39887">
        <ele>637.606708</ele>
        <time>2021-10-03T09:19:12.000Z</time>
      </trkpt>
      <trkpt lat="43.65618" lon="2.39884">
        <ele>637.558705</ele>
        <time>2021-10-03T09:19:13.000Z</time>
      </trkpt>
      <trkpt lat="43.65613" lon="2.39881">
        <ele>637.508312</ele>
        <time>2021-10-03T09:19:14.000Z</time>
      </trkpt>
      <trkpt lat="43.65608" lon="2.39878">
        <ele>637.462606</ele>
        <time>2021-10-03T09:19:15.000Z</time>
      </trkpt>
      <trkpt lat="43.65603" lon="2.39875">
        <ele>637.412755</ele>
        <time>2021-10-03T09:19:16.000Z</time>
      </trkpt>
      <trkpt lat="43.65599" lon="2.39873">
        <ele>637.366785</ele>
        <time>2021-10-03T09:19:17.000Z</time>
      </trkpt>
      <trkpt lat="43.65594" lon="2.3987">
        <ele>637.32243</ele>
        <time>2021-10-03T09:19:18.000Z</time>
      </trkpt>
      <trkpt lat="43.6559" lon="2.39868">
        <ele>637.282013</ele>
        <time>2021-10-03T09:19:19.000Z</time>
      </trkpt>
      <trkpt lat="43.65587" lon="2.39867">
        <ele>637.251688</ele>
        <time>2021-10-03T09:19:20.000Z</time>
      </trkpt>
      <trkpt lat="43.65583" lon="2.39866">
        <ele>637.219897</ele>
        <time>2021-10-03T09:19:21.000Z</time>
      </trkpt>
      <trkpt lat="43.65581" lon="2.39864">
        <ele>637.193283</ele>
        <time>2021-10-03T09:19:22.000Z</time>
      </trkpt>
      <trkpt lat="43.65578" lon="2.39863">
        <ele>637.171137</ele>
        <time>2021-10-03T09:19:23.000Z</time>
      </trkpt>
      <trkpt lat="43.65576" lon="2.39863">
        <ele>637.157989</ele>
        <time>2021-10-03T09:19:24.000Z</time>
      </trkpt>
      <trkpt lat="43.65574" lon="2.39863">
        <ele>637.144991</ele>
        <time>2021-10-03T09:19:25.000Z</time>
      </trkpt>
      <trkpt lat="43.65572" lon="2.39863">
        <ele>637.125053</ele>
        <time>2021-10-03T09:19:26.000Z</time>
      </trkpt>
      <trkpt lat="43.65568" lon="2.39864">
        <ele>637.100859</ele>
        <time>2021-10-03T09:19:27.000Z</time>
      </trkpt>
      <trkpt lat="43.65565" lon="2.39864">
        <ele>637.076869</ele>
        <time>2021-10-03T09:19:28.000Z</time>
      </trkpt>
      <trkpt lat="43.6556" lon="2.39864">
        <ele>637.048663</ele>
        <time>2021-10-03T09:19:29.000Z</time>
      </trkpt>
      <trkpt lat="43.65556" lon="2.39863">
        <ele>637.019824</ele>
        <time>2021-10-03T09:19:30.000Z</time>
      </trkpt>
      <trkpt lat="43.65552" lon="2.39863">
        <ele>636.988351</ele>
        <time>2021-10-03T09:19:31.000Z</time>
      </trkpt>
      <trkpt lat="43.65548" lon="2.39864">
        <ele>636.96157</ele>
        <time>2021-10-03T09:19:32.000Z</time>
      </trkpt>
      <trkpt lat="43.65544" lon="2.39866">
        <ele>636.937154</ele>
        <time>2021-10-03T09:19:33.000Z</time>
      </trkpt>
      <trkpt lat="43.6554" lon="2.39868">
        <ele>636.907071</ele>
        <time>2021-10-03T09:19:34.000Z</time>
      </trkpt>
      <trkpt lat="43.65537" lon="2.39869">
        <ele>636.882002</ele>
        <time>2021-10-03T09:19:35.000Z</time>
      </trkpt>
      <trkpt lat="43.65533" lon="2.3987">
        <ele>636.857996</ele>
        <time>2021-10-03T09:19:36.000Z</time>
      </trkpt>
      <trkpt lat="43.6553" lon="2.39871">
        <ele>636.834479</ele>
        <time>2021-10-03T09:19:37.000Z</time>
      </trkpt>
      <trkpt lat="43.65526" lon="2.39873">
        <ele>636.803924</ele>
        <time>2021-10-03T09:19:38.000Z</time>
      </trkpt>
      <trkpt lat="43.65522" lon="2.39875">
        <ele>636.775466</ele>
        <time>2021-10-03T09:19:39.000Z</time>
      </trkpt>
      <trkpt lat="43.65518" lon="2.39877">
        <ele>636.750187</ele>
        <time>2021-10-03T09:19:40.000Z</time>
      </trkpt>
      <trkpt lat="43.65516" lon="2.39879">
        <ele>636.735067</ele>
        <time>2021-10-03T09:19:41.000Z</time>
      </trkpt>
      <trkpt lat="43.65514" lon="2.39879">
        <ele>636.716067</ele>
        <time>2021-10-03T09:19:42.000Z</time>
      </trkpt>
      <trkpt lat="43.65512" lon="2.3988">
        <ele>636.702918</ele>
        <time>2021-10-03T09:19:43.000Z</time>
      </trkpt>
      <trkpt lat="43.65511" lon="2.3988">
        <ele>636.694576</ele>
        <time>2021-10-03T09:19:44.000Z</time>
      </trkpt>
      <trkpt lat="43.65509" lon="2.39881">
        <ele>636.680904</ele>
        <time>2021-10-03T09:19:45.000Z</time>
      </trkpt>
      <trkpt lat="43.65509" lon="2.39881">
        <ele>636.68022</ele>
        <time>2021-10-03T09:19:46.000Z</time>
      </trkpt>
      <trkpt lat="43.65504" lon="2.39882">
        <ele>636.645158</ele>
        <time>2021-10-03T09:19:47.000Z</time>
      </trkpt>
      <trkpt lat="43.65497" lon="2.39885">
        <ele>636.598208</ele>
        <time>2021-10-03T09:19:49.000Z</time>
      </trkpt>
      <trkpt lat="43.65494" lon="2.39884">
        <ele>636.574759</ele>
        <time>2021-10-03T09:19:50.000Z</time>
      </trkpt>
      <trkpt lat="43.65491" lon="2.39884">
        <ele>636.558311</ele>
        <time>2021-10-03T09:19:51.000Z</time>
      </trkpt>
      <trkpt lat="43.65488" lon="2.39885">
        <ele>636.535648</ele>
        <time>2021-10-03T09:19:52.000Z</time>
      </trkpt>
      <trkpt lat="43.65485" lon="2.39885">
        <ele>636.512132</ele>
        <time>2021-10-03T09:19:53.000Z</time>
      </trkpt>
      <trkpt lat="43.6548" lon="2.39886">
        <ele>636.477836</ele>
        <time>2021-10-03T09:19:54.000Z</time>
      </trkpt>
      <trkpt lat="43.65475" lon="2.39886">
        <ele>636.444315</ele>
        <time>2021-10-03T09:19:55.000Z</time>
      </trkpt>
      <trkpt lat="43.6547" lon="2.39886">
        <ele>636.415475</ele>
        <time>2021-10-03T09:19:56.000Z</time>
      </trkpt>
      <trkpt lat="43.65466" lon="2.39887">
        <ele>636.386041</ele>
        <time>2021-10-03T09:19:57.000Z</time>
      </trkpt>
      <trkpt lat="43.65462" lon="2.39886">
        <ele>636.357975</ele>
        <time>2021-10-03T09:19:58.000Z</time>
      </trkpt>
      <trkpt lat="43.65458" lon="2.39887">
        <ele>636.329034</ele>
        <time>2021-10-03T09:19:59.000Z</time>
      </trkpt>
      <trkpt lat="43.65454" lon="2.39888">
        <ele>636.302239</ele>
        <time>2021-10-03T09:20:00.000Z</time>
      </trkpt>
      <trkpt lat="43.6545" lon="2.39886">
        <ele>636.277569</ele>
        <time>2021-10-03T09:20:01.000Z</time>
      </trkpt>
      <trkpt lat="43.65446" lon="2.39884">
        <ele>636.243272</ele>
        <time>2021-10-03T09:20:02.000Z</time>
      </trkpt>
      <trkpt lat="43.65443" lon="2.39881">
        <ele>636.21711</ele>
        <time>2021-10-03T09:20:03.000Z</time>
      </trkpt>
      <trkpt lat="43.65439" lon="2.39876">
        <ele>636.184905</ele>
        <time>2021-10-03T09:20:04.000Z</time>
      </trkpt>
      <trkpt lat="43.65437" lon="2.39871">
        <ele>636.153225</ele>
        <time>2021-10-03T09:20:05.000Z</time>
      </trkpt>
      <trkpt lat="43.65434" lon="2.39866">
        <ele>636.120735</ele>
        <time>2021-10-03T09:20:06.000Z</time>
      </trkpt>
      <trkpt lat="43.65432" lon="2.39862">
        <ele>636.09703</ele>
        <time>2021-10-03T09:20:07.000Z</time>
      </trkpt>
      <trkpt lat="43.65429" lon="2.39858">
        <ele>636.067332</ele>
        <time>2021-10-03T09:20:08.000Z</time>
      </trkpt>
      <trkpt lat="43.65425" lon="2.39855">
        <ele>636.040506</ele>
        <time>2021-10-03T09:20:09.000Z</time>
      </trkpt>
      <trkpt lat="43.65422" lon="2.39853">
        <ele>636.014824</ele>
        <time>2021-10-03T09:20:10.000Z</time>
      </trkpt>
      <trkpt lat="43.65418" lon="2.39849">
        <ele>635.982179</ele>
        <time>2021-10-03T09:20:11.000Z</time>
      </trkpt>
      <trkpt lat="43.65415" lon="2.39845">
        <ele>635.953317</ele>
        <time>2021-10-03T09:20:12.000Z</time>
      </trkpt>
      <trkpt lat="43.65412" lon="2.39841">
        <ele>635.817839</ele>
        <time>2021-10-03T09:20:13.000Z</time>
      </trkpt>
      <trkpt lat="43.65409" lon="2.39837">
        <ele>635.651366</ele>
        <time>2021-10-03T09:20:14.000Z</time>
      </trkpt>
      <trkpt lat="43.65405" lon="2.39834">
        <ele>635.467276</ele>
        <time>2021-10-03T09:20:15.000Z</time>
      </trkpt>
      <trkpt lat="43.65401" lon="2.39832">
        <ele>635.293968</ele>
        <time>2021-10-03T09:20:16.000Z</time>
      </trkpt>
      <trkpt lat="43.65397" lon="2.39829">
        <ele>635.11401</ele>
        <time>2021-10-03T09:20:17.000Z</time>
      </trkpt>
      <trkpt lat="43.65394" lon="2.39826">
        <ele>634.946164</ele>
        <time>2021-10-03T09:20:18.000Z</time>
      </trkpt>
      <trkpt lat="43.65391" lon="2.39821">
        <ele>634.745079</ele>
        <time>2021-10-03T09:20:19.000Z</time>
      </trkpt>
      <trkpt lat="43.65386" lon="2.39817">
        <ele>634.532232</ele>
        <time>2021-10-03T09:20:20.000Z</time>
      </trkpt>
      <trkpt lat="43.65382" lon="2.39813">
        <ele>634.302099</ele>
        <time>2021-10-03T09:20:21.000Z</time>
      </trkpt>
      <trkpt lat="43.65378" lon="2.39809">
        <ele>634.085747</ele>
        <time>2021-10-03T09:20:22.000Z</time>
      </trkpt>
      <trkpt lat="43.65374" lon="2.39805">
        <ele>633.879156</ele>
        <time>2021-10-03T09:20:23.000Z</time>
      </trkpt>
      <trkpt lat="43.65369" lon="2.398">
        <ele>633.624739</ele>
        <time>2021-10-03T09:20:24.000Z</time>
      </trkpt>
      <trkpt lat="43.65365" lon="2.39797">
        <ele>633.449871</ele>
        <time>2021-10-03T09:20:25.000Z</time>
      </trkpt>
      <trkpt lat="43.65361" lon="2.39794">
        <ele>633.258824</ele>
        <time>2021-10-03T09:20:26.000Z</time>
      </trkpt>
      <trkpt lat="43.65356" lon="2.39791">
        <ele>633.016732</ele>
        <time>2021-10-03T09:20:27.000Z</time>
      </trkpt>
      <trkpt lat="43.65351" lon="2.39786">
        <ele>632.776217</ele>
        <time>2021-10-03T09:20:28.000Z</time>
      </trkpt>
      <trkpt lat="43.65348" lon="2.39782">
        <ele>632.580284</ele>
        <time>2021-10-03T09:20:29.000Z</time>
      </trkpt>
      <trkpt lat="43.65344" lon="2.39776">
        <ele>632.343333</ele>
        <time>2021-10-03T09:20:30.000Z</time>
      </trkpt>
      <trkpt lat="43.65341" lon="2.3977">
        <ele>632.118845</ele>
        <time>2021-10-03T09:20:31.000Z</time>
      </trkpt>
      <trkpt lat="43.65339" lon="2.39763">
        <ele>631.893361</ele>
        <time>2021-10-03T09:20:32.000Z</time>
      </trkpt>
      <trkpt lat="43.65337" lon="2.39756">
        <ele>631.652455</ele>
        <time>2021-10-03T09:20:33.000Z</time>
      </trkpt>
      <trkpt lat="43.65336" lon="2.39748">
        <ele>631.421642</ele>
        <time>2021-10-03T09:20:34.000Z</time>
      </trkpt>
      <trkpt lat="43.65334" lon="2.3974">
        <ele>631.156682</ele>
        <time>2021-10-03T09:20:35.000Z</time>
      </trkpt>
      <trkpt lat="43.65333" lon="2.39731">
        <ele>630.881514</ele>
        <time>2021-10-03T09:20:36.000Z</time>
      </trkpt>
      <trkpt lat="43.65331" lon="2.39723">
        <ele>630.608962</ele>
        <time>2021-10-03T09:20:37.000Z</time>
      </trkpt>
      <trkpt lat="43.6533" lon="2.39713">
        <ele>630.313136</ele>
        <time>2021-10-03T09:20:38.000Z</time>
      </trkpt>
      <trkpt lat="43.65329" lon="2.39704">
        <ele>630.037593</ele>
        <time>2021-10-03T09:20:39.000Z</time>
      </trkpt>
      <trkpt lat="43.65327" lon="2.39694">
        <ele>629.732809</ele>
        <time>2021-10-03T09:20:40.000Z</time>
      </trkpt>
      <trkpt lat="43.65325" lon="2.39686">
        <ele>629.448034</ele>
        <time>2021-10-03T09:20:41.000Z</time>
      </trkpt>
      <trkpt lat="43.65323" lon="2.39677">
        <ele>629.180361</ele>
        <time>2021-10-03T09:20:42.000Z</time>
      </trkpt>
      <trkpt lat="43.6532" lon="2.3967">
        <ele>628.929629</ele>
        <time>2021-10-03T09:20:43.000Z</time>
      </trkpt>
      <trkpt lat="43.65318" lon="2.39664">
        <ele>628.711522</ele>
        <time>2021-10-03T09:20:44.000Z</time>
      </trkpt>
      <trkpt lat="43.65315" lon="2.39656">
        <ele>628.456517</ele>
        <time>2021-10-03T09:20:45.000Z</time>
      </trkpt>
      <trkpt lat="43.65312" lon="2.3965">
        <ele>628.282486</ele>
        <time>2021-10-03T09:20:46.000Z</time>
      </trkpt>
      <trkpt lat="43.65309" lon="2.39645">
        <ele>628.146845</ele>
        <time>2021-10-03T09:20:47.000Z</time>
      </trkpt>
      <trkpt lat="43.65306" lon="2.39637">
        <ele>627.975703</ele>
        <time>2021-10-03T09:20:48.000Z</time>
      </trkpt>
      <trkpt lat="43.65304" lon="2.3963">
        <ele>627.803105</ele>
        <time>2021-10-03T09:20:49.000Z</time>
      </trkpt>
      <trkpt lat="43.65302" lon="2.39623">
        <ele>627.655355</ele>
        <time>2021-10-03T09:20:50.000Z</time>
      </trkpt>
      <trkpt lat="43.653" lon="2.39617">
        <ele>627.518214</ele>
        <time>2021-10-03T09:20:51.000Z</time>
      </trkpt>
      <trkpt lat="43.65299" lon="2.3961">
        <ele>627.378251</ele>
        <time>2021-10-03T09:20:52.000Z</time>
      </trkpt>
      <trkpt lat="43.65297" lon="2.39603">
        <ele>627.229426</ele>
        <time>2021-10-03T09:20:53.000Z</time>
      </trkpt>
      <trkpt lat="43.65295" lon="2.39597">
        <ele>627.092304</ele>
        <time>2021-10-03T09:20:54.000Z</time>
      </trkpt>
      <trkpt lat="43.65293" lon="2.3959">
        <ele>626.942967</ele>
        <time>2021-10-03T09:20:55.000Z</time>
      </trkpt>
      <trkpt lat="43.6529" lon="2.39585">
        <ele>626.815782</ele>
        <time>2021-10-03T09:20:56.000Z</time>
      </trkpt>
      <trkpt lat="43.65287" lon="2.39581">
        <ele>626.69445</ele>
        <time>2021-10-03T09:20:57.000Z</time>
      </trkpt>
      <trkpt lat="43.65285" lon="2.39577">
        <ele>626.591624</ele>
        <time>2021-10-03T09:20:58.000Z</time>
      </trkpt>
      <trkpt lat="43.65283" lon="2.39573">
        <ele>626.483965</ele>
        <time>2021-10-03T09:20:59.000Z</time>
      </trkpt>
      <trkpt lat="43.65281" lon="2.3957">
        <ele>626.406237</ele>
        <time>2021-10-03T09:21:00.000Z</time>
      </trkpt>
      <trkpt lat="43.65279" lon="2.39567">
        <ele>626.329457</ele>
        <time>2021-10-03T09:21:01.000Z</time>
      </trkpt>
      <trkpt lat="43.65277" lon="2.39563">
        <ele>626.224313</ele>
        <time>2021-10-03T09:21:02.000Z</time>
      </trkpt>
      <trkpt lat="43.65274" lon="2.3956">
        <ele>626.129208</ele>
        <time>2021-10-03T09:21:03.000Z</time>
      </trkpt>
      <trkpt lat="43.65271" lon="2.39557">
        <ele>626.023671</ele>
        <time>2021-10-03T09:21:04.000Z</time>
      </trkpt>
      <trkpt lat="43.65267" lon="2.39555">
        <ele>625.918746</ele>
        <time>2021-10-03T09:21:05.000Z</time>
      </trkpt>
      <trkpt lat="43.65264" lon="2.39554">
        <ele>625.826206</ele>
        <time>2021-10-03T09:21:06.000Z</time>
      </trkpt>
      <trkpt lat="43.65261" lon="2.39552">
        <ele>625.713028</ele>
        <time>2021-10-03T09:21:07.000Z</time>
      </trkpt>
      <trkpt lat="43.65257" lon="2.3955">
        <ele>625.602225</ele>
        <time>2021-10-03T09:21:08.000Z</time>
      </trkpt>
      <trkpt lat="43.65253" lon="2.3955">
        <ele>625.495083</ele>
        <time>2021-10-03T09:21:09.000Z</time>
      </trkpt>
      <trkpt lat="43.65248" lon="2.3955">
        <ele>625.368231</ele>
        <time>2021-10-03T09:21:10.000Z</time>
      </trkpt>
      <trkpt lat="43.65244" lon="2.3955">
        <ele>625.229799</ele>
        <time>2021-10-03T09:21:11.000Z</time>
      </trkpt>
      <trkpt lat="43.65239" lon="2.39548">
        <ele>625.084725</ele>
        <time>2021-10-03T09:21:12.000Z</time>
      </trkpt>
      <trkpt lat="43.65233" lon="2.39545">
        <ele>624.912878</ele>
        <time>2021-10-03T09:21:13.000Z</time>
      </trkpt>
      <trkpt lat="43.65228" lon="2.39542">
        <ele>624.771261</ele>
        <time>2021-10-03T09:21:14.000Z</time>
      </trkpt>
      <trkpt lat="43.65225" lon="2.39539">
        <ele>624.657682</ele>
        <time>2021-10-03T09:21:15.000Z</time>
      </trkpt>
      <trkpt lat="43.65221" lon="2.39535">
        <ele>624.509299</ele>
        <time>2021-10-03T09:21:16.000Z</time>
      </trkpt>
      <trkpt lat="43.65216" lon="2.39532">
        <ele>624.373179</ele>
        <time>2021-10-03T09:21:17.000Z</time>
      </trkpt>
      <trkpt lat="43.65212" lon="2.39528">
        <ele>624.233935</ele>
        <time>2021-10-03T09:21:18.000Z</time>
      </trkpt>
      <trkpt lat="43.65209" lon="2.39524">
        <ele>624.118532</ele>
        <time>2021-10-03T09:21:19.000Z</time>
      </trkpt>
      <trkpt lat="43.65206" lon="2.3952">
        <ele>624.003879</ele>
        <time>2021-10-03T09:21:20.000Z</time>
      </trkpt>
      <trkpt lat="43.65203" lon="2.39517">
        <ele>623.888475</ele>
        <time>2021-10-03T09:21:21.000Z</time>
      </trkpt>
      <trkpt lat="43.652" lon="2.39512">
        <ele>623.767725</ele>
        <time>2021-10-03T09:21:22.000Z</time>
      </trkpt>
      <trkpt lat="43.65198" lon="2.39506">
        <ele>623.634904</ele>
        <time>2021-10-03T09:21:23.000Z</time>
      </trkpt>
      <trkpt lat="43.65196" lon="2.39501">
        <ele>623.512106</ele>
        <time>2021-10-03T09:21:24.000Z</time>
      </trkpt>
      <trkpt lat="43.65193" lon="2.39496">
        <ele>623.383279</ele>
        <time>2021-10-03T09:21:25.000Z</time>
      </trkpt>
      <trkpt lat="43.65191" lon="2.39491">
        <ele>623.305867</ele>
        <time>2021-10-03T09:21:26.000Z</time>
      </trkpt>
      <trkpt lat="43.65189" lon="2.39486">
        <ele>623.295019</ele>
        <time>2021-10-03T09:21:27.000Z</time>
      </trkpt>
      <trkpt lat="43.65187" lon="2.39481">
        <ele>623.284794</ele>
        <time>2021-10-03T09:21:28.000Z</time>
      </trkpt>
      <trkpt lat="43.65184" lon="2.39476">
        <ele>623.272983</ele>
        <time>2021-10-03T09:21:29.000Z</time>
      </trkpt>
      <trkpt lat="43.65181" lon="2.3947">
        <ele>623.259899</ele>
        <time>2021-10-03T09:21:30.000Z</time>
      </trkpt>
      <trkpt lat="43.65178" lon="2.39463">
        <ele>623.246661</ele>
        <time>2021-10-03T09:21:31.000Z</time>
      </trkpt>
      <trkpt lat="43.65175" lon="2.39458">
        <ele>623.23383</ele>
        <time>2021-10-03T09:21:32.000Z</time>
      </trkpt>
      <trkpt lat="43.65172" lon="2.39453">
        <ele>623.223151</ele>
        <time>2021-10-03T09:21:33.000Z</time>
      </trkpt>
      <trkpt lat="43.6517" lon="2.39448">
        <ele>623.213337</ele>
        <time>2021-10-03T09:21:34.000Z</time>
      </trkpt>
      <trkpt lat="43.65167" lon="2.39443">
        <ele>623.202529</ele>
        <time>2021-10-03T09:21:35.000Z</time>
      </trkpt>
      <trkpt lat="43.65166" lon="2.39438">
        <ele>623.193571</ele>
        <time>2021-10-03T09:21:36.000Z</time>
      </trkpt>
      <trkpt lat="43.65165" lon="2.39433">
        <ele>623.184068</ele>
        <time>2021-10-03T09:21:37.000Z</time>
      </trkpt>
      <trkpt lat="43.65165" lon="2.39428">
        <ele>623.175064</ele>
        <time>2021-10-03T09:21:38.000Z</time>
      </trkpt>
      <trkpt lat="43.65164" lon="2.39424">
        <ele>623.168497</ele>
        <time>2021-10-03T09:21:39.000Z</time>
      </trkpt>
      <trkpt lat="43.65164" lon="2.39418">
        <ele>623.157921</ele>
        <time>2021-10-03T09:21:40.000Z</time>
      </trkpt>
      <trkpt lat="43.65163" lon="2.39412">
        <ele>623.146716</ele>
        <time>2021-10-03T09:21:41.000Z</time>
      </trkpt>
      <trkpt lat="43.65162" lon="2.39406">
        <ele>623.135489</ele>
        <time>2021-10-03T09:21:42.000Z</time>
      </trkpt>
      <trkpt lat="43.65161" lon="2.39401">
        <ele>623.126484</ele>
        <time>2021-10-03T09:21:43.000Z</time>
      </trkpt>
      <trkpt lat="43.65159" lon="2.39395">
        <ele>623.115787</ele>
        <time>2021-10-03T09:21:44.000Z</time>
      </trkpt>
      <trkpt lat="43.65157" lon="2.3939">
        <ele>623.105089</ele>
        <time>2021-10-03T09:21:45.000Z</time>
      </trkpt>
      <trkpt lat="43.65155" lon="2.39383">
        <ele>623.091595</ele>
        <time>2021-10-03T09:21:46.000Z</time>
      </trkpt>
      <trkpt lat="43.65153" lon="2.39376">
        <ele>623.07836</ele>
        <time>2021-10-03T09:21:47.000Z</time>
      </trkpt>
      <trkpt lat="43.6515" lon="2.39371">
        <ele>623.067361</ele>
        <time>2021-10-03T09:21:48.000Z</time>
      </trkpt>
      <trkpt lat="43.65147" lon="2.39365">
        <ele>623.054704</ele>
        <time>2021-10-03T09:21:49.000Z</time>
      </trkpt>
      <trkpt lat="43.65145" lon="2.39359">
        <ele>623.042598</ele>
        <time>2021-10-03T09:21:50.000Z</time>
      </trkpt>
      <trkpt lat="43.65142" lon="2.39354">
        <ele>623.032472</ele>
        <time>2021-10-03T09:21:51.000Z</time>
      </trkpt>
      <trkpt lat="43.6514" lon="2.3935">
        <ele>623.023086</ele>
        <time>2021-10-03T09:21:52.000Z</time>
      </trkpt>
      <trkpt lat="43.65138" lon="2.39346">
        <ele>623.015642</ele>
        <time>2021-10-03T09:21:53.000Z</time>
      </trkpt>
      <trkpt lat="43.65137" lon="2.39341">
        <ele>623.006395</ele>
        <time>2021-10-03T09:21:54.000Z</time>
      </trkpt>
      <trkpt lat="43.65137" lon="2.39336">
        <ele>622.996212</ele>
        <time>2021-10-03T09:21:55.000Z</time>
      </trkpt>
      <trkpt lat="43.65138" lon="2.3933">
        <ele>622.985177</ele>
        <time>2021-10-03T09:21:56.000Z</time>
      </trkpt>
      <trkpt lat="43.65138" lon="2.39323">
        <ele>622.97359</ele>
        <time>2021-10-03T09:21:57.000Z</time>
      </trkpt>
      <trkpt lat="43.65139" lon="2.39315">
        <ele>622.959969</ele>
        <time>2021-10-03T09:21:58.000Z</time>
      </trkpt>
      <trkpt lat="43.65139" lon="2.39308">
        <ele>622.947183</ele>
        <time>2021-10-03T09:21:59.000Z</time>
      </trkpt>
      <trkpt lat="43.6514" lon="2.393">
        <ele>622.933297</ele>
        <time>2021-10-03T09:22:00.000Z</time>
      </trkpt>
      <trkpt lat="43.65141" lon="2.39295">
        <ele>622.922816</ele>
        <time>2021-10-03T09:22:01.000Z</time>
      </trkpt>
      <trkpt lat="43.65141" lon="2.39288">
        <ele>622.910527</ele>
        <time>2021-10-03T09:22:02.000Z</time>
      </trkpt>
      <trkpt lat="43.65142" lon="2.3928">
        <ele>622.897602</ele>
        <time>2021-10-03T09:22:03.000Z</time>
      </trkpt>
      <trkpt lat="43.65143" lon="2.39273">
        <ele>622.885162</ele>
        <time>2021-10-03T09:22:04.000Z</time>
      </trkpt>
      <trkpt lat="43.65143" lon="2.39266">
        <ele>622.873187</ele>
        <time>2021-10-03T09:22:05.000Z</time>
      </trkpt>
      <trkpt lat="43.65144" lon="2.39259">
        <ele>622.356909</ele>
        <time>2021-10-03T09:22:06.000Z</time>
      </trkpt>
      <trkpt lat="43.65144" lon="2.39253">
        <ele>621.881055</ele>
        <time>2021-10-03T09:22:07.000Z</time>
      </trkpt>
      <trkpt lat="43.65146" lon="2.39247">
        <ele>621.354829</ele>
        <time>2021-10-03T09:22:08.000Z</time>
      </trkpt>
      <trkpt lat="43.65147" lon="2.39242">
        <ele>620.93188</ele>
        <time>2021-10-03T09:22:09.000Z</time>
      </trkpt>
      <trkpt lat="43.65146" lon="2.39234">
        <ele>620.332798</ele>
        <time>2021-10-03T09:22:10.000Z</time>
      </trkpt>
      <trkpt lat="43.65146" lon="2.39227">
        <ele>619.820042</ele>
        <time>2021-10-03T09:22:11.000Z</time>
      </trkpt>
      <trkpt lat="43.65146" lon="2.3922">
        <ele>619.269468</ele>
        <time>2021-10-03T09:22:12.000Z</time>
      </trkpt>
      <trkpt lat="43.65144" lon="2.39212">
        <ele>618.606267</ele>
        <time>2021-10-03T09:22:13.000Z</time>
      </trkpt>
      <trkpt lat="43.65143" lon="2.39206">
        <ele>618.11786</ele>
        <time>2021-10-03T09:22:14.000Z</time>
      </trkpt>
      <trkpt lat="43.65143" lon="2.392">
        <ele>617.640917</ele>
        <time>2021-10-03T09:22:15.000Z</time>
      </trkpt>
      <trkpt lat="43.65143" lon="2.39193">
        <ele>617.143699</ele>
        <time>2021-10-03T09:22:16.000Z</time>
      </trkpt>
      <trkpt lat="43.65143" lon="2.39187">
        <ele>616.667846</ele>
        <time>2021-10-03T09:22:17.000Z</time>
      </trkpt>
      <trkpt lat="43.65144" lon="2.39182">
        <ele>616.224526</ele>
        <time>2021-10-03T09:22:18.000Z</time>
      </trkpt>
      <trkpt lat="43.65145" lon="2.39175">
        <ele>615.70591</ele>
        <time>2021-10-03T09:22:19.000Z</time>
      </trkpt>
      <trkpt lat="43.65146" lon="2.39169">
        <ele>615.213525</ele>
        <time>2021-10-03T09:22:20.000Z</time>
      </trkpt>
      <trkpt lat="43.65146" lon="2.39163">
        <ele>614.786229</ele>
        <time>2021-10-03T09:22:21.000Z</time>
      </trkpt>
      <trkpt lat="43.65145" lon="2.39157">
        <ele>614.273988</ele>
        <time>2021-10-03T09:22:22.000Z</time>
      </trkpt>
      <trkpt lat="43.65144" lon="2.39152">
        <ele>613.923985</ele>
        <time>2021-10-03T09:22:23.000Z</time>
      </trkpt>
      <trkpt lat="43.65143" lon="2.39149">
        <ele>613.634254</ele>
        <time>2021-10-03T09:22:24.000Z</time>
      </trkpt>
      <trkpt lat="43.65142" lon="2.39146">
        <ele>613.367938</ele>
        <time>2021-10-03T09:22:25.000Z</time>
      </trkpt>
      <trkpt lat="43.6514" lon="2.39144">
        <ele>613.099386</ele>
        <time>2021-10-03T09:22:26.000Z</time>
      </trkpt>
      <trkpt lat="43.65138" lon="2.39142">
        <ele>612.803402</ele>
        <time>2021-10-03T09:22:27.000Z</time>
      </trkpt>
      <trkpt lat="43.65135" lon="2.3914">
        <ele>612.500884</ele>
        <time>2021-10-03T09:22:28.000Z</time>
      </trkpt>
      <trkpt lat="43.65132" lon="2.39139">
        <ele>612.191244</ele>
        <time>2021-10-03T09:22:29.000Z</time>
      </trkpt>
      <trkpt lat="43.6513" lon="2.39138">
        <ele>611.884246</ele>
        <time>2021-10-03T09:22:30.000Z</time>
      </trkpt>
      <trkpt lat="43.65127" lon="2.39136">
        <ele>611.541694</ele>
        <time>2021-10-03T09:22:31.000Z</time>
      </trkpt>
      <trkpt lat="43.65123" lon="2.39135">
        <ele>611.162911</ele>
        <time>2021-10-03T09:22:32.000Z</time>
      </trkpt>
      <trkpt lat="43.6512" lon="2.39135">
        <ele>610.787024</ele>
        <time>2021-10-03T09:22:33.000Z</time>
      </trkpt>
      <trkpt lat="43.65117" lon="2.39136">
        <ele>610.457402</ele>
        <time>2021-10-03T09:22:34.000Z</time>
      </trkpt>
      <trkpt lat="43.65114" lon="2.39137">
        <ele>610.129025</ele>
        <time>2021-10-03T09:22:35.000Z</time>
      </trkpt>
      <trkpt lat="43.65111" lon="2.39139">
        <ele>609.826507</ele>
        <time>2021-10-03T09:22:36.000Z</time>
      </trkpt>
      <trkpt lat="43.65108" lon="2.3914">
        <ele>609.412486</ele>
        <time>2021-10-03T09:22:37.000Z</time>
      </trkpt>
      <trkpt lat="43.65105" lon="2.39142">
        <ele>609.062308</ele>
        <time>2021-10-03T09:22:38.000Z</time>
      </trkpt>
      <trkpt lat="43.651" lon="2.39145">
        <ele>608.543556</ele>
        <time>2021-10-03T09:22:39.000Z</time>
      </trkpt>
      <trkpt lat="43.65096" lon="2.39147">
        <ele>608.06657</ele>
        <time>2021-10-03T09:22:40.000Z</time>
      </trkpt>
      <trkpt lat="43.65093" lon="2.39149">
        <ele>607.702449</ele>
        <time>2021-10-03T09:22:41.000Z</time>
      </trkpt>
      <trkpt lat="43.6509" lon="2.39152">
        <ele>607.349109</ele>
        <time>2021-10-03T09:22:42.000Z</time>
      </trkpt>
      <trkpt lat="43.65086" lon="2.39154">
        <ele>606.871018</ele>
        <time>2021-10-03T09:22:43.000Z</time>
      </trkpt>
      <trkpt lat="43.65084" lon="2.39156">
        <ele>606.542095</ele>
        <time>2021-10-03T09:22:44.000Z</time>
      </trkpt>
      <trkpt lat="43.65081" lon="2.39158">
        <ele>606.2194</ele>
        <time>2021-10-03T09:22:45.000Z</time>
      </trkpt>
      <trkpt lat="43.65079" lon="2.3916">
        <ele>605.944888</ele>
        <time>2021-10-03T09:22:46.000Z</time>
      </trkpt>
      <trkpt lat="43.65076" lon="2.39163">
        <ele>605.604334</ele>
        <time>2021-10-03T09:22:47.000Z</time>
      </trkpt>
      <trkpt lat="43.65074" lon="2.39164">
        <ele>605.324276</ele>
        <time>2021-10-03T09:22:48.000Z</time>
      </trkpt>
      <trkpt lat="43.65071" lon="2.39165">
        <ele>604.968584</ele>
        <time>2021-10-03T09:22:49.000Z</time>
      </trkpt>
      <trkpt lat="43.65068" lon="2.39163">
        <ele>604.648868</ele>
        <time>2021-10-03T09:22:50.000Z</time>
      </trkpt>
      <trkpt lat="43.65064" lon="2.39161">
        <ele>604.210006</ele>
        <time>2021-10-03T09:22:51.000Z</time>
      </trkpt>
      <trkpt lat="43.6506" lon="2.39158">
        <ele>603.718989</ele>
        <time>2021-10-03T09:22:52.000Z</time>
      </trkpt>
      <trkpt lat="43.65055" lon="2.39155">
        <ele>603.49252</ele>
        <time>2021-10-03T09:22:53.000Z</time>
      </trkpt>
      <trkpt lat="43.6505" lon="2.39151">
        <ele>603.391871</ele>
        <time>2021-10-03T09:22:54.000Z</time>
      </trkpt>
      <trkpt lat="43.65045" lon="2.39148">
        <ele>603.290802</ele>
        <time>2021-10-03T09:22:55.000Z</time>
      </trkpt>
      <trkpt lat="43.65041" lon="2.39145">
        <ele>603.195126</ele>
        <time>2021-10-03T09:22:56.000Z</time>
      </trkpt>
      <trkpt lat="43.65036" lon="2.39143">
        <ele>603.112185</ele>
        <time>2021-10-03T09:22:57.000Z</time>
      </trkpt>
      <trkpt lat="43.65032" lon="2.3914">
        <ele>603.026523</ele>
        <time>2021-10-03T09:22:58.000Z</time>
      </trkpt>
      <trkpt lat="43.65028" lon="2.39137">
        <ele>602.947792</ele>
        <time>2021-10-03T09:22:59.000Z</time>
      </trkpt>
      <trkpt lat="43.65024" lon="2.39134">
        <ele>602.867084</ele>
        <time>2021-10-03T09:23:00.000Z</time>
      </trkpt>
      <trkpt lat="43.6502" lon="2.3913">
        <ele>602.771495</ele>
        <time>2021-10-03T09:23:01.000Z</time>
      </trkpt>
      <trkpt lat="43.65016" lon="2.39125">
        <ele>602.672647</ele>
        <time>2021-10-03T09:23:02.000Z</time>
      </trkpt>
      <trkpt lat="43.65012" lon="2.3912">
        <ele>602.577485</ele>
        <time>2021-10-03T09:23:03.000Z</time>
      </trkpt>
      <trkpt lat="43.65008" lon="2.39115">
        <ele>602.480494</ele>
        <time>2021-10-03T09:23:04.000Z</time>
      </trkpt>
      <trkpt lat="43.65005" lon="2.3911">
        <ele>602.391983</ele>
        <time>2021-10-03T09:23:05.000Z</time>
      </trkpt>
      <trkpt lat="43.65002" lon="2.39105">
        <ele>602.311154</ele>
        <time>2021-10-03T09:23:06.000Z</time>
      </trkpt>
      <trkpt lat="43.65" lon="2.391">
        <ele>602.235874</ele>
        <time>2021-10-03T09:23:07.000Z</time>
      </trkpt>
      <trkpt lat="43.64999" lon="2.39095">
        <ele>602.159295</ele>
        <time>2021-10-03T09:23:08.000Z</time>
      </trkpt>
      <trkpt lat="43.64997" lon="2.39089">
        <ele>602.082845</ele>
        <time>2021-10-03T09:23:09.000Z</time>
      </trkpt>
      <trkpt lat="43.64996" lon="2.39085">
        <ele>602.019481</ele>
        <time>2021-10-03T09:23:10.000Z</time>
      </trkpt>
      <trkpt lat="43.64995" lon="2.3908">
        <ele>601.952066</ele>
        <time>2021-10-03T09:23:11.000Z</time>
      </trkpt>
      <trkpt lat="43.64993" lon="2.39076">
        <ele>601.898354</ele>
        <time>2021-10-03T09:23:12.000Z</time>
      </trkpt>
      <trkpt lat="43.64992" lon="2.39071">
        <ele>601.819988</ele>
        <time>2021-10-03T09:23:13.000Z</time>
      </trkpt>
      <trkpt lat="43.64989" lon="2.39065">
        <ele>601.729597</ele>
        <time>2021-10-03T09:23:14.000Z</time>
      </trkpt>
      <trkpt lat="43.64986" lon="2.3906">
        <ele>601.644178</ele>
        <time>2021-10-03T09:23:15.000Z</time>
      </trkpt>
      <trkpt lat="43.64982" lon="2.39056">
        <ele>601.555926</ele>
        <time>2021-10-03T09:23:16.000Z</time>
      </trkpt>
      <trkpt lat="43.64979" lon="2.39052">
        <ele>601.479033</ele>
        <time>2021-10-03T09:23:17.000Z</time>
      </trkpt>
      <trkpt lat="43.64976" lon="2.39048">
        <ele>601.399244</ele>
        <time>2021-10-03T09:23:18.000Z</time>
      </trkpt>
      <trkpt lat="43.64974" lon="2.39042">
        <ele>601.312446</ele>
        <time>2021-10-03T09:23:19.000Z</time>
      </trkpt>
      <trkpt lat="43.64972" lon="2.39036">
        <ele>601.232834</ele>
        <time>2021-10-03T09:23:20.000Z</time>
      </trkpt>
      <trkpt lat="43.6497" lon="2.39031">
        <ele>601.150764</ele>
        <time>2021-10-03T09:23:21.000Z</time>
      </trkpt>
      <trkpt lat="43.64969" lon="2.39025">
        <ele>601.067455</ele>
        <time>2021-10-03T09:23:22.000Z</time>
      </trkpt>
      <trkpt lat="43.64967" lon="2.39017">
        <ele>600.967931</ele>
        <time>2021-10-03T09:23:23.000Z</time>
      </trkpt>
      <trkpt lat="43.64965" lon="2.39009">
        <ele>600.848222</ele>
        <time>2021-10-03T09:23:24.000Z</time>
      </trkpt>
      <trkpt lat="43.64963" lon="2.38998">
        <ele>600.706916</ele>
        <time>2021-10-03T09:23:25.000Z</time>
      </trkpt>
      <trkpt lat="43.6496" lon="2.38988">
        <ele>600.560428</ele>
        <time>2021-10-03T09:23:26.000Z</time>
      </trkpt>
      <trkpt lat="43.64958" lon="2.38978">
        <ele>600.423444</ele>
        <time>2021-10-03T09:23:27.000Z</time>
      </trkpt>
      <trkpt lat="43.64955" lon="2.38968">
        <ele>600.220213</ele>
        <time>2021-10-03T09:23:28.000Z</time>
      </trkpt>
      <trkpt lat="43.64953" lon="2.38957">
        <ele>599.547495</ele>
        <time>2021-10-03T09:23:29.000Z</time>
      </trkpt>
      <trkpt lat="43.64953" lon="2.38946">
        <ele>598.874523</ele>
        <time>2021-10-03T09:23:30.000Z</time>
      </trkpt>
      <trkpt lat="43.64952" lon="2.38934">
        <ele>598.177319</ele>
        <time>2021-10-03T09:23:31.000Z</time>
      </trkpt>
      <trkpt lat="43.64952" lon="2.38923">
        <ele>597.471197</ele>
        <time>2021-10-03T09:23:32.000Z</time>
      </trkpt>
      <trkpt lat="43.64951" lon="2.38912">
        <ele>596.812912</ele>
        <time>2021-10-03T09:23:33.000Z</time>
      </trkpt>
      <trkpt lat="43.64951" lon="2.38901">
        <ele>596.136755</ele>
        <time>2021-10-03T09:23:34.000Z</time>
      </trkpt>
      <trkpt lat="43.6495" lon="2.38891">
        <ele>595.524319</ele>
        <time>2021-10-03T09:23:35.000Z</time>
      </trkpt>
      <trkpt lat="43.6495" lon="2.38882">
        <ele>594.97331</ele>
        <time>2021-10-03T09:23:36.000Z</time>
      </trkpt>
      <trkpt lat="43.64948" lon="2.38874">
        <ele>594.48202</ele>
        <time>2021-10-03T09:23:37.000Z</time>
      </trkpt>
      <trkpt lat="43.64948" lon="2.38867">
        <ele>594.035663</ele>
        <time>2021-10-03T09:23:38.000Z</time>
      </trkpt>
      <trkpt lat="43.64948" lon="2.38859">
        <ele>593.554769</ele>
        <time>2021-10-03T09:23:39.000Z</time>
      </trkpt>
      <trkpt lat="43.64948" lon="2.3885">
        <ele>592.994741</ele>
        <time>2021-10-03T09:23:40.000Z</time>
      </trkpt>
      <trkpt lat="43.64948" lon="2.38841">
        <ele>592.465149</ele>
        <time>2021-10-03T09:23:41.000Z</time>
      </trkpt>
      <trkpt lat="43.64947" lon="2.38833">
        <ele>591.968576</ele>
        <time>2021-10-03T09:23:42.000Z</time>
      </trkpt>
      <trkpt lat="43.64946" lon="2.38826">
        <ele>591.532534</ele>
        <time>2021-10-03T09:23:43.000Z</time>
      </trkpt>
      <trkpt lat="43.64943" lon="2.38819">
        <ele>591.075091</ele>
        <time>2021-10-03T09:23:44.000Z</time>
      </trkpt>
      <trkpt lat="43.6494" lon="2.38812">
        <ele>590.551729</ele>
        <time>2021-10-03T09:23:45.000Z</time>
      </trkpt>
      <trkpt lat="43.64936" lon="2.38805">
        <ele>590.002854</ele>
        <time>2021-10-03T09:23:46.000Z</time>
      </trkpt>
      <trkpt lat="43.64931" lon="2.38798">
        <ele>589.38321</ele>
        <time>2021-10-03T09:23:47.000Z</time>
      </trkpt>
      <trkpt lat="43.64925" lon="2.38789">
        <ele>588.709357</ele>
        <time>2021-10-03T09:23:48.000Z</time>
      </trkpt>
      <trkpt lat="43.6492" lon="2.3878">
        <ele>587.983501</ele>
        <time>2021-10-03T09:23:49.000Z</time>
      </trkpt>
      <trkpt lat="43.64915" lon="2.3877">
        <ele>587.219088</ele>
        <time>2021-10-03T09:23:50.000Z</time>
      </trkpt>
      <trkpt lat="43.64909" lon="2.38757">
        <ele>586.31607</ele>
        <time>2021-10-03T09:23:51.000Z</time>
      </trkpt>
      <trkpt lat="43.64904" lon="2.38741">
        <ele>585.208557</ele>
        <time>2021-10-03T09:23:52.000Z</time>
      </trkpt>
      <trkpt lat="43.64899" lon="2.38724">
        <ele>584.865858</ele>
        <time>2021-10-03T09:23:53.000Z</time>
      </trkpt>
      <trkpt lat="43.64896" lon="2.38707">
        <ele>584.534979</ele>
        <time>2021-10-03T09:23:54.000Z</time>
      </trkpt>
      <trkpt lat="43.64893" lon="2.38692">
        <ele>584.250687</ele>
        <time>2021-10-03T09:23:55.000Z</time>
      </trkpt>
      <trkpt lat="43.64889" lon="2.38676">
        <ele>583.945039</ele>
        <time>2021-10-03T09:23:56.000Z</time>
      </trkpt>
      <trkpt lat="43.64885" lon="2.38662">
        <ele>583.678222</ele>
        <time>2021-10-03T09:23:57.000Z</time>
      </trkpt>
      <trkpt lat="43.64882" lon="2.3865">
        <ele>583.432259</ele>
        <time>2021-10-03T09:23:58.000Z</time>
      </trkpt>
      <trkpt lat="43.64878" lon="2.38638">
        <ele>583.194005</ele>
        <time>2021-10-03T09:23:59.000Z</time>
      </trkpt>
      <trkpt lat="43.64875" lon="2.38626">
        <ele>582.973768</ele>
        <time>2021-10-03T09:24:00.000Z</time>
      </trkpt>
      <trkpt lat="43.64872" lon="2.38616">
        <ele>582.766341</ele>
        <time>2021-10-03T09:24:01.000Z</time>
      </trkpt>
      <trkpt lat="43.64869" lon="2.38606">
        <ele>582.573093</ele>
        <time>2021-10-03T09:24:02.000Z</time>
      </trkpt>
      <trkpt lat="43.64866" lon="2.38596">
        <ele>582.375809</ele>
        <time>2021-10-03T09:24:03.000Z</time>
      </trkpt>
      <trkpt lat="43.64863" lon="2.38587">
        <ele>582.187549</ele>
        <time>2021-10-03T09:24:04.000Z</time>
      </trkpt>
      <trkpt lat="43.6486" lon="2.38579">
        <ele>582.026567</ele>
        <time>2021-10-03T09:24:05.000Z</time>
      </trkpt>
      <trkpt lat="43.64857" lon="2.38571">
        <ele>581.867573</ele>
        <time>2021-10-03T09:24:06.000Z</time>
      </trkpt>
      <trkpt lat="43.64854" lon="2.38564">
        <ele>581.719559</ele>
        <time>2021-10-03T09:24:07.000Z</time>
      </trkpt>
      <trkpt lat="43.64852" lon="2.38559">
        <ele>581.611584</ele>
        <time>2021-10-03T09:24:08.000Z</time>
      </trkpt>
      <trkpt lat="43.64849" lon="2.38555">
        <ele>581.521463</ele>
        <time>2021-10-03T09:24:09.000Z</time>
      </trkpt>
      <trkpt lat="43.64847" lon="2.38553">
        <ele>581.436445</ele>
        <time>2021-10-03T09:24:10.000Z</time>
      </trkpt>
      <trkpt lat="43.64844" lon="2.38551">
        <ele>581.362455</ele>
        <time>2021-10-03T09:24:11.000Z</time>
      </trkpt>
      <trkpt lat="43.64841" lon="2.38551">
        <ele>581.294064</ele>
        <time>2021-10-03T09:24:12.000Z</time>
      </trkpt>
      <trkpt lat="43.64839" lon="2.38552">
        <ele>581.226092</ele>
        <time>2021-10-03T09:24:13.000Z</time>
      </trkpt>
      <trkpt lat="43.64835" lon="2.38554">
        <ele>581.12492</ele>
        <time>2021-10-03T09:24:14.000Z</time>
      </trkpt>
      <trkpt lat="43.64831" lon="2.38557">
        <ele>581.004998</ele>
        <time>2021-10-03T09:24:15.000Z</time>
      </trkpt>
      <trkpt lat="43.64826" lon="2.38561">
        <ele>580.874463</ele>
        <time>2021-10-03T09:24:16.000Z</time>
      </trkpt>
      <trkpt lat="43.64822" lon="2.38564">
        <ele>580.753672</ele>
        <time>2021-10-03T09:24:17.000Z</time>
      </trkpt>
      <trkpt lat="43.64817" lon="2.38567">
        <ele>580.64658</ele>
        <time>2021-10-03T09:24:18.000Z</time>
      </trkpt>
      <trkpt lat="43.64813" lon="2.38571">
        <ele>580.758177</ele>
        <time>2021-10-03T09:24:19.000Z</time>
      </trkpt>
      <trkpt lat="43.64808" lon="2.38575">
        <ele>580.873036</ele>
        <time>2021-10-03T09:24:20.000Z</time>
      </trkpt>
      <trkpt lat="43.64802" lon="2.38578">
        <ele>580.995385</ele>
        <time>2021-10-03T09:24:21.000Z</time>
      </trkpt>
      <trkpt lat="43.64798" lon="2.38581">
        <ele>581.104013</ele>
        <time>2021-10-03T09:24:22.000Z</time>
      </trkpt>
      <trkpt lat="43.64793" lon="2.38584">
        <ele>581.221352</ele>
        <time>2021-10-03T09:24:23.000Z</time>
      </trkpt>
      <trkpt lat="43.64787" lon="2.38587">
        <ele>581.342545</ele>
        <time>2021-10-03T09:24:24.000Z</time>
      </trkpt>
      <trkpt lat="43.64782" lon="2.3859">
        <ele>581.460699</ele>
        <time>2021-10-03T09:24:25.000Z</time>
      </trkpt>
      <trkpt lat="43.64777" lon="2.38593">
        <ele>581.572483</ele>
        <time>2021-10-03T09:24:26.000Z</time>
      </trkpt>
      <trkpt lat="43.64772" lon="2.38595">
        <ele>581.688162</ele>
        <time>2021-10-03T09:24:27.000Z</time>
      </trkpt>
      <trkpt lat="43.64766" lon="2.38598">
        <ele>581.804778</ele>
        <time>2021-10-03T09:24:28.000Z</time>
      </trkpt>
      <trkpt lat="43.64761" lon="2.386">
        <ele>581.92201</ele>
        <time>2021-10-03T09:24:29.000Z</time>
      </trkpt>
      <trkpt lat="43.64755" lon="2.38602">
        <ele>582.04447</ele>
        <time>2021-10-03T09:24:30.000Z</time>
      </trkpt>
      <trkpt lat="43.6475" lon="2.38604">
        <ele>582.152453</ele>
        <time>2021-10-03T09:24:31.000Z</time>
      </trkpt>
      <trkpt lat="43.64745" lon="2.38605">
        <ele>582.265108</ele>
        <time>2021-10-03T09:24:32.000Z</time>
      </trkpt>
      <trkpt lat="43.64739" lon="2.38606">
        <ele>582.385408</ele>
        <time>2021-10-03T09:24:33.000Z</time>
      </trkpt>
      <trkpt lat="43.64734" lon="2.38608">
        <ele>582.499071</ele>
        <time>2021-10-03T09:24:34.000Z</time>
      </trkpt>
      <trkpt lat="43.64728" lon="2.38608">
        <ele>582.618375</ele>
        <time>2021-10-03T09:24:35.000Z</time>
      </trkpt>
      <trkpt lat="43.64723" lon="2.38609">
        <ele>582.729764</ele>
        <time>2021-10-03T09:24:36.000Z</time>
      </trkpt>
      <trkpt lat="43.64717" lon="2.3861">
        <ele>582.842856</ele>
        <time>2021-10-03T09:24:37.000Z</time>
      </trkpt>
      <trkpt lat="43.64712" lon="2.38611">
        <ele>582.953385</ele>
        <time>2021-10-03T09:24:38.000Z</time>
      </trkpt>
      <trkpt lat="43.64707" lon="2.38611">
        <ele>583.065873</ele>
        <time>2021-10-03T09:24:39.000Z</time>
      </trkpt>
      <trkpt lat="43.64701" lon="2.38611">
        <ele>583.176331</ele>
        <time>2021-10-03T09:24:40.000Z</time>
      </trkpt>
      <trkpt lat="43.64696" lon="2.38611">
        <ele>583.280547</ele>
        <time>2021-10-03T09:24:41.000Z</time>
      </trkpt>
      <trkpt lat="43.64691" lon="2.38612">
        <ele>583.390953</ele>
        <time>2021-10-03T09:24:42.000Z</time>
      </trkpt>
      <trkpt lat="43.64686" lon="2.38611">
        <ele>583.488835</ele>
        <time>2021-10-03T09:24:43.000Z</time>
      </trkpt>
      <trkpt lat="43.64682" lon="2.38612">
        <ele>583.58265</ele>
        <time>2021-10-03T09:24:44.000Z</time>
      </trkpt>
      <trkpt lat="43.64677" lon="2.38612">
        <ele>583.686779</ele>
        <time>2021-10-03T09:24:45.000Z</time>
      </trkpt>
      <trkpt lat="43.64672" lon="2.38612">
        <ele>583.797401</ele>
        <time>2021-10-03T09:24:46.000Z</time>
      </trkpt>
      <trkpt lat="43.64667" lon="2.38613">
        <ele>583.902052</ele>
        <time>2021-10-03T09:24:47.000Z</time>
      </trkpt>
      <trkpt lat="43.64662" lon="2.38614">
        <ele>584.005425</ele>
        <time>2021-10-03T09:24:48.000Z</time>
      </trkpt>
      <trkpt lat="43.64657" lon="2.38615">
        <ele>584.11137</ele>
        <time>2021-10-03T09:24:49.000Z</time>
      </trkpt>
      <trkpt lat="43.64652" lon="2.38618">
        <ele>584.213235</ele>
        <time>2021-10-03T09:24:50.000Z</time>
      </trkpt>
      <trkpt lat="43.64648" lon="2.3862">
        <ele>584.317305</ele>
        <time>2021-10-03T09:24:51.000Z</time>
      </trkpt>
      <trkpt lat="43.64643" lon="2.38623">
        <ele>584.386574</ele>
        <time>2021-10-03T09:24:52.000Z</time>
      </trkpt>
      <trkpt lat="43.64639" lon="2.38627">
        <ele>584.400588</ele>
        <time>2021-10-03T09:24:53.000Z</time>
      </trkpt>
      <trkpt lat="43.64635" lon="2.38631">
        <ele>584.414952</ele>
        <time>2021-10-03T09:24:54.000Z</time>
      </trkpt>
      <trkpt lat="43.64631" lon="2.38635">
        <ele>584.42936</ele>
        <time>2021-10-03T09:24:55.000Z</time>
      </trkpt>
      <trkpt lat="43.64627" lon="2.3864">
        <ele>584.444467</ele>
        <time>2021-10-03T09:24:56.000Z</time>
      </trkpt>
      <trkpt lat="43.64624" lon="2.38645">
        <ele>584.45861</ele>
        <time>2021-10-03T09:24:57.000Z</time>
      </trkpt>
      <trkpt lat="43.6462" lon="2.3865">
        <ele>584.474707</ele>
        <time>2021-10-03T09:24:58.000Z</time>
      </trkpt>
      <trkpt lat="43.64616" lon="2.38656">
        <ele>584.489307</ele>
        <time>2021-10-03T09:24:59.000Z</time>
      </trkpt>
      <trkpt lat="43.64613" lon="2.38661">
        <ele>584.504882</ele>
        <time>2021-10-03T09:25:00.000Z</time>
      </trkpt>
      <trkpt lat="43.6461" lon="2.38667">
        <ele>584.520241</ele>
        <time>2021-10-03T09:25:01.000Z</time>
      </trkpt>
      <trkpt lat="43.64607" lon="2.38673">
        <ele>584.534757</ele>
        <time>2021-10-03T09:25:02.000Z</time>
      </trkpt>
      <trkpt lat="43.64604" lon="2.38679">
        <ele>584.550011</ele>
        <time>2021-10-03T09:25:03.000Z</time>
      </trkpt>
      <trkpt lat="43.64602" lon="2.38685">
        <ele>584.564527</ele>
        <time>2021-10-03T09:25:04.000Z</time>
      </trkpt>
      <trkpt lat="43.646" lon="2.38692">
        <ele>584.57824</ele>
        <time>2021-10-03T09:25:05.000Z</time>
      </trkpt>
      <trkpt lat="43.64598" lon="2.38697">
        <ele>584.592019</ele>
        <time>2021-10-03T09:25:06.000Z</time>
      </trkpt>
      <trkpt lat="43.64596" lon="2.38703">
        <ele>584.604342</ele>
        <time>2021-10-03T09:25:07.000Z</time>
      </trkpt>
      <trkpt lat="43.64594" lon="2.38708">
        <ele>584.615811</ele>
        <time>2021-10-03T09:25:08.000Z</time>
      </trkpt>
      <trkpt lat="43.64593" lon="2.38712">
        <ele>584.625263</ele>
        <time>2021-10-03T09:25:09.000Z</time>
      </trkpt>
      <trkpt lat="43.64591" lon="2.38713">
        <ele>584.630408</ele>
        <time>2021-10-03T09:25:10.000Z</time>
      </trkpt>
      <trkpt lat="43.64589" lon="2.38713">
        <ele>584.634732</ele>
        <time>2021-10-03T09:25:11.000Z</time>
      </trkpt>
      <trkpt lat="43.64588" lon="2.38712">
        <ele>584.639361</ele>
        <time>2021-10-03T09:25:12.000Z</time>
      </trkpt>
      <trkpt lat="43.64587" lon="2.3871">
        <ele>584.644162</ele>
        <time>2021-10-03T09:25:13.000Z</time>
      </trkpt>
      <trkpt lat="43.64586" lon="2.38708">
        <ele>584.649905</ele>
        <time>2021-10-03T09:25:14.000Z</time>
      </trkpt>
      <trkpt lat="43.64585" lon="2.38705">
        <ele>584.655712</ele>
        <time>2021-10-03T09:25:15.000Z</time>
      </trkpt>
      <trkpt lat="43.64585" lon="2.38703">
        <ele>584.660503</ele>
        <time>2021-10-03T09:25:16.000Z</time>
      </trkpt>
      <trkpt lat="43.64585" lon="2.38701">
        <ele>584.664759</ele>
        <time>2021-10-03T09:25:17.000Z</time>
      </trkpt>
      <trkpt lat="43.64584" lon="2.38697">
        <ele>584.673204</ele>
        <time>2021-10-03T09:25:18.000Z</time>
      </trkpt>
      <trkpt lat="43.64583" lon="2.38693">
        <ele>584.682902</ele>
        <time>2021-10-03T09:25:19.000Z</time>
      </trkpt>
      <trkpt lat="43.64582" lon="2.38688">
        <ele>584.693571</ele>
        <time>2021-10-03T09:25:20.000Z</time>
      </trkpt>
      <trkpt lat="43.64582" lon="2.38682">
        <ele>584.704465</ele>
        <time>2021-10-03T09:25:21.000Z</time>
      </trkpt>
      <trkpt lat="43.64582" lon="2.38678">
        <ele>584.714295</ele>
        <time>2021-10-03T09:25:22.000Z</time>
      </trkpt>
      <trkpt lat="43.64582" lon="2.38673">
        <ele>584.723674</ele>
        <time>2021-10-03T09:25:23.000Z</time>
      </trkpt>
      <trkpt lat="43.64582" lon="2.38669">
        <ele>584.731881</ele>
        <time>2021-10-03T09:25:24.000Z</time>
      </trkpt>
      <trkpt lat="43.64582" lon="2.38666">
        <ele>584.739381</ele>
        <time>2021-10-03T09:25:25.000Z</time>
      </trkpt>
      <trkpt lat="43.64579" lon="2.38653">
        <ele>584.766477</ele>
        <time>2021-10-03T09:26:58.000Z</time>
      </trkpt>
      <trkpt lat="43.64579" lon="2.38649">
        <ele>584.774234</ele>
        <time>2021-10-03T09:26:59.000Z</time>
      </trkpt>
      <trkpt lat="43.6458" lon="2.38646">
        <ele>584.78141</ele>
        <time>2021-10-03T09:27:00.000Z</time>
      </trkpt>
      <trkpt lat="43.6458" lon="2.38642">
        <ele>584.790577</ele>
        <time>2021-10-03T09:27:01.000Z</time>
      </trkpt>
      <trkpt lat="43.6458" lon="2.38637">
        <ele>584.800369</ele>
        <time>2021-10-03T09:27:02.000Z</time>
      </trkpt>
      <trkpt lat="43.6458" lon="2.38632">
        <ele>584.810577</ele>
        <time>2021-10-03T09:27:03.000Z</time>
      </trkpt>
      <trkpt lat="43.6458" lon="2.38627">
        <ele>584.821653</ele>
        <time>2021-10-03T09:27:04.000Z</time>
      </trkpt>
      <trkpt lat="43.64581" lon="2.38621">
        <ele>584.833376</ele>
        <time>2021-10-03T09:27:05.000Z</time>
      </trkpt>
      <trkpt lat="43.64581" lon="2.38615">
        <ele>584.845876</ele>
        <time>2021-10-03T09:27:06.000Z</time>
      </trkpt>
      <trkpt lat="43.64581" lon="2.38609">
        <ele>584.859052</ele>
        <time>2021-10-03T09:27:07.000Z</time>
      </trkpt>
      <trkpt lat="43.64581" lon="2.38602">
        <ele>584.873427</ele>
        <time>2021-10-03T09:27:08.000Z</time>
      </trkpt>
      <trkpt lat="43.64581" lon="2.38595">
        <ele>584.887385</ele>
        <time>2021-10-03T09:27:09.000Z</time>
      </trkpt>
      <trkpt lat="43.64581" lon="2.38589">
        <ele>584.901465</ele>
        <time>2021-10-03T09:27:10.000Z</time>
      </trkpt>
      <trkpt lat="43.64581" lon="2.38582">
        <ele>584.920179</ele>
        <time>2021-10-03T09:27:11.000Z</time>
      </trkpt>
      <trkpt lat="43.64581" lon="2.38575">
        <ele>584.941294</ele>
        <time>2021-10-03T09:27:12.000Z</time>
      </trkpt>
      <trkpt lat="43.64581" lon="2.38569">
        <ele>584.960952</ele>
        <time>2021-10-03T09:27:13.000Z</time>
      </trkpt>
      <trkpt lat="43.64581" lon="2.38562">
        <ele>584.979958</ele>
        <time>2021-10-03T09:27:14.000Z</time>
      </trkpt>
      <trkpt lat="43.64581" lon="2.38556">
        <ele>584.998964</ele>
        <time>2021-10-03T09:27:15.000Z</time>
      </trkpt>
      <trkpt lat="43.64582" lon="2.3855">
        <ele>585.014837</ele>
        <time>2021-10-03T09:27:16.000Z</time>
      </trkpt>
      <trkpt lat="43.64581" lon="2.38544">
        <ele>585.032746</ele>
        <time>2021-10-03T09:27:17.000Z</time>
      </trkpt>
      <trkpt lat="43.64581" lon="2.38539">
        <ele>585.048037</ele>
        <time>2021-10-03T09:27:18.000Z</time>
      </trkpt>
      <trkpt lat="43.64581" lon="2.38535">
        <ele>585.060087</ele>
        <time>2021-10-03T09:27:19.000Z</time>
      </trkpt>
      <trkpt lat="43.6458" lon="2.38531">
        <ele>585.069871</ele>
        <time>2021-10-03T09:27:20.000Z</time>
      </trkpt>
      <trkpt lat="43.6458" lon="2.38529">
        <ele>585.07835</ele>
        <time>2021-10-03T09:27:21.000Z</time>
      </trkpt>
      <trkpt lat="43.64581" lon="2.38526">
        <ele>585.086049</ele>
        <time>2021-10-03T09:27:22.000Z</time>
      </trkpt>
      <trkpt lat="43.64581" lon="2.38524">
        <ele>585.093076</ele>
        <time>2021-10-03T09:27:23.000Z</time>
      </trkpt>
      <trkpt lat="43.64582" lon="2.38522">
        <ele>585.098172</ele>
        <time>2021-10-03T09:27:24.000Z</time>
      </trkpt>
      <trkpt lat="43.64582" lon="2.38521">
        <ele>585.100219</ele>
        <time>2021-10-03T09:27:25.000Z</time>
      </trkpt>
      <trkpt lat="43.64582" lon="2.38521">
        <ele>585.101389</ele>
        <time>2021-10-03T09:27:26.000Z</time>
      </trkpt>
      <trkpt lat="43.64582" lon="2.38521">
        <ele>585.101389</ele>
        <time>2021-10-03T09:27:27.000Z</time>
      </trkpt>
      <trkpt lat="43.64584" lon="2.38529">
        <ele>585.127299</ele>
        <time>2021-10-03T09:28:01.000Z</time>
      </trkpt>
      <trkpt lat="43.64586" lon="2.38533">
        <ele>585.141257</ele>
        <time>2021-10-03T09:28:02.000Z</time>
      </trkpt>
      <trkpt lat="43.64588" lon="2.38537">
        <ele>585.155248</ele>
        <time>2021-10-03T09:28:03.000Z</time>
      </trkpt>
      <trkpt lat="43.64589" lon="2.38541">
        <ele>585.166643</ele>
        <time>2021-10-03T09:28:04.000Z</time>
      </trkpt>
      <trkpt lat="43.64591" lon="2.38543">
        <ele>585.176185</ele>
        <time>2021-10-03T09:28:05.000Z</time>
      </trkpt>
      <trkpt lat="43.64593" lon="2.38544">
        <ele>585.184261</ele>
        <time>2021-10-03T09:28:06.000Z</time>
      </trkpt>
      <trkpt lat="43.64594" lon="2.38545">
        <ele>585.191482</ele>
        <time>2021-10-03T09:28:07.000Z</time>
      </trkpt>
      <trkpt lat="43.64595" lon="2.38547">
        <ele>585.197659</ele>
        <time>2021-10-03T09:28:08.000Z</time>
      </trkpt>
      <trkpt lat="43.64595" lon="2.38548">
        <ele>585.201522</ele>
        <time>2021-10-03T09:28:09.000Z</time>
      </trkpt>
      <trkpt lat="43.64595" lon="2.38549">
        <ele>585.203569</ele>
        <time>2021-10-03T09:28:10.000Z</time>
      </trkpt>
      <trkpt lat="43.64595" lon="2.38549">
        <ele>585.203861</ele>
        <time>2021-10-03T09:28:11.000Z</time>
      </trkpt>
      <trkpt lat="43.64595" lon="2.38549">
        <ele>585.203861</ele>
        <time>2021-10-03T09:28:12.000Z</time>
      </trkpt>
      <trkpt lat="43.64595" lon="2.38549">
        <ele>585.203861</ele>
        <time>2021-10-03T09:28:22.000Z</time>
      </trkpt>
      <trkpt lat="43.64595" lon="2.38549">
        <ele>585.203861</ele>
        <time>2021-10-03T09:28:29.000Z</time>
      </trkpt>
      <trkpt lat="43.64605" lon="2.3855">
        <ele>585.243904</ele>
        <time>2021-10-03T09:28:31.000Z</time>
      </trkpt>
      <trkpt lat="43.64607" lon="2.38551">
        <ele>585.251059</ele>
        <time>2021-10-03T09:28:32.000Z</time>
      </trkpt>
      <trkpt lat="43.64608" lon="2.38552">
        <ele>585.256049</ele>
        <time>2021-10-03T09:28:33.000Z</time>
      </trkpt>
      <trkpt lat="43.64608" lon="2.38553">
        <ele>585.258657</ele>
        <time>2021-10-03T09:28:34.000Z</time>
      </trkpt>
      <trkpt lat="43.64609" lon="2.38554">
        <ele>585.261718</ele>
        <time>2021-10-03T09:28:35.000Z</time>
      </trkpt>
      <trkpt lat="43.64609" lon="2.38554">
        <ele>585.263557</ele>
        <time>2021-10-03T09:28:36.000Z</time>
      </trkpt>
      <trkpt lat="43.64609" lon="2.38554">
        <ele>585.263557</ele>
        <time>2021-10-03T09:28:37.000Z</time>
      </trkpt>
      <trkpt lat="43.64604" lon="2.38528">
        <ele>585.341757</ele>
        <time>2021-10-03T09:29:29.000Z</time>
      </trkpt>
      <trkpt lat="43.64604" lon="2.38527">
        <ele>585.34659</ele>
        <time>2021-10-03T09:29:30.000Z</time>
      </trkpt>
      <trkpt lat="43.64604" lon="2.38527">
        <ele>585.346883</ele>
        <time>2021-10-03T09:29:31.000Z</time>
      </trkpt>
      <trkpt lat="43.64604" lon="2.38526">
        <ele>585.349268</ele>
        <time>2021-10-03T09:29:32.000Z</time>
      </trkpt>
      <trkpt lat="43.64604" lon="2.38526">
        <ele>585.34956</ele>
        <time>2021-10-03T09:29:33.000Z</time>
      </trkpt>
      <trkpt lat="43.64604" lon="2.38522">
        <ele>585.360672</ele>
        <time>2021-10-03T09:29:38.000Z</time>
      </trkpt>
      <trkpt lat="43.64604" lon="2.3852">
        <ele>585.366812</ele>
        <time>2021-10-03T09:29:39.000Z</time>
      </trkpt>
      <trkpt lat="43.64605" lon="2.38518">
        <ele>585.373071</ele>
        <time>2021-10-03T09:29:40.000Z</time>
      </trkpt>
      <trkpt lat="43.64605" lon="2.38516">
        <ele>585.379517</ele>
        <time>2021-10-03T09:29:41.000Z</time>
      </trkpt>
      <trkpt lat="43.64604" lon="2.38514">
        <ele>585.385303</ele>
        <time>2021-10-03T09:29:42.000Z</time>
      </trkpt>
      <trkpt lat="43.64607" lon="2.38499">
        <ele>585.52432</ele>
        <time>2021-10-03T09:30:19.000Z</time>
      </trkpt>
      <trkpt lat="43.64608" lon="2.38497">
        <ele>585.530988</ele>
        <time>2021-10-03T09:30:20.000Z</time>
      </trkpt>
      <trkpt lat="43.6461" lon="2.38495">
        <ele>585.53921</ele>
        <time>2021-10-03T09:30:21.000Z</time>
      </trkpt>
      <trkpt lat="43.64612" lon="2.38493">
        <ele>585.548861</ele>
        <time>2021-10-03T09:30:22.000Z</time>
      </trkpt>
      <trkpt lat="43.64614" lon="2.38491">
        <ele>585.560869</ele>
        <time>2021-10-03T09:30:23.000Z</time>
      </trkpt>
      <trkpt lat="43.64616" lon="2.38488">
        <ele>585.57345</ele>
        <time>2021-10-03T09:30:24.000Z</time>
      </trkpt>
      <trkpt lat="43.64619" lon="2.38485">
        <ele>585.586432</ele>
        <time>2021-10-03T09:30:25.000Z</time>
      </trkpt>
      <trkpt lat="43.64621" lon="2.38481">
        <ele>585.598763</ele>
        <time>2021-10-03T09:30:26.000Z</time>
      </trkpt>
      <trkpt lat="43.64622" lon="2.38478">
        <ele>585.610657</ele>
        <time>2021-10-03T09:30:27.000Z</time>
      </trkpt>
      <trkpt lat="43.64623" lon="2.38474">
        <ele>585.622513</ele>
        <time>2021-10-03T09:30:28.000Z</time>
      </trkpt>
      <trkpt lat="43.64625" lon="2.3847">
        <ele>585.765723</ele>
        <time>2021-10-03T09:30:29.000Z</time>
      </trkpt>
      <trkpt lat="43.64626" lon="2.38465">
        <ele>585.947404</ele>
        <time>2021-10-03T09:30:30.000Z</time>
      </trkpt>
      <trkpt lat="43.64628" lon="2.38461">
        <ele>586.124709</ele>
        <time>2021-10-03T09:30:31.000Z</time>
      </trkpt>
      <trkpt lat="43.64629" lon="2.38457">
        <ele>586.278202</ele>
        <time>2021-10-03T09:30:32.000Z</time>
      </trkpt>
      <trkpt lat="43.6463" lon="2.38453">
        <ele>586.44016</ele>
        <time>2021-10-03T09:30:33.000Z</time>
      </trkpt>
      <trkpt lat="43.64631" lon="2.3845">
        <ele>586.578256</ele>
        <time>2021-10-03T09:30:34.000Z</time>
      </trkpt>
      <trkpt lat="43.64633" lon="2.38445">
        <ele>586.753303</ele>
        <time>2021-10-03T09:30:35.000Z</time>
      </trkpt>
      <trkpt lat="43.64634" lon="2.38441">
        <ele>586.912088</ele>
        <time>2021-10-03T09:30:36.000Z</time>
      </trkpt>
      <trkpt lat="43.64635" lon="2.38437">
        <ele>587.057211</ele>
        <time>2021-10-03T09:30:37.000Z</time>
      </trkpt>
      <trkpt lat="43.64635" lon="2.38434">
        <ele>587.198023</ele>
        <time>2021-10-03T09:30:38.000Z</time>
      </trkpt>
      <trkpt lat="43.64634" lon="2.38429">
        <ele>587.372198</ele>
        <time>2021-10-03T09:30:39.000Z</time>
      </trkpt>
      <trkpt lat="43.64634" lon="2.38426">
        <ele>587.498512</ele>
        <time>2021-10-03T09:30:40.000Z</time>
      </trkpt>
      <trkpt lat="43.64633" lon="2.38422">
        <ele>587.652986</ele>
        <time>2021-10-03T09:30:41.000Z</time>
      </trkpt>
      <trkpt lat="43.64631" lon="2.38418">
        <ele>587.805318</ele>
        <time>2021-10-03T09:30:42.000Z</time>
      </trkpt>
      <trkpt lat="43.64629" lon="2.38415">
        <ele>587.968129</ele>
        <time>2021-10-03T09:30:43.000Z</time>
      </trkpt>
      <trkpt lat="43.64626" lon="2.38412">
        <ele>588.153659</ele>
        <time>2021-10-03T09:30:44.000Z</time>
      </trkpt>
      <trkpt lat="43.64622" lon="2.3841">
        <ele>588.365385</ele>
        <time>2021-10-03T09:30:45.000Z</time>
      </trkpt>
      <trkpt lat="43.64619" lon="2.38408">
        <ele>588.548613</ele>
        <time>2021-10-03T09:30:46.000Z</time>
      </trkpt>
      <trkpt lat="43.64615" lon="2.38406">
        <ele>588.75218</ele>
        <time>2021-10-03T09:30:47.000Z</time>
      </trkpt>
      <trkpt lat="43.64612" lon="2.38404">
        <ele>588.945541</ele>
        <time>2021-10-03T09:30:48.000Z</time>
      </trkpt>
      <trkpt lat="43.64608" lon="2.38402">
        <ele>589.151138</ele>
        <time>2021-10-03T09:30:49.000Z</time>
      </trkpt>
      <trkpt lat="43.64604" lon="2.384">
        <ele>589.364605</ele>
        <time>2021-10-03T09:30:50.000Z</time>
      </trkpt>
      <trkpt lat="43.646" lon="2.38397">
        <ele>589.568725</ele>
        <time>2021-10-03T09:30:51.000Z</time>
      </trkpt>
      <trkpt lat="43.64596" lon="2.38395">
        <ele>589.783605</ele>
        <time>2021-10-03T09:30:52.000Z</time>
      </trkpt>
      <trkpt lat="43.64593" lon="2.38393">
        <ele>589.983262</ele>
        <time>2021-10-03T09:30:53.000Z</time>
      </trkpt>
      <trkpt lat="43.64589" lon="2.3839">
        <ele>590.190657</ele>
        <time>2021-10-03T09:30:54.000Z</time>
      </trkpt>
      <trkpt lat="43.64586" lon="2.38389">
        <ele>590.376509</ele>
        <time>2021-10-03T09:30:55.000Z</time>
      </trkpt>
      <trkpt lat="43.64582" lon="2.38386">
        <ele>590.602851</ele>
        <time>2021-10-03T09:30:56.000Z</time>
      </trkpt>
      <trkpt lat="43.64578" lon="2.38384">
        <ele>590.813079</ele>
        <time>2021-10-03T09:30:57.000Z</time>
      </trkpt>
      <trkpt lat="43.64574" lon="2.38382">
        <ele>591.009477</ele>
        <time>2021-10-03T09:30:58.000Z</time>
      </trkpt>
      <trkpt lat="43.6457" lon="2.38379">
        <ele>591.222754</ele>
        <time>2021-10-03T09:30:59.000Z</time>
      </trkpt>
      <trkpt lat="43.64567" lon="2.38377">
        <ele>591.417923</ele>
        <time>2021-10-03T09:31:00.000Z</time>
      </trkpt>
      <trkpt lat="43.64564" lon="2.38374">
        <ele>591.620397</ele>
        <time>2021-10-03T09:31:01.000Z</time>
      </trkpt>
      <trkpt lat="43.6456" lon="2.38371">
        <ele>591.830945</ele>
        <time>2021-10-03T09:31:02.000Z</time>
      </trkpt>
      <trkpt lat="43.64557" lon="2.38367">
        <ele>592.031503</ele>
        <time>2021-10-03T09:31:03.000Z</time>
      </trkpt>
      <trkpt lat="43.64554" lon="2.38364">
        <ele>592.234362</ele>
        <time>2021-10-03T09:31:04.000Z</time>
      </trkpt>
      <trkpt lat="43.64551" lon="2.3836">
        <ele>592.433322</ele>
        <time>2021-10-03T09:31:05.000Z</time>
      </trkpt>
      <trkpt lat="43.64548" lon="2.38356">
        <ele>592.633912</ele>
        <time>2021-10-03T09:31:06.000Z</time>
      </trkpt>
      <trkpt lat="43.64546" lon="2.38352">
        <ele>592.834503</ele>
        <time>2021-10-03T09:31:07.000Z</time>
      </trkpt>
      <trkpt lat="43.64543" lon="2.38348">
        <ele>593.03779</ele>
        <time>2021-10-03T09:31:08.000Z</time>
      </trkpt>
      <trkpt lat="43.64541" lon="2.38344">
        <ele>593.230937</ele>
        <time>2021-10-03T09:31:09.000Z</time>
      </trkpt>
      <trkpt lat="43.64539" lon="2.38341">
        <ele>593.394858</ele>
        <time>2021-10-03T09:31:10.000Z</time>
      </trkpt>
      <trkpt lat="43.64536" lon="2.38335">
        <ele>593.629612</ele>
        <time>2021-10-03T09:31:11.000Z</time>
      </trkpt>
      <trkpt lat="43.64533" lon="2.38331">
        <ele>593.841165</ele>
        <time>2021-10-03T09:31:12.000Z</time>
      </trkpt>
      <trkpt lat="43.64531" lon="2.38327">
        <ele>594.04021</ele>
        <time>2021-10-03T09:31:13.000Z</time>
      </trkpt>
      <trkpt lat="43.64528" lon="2.38322">
        <ele>594.239255</ele>
        <time>2021-10-03T09:31:14.000Z</time>
      </trkpt>
      <trkpt lat="43.64526" lon="2.38318">
        <ele>594.438299</ele>
        <time>2021-10-03T09:31:15.000Z</time>
      </trkpt>
      <trkpt lat="43.64524" lon="2.38313">
        <ele>594.626194</ele>
        <time>2021-10-03T09:31:16.000Z</time>
      </trkpt>
      <trkpt lat="43.64523" lon="2.38309">
        <ele>594.794711</ele>
        <time>2021-10-03T09:31:17.000Z</time>
      </trkpt>
      <trkpt lat="43.6452" lon="2.38305">
        <ele>594.967182</ele>
        <time>2021-10-03T09:31:18.000Z</time>
      </trkpt>
      <trkpt lat="43.64518" lon="2.38301">
        <ele>595.139747</ele>
        <time>2021-10-03T09:31:19.000Z</time>
      </trkpt>
      <trkpt lat="43.64516" lon="2.38296">
        <ele>595.323009</ele>
        <time>2021-10-03T09:31:20.000Z</time>
      </trkpt>
      <trkpt lat="43.64514" lon="2.38293">
        <ele>595.4794</ele>
        <time>2021-10-03T09:31:21.000Z</time>
      </trkpt>
      <trkpt lat="43.64511" lon="2.38287">
        <ele>595.697735</ele>
        <time>2021-10-03T09:31:22.000Z</time>
      </trkpt>
      <trkpt lat="43.64509" lon="2.38283">
        <ele>595.883724</ele>
        <time>2021-10-03T09:31:23.000Z</time>
      </trkpt>
      <trkpt lat="43.64507" lon="2.38278">
        <ele>596.0589</ele>
        <time>2021-10-03T09:31:24.000Z</time>
      </trkpt>
      <trkpt lat="43.64505" lon="2.38274">
        <ele>596.21795</ele>
        <time>2021-10-03T09:31:25.000Z</time>
      </trkpt>
      <trkpt lat="43.64502" lon="2.3827">
        <ele>596.404038</ele>
        <time>2021-10-03T09:31:26.000Z</time>
      </trkpt>
      <trkpt lat="43.645" lon="2.38267">
        <ele>596.520601</ele>
        <time>2021-10-03T09:31:27.000Z</time>
      </trkpt>
      <trkpt lat="43.64498" lon="2.38264">
        <ele>596.67702</ele>
        <time>2021-10-03T09:31:28.000Z</time>
      </trkpt>
      <trkpt lat="43.64496" lon="2.3826">
        <ele>596.830645</ele>
        <time>2021-10-03T09:31:29.000Z</time>
      </trkpt>
      <trkpt lat="43.64494" lon="2.38256">
        <ele>596.984288</ele>
        <time>2021-10-03T09:31:30.000Z</time>
      </trkpt>
      <trkpt lat="43.64492" lon="2.38252">
        <ele>597.146169</ele>
        <time>2021-10-03T09:31:31.000Z</time>
      </trkpt>
      <trkpt lat="43.6449" lon="2.38248">
        <ele>597.321375</ele>
        <time>2021-10-03T09:31:32.000Z</time>
      </trkpt>
      <trkpt lat="43.64487" lon="2.38244">
        <ele>597.50578</ele>
        <time>2021-10-03T09:31:33.000Z</time>
      </trkpt>
      <trkpt lat="43.64485" lon="2.3824">
        <ele>597.680573</ele>
        <time>2021-10-03T09:31:34.000Z</time>
      </trkpt>
      <trkpt lat="43.64481" lon="2.38237">
        <ele>597.901866</ele>
        <time>2021-10-03T09:31:35.000Z</time>
      </trkpt>
      <trkpt lat="43.64477" lon="2.38233">
        <ele>598.124997</ele>
        <time>2021-10-03T09:31:36.000Z</time>
      </trkpt>
      <trkpt lat="43.64473" lon="2.38229">
        <ele>598.35003</ele>
        <time>2021-10-03T09:31:37.000Z</time>
      </trkpt>
      <trkpt lat="43.64469" lon="2.38225">
        <ele>598.570138</ele>
        <time>2021-10-03T09:31:38.000Z</time>
      </trkpt>
      <trkpt lat="43.64466" lon="2.38221">
        <ele>598.748225</ele>
        <time>2021-10-03T09:31:39.000Z</time>
      </trkpt>
      <trkpt lat="43.64464" lon="2.38218">
        <ele>598.909465</ele>
        <time>2021-10-03T09:31:40.000Z</time>
      </trkpt>
      <trkpt lat="43.64461" lon="2.38212">
        <ele>599.109362</ele>
        <time>2021-10-03T09:31:41.000Z</time>
      </trkpt>
      <trkpt lat="43.64459" lon="2.3821">
        <ele>599.237888</ele>
        <time>2021-10-03T09:31:42.000Z</time>
      </trkpt>
      <trkpt lat="43.64456" lon="2.38206">
        <ele>599.427106</ele>
        <time>2021-10-03T09:31:43.000Z</time>
      </trkpt>
      <trkpt lat="43.64452" lon="2.38202">
        <ele>599.674878</ele>
        <time>2021-10-03T09:31:44.000Z</time>
      </trkpt>
      <trkpt lat="43.64448" lon="2.38198">
        <ele>599.887133</ele>
        <time>2021-10-03T09:31:45.000Z</time>
      </trkpt>
      <trkpt lat="43.64445" lon="2.38193">
        <ele>600.100641</ele>
        <time>2021-10-03T09:31:46.000Z</time>
      </trkpt>
      <trkpt lat="43.64442" lon="2.38188">
        <ele>600.307315</ele>
        <time>2021-10-03T09:31:47.000Z</time>
      </trkpt>
      <trkpt lat="43.6444" lon="2.38184">
        <ele>600.50434</ele>
        <time>2021-10-03T09:31:48.000Z</time>
      </trkpt>
      <trkpt lat="43.64436" lon="2.38179">
        <ele>600.715882</ele>
        <time>2021-10-03T09:31:49.000Z</time>
      </trkpt>
      <trkpt lat="43.64433" lon="2.38174">
        <ele>600.939713</ele>
        <time>2021-10-03T09:31:50.000Z</time>
      </trkpt>
      <trkpt lat="43.6443" lon="2.38168">
        <ele>601.177819</ele>
        <time>2021-10-03T09:31:51.000Z</time>
      </trkpt>
      <trkpt lat="43.64427" lon="2.38163">
        <ele>601.413424</ele>
        <time>2021-10-03T09:31:52.000Z</time>
      </trkpt>
      <trkpt lat="43.64423" lon="2.38157">
        <ele>601.654049</ele>
        <time>2021-10-03T09:31:53.000Z</time>
      </trkpt>
      <trkpt lat="43.64421" lon="2.38153">
        <ele>601.858921</ele>
        <time>2021-10-03T09:31:54.000Z</time>
      </trkpt>
      <trkpt lat="43.64417" lon="2.38147">
        <ele>602.092048</ele>
        <time>2021-10-03T09:31:55.000Z</time>
      </trkpt>
      <trkpt lat="43.64414" lon="2.38142">
        <ele>602.316163</ele>
        <time>2021-10-03T09:31:56.000Z</time>
      </trkpt>
      <trkpt lat="43.6441" lon="2.38137">
        <ele>602.564349</ele>
        <time>2021-10-03T09:31:57.000Z</time>
      </trkpt>
      <trkpt lat="43.64407" lon="2.38132">
        <ele>602.788464</ele>
        <time>2021-10-03T09:31:58.000Z</time>
      </trkpt>
      <trkpt lat="43.64404" lon="2.38126">
        <ele>603.010103</ele>
        <time>2021-10-03T09:31:59.000Z</time>
      </trkpt>
      <trkpt lat="43.64401" lon="2.38121">
        <ele>603.32037</ele>
        <time>2021-10-03T09:32:00.000Z</time>
      </trkpt>
      <trkpt lat="43.644" lon="2.38115">
        <ele>603.625132</ele>
        <time>2021-10-03T09:32:01.000Z</time>
      </trkpt>
      <trkpt lat="43.64399" lon="2.38109">
        <ele>603.922213</ele>
        <time>2021-10-03T09:32:02.000Z</time>
      </trkpt>
      <trkpt lat="43.644" lon="2.38104">
        <ele>604.172014</ele>
        <time>2021-10-03T09:32:03.000Z</time>
      </trkpt>
      <trkpt lat="43.64402" lon="2.381">
        <ele>604.401571</ele>
        <time>2021-10-03T09:32:04.000Z</time>
      </trkpt>
      <trkpt lat="43.64404" lon="2.38097">
        <ele>604.611459</ele>
        <time>2021-10-03T09:32:05.000Z</time>
      </trkpt>
      <trkpt lat="43.64408" lon="2.38095">
        <ele>604.845795</ele>
        <time>2021-10-03T09:32:06.000Z</time>
      </trkpt>
      <trkpt lat="43.64411" lon="2.38093">
        <ele>605.090233</ele>
        <time>2021-10-03T09:32:07.000Z</time>
      </trkpt>
      <trkpt lat="43.64414" lon="2.38091">
        <ele>605.300045</ele>
        <time>2021-10-03T09:32:08.000Z</time>
      </trkpt>
      <trkpt lat="43.64416" lon="2.38088">
        <ele>605.506003</ele>
        <time>2021-10-03T09:32:09.000Z</time>
      </trkpt>
      <trkpt lat="43.64418" lon="2.38085">
        <ele>605.700469</ele>
        <time>2021-10-03T09:32:10.000Z</time>
      </trkpt>
      <trkpt lat="43.64421" lon="2.38083">
        <ele>605.927413</ele>
        <time>2021-10-03T09:32:11.000Z</time>
      </trkpt>
      <trkpt lat="43.64424" lon="2.3808">
        <ele>606.162466</ele>
        <time>2021-10-03T09:32:12.000Z</time>
      </trkpt>
      <trkpt lat="43.64427" lon="2.38078">
        <ele>606.382801</ele>
        <time>2021-10-03T09:32:13.000Z</time>
      </trkpt>
      <trkpt lat="43.64431" lon="2.38077">
        <ele>606.642951</ele>
        <time>2021-10-03T09:32:14.000Z</time>
      </trkpt>
      <trkpt lat="43.64434" lon="2.38075">
        <ele>606.860222</ele>
        <time>2021-10-03T09:32:15.000Z</time>
      </trkpt>
      <trkpt lat="43.64437" lon="2.38074">
        <ele>607.092351</ele>
        <time>2021-10-03T09:32:16.000Z</time>
      </trkpt>
      <trkpt lat="43.64441" lon="2.38073">
        <ele>607.320497</ele>
        <time>2021-10-03T09:32:17.000Z</time>
      </trkpt>
      <trkpt lat="43.64444" lon="2.38072">
        <ele>607.548644</ele>
        <time>2021-10-03T09:32:18.000Z</time>
      </trkpt>
      <trkpt lat="43.64448" lon="2.38071">
        <ele>607.784736</ele>
        <time>2021-10-03T09:32:19.000Z</time>
      </trkpt>
      <trkpt lat="43.64451" lon="2.38069">
        <ele>608.019072</ele>
        <time>2021-10-03T09:32:20.000Z</time>
      </trkpt>
      <trkpt lat="43.64452" lon="2.38065">
        <ele>608.208802</ele>
        <time>2021-10-03T09:32:21.000Z</time>
      </trkpt>
      <trkpt lat="43.64453" lon="2.38061">
        <ele>608.437304</ele>
        <time>2021-10-03T09:32:22.000Z</time>
      </trkpt>
      <trkpt lat="43.64454" lon="2.38056">
        <ele>608.652813</ele>
        <time>2021-10-03T09:32:23.000Z</time>
      </trkpt>
      <trkpt lat="43.64454" lon="2.38052">
        <ele>608.873007</ele>
        <time>2021-10-03T09:32:24.000Z</time>
      </trkpt>
      <trkpt lat="43.64454" lon="2.38047">
        <ele>609.121923</ele>
        <time>2021-10-03T09:32:25.000Z</time>
      </trkpt>
      <trkpt lat="43.64454" lon="2.38042">
        <ele>609.356477</ele>
        <time>2021-10-03T09:32:26.000Z</time>
      </trkpt>
      <trkpt lat="43.64454" lon="2.38037">
        <ele>609.581488</ele>
        <time>2021-10-03T09:32:27.000Z</time>
      </trkpt>
      <trkpt lat="43.64455" lon="2.38032">
        <ele>609.81753</ele>
        <time>2021-10-03T09:32:28.000Z</time>
      </trkpt>
      <trkpt lat="43.64455" lon="2.38027">
        <ele>610.052179</ele>
        <time>2021-10-03T09:32:29.000Z</time>
      </trkpt>
      <trkpt lat="43.64455" lon="2.38022">
        <ele>610.286733</ele>
        <time>2021-10-03T09:32:30.000Z</time>
      </trkpt>
      <trkpt lat="43.64454" lon="2.38017">
        <ele>610.532292</ele>
        <time>2021-10-03T09:32:31.000Z</time>
      </trkpt>
      <trkpt lat="43.64454" lon="2.38012">
        <ele>610.781207</ele>
        <time>2021-10-03T09:32:32.000Z</time>
      </trkpt>
      <trkpt lat="43.64454" lon="2.38007">
        <ele>611.039696</ele>
        <time>2021-10-03T09:32:33.000Z</time>
      </trkpt>
      <trkpt lat="43.64454" lon="2.38001">
        <ele>611.322119</ele>
        <time>2021-10-03T09:32:34.000Z</time>
      </trkpt>
      <trkpt lat="43.64454" lon="2.37995">
        <ele>611.614116</ele>
        <time>2021-10-03T09:32:35.000Z</time>
      </trkpt>
      <trkpt lat="43.64454" lon="2.37989">
        <ele>611.886966</ele>
        <time>2021-10-03T09:32:36.000Z</time>
      </trkpt>
      <trkpt lat="43.64454" lon="2.37983">
        <ele>612.170626</ele>
        <time>2021-10-03T09:32:37.000Z</time>
      </trkpt>
      <trkpt lat="43.64454" lon="2.37978">
        <ele>612.430465</ele>
        <time>2021-10-03T09:32:38.000Z</time>
      </trkpt>
      <trkpt lat="43.64452" lon="2.37972">
        <ele>612.741363</ele>
        <time>2021-10-03T09:32:39.000Z</time>
      </trkpt>
      <trkpt lat="43.64451" lon="2.37966">
        <ele>613.047454</ele>
        <time>2021-10-03T09:32:40.000Z</time>
      </trkpt>
      <trkpt lat="43.64449" lon="2.3796">
        <ele>613.356581</ele>
        <time>2021-10-03T09:32:41.000Z</time>
      </trkpt>
      <trkpt lat="43.64447" lon="2.37954">
        <ele>613.664977</ele>
        <time>2021-10-03T09:32:42.000Z</time>
      </trkpt>
      <trkpt lat="43.64446" lon="2.37948">
        <ele>613.939959</ele>
        <time>2021-10-03T09:32:43.000Z</time>
      </trkpt>
      <trkpt lat="43.64444" lon="2.37943">
        <ele>614.194639</ele>
        <time>2021-10-03T09:32:44.000Z</time>
      </trkpt>
      <trkpt lat="43.64442" lon="2.37939">
        <ele>614.454599</ele>
        <time>2021-10-03T09:32:45.000Z</time>
      </trkpt>
      <trkpt lat="43.64441" lon="2.37934">
        <ele>614.711928</ele>
        <time>2021-10-03T09:32:46.000Z</time>
      </trkpt>
      <trkpt lat="43.64439" lon="2.37929">
        <ele>614.920791</ele>
        <time>2021-10-03T09:32:47.000Z</time>
      </trkpt>
      <trkpt lat="43.64436" lon="2.37924">
        <ele>614.996736</ele>
        <time>2021-10-03T09:32:48.000Z</time>
      </trkpt>
      <trkpt lat="43.64434" lon="2.37919">
        <ele>615.06682</ele>
        <time>2021-10-03T09:32:49.000Z</time>
      </trkpt>
      <trkpt lat="43.64431" lon="2.37915">
        <ele>615.141911</ele>
        <time>2021-10-03T09:32:50.000Z</time>
      </trkpt>
      <trkpt lat="43.64429" lon="2.3791">
        <ele>615.208317</ele>
        <time>2021-10-03T09:32:51.000Z</time>
      </trkpt>
      <trkpt lat="43.64427" lon="2.37905">
        <ele>615.281274</ele>
        <time>2021-10-03T09:32:52.000Z</time>
      </trkpt>
      <trkpt lat="43.64426" lon="2.379">
        <ele>615.343966</ele>
        <time>2021-10-03T09:32:53.000Z</time>
      </trkpt>
      <trkpt lat="43.64425" lon="2.37894">
        <ele>615.421221</ele>
        <time>2021-10-03T09:32:54.000Z</time>
      </trkpt>
      <trkpt lat="43.64424" lon="2.37888">
        <ele>615.491859</ele>
        <time>2021-10-03T09:32:55.000Z</time>
      </trkpt>
      <trkpt lat="43.64422" lon="2.37882">
        <ele>615.574825</ele>
        <time>2021-10-03T09:32:56.000Z</time>
      </trkpt>
      <trkpt lat="43.6442" lon="2.37877">
        <ele>615.649089</ele>
        <time>2021-10-03T09:32:57.000Z</time>
      </trkpt>
      <trkpt lat="43.64419" lon="2.37871">
        <ele>615.717588</ele>
        <time>2021-10-03T09:32:58.000Z</time>
      </trkpt>
      <trkpt lat="43.64418" lon="2.37867">
        <ele>615.783214</ele>
        <time>2021-10-03T09:32:59.000Z</time>
      </trkpt>
      <trkpt lat="43.64417" lon="2.37861">
        <ele>615.851224</ele>
        <time>2021-10-03T09:33:00.000Z</time>
      </trkpt>
      <trkpt lat="43.64416" lon="2.37857">
        <ele>615.908601</ele>
        <time>2021-10-03T09:33:01.000Z</time>
      </trkpt>
      <trkpt lat="43.64416" lon="2.37851">
        <ele>615.976634</ele>
        <time>2021-10-03T09:33:02.000Z</time>
      </trkpt>
      <trkpt lat="43.64415" lon="2.37846">
        <ele>616.047042</ele>
        <time>2021-10-03T09:33:03.000Z</time>
      </trkpt>
      <trkpt lat="43.64414" lon="2.3784">
        <ele>616.122193</ele>
        <time>2021-10-03T09:33:04.000Z</time>
      </trkpt>
      <trkpt lat="43.64413" lon="2.37834">
        <ele>616.188975</ele>
        <time>2021-10-03T09:33:05.000Z</time>
      </trkpt>
      <trkpt lat="43.64413" lon="2.37828">
        <ele>616.263297</ele>
        <time>2021-10-03T09:33:06.000Z</time>
      </trkpt>
      <trkpt lat="43.64412" lon="2.37822">
        <ele>616.342533</ele>
        <time>2021-10-03T09:33:07.000Z</time>
      </trkpt>
      <trkpt lat="43.64412" lon="2.37815">
        <ele>616.428475</ele>
        <time>2021-10-03T09:33:08.000Z</time>
      </trkpt>
      <trkpt lat="43.64411" lon="2.37808">
        <ele>616.515889</ele>
        <time>2021-10-03T09:33:09.000Z</time>
      </trkpt>
      <trkpt lat="43.6441" lon="2.37802">
        <ele>616.590211</ele>
        <time>2021-10-03T09:33:10.000Z</time>
      </trkpt>
      <trkpt lat="43.64411" lon="2.37796">
        <ele>616.668218</ele>
        <time>2021-10-03T09:33:11.000Z</time>
      </trkpt>
      <trkpt lat="43.64411" lon="2.37789">
        <ele>616.751019</ele>
        <time>2021-10-03T09:33:12.000Z</time>
      </trkpt>
      <trkpt lat="43.64412" lon="2.37783">
        <ele>616.831484</ele>
        <time>2021-10-03T09:33:13.000Z</time>
      </trkpt>
      <trkpt lat="43.64413" lon="2.37776">
        <ele>616.911423</ele>
        <time>2021-10-03T09:33:14.000Z</time>
      </trkpt>
      <trkpt lat="43.64414" lon="2.37769">
        <ele>616.99911</ele>
        <time>2021-10-03T09:33:15.000Z</time>
      </trkpt>
      <trkpt lat="43.64416" lon="2.37763">
        <ele>617.084966</ele>
        <time>2021-10-03T09:33:16.000Z</time>
      </trkpt>
      <trkpt lat="43.64417" lon="2.37754">
        <ele>617.191475</ele>
        <time>2021-10-03T09:33:17.000Z</time>
      </trkpt>
      <trkpt lat="43.64419" lon="2.37746">
        <ele>617.297678</ele>
        <time>2021-10-03T09:33:18.000Z</time>
      </trkpt>
      <trkpt lat="43.6442" lon="2.37738">
        <ele>617.403201</ele>
        <time>2021-10-03T09:33:19.000Z</time>
      </trkpt>
      <trkpt lat="43.64422" lon="2.3773">
        <ele>617.505579</ele>
        <time>2021-10-03T09:33:20.000Z</time>
      </trkpt>
      <trkpt lat="43.64423" lon="2.37721">
        <ele>617.613496</ele>
        <time>2021-10-03T09:33:21.000Z</time>
      </trkpt>
      <trkpt lat="43.64425" lon="2.37712">
        <ele>617.732693</ele>
        <time>2021-10-03T09:33:22.000Z</time>
      </trkpt>
      <trkpt lat="43.64427" lon="2.37702">
        <ele>617.859257</ele>
        <time>2021-10-03T09:33:23.000Z</time>
      </trkpt>
      <trkpt lat="43.6443" lon="2.37693">
        <ele>617.937049</ele>
        <time>2021-10-03T09:33:24.000Z</time>
      </trkpt>
      <trkpt lat="43.64431" lon="2.37683">
        <ele>617.586986</ele>
        <time>2021-10-03T09:33:25.000Z</time>
      </trkpt>
      <trkpt lat="43.64433" lon="2.37674">
        <ele>617.273666</ele>
        <time>2021-10-03T09:33:26.000Z</time>
      </trkpt>
      <trkpt lat="43.64435" lon="2.37666">
        <ele>616.982328</ele>
        <time>2021-10-03T09:33:27.000Z</time>
      </trkpt>
      <trkpt lat="43.64437" lon="2.37657">
        <ele>616.662337</ele>
        <time>2021-10-03T09:33:28.000Z</time>
      </trkpt>
      <trkpt lat="43.64438" lon="2.37648">
        <ele>616.342792</ele>
        <time>2021-10-03T09:33:29.000Z</time>
      </trkpt>
      <trkpt lat="43.6444" lon="2.3764">
        <ele>616.027766</ele>
        <time>2021-10-03T09:33:30.000Z</time>
      </trkpt>
      <trkpt lat="43.64441" lon="2.37629">
        <ele>615.667684</ele>
        <time>2021-10-03T09:33:31.000Z</time>
      </trkpt>
      <trkpt lat="43.64442" lon="2.3762">
        <ele>615.324546</ele>
        <time>2021-10-03T09:33:32.000Z</time>
      </trkpt>
      <trkpt lat="43.64442" lon="2.3761">
        <ele>614.993486</ele>
        <time>2021-10-03T09:33:33.000Z</time>
      </trkpt>
      <trkpt lat="43.64442" lon="2.37602">
        <ele>614.70079</ele>
        <time>2021-10-03T09:33:34.000Z</time>
      </trkpt>
      <trkpt lat="43.64441" lon="2.37594">
        <ele>614.442221</ele>
        <time>2021-10-03T09:33:35.000Z</time>
      </trkpt>
      <trkpt lat="43.64441" lon="2.37587">
        <ele>614.180177</ele>
        <time>2021-10-03T09:33:36.000Z</time>
      </trkpt>
      <trkpt lat="43.64441" lon="2.37579">
        <ele>613.90423</ele>
        <time>2021-10-03T09:33:37.000Z</time>
      </trkpt>
      <trkpt lat="43.64442" lon="2.37569">
        <ele>613.57496</ele>
        <time>2021-10-03T09:33:38.000Z</time>
      </trkpt>
      <trkpt lat="43.64443" lon="2.3756">
        <ele>613.249223</ele>
        <time>2021-10-03T09:33:39.000Z</time>
      </trkpt>
      <trkpt lat="43.64445" lon="2.37551">
        <ele>612.903598</ele>
        <time>2021-10-03T09:33:40.000Z</time>
      </trkpt>
      <trkpt lat="43.64448" lon="2.37536">
        <ele>612.370626</ele>
        <time>2021-10-03T09:33:41.000Z</time>
      </trkpt>
      <trkpt lat="43.64449" lon="2.37523">
        <ele>611.908639</ele>
        <time>2021-10-03T09:33:42.000Z</time>
      </trkpt>
      <trkpt lat="43.6445" lon="2.37509">
        <ele>611.408601</ele>
        <time>2021-10-03T09:33:43.000Z</time>
      </trkpt>
      <trkpt lat="43.64452" lon="2.37492">
        <ele>610.816104</ele>
        <time>2021-10-03T09:33:44.000Z</time>
      </trkpt>
      <trkpt lat="43.64454" lon="2.37475">
        <ele>610.216721</ele>
        <time>2021-10-03T09:33:45.000Z</time>
      </trkpt>
      <trkpt lat="43.64456" lon="2.37459">
        <ele>609.668935</ele>
        <time>2021-10-03T09:33:46.000Z</time>
      </trkpt>
      <trkpt lat="43.64459" lon="2.37445">
        <ele>609.226989</ele>
        <time>2021-10-03T09:33:47.000Z</time>
      </trkpt>
      <trkpt lat="43.64461" lon="2.37432">
        <ele>608.931761</ele>
        <time>2021-10-03T09:33:48.000Z</time>
      </trkpt>
      <trkpt lat="43.64463" lon="2.37419">
        <ele>608.657075</ele>
        <time>2021-10-03T09:33:49.000Z</time>
      </trkpt>
      <trkpt lat="43.64466" lon="2.37407">
        <ele>608.383351</ele>
        <time>2021-10-03T09:33:50.000Z</time>
      </trkpt>
      <trkpt lat="43.64468" lon="2.37396">
        <ele>608.147403</ele>
        <time>2021-10-03T09:33:51.000Z</time>
      </trkpt>
      <trkpt lat="43.64471" lon="2.37386">
        <ele>607.912816</ele>
        <time>2021-10-03T09:33:52.000Z</time>
      </trkpt>
      <trkpt lat="43.64473" lon="2.37375">
        <ele>607.68294</ele>
        <time>2021-10-03T09:33:53.000Z</time>
      </trkpt>
      <trkpt lat="43.64476" lon="2.37365">
        <ele>607.443404</ele>
        <time>2021-10-03T09:33:54.000Z</time>
      </trkpt>
      <trkpt lat="43.64478" lon="2.37354">
        <ele>607.213528</ele>
        <time>2021-10-03T09:33:55.000Z</time>
      </trkpt>
      <trkpt lat="43.6448" lon="2.37346">
        <ele>607.027874</ele>
        <time>2021-10-03T09:33:56.000Z</time>
      </trkpt>
      <trkpt lat="43.64482" lon="2.37334">
        <ele>606.767972</ele>
        <time>2021-10-03T09:33:57.000Z</time>
      </trkpt>
      <trkpt lat="43.64484" lon="2.37324">
        <ele>606.553547</ele>
        <time>2021-10-03T09:33:58.000Z</time>
      </trkpt>
      <trkpt lat="43.64485" lon="2.37314">
        <ele>606.346828</ele>
        <time>2021-10-03T09:33:59.000Z</time>
      </trkpt>
      <trkpt lat="43.64485" lon="2.37305">
        <ele>606.145823</ele>
        <time>2021-10-03T09:34:00.000Z</time>
      </trkpt>
      <trkpt lat="43.64484" lon="2.37296">
        <ele>605.954483</ele>
        <time>2021-10-03T09:34:01.000Z</time>
      </trkpt>
      <trkpt lat="43.64484" lon="2.37288">
        <ele>605.786244</ele>
        <time>2021-10-03T09:34:02.000Z</time>
      </trkpt>
      <trkpt lat="43.64483" lon="2.3728">
        <ele>605.616188</ele>
        <time>2021-10-03T09:34:03.000Z</time>
      </trkpt>
      <trkpt lat="43.64482" lon="2.37273">
        <ele>605.468474</ele>
        <time>2021-10-03T09:34:04.000Z</time>
      </trkpt>
      <trkpt lat="43.64482" lon="2.37267">
        <ele>605.337384</ele>
        <time>2021-10-03T09:34:05.000Z</time>
      </trkpt>
      <trkpt lat="43.64483" lon="2.3726">
        <ele>605.195928</ele>
        <time>2021-10-03T09:34:06.000Z</time>
      </trkpt>
      <trkpt lat="43.64484" lon="2.37254">
        <ele>605.064679</ele>
        <time>2021-10-03T09:34:07.000Z</time>
      </trkpt>
      <trkpt lat="43.64486" lon="2.37248">
        <ele>604.924298</ele>
        <time>2021-10-03T09:34:08.000Z</time>
      </trkpt>
      <trkpt lat="43.64487" lon="2.37242">
        <ele>604.789131</ele>
        <time>2021-10-03T09:34:09.000Z</time>
      </trkpt>
      <trkpt lat="43.64489" lon="2.37236">
        <ele>604.650943</ele>
        <time>2021-10-03T09:34:10.000Z</time>
      </trkpt>
      <trkpt lat="43.6449" lon="2.37229">
        <ele>604.49064</ele>
        <time>2021-10-03T09:34:11.000Z</time>
      </trkpt>
      <trkpt lat="43.64491" lon="2.37222">
        <ele>604.347476</ele>
        <time>2021-10-03T09:34:12.000Z</time>
      </trkpt>
      <trkpt lat="43.64492" lon="2.37216">
        <ele>604.224318</ele>
        <time>2021-10-03T09:34:13.000Z</time>
      </trkpt>
      <trkpt lat="43.64493" lon="2.37211">
        <ele>604.101661</ele>
        <time>2021-10-03T09:34:14.000Z</time>
      </trkpt>
      <trkpt lat="43.64494" lon="2.37203">
        <ele>603.836377</ele>
        <time>2021-10-03T09:34:15.000Z</time>
      </trkpt>
      <trkpt lat="43.64496" lon="2.37195">
        <ele>603.530425</ele>
        <time>2021-10-03T09:34:16.000Z</time>
      </trkpt>
      <trkpt lat="43.64498" lon="2.37186">
        <ele>603.174354</ele>
        <time>2021-10-03T09:34:17.000Z</time>
      </trkpt>
      <trkpt lat="43.645" lon="2.37177">
        <ele>602.820934</ele>
        <time>2021-10-03T09:34:18.000Z</time>
      </trkpt>
      <trkpt lat="43.64502" lon="2.37167">
        <ele>602.471065</ele>
        <time>2021-10-03T09:34:19.000Z</time>
      </trkpt>
      <trkpt lat="43.64503" lon="2.37158">
        <ele>602.125738</ele>
        <time>2021-10-03T09:34:20.000Z</time>
      </trkpt>
      <trkpt lat="43.64505" lon="2.37149">
        <ele>601.788171</ele>
        <time>2021-10-03T09:34:21.000Z</time>
      </trkpt>
      <trkpt lat="43.64505" lon="2.37141">
        <ele>601.476825</ele>
        <time>2021-10-03T09:34:22.000Z</time>
      </trkpt>
      <trkpt lat="43.64505" lon="2.37132">
        <ele>601.147424</ele>
        <time>2021-10-03T09:34:23.000Z</time>
      </trkpt>
      <trkpt lat="43.64506" lon="2.37122">
        <ele>600.783651</ele>
        <time>2021-10-03T09:34:24.000Z</time>
      </trkpt>
      <trkpt lat="43.64507" lon="2.37113">
        <ele>600.441356</ele>
        <time>2021-10-03T09:34:25.000Z</time>
      </trkpt>
      <trkpt lat="43.64508" lon="2.37104">
        <ele>600.093254</ele>
        <time>2021-10-03T09:34:26.000Z</time>
      </trkpt>
      <trkpt lat="43.6451" lon="2.37094">
        <ele>599.737673</ele>
        <time>2021-10-03T09:34:27.000Z</time>
      </trkpt>
      <trkpt lat="43.64511" lon="2.37085">
        <ele>599.399615</ele>
        <time>2021-10-03T09:34:28.000Z</time>
      </trkpt>
      <trkpt lat="43.64512" lon="2.37076">
        <ele>599.047867</ele>
        <time>2021-10-03T09:34:29.000Z</time>
      </trkpt>
      <trkpt lat="43.64513" lon="2.37066">
        <ele>598.677064</ele>
        <time>2021-10-03T09:34:30.000Z</time>
      </trkpt>
      <trkpt lat="43.64514" lon="2.37056">
        <ele>598.310722</ele>
        <time>2021-10-03T09:34:31.000Z</time>
      </trkpt>
      <trkpt lat="43.64516" lon="2.37047">
        <ele>597.965955</ele>
        <time>2021-10-03T09:34:32.000Z</time>
      </trkpt>
      <trkpt lat="43.64518" lon="2.37039">
        <ele>597.640853</ele>
        <time>2021-10-03T09:34:33.000Z</time>
      </trkpt>
      <trkpt lat="43.64519" lon="2.3703">
        <ele>597.31407</ele>
        <time>2021-10-03T09:34:34.000Z</time>
      </trkpt>
      <trkpt lat="43.64521" lon="2.37022">
        <ele>596.992491</ele>
        <time>2021-10-03T09:34:35.000Z</time>
      </trkpt>
      <trkpt lat="43.64523" lon="2.37014">
        <ele>596.670913</ele>
        <time>2021-10-03T09:34:36.000Z</time>
      </trkpt>
      <trkpt lat="43.64525" lon="2.37005">
        <ele>596.346045</ele>
        <time>2021-10-03T09:34:37.000Z</time>
      </trkpt>
      <trkpt lat="43.64528" lon="2.36998">
        <ele>596.052099</ele>
        <time>2021-10-03T09:34:38.000Z</time>
      </trkpt>
      <trkpt lat="43.64531" lon="2.36992">
        <ele>595.76453</ele>
        <time>2021-10-03T09:34:39.000Z</time>
      </trkpt>
      <trkpt lat="43.64534" lon="2.36986">
        <ele>595.513046</ele>
        <time>2021-10-03T09:34:40.000Z</time>
      </trkpt>
      <trkpt lat="43.64537" lon="2.36981">
        <ele>595.285536</ele>
        <time>2021-10-03T09:34:41.000Z</time>
      </trkpt>
      <trkpt lat="43.64539" lon="2.36977">
        <ele>595.083471</ele>
        <time>2021-10-03T09:34:42.000Z</time>
      </trkpt>
      <trkpt lat="43.64542" lon="2.36973">
        <ele>594.870131</ele>
        <time>2021-10-03T09:34:43.000Z</time>
      </trkpt>
      <trkpt lat="43.64544" lon="2.36968">
        <ele>594.362395</ele>
        <time>2021-10-03T09:34:44.000Z</time>
      </trkpt>
      <trkpt lat="43.64546" lon="2.36962">
        <ele>593.898933</ele>
        <time>2021-10-03T09:34:45.000Z</time>
      </trkpt>
      <trkpt lat="43.64546" lon="2.36957">
        <ele>593.485301</ele>
        <time>2021-10-03T09:34:46.000Z</time>
      </trkpt>
      <trkpt lat="43.64546" lon="2.36952">
        <ele>593.112145</ele>
        <time>2021-10-03T09:34:47.000Z</time>
      </trkpt>
      <trkpt lat="43.64546" lon="2.36946">
        <ele>592.645774</ele>
        <time>2021-10-03T09:34:48.000Z</time>
      </trkpt>
      <trkpt lat="43.64545" lon="2.3694">
        <ele>592.188306</ele>
        <time>2021-10-03T09:34:49.000Z</time>
      </trkpt>
      <trkpt lat="43.64544" lon="2.36934">
        <ele>591.683699</ele>
        <time>2021-10-03T09:34:50.000Z</time>
      </trkpt>
      <trkpt lat="43.64543" lon="2.3693">
        <ele>591.337942</ele>
        <time>2021-10-03T09:34:51.000Z</time>
      </trkpt>
      <trkpt lat="43.64541" lon="2.36925">
        <ele>590.863304</ele>
        <time>2021-10-03T09:34:52.000Z</time>
      </trkpt>
      <trkpt lat="43.64541" lon="2.36919">
        <ele>590.420946</ele>
        <time>2021-10-03T09:34:53.000Z</time>
      </trkpt>
      <trkpt lat="43.64539" lon="2.36912">
        <ele>589.85612</ele>
        <time>2021-10-03T09:34:54.000Z</time>
      </trkpt>
      <trkpt lat="43.64539" lon="2.36905">
        <ele>589.27394</ele>
        <time>2021-10-03T09:34:55.000Z</time>
      </trkpt>
      <trkpt lat="43.64539" lon="2.36897">
        <ele>588.666783</ele>
        <time>2021-10-03T09:34:56.000Z</time>
      </trkpt>
      <trkpt lat="43.64539" lon="2.3689">
        <ele>588.105983</ele>
        <time>2021-10-03T09:34:57.000Z</time>
      </trkpt>
      <trkpt lat="43.64539" lon="2.36883">
        <ele>587.583741</ele>
        <time>2021-10-03T09:34:58.000Z</time>
      </trkpt>
      <trkpt lat="43.6454" lon="2.36878">
        <ele>587.126193</ele>
        <time>2021-10-03T09:34:59.000Z</time>
      </trkpt>
      <trkpt lat="43.64542" lon="2.36872">
        <ele>586.603229</ele>
        <time>2021-10-03T09:35:00.000Z</time>
      </trkpt>
      <trkpt lat="43.64543" lon="2.36866">
        <ele>586.13514</ele>
        <time>2021-10-03T09:35:01.000Z</time>
      </trkpt>
      <trkpt lat="43.64544" lon="2.3686">
        <ele>585.669567</ele>
        <time>2021-10-03T09:35:02.000Z</time>
      </trkpt>
      <trkpt lat="43.64545" lon="2.36854">
        <ele>585.182563</ele>
        <time>2021-10-03T09:35:03.000Z</time>
      </trkpt>
      <trkpt lat="43.64546" lon="2.36849">
        <ele>584.782124</ele>
        <time>2021-10-03T09:35:04.000Z</time>
      </trkpt>
      <trkpt lat="43.64547" lon="2.36844">
        <ele>584.377079</ele>
        <time>2021-10-03T09:35:05.000Z</time>
      </trkpt>
      <trkpt lat="43.64548" lon="2.3684">
        <ele>584.019348</ele>
        <time>2021-10-03T09:35:06.000Z</time>
      </trkpt>
      <trkpt lat="43.64549" lon="2.36835">
        <ele>583.607273</ele>
        <time>2021-10-03T09:35:07.000Z</time>
      </trkpt>
      <trkpt lat="43.6455" lon="2.3683">
        <ele>583.195791</ele>
        <time>2021-10-03T09:35:08.000Z</time>
      </trkpt>
      <trkpt lat="43.6455" lon="2.36825">
        <ele>582.799132</ele>
        <time>2021-10-03T09:35:09.000Z</time>
      </trkpt>
      <trkpt lat="43.64552" lon="2.3682">
        <ele>582.356784</ele>
        <time>2021-10-03T09:35:10.000Z</time>
      </trkpt>
      <trkpt lat="43.64553" lon="2.36813">
        <ele>581.822701</ele>
        <time>2021-10-03T09:35:11.000Z</time>
      </trkpt>
      <trkpt lat="43.64555" lon="2.36808">
        <ele>581.377146</ele>
        <time>2021-10-03T09:35:12.000Z</time>
      </trkpt>
      <trkpt lat="43.64558" lon="2.36803">
        <ele>580.859122</ele>
        <time>2021-10-03T09:35:13.000Z</time>
      </trkpt>
      <trkpt lat="43.64559" lon="2.36798">
        <ele>580.491816</ele>
        <time>2021-10-03T09:35:14.000Z</time>
      </trkpt>
      <trkpt lat="43.64561" lon="2.36793">
        <ele>580.046504</ele>
        <time>2021-10-03T09:35:15.000Z</time>
      </trkpt>
      <trkpt lat="43.64562" lon="2.36788">
        <ele>579.608613</ele>
        <time>2021-10-03T09:35:16.000Z</time>
      </trkpt>
      <trkpt lat="43.64564" lon="2.36783">
        <ele>579.125444</ele>
        <time>2021-10-03T09:35:17.000Z</time>
      </trkpt>
      <trkpt lat="43.64566" lon="2.36778">
        <ele>578.737155</ele>
        <time>2021-10-03T09:35:18.000Z</time>
      </trkpt>
      <trkpt lat="43.64566" lon="2.36773">
        <ele>578.294799</ele>
        <time>2021-10-03T09:35:19.000Z</time>
      </trkpt>
      <trkpt lat="43.64568" lon="2.36769">
        <ele>577.986665</ele>
        <time>2021-10-03T09:35:20.000Z</time>
      </trkpt>
      <trkpt lat="43.64568" lon="2.36766">
        <ele>577.722831</ele>
        <time>2021-10-03T09:35:21.000Z</time>
      </trkpt>
      <trkpt lat="43.64568" lon="2.36763">
        <ele>577.513235</ele>
        <time>2021-10-03T09:35:22.000Z</time>
      </trkpt>
      <trkpt lat="43.64569" lon="2.36759">
        <ele>577.16844</ele>
        <time>2021-10-03T09:35:23.000Z</time>
      </trkpt>
      <trkpt lat="43.64571" lon="2.36755">
        <ele>576.80504</ele>
        <time>2021-10-03T09:35:24.000Z</time>
      </trkpt>
      <trkpt lat="43.64571" lon="2.36751">
        <ele>576.472873</ele>
        <time>2021-10-03T09:35:25.000Z</time>
      </trkpt>
      <trkpt lat="43.64572" lon="2.36747">
        <ele>576.171988</ele>
        <time>2021-10-03T09:35:26.000Z</time>
      </trkpt>
      <trkpt lat="43.64573" lon="2.36745">
        <ele>575.949211</ele>
        <time>2021-10-03T09:35:27.000Z</time>
      </trkpt>
      <trkpt lat="43.64574" lon="2.36743">
        <ele>575.789312</ele>
        <time>2021-10-03T09:35:28.000Z</time>
      </trkpt>
      <trkpt lat="43.64575" lon="2.36741">
        <ele>575.615979</ele>
        <time>2021-10-03T09:35:29.000Z</time>
      </trkpt>
      <trkpt lat="43.64576" lon="2.36737">
        <ele>575.314423</ele>
        <time>2021-10-03T09:35:30.000Z</time>
      </trkpt>
      <trkpt lat="43.64576" lon="2.36735">
        <ele>575.187781</ele>
        <time>2021-10-03T09:35:31.000Z</time>
      </trkpt>
      <trkpt lat="43.64577" lon="2.36733">
        <ele>575.073225</ele>
        <time>2021-10-03T09:35:32.000Z</time>
      </trkpt>
      <trkpt lat="43.64578" lon="2.3673">
        <ele>574.944264</ele>
        <time>2021-10-03T09:35:33.000Z</time>
      </trkpt>
      <trkpt lat="43.64579" lon="2.36727">
        <ele>574.807777</ele>
        <time>2021-10-03T09:35:34.000Z</time>
      </trkpt>
      <trkpt lat="43.6458" lon="2.36724">
        <ele>574.654617</ele>
        <time>2021-10-03T09:35:35.000Z</time>
      </trkpt>
      <trkpt lat="43.64581" lon="2.36721">
        <ele>574.510543</ele>
        <time>2021-10-03T09:35:36.000Z</time>
      </trkpt>
      <trkpt lat="43.64583" lon="2.36719">
        <ele>574.381052</ele>
        <time>2021-10-03T09:35:37.000Z</time>
      </trkpt>
      <trkpt lat="43.64583" lon="2.36717">
        <ele>574.310303</ele>
        <time>2021-10-03T09:35:38.000Z</time>
      </trkpt>
      <trkpt lat="43.64584" lon="2.36714">
        <ele>574.177565</ele>
        <time>2021-10-03T09:35:39.000Z</time>
      </trkpt>
      <trkpt lat="43.64585" lon="2.36712">
        <ele>574.056533</ele>
        <time>2021-10-03T09:35:40.000Z</time>
      </trkpt>
      <trkpt lat="43.64586" lon="2.36707">
        <ele>573.855163</ele>
        <time>2021-10-03T09:35:41.000Z</time>
      </trkpt>
      <trkpt lat="43.64587" lon="2.36703">
        <ele>573.650668</ele>
        <time>2021-10-03T09:35:42.000Z</time>
      </trkpt>
      <trkpt lat="43.64589" lon="2.367">
        <ele>573.500059</ele>
        <time>2021-10-03T09:35:43.000Z</time>
      </trkpt>
      <trkpt lat="43.6459" lon="2.36696">
        <ele>573.333113</ele>
        <time>2021-10-03T09:35:44.000Z</time>
      </trkpt>
      <trkpt lat="43.64592" lon="2.36693">
        <ele>573.149084</ele>
        <time>2021-10-03T09:35:45.000Z</time>
      </trkpt>
      <trkpt lat="43.64593" lon="2.3669">
        <ele>572.974824</ele>
        <time>2021-10-03T09:35:46.000Z</time>
      </trkpt>
      <trkpt lat="43.64595" lon="2.36686">
        <ele>572.805027</ele>
        <time>2021-10-03T09:35:47.000Z</time>
      </trkpt>
      <trkpt lat="43.64596" lon="2.36681">
        <ele>572.592782</ele>
        <time>2021-10-03T09:35:48.000Z</time>
      </trkpt>
      <trkpt lat="43.64598" lon="2.36678">
        <ele>572.407348</ele>
        <time>2021-10-03T09:35:49.000Z</time>
      </trkpt>
      <trkpt lat="43.64599" lon="2.36674">
        <ele>572.225664</ele>
        <time>2021-10-03T09:35:50.000Z</time>
      </trkpt>
      <trkpt lat="43.64601" lon="2.36671">
        <ele>572.06233</ele>
        <time>2021-10-03T09:35:51.000Z</time>
      </trkpt>
      <trkpt lat="43.64603" lon="2.36667">
        <ele>571.85376</ele>
        <time>2021-10-03T09:35:52.000Z</time>
      </trkpt>
      <trkpt lat="43.64605" lon="2.36663">
        <ele>571.65933</ele>
        <time>2021-10-03T09:35:53.000Z</time>
      </trkpt>
      <trkpt lat="43.64607" lon="2.3666">
        <ele>571.467111</ele>
        <time>2021-10-03T09:35:54.000Z</time>
      </trkpt>
      <trkpt lat="43.64609" lon="2.36657">
        <ele>571.273896</ele>
        <time>2021-10-03T09:35:55.000Z</time>
      </trkpt>
      <trkpt lat="43.64612" lon="2.36653">
        <ele>571.049541</ele>
        <time>2021-10-03T09:35:56.000Z</time>
      </trkpt>
      <trkpt lat="43.64614" lon="2.3665">
        <ele>570.857958</ele>
        <time>2021-10-03T09:35:57.000Z</time>
      </trkpt>
      <trkpt lat="43.64617" lon="2.36647">
        <ele>570.63826</ele>
        <time>2021-10-03T09:35:58.000Z</time>
      </trkpt>
      <trkpt lat="43.64621" lon="2.36644">
        <ele>570.389814</ele>
        <time>2021-10-03T09:35:59.000Z</time>
      </trkpt>
      <trkpt lat="43.64624" lon="2.36641">
        <ele>570.160125</ele>
        <time>2021-10-03T09:36:00.000Z</time>
      </trkpt>
      <trkpt lat="43.64627" lon="2.36638">
        <ele>569.940879</ele>
        <time>2021-10-03T09:36:01.000Z</time>
      </trkpt>
      <trkpt lat="43.6463" lon="2.36635">
        <ele>569.70873</ele>
        <time>2021-10-03T09:36:02.000Z</time>
      </trkpt>
      <trkpt lat="43.64633" lon="2.36632">
        <ele>569.479661</ele>
        <time>2021-10-03T09:36:03.000Z</time>
      </trkpt>
      <trkpt lat="43.64638" lon="2.36628">
        <ele>569.180054</ele>
        <time>2021-10-03T09:36:04.000Z</time>
      </trkpt>
      <trkpt lat="43.64641" lon="2.36624">
        <ele>568.912056</ele>
        <time>2021-10-03T09:36:05.000Z</time>
      </trkpt>
      <trkpt lat="43.64645" lon="2.3662">
        <ele>568.637637</ele>
        <time>2021-10-03T09:36:06.000Z</time>
      </trkpt>
      <trkpt lat="43.64648" lon="2.36616">
        <ele>568.399591</ele>
        <time>2021-10-03T09:36:07.000Z</time>
      </trkpt>
      <trkpt lat="43.64651" lon="2.36612">
        <ele>568.122345</ele>
        <time>2021-10-03T09:36:08.000Z</time>
      </trkpt>
      <trkpt lat="43.64654" lon="2.36609">
        <ele>567.907467</ele>
        <time>2021-10-03T09:36:09.000Z</time>
      </trkpt>
      <trkpt lat="43.64657" lon="2.36605">
        <ele>567.685356</ele>
        <time>2021-10-03T09:36:10.000Z</time>
      </trkpt>
      <trkpt lat="43.6466" lon="2.36601">
        <ele>567.437177</ele>
        <time>2021-10-03T09:36:11.000Z</time>
      </trkpt>
      <trkpt lat="43.64663" lon="2.36596">
        <ele>567.127803</ele>
        <time>2021-10-03T09:36:12.000Z</time>
      </trkpt>
      <trkpt lat="43.64667" lon="2.36591">
        <ele>566.838888</ele>
        <time>2021-10-03T09:36:13.000Z</time>
      </trkpt>
      <trkpt lat="43.6467" lon="2.36587">
        <ele>566.575812</ele>
        <time>2021-10-03T09:36:14.000Z</time>
      </trkpt>
      <trkpt lat="43.64673" lon="2.36583">
        <ele>566.302963</ele>
        <time>2021-10-03T09:36:15.000Z</time>
      </trkpt>
      <trkpt lat="43.64677" lon="2.36578">
        <ele>566.020901</ele>
        <time>2021-10-03T09:36:16.000Z</time>
      </trkpt>
      <trkpt lat="43.64679" lon="2.36573">
        <ele>565.777549</ele>
        <time>2021-10-03T09:36:17.000Z</time>
      </trkpt>
      <trkpt lat="43.64682" lon="2.36568">
        <ele>565.510082</ele>
        <time>2021-10-03T09:36:18.000Z</time>
      </trkpt>
      <trkpt lat="43.64685" lon="2.36564">
        <ele>565.229538</ele>
        <time>2021-10-03T09:36:19.000Z</time>
      </trkpt>
      <trkpt lat="43.64689" lon="2.36559">
        <ele>564.941795</ele>
        <time>2021-10-03T09:36:20.000Z</time>
      </trkpt>
      <trkpt lat="43.64691" lon="2.36555">
        <ele>564.700287</ele>
        <time>2021-10-03T09:36:21.000Z</time>
      </trkpt>
      <trkpt lat="43.64694" lon="2.36549">
        <ele>564.475059</ele>
        <time>2021-10-03T09:36:22.000Z</time>
      </trkpt>
      <trkpt lat="43.64699" lon="2.36542">
        <ele>564.18065</ele>
        <time>2021-10-03T09:36:23.000Z</time>
      </trkpt>
      <trkpt lat="43.64703" lon="2.36536">
        <ele>563.941153</ele>
        <time>2021-10-03T09:36:24.000Z</time>
      </trkpt>
      <trkpt lat="43.64707" lon="2.3653">
        <ele>563.710266</ele>
        <time>2021-10-03T09:36:25.000Z</time>
      </trkpt>
      <trkpt lat="43.6471" lon="2.36525">
        <ele>563.49198</ele>
        <time>2021-10-03T09:36:26.000Z</time>
      </trkpt>
      <trkpt lat="43.64714" lon="2.36519">
        <ele>563.261224</ele>
        <time>2021-10-03T09:36:27.000Z</time>
      </trkpt>
      <trkpt lat="43.64717" lon="2.36514">
        <ele>563.07183</ele>
        <time>2021-10-03T09:36:28.000Z</time>
      </trkpt>
      <trkpt lat="43.64719" lon="2.3651">
        <ele>562.899921</ele>
        <time>2021-10-03T09:36:29.000Z</time>
      </trkpt>
      <trkpt lat="43.64722" lon="2.36505">
        <ele>562.73296</ele>
        <time>2021-10-03T09:36:30.000Z</time>
      </trkpt>
      <trkpt lat="43.64724" lon="2.36501">
        <ele>562.573287</ele>
        <time>2021-10-03T09:36:31.000Z</time>
      </trkpt>
      <trkpt lat="43.64726" lon="2.36496">
        <ele>562.40269</ele>
        <time>2021-10-03T09:36:32.000Z</time>
      </trkpt>
      <trkpt lat="43.64727" lon="2.3649">
        <ele>562.227178</ele>
        <time>2021-10-03T09:36:33.000Z</time>
      </trkpt>
      <trkpt lat="43.64729" lon="2.36485">
        <ele>562.078353</ele>
        <time>2021-10-03T09:36:34.000Z</time>
      </trkpt>
      <trkpt lat="43.64729" lon="2.36482">
        <ele>561.957307</ele>
        <time>2021-10-03T09:36:35.000Z</time>
      </trkpt>
      <trkpt lat="43.6473" lon="2.36478">
        <ele>561.840218</ele>
        <time>2021-10-03T09:36:36.000Z</time>
      </trkpt>
      <trkpt lat="43.64731" lon="2.36473">
        <ele>561.702598</ele>
        <time>2021-10-03T09:36:37.000Z</time>
      </trkpt>
      <trkpt lat="43.64732" lon="2.36469">
        <ele>561.560765</ele>
        <time>2021-10-03T09:36:38.000Z</time>
      </trkpt>
      <trkpt lat="43.64734" lon="2.36465">
        <ele>561.431509</ele>
        <time>2021-10-03T09:36:39.000Z</time>
      </trkpt>
      <trkpt lat="43.64735" lon="2.3646">
        <ele>561.277039</ele>
        <time>2021-10-03T09:36:40.000Z</time>
      </trkpt>
      <trkpt lat="43.64736" lon="2.36455">
        <ele>561.123842</ele>
        <time>2021-10-03T09:36:41.000Z</time>
      </trkpt>
      <trkpt lat="43.64737" lon="2.3645">
        <ele>560.952305</ele>
        <time>2021-10-03T09:36:42.000Z</time>
      </trkpt>
      <trkpt lat="43.64738" lon="2.36445">
        <ele>560.800233</ele>
        <time>2021-10-03T09:36:43.000Z</time>
      </trkpt>
      <trkpt lat="43.64739" lon="2.3644">
        <ele>560.647324</ele>
        <time>2021-10-03T09:36:44.000Z</time>
      </trkpt>
      <trkpt lat="43.6474" lon="2.36435">
        <ele>560.485549</ele>
        <time>2021-10-03T09:36:45.000Z</time>
      </trkpt>
      <trkpt lat="43.64742" lon="2.36429">
        <ele>560.295436</ele>
        <time>2021-10-03T09:36:46.000Z</time>
      </trkpt>
      <trkpt lat="43.64744" lon="2.36423">
        <ele>560.117903</ele>
        <time>2021-10-03T09:36:47.000Z</time>
      </trkpt>
      <trkpt lat="43.64745" lon="2.36419">
        <ele>559.961777</ele>
        <time>2021-10-03T09:36:48.000Z</time>
      </trkpt>
      <trkpt lat="43.64747" lon="2.36413">
        <ele>559.766584</ele>
        <time>2021-10-03T09:36:49.000Z</time>
      </trkpt>
      <trkpt lat="43.64747" lon="2.36409">
        <ele>559.646007</ele>
        <time>2021-10-03T09:36:50.000Z</time>
      </trkpt>
      <trkpt lat="43.64749" lon="2.36405">
        <ele>559.512874</ele>
        <time>2021-10-03T09:36:51.000Z</time>
      </trkpt>
      <trkpt lat="43.6475" lon="2.36401">
        <ele>559.390639</ele>
        <time>2021-10-03T09:36:52.000Z</time>
      </trkpt>
      <trkpt lat="43.64751" lon="2.36398">
        <ele>559.278978</ele>
        <time>2021-10-03T09:36:53.000Z</time>
      </trkpt>
      <trkpt lat="43.64753" lon="2.36393">
        <ele>559.141359</ele>
        <time>2021-10-03T09:36:54.000Z</time>
      </trkpt>
      <trkpt lat="43.64754" lon="2.36389">
        <ele>559.0015</ele>
        <time>2021-10-03T09:36:55.000Z</time>
      </trkpt>
      <trkpt lat="43.64755" lon="2.36387">
        <ele>558.91438</ele>
        <time>2021-10-03T09:36:56.000Z</time>
      </trkpt>
      <trkpt lat="43.64755" lon="2.36382">
        <ele>558.788356</ele>
        <time>2021-10-03T09:36:57.000Z</time>
      </trkpt>
      <trkpt lat="43.64754" lon="2.36378">
        <ele>558.667778</ele>
        <time>2021-10-03T09:36:58.000Z</time>
      </trkpt>
      <trkpt lat="43.64753" lon="2.36374">
        <ele>558.520275</ele>
        <time>2021-10-03T09:36:59.000Z</time>
      </trkpt>
      <trkpt lat="43.64753" lon="2.3637">
        <ele>558.411517</ele>
        <time>2021-10-03T09:37:00.000Z</time>
      </trkpt>
      <trkpt lat="43.64753" lon="2.36367">
        <ele>558.307005</ele>
        <time>2021-10-03T09:37:01.000Z</time>
      </trkpt>
      <trkpt lat="43.64753" lon="2.36362">
        <ele>558.163141</ele>
        <time>2021-10-03T09:37:02.000Z</time>
      </trkpt>
      <trkpt lat="43.64754" lon="2.36357">
        <ele>558.001367</ele>
        <time>2021-10-03T09:37:03.000Z</time>
      </trkpt>
      <trkpt lat="43.64755" lon="2.36351">
        <ele>557.841229</ele>
        <time>2021-10-03T09:37:04.000Z</time>
      </trkpt>
      <trkpt lat="43.64756" lon="2.36345">
        <ele>557.65061</ele>
        <time>2021-10-03T09:37:05.000Z</time>
      </trkpt>
      <trkpt lat="43.64757" lon="2.3634">
        <ele>557.491864</ele>
        <time>2021-10-03T09:37:06.000Z</time>
      </trkpt>
      <trkpt lat="43.64759" lon="2.36333">
        <ele>557.279587</ele>
        <time>2021-10-03T09:37:07.000Z</time>
      </trkpt>
      <trkpt lat="43.6476" lon="2.36327">
        <ele>557.049109</ele>
        <time>2021-10-03T09:37:08.000Z</time>
      </trkpt>
      <trkpt lat="43.6476" lon="2.3632">
        <ele>556.788664</ele>
        <time>2021-10-03T09:37:09.000Z</time>
      </trkpt>
      <trkpt lat="43.64762" lon="2.36314">
        <ele>556.521145</ele>
        <time>2021-10-03T09:37:10.000Z</time>
      </trkpt>
      <trkpt lat="43.64764" lon="2.36307">
        <ele>556.216951</ele>
        <time>2021-10-03T09:37:11.000Z</time>
      </trkpt>
      <trkpt lat="43.64766" lon="2.36301">
        <ele>555.976016</ele>
        <time>2021-10-03T09:37:12.000Z</time>
      </trkpt>
      <trkpt lat="43.64767" lon="2.36294">
        <ele>555.700583</ele>
        <time>2021-10-03T09:37:13.000Z</time>
      </trkpt>
      <trkpt lat="43.64768" lon="2.36288">
        <ele>555.449511</ele>
        <time>2021-10-03T09:37:14.000Z</time>
      </trkpt>
      <trkpt lat="43.64769" lon="2.36282">
        <ele>555.208351</ele>
        <time>2021-10-03T09:37:15.000Z</time>
      </trkpt>
      <trkpt lat="43.6477" lon="2.36274">
        <ele>554.915683</ele>
        <time>2021-10-03T09:37:16.000Z</time>
      </trkpt>
      <trkpt lat="43.64772" lon="2.36267">
        <ele>554.64076</ele>
        <time>2021-10-03T09:37:17.000Z</time>
      </trkpt>
      <trkpt lat="43.64773" lon="2.36262">
        <ele>554.413054</ele>
        <time>2021-10-03T09:37:18.000Z</time>
      </trkpt>
      <trkpt lat="43.64774" lon="2.36255">
        <ele>554.124179</ele>
        <time>2021-10-03T09:37:19.000Z</time>
      </trkpt>
      <trkpt lat="43.64775" lon="2.36248">
        <ele>553.849633</ele>
        <time>2021-10-03T09:37:20.000Z</time>
      </trkpt>
      <trkpt lat="43.64775" lon="2.36241">
        <ele>553.586142</ele>
        <time>2021-10-03T09:37:21.000Z</time>
      </trkpt>
      <trkpt lat="43.64777" lon="2.36234">
        <ele>553.320131</ele>
        <time>2021-10-03T09:37:22.000Z</time>
      </trkpt>
      <trkpt lat="43.64778" lon="2.36229">
        <ele>553.081515</ele>
        <time>2021-10-03T09:37:23.000Z</time>
      </trkpt>
      <trkpt lat="43.6478" lon="2.36222">
        <ele>552.828252</ele>
        <time>2021-10-03T09:37:24.000Z</time>
      </trkpt>
      <trkpt lat="43.64781" lon="2.36216">
        <ele>552.583275</ele>
        <time>2021-10-03T09:37:25.000Z</time>
      </trkpt>
      <trkpt lat="43.64782" lon="2.36209">
        <ele>552.307869</ele>
        <time>2021-10-03T09:37:26.000Z</time>
      </trkpt>
      <trkpt lat="43.64784" lon="2.36204">
        <ele>552.082191</ele>
        <time>2021-10-03T09:37:27.000Z</time>
      </trkpt>
      <trkpt lat="43.64785" lon="2.36198">
        <ele>551.819808</ele>
        <time>2021-10-03T09:37:28.000Z</time>
      </trkpt>
      <trkpt lat="43.64787" lon="2.36192">
        <ele>551.57754</ele>
        <time>2021-10-03T09:37:29.000Z</time>
      </trkpt>
      <trkpt lat="43.64788" lon="2.36185">
        <ele>551.315219</ele>
        <time>2021-10-03T09:37:30.000Z</time>
      </trkpt>
      <trkpt lat="43.64791" lon="2.36181">
        <ele>551.09213</ele>
        <time>2021-10-03T09:37:31.000Z</time>
      </trkpt>
      <trkpt lat="43.64793" lon="2.36176">
        <ele>550.878515</ele>
        <time>2021-10-03T09:37:32.000Z</time>
      </trkpt>
      <trkpt lat="43.64793" lon="2.36171">
        <ele>550.684516</ele>
        <time>2021-10-03T09:37:33.000Z</time>
      </trkpt>
      <trkpt lat="43.64794" lon="2.36166">
        <ele>550.464356</ele>
        <time>2021-10-03T09:37:34.000Z</time>
      </trkpt>
      <trkpt lat="43.64795" lon="2.3616">
        <ele>550.224568</ele>
        <time>2021-10-03T09:37:35.000Z</time>
      </trkpt>
      <trkpt lat="43.64795" lon="2.36152">
        <ele>549.941711</ele>
        <time>2021-10-03T09:37:36.000Z</time>
      </trkpt>
      <trkpt lat="43.64795" lon="2.36145">
        <ele>549.678275</ele>
        <time>2021-10-03T09:37:37.000Z</time>
      </trkpt>
      <trkpt lat="43.64795" lon="2.3614">
        <ele>549.454296</ele>
        <time>2021-10-03T09:37:38.000Z</time>
      </trkpt>
      <trkpt lat="43.64794" lon="2.36133">
        <ele>549.203225</ele>
        <time>2021-10-03T09:37:39.000Z</time>
      </trkpt>
      <trkpt lat="43.64792" lon="2.36128">
        <ele>548.976409</ele>
        <time>2021-10-03T09:37:40.000Z</time>
      </trkpt>
      <trkpt lat="43.64789" lon="2.36122">
        <ele>548.682687</ele>
        <time>2021-10-03T09:37:41.000Z</time>
      </trkpt>
      <trkpt lat="43.64787" lon="2.36117">
        <ele>548.462567</ele>
        <time>2021-10-03T09:37:42.000Z</time>
      </trkpt>
      <trkpt lat="43.64785" lon="2.36109">
        <ele>548.136518</ele>
        <time>2021-10-03T09:37:43.000Z</time>
      </trkpt>
      <trkpt lat="43.64783" lon="2.361">
        <ele>547.778722</ele>
        <time>2021-10-03T09:37:44.000Z</time>
      </trkpt>
      <trkpt lat="43.64781" lon="2.36091">
        <ele>547.334736</ele>
        <time>2021-10-03T09:37:45.000Z</time>
      </trkpt>
      <trkpt lat="43.64779" lon="2.36081">
        <ele>546.694176</ele>
        <time>2021-10-03T09:37:46.000Z</time>
      </trkpt>
      <trkpt lat="43.64776" lon="2.36071">
        <ele>546.068426</ele>
        <time>2021-10-03T09:37:47.000Z</time>
      </trkpt>
      <trkpt lat="43.64774" lon="2.36061">
        <ele>545.399659</ele>
        <time>2021-10-03T09:37:48.000Z</time>
      </trkpt>
      <trkpt lat="43.64772" lon="2.36051">
        <ele>544.762595</ele>
        <time>2021-10-03T09:37:49.000Z</time>
      </trkpt>
      <trkpt lat="43.6477" lon="2.36041">
        <ele>544.127849</ele>
        <time>2021-10-03T09:37:50.000Z</time>
      </trkpt>
      <trkpt lat="43.64768" lon="2.36032">
        <ele>543.575183</ele>
        <time>2021-10-03T09:37:51.000Z</time>
      </trkpt>
      <trkpt lat="43.64768" lon="2.36024">
        <ele>543.039808</ele>
        <time>2021-10-03T09:37:52.000Z</time>
      </trkpt>
      <trkpt lat="43.64766" lon="2.36016">
        <ele>542.57863</ele>
        <time>2021-10-03T09:37:53.000Z</time>
      </trkpt>
      <trkpt lat="43.64765" lon="2.3601">
        <ele>542.204498</ele>
        <time>2021-10-03T09:37:54.000Z</time>
      </trkpt>
      <trkpt lat="43.64763" lon="2.36005">
        <ele>541.852466</ele>
        <time>2021-10-03T09:37:55.000Z</time>
      </trkpt>
      <trkpt lat="43.6476" lon="2.36001">
        <ele>541.515045</ele>
        <time>2021-10-03T09:37:56.000Z</time>
      </trkpt>
      <trkpt lat="43.64757" lon="2.35998">
        <ele>541.160985</ele>
        <time>2021-10-03T09:37:57.000Z</time>
      </trkpt>
      <trkpt lat="43.64753" lon="2.35996">
        <ele>540.78815</ele>
        <time>2021-10-03T09:37:58.000Z</time>
      </trkpt>
      <trkpt lat="43.64748" lon="2.35995">
        <ele>540.369342</ele>
        <time>2021-10-03T09:37:59.000Z</time>
      </trkpt>
      <trkpt lat="43.64743" lon="2.35994">
        <ele>539.947118</ele>
        <time>2021-10-03T09:38:00.000Z</time>
      </trkpt>
      <trkpt lat="43.64737" lon="2.35994">
        <ele>539.464342</ele>
        <time>2021-10-03T09:38:01.000Z</time>
      </trkpt>
      <trkpt lat="43.6473" lon="2.35993">
        <ele>538.887419</ele>
        <time>2021-10-03T09:38:02.000Z</time>
      </trkpt>
      <trkpt lat="43.64724" lon="2.35991">
        <ele>538.303307</ele>
        <time>2021-10-03T09:38:03.000Z</time>
      </trkpt>
      <trkpt lat="43.64717" lon="2.35989">
        <ele>537.70852</ele>
        <time>2021-10-03T09:38:04.000Z</time>
      </trkpt>
      <trkpt lat="43.6471" lon="2.35988">
        <ele>537.155275</ele>
        <time>2021-10-03T09:38:05.000Z</time>
      </trkpt>
      <trkpt lat="43.64704" lon="2.35987">
        <ele>536.606357</ele>
        <time>2021-10-03T09:38:06.000Z</time>
      </trkpt>
      <trkpt lat="43.64698" lon="2.35988">
        <ele>536.133557</ele>
        <time>2021-10-03T09:38:07.000Z</time>
      </trkpt>
      <trkpt lat="43.64693" lon="2.35988">
        <ele>535.702602</ele>
        <time>2021-10-03T09:38:08.000Z</time>
      </trkpt>
      <trkpt lat="43.64688" lon="2.35988">
        <ele>535.297465</ele>
        <time>2021-10-03T09:38:09.000Z</time>
      </trkpt>
      <trkpt lat="43.64684" lon="2.35988">
        <ele>534.909385</ele>
        <time>2021-10-03T09:38:10.000Z</time>
      </trkpt>
      <trkpt lat="43.64679" lon="2.35988">
        <ele>534.537977</ele>
        <time>2021-10-03T09:38:11.000Z</time>
      </trkpt>
      <trkpt lat="43.64675" lon="2.35988">
        <ele>534.157892</ele>
        <time>2021-10-03T09:38:12.000Z</time>
      </trkpt>
      <trkpt lat="43.64671" lon="2.35988">
        <ele>533.828811</ele>
        <time>2021-10-03T09:38:13.000Z</time>
      </trkpt>
      <trkpt lat="43.64667" lon="2.35987">
        <ele>533.501266</ele>
        <time>2021-10-03T09:38:14.000Z</time>
      </trkpt>
      <trkpt lat="43.64664" lon="2.35987">
        <ele>533.237181</ele>
        <time>2021-10-03T09:38:15.000Z</time>
      </trkpt>
      <trkpt lat="43.64661" lon="2.35986">
        <ele>532.946211</ele>
        <time>2021-10-03T09:38:16.000Z</time>
      </trkpt>
      <trkpt lat="43.64657" lon="2.35985">
        <ele>532.625101</ele>
        <time>2021-10-03T09:38:17.000Z</time>
      </trkpt>
      <trkpt lat="43.64653" lon="2.35986">
        <ele>532.337612</ele>
        <time>2021-10-03T09:38:18.000Z</time>
      </trkpt>
      <trkpt lat="43.64649" lon="2.35986">
        <ele>532.175912</ele>
        <time>2021-10-03T09:38:19.000Z</time>
      </trkpt>
      <trkpt lat="43.64645" lon="2.35986">
        <ele>532.019004</ele>
        <time>2021-10-03T09:38:20.000Z</time>
      </trkpt>
      <trkpt lat="43.64641" lon="2.35986">
        <ele>531.87851</ele>
        <time>2021-10-03T09:38:21.000Z</time>
      </trkpt>
      <trkpt lat="43.64638" lon="2.35986">
        <ele>531.721517</ele>
        <time>2021-10-03T09:38:22.000Z</time>
      </trkpt>
      <trkpt lat="43.64634" lon="2.35987">
        <ele>531.580011</ele>
        <time>2021-10-03T09:38:23.000Z</time>
      </trkpt>
      <trkpt lat="43.64631" lon="2.35989">
        <ele>531.423651</ele>
        <time>2021-10-03T09:38:24.000Z</time>
      </trkpt>
      <trkpt lat="43.64628" lon="2.35991">
        <ele>531.292128</ele>
        <time>2021-10-03T09:38:25.000Z</time>
      </trkpt>
      <trkpt lat="43.64624" lon="2.35993">
        <ele>531.129172</ele>
        <time>2021-10-03T09:38:26.000Z</time>
      </trkpt>
      <trkpt lat="43.64621" lon="2.35994">
        <ele>530.978859</ele>
        <time>2021-10-03T09:38:27.000Z</time>
      </trkpt>
      <trkpt lat="43.64618" lon="2.35996">
        <ele>530.843259</ele>
        <time>2021-10-03T09:38:28.000Z</time>
      </trkpt>
      <trkpt lat="43.64614" lon="2.35997">
        <ele>530.696795</ele>
        <time>2021-10-03T09:38:29.000Z</time>
      </trkpt>
      <trkpt lat="43.64611" lon="2.35998">
        <ele>530.53946</ele>
        <time>2021-10-03T09:38:30.000Z</time>
      </trkpt>
      <trkpt lat="43.64606" lon="2.35997">
        <ele>530.353082</ele>
        <time>2021-10-03T09:38:31.000Z</time>
      </trkpt>
      <trkpt lat="43.64603" lon="2.35996">
        <ele>530.205532</ele>
        <time>2021-10-03T09:38:32.000Z</time>
      </trkpt>
      <trkpt lat="43.64599" lon="2.35994">
        <ele>530.047914</ele>
        <time>2021-10-03T09:38:33.000Z</time>
      </trkpt>
      <trkpt lat="43.64595" lon="2.35992">
        <ele>529.879086</ele>
        <time>2021-10-03T09:38:34.000Z</time>
      </trkpt>
      <trkpt lat="43.64592" lon="2.3599">
        <ele>529.717765</ele>
        <time>2021-10-03T09:38:35.000Z</time>
      </trkpt>
      <trkpt lat="43.64588" lon="2.35988">
        <ele>529.575131</ele>
        <time>2021-10-03T09:38:36.000Z</time>
      </trkpt>
      <trkpt lat="43.64585" lon="2.35986">
        <ele>529.435128</ele>
        <time>2021-10-03T09:38:37.000Z</time>
      </trkpt>
      <trkpt lat="43.64582" lon="2.35986">
        <ele>529.301808</ele>
        <time>2021-10-03T09:38:38.000Z</time>
      </trkpt>
      <trkpt lat="43.64579" lon="2.35986">
        <ele>529.153065</ele>
        <time>2021-10-03T09:38:39.000Z</time>
      </trkpt>
      <trkpt lat="43.64575" lon="2.35986">
        <ele>529.011559</ele>
        <time>2021-10-03T09:38:40.000Z</time>
      </trkpt>
      <trkpt lat="43.64571" lon="2.35987">
        <ele>528.837523</ele>
        <time>2021-10-03T09:38:41.000Z</time>
      </trkpt>
      <trkpt lat="43.64567" lon="2.35987">
        <ele>528.675163</ele>
        <time>2021-10-03T09:38:42.000Z</time>
      </trkpt>
      <trkpt lat="43.64562" lon="2.35987">
        <ele>528.472672</ele>
        <time>2021-10-03T09:38:43.000Z</time>
      </trkpt>
      <trkpt lat="43.64558" lon="2.35987">
        <ele>528.299047</ele>
        <time>2021-10-03T09:38:44.000Z</time>
      </trkpt>
      <trkpt lat="43.64553" lon="2.35985">
        <ele>528.076821</ele>
        <time>2021-10-03T09:38:45.000Z</time>
      </trkpt>
      <trkpt lat="43.64549" lon="2.35985">
        <ele>527.925785</ele>
        <time>2021-10-03T09:38:46.000Z</time>
      </trkpt>
      <trkpt lat="43.64546" lon="2.35984">
        <ele>527.800642</ele>
        <time>2021-10-03T09:38:47.000Z</time>
      </trkpt>
      <trkpt lat="43.64543" lon="2.35984">
        <ele>527.689015</ele>
        <time>2021-10-03T09:38:48.000Z</time>
      </trkpt>
      <trkpt lat="43.6454" lon="2.35983">
        <ele>527.531426</ele>
        <time>2021-10-03T09:38:49.000Z</time>
      </trkpt>
      <trkpt lat="43.64535" lon="2.35982">
        <ele>527.346827</ele>
        <time>2021-10-03T09:38:50.000Z</time>
      </trkpt>
      <trkpt lat="43.64531" lon="2.3598">
        <ele>527.15257</ele>
        <time>2021-10-03T09:38:51.000Z</time>
      </trkpt>
      <trkpt lat="43.64526" lon="2.35979">
        <ele>526.967926</ele>
        <time>2021-10-03T09:38:52.000Z</time>
      </trkpt>
      <trkpt lat="43.64522" lon="2.35976">
        <ele>526.782495</ele>
        <time>2021-10-03T09:38:53.000Z</time>
      </trkpt>
      <trkpt lat="43.64519" lon="2.35975">
        <ele>526.625434</ele>
        <time>2021-10-03T09:38:54.000Z</time>
      </trkpt>
      <trkpt lat="43.64516" lon="2.35973">
        <ele>526.487923</ele>
        <time>2021-10-03T09:38:55.000Z</time>
      </trkpt>
      <trkpt lat="43.64512" lon="2.3597">
        <ele>526.325267</ele>
        <time>2021-10-03T09:38:56.000Z</time>
      </trkpt>
      <trkpt lat="43.64509" lon="2.35968">
        <ele>526.190245</ele>
        <time>2021-10-03T09:38:57.000Z</time>
      </trkpt>
      <trkpt lat="43.64506" lon="2.35968">
        <ele>526.048739</ele>
        <time>2021-10-03T09:38:58.000Z</time>
      </trkpt>
      <trkpt lat="43.64503" lon="2.35968">
        <ele>525.920758</ele>
        <time>2021-10-03T09:38:59.000Z</time>
      </trkpt>
      <trkpt lat="43.64499" lon="2.35968">
        <ele>525.792742</ele>
        <time>2021-10-03T09:39:00.000Z</time>
      </trkpt>
      <trkpt lat="43.64496" lon="2.35969">
        <ele>525.665337</ele>
        <time>2021-10-03T09:39:01.000Z</time>
      </trkpt>
      <trkpt lat="43.64493" lon="2.3597">
        <ele>525.506964</ele>
        <time>2021-10-03T09:39:02.000Z</time>
      </trkpt>
      <trkpt lat="43.64489" lon="2.35973">
        <ele>525.344308</ele>
        <time>2021-10-03T09:39:03.000Z</time>
      </trkpt>
      <trkpt lat="43.64485" lon="2.35976">
        <ele>525.162132</ele>
        <time>2021-10-03T09:39:04.000Z</time>
      </trkpt>
      <trkpt lat="43.6448" lon="2.35978">
        <ele>525.023702</ele>
        <time>2021-10-03T09:39:05.000Z</time>
      </trkpt>
      <trkpt lat="43.64476" lon="2.3598">
        <ele>525.362473</ele>
        <time>2021-10-03T09:39:06.000Z</time>
      </trkpt>
      <trkpt lat="43.64472" lon="2.35983">
        <ele>525.674546</ele>
        <time>2021-10-03T09:39:07.000Z</time>
      </trkpt>
      <trkpt lat="43.64467" lon="2.35984">
        <ele>525.974501</ele>
        <time>2021-10-03T09:39:08.000Z</time>
      </trkpt>
      <trkpt lat="43.64464" lon="2.35986">
        <ele>526.198866</ele>
        <time>2021-10-03T09:39:09.000Z</time>
      </trkpt>
      <trkpt lat="43.6446" lon="2.35986">
        <ele>526.4774</ele>
        <time>2021-10-03T09:39:10.000Z</time>
      </trkpt>
      <trkpt lat="43.64456" lon="2.35987">
        <ele>526.716879</ele>
        <time>2021-10-03T09:39:11.000Z</time>
      </trkpt>
      <trkpt lat="43.64452" lon="2.35988">
        <ele>527.003566</ele>
        <time>2021-10-03T09:39:12.000Z</time>
      </trkpt>
      <trkpt lat="43.64448" lon="2.35989">
        <ele>527.259601</ele>
        <time>2021-10-03T09:39:13.000Z</time>
      </trkpt>
      <trkpt lat="43.64444" lon="2.35988">
        <ele>527.589788</ele>
        <time>2021-10-03T09:39:14.000Z</time>
      </trkpt>
      <trkpt lat="43.6444" lon="2.35988">
        <ele>527.825275</ele>
        <time>2021-10-03T09:39:15.000Z</time>
      </trkpt>
      <trkpt lat="43.64437" lon="2.35989">
        <ele>528.007484</ele>
        <time>2021-10-03T09:39:16.000Z</time>
      </trkpt>
      <trkpt lat="43.64434" lon="2.35989">
        <ele>528.216922</ele>
        <time>2021-10-03T09:39:17.000Z</time>
      </trkpt>
      <trkpt lat="43.64431" lon="2.35989">
        <ele>528.446098</ele>
        <time>2021-10-03T09:39:18.000Z</time>
      </trkpt>
      <trkpt lat="43.64428" lon="2.3599">
        <ele>528.631849</ele>
        <time>2021-10-03T09:39:19.000Z</time>
      </trkpt>
      <trkpt lat="43.64425" lon="2.3599">
        <ele>528.833887</ele>
        <time>2021-10-03T09:39:20.000Z</time>
      </trkpt>
      <trkpt lat="43.64422" lon="2.35991">
        <ele>529.016096</ele>
        <time>2021-10-03T09:39:21.000Z</time>
      </trkpt>
      <trkpt lat="43.6442" lon="2.35991">
        <ele>529.192073</ele>
        <time>2021-10-03T09:39:22.000Z</time>
      </trkpt>
      <trkpt lat="43.64416" lon="2.35992">
        <ele>529.442151</ele>
        <time>2021-10-03T09:39:23.000Z</time>
      </trkpt>
      <trkpt lat="43.64412" lon="2.35992">
        <ele>529.732425</ele>
        <time>2021-10-03T09:39:24.000Z</time>
      </trkpt>
      <trkpt lat="43.64409" lon="2.35993">
        <ele>529.942991</ele>
        <time>2021-10-03T09:39:25.000Z</time>
      </trkpt>
      <trkpt lat="43.64405" lon="2.35993">
        <ele>530.219475</ele>
        <time>2021-10-03T09:39:26.000Z</time>
      </trkpt>
      <trkpt lat="43.64401" lon="2.35993">
        <ele>530.482226</ele>
        <time>2021-10-03T09:39:27.000Z</time>
      </trkpt>
      <trkpt lat="43.64397" lon="2.35993">
        <ele>530.718115</ele>
        <time>2021-10-03T09:39:28.000Z</time>
      </trkpt>
      <trkpt lat="43.64394" lon="2.35993">
        <ele>530.946826</ele>
        <time>2021-10-03T09:39:29.000Z</time>
      </trkpt>
      <trkpt lat="43.6439" lon="2.35992">
        <ele>531.230856</ele>
        <time>2021-10-03T09:39:30.000Z</time>
      </trkpt>
      <trkpt lat="43.64386" lon="2.3599">
        <ele>531.511906</ele>
        <time>2021-10-03T09:39:31.000Z</time>
      </trkpt>
      <trkpt lat="43.64382" lon="2.35988">
        <ele>531.753514</ele>
        <time>2021-10-03T09:39:32.000Z</time>
      </trkpt>
      <trkpt lat="43.64379" lon="2.35987">
        <ele>531.971435</ele>
        <time>2021-10-03T09:39:33.000Z</time>
      </trkpt>
      <trkpt lat="43.64377" lon="2.35985">
        <ele>532.154233</ele>
        <time>2021-10-03T09:39:34.000Z</time>
      </trkpt>
      <trkpt lat="43.64375" lon="2.35983">
        <ele>532.306493</ele>
        <time>2021-10-03T09:39:35.000Z</time>
      </trkpt>
      <trkpt lat="43.64372" lon="2.3598">
        <ele>532.542625</ele>
        <time>2021-10-03T09:39:36.000Z</time>
      </trkpt>
      <trkpt lat="43.64371" lon="2.35977">
        <ele>532.718068</ele>
        <time>2021-10-03T09:39:37.000Z</time>
      </trkpt>
      <trkpt lat="43.6437" lon="2.35972">
        <ele>532.953099</ele>
        <time>2021-10-03T09:39:38.000Z</time>
      </trkpt>
      <trkpt lat="43.6437" lon="2.35968">
        <ele>533.191451</ele>
        <time>2021-10-03T09:39:39.000Z</time>
      </trkpt>
      <trkpt lat="43.6437" lon="2.35964">
        <ele>533.381414</ele>
        <time>2021-10-03T09:39:40.000Z</time>
      </trkpt>
      <trkpt lat="43.6437" lon="2.3596">
        <ele>533.567488</ele>
        <time>2021-10-03T09:39:41.000Z</time>
      </trkpt>
      <trkpt lat="43.6437" lon="2.35956">
        <ele>533.776912</ele>
        <time>2021-10-03T09:39:42.000Z</time>
      </trkpt>
      <trkpt lat="43.6437" lon="2.35951">
        <ele>533.982354</ele>
        <time>2021-10-03T09:39:43.000Z</time>
      </trkpt>
      <trkpt lat="43.6437" lon="2.35948">
        <ele>534.157595</ele>
        <time>2021-10-03T09:39:44.000Z</time>
      </trkpt>
      <trkpt lat="43.64371" lon="2.35945">
        <ele>534.325662</ele>
        <time>2021-10-03T09:39:45.000Z</time>
      </trkpt>
      <trkpt lat="43.64372" lon="2.35942">
        <ele>534.476738</ele>
        <time>2021-10-03T09:39:46.000Z</time>
      </trkpt>
      <trkpt lat="43.64373" lon="2.3594">
        <ele>534.587977</ele>
        <time>2021-10-03T09:39:47.000Z</time>
      </trkpt>
      <trkpt lat="43.64373" lon="2.35938">
        <ele>534.698397</ele>
        <time>2021-10-03T09:39:48.000Z</time>
      </trkpt>
      <trkpt lat="43.64374" lon="2.35938">
        <ele>534.749352</ele>
        <time>2021-10-03T09:39:49.000Z</time>
      </trkpt>
      <trkpt lat="43.64375" lon="2.35939">
        <ele>534.810581</ele>
        <time>2021-10-03T09:39:50.000Z</time>
      </trkpt>
      <trkpt lat="43.64376" lon="2.35941">
        <ele>534.914366</ele>
        <time>2021-10-03T09:39:51.000Z</time>
      </trkpt>
      <trkpt lat="43.64376" lon="2.35941">
        <ele>534.9617</ele>
        <time>2021-10-03T09:39:52.000Z</time>
      </trkpt>
      <trkpt lat="43.64377" lon="2.35942">
        <ele>535.058566</ele>
        <time>2021-10-03T09:39:53.000Z</time>
      </trkpt>
      <trkpt lat="43.64378" lon="2.35943">
        <ele>535.140029</ele>
        <time>2021-10-03T09:39:54.000Z</time>
      </trkpt>
      <trkpt lat="43.64379" lon="2.35943">
        <ele>535.214662</ele>
        <time>2021-10-03T09:39:55.000Z</time>
      </trkpt>
      <trkpt lat="43.64381" lon="2.35944">
        <ele>535.321162</ele>
        <time>2021-10-03T09:39:56.000Z</time>
      </trkpt>
      <trkpt lat="43.64383" lon="2.35943">
        <ele>535.437365</ele>
        <time>2021-10-03T09:39:57.000Z</time>
      </trkpt>
      <trkpt lat="43.64384" lon="2.35942">
        <ele>535.559125</ele>
        <time>2021-10-03T09:39:58.000Z</time>
      </trkpt>
      <trkpt lat="43.64386" lon="2.3594">
        <ele>535.696001</ele>
        <time>2021-10-03T09:39:59.000Z</time>
      </trkpt>
      <trkpt lat="43.64387" lon="2.35936">
        <ele>535.91685</ele>
        <time>2021-10-03T09:40:00.000Z</time>
      </trkpt>
      <trkpt lat="43.64389" lon="2.35932">
        <ele>536.145708</ele>
        <time>2021-10-03T09:40:01.000Z</time>
      </trkpt>
      <trkpt lat="43.64391" lon="2.35929">
        <ele>536.343718</ele>
        <time>2021-10-03T09:40:02.000Z</time>
      </trkpt>
      <trkpt lat="43.64393" lon="2.35926">
        <ele>536.541644</ele>
        <time>2021-10-03T09:40:03.000Z</time>
      </trkpt>
      <trkpt lat="43.64394" lon="2.35923">
        <ele>536.733148</ele>
        <time>2021-10-03T09:40:04.000Z</time>
      </trkpt>
      <trkpt lat="43.64396" lon="2.35919">
        <ele>536.90859</ele>
        <time>2021-10-03T09:40:05.000Z</time>
      </trkpt>
      <trkpt lat="43.64397" lon="2.35916">
        <ele>537.10064</ele>
        <time>2021-10-03T09:40:06.000Z</time>
      </trkpt>
      <trkpt lat="43.64399" lon="2.35913">
        <ele>537.277795</ele>
        <time>2021-10-03T09:40:07.000Z</time>
      </trkpt>
      <trkpt lat="43.644" lon="2.3591">
        <ele>537.421833</ele>
        <time>2021-10-03T09:40:08.000Z</time>
      </trkpt>
      <trkpt lat="43.64401" lon="2.35907">
        <ele>537.561779</ele>
        <time>2021-10-03T09:40:09.000Z</time>
      </trkpt>
      <trkpt lat="43.64401" lon="2.35904">
        <ele>537.721995</ele>
        <time>2021-10-03T09:40:10.000Z</time>
      </trkpt>
      <trkpt lat="43.64401" lon="2.359">
        <ele>537.890308</ele>
        <time>2021-10-03T09:40:11.000Z</time>
      </trkpt>
      <trkpt lat="43.64401" lon="2.35897">
        <ele>538.0415</ele>
        <time>2021-10-03T09:40:12.000Z</time>
      </trkpt>
      <trkpt lat="43.64402" lon="2.35894">
        <ele>538.162333</ele>
        <time>2021-10-03T09:40:13.000Z</time>
      </trkpt>
      <trkpt lat="43.64402" lon="2.35891">
        <ele>538.289616</ele>
        <time>2021-10-03T09:40:14.000Z</time>
      </trkpt>
      <trkpt lat="43.64401" lon="2.35889">
        <ele>538.390609</ele>
        <time>2021-10-03T09:40:15.000Z</time>
      </trkpt>
      <trkpt lat="43.64401" lon="2.35887">
        <ele>538.48056</ele>
        <time>2021-10-03T09:40:16.000Z</time>
      </trkpt>
      <trkpt lat="43.644" lon="2.35885">
        <ele>538.606667</ele>
        <time>2021-10-03T09:40:17.000Z</time>
      </trkpt>
      <trkpt lat="43.644" lon="2.35883">
        <ele>538.697801</ele>
        <time>2021-10-03T09:40:18.000Z</time>
      </trkpt>
      <trkpt lat="43.644" lon="2.35882">
        <ele>538.753763</ele>
        <time>2021-10-03T09:40:19.000Z</time>
      </trkpt>
      <trkpt lat="43.644" lon="2.3588">
        <ele>538.840134</ele>
        <time>2021-10-03T09:40:20.000Z</time>
      </trkpt>
      <trkpt lat="43.64401" lon="2.35877">
        <ele>538.983423</ele>
        <time>2021-10-03T09:40:21.000Z</time>
      </trkpt>
      <trkpt lat="43.64401" lon="2.35874">
        <ele>539.121094</ele>
        <time>2021-10-03T09:40:22.000Z</time>
      </trkpt>
      <trkpt lat="43.64399" lon="2.35872">
        <ele>539.242653</ele>
        <time>2021-10-03T09:40:23.000Z</time>
      </trkpt>
      <trkpt lat="43.64398" lon="2.3587">
        <ele>539.346321</ele>
        <time>2021-10-03T09:40:24.000Z</time>
      </trkpt>
      <trkpt lat="43.64397" lon="2.35867">
        <ele>539.512095</ele>
        <time>2021-10-03T09:40:25.000Z</time>
      </trkpt>
      <trkpt lat="43.64396" lon="2.35864">
        <ele>539.650766</ele>
        <time>2021-10-03T09:40:26.000Z</time>
      </trkpt>
      <trkpt lat="43.64395" lon="2.35862">
        <ele>539.783771</ele>
        <time>2021-10-03T09:40:27.000Z</time>
      </trkpt>
      <trkpt lat="43.64394" lon="2.35859">
        <ele>539.895696</ele>
        <time>2021-10-03T09:40:28.000Z</time>
      </trkpt>
      <trkpt lat="43.64394" lon="2.35857">
        <ele>539.998813</ele>
        <time>2021-10-03T09:40:29.000Z</time>
      </trkpt>
      <trkpt lat="43.64393" lon="2.35854">
        <ele>540.147655</ele>
        <time>2021-10-03T09:40:30.000Z</time>
      </trkpt>
      <trkpt lat="43.64393" lon="2.35851">
        <ele>540.316903</ele>
        <time>2021-10-03T09:40:31.000Z</time>
      </trkpt>
      <trkpt lat="43.64394" lon="2.35847">
        <ele>540.469006</ele>
        <time>2021-10-03T09:40:32.000Z</time>
      </trkpt>
      <trkpt lat="43.64393" lon="2.35843">
        <ele>540.651666</ele>
        <time>2021-10-03T09:40:33.000Z</time>
      </trkpt>
      <trkpt lat="43.64391" lon="2.35841">
        <ele>540.810033</ele>
        <time>2021-10-03T09:40:34.000Z</time>
      </trkpt>
      <trkpt lat="43.6439" lon="2.35838">
        <ele>540.965749</ele>
        <time>2021-10-03T09:40:35.000Z</time>
      </trkpt>
      <trkpt lat="43.64388" lon="2.35836">
        <ele>541.116905</ele>
        <time>2021-10-03T09:40:36.000Z</time>
      </trkpt>
      <trkpt lat="43.64386" lon="2.35833">
        <ele>541.295833</ele>
        <time>2021-10-03T09:40:37.000Z</time>
      </trkpt>
      <trkpt lat="43.64384" lon="2.35829">
        <ele>541.495688</ele>
        <time>2021-10-03T09:40:38.000Z</time>
      </trkpt>
      <trkpt lat="43.64383" lon="2.35826">
        <ele>541.679961</ele>
        <time>2021-10-03T09:40:39.000Z</time>
      </trkpt>
      <trkpt lat="43.64383" lon="2.35822">
        <ele>541.854521</ele>
        <time>2021-10-03T09:40:40.000Z</time>
      </trkpt>
      <trkpt lat="43.64383" lon="2.35817">
        <ele>542.059951</ele>
        <time>2021-10-03T09:40:41.000Z</time>
      </trkpt>
      <trkpt lat="43.64383" lon="2.35813">
        <ele>542.232693</ele>
        <time>2021-10-03T09:40:42.000Z</time>
      </trkpt>
      <trkpt lat="43.64383" lon="2.3581">
        <ele>542.409981</ele>
        <time>2021-10-03T09:40:43.000Z</time>
      </trkpt>
      <trkpt lat="43.64383" lon="2.35806">
        <ele>542.569086</ele>
        <time>2021-10-03T09:40:44.000Z</time>
      </trkpt>
      <trkpt lat="43.64382" lon="2.35801">
        <ele>542.81807</ele>
        <time>2021-10-03T09:40:45.000Z</time>
      </trkpt>
      <trkpt lat="43.64382" lon="2.35796">
        <ele>543.046416</ele>
        <time>2021-10-03T09:40:46.000Z</time>
      </trkpt>
      <trkpt lat="43.6438" lon="2.35791">
        <ele>543.298863</ele>
        <time>2021-10-03T09:40:47.000Z</time>
      </trkpt>
      <trkpt lat="43.6438" lon="2.35785">
        <ele>543.544979</ele>
        <time>2021-10-03T09:40:48.000Z</time>
      </trkpt>
      <trkpt lat="43.64378" lon="2.35779">
        <ele>543.821942</ele>
        <time>2021-10-03T09:40:49.000Z</time>
      </trkpt>
      <trkpt lat="43.64378" lon="2.35774">
        <ele>544.068058</ele>
        <time>2021-10-03T09:40:50.000Z</time>
      </trkpt>
      <trkpt lat="43.64377" lon="2.35769">
        <ele>544.310295</ele>
        <time>2021-10-03T09:40:51.000Z</time>
      </trkpt>
      <trkpt lat="43.64377" lon="2.35763">
        <ele>544.551961</ele>
        <time>2021-10-03T09:40:52.000Z</time>
      </trkpt>
      <trkpt lat="43.64377" lon="2.35757">
        <ele>544.843505</ele>
        <time>2021-10-03T09:40:53.000Z</time>
      </trkpt>
      <trkpt lat="43.64378" lon="2.35751">
        <ele>545.124267</ele>
        <time>2021-10-03T09:40:54.000Z</time>
      </trkpt>
      <trkpt lat="43.64378" lon="2.35744">
        <ele>545.429874</ele>
        <time>2021-10-03T09:40:55.000Z</time>
      </trkpt>
      <trkpt lat="43.64378" lon="2.35737">
        <ele>545.775415</ele>
        <time>2021-10-03T09:40:56.000Z</time>
      </trkpt>
      <trkpt lat="43.64379" lon="2.35729">
        <ele>546.109396</ele>
        <time>2021-10-03T09:40:57.000Z</time>
      </trkpt>
      <trkpt lat="43.6438" lon="2.35722">
        <ele>546.442726</ele>
        <time>2021-10-03T09:40:58.000Z</time>
      </trkpt>
      <trkpt lat="43.64379" lon="2.35715">
        <ele>546.77057</ele>
        <time>2021-10-03T09:40:59.000Z</time>
      </trkpt>
      <trkpt lat="43.64378" lon="2.35707">
        <ele>547.151207</ele>
        <time>2021-10-03T09:41:00.000Z</time>
      </trkpt>
      <trkpt lat="43.64378" lon="2.35699">
        <ele>547.509327</ele>
        <time>2021-10-03T09:41:01.000Z</time>
      </trkpt>
      <trkpt lat="43.64378" lon="2.35692">
        <ele>547.800262</ele>
        <time>2021-10-03T09:41:02.000Z</time>
      </trkpt>
      <trkpt lat="43.64377" lon="2.35686">
        <ele>548.090007</ele>
        <time>2021-10-03T09:41:03.000Z</time>
      </trkpt>
      <trkpt lat="43.64377" lon="2.35679">
        <ele>548.378862</ele>
        <time>2021-10-03T09:41:04.000Z</time>
      </trkpt>
      <trkpt lat="43.64376" lon="2.35672">
        <ele>548.433817</ele>
        <time>2021-10-03T09:41:05.000Z</time>
      </trkpt>
      <trkpt lat="43.64376" lon="2.35664">
        <ele>548.501334</ele>
        <time>2021-10-03T09:41:06.000Z</time>
      </trkpt>
      <trkpt lat="43.64375" lon="2.35656">
        <ele>548.56484</ele>
        <time>2021-10-03T09:41:07.000Z</time>
      </trkpt>
      <trkpt lat="43.64374" lon="2.35649">
        <ele>548.624495</ele>
        <time>2021-10-03T09:41:08.000Z</time>
      </trkpt>
      <trkpt lat="43.64373" lon="2.35642">
        <ele>548.683163</ele>
        <time>2021-10-03T09:41:09.000Z</time>
      </trkpt>
      <trkpt lat="43.64372" lon="2.35635">
        <ele>548.738147</ele>
        <time>2021-10-03T09:41:10.000Z</time>
      </trkpt>
      <trkpt lat="43.64371" lon="2.3563">
        <ele>548.784065</ele>
        <time>2021-10-03T09:41:11.000Z</time>
      </trkpt>
      <trkpt lat="43.6437" lon="2.35625">
        <ele>548.822291</ele>
        <time>2021-10-03T09:41:12.000Z</time>
      </trkpt>
      <trkpt lat="43.6437" lon="2.35621">
        <ele>548.859731</ele>
        <time>2021-10-03T09:41:13.000Z</time>
      </trkpt>
      <trkpt lat="43.64369" lon="2.35615">
        <ele>548.905649</ele>
        <time>2021-10-03T09:41:14.000Z</time>
      </trkpt>
      <trkpt lat="43.64368" lon="2.3561">
        <ele>548.947446</ele>
        <time>2021-10-03T09:41:15.000Z</time>
      </trkpt>
      <trkpt lat="43.64367" lon="2.35606">
        <ele>548.983847</ele>
        <time>2021-10-03T09:41:16.000Z</time>
      </trkpt>
      <trkpt lat="43.64366" lon="2.35602">
        <ele>549.018157</ele>
        <time>2021-10-03T09:41:17.000Z</time>
      </trkpt>
      <trkpt lat="43.64365" lon="2.35597">
        <ele>549.057956</ele>
        <time>2021-10-03T09:41:18.000Z</time>
      </trkpt>
      <trkpt lat="43.64365" lon="2.35592">
        <ele>549.098312</ele>
        <time>2021-10-03T09:41:19.000Z</time>
      </trkpt>
      <trkpt lat="43.64364" lon="2.35588">
        <ele>549.132623</ele>
        <time>2021-10-03T09:41:20.000Z</time>
      </trkpt>
      <trkpt lat="43.64363" lon="2.35583">
        <ele>549.171767</ele>
        <time>2021-10-03T09:41:21.000Z</time>
      </trkpt>
      <trkpt lat="43.64362" lon="2.35576">
        <ele>549.226892</ele>
        <time>2021-10-03T09:41:22.000Z</time>
      </trkpt>
      <trkpt lat="43.64362" lon="2.3557">
        <ele>549.276192</ele>
        <time>2021-10-03T09:41:23.000Z</time>
      </trkpt>
      <trkpt lat="43.64362" lon="2.35564">
        <ele>549.325593</ele>
        <time>2021-10-03T09:41:24.000Z</time>
      </trkpt>
      <trkpt lat="43.64361" lon="2.3556">
        <ele>549.360417</ele>
        <time>2021-10-03T09:41:25.000Z</time>
      </trkpt>
      <trkpt lat="43.64361" lon="2.35555">
        <ele>549.399429</ele>
        <time>2021-10-03T09:41:26.000Z</time>
      </trkpt>
      <trkpt lat="43.6436" lon="2.35551">
        <ele>549.436085</ele>
        <time>2021-10-03T09:41:27.000Z</time>
      </trkpt>
      <trkpt lat="43.64359" lon="2.35547">
        <ele>549.471916</ele>
        <time>2021-10-03T09:41:28.000Z</time>
      </trkpt>
      <trkpt lat="43.64358" lon="2.35543">
        <ele>549.502748</ele>
        <time>2021-10-03T09:41:29.000Z</time>
      </trkpt>
      <trkpt lat="43.64357" lon="2.35539">
        <ele>549.538434</ele>
        <time>2021-10-03T09:41:30.000Z</time>
      </trkpt>
      <trkpt lat="43.64356" lon="2.35537">
        <ele>549.559716</ele>
        <time>2021-10-03T09:41:31.000Z</time>
      </trkpt>
      <trkpt lat="43.64355" lon="2.35533">
        <ele>549.596644</ele>
        <time>2021-10-03T09:41:32.000Z</time>
      </trkpt>
      <trkpt lat="43.64353" lon="2.3553">
        <ele>549.628856</ele>
        <time>2021-10-03T09:41:33.000Z</time>
      </trkpt>
      <trkpt lat="43.64351" lon="2.35527">
        <ele>549.659622</ele>
        <time>2021-10-03T09:41:34.000Z</time>
      </trkpt>
      <trkpt lat="43.6435" lon="2.35524">
        <ele>549.687319</ele>
        <time>2021-10-03T09:41:35.000Z</time>
      </trkpt>
      <trkpt lat="43.64348" lon="2.3552">
        <ele>549.723342</ele>
        <time>2021-10-03T09:41:36.000Z</time>
      </trkpt>
      <trkpt lat="43.64346" lon="2.35518">
        <ele>549.750907</ele>
        <time>2021-10-03T09:41:37.000Z</time>
      </trkpt>
      <trkpt lat="43.64344" lon="2.35516">
        <ele>549.781709</ele>
        <time>2021-10-03T09:41:38.000Z</time>
      </trkpt>
      <trkpt lat="43.64342" lon="2.35513">
        <ele>549.816219</ele>
        <time>2021-10-03T09:41:39.000Z</time>
      </trkpt>
      <trkpt lat="43.6434" lon="2.35508">
        <ele>549.857953</ele>
        <time>2021-10-03T09:41:40.000Z</time>
      </trkpt>
      <trkpt lat="43.6434" lon="2.35504">
        <ele>549.886255</ele>
        <time>2021-10-03T09:41:41.000Z</time>
      </trkpt>
      <trkpt lat="43.6434" lon="2.35499">
        <ele>549.928507</ele>
        <time>2021-10-03T09:41:42.000Z</time>
      </trkpt>
      <trkpt lat="43.64342" lon="2.35494">
        <ele>549.974855</ele>
        <time>2021-10-03T09:41:43.000Z</time>
      </trkpt>
      <trkpt lat="43.64343" lon="2.35488">
        <ele>550.026741</ele>
        <time>2021-10-03T09:41:44.000Z</time>
      </trkpt>
      <trkpt lat="43.64344" lon="2.35481">
        <ele>550.078448</ele>
        <time>2021-10-03T09:41:45.000Z</time>
      </trkpt>
      <trkpt lat="43.64346" lon="2.35475">
        <ele>550.134024</ele>
        <time>2021-10-03T09:41:46.000Z</time>
      </trkpt>
      <trkpt lat="43.64349" lon="2.35469">
        <ele>550.189601</ele>
        <time>2021-10-03T09:41:47.000Z</time>
      </trkpt>
      <trkpt lat="43.6435" lon="2.35462">
        <ele>550.2493</ele>
        <time>2021-10-03T09:41:48.000Z</time>
      </trkpt>
      <trkpt lat="43.64352" lon="2.35454">
        <ele>550.317955</ele>
        <time>2021-10-03T09:41:49.000Z</time>
      </trkpt>
      <trkpt lat="43.64356" lon="2.35447">
        <ele>550.363417</ele>
        <time>2021-10-03T09:41:50.000Z</time>
      </trkpt>
      <trkpt lat="43.64358" lon="2.35439">
        <ele>550.193761</ele>
        <time>2021-10-03T09:41:51.000Z</time>
      </trkpt>
      <trkpt lat="43.64361" lon="2.35432">
        <ele>550.028225</ele>
        <time>2021-10-03T09:41:52.000Z</time>
      </trkpt>
      <trkpt lat="43.64363" lon="2.35423">
        <ele>549.827272</ele>
        <time>2021-10-03T09:41:53.000Z</time>
      </trkpt>
      <trkpt lat="43.64366" lon="2.35413">
        <ele>549.61417</ele>
        <time>2021-10-03T09:41:54.000Z</time>
      </trkpt>
      <trkpt lat="43.64368" lon="2.35404">
        <ele>549.419743</ele>
        <time>2021-10-03T09:41:55.000Z</time>
      </trkpt>
      <trkpt lat="43.6437" lon="2.35394">
        <ele>549.223857</ele>
        <time>2021-10-03T09:41:56.000Z</time>
      </trkpt>
      <trkpt lat="43.64372" lon="2.35386">
        <ele>549.046133</ele>
        <time>2021-10-03T09:41:57.000Z</time>
      </trkpt>
      <trkpt lat="43.64373" lon="2.35374">
        <ele>548.802676</ele>
        <time>2021-10-03T09:41:58.000Z</time>
      </trkpt>
      <trkpt lat="43.64375" lon="2.35364">
        <ele>548.593102</ele>
        <time>2021-10-03T09:41:59.000Z</time>
      </trkpt>
      <trkpt lat="43.64377" lon="2.35356">
        <ele>548.413471</ele>
        <time>2021-10-03T09:42:00.000Z</time>
      </trkpt>
      <trkpt lat="43.6438" lon="2.35349">
        <ele>548.258508</ele>
        <time>2021-10-03T09:42:01.000Z</time>
      </trkpt>
      <trkpt lat="43.64384" lon="2.35343">
        <ele>548.093393</ele>
        <time>2021-10-03T09:42:02.000Z</time>
      </trkpt>
      <trkpt lat="43.64387" lon="2.35337">
        <ele>547.927093</ele>
        <time>2021-10-03T09:42:03.000Z</time>
      </trkpt>
      <trkpt lat="43.6439" lon="2.3533">
        <ele>547.773947</ele>
        <time>2021-10-03T09:42:04.000Z</time>
      </trkpt>
      <trkpt lat="43.64392" lon="2.35324">
        <ele>547.62666</ele>
        <time>2021-10-03T09:42:05.000Z</time>
      </trkpt>
      <trkpt lat="43.64394" lon="2.35317">
        <ele>547.47157</ele>
        <time>2021-10-03T09:42:06.000Z</time>
      </trkpt>
      <trkpt lat="43.64397" lon="2.35309">
        <ele>547.304161</ele>
        <time>2021-10-03T09:42:07.000Z</time>
      </trkpt>
      <trkpt lat="43.64398" lon="2.35301">
        <ele>547.140119</ele>
        <time>2021-10-03T09:42:08.000Z</time>
      </trkpt>
      <trkpt lat="43.64399" lon="2.35293">
        <ele>546.967943</ele>
        <time>2021-10-03T09:42:09.000Z</time>
      </trkpt>
      <trkpt lat="43.64398" lon="2.35284">
        <ele>546.797031</ele>
        <time>2021-10-03T09:42:10.000Z</time>
      </trkpt>
      <trkpt lat="43.64396" lon="2.35278">
        <ele>546.648651</ele>
        <time>2021-10-03T09:42:11.000Z</time>
      </trkpt>
      <trkpt lat="43.64393" lon="2.35271">
        <ele>546.490602</ele>
        <time>2021-10-03T09:42:12.000Z</time>
      </trkpt>
      <trkpt lat="43.64389" lon="2.35266">
        <ele>546.344356</ele>
        <time>2021-10-03T09:42:13.000Z</time>
      </trkpt>
      <trkpt lat="43.64386" lon="2.35262">
        <ele>546.20859</ele>
        <time>2021-10-03T09:42:14.000Z</time>
      </trkpt>
      <trkpt lat="43.64382" lon="2.35258">
        <ele>546.069736</ele>
        <time>2021-10-03T09:42:15.000Z</time>
      </trkpt>
      <trkpt lat="43.64378" lon="2.35254">
        <ele>545.934347</ele>
        <time>2021-10-03T09:42:16.000Z</time>
      </trkpt>
      <trkpt lat="43.64373" lon="2.35249">
        <ele>545.781851</ele>
        <time>2021-10-03T09:42:17.000Z</time>
      </trkpt>
      <trkpt lat="43.64369" lon="2.35245">
        <ele>545.639748</ele>
        <time>2021-10-03T09:42:18.000Z</time>
      </trkpt>
      <trkpt lat="43.64365" lon="2.35242">
        <ele>545.51267</ele>
        <time>2021-10-03T09:42:19.000Z</time>
      </trkpt>
      <trkpt lat="43.64361" lon="2.35237">
        <ele>545.362413</ele>
        <time>2021-10-03T09:42:20.000Z</time>
      </trkpt>
      <trkpt lat="43.64357" lon="2.35233">
        <ele>545.289625</ele>
        <time>2021-10-03T09:42:21.000Z</time>
      </trkpt>
      <trkpt lat="43.64354" lon="2.35229">
        <ele>545.235669</ele>
        <time>2021-10-03T09:42:22.000Z</time>
      </trkpt>
      <trkpt lat="43.6435" lon="2.35224">
        <ele>545.183424</ele>
        <time>2021-10-03T09:42:23.000Z</time>
      </trkpt>
      <trkpt lat="43.64347" lon="2.35218">
        <ele>545.129041</ele>
        <time>2021-10-03T09:42:24.000Z</time>
      </trkpt>
      <trkpt lat="43.64345" lon="2.35213">
        <ele>545.083574</ele>
        <time>2021-10-03T09:42:25.000Z</time>
      </trkpt>
      <trkpt lat="43.64345" lon="2.35208">
        <ele>545.044178</ele>
        <time>2021-10-03T09:42:26.000Z</time>
      </trkpt>
      <trkpt lat="43.64345" lon="2.35203">
        <ele>545.004371</ele>
        <time>2021-10-03T09:42:27.000Z</time>
      </trkpt>
      <trkpt lat="43.64346" lon="2.35196">
        <ele>544.953851</ele>
        <time>2021-10-03T09:42:28.000Z</time>
      </trkpt>
      <trkpt lat="43.64347" lon="2.3519">
        <ele>544.901344</ele>
        <time>2021-10-03T09:42:29.000Z</time>
      </trkpt>
      <trkpt lat="43.64349" lon="2.35183">
        <ele>544.845335</ele>
        <time>2021-10-03T09:42:30.000Z</time>
      </trkpt>
      <trkpt lat="43.64351" lon="2.35176">
        <ele>544.786251</ele>
        <time>2021-10-03T09:42:31.000Z</time>
      </trkpt>
      <trkpt lat="43.64354" lon="2.35169">
        <ele>544.721567</ele>
        <time>2021-10-03T09:42:32.000Z</time>
      </trkpt>
      <trkpt lat="43.64356" lon="2.35161">
        <ele>544.655246</ele>
        <time>2021-10-03T09:42:33.000Z</time>
      </trkpt>
      <trkpt lat="43.64359" lon="2.35154">
        <ele>544.591953</ele>
        <time>2021-10-03T09:42:34.000Z</time>
      </trkpt>
      <trkpt lat="43.64361" lon="2.35147">
        <ele>544.533102</ele>
        <time>2021-10-03T09:42:35.000Z</time>
      </trkpt>
      <trkpt lat="43.64363" lon="2.35139">
        <ele>544.468805</ele>
        <time>2021-10-03T09:42:36.000Z</time>
      </trkpt>
      <trkpt lat="43.64366" lon="2.35132">
        <ele>544.405999</ele>
        <time>2021-10-03T09:42:37.000Z</time>
      </trkpt>
      <trkpt lat="43.64368" lon="2.35125">
        <ele>544.346246</ele>
        <time>2021-10-03T09:42:38.000Z</time>
      </trkpt>
      <trkpt lat="43.6437" lon="2.35119">
        <ele>544.293396</ele>
        <time>2021-10-03T09:42:39.000Z</time>
      </trkpt>
      <trkpt lat="43.6437" lon="2.35113">
        <ele>544.246367</ele>
        <time>2021-10-03T09:42:40.000Z</time>
      </trkpt>
      <trkpt lat="43.64371" lon="2.35106">
        <ele>544.193895</ele>
        <time>2021-10-03T09:42:41.000Z</time>
      </trkpt>
      <trkpt lat="43.64372" lon="2.35099">
        <ele>544.134931</ele>
        <time>2021-10-03T09:42:42.000Z</time>
      </trkpt>
      <trkpt lat="43.64374" lon="2.35091">
        <ele>544.070317</ele>
        <time>2021-10-03T09:42:43.000Z</time>
      </trkpt>
      <trkpt lat="43.64377" lon="2.35084">
        <ele>544.006813</ele>
        <time>2021-10-03T09:42:44.000Z</time>
      </trkpt>
      <trkpt lat="43.64379" lon="2.35077">
        <ele>543.944386</ele>
        <time>2021-10-03T09:42:45.000Z</time>
      </trkpt>
      <trkpt lat="43.64382" lon="2.3507">
        <ele>543.885092</ele>
        <time>2021-10-03T09:42:46.000Z</time>
      </trkpt>
      <trkpt lat="43.64384" lon="2.35063">
        <ele>543.82644</ele>
        <time>2021-10-03T09:42:47.000Z</time>
      </trkpt>
      <trkpt lat="43.64387" lon="2.35057">
        <ele>543.773243</ele>
        <time>2021-10-03T09:42:48.000Z</time>
      </trkpt>
      <trkpt lat="43.64389" lon="2.35051">
        <ele>543.715591</ele>
        <time>2021-10-03T09:42:49.000Z</time>
      </trkpt>
      <trkpt lat="43.64392" lon="2.35045">
        <ele>543.659276</ele>
        <time>2021-10-03T09:42:50.000Z</time>
      </trkpt>
      <trkpt lat="43.64395" lon="2.35039">
        <ele>543.60211</ele>
        <time>2021-10-03T09:42:51.000Z</time>
      </trkpt>
      <trkpt lat="43.64399" lon="2.35034">
        <ele>543.545528</ele>
        <time>2021-10-03T09:42:52.000Z</time>
      </trkpt>
      <trkpt lat="43.64403" lon="2.35028">
        <ele>543.483404</ele>
        <time>2021-10-03T09:42:53.000Z</time>
      </trkpt>
      <trkpt lat="43.64406" lon="2.35021">
        <ele>543.415727</ele>
        <time>2021-10-03T09:42:54.000Z</time>
      </trkpt>
      <trkpt lat="43.6441" lon="2.35013">
        <ele>543.114111</ele>
        <time>2021-10-03T09:42:55.000Z</time>
      </trkpt>
      <trkpt lat="43.64412" lon="2.35004">
        <ele>542.691949</ele>
        <time>2021-10-03T09:42:56.000Z</time>
      </trkpt>
      <trkpt lat="43.64414" lon="2.34995">
        <ele>542.307386</ele>
        <time>2021-10-03T09:42:57.000Z</time>
      </trkpt>
      <trkpt lat="43.64416" lon="2.34987">
        <ele>541.911964</ele>
        <time>2021-10-03T09:42:58.000Z</time>
      </trkpt>
      <trkpt lat="43.64417" lon="2.34979">
        <ele>541.538927</ele>
        <time>2021-10-03T09:42:59.000Z</time>
      </trkpt>
      <trkpt lat="43.64417" lon="2.34971">
        <ele>541.193988</ele>
        <time>2021-10-03T09:43:00.000Z</time>
      </trkpt>
      <trkpt lat="43.64417" lon="2.34964">
        <ele>540.869459</ele>
        <time>2021-10-03T09:43:01.000Z</time>
      </trkpt>
      <trkpt lat="43.64417" lon="2.34956">
        <ele>540.548492</ele>
        <time>2021-10-03T09:43:02.000Z</time>
      </trkpt>
      <trkpt lat="43.64416" lon="2.3495">
        <ele>540.243203</ele>
        <time>2021-10-03T09:43:03.000Z</time>
      </trkpt>
      <trkpt lat="43.64416" lon="2.34943">
        <ele>539.94439</ele>
        <time>2021-10-03T09:43:04.000Z</time>
      </trkpt>
      <trkpt lat="43.64416" lon="2.34935">
        <ele>539.610521</ele>
        <time>2021-10-03T09:43:05.000Z</time>
      </trkpt>
      <trkpt lat="43.64417" lon="2.34928">
        <ele>539.292025</ele>
        <time>2021-10-03T09:43:06.000Z</time>
      </trkpt>
      <trkpt lat="43.64418" lon="2.34923">
        <ele>539.039075</ele>
        <time>2021-10-03T09:43:07.000Z</time>
      </trkpt>
      <trkpt lat="43.6442" lon="2.34919">
        <ele>538.822673</ele>
        <time>2021-10-03T09:43:08.000Z</time>
      </trkpt>
      <trkpt lat="43.64423" lon="2.34915">
        <ele>538.569683</ele>
        <time>2021-10-03T09:43:09.000Z</time>
      </trkpt>
      <trkpt lat="43.64426" lon="2.34912">
        <ele>538.334647</ele>
        <time>2021-10-03T09:43:10.000Z</time>
      </trkpt>
      <trkpt lat="43.64429" lon="2.34909">
        <ele>538.117138</ele>
        <time>2021-10-03T09:43:11.000Z</time>
      </trkpt>
      <trkpt lat="43.64432" lon="2.34908">
        <ele>537.915393</ele>
        <time>2021-10-03T09:43:12.000Z</time>
      </trkpt>
      <trkpt lat="43.64435" lon="2.34907">
        <ele>537.772383</ele>
        <time>2021-10-03T09:43:13.000Z</time>
      </trkpt>
      <trkpt lat="43.64433" lon="2.34901">
        <ele>537.445358</ele>
        <time>2021-10-03T09:43:35.000Z</time>
      </trkpt>
      <trkpt lat="43.64433" lon="2.34897">
        <ele>537.301018</ele>
        <time>2021-10-03T09:43:36.000Z</time>
      </trkpt>
      <trkpt lat="43.64434" lon="2.34894">
        <ele>537.148168</ele>
        <time>2021-10-03T09:43:37.000Z</time>
      </trkpt>
      <trkpt lat="43.64435" lon="2.3489">
        <ele>536.943966</ele>
        <time>2021-10-03T09:43:38.000Z</time>
      </trkpt>
      <trkpt lat="43.64436" lon="2.34886">
        <ele>536.743261</ele>
        <time>2021-10-03T09:43:39.000Z</time>
      </trkpt>
      <trkpt lat="43.64437" lon="2.34881">
        <ele>536.541612</ele>
        <time>2021-10-03T09:43:40.000Z</time>
      </trkpt>
      <trkpt lat="43.64437" lon="2.34876">
        <ele>536.31861</ele>
        <time>2021-10-03T09:43:41.000Z</time>
      </trkpt>
      <trkpt lat="43.64439" lon="2.3487">
        <ele>536.037638</ele>
        <time>2021-10-03T09:43:42.000Z</time>
      </trkpt>
      <trkpt lat="43.64439" lon="2.34865">
        <ele>535.798173</ele>
        <time>2021-10-03T09:43:43.000Z</time>
      </trkpt>
      <trkpt lat="43.6444" lon="2.34859">
        <ele>535.522625</ele>
        <time>2021-10-03T09:43:44.000Z</time>
      </trkpt>
      <trkpt lat="43.64441" lon="2.34853">
        <ele>535.264551</ele>
        <time>2021-10-03T09:43:45.000Z</time>
      </trkpt>
      <trkpt lat="43.64443" lon="2.34847">
        <ele>534.979956</ele>
        <time>2021-10-03T09:43:46.000Z</time>
      </trkpt>
      <trkpt lat="43.64445" lon="2.34841">
        <ele>534.69169</ele>
        <time>2021-10-03T09:43:47.000Z</time>
      </trkpt>
      <trkpt lat="43.64448" lon="2.34836">
        <ele>534.374534</ele>
        <time>2021-10-03T09:43:48.000Z</time>
      </trkpt>
      <trkpt lat="43.64451" lon="2.34831">
        <ele>534.078941</ele>
        <time>2021-10-03T09:43:49.000Z</time>
      </trkpt>
      <trkpt lat="43.64454" lon="2.34826">
        <ele>533.78668</ele>
        <time>2021-10-03T09:43:50.000Z</time>
      </trkpt>
      <trkpt lat="43.64458" lon="2.3482">
        <ele>533.466188</ele>
        <time>2021-10-03T09:43:51.000Z</time>
      </trkpt>
      <trkpt lat="43.6446" lon="2.34813">
        <ele>533.127542</ele>
        <time>2021-10-03T09:43:52.000Z</time>
      </trkpt>
      <trkpt lat="43.6446" lon="2.34807">
        <ele>532.830101</ele>
        <time>2021-10-03T09:43:53.000Z</time>
      </trkpt>
      <trkpt lat="43.64461" lon="2.34801">
        <ele>532.572028</ele>
        <time>2021-10-03T09:43:54.000Z</time>
      </trkpt>
      <trkpt lat="43.6446" lon="2.34795">
        <ele>532.304347</ele>
        <time>2021-10-03T09:43:55.000Z</time>
      </trkpt>
      <trkpt lat="43.64459" lon="2.34788">
        <ele>532.092669</ele>
        <time>2021-10-03T09:43:56.000Z</time>
      </trkpt>
      <trkpt lat="43.64458" lon="2.34781">
        <ele>531.884067</ele>
        <time>2021-10-03T09:43:57.000Z</time>
      </trkpt>
      <trkpt lat="43.64458" lon="2.34775">
        <ele>531.668978</ele>
        <time>2021-10-03T09:43:58.000Z</time>
      </trkpt>
      <trkpt lat="43.64458" lon="2.34767">
        <ele>531.447279</ele>
        <time>2021-10-03T09:43:59.000Z</time>
      </trkpt>
      <trkpt lat="43.64459" lon="2.3476">
        <ele>531.222178</ele>
        <time>2021-10-03T09:44:00.000Z</time>
      </trkpt>
      <trkpt lat="43.64459" lon="2.34752">
        <ele>530.96653</ele>
        <time>2021-10-03T09:44:01.000Z</time>
      </trkpt>
      <trkpt lat="43.64459" lon="2.34744">
        <ele>530.707801</ele>
        <time>2021-10-03T09:44:02.000Z</time>
      </trkpt>
      <trkpt lat="43.64459" lon="2.34736">
        <ele>530.470892</ele>
        <time>2021-10-03T09:44:03.000Z</time>
      </trkpt>
      <trkpt lat="43.64459" lon="2.34727">
        <ele>530.199386</ele>
        <time>2021-10-03T09:44:04.000Z</time>
      </trkpt>
      <trkpt lat="43.64461" lon="2.34719">
        <ele>529.935254</ele>
        <time>2021-10-03T09:44:05.000Z</time>
      </trkpt>
      <trkpt lat="43.64463" lon="2.34714">
        <ele>529.736623</ele>
        <time>2021-10-03T09:44:06.000Z</time>
      </trkpt>
      <trkpt lat="43.64466" lon="2.34709">
        <ele>529.55679</ele>
        <time>2021-10-03T09:44:07.000Z</time>
      </trkpt>
      <trkpt lat="43.64469" lon="2.34704">
        <ele>529.364805</ele>
        <time>2021-10-03T09:44:08.000Z</time>
      </trkpt>
      <trkpt lat="43.64471" lon="2.34699">
        <ele>529.170138</ele>
        <time>2021-10-03T09:44:09.000Z</time>
      </trkpt>
      <trkpt lat="43.64472" lon="2.34692">
        <ele>528.951518</ele>
        <time>2021-10-03T09:44:10.000Z</time>
      </trkpt>
      <trkpt lat="43.64473" lon="2.34685">
        <ele>528.728227</ele>
        <time>2021-10-03T09:44:11.000Z</time>
      </trkpt>
      <trkpt lat="43.64474" lon="2.34676">
        <ele>528.442955</ele>
        <time>2021-10-03T09:44:12.000Z</time>
      </trkpt>
      <trkpt lat="43.64476" lon="2.34667">
        <ele>528.154617</ele>
        <time>2021-10-03T09:44:13.000Z</time>
      </trkpt>
      <trkpt lat="43.64477" lon="2.34658">
        <ele>527.875549</ele>
        <time>2021-10-03T09:44:14.000Z</time>
      </trkpt>
      <trkpt lat="43.6448" lon="2.3465">
        <ele>527.598499</ele>
        <time>2021-10-03T09:44:15.000Z</time>
      </trkpt>
      <trkpt lat="43.64482" lon="2.34642">
        <ele>527.344903</ele>
        <time>2021-10-03T09:44:16.000Z</time>
      </trkpt>
      <trkpt lat="43.64484" lon="2.34634">
        <ele>527.070761</ele>
        <time>2021-10-03T09:44:17.000Z</time>
      </trkpt>
      <trkpt lat="43.64486" lon="2.34626">
        <ele>526.811257</ele>
        <time>2021-10-03T09:44:18.000Z</time>
      </trkpt>
      <trkpt lat="43.64487" lon="2.34617">
        <ele>526.516308</ele>
        <time>2021-10-03T09:44:19.000Z</time>
      </trkpt>
      <trkpt lat="43.64489" lon="2.34608">
        <ele>526.22107</ele>
        <time>2021-10-03T09:44:20.000Z</time>
      </trkpt>
      <trkpt lat="43.64492" lon="2.34599">
        <ele>525.916073</ele>
        <time>2021-10-03T09:44:21.000Z</time>
      </trkpt>
      <trkpt lat="43.64495" lon="2.3459">
        <ele>525.609878</ele>
        <time>2021-10-03T09:44:22.000Z</time>
      </trkpt>
      <trkpt lat="43.64498" lon="2.34581">
        <ele>525.277572</ele>
        <time>2021-10-03T09:44:23.000Z</time>
      </trkpt>
      <trkpt lat="43.64502" lon="2.34571">
        <ele>524.950064</ele>
        <time>2021-10-03T09:44:24.000Z</time>
      </trkpt>
      <trkpt lat="43.64506" lon="2.34562">
        <ele>524.619853</ele>
        <time>2021-10-03T09:44:25.000Z</time>
      </trkpt>
      <trkpt lat="43.64509" lon="2.34554">
        <ele>524.285875</ele>
        <time>2021-10-03T09:44:26.000Z</time>
      </trkpt>
      <trkpt lat="43.64512" lon="2.34545">
        <ele>523.931211</ele>
        <time>2021-10-03T09:44:27.000Z</time>
      </trkpt>
      <trkpt lat="43.64516" lon="2.34536">
        <ele>523.575314</ele>
        <time>2021-10-03T09:44:28.000Z</time>
      </trkpt>
      <trkpt lat="43.6452" lon="2.34527">
        <ele>523.217551</ele>
        <time>2021-10-03T09:44:29.000Z</time>
      </trkpt>
      <trkpt lat="43.64524" lon="2.34519">
        <ele>522.855607</ele>
        <time>2021-10-03T09:44:30.000Z</time>
      </trkpt>
      <trkpt lat="43.64527" lon="2.3451">
        <ele>522.493663</ele>
        <time>2021-10-03T09:44:31.000Z</time>
      </trkpt>
      <trkpt lat="43.64531" lon="2.34501">
        <ele>522.140776</ele>
        <time>2021-10-03T09:44:32.000Z</time>
      </trkpt>
      <trkpt lat="43.64535" lon="2.34493">
        <ele>521.797749</ele>
        <time>2021-10-03T09:44:33.000Z</time>
      </trkpt>
      <trkpt lat="43.64538" lon="2.34485">
        <ele>521.454121</ele>
        <time>2021-10-03T09:44:34.000Z</time>
      </trkpt>
      <trkpt lat="43.64542" lon="2.34478">
        <ele>521.153628</ele>
        <time>2021-10-03T09:44:35.000Z</time>
      </trkpt>
      <trkpt lat="43.64546" lon="2.34472">
        <ele>520.859581</ele>
        <time>2021-10-03T09:44:36.000Z</time>
      </trkpt>
      <trkpt lat="43.64551" lon="2.34466">
        <ele>520.572358</ele>
        <time>2021-10-03T09:44:37.000Z</time>
      </trkpt>
      <trkpt lat="43.64554" lon="2.34461">
        <ele>520.323362</ele>
        <time>2021-10-03T09:44:38.000Z</time>
      </trkpt>
      <trkpt lat="43.64556" lon="2.34453">
        <ele>520.036945</ele>
        <time>2021-10-03T09:44:39.000Z</time>
      </trkpt>
      <trkpt lat="43.64559" lon="2.34445">
        <ele>519.716703</ele>
        <time>2021-10-03T09:44:40.000Z</time>
      </trkpt>
      <trkpt lat="43.64562" lon="2.34438">
        <ele>519.427146</ele>
        <time>2021-10-03T09:44:41.000Z</time>
      </trkpt>
      <trkpt lat="43.64564" lon="2.34431">
        <ele>519.156287</ele>
        <time>2021-10-03T09:44:42.000Z</time>
      </trkpt>
      <trkpt lat="43.64567" lon="2.34425">
        <ele>518.883572</ele>
        <time>2021-10-03T09:44:43.000Z</time>
      </trkpt>
      <trkpt lat="43.64571" lon="2.34418">
        <ele>518.594544</ele>
        <time>2021-10-03T09:44:44.000Z</time>
      </trkpt>
      <trkpt lat="43.64575" lon="2.3441">
        <ele>518.259688</ele>
        <time>2021-10-03T09:44:45.000Z</time>
      </trkpt>
      <trkpt lat="43.64578" lon="2.34404">
        <ele>517.970014</ele>
        <time>2021-10-03T09:44:46.000Z</time>
      </trkpt>
      <trkpt lat="43.64583" lon="2.34397">
        <ele>517.657399</ele>
        <time>2021-10-03T09:44:47.000Z</time>
      </trkpt>
      <trkpt lat="43.64587" lon="2.3439">
        <ele>517.333096</ele>
        <time>2021-10-03T09:44:48.000Z</time>
      </trkpt>
      <trkpt lat="43.64591" lon="2.34383">
        <ele>517.020482</ele>
        <time>2021-10-03T09:44:49.000Z</time>
      </trkpt>
      <trkpt lat="43.64595" lon="2.34376">
        <ele>516.690761</ele>
        <time>2021-10-03T09:44:50.000Z</time>
      </trkpt>
      <trkpt lat="43.64599" lon="2.34369">
        <ele>516.370278</ele>
        <time>2021-10-03T09:44:51.000Z</time>
      </trkpt>
      <trkpt lat="43.64603" lon="2.34361">
        <ele>516.055079</ele>
        <time>2021-10-03T09:44:52.000Z</time>
      </trkpt>
      <trkpt lat="43.64606" lon="2.34354">
        <ele>515.633548</ele>
        <time>2021-10-03T09:44:53.000Z</time>
      </trkpt>
      <trkpt lat="43.6461" lon="2.34347">
        <ele>514.725439</ele>
        <time>2021-10-03T09:44:54.000Z</time>
      </trkpt>
      <trkpt lat="43.64614" lon="2.3434">
        <ele>513.930314</ele>
        <time>2021-10-03T09:44:55.000Z</time>
      </trkpt>
      <trkpt lat="43.64617" lon="2.34334">
        <ele>513.154815</ele>
        <time>2021-10-03T09:44:56.000Z</time>
      </trkpt>
      <trkpt lat="43.64621" lon="2.34329">
        <ele>512.391571</ele>
        <time>2021-10-03T09:44:57.000Z</time>
      </trkpt>
      <trkpt lat="43.64625" lon="2.34325">
        <ele>511.763472</ele>
        <time>2021-10-03T09:44:58.000Z</time>
      </trkpt>
      <trkpt lat="43.64628" lon="2.3432">
        <ele>511.165759</ele>
        <time>2021-10-03T09:44:59.000Z</time>
      </trkpt>
      <trkpt lat="43.64631" lon="2.34316">
        <ele>510.534466</ele>
        <time>2021-10-03T09:45:00.000Z</time>
      </trkpt>
      <trkpt lat="43.64634" lon="2.34313">
        <ele>509.99342</ele>
        <time>2021-10-03T09:45:01.000Z</time>
      </trkpt>
      <trkpt lat="43.64638" lon="2.3431">
        <ele>509.372161</ele>
        <time>2021-10-03T09:45:02.000Z</time>
      </trkpt>
      <trkpt lat="43.64642" lon="2.34307">
        <ele>508.814225</ele>
        <time>2021-10-03T09:45:03.000Z</time>
      </trkpt>
      <trkpt lat="43.64646" lon="2.34303">
        <ele>508.12661</ele>
        <time>2021-10-03T09:45:04.000Z</time>
      </trkpt>
      <trkpt lat="43.64649" lon="2.34298">
        <ele>507.458148</ele>
        <time>2021-10-03T09:45:05.000Z</time>
      </trkpt>
      <trkpt lat="43.64652" lon="2.34294">
        <ele>506.855557</ele>
        <time>2021-10-03T09:45:06.000Z</time>
      </trkpt>
      <trkpt lat="43.64655" lon="2.34289">
        <ele>506.249101</ele>
        <time>2021-10-03T09:45:07.000Z</time>
      </trkpt>
      <trkpt lat="43.64658" lon="2.34285">
        <ele>505.726409</ele>
        <time>2021-10-03T09:45:08.000Z</time>
      </trkpt>
      <trkpt lat="43.6466" lon="2.34282">
        <ele>505.329338</ele>
        <time>2021-10-03T09:45:09.000Z</time>
      </trkpt>
      <trkpt lat="43.64663" lon="2.34279">
        <ele>504.805183</ele>
        <time>2021-10-03T09:45:10.000Z</time>
      </trkpt>
      <trkpt lat="43.64665" lon="2.34278">
        <ele>504.440194</ele>
        <time>2021-10-03T09:45:11.000Z</time>
      </trkpt>
      <trkpt lat="43.64668" lon="2.34277">
        <ele>504.017489</ele>
        <time>2021-10-03T09:45:12.000Z</time>
      </trkpt>
      <trkpt lat="43.64671" lon="2.34277">
        <ele>503.606091</ele>
        <time>2021-10-03T09:45:13.000Z</time>
      </trkpt>
      <trkpt lat="43.64674" lon="2.34277">
        <ele>503.181358</ele>
        <time>2021-10-03T09:45:14.000Z</time>
      </trkpt>
      <trkpt lat="43.64678" lon="2.34277">
        <ele>502.715543</ele>
        <time>2021-10-03T09:45:15.000Z</time>
      </trkpt>
      <trkpt lat="43.6468" lon="2.34276">
        <ele>502.339263</ele>
        <time>2021-10-03T09:45:16.000Z</time>
      </trkpt>
      <trkpt lat="43.64683" lon="2.34275">
        <ele>501.911476</ele>
        <time>2021-10-03T09:45:17.000Z</time>
      </trkpt>
      <trkpt lat="43.64687" lon="2.34274">
        <ele>501.433175</ele>
        <time>2021-10-03T09:45:18.000Z</time>
      </trkpt>
      <trkpt lat="43.64689" lon="2.34271">
        <ele>501.009285</ele>
        <time>2021-10-03T09:45:19.000Z</time>
      </trkpt>
      <trkpt lat="43.64691" lon="2.34267">
        <ele>500.495099</ele>
        <time>2021-10-03T09:45:20.000Z</time>
      </trkpt>
      <trkpt lat="43.64694" lon="2.34263">
        <ele>499.932056</ele>
        <time>2021-10-03T09:45:21.000Z</time>
      </trkpt>
      <trkpt lat="43.64695" lon="2.34258">
        <ele>499.433344</ele>
        <time>2021-10-03T09:45:22.000Z</time>
      </trkpt>
      <trkpt lat="43.64696" lon="2.34253">
        <ele>498.971944</ele>
        <time>2021-10-03T09:45:23.000Z</time>
      </trkpt>
      <trkpt lat="43.64697" lon="2.34248">
        <ele>498.44219</ele>
        <time>2021-10-03T09:45:24.000Z</time>
      </trkpt>
      <trkpt lat="43.64698" lon="2.34244">
        <ele>497.976289</ele>
        <time>2021-10-03T09:45:25.000Z</time>
      </trkpt>
      <trkpt lat="43.64698" lon="2.34239">
        <ele>497.507238</ele>
        <time>2021-10-03T09:45:26.000Z</time>
      </trkpt>
      <trkpt lat="43.64699" lon="2.34234">
        <ele>496.960749</ele>
        <time>2021-10-03T09:45:27.000Z</time>
      </trkpt>
      <trkpt lat="43.647" lon="2.34228">
        <ele>496.400859</ele>
        <time>2021-10-03T09:45:28.000Z</time>
      </trkpt>
      <trkpt lat="43.64701" lon="2.34223">
        <ele>495.88636</ele>
        <time>2021-10-03T09:45:29.000Z</time>
      </trkpt>
      <trkpt lat="43.64701" lon="2.3422">
        <ele>495.588701</ele>
        <time>2021-10-03T09:45:30.000Z</time>
      </trkpt>
      <trkpt lat="43.64701" lon="2.34216">
        <ele>495.180258</ele>
        <time>2021-10-03T09:45:31.000Z</time>
      </trkpt>
      <trkpt lat="43.64702" lon="2.34212">
        <ele>494.797512</ele>
        <time>2021-10-03T09:45:32.000Z</time>
      </trkpt>
      <trkpt lat="43.64704" lon="2.34211">
        <ele>494.571765</ele>
        <time>2021-10-03T09:45:33.000Z</time>
      </trkpt>
      <trkpt lat="43.64706" lon="2.34212">
        <ele>494.286574</ele>
        <time>2021-10-03T09:45:34.000Z</time>
      </trkpt>
      <trkpt lat="43.64707" lon="2.34212">
        <ele>494.053513</ele>
        <time>2021-10-03T09:45:35.000Z</time>
      </trkpt>
      <trkpt lat="43.64709" lon="2.34214">
        <ele>493.816111</ele>
        <time>2021-10-03T09:45:36.000Z</time>
      </trkpt>
      <trkpt lat="43.64711" lon="2.34214">
        <ele>493.491247</ele>
        <time>2021-10-03T09:45:37.000Z</time>
      </trkpt>
      <trkpt lat="43.64712" lon="2.34216">
        <ele>493.231704</ele>
        <time>2021-10-03T09:45:38.000Z</time>
      </trkpt>
      <trkpt lat="43.64714" lon="2.34217">
        <ele>492.966778</ele>
        <time>2021-10-03T09:45:39.000Z</time>
      </trkpt>
      <trkpt lat="43.64717" lon="2.34215">
        <ele>492.626408</ele>
        <time>2021-10-03T09:45:40.000Z</time>
      </trkpt>
      <trkpt lat="43.64719" lon="2.34215">
        <ele>492.325067</ele>
        <time>2021-10-03T09:45:41.000Z</time>
      </trkpt>
      <trkpt lat="43.64722" lon="2.34216">
        <ele>491.899409</ele>
        <time>2021-10-03T09:45:42.000Z</time>
      </trkpt>
      <trkpt lat="43.64725" lon="2.34216">
        <ele>491.432751</ele>
        <time>2021-10-03T09:45:43.000Z</time>
      </trkpt>
      <trkpt lat="43.64729" lon="2.34215">
        <ele>490.874707</ele>
        <time>2021-10-03T09:45:44.000Z</time>
      </trkpt>
      <trkpt lat="43.64732" lon="2.34215">
        <ele>490.27064</ele>
        <time>2021-10-03T09:45:45.000Z</time>
      </trkpt>
      <trkpt lat="43.64735" lon="2.34215">
        <ele>489.74466</ele>
        <time>2021-10-03T09:45:46.000Z</time>
      </trkpt>
      <trkpt lat="43.64738" lon="2.34215">
        <ele>489.15871</ele>
        <time>2021-10-03T09:45:47.000Z</time>
      </trkpt>
      <trkpt lat="43.6474" lon="2.34214">
        <ele>488.69668</ele>
        <time>2021-10-03T09:45:48.000Z</time>
      </trkpt>
      <trkpt lat="43.64743" lon="2.34213">
        <ele>488.124383</ele>
        <time>2021-10-03T09:45:49.000Z</time>
      </trkpt>
      <trkpt lat="43.64744" lon="2.3421">
        <ele>487.674642</ele>
        <time>2021-10-03T09:45:50.000Z</time>
      </trkpt>
      <trkpt lat="43.64745" lon="2.34208">
        <ele>487.239933</ele>
        <time>2021-10-03T09:45:51.000Z</time>
      </trkpt>
      <trkpt lat="43.64746" lon="2.34204">
        <ele>486.714936</ele>
        <time>2021-10-03T09:45:52.000Z</time>
      </trkpt>
      <trkpt lat="43.64747" lon="2.34201">
        <ele>486.187585</ele>
        <time>2021-10-03T09:45:53.000Z</time>
      </trkpt>
      <trkpt lat="43.64748" lon="2.34197">
        <ele>485.688193</ele>
        <time>2021-10-03T09:45:54.000Z</time>
      </trkpt>
      <trkpt lat="43.64749" lon="2.34194">
        <ele>485.180136</ele>
        <time>2021-10-03T09:45:55.000Z</time>
      </trkpt>
      <trkpt lat="43.6475" lon="2.34191">
        <ele>484.716193</ele>
        <time>2021-10-03T09:45:56.000Z</time>
      </trkpt>
      <trkpt lat="43.6475" lon="2.34188">
        <ele>484.216709</ele>
        <time>2021-10-03T09:45:57.000Z</time>
      </trkpt>
      <trkpt lat="43.6475" lon="2.34185">
        <ele>483.878398</ele>
        <time>2021-10-03T09:45:58.000Z</time>
      </trkpt>
      <trkpt lat="43.6475" lon="2.34183">
        <ele>483.497799</ele>
        <time>2021-10-03T09:45:59.000Z</time>
      </trkpt>
      <trkpt lat="43.6475" lon="2.3418">
        <ele>483.145393</ele>
        <time>2021-10-03T09:46:00.000Z</time>
      </trkpt>
      <trkpt lat="43.64751" lon="2.34178">
        <ele>482.871262</ele>
        <time>2021-10-03T09:46:01.000Z</time>
      </trkpt>
      <trkpt lat="43.64751" lon="2.34176">
        <ele>482.578766</ele>
        <time>2021-10-03T09:46:02.000Z</time>
      </trkpt>
      <trkpt lat="43.64751" lon="2.34173">
        <ele>482.190272</ele>
        <time>2021-10-03T09:46:03.000Z</time>
      </trkpt>
      <trkpt lat="43.64751" lon="2.34171">
        <ele>481.82377</ele>
        <time>2021-10-03T09:46:04.000Z</time>
      </trkpt>
      <trkpt lat="43.64752" lon="2.34168">
        <ele>481.379893</ele>
        <time>2021-10-03T09:46:05.000Z</time>
      </trkpt>
      <trkpt lat="43.64752" lon="2.34165">
        <ele>480.957005</ele>
        <time>2021-10-03T09:46:06.000Z</time>
      </trkpt>
      <trkpt lat="43.64752" lon="2.34162">
        <ele>480.618695</ele>
        <time>2021-10-03T09:46:07.000Z</time>
      </trkpt>
      <trkpt lat="43.64752" lon="2.3416">
        <ele>480.294481</ele>
        <time>2021-10-03T09:46:08.000Z</time>
      </trkpt>
      <trkpt lat="43.64752" lon="2.34158">
        <ele>479.984364</ele>
        <time>2021-10-03T09:46:09.000Z</time>
      </trkpt>
      <trkpt lat="43.64753" lon="2.34156">
        <ele>479.632639</ele>
        <time>2021-10-03T09:46:10.000Z</time>
      </trkpt>
      <trkpt lat="43.64754" lon="2.34154">
        <ele>479.28003</ele>
        <time>2021-10-03T09:46:11.000Z</time>
      </trkpt>
      <trkpt lat="43.64756" lon="2.34154">
        <ele>478.909628</ele>
        <time>2021-10-03T09:46:12.000Z</time>
      </trkpt>
      <trkpt lat="43.64758" lon="2.34155">
        <ele>478.508327</ele>
        <time>2021-10-03T09:46:13.000Z</time>
      </trkpt>
      <trkpt lat="43.6476" lon="2.34157">
        <ele>477.993414</ele>
        <time>2021-10-03T09:46:14.000Z</time>
      </trkpt>
      <trkpt lat="43.64762" lon="2.34159">
        <ele>477.521584</ele>
        <time>2021-10-03T09:46:15.000Z</time>
      </trkpt>
      <trkpt lat="43.64765" lon="2.34159">
        <ele>476.990903</ele>
        <time>2021-10-03T09:46:16.000Z</time>
      </trkpt>
      <trkpt lat="43.64767" lon="2.34159">
        <ele>476.671342</ele>
        <time>2021-10-03T09:46:17.000Z</time>
      </trkpt>
      <trkpt lat="43.64769" lon="2.34158">
        <ele>476.221294</ele>
        <time>2021-10-03T09:46:18.000Z</time>
      </trkpt>
      <trkpt lat="43.64772" lon="2.34159">
        <ele>475.702393</ele>
        <time>2021-10-03T09:46:19.000Z</time>
      </trkpt>
      <trkpt lat="43.64774" lon="2.34159">
        <ele>475.25345</ele>
        <time>2021-10-03T09:46:20.000Z</time>
      </trkpt>
      <trkpt lat="43.64776" lon="2.34158">
        <ele>474.827179</ele>
        <time>2021-10-03T09:46:21.000Z</time>
      </trkpt>
      <trkpt lat="43.64777" lon="2.34156">
        <ele>474.47168</ele>
        <time>2021-10-03T09:46:22.000Z</time>
      </trkpt>
      <trkpt lat="43.64777" lon="2.34153">
        <ele>474.124513</ele>
        <time>2021-10-03T09:46:23.000Z</time>
      </trkpt>
      <trkpt lat="43.64777" lon="2.34151">
        <ele>473.743418</ele>
        <time>2021-10-03T09:46:24.000Z</time>
      </trkpt>
      <trkpt lat="43.64777" lon="2.34148">
        <ele>473.327267</ele>
        <time>2021-10-03T09:46:25.000Z</time>
      </trkpt>
      <trkpt lat="43.64777" lon="2.34145">
        <ele>472.924955</ele>
        <time>2021-10-03T09:46:26.000Z</time>
      </trkpt>
      <trkpt lat="43.64776" lon="2.34142">
        <ele>472.425565</ele>
        <time>2021-10-03T09:46:27.000Z</time>
      </trkpt>
      <trkpt lat="43.64774" lon="2.3414">
        <ele>472.071445</ele>
        <time>2021-10-03T09:46:28.000Z</time>
      </trkpt>
      <trkpt lat="43.64774" lon="2.34138">
        <ele>471.724372</ele>
        <time>2021-10-03T09:46:29.000Z</time>
      </trkpt>
      <trkpt lat="43.64773" lon="2.34136">
        <ele>471.494369</ele>
        <time>2021-10-03T09:46:30.000Z</time>
      </trkpt>
      <trkpt lat="43.64773" lon="2.34135">
        <ele>471.315404</ele>
        <time>2021-10-03T09:46:31.000Z</time>
      </trkpt>
      <trkpt lat="43.64772" lon="2.34134">
        <ele>471.074978</ele>
        <time>2021-10-03T09:46:32.000Z</time>
      </trkpt>
      <trkpt lat="43.64772" lon="2.34132">
        <ele>470.80715</ele>
        <time>2021-10-03T09:46:33.000Z</time>
      </trkpt>
      <trkpt lat="43.64772" lon="2.34129">
        <ele>470.477712</ele>
        <time>2021-10-03T09:46:34.000Z</time>
      </trkpt>
      <trkpt lat="43.64772" lon="2.34127">
        <ele>470.185217</ele>
        <time>2021-10-03T09:46:35.000Z</time>
      </trkpt>
      <trkpt lat="43.64771" lon="2.34126">
        <ele>469.933231</ele>
        <time>2021-10-03T09:46:36.000Z</time>
      </trkpt>
      <trkpt lat="43.64771" lon="2.34124">
        <ele>469.640736</ele>
        <time>2021-10-03T09:46:37.000Z</time>
      </trkpt>
      <trkpt lat="43.64771" lon="2.34121">
        <ele>469.30729</ele>
        <time>2021-10-03T09:46:38.000Z</time>
      </trkpt>
      <trkpt lat="43.64772" lon="2.34119">
        <ele>468.981371</ele>
        <time>2021-10-03T09:46:39.000Z</time>
      </trkpt>
      <trkpt lat="43.64773" lon="2.34117">
        <ele>468.608891</ele>
        <time>2021-10-03T09:46:40.000Z</time>
      </trkpt>
      <trkpt lat="43.64774" lon="2.34115">
        <ele>468.320837</ele>
        <time>2021-10-03T09:46:41.000Z</time>
      </trkpt>
      <trkpt lat="43.64775" lon="2.34113">
        <ele>467.977834</ele>
        <time>2021-10-03T09:46:42.000Z</time>
      </trkpt>
      <trkpt lat="43.64776" lon="2.34112">
        <ele>467.671903</ele>
        <time>2021-10-03T09:46:43.000Z</time>
      </trkpt>
      <trkpt lat="43.64777" lon="2.3411">
        <ele>467.380587</ele>
        <time>2021-10-03T09:46:44.000Z</time>
      </trkpt>
      <trkpt lat="43.64779" lon="2.34109">
        <ele>466.908758</ele>
        <time>2021-10-03T09:46:45.000Z</time>
      </trkpt>
      <trkpt lat="43.64783" lon="2.34109">
        <ele>466.166345</ele>
        <time>2021-10-03T09:46:46.000Z</time>
      </trkpt>
      <trkpt lat="43.64786" lon="2.34108">
        <ele>465.498622</ele>
        <time>2021-10-03T09:46:47.000Z</time>
      </trkpt>
      <trkpt lat="43.64789" lon="2.34108">
        <ele>464.892093</ele>
        <time>2021-10-03T09:46:48.000Z</time>
      </trkpt>
      <trkpt lat="43.64793" lon="2.34106">
        <ele>464.268602</ele>
        <time>2021-10-03T09:46:49.000Z</time>
      </trkpt>
      <trkpt lat="43.64796" lon="2.34105">
        <ele>463.656123</ele>
        <time>2021-10-03T09:46:50.000Z</time>
      </trkpt>
      <trkpt lat="43.64799" lon="2.34104">
        <ele>462.960847</ele>
        <time>2021-10-03T09:46:51.000Z</time>
      </trkpt>
      <trkpt lat="43.64802" lon="2.34102">
        <ele>462.288296</ele>
        <time>2021-10-03T09:46:52.000Z</time>
      </trkpt>
      <trkpt lat="43.64805" lon="2.341">
        <ele>461.639428</ele>
        <time>2021-10-03T09:46:53.000Z</time>
      </trkpt>
      <trkpt lat="43.64808" lon="2.34099">
        <ele>461.106692</ele>
        <time>2021-10-03T09:46:54.000Z</time>
      </trkpt>
      <trkpt lat="43.64811" lon="2.34099">
        <ele>460.441951</ele>
        <time>2021-10-03T09:46:55.000Z</time>
      </trkpt>
      <trkpt lat="43.64814" lon="2.34098">
        <ele>459.904018</ele>
        <time>2021-10-03T09:46:56.000Z</time>
      </trkpt>
      <trkpt lat="43.64817" lon="2.34097">
        <ele>459.366086</ele>
        <time>2021-10-03T09:46:57.000Z</time>
      </trkpt>
      <trkpt lat="43.6482" lon="2.34097">
        <ele>458.762018</ele>
        <time>2021-10-03T09:46:58.000Z</time>
      </trkpt>
      <trkpt lat="43.64822" lon="2.34097">
        <ele>458.233025</ele>
        <time>2021-10-03T09:46:59.000Z</time>
      </trkpt>
      <trkpt lat="43.64825" lon="2.34099">
        <ele>457.629812</ele>
        <time>2021-10-03T09:47:00.000Z</time>
      </trkpt>
      <trkpt lat="43.64827" lon="2.34101">
        <ele>457.18106</ele>
        <time>2021-10-03T09:47:01.000Z</time>
      </trkpt>
      <trkpt lat="43.64829" lon="2.34102">
        <ele>456.730875</ele>
        <time>2021-10-03T09:47:02.000Z</time>
      </trkpt>
      <trkpt lat="43.64831" lon="2.34102">
        <ele>456.360741</ele>
        <time>2021-10-03T09:47:03.000Z</time>
      </trkpt>
      <trkpt lat="43.64832" lon="2.34102">
        <ele>456.185415</ele>
        <time>2021-10-03T09:47:04.000Z</time>
      </trkpt>
      <trkpt lat="43.64832" lon="2.34102">
        <ele>456.112075</ele>
        <time>2021-10-03T09:47:05.000Z</time>
      </trkpt>
      <trkpt lat="43.64833" lon="2.34102">
        <ele>456.028983</ele>
        <time>2021-10-03T09:47:06.000Z</time>
      </trkpt>
      <trkpt lat="43.64833" lon="2.34102">
        <ele>456.016806</ele>
        <time>2021-10-03T09:47:07.000Z</time>
      </trkpt>
      <trkpt lat="43.64833" lon="2.34102">
        <ele>456.016806</ele>
        <time>2021-10-03T09:47:08.000Z</time>
      </trkpt>
      <trkpt lat="43.64833" lon="2.34102">
        <ele>456.016806</ele>
        <time>2021-10-03T09:47:09.000Z</time>
      </trkpt>
      <trkpt lat="43.64833" lon="2.34102">
        <ele>456.016806</ele>
        <time>2021-10-03T09:47:10.000Z</time>
      </trkpt>
      <trkpt lat="43.64833" lon="2.34102">
        <ele>456.016806</ele>
        <time>2021-10-03T09:47:11.000Z</time>
      </trkpt>
      <trkpt lat="43.64837" lon="2.34097">
        <ele>455.040479</ele>
        <time>2021-10-03T09:47:12.000Z</time>
      </trkpt>
      <trkpt lat="43.64849" lon="2.34082">
        <ele>452.354381</ele>
        <time>2021-10-03T09:47:22.000Z</time>
      </trkpt>
      <trkpt lat="43.6485" lon="2.3408">
        <ele>452.035969</ele>
        <time>2021-10-03T09:47:23.000Z</time>
      </trkpt>
      <trkpt lat="43.64851" lon="2.34078">
        <ele>451.679667</ele>
        <time>2021-10-03T09:47:24.000Z</time>
      </trkpt>
      <trkpt lat="43.64853" lon="2.34075">
        <ele>451.30413</ele>
        <time>2021-10-03T09:47:25.000Z</time>
      </trkpt>
      <trkpt lat="43.64854" lon="2.34073">
        <ele>451.007815</ele>
        <time>2021-10-03T09:47:26.000Z</time>
      </trkpt>
      <trkpt lat="43.64856" lon="2.34072">
        <ele>450.553626</ele>
        <time>2021-10-03T09:47:27.000Z</time>
      </trkpt>
      <trkpt lat="43.64858" lon="2.34072">
        <ele>450.26727</ele>
        <time>2021-10-03T09:47:28.000Z</time>
      </trkpt>
      <trkpt lat="43.6486" lon="2.34071">
        <ele>449.97199</ele>
        <time>2021-10-03T09:47:29.000Z</time>
      </trkpt>
      <trkpt lat="43.64862" lon="2.34069">
        <ele>449.534116</ele>
        <time>2021-10-03T09:47:30.000Z</time>
      </trkpt>
      <trkpt lat="43.64863" lon="2.34067">
        <ele>449.167355</ele>
        <time>2021-10-03T09:47:31.000Z</time>
      </trkpt>
      <trkpt lat="43.64865" lon="2.34064">
        <ele>448.635109</ele>
        <time>2021-10-03T09:47:32.000Z</time>
      </trkpt>
      <trkpt lat="43.64867" lon="2.34061">
        <ele>448.152404</ele>
        <time>2021-10-03T09:47:33.000Z</time>
      </trkpt>
      <trkpt lat="43.64869" lon="2.34058">
        <ele>447.678741</ele>
        <time>2021-10-03T09:47:34.000Z</time>
      </trkpt>
      <trkpt lat="43.64871" lon="2.34055">
        <ele>447.116451</ele>
        <time>2021-10-03T09:47:35.000Z</time>
      </trkpt>
      <trkpt lat="43.64874" lon="2.34052">
        <ele>446.569505</ele>
        <time>2021-10-03T09:47:36.000Z</time>
      </trkpt>
      <trkpt lat="43.64876" lon="2.3405">
        <ele>446.112186</ele>
        <time>2021-10-03T09:47:37.000Z</time>
      </trkpt>
      <trkpt lat="43.64878" lon="2.34048">
        <ele>445.681999</ele>
        <time>2021-10-03T09:47:38.000Z</time>
      </trkpt>
      <trkpt lat="43.64881" lon="2.34045">
        <ele>445.178672</ele>
        <time>2021-10-03T09:47:39.000Z</time>
      </trkpt>
      <trkpt lat="43.64883" lon="2.34042">
        <ele>444.672911</ele>
        <time>2021-10-03T09:47:40.000Z</time>
      </trkpt>
      <trkpt lat="43.64884" lon="2.3404">
        <ele>444.251986</ele>
        <time>2021-10-03T09:47:41.000Z</time>
      </trkpt>
      <trkpt lat="43.64886" lon="2.34038">
        <ele>443.836529</ele>
        <time>2021-10-03T09:47:42.000Z</time>
      </trkpt>
      <trkpt lat="43.64888" lon="2.34036">
        <ele>443.576462</ele>
        <time>2021-10-03T09:47:43.000Z</time>
      </trkpt>
      <trkpt lat="43.64889" lon="2.34036">
        <ele>443.352242</ele>
        <time>2021-10-03T09:47:44.000Z</time>
      </trkpt>
      <trkpt lat="43.6489" lon="2.34035">
        <ele>443.089443</ele>
        <time>2021-10-03T09:47:45.000Z</time>
      </trkpt>
      <trkpt lat="43.64891" lon="2.34034">
        <ele>442.878513</ele>
        <time>2021-10-03T09:47:46.000Z</time>
      </trkpt>
      <trkpt lat="43.64893" lon="2.34034">
        <ele>442.674709</ele>
        <time>2021-10-03T09:47:47.000Z</time>
      </trkpt>
      <trkpt lat="43.64894" lon="2.34032">
        <ele>442.418107</ele>
        <time>2021-10-03T09:47:48.000Z</time>
      </trkpt>
      <trkpt lat="43.64895" lon="2.3403">
        <ele>442.072153</ele>
        <time>2021-10-03T09:47:49.000Z</time>
      </trkpt>
      <trkpt lat="43.64896" lon="2.34027">
        <ele>441.694832</ele>
        <time>2021-10-03T09:47:50.000Z</time>
      </trkpt>
      <trkpt lat="43.64897" lon="2.34025">
        <ele>441.359339</ele>
        <time>2021-10-03T09:47:51.000Z</time>
      </trkpt>
      <trkpt lat="43.64898" lon="2.34023">
        <ele>441.112395</ele>
        <time>2021-10-03T09:47:52.000Z</time>
      </trkpt>
      <trkpt lat="43.64899" lon="2.34022">
        <ele>440.924695</ele>
        <time>2021-10-03T09:47:53.000Z</time>
      </trkpt>
      <trkpt lat="43.649" lon="2.34021">
        <ele>440.688871</ele>
        <time>2021-10-03T09:47:54.000Z</time>
      </trkpt>
      <trkpt lat="43.64901" lon="2.34021">
        <ele>440.543462</ele>
        <time>2021-10-03T09:47:55.000Z</time>
      </trkpt>
      <trkpt lat="43.64901" lon="2.34021">
        <ele>440.526632</ele>
        <time>2021-10-03T09:47:56.000Z</time>
      </trkpt>
      <trkpt lat="43.64901" lon="2.34021">
        <ele>440.526632</ele>
        <time>2021-10-03T09:47:57.000Z</time>
      </trkpt>
      <trkpt lat="43.64906" lon="2.34011">
        <ele>439.016917</ele>
        <time>2021-10-03T09:48:16.000Z</time>
      </trkpt>
      <trkpt lat="43.64907" lon="2.34009">
        <ele>438.768548</ele>
        <time>2021-10-03T09:48:17.000Z</time>
      </trkpt>
      <trkpt lat="43.64909" lon="2.34008">
        <ele>438.476866</ele>
        <time>2021-10-03T09:48:18.000Z</time>
      </trkpt>
      <trkpt lat="43.64909" lon="2.34007">
        <ele>438.295331</ele>
        <time>2021-10-03T09:48:19.000Z</time>
      </trkpt>
      <trkpt lat="43.6491" lon="2.34006">
        <ele>438.091527</ele>
        <time>2021-10-03T09:48:20.000Z</time>
      </trkpt>
      <trkpt lat="43.64911" lon="2.34005">
        <ele>437.901609</ele>
        <time>2021-10-03T09:48:21.000Z</time>
      </trkpt>
      <trkpt lat="43.64912" lon="2.34003">
        <ele>437.566117</ele>
        <time>2021-10-03T09:48:22.000Z</time>
      </trkpt>
      <trkpt lat="43.64913" lon="2.34001">
        <ele>437.295576</ele>
        <time>2021-10-03T09:48:23.000Z</time>
      </trkpt>
      <trkpt lat="43.64914" lon="2.33999">
        <ele>437.023273</ele>
        <time>2021-10-03T09:48:24.000Z</time>
      </trkpt>
      <trkpt lat="43.64915" lon="2.33998">
        <ele>436.793978</ele>
        <time>2021-10-03T09:48:25.000Z</time>
      </trkpt>
      <trkpt lat="43.64916" lon="2.33995">
        <ele>436.437678</ele>
        <time>2021-10-03T09:48:26.000Z</time>
      </trkpt>
      <trkpt lat="43.64917" lon="2.33993">
        <ele>436.091726</ele>
        <time>2021-10-03T09:48:27.000Z</time>
      </trkpt>
      <trkpt lat="43.64918" lon="2.3399">
        <ele>435.70587</ele>
        <time>2021-10-03T09:48:28.000Z</time>
      </trkpt>
      <trkpt lat="43.64919" lon="2.33988">
        <ele>435.409557</ele>
        <time>2021-10-03T09:48:29.000Z</time>
      </trkpt>
      <trkpt lat="43.64921" lon="2.33986">
        <ele>435.050225</ele>
        <time>2021-10-03T09:48:30.000Z</time>
      </trkpt>
      <trkpt lat="43.64922" lon="2.33983">
        <ele>434.625983</ele>
        <time>2021-10-03T09:48:31.000Z</time>
      </trkpt>
      <trkpt lat="43.64924" lon="2.33981">
        <ele>434.138826</ele>
        <time>2021-10-03T09:48:32.000Z</time>
      </trkpt>
      <trkpt lat="43.64926" lon="2.33978">
        <ele>433.665166</ele>
        <time>2021-10-03T09:48:33.000Z</time>
      </trkpt>
      <trkpt lat="43.64928" lon="2.33975">
        <ele>433.209073</ele>
        <time>2021-10-03T09:48:34.000Z</time>
      </trkpt>
      <trkpt lat="43.6493" lon="2.33972">
        <ele>432.738552</ele>
        <time>2021-10-03T09:48:35.000Z</time>
      </trkpt>
      <trkpt lat="43.64932" lon="2.33968">
        <ele>432.164742</ele>
        <time>2021-10-03T09:48:36.000Z</time>
      </trkpt>
      <trkpt lat="43.64934" lon="2.33965">
        <ele>431.597959</ele>
        <time>2021-10-03T09:48:37.000Z</time>
      </trkpt>
      <trkpt lat="43.64936" lon="2.33962">
        <ele>431.130519</ele>
        <time>2021-10-03T09:48:38.000Z</time>
      </trkpt>
      <trkpt lat="43.64938" lon="2.33959">
        <ele>430.587913</ele>
        <time>2021-10-03T09:48:39.000Z</time>
      </trkpt>
      <trkpt lat="43.6494" lon="2.33955">
        <ele>430.114258</ele>
        <time>2021-10-03T09:48:40.000Z</time>
      </trkpt>
      <trkpt lat="43.64942" lon="2.33952">
        <ele>429.610187</ele>
        <time>2021-10-03T09:48:41.000Z</time>
      </trkpt>
      <trkpt lat="43.64944" lon="2.33949">
        <ele>429.032293</ele>
        <time>2021-10-03T09:48:42.000Z</time>
      </trkpt>
      <trkpt lat="43.64947" lon="2.33945">
        <ele>428.366166</ele>
        <time>2021-10-03T09:48:43.000Z</time>
      </trkpt>
      <trkpt lat="43.64949" lon="2.33941">
        <ele>427.772173</ele>
        <time>2021-10-03T09:48:44.000Z</time>
      </trkpt>
      <trkpt lat="43.64951" lon="2.33939">
        <ele>427.338981</ele>
        <time>2021-10-03T09:48:45.000Z</time>
      </trkpt>
      <trkpt lat="43.64953" lon="2.33937">
        <ele>426.932554</ele>
        <time>2021-10-03T09:48:46.000Z</time>
      </trkpt>
      <trkpt lat="43.64954" lon="2.33934">
        <ele>426.564457</ele>
        <time>2021-10-03T09:48:47.000Z</time>
      </trkpt>
      <trkpt lat="43.64955" lon="2.33932">
        <ele>426.268423</ele>
        <time>2021-10-03T09:48:48.000Z</time>
      </trkpt>
      <trkpt lat="43.64957" lon="2.33929">
        <ele>425.85869</ele>
        <time>2021-10-03T09:48:49.000Z</time>
      </trkpt>
      <trkpt lat="43.64957" lon="2.33927">
        <ele>425.640157</ele>
        <time>2021-10-03T09:48:50.000Z</time>
      </trkpt>
      <trkpt lat="43.64957" lon="2.33925">
        <ele>425.503678</ele>
        <time>2021-10-03T09:48:51.000Z</time>
      </trkpt>
      <trkpt lat="43.64957" lon="2.33924">
        <ele>425.398182</ele>
        <time>2021-10-03T09:48:52.000Z</time>
      </trkpt>
      <trkpt lat="43.64955" lon="2.33924">
        <ele>425.238101</ele>
        <time>2021-10-03T09:48:53.000Z</time>
      </trkpt>
      <trkpt lat="43.64953" lon="2.33923">
        <ele>425.007444</ele>
        <time>2021-10-03T09:48:54.000Z</time>
      </trkpt>
      <trkpt lat="43.64951" lon="2.33923">
        <ele>424.76347</ele>
        <time>2021-10-03T09:48:55.000Z</time>
      </trkpt>
      <trkpt lat="43.64948" lon="2.33922">
        <ele>424.443308</ele>
        <time>2021-10-03T09:48:56.000Z</time>
      </trkpt>
      <trkpt lat="43.64945" lon="2.33922">
        <ele>424.159976</ele>
        <time>2021-10-03T09:48:57.000Z</time>
      </trkpt>
      <trkpt lat="43.64942" lon="2.33924">
        <ele>423.845852</ele>
        <time>2021-10-03T09:48:58.000Z</time>
      </trkpt>
      <trkpt lat="43.6494" lon="2.33927">
        <ele>423.576124</ele>
        <time>2021-10-03T09:48:59.000Z</time>
      </trkpt>
      <trkpt lat="43.64938" lon="2.33929">
        <ele>423.254941</ele>
        <time>2021-10-03T09:49:00.000Z</time>
      </trkpt>
      <trkpt lat="43.64936" lon="2.33932">
        <ele>422.940016</ele>
        <time>2021-10-03T09:49:01.000Z</time>
      </trkpt>
      <trkpt lat="43.64932" lon="2.33934">
        <ele>422.476821</ele>
        <time>2021-10-03T09:49:02.000Z</time>
      </trkpt>
      <trkpt lat="43.64928" lon="2.33938">
        <ele>422.037057</ele>
        <time>2021-10-03T09:49:03.000Z</time>
      </trkpt>
      <trkpt lat="43.64924" lon="2.33941">
        <ele>421.50406</ele>
        <time>2021-10-03T09:49:04.000Z</time>
      </trkpt>
      <trkpt lat="43.64919" lon="2.33944">
        <ele>420.931774</ele>
        <time>2021-10-03T09:49:05.000Z</time>
      </trkpt>
      <trkpt lat="43.64914" lon="2.33946">
        <ele>420.364736</ele>
        <time>2021-10-03T09:49:06.000Z</time>
      </trkpt>
      <trkpt lat="43.64909" lon="2.33947">
        <ele>419.901815</ele>
        <time>2021-10-03T09:49:07.000Z</time>
      </trkpt>
      <trkpt lat="43.64906" lon="2.33948">
        <ele>419.569883</ele>
        <time>2021-10-03T09:49:08.000Z</time>
      </trkpt>
      <trkpt lat="43.64902" lon="2.33949">
        <ele>419.177453</ele>
        <time>2021-10-03T09:49:09.000Z</time>
      </trkpt>
      <trkpt lat="43.64899" lon="2.3395">
        <ele>418.799579</ele>
        <time>2021-10-03T09:49:10.000Z</time>
      </trkpt>
      <trkpt lat="43.64896" lon="2.33951">
        <ele>418.438175</ele>
        <time>2021-10-03T09:49:11.000Z</time>
      </trkpt>
      <trkpt lat="43.64893" lon="2.33951">
        <ele>418.144378</ele>
        <time>2021-10-03T09:49:12.000Z</time>
      </trkpt>
      <trkpt lat="43.64891" lon="2.33952">
        <ele>417.975182</ele>
        <time>2021-10-03T09:49:13.000Z</time>
      </trkpt>
      <trkpt lat="43.6489" lon="2.33952">
        <ele>417.853841</ele>
        <time>2021-10-03T09:49:14.000Z</time>
      </trkpt>
      <trkpt lat="43.64889" lon="2.33953">
        <ele>417.679328</ele>
        <time>2021-10-03T09:49:15.000Z</time>
      </trkpt>
      <trkpt lat="43.64887" lon="2.33954">
        <ele>417.523319</ele>
        <time>2021-10-03T09:49:16.000Z</time>
      </trkpt>
      <trkpt lat="43.64885" lon="2.33954">
        <ele>417.279344</ele>
        <time>2021-10-03T09:49:17.000Z</time>
      </trkpt>
      <trkpt lat="43.64882" lon="2.33955">
        <ele>417.027398</ele>
        <time>2021-10-03T09:49:18.000Z</time>
      </trkpt>
      <trkpt lat="43.64879" lon="2.33955">
        <ele>416.707236</ele>
        <time>2021-10-03T09:49:19.000Z</time>
      </trkpt>
      <trkpt lat="43.64876" lon="2.33956">
        <ele>416.383859</ele>
        <time>2021-10-03T09:49:20.000Z</time>
      </trkpt>
      <trkpt lat="43.64873" lon="2.33959">
        <ele>415.961784</ele>
        <time>2021-10-03T09:49:21.000Z</time>
      </trkpt>
      <trkpt lat="43.64869" lon="2.33961">
        <ele>415.549313</ele>
        <time>2021-10-03T09:49:22.000Z</time>
      </trkpt>
      <trkpt lat="43.64866" lon="2.33963">
        <ele>415.189819</ele>
        <time>2021-10-03T09:49:23.000Z</time>
      </trkpt>
      <trkpt lat="43.64864" lon="2.33965">
        <ele>414.89216</ele>
        <time>2021-10-03T09:49:24.000Z</time>
      </trkpt>
      <trkpt lat="43.64862" lon="2.33967">
        <ele>414.689563</ele>
        <time>2021-10-03T09:49:25.000Z</time>
      </trkpt>
      <trkpt lat="43.64861" lon="2.33967">
        <ele>414.521084</ele>
        <time>2021-10-03T09:49:26.000Z</time>
      </trkpt>
      <trkpt lat="43.64859" lon="2.33968">
        <ele>414.317797</ele>
        <time>2021-10-03T09:49:27.000Z</time>
      </trkpt>
      <trkpt lat="43.64857" lon="2.33969">
        <ele>414.07101</ele>
        <time>2021-10-03T09:49:28.000Z</time>
      </trkpt>
      <trkpt lat="43.64855" lon="2.3397">
        <ele>413.869617</ele>
        <time>2021-10-03T09:49:29.000Z</time>
      </trkpt>
      <trkpt lat="43.64852" lon="2.33969">
        <ele>413.586285</ele>
        <time>2021-10-03T09:49:30.000Z</time>
      </trkpt>
      <trkpt lat="43.64849" lon="2.3397">
        <ele>413.227996</ele>
        <time>2021-10-03T09:49:31.000Z</time>
      </trkpt>
      <trkpt lat="43.64846" lon="2.3397">
        <ele>412.942541</ele>
        <time>2021-10-03T09:49:32.000Z</time>
      </trkpt>
      <trkpt lat="43.64843" lon="2.33971">
        <ele>412.617302</ele>
        <time>2021-10-03T09:49:33.000Z</time>
      </trkpt>
      <trkpt lat="43.6484" lon="2.33972">
        <ele>412.291048</ele>
        <time>2021-10-03T09:49:34.000Z</time>
      </trkpt>
      <trkpt lat="43.64836" lon="2.33971">
        <ele>411.929644</ele>
        <time>2021-10-03T09:49:35.000Z</time>
      </trkpt>
      <trkpt lat="43.64833" lon="2.33971">
        <ele>411.571355</ele>
        <time>2021-10-03T09:49:36.000Z</time>
      </trkpt>
      <trkpt lat="43.64829" lon="2.3397">
        <ele>411.170572</ele>
        <time>2021-10-03T09:49:37.000Z</time>
      </trkpt>
      <trkpt lat="43.64825" lon="2.33969">
        <ele>410.719561</ele>
        <time>2021-10-03T09:49:38.000Z</time>
      </trkpt>
      <trkpt lat="43.64821" lon="2.33967">
        <ele>410.31331</ele>
        <time>2021-10-03T09:49:39.000Z</time>
      </trkpt>
      <trkpt lat="43.64818" lon="2.33965">
        <ele>409.909502</ele>
        <time>2021-10-03T09:49:40.000Z</time>
      </trkpt>
      <trkpt lat="43.64815" lon="2.33962">
        <ele>409.525869</ele>
        <time>2021-10-03T09:49:41.000Z</time>
      </trkpt>
      <trkpt lat="43.64812" lon="2.3396">
        <ele>409.1607</ele>
        <time>2021-10-03T09:49:42.000Z</time>
      </trkpt>
      <trkpt lat="43.64808" lon="2.33959">
        <ele>408.815163</ele>
        <time>2021-10-03T09:49:43.000Z</time>
      </trkpt>
      <trkpt lat="43.64805" lon="2.33957">
        <ele>408.45114</ele>
        <time>2021-10-03T09:49:44.000Z</time>
      </trkpt>
      <trkpt lat="43.64803" lon="2.33956">
        <ele>408.165547</ele>
        <time>2021-10-03T09:49:45.000Z</time>
      </trkpt>
      <trkpt lat="43.648" lon="2.33953">
        <ele>407.854461</ele>
        <time>2021-10-03T09:49:46.000Z</time>
      </trkpt>
      <trkpt lat="43.64799" lon="2.3395">
        <ele>407.56889</ele>
        <time>2021-10-03T09:49:47.000Z</time>
      </trkpt>
      <trkpt lat="43.64796" lon="2.33948">
        <ele>407.275781</ele>
        <time>2021-10-03T09:49:48.000Z</time>
      </trkpt>
      <trkpt lat="43.64794" lon="2.33946">
        <ele>406.952109</ele>
        <time>2021-10-03T09:49:49.000Z</time>
      </trkpt>
      <trkpt lat="43.64792" lon="2.33945">
        <ele>406.700845</ele>
        <time>2021-10-03T09:49:50.000Z</time>
      </trkpt>
      <trkpt lat="43.6479" lon="2.33944">
        <ele>406.496089</ele>
        <time>2021-10-03T09:49:51.000Z</time>
      </trkpt>
      <trkpt lat="43.64789" lon="2.33943">
        <ele>406.304</ele>
        <time>2021-10-03T09:49:52.000Z</time>
      </trkpt>
      <trkpt lat="43.64787" lon="2.33943">
        <ele>406.126588</ele>
        <time>2021-10-03T09:49:53.000Z</time>
      </trkpt>
      <trkpt lat="43.64786" lon="2.33944">
        <ele>405.983795</ele>
        <time>2021-10-03T09:49:54.000Z</time>
      </trkpt>
      <trkpt lat="43.64785" lon="2.33943">
        <ele>405.853563</ele>
        <time>2021-10-03T09:49:55.000Z</time>
      </trkpt>
      <trkpt lat="43.64784" lon="2.33943">
        <ele>405.753057</ele>
        <time>2021-10-03T09:49:56.000Z</time>
      </trkpt>
      <trkpt lat="43.64784" lon="2.33943">
        <ele>405.753057</ele>
        <time>2021-10-03T09:49:57.000Z</time>
      </trkpt>
      <trkpt lat="43.64784" lon="2.33943">
        <ele>405.753057</ele>
        <time>2021-10-03T09:49:58.000Z</time>
      </trkpt>
      <trkpt lat="43.64784" lon="2.33943">
        <ele>405.753057</ele>
        <time>2021-10-03T09:49:59.000Z</time>
      </trkpt>
      <trkpt lat="43.64776" lon="2.3394">
        <ele>404.801003</ele>
        <time>2021-10-03T09:51:30.000Z</time>
      </trkpt>
      <trkpt lat="43.64774" lon="2.33941">
        <ele>404.585936</ele>
        <time>2021-10-03T09:51:31.000Z</time>
      </trkpt>
      <trkpt lat="43.64773" lon="2.33941">
        <ele>404.454865</ele>
        <time>2021-10-03T09:51:32.000Z</time>
      </trkpt>
      <trkpt lat="43.64772" lon="2.33941">
        <ele>404.310799</ele>
        <time>2021-10-03T09:51:33.000Z</time>
      </trkpt>
      <trkpt lat="43.64772" lon="2.33941">
        <ele>404.263543</ele>
        <time>2021-10-03T09:51:34.000Z</time>
      </trkpt>
      <trkpt lat="43.64772" lon="2.33941">
        <ele>404.263543</ele>
        <time>2021-10-03T09:51:35.000Z</time>
      </trkpt>
      <trkpt lat="43.64756" lon="2.33916">
        <ele>401.435062</ele>
        <time>2021-10-03T09:52:29.000Z</time>
      </trkpt>
      <trkpt lat="43.64755" lon="2.33913">
        <ele>401.150806</ele>
        <time>2021-10-03T09:52:30.000Z</time>
      </trkpt>
      <trkpt lat="43.64753" lon="2.33911">
        <ele>400.915293</ele>
        <time>2021-10-03T09:52:31.000Z</time>
      </trkpt>
      <trkpt lat="43.64752" lon="2.3391">
        <ele>400.738629</ele>
        <time>2021-10-03T09:52:32.000Z</time>
      </trkpt>
      <trkpt lat="43.64752" lon="2.33909">
        <ele>400.648263</ele>
        <time>2021-10-03T09:52:33.000Z</time>
      </trkpt>
      <trkpt lat="43.64752" lon="2.33908">
        <ele>400.588424</ele>
        <time>2021-10-03T09:52:34.000Z</time>
      </trkpt>
      <trkpt lat="43.64751" lon="2.33907">
        <ele>400.481113</ele>
        <time>2021-10-03T09:52:35.000Z</time>
      </trkpt>
      <trkpt lat="43.64751" lon="2.33907">
        <ele>400.472565</ele>
        <time>2021-10-03T09:52:36.000Z</time>
      </trkpt>
      <trkpt lat="43.64751" lon="2.33907">
        <ele>400.472565</ele>
        <time>2021-10-03T09:52:37.000Z</time>
      </trkpt>
      <trkpt lat="43.64742" lon="2.33901">
        <ele>399.277718</ele>
        <time>2021-10-03T09:52:49.000Z</time>
      </trkpt>
      <trkpt lat="43.64741" lon="2.33901">
        <ele>399.165857</ele>
        <time>2021-10-03T09:52:50.000Z</time>
      </trkpt>
      <trkpt lat="43.64741" lon="2.33901">
        <ele>399.137622</ele>
        <time>2021-10-03T09:52:51.000Z</time>
      </trkpt>
      <trkpt lat="43.64741" lon="2.33901">
        <ele>399.137622</ele>
        <time>2021-10-03T09:52:52.000Z</time>
      </trkpt>
      <trkpt lat="43.64741" lon="2.33901">
        <ele>399.137622</ele>
        <time>2021-10-03T09:52:53.000Z</time>
      </trkpt>
      <trkpt lat="43.64741" lon="2.33901">
        <ele>399.137622</ele>
        <time>2021-10-03T09:52:55.000Z</time>
      </trkpt>
      <trkpt lat="43.64737" lon="2.3389">
        <ele>398.06485</ele>
        <time>2021-10-03T09:53:05.000Z</time>
      </trkpt>
      <trkpt lat="43.64736" lon="2.33888">
        <ele>397.862636</ele>
        <time>2021-10-03T09:53:06.000Z</time>
      </trkpt>
      <trkpt lat="43.64735" lon="2.33886">
        <ele>397.654626</ele>
        <time>2021-10-03T09:53:07.000Z</time>
      </trkpt>
      <trkpt lat="43.64734" lon="2.33884">
        <ele>397.488374</ele>
        <time>2021-10-03T09:53:08.000Z</time>
      </trkpt>
      <trkpt lat="43.64734" lon="2.33884">
        <ele>397.479826</ele>
        <time>2021-10-03T09:53:09.000Z</time>
      </trkpt>
      <trkpt lat="43.64734" lon="2.33884">
        <ele>397.479826</ele>
        <time>2021-10-03T09:53:11.000Z</time>
      </trkpt>
      <trkpt lat="43.64734" lon="2.33884">
        <ele>397.479826</ele>
        <time>2021-10-03T09:53:13.000Z</time>
      </trkpt>
      <trkpt lat="43.64728" lon="2.33862">
        <ele>395.47215</ele>
        <time>2021-10-03T09:53:42.000Z</time>
      </trkpt>
      <trkpt lat="43.64728" lon="2.33861">
        <ele>395.322566</ele>
        <time>2021-10-03T09:53:43.000Z</time>
      </trkpt>
      <trkpt lat="43.64728" lon="2.3386">
        <ele>395.260222</ele>
        <time>2021-10-03T09:53:44.000Z</time>
      </trkpt>
      <trkpt lat="43.64727" lon="2.3386">
        <ele>395.206456</ele>
        <time>2021-10-03T09:53:45.000Z</time>
      </trkpt>
      <trkpt lat="43.64727" lon="2.3386">
        <ele>395.206456</ele>
        <time>2021-10-03T09:53:46.000Z</time>
      </trkpt>
      <trkpt lat="43.64727" lon="2.3386">
        <ele>395.206456</ele>
        <time>2021-10-03T09:53:48.000Z</time>
      </trkpt>
      <trkpt lat="43.64721" lon="2.3385">
        <ele>394.031426</ele>
        <time>2021-10-03T09:54:32.000Z</time>
      </trkpt>
      <trkpt lat="43.64717" lon="2.33847">
        <ele>393.597159</ele>
        <time>2021-10-03T09:54:33.000Z</time>
      </trkpt>
      <trkpt lat="43.64716" lon="2.33846">
        <ele>393.402455</ele>
        <time>2021-10-03T09:54:34.000Z</time>
      </trkpt>
      <trkpt lat="43.64714" lon="2.33843">
        <ele>393.060476</ele>
        <time>2021-10-03T09:54:35.000Z</time>
      </trkpt>
      <trkpt lat="43.64712" lon="2.33841">
        <ele>392.805604</ele>
        <time>2021-10-03T09:54:36.000Z</time>
      </trkpt>
      <trkpt lat="43.6471" lon="2.3384">
        <ele>392.542753</ele>
        <time>2021-10-03T09:54:37.000Z</time>
      </trkpt>
      <trkpt lat="43.64708" lon="2.33838">
        <ele>392.270613</ele>
        <time>2021-10-03T09:54:38.000Z</time>
      </trkpt>
      <trkpt lat="43.64706" lon="2.33836">
        <ele>391.968576</ele>
        <time>2021-10-03T09:54:39.000Z</time>
      </trkpt>
      <trkpt lat="43.64704" lon="2.33834">
        <ele>391.696436</ele>
        <time>2021-10-03T09:54:40.000Z</time>
      </trkpt>
      <trkpt lat="43.64702" lon="2.33834">
        <ele>391.450462</ele>
        <time>2021-10-03T09:54:41.000Z</time>
      </trkpt>
      <trkpt lat="43.64701" lon="2.33833">
        <ele>391.257274</ele>
        <time>2021-10-03T09:54:42.000Z</time>
      </trkpt>
      <trkpt lat="43.647" lon="2.33831">
        <ele>391.082287</ele>
        <time>2021-10-03T09:54:43.000Z</time>
      </trkpt>
      <trkpt lat="43.64698" lon="2.3383">
        <ele>390.863553</ele>
        <time>2021-10-03T09:54:44.000Z</time>
      </trkpt>
      <trkpt lat="43.64697" lon="2.33828">
        <ele>390.628863</ele>
        <time>2021-10-03T09:54:45.000Z</time>
      </trkpt>
      <trkpt lat="43.64695" lon="2.33827">
        <ele>390.424106</ele>
        <time>2021-10-03T09:54:46.000Z</time>
      </trkpt>
      <trkpt lat="43.64694" lon="2.33826">
        <ele>390.276037</ele>
        <time>2021-10-03T09:54:47.000Z</time>
      </trkpt>
      <trkpt lat="43.64694" lon="2.33826">
        <ele>390.255256</ele>
        <time>2021-10-03T09:54:48.000Z</time>
      </trkpt>
      <trkpt lat="43.64693" lon="2.33826">
        <ele>390.165769</ele>
        <time>2021-10-03T09:54:49.000Z</time>
      </trkpt>
      <trkpt lat="43.64693" lon="2.33826">
        <ele>390.165769</ele>
        <time>2021-10-03T09:54:50.000Z</time>
      </trkpt>
      <trkpt lat="43.64693" lon="2.33826">
        <ele>390.165769</ele>
        <time>2021-10-03T09:54:51.000Z</time>
      </trkpt>
      <trkpt lat="43.64678" lon="2.3381">
        <ele>387.911479</ele>
        <time>2021-10-03T09:55:38.000Z</time>
      </trkpt>
      <trkpt lat="43.64677" lon="2.33808">
        <ele>387.749286</ele>
        <time>2021-10-03T09:55:39.000Z</time>
      </trkpt>
      <trkpt lat="43.64676" lon="2.33807">
        <ele>387.632627</ele>
        <time>2021-10-03T09:55:40.000Z</time>
      </trkpt>
      <trkpt lat="43.64676" lon="2.33806">
        <ele>387.513688</ele>
        <time>2021-10-03T09:55:41.000Z</time>
      </trkpt>
      <trkpt lat="43.64676" lon="2.33806">
        <ele>387.499106</ele>
        <time>2021-10-03T09:55:42.000Z</time>
      </trkpt>
      <trkpt lat="43.64676" lon="2.33806">
        <ele>387.499106</ele>
        <time>2021-10-03T09:55:43.000Z</time>
      </trkpt>
      <trkpt lat="43.64658" lon="2.33788">
        <ele>384.412442</ele>
        <time>2021-10-03T09:56:13.000Z</time>
      </trkpt>
      <trkpt lat="43.64657" lon="2.33787">
        <ele>384.280148</ele>
        <time>2021-10-03T09:56:14.000Z</time>
      </trkpt>
      <trkpt lat="43.64657" lon="2.33787">
        <ele>384.262683</ele>
        <time>2021-10-03T09:56:15.000Z</time>
      </trkpt>
      <trkpt lat="43.64657" lon="2.33787">
        <ele>384.262683</ele>
        <time>2021-10-03T09:56:17.000Z</time>
      </trkpt>
      <trkpt lat="43.64657" lon="2.33787">
        <ele>384.262683</ele>
        <time>2021-10-03T09:56:18.000Z</time>
      </trkpt>
      <trkpt lat="43.64657" lon="2.33787">
        <ele>384.262683</ele>
        <time>2021-10-03T09:56:19.000Z</time>
      </trkpt>
      <trkpt lat="43.64657" lon="2.33787">
        <ele>384.262683</ele>
        <time>2021-10-03T09:56:20.000Z</time>
      </trkpt>
      <trkpt lat="43.64657" lon="2.33787">
        <ele>384.262683</ele>
        <time>2021-10-03T09:56:21.000Z</time>
      </trkpt>
      <trkpt lat="43.64657" lon="2.33787">
        <ele>384.262683</ele>
        <time>2021-10-03T09:56:23.000Z</time>
      </trkpt>
      <trkpt lat="43.64657" lon="2.33787">
        <ele>384.262683</ele>
        <time>2021-10-03T09:56:24.000Z</time>
      </trkpt>
      <trkpt lat="43.64649" lon="2.33784">
        <ele>382.835101</ele>
        <time>2021-10-03T09:56:31.000Z</time>
      </trkpt>
      <trkpt lat="43.64647" lon="2.33784">
        <ele>382.57191</ele>
        <time>2021-10-03T09:56:32.000Z</time>
      </trkpt>
      <trkpt lat="43.64646" lon="2.33783">
        <ele>382.225014</ele>
        <time>2021-10-03T09:56:33.000Z</time>
      </trkpt>
      <trkpt lat="43.64644" lon="2.33783">
        <ele>381.878119</ele>
        <time>2021-10-03T09:56:34.000Z</time>
      </trkpt>
      <trkpt lat="43.64641" lon="2.33781">
        <ele>381.290787</ele>
        <time>2021-10-03T09:56:35.000Z</time>
      </trkpt>
      <trkpt lat="43.64637" lon="2.33778">
        <ele>380.635109</ele>
        <time>2021-10-03T09:56:36.000Z</time>
      </trkpt>
      <trkpt lat="43.64635" lon="2.33776">
        <ele>380.100085</ele>
        <time>2021-10-03T09:56:37.000Z</time>
      </trkpt>
      <trkpt lat="43.64632" lon="2.33775">
        <ele>379.608465</ele>
        <time>2021-10-03T09:56:38.000Z</time>
      </trkpt>
      <trkpt lat="43.6463" lon="2.33775">
        <ele>379.201831</ele>
        <time>2021-10-03T09:56:39.000Z</time>
      </trkpt>
      <trkpt lat="43.64628" lon="2.33774">
        <ele>378.917855</ele>
        <time>2021-10-03T09:56:40.000Z</time>
      </trkpt>
      <trkpt lat="43.64626" lon="2.33774">
        <ele>378.651047</ele>
        <time>2021-10-03T09:56:41.000Z</time>
      </trkpt>
      <trkpt lat="43.64625" lon="2.33774">
        <ele>378.435457</ele>
        <time>2021-10-03T09:56:42.000Z</time>
      </trkpt>
      <trkpt lat="43.64625" lon="2.33774">
        <ele>378.435457</ele>
        <time>2021-10-03T09:56:43.000Z</time>
      </trkpt>
      <trkpt lat="43.64625" lon="2.33774">
        <ele>378.435457</ele>
        <time>2021-10-03T09:56:44.000Z</time>
      </trkpt>
      <trkpt lat="43.64625" lon="2.33774">
        <ele>378.435457</ele>
        <time>2021-10-03T09:56:45.000Z</time>
      </trkpt>
      <trkpt lat="43.64625" lon="2.33774">
        <ele>378.435457</ele>
        <time>2021-10-03T09:56:46.000Z</time>
      </trkpt>
      <trkpt lat="43.64619" lon="2.3377">
        <ele>377.277011</ele>
        <time>2021-10-03T09:56:47.000Z</time>
      </trkpt>
      <trkpt lat="43.64617" lon="2.33768">
        <ele>376.909907</ele>
        <time>2021-10-03T09:56:48.000Z</time>
      </trkpt>
      <trkpt lat="43.64616" lon="2.33767">
        <ele>376.54958</ele>
        <time>2021-10-03T09:56:49.000Z</time>
      </trkpt>
      <trkpt lat="43.64614" lon="2.33764">
        <ele>376.035706</ele>
        <time>2021-10-03T09:56:50.000Z</time>
      </trkpt>
      <trkpt lat="43.64611" lon="2.33762">
        <ele>375.475026</ele>
        <time>2021-10-03T09:56:51.000Z</time>
      </trkpt>
      <trkpt lat="43.64608" lon="2.33761">
        <ele>374.936049</ele>
        <time>2021-10-03T09:56:52.000Z</time>
      </trkpt>
      <trkpt lat="43.64604" lon="2.3376">
        <ele>374.338887</ele>
        <time>2021-10-03T09:56:53.000Z</time>
      </trkpt>
      <trkpt lat="43.64602" lon="2.33759">
        <ele>373.856615</ele>
        <time>2021-10-03T09:56:54.000Z</time>
      </trkpt>
      <trkpt lat="43.64598" lon="2.33759">
        <ele>373.262267</ele>
        <time>2021-10-03T09:56:55.000Z</time>
      </trkpt>
      <trkpt lat="43.64595" lon="2.33758">
        <ele>372.646148</ele>
        <time>2021-10-03T09:56:56.000Z</time>
      </trkpt>
      <trkpt lat="43.64591" lon="2.33757">
        <ele>371.968074</ele>
        <time>2021-10-03T09:56:57.000Z</time>
      </trkpt>
      <trkpt lat="43.64588" lon="2.33755">
        <ele>371.36467</ele>
        <time>2021-10-03T09:56:58.000Z</time>
      </trkpt>
      <trkpt lat="43.64585" lon="2.33752">
        <ele>370.796662</ele>
        <time>2021-10-03T09:56:59.000Z</time>
      </trkpt>
      <trkpt lat="43.64583" lon="2.3375">
        <ele>370.221915</ele>
        <time>2021-10-03T09:57:00.000Z</time>
      </trkpt>
      <trkpt lat="43.6458" lon="2.33747">
        <ele>369.680804</ele>
        <time>2021-10-03T09:57:01.000Z</time>
      </trkpt>
      <trkpt lat="43.64578" lon="2.33745">
        <ele>369.184971</ele>
        <time>2021-10-03T09:57:02.000Z</time>
      </trkpt>
      <trkpt lat="43.64576" lon="2.33742">
        <ele>368.690563</ele>
        <time>2021-10-03T09:57:03.000Z</time>
      </trkpt>
      <trkpt lat="43.64574" lon="2.3374">
        <ele>368.305176</ele>
        <time>2021-10-03T09:57:04.000Z</time>
      </trkpt>
      <trkpt lat="43.64572" lon="2.33738">
        <ele>367.864033</ele>
        <time>2021-10-03T09:57:05.000Z</time>
      </trkpt>
      <trkpt lat="43.64571" lon="2.33737">
        <ele>367.619272</ele>
        <time>2021-10-03T09:57:06.000Z</time>
      </trkpt>
      <trkpt lat="43.64569" lon="2.33734">
        <ele>367.186353</ele>
        <time>2021-10-03T09:57:07.000Z</time>
      </trkpt>
      <trkpt lat="43.64567" lon="2.33732">
        <ele>366.688901</ele>
        <time>2021-10-03T09:57:08.000Z</time>
      </trkpt>
      <trkpt lat="43.64565" lon="2.3373">
        <ele>366.199429</ele>
        <time>2021-10-03T09:57:09.000Z</time>
      </trkpt>
      <trkpt lat="43.64563" lon="2.33728">
        <ele>365.810838</ele>
        <time>2021-10-03T09:57:10.000Z</time>
      </trkpt>
      <trkpt lat="43.64561" lon="2.33726">
        <ele>365.350924</ele>
        <time>2021-10-03T09:57:11.000Z</time>
      </trkpt>
      <trkpt lat="43.64559" lon="2.33725">
        <ele>365.03834</ele>
        <time>2021-10-03T09:57:12.000Z</time>
      </trkpt>
      <trkpt lat="43.64558" lon="2.33723">
        <ele>364.665421</ele>
        <time>2021-10-03T09:57:13.000Z</time>
      </trkpt>
      <trkpt lat="43.64556" lon="2.3372">
        <ele>364.283406</ele>
        <time>2021-10-03T09:57:14.000Z</time>
      </trkpt>
      <trkpt lat="43.64555" lon="2.33718">
        <ele>363.928032</ele>
        <time>2021-10-03T09:57:15.000Z</time>
      </trkpt>
      <trkpt lat="43.64553" lon="2.33716">
        <ele>363.546017</ele>
        <time>2021-10-03T09:57:16.000Z</time>
      </trkpt>
      <trkpt lat="43.64552" lon="2.33714">
        <ele>363.104968</ele>
        <time>2021-10-03T09:57:17.000Z</time>
      </trkpt>
      <trkpt lat="43.64551" lon="2.33711">
        <ele>362.736243</ele>
        <time>2021-10-03T09:57:18.000Z</time>
      </trkpt>
      <trkpt lat="43.6455" lon="2.33708">
        <ele>362.322439</ele>
        <time>2021-10-03T09:57:19.000Z</time>
      </trkpt>
      <trkpt lat="43.6455" lon="2.33705">
        <ele>361.989697</ele>
        <time>2021-10-03T09:57:20.000Z</time>
      </trkpt>
      <trkpt lat="43.6455" lon="2.33703">
        <ele>361.673745</ele>
        <time>2021-10-03T09:57:21.000Z</time>
      </trkpt>
      <trkpt lat="43.6455" lon="2.337">
        <ele>361.353477</ele>
        <time>2021-10-03T09:57:22.000Z</time>
      </trkpt>
      <trkpt lat="43.64549" lon="2.33699">
        <ele>361.127557</ele>
        <time>2021-10-03T09:57:23.000Z</time>
      </trkpt>
      <trkpt lat="43.64549" lon="2.33697">
        <ele>360.901637</ele>
        <time>2021-10-03T09:57:24.000Z</time>
      </trkpt>
      <trkpt lat="43.64548" lon="2.33694">
        <ele>360.46703</ele>
        <time>2021-10-03T09:57:25.000Z</time>
      </trkpt>
      <trkpt lat="43.64548" lon="2.3369">
        <ele>360.053291</ele>
        <time>2021-10-03T09:57:26.000Z</time>
      </trkpt>
      <trkpt lat="43.64547" lon="2.33688">
        <ele>359.745484</ele>
        <time>2021-10-03T09:57:27.000Z</time>
      </trkpt>
      <trkpt lat="43.64546" lon="2.33685">
        <ele>359.263627</ele>
        <time>2021-10-03T09:57:28.000Z</time>
      </trkpt>
      <trkpt lat="43.64545" lon="2.33682">
        <ele>358.863177</ele>
        <time>2021-10-03T09:57:29.000Z</time>
      </trkpt>
      <trkpt lat="43.64544" lon="2.3368">
        <ele>358.482545</ele>
        <time>2021-10-03T09:57:30.000Z</time>
      </trkpt>
      <trkpt lat="43.64543" lon="2.33677">
        <ele>358.113819</ele>
        <time>2021-10-03T09:57:31.000Z</time>
      </trkpt>
      <trkpt lat="43.64542" lon="2.33675">
        <ele>357.816064</ele>
        <time>2021-10-03T09:57:32.000Z</time>
      </trkpt>
      <trkpt lat="43.6454" lon="2.33673">
        <ele>357.420749</ele>
        <time>2021-10-03T09:57:33.000Z</time>
      </trkpt>
      <trkpt lat="43.64537" lon="2.33672">
        <ele>356.884249</ele>
        <time>2021-10-03T09:57:34.000Z</time>
      </trkpt>
      <trkpt lat="43.64534" lon="2.33671">
        <ele>356.388906</ele>
        <time>2021-10-03T09:57:35.000Z</time>
      </trkpt>
      <trkpt lat="43.64531" lon="2.3367">
        <ele>355.832936</ele>
        <time>2021-10-03T09:57:36.000Z</time>
      </trkpt>
      <trkpt lat="43.64528" lon="2.33669">
        <ele>355.29932</ele>
        <time>2021-10-03T09:57:37.000Z</time>
      </trkpt>
      <trkpt lat="43.64526" lon="2.33668">
        <ele>354.865002</ele>
        <time>2021-10-03T09:57:38.000Z</time>
      </trkpt>
      <trkpt lat="43.64523" lon="2.33667">
        <ele>354.443895</ele>
        <time>2021-10-03T09:57:39.000Z</time>
      </trkpt>
      <trkpt lat="43.64522" lon="2.33665">
        <ele>354.311288</ele>
        <time>2021-10-03T09:57:40.000Z</time>
      </trkpt>
      <trkpt lat="43.64519" lon="2.33662">
        <ele>354.233632</ele>
        <time>2021-10-03T09:57:41.000Z</time>
      </trkpt>
      <trkpt lat="43.64516" lon="2.33659">
        <ele>354.137491</ele>
        <time>2021-10-03T09:57:42.000Z</time>
      </trkpt>
      <trkpt lat="43.64514" lon="2.33656">
        <ele>354.061667</ele>
        <time>2021-10-03T09:57:43.000Z</time>
      </trkpt>
      <trkpt lat="43.64511" lon="2.33653">
        <ele>353.971716</ele>
        <time>2021-10-03T09:57:44.000Z</time>
      </trkpt>
      <trkpt lat="43.64508" lon="2.33651">
        <ele>353.889032</ele>
        <time>2021-10-03T09:57:45.000Z</time>
      </trkpt>
      <trkpt lat="43.64506" lon="2.33648">
        <ele>353.821849</ele>
        <time>2021-10-03T09:57:46.000Z</time>
      </trkpt>
      <trkpt lat="43.64504" lon="2.33646">
        <ele>353.753573</ele>
        <time>2021-10-03T09:57:47.000Z</time>
      </trkpt>
      <trkpt lat="43.64502" lon="2.33644">
        <ele>353.695567</ele>
        <time>2021-10-03T09:57:48.000Z</time>
      </trkpt>
      <trkpt lat="43.64501" lon="2.33641">
        <ele>353.618894</ele>
        <time>2021-10-03T09:57:49.000Z</time>
      </trkpt>
      <trkpt lat="43.64499" lon="2.33638">
        <ele>353.549105</ele>
        <time>2021-10-03T09:57:50.000Z</time>
      </trkpt>
      <trkpt lat="43.64496" lon="2.33634">
        <ele>353.457908</ele>
        <time>2021-10-03T09:57:51.000Z</time>
      </trkpt>
      <trkpt lat="43.64494" lon="2.33632">
        <ele>353.388918</ele>
        <time>2021-10-03T09:57:52.000Z</time>
      </trkpt>
      <trkpt lat="43.64493" lon="2.33629">
        <ele>353.333961</ele>
        <time>2021-10-03T09:57:53.000Z</time>
      </trkpt>
      <trkpt lat="43.64491" lon="2.33627">
        <ele>353.277666</ele>
        <time>2021-10-03T09:57:54.000Z</time>
      </trkpt>
      <trkpt lat="43.64489" lon="2.33625">
        <ele>353.215613</ele>
        <time>2021-10-03T09:57:55.000Z</time>
      </trkpt>
      <trkpt lat="43.64488" lon="2.33621">
        <ele>353.144759</ele>
        <time>2021-10-03T09:57:56.000Z</time>
      </trkpt>
      <trkpt lat="43.64486" lon="2.33618">
        <ele>353.072496</ele>
        <time>2021-10-03T09:57:57.000Z</time>
      </trkpt>
      <trkpt lat="43.64484" lon="2.33615">
        <ele>352.994234</ele>
        <time>2021-10-03T09:57:58.000Z</time>
      </trkpt>
      <trkpt lat="43.64482" lon="2.33612">
        <ele>352.927051</ele>
        <time>2021-10-03T09:57:59.000Z</time>
      </trkpt>
      <trkpt lat="43.6448" lon="2.33609">
        <ele>352.842761</ele>
        <time>2021-10-03T09:58:00.000Z</time>
      </trkpt>
      <trkpt lat="43.64478" lon="2.33605">
        <ele>352.77054</ele>
        <time>2021-10-03T09:58:01.000Z</time>
      </trkpt>
      <trkpt lat="43.64476" lon="2.33601">
        <ele>352.679192</ele>
        <time>2021-10-03T09:58:02.000Z</time>
      </trkpt>
      <trkpt lat="43.64474" lon="2.33598">
        <ele>352.595225</ele>
        <time>2021-10-03T09:58:03.000Z</time>
      </trkpt>
      <trkpt lat="43.64472" lon="2.33593">
        <ele>352.490528</ele>
        <time>2021-10-03T09:58:04.000Z</time>
      </trkpt>
      <trkpt lat="43.64469" lon="2.33589">
        <ele>352.386414</ele>
        <time>2021-10-03T09:58:05.000Z</time>
      </trkpt>
      <trkpt lat="43.64466" lon="2.33587">
        <ele>352.308186</ele>
        <time>2021-10-03T09:58:06.000Z</time>
      </trkpt>
      <trkpt lat="43.64464" lon="2.33583">
        <ele>352.215297</ele>
        <time>2021-10-03T09:58:07.000Z</time>
      </trkpt>
      <trkpt lat="43.64462" lon="2.33579">
        <ele>352.129338</ele>
        <time>2021-10-03T09:58:08.000Z</time>
      </trkpt>
      <trkpt lat="43.64459" lon="2.33576">
        <ele>352.044235</ele>
        <time>2021-10-03T09:58:09.000Z</time>
      </trkpt>
      <trkpt lat="43.64456" lon="2.33573">
        <ele>351.951222</ele>
        <time>2021-10-03T09:58:10.000Z</time>
      </trkpt>
      <trkpt lat="43.64453" lon="2.33569">
        <ele>351.85374</ele>
        <time>2021-10-03T09:58:11.000Z</time>
      </trkpt>
      <trkpt lat="43.6445" lon="2.33565">
        <ele>351.737939</ele>
        <time>2021-10-03T09:58:12.000Z</time>
      </trkpt>
      <trkpt lat="43.64447" lon="2.33561">
        <ele>351.631417</ele>
        <time>2021-10-03T09:58:13.000Z</time>
      </trkpt>
      <trkpt lat="43.64443" lon="2.33557">
        <ele>351.514951</ele>
        <time>2021-10-03T09:58:14.000Z</time>
      </trkpt>
      <trkpt lat="43.64439" lon="2.33553">
        <ele>351.398156</ele>
        <time>2021-10-03T09:58:15.000Z</time>
      </trkpt>
      <trkpt lat="43.64436" lon="2.33551">
        <ele>351.297769</ele>
        <time>2021-10-03T09:58:16.000Z</time>
      </trkpt>
      <trkpt lat="43.64432" lon="2.33548">
        <ele>351.1996</ele>
        <time>2021-10-03T09:58:17.000Z</time>
      </trkpt>
      <trkpt lat="43.6443" lon="2.33545">
        <ele>351.113681</ele>
        <time>2021-10-03T09:58:18.000Z</time>
      </trkpt>
      <trkpt lat="43.64427" lon="2.33543">
        <ele>351.041268</ele>
        <time>2021-10-03T09:58:19.000Z</time>
      </trkpt>
      <trkpt lat="43.64426" lon="2.33541">
        <ele>350.984558</ele>
        <time>2021-10-03T09:58:20.000Z</time>
      </trkpt>
      <trkpt lat="43.64424" lon="2.33539">
        <ele>350.926527</ele>
        <time>2021-10-03T09:58:21.000Z</time>
      </trkpt>
      <trkpt lat="43.64422" lon="2.33537">
        <ele>350.87469</ele>
        <time>2021-10-03T09:58:22.000Z</time>
      </trkpt>
      <trkpt lat="43.64421" lon="2.33535">
        <ele>350.831511</ele>
        <time>2021-10-03T09:58:23.000Z</time>
      </trkpt>
      <trkpt lat="43.64421" lon="2.33535">
        <ele>350.829693</ele>
        <time>2021-10-03T09:58:24.000Z</time>
      </trkpt>
      <trkpt lat="43.64411" lon="2.33519">
        <ele>350.4497</ele>
        <time>2021-10-03T09:58:41.000Z</time>
      </trkpt>
      <trkpt lat="43.6441" lon="2.33517">
        <ele>350.404934</ele>
        <time>2021-10-03T09:58:42.000Z</time>
      </trkpt>
      <trkpt lat="43.6441" lon="2.33514">
        <ele>350.352788</ele>
        <time>2021-10-03T09:58:43.000Z</time>
      </trkpt>
      <trkpt lat="43.64409" lon="2.33512">
        <ele>350.30142</ele>
        <time>2021-10-03T09:58:44.000Z</time>
      </trkpt>
      <trkpt lat="43.64408" lon="2.33509">
        <ele>350.245838</ele>
        <time>2021-10-03T09:58:45.000Z</time>
      </trkpt>
      <trkpt lat="43.64407" lon="2.33506">
        <ele>350.181917</ele>
        <time>2021-10-03T09:58:46.000Z</time>
      </trkpt>
      <trkpt lat="43.64406" lon="2.33502">
        <ele>350.109189</ele>
        <time>2021-10-03T09:58:47.000Z</time>
      </trkpt>
      <trkpt lat="43.64404" lon="2.33498">
        <ele>350.023518</ele>
        <time>2021-10-03T09:58:48.000Z</time>
      </trkpt>
      <trkpt lat="43.64402" lon="2.33495">
        <ele>349.940999</ele>
        <time>2021-10-03T09:58:49.000Z</time>
      </trkpt>
      <trkpt lat="43.64399" lon="2.33491">
        <ele>349.846679</ele>
        <time>2021-10-03T09:58:50.000Z</time>
      </trkpt>
      <trkpt lat="43.64398" lon="2.33486">
        <ele>349.749999</ele>
        <time>2021-10-03T09:58:51.000Z</time>
      </trkpt>
      <trkpt lat="43.64396" lon="2.33482">
        <ele>349.654777</ele>
        <time>2021-10-03T09:58:52.000Z</time>
      </trkpt>
      <trkpt lat="43.64393" lon="2.33478">
        <ele>349.55982</ele>
        <time>2021-10-03T09:58:53.000Z</time>
      </trkpt>
      <trkpt lat="43.64391" lon="2.33475">
        <ele>349.478466</ele>
        <time>2021-10-03T09:58:54.000Z</time>
      </trkpt>
      <trkpt lat="43.64389" lon="2.33472">
        <ele>349.403551</ele>
        <time>2021-10-03T09:58:55.000Z</time>
      </trkpt>
      <trkpt lat="43.64387" lon="2.3347">
        <ele>349.328332</ele>
        <time>2021-10-03T09:58:56.000Z</time>
      </trkpt>
      <trkpt lat="43.64384" lon="2.33468">
        <ele>349.242142</ele>
        <time>2021-10-03T09:58:57.000Z</time>
      </trkpt>
      <trkpt lat="43.64381" lon="2.33466">
        <ele>349.149337</ele>
        <time>2021-10-03T09:58:58.000Z</time>
      </trkpt>
      <trkpt lat="43.64377" lon="2.33463">
        <ele>349.039416</ele>
        <time>2021-10-03T09:58:59.000Z</time>
      </trkpt>
      <trkpt lat="43.64373" lon="2.3346">
        <ele>348.926942</ele>
        <time>2021-10-03T09:59:00.000Z</time>
      </trkpt>
      <trkpt lat="43.64369" lon="2.33457">
        <ele>348.806647</ele>
        <time>2021-10-03T09:59:01.000Z</time>
      </trkpt>
      <trkpt lat="43.64365" lon="2.33455">
        <ele>348.685527</ele>
        <time>2021-10-03T09:59:02.000Z</time>
      </trkpt>
      <trkpt lat="43.64361" lon="2.33452">
        <ele>348.564544</ele>
        <time>2021-10-03T09:59:03.000Z</time>
      </trkpt>
      <trkpt lat="43.64357" lon="2.33449">
        <ele>348.449529</ele>
        <time>2021-10-03T09:59:04.000Z</time>
      </trkpt>
      <trkpt lat="43.64354" lon="2.33446">
        <ele>348.349584</ele>
        <time>2021-10-03T09:59:05.000Z</time>
      </trkpt>
      <trkpt lat="43.6435" lon="2.33443">
        <ele>348.250371</ele>
        <time>2021-10-03T09:59:06.000Z</time>
      </trkpt>
      <trkpt lat="43.64347" lon="2.33442">
        <ele>348.148128</ele>
        <time>2021-10-03T09:59:07.000Z</time>
      </trkpt>
      <trkpt lat="43.64343" lon="2.33442">
        <ele>348.064466</ele>
        <time>2021-10-03T09:59:08.000Z</time>
      </trkpt>
      <trkpt lat="43.6434" lon="2.33444">
        <ele>347.97125</ele>
        <time>2021-10-03T09:59:09.000Z</time>
      </trkpt>
      <trkpt lat="43.64337" lon="2.33446">
        <ele>347.875464</ele>
        <time>2021-10-03T09:59:10.000Z</time>
      </trkpt>
      <trkpt lat="43.64333" lon="2.33448">
        <ele>347.767859</ele>
        <time>2021-10-03T09:59:11.000Z</time>
      </trkpt>
      <trkpt lat="43.64329" lon="2.33449">
        <ele>347.665145</ele>
        <time>2021-10-03T09:59:12.000Z</time>
      </trkpt>
      <trkpt lat="43.64326" lon="2.3345">
        <ele>347.571399</ele>
        <time>2021-10-03T09:59:13.000Z</time>
      </trkpt>
      <trkpt lat="43.64322" lon="2.33452">
        <ele>347.480197</ele>
        <time>2021-10-03T09:59:14.000Z</time>
      </trkpt>
      <trkpt lat="43.64319" lon="2.33452">
        <ele>347.397833</ele>
        <time>2021-10-03T09:59:15.000Z</time>
      </trkpt>
      <trkpt lat="43.64316" lon="2.33453">
        <ele>347.324314</ele>
        <time>2021-10-03T09:59:16.000Z</time>
      </trkpt>
      <trkpt lat="43.64314" lon="2.33455">
        <ele>347.252721</ele>
        <time>2021-10-03T09:59:17.000Z</time>
      </trkpt>
      <trkpt lat="43.64311" lon="2.33455">
        <ele>347.170682</ele>
        <time>2021-10-03T09:59:18.000Z</time>
      </trkpt>
      <trkpt lat="43.64308" lon="2.33456">
        <ele>347.092125</ele>
        <time>2021-10-03T09:59:19.000Z</time>
      </trkpt>
      <trkpt lat="43.64305" lon="2.33455">
        <ele>347.021203</ele>
        <time>2021-10-03T09:59:20.000Z</time>
      </trkpt>
      <trkpt lat="43.64302" lon="2.33454">
        <ele>346.935418</ele>
        <time>2021-10-03T09:59:21.000Z</time>
      </trkpt>
      <trkpt lat="43.64299" lon="2.33451">
        <ele>346.850475</ele>
        <time>2021-10-03T09:59:22.000Z</time>
      </trkpt>
      <trkpt lat="43.64297" lon="2.33447">
        <ele>346.761668</ele>
        <time>2021-10-03T09:59:23.000Z</time>
      </trkpt>
      <trkpt lat="43.64295" lon="2.33442">
        <ele>346.6566</ele>
        <time>2021-10-03T09:59:24.000Z</time>
      </trkpt>
      <trkpt lat="43.64294" lon="2.33437">
        <ele>346.553443</ele>
        <time>2021-10-03T09:59:25.000Z</time>
      </trkpt>
      <trkpt lat="43.64293" lon="2.33433">
        <ele>346.459803</ele>
        <time>2021-10-03T09:59:26.000Z</time>
      </trkpt>
      <trkpt lat="43.64291" lon="2.33428">
        <ele>346.362717</ele>
        <time>2021-10-03T09:59:27.000Z</time>
      </trkpt>
      <trkpt lat="43.6429" lon="2.33422">
        <ele>346.248084</ele>
        <time>2021-10-03T09:59:28.000Z</time>
      </trkpt>
      <trkpt lat="43.64288" lon="2.33417">
        <ele>346.134598</ele>
        <time>2021-10-03T09:59:29.000Z</time>
      </trkpt>
      <trkpt lat="43.64286" lon="2.33412">
        <ele>346.0245</ele>
        <time>2021-10-03T09:59:30.000Z</time>
      </trkpt>
      <trkpt lat="43.64285" lon="2.33406">
        <ele>345.910486</ele>
        <time>2021-10-03T09:59:31.000Z</time>
      </trkpt>
      <trkpt lat="43.64283" lon="2.334">
        <ele>345.795853</ele>
        <time>2021-10-03T09:59:32.000Z</time>
      </trkpt>
      <trkpt lat="43.64282" lon="2.33394">
        <ele>345.680021</ele>
        <time>2021-10-03T09:59:33.000Z</time>
      </trkpt>
      <trkpt lat="43.6428" lon="2.33389">
        <ele>345.567162</ele>
        <time>2021-10-03T09:59:34.000Z</time>
      </trkpt>
      <trkpt lat="43.64279" lon="2.33383">
        <ele>345.464005</ele>
        <time>2021-10-03T09:59:35.000Z</time>
      </trkpt>
      <trkpt lat="43.64278" lon="2.33379">
        <ele>345.366192</ele>
        <time>2021-10-03T09:59:36.000Z</time>
      </trkpt>
      <trkpt lat="43.64277" lon="2.33374">
        <ele>345.27021</ele>
        <time>2021-10-03T09:59:37.000Z</time>
      </trkpt>
      <trkpt lat="43.64275" lon="2.33369">
        <ele>345.172439</ele>
        <time>2021-10-03T09:59:38.000Z</time>
      </trkpt>
      <trkpt lat="43.64275" lon="2.33364">
        <ele>345.045485</ele>
        <time>2021-10-03T09:59:39.000Z</time>
      </trkpt>
      <trkpt lat="43.64274" lon="2.3336">
        <ele>344.899855</ele>
        <time>2021-10-03T09:59:40.000Z</time>
      </trkpt>
      <trkpt lat="43.64273" lon="2.33356">
        <ele>344.768911</ele>
        <time>2021-10-03T09:59:41.000Z</time>
      </trkpt>
      <trkpt lat="43.64272" lon="2.33351">
        <ele>344.612996</ele>
        <time>2021-10-03T09:59:42.000Z</time>
      </trkpt>
      <trkpt lat="43.64271" lon="2.33346">
        <ele>344.446294</ele>
        <time>2021-10-03T09:59:43.000Z</time>
      </trkpt>
      <trkpt lat="43.6427" lon="2.33341">
        <ele>344.289153</ele>
        <time>2021-10-03T09:59:44.000Z</time>
      </trkpt>
      <trkpt lat="43.64269" lon="2.33336">
        <ele>344.127255</ele>
        <time>2021-10-03T09:59:45.000Z</time>
      </trkpt>
      <trkpt lat="43.64268" lon="2.33331">
        <ele>343.96246</ele>
        <time>2021-10-03T09:59:46.000Z</time>
      </trkpt>
      <trkpt lat="43.64267" lon="2.33326">
        <ele>343.798869</ele>
        <time>2021-10-03T09:59:47.000Z</time>
      </trkpt>
      <trkpt lat="43.64267" lon="2.33321">
        <ele>343.638675</ele>
        <time>2021-10-03T09:59:48.000Z</time>
      </trkpt>
      <trkpt lat="43.64266" lon="2.33316">
        <ele>343.466188</ele>
        <time>2021-10-03T09:59:49.000Z</time>
      </trkpt>
      <trkpt lat="43.64264" lon="2.3331">
        <ele>343.290692</ele>
        <time>2021-10-03T09:59:50.000Z</time>
      </trkpt>
      <trkpt lat="43.64264" lon="2.33305">
        <ele>343.121322</ele>
        <time>2021-10-03T09:59:51.000Z</time>
      </trkpt>
      <trkpt lat="43.64262" lon="2.333">
        <ele>342.937449</ele>
        <time>2021-10-03T09:59:52.000Z</time>
      </trkpt>
      <trkpt lat="43.64261" lon="2.33294">
        <ele>342.748735</ele>
        <time>2021-10-03T09:59:53.000Z</time>
      </trkpt>
      <trkpt lat="43.6426" lon="2.33288">
        <ele>342.548638</ele>
        <time>2021-10-03T09:59:54.000Z</time>
      </trkpt>
      <trkpt lat="43.64259" lon="2.33282">
        <ele>342.351421</ele>
        <time>2021-10-03T09:59:55.000Z</time>
      </trkpt>
      <trkpt lat="43.64256" lon="2.33275">
        <ele>342.133463</ele>
        <time>2021-10-03T09:59:56.000Z</time>
      </trkpt>
      <trkpt lat="43.64255" lon="2.3327">
        <ele>341.942805</ele>
        <time>2021-10-03T09:59:57.000Z</time>
      </trkpt>
      <trkpt lat="43.64253" lon="2.33264">
        <ele>341.742765</ele>
        <time>2021-10-03T09:59:58.000Z</time>
      </trkpt>
      <trkpt lat="43.64251" lon="2.33259">
        <ele>341.559611</ele>
        <time>2021-10-03T09:59:59.000Z</time>
      </trkpt>
      <trkpt lat="43.64249" lon="2.33253">
        <ele>341.375388</ele>
        <time>2021-10-03T10:00:00.000Z</time>
      </trkpt>
      <trkpt lat="43.64248" lon="2.33249">
        <ele>341.228867</ele>
        <time>2021-10-03T10:00:01.000Z</time>
      </trkpt>
      <trkpt lat="43.64246" lon="2.33245">
        <ele>341.073916</ele>
        <time>2021-10-03T10:00:02.000Z</time>
      </trkpt>
      <trkpt lat="43.64244" lon="2.33241">
        <ele>340.926839</ele>
        <time>2021-10-03T10:00:03.000Z</time>
      </trkpt>
      <trkpt lat="43.64242" lon="2.33237">
        <ele>340.796884</ele>
        <time>2021-10-03T10:00:04.000Z</time>
      </trkpt>
      <trkpt lat="43.64241" lon="2.33235">
        <ele>340.685274</ele>
        <time>2021-10-03T10:00:05.000Z</time>
      </trkpt>
      <trkpt lat="43.64239" lon="2.33232">
        <ele>340.588413</ele>
        <time>2021-10-03T10:00:06.000Z</time>
      </trkpt>
      <trkpt lat="43.64237" lon="2.3323">
        <ele>340.465281</ele>
        <time>2021-10-03T10:00:07.000Z</time>
      </trkpt>
      <trkpt lat="43.64235" lon="2.33227">
        <ele>340.356109</ele>
        <time>2021-10-03T10:00:08.000Z</time>
      </trkpt>
      <trkpt lat="43.64234" lon="2.33225">
        <ele>340.240514</ele>
        <time>2021-10-03T10:00:09.000Z</time>
      </trkpt>
      <trkpt lat="43.64232" lon="2.33223">
        <ele>340.137262</ele>
        <time>2021-10-03T10:00:10.000Z</time>
      </trkpt>
      <trkpt lat="43.6423" lon="2.3322">
        <ele>340.035177</ele>
        <time>2021-10-03T10:00:11.000Z</time>
      </trkpt>
      <trkpt lat="43.64229" lon="2.33218">
        <ele>339.933583</ele>
        <time>2021-10-03T10:00:12.000Z</time>
      </trkpt>
      <trkpt lat="43.64227" lon="2.33215">
        <ele>339.847337</ele>
        <time>2021-10-03T10:00:13.000Z</time>
      </trkpt>
      <trkpt lat="43.64226" lon="2.33213">
        <ele>339.758634</ele>
        <time>2021-10-03T10:00:14.000Z</time>
      </trkpt>
      <trkpt lat="43.64225" lon="2.3321">
        <ele>339.667362</ele>
        <time>2021-10-03T10:00:15.000Z</time>
      </trkpt>
      <trkpt lat="43.64225" lon="2.33207">
        <ele>339.565771</ele>
        <time>2021-10-03T10:00:16.000Z</time>
      </trkpt>
      <trkpt lat="43.64224" lon="2.33204">
        <ele>339.44796</ele>
        <time>2021-10-03T10:00:17.000Z</time>
      </trkpt>
      <trkpt lat="43.64223" lon="2.332">
        <ele>339.330148</ele>
        <time>2021-10-03T10:00:18.000Z</time>
      </trkpt>
      <trkpt lat="43.64222" lon="2.33196">
        <ele>339.196283</ele>
        <time>2021-10-03T10:00:19.000Z</time>
      </trkpt>
      <trkpt lat="43.64221" lon="2.33192">
        <ele>339.058115</ele>
        <time>2021-10-03T10:00:20.000Z</time>
      </trkpt>
      <trkpt lat="43.6422" lon="2.33188">
        <ele>338.925271</ele>
        <time>2021-10-03T10:00:21.000Z</time>
      </trkpt>
      <trkpt lat="43.64219" lon="2.33184">
        <ele>338.782594</ele>
        <time>2021-10-03T10:00:22.000Z</time>
      </trkpt>
      <trkpt lat="43.64217" lon="2.3318">
        <ele>338.661434</ele>
        <time>2021-10-03T10:00:23.000Z</time>
      </trkpt>
      <trkpt lat="43.64216" lon="2.33177">
        <ele>338.536297</ele>
        <time>2021-10-03T10:00:24.000Z</time>
      </trkpt>
      <trkpt lat="43.64215" lon="2.33173">
        <ele>338.405351</ele>
        <time>2021-10-03T10:00:25.000Z</time>
      </trkpt>
      <trkpt lat="43.64214" lon="2.33168">
        <ele>338.26409</ele>
        <time>2021-10-03T10:00:26.000Z</time>
      </trkpt>
      <trkpt lat="43.64213" lon="2.33165">
        <ele>338.140283</ele>
        <time>2021-10-03T10:00:27.000Z</time>
      </trkpt>
      <trkpt lat="43.64212" lon="2.33161">
        <ele>338.009337</ele>
        <time>2021-10-03T10:00:28.000Z</time>
      </trkpt>
      <trkpt lat="43.64212" lon="2.33157">
        <ele>337.898487</ele>
        <time>2021-10-03T10:00:29.000Z</time>
      </trkpt>
      <trkpt lat="43.64211" lon="2.33154">
        <ele>337.783662</ele>
        <time>2021-10-03T10:00:30.000Z</time>
      </trkpt>
      <trkpt lat="43.6421" lon="2.33151">
        <ele>337.688026</ele>
        <time>2021-10-03T10:00:31.000Z</time>
      </trkpt>
      <trkpt lat="43.64209" lon="2.33148">
        <ele>337.593852</ele>
        <time>2021-10-03T10:00:32.000Z</time>
      </trkpt>
      <trkpt lat="43.64208" lon="2.33145">
        <ele>337.485841</ele>
        <time>2021-10-03T10:00:33.000Z</time>
      </trkpt>
      <trkpt lat="43.64207" lon="2.33142">
        <ele>337.374327</ele>
        <time>2021-10-03T10:00:34.000Z</time>
      </trkpt>
      <trkpt lat="43.64205" lon="2.33139">
        <ele>337.290216</ele>
        <time>2021-10-03T10:00:35.000Z</time>
      </trkpt>
      <trkpt lat="43.64204" lon="2.33137">
        <ele>337.210736</ele>
        <time>2021-10-03T10:00:36.000Z</time>
      </trkpt>
      <trkpt lat="43.64203" lon="2.33135">
        <ele>337.147053</ele>
        <time>2021-10-03T10:00:37.000Z</time>
      </trkpt>
      <trkpt lat="43.64201" lon="2.33132">
        <ele>337.081444</ele>
        <time>2021-10-03T10:00:38.000Z</time>
      </trkpt>
      <trkpt lat="43.642" lon="2.3313">
        <ele>337.015788</ele>
        <time>2021-10-03T10:00:39.000Z</time>
      </trkpt>
      <trkpt lat="43.64199" lon="2.33128">
        <ele>336.940266</ele>
        <time>2021-10-03T10:00:40.000Z</time>
      </trkpt>
      <trkpt lat="43.64197" lon="2.33126">
        <ele>336.872369</ele>
        <time>2021-10-03T10:00:41.000Z</time>
      </trkpt>
      <trkpt lat="43.64196" lon="2.33124">
        <ele>336.812544</ele>
        <time>2021-10-03T10:00:42.000Z</time>
      </trkpt>
      <trkpt lat="43.64195" lon="2.33122">
        <ele>336.743948</ele>
        <time>2021-10-03T10:00:43.000Z</time>
      </trkpt>
      <trkpt lat="43.64194" lon="2.3312">
        <ele>336.689526</ele>
        <time>2021-10-03T10:00:44.000Z</time>
      </trkpt>
      <trkpt lat="43.64193" lon="2.33118">
        <ele>336.622</ele>
        <time>2021-10-03T10:00:45.000Z</time>
      </trkpt>
      <trkpt lat="43.64192" lon="2.33115">
        <ele>336.558161</ele>
        <time>2021-10-03T10:00:46.000Z</time>
      </trkpt>
      <trkpt lat="43.64191" lon="2.33112">
        <ele>336.48868</ele>
        <time>2021-10-03T10:00:47.000Z</time>
      </trkpt>
      <trkpt lat="43.64191" lon="2.3311">
        <ele>336.432345</ele>
        <time>2021-10-03T10:00:48.000Z</time>
      </trkpt>
      <trkpt lat="43.6419" lon="2.33108">
        <ele>336.389773</ele>
        <time>2021-10-03T10:00:49.000Z</time>
      </trkpt>
      <trkpt lat="43.6419" lon="2.33106">
        <ele>336.328798</ele>
        <time>2021-10-03T10:00:50.000Z</time>
      </trkpt>
      <trkpt lat="43.64189" lon="2.33103">
        <ele>336.260495</ele>
        <time>2021-10-03T10:00:51.000Z</time>
      </trkpt>
      <trkpt lat="43.64188" lon="2.33101">
        <ele>336.193211</ele>
        <time>2021-10-03T10:00:52.000Z</time>
      </trkpt>
      <trkpt lat="43.64187" lon="2.33098">
        <ele>336.131473</ele>
        <time>2021-10-03T10:00:53.000Z</time>
      </trkpt>
      <trkpt lat="43.64187" lon="2.33097">
        <ele>336.079123</ele>
        <time>2021-10-03T10:00:54.000Z</time>
      </trkpt>
      <trkpt lat="43.64185" lon="2.33094">
        <ele>336.007138</ele>
        <time>2021-10-03T10:00:55.000Z</time>
      </trkpt>
      <trkpt lat="43.64183" lon="2.33092">
        <ele>335.9208</ele>
        <time>2021-10-03T10:00:56.000Z</time>
      </trkpt>
      <trkpt lat="43.64182" lon="2.33089">
        <ele>335.827993</ele>
        <time>2021-10-03T10:00:57.000Z</time>
      </trkpt>
      <trkpt lat="43.64179" lon="2.33085">
        <ele>335.708541</ele>
        <time>2021-10-03T10:00:58.000Z</time>
      </trkpt>
      <trkpt lat="43.64177" lon="2.33081">
        <ele>335.594176</ele>
        <time>2021-10-03T10:00:59.000Z</time>
      </trkpt>
      <trkpt lat="43.64174" lon="2.33078">
        <ele>335.478014</ele>
        <time>2021-10-03T10:01:00.000Z</time>
      </trkpt>
      <trkpt lat="43.64173" lon="2.33074">
        <ele>335.379423</ele>
        <time>2021-10-03T10:01:01.000Z</time>
      </trkpt>
      <trkpt lat="43.64171" lon="2.33071">
        <ele>335.273247</ele>
        <time>2021-10-03T10:01:02.000Z</time>
      </trkpt>
      <trkpt lat="43.64169" lon="2.33067">
        <ele>335.161346</ele>
        <time>2021-10-03T10:01:03.000Z</time>
      </trkpt>
      <trkpt lat="43.64167" lon="2.33064">
        <ele>335.06277</ele>
        <time>2021-10-03T10:01:04.000Z</time>
      </trkpt>
      <trkpt lat="43.64166" lon="2.33061">
        <ele>334.987247</ele>
        <time>2021-10-03T10:01:05.000Z</time>
      </trkpt>
      <trkpt lat="43.64164" lon="2.33059">
        <ele>334.909907</ele>
        <time>2021-10-03T10:01:06.000Z</time>
      </trkpt>
      <trkpt lat="43.64163" lon="2.33056">
        <ele>334.832408</ele>
        <time>2021-10-03T10:01:07.000Z</time>
      </trkpt>
      <trkpt lat="43.64162" lon="2.33053">
        <ele>334.754432</ele>
        <time>2021-10-03T10:01:08.000Z</time>
      </trkpt>
      <trkpt lat="43.64161" lon="2.3305">
        <ele>334.670707</ele>
        <time>2021-10-03T10:01:09.000Z</time>
      </trkpt>
      <trkpt lat="43.64159" lon="2.33046">
        <ele>334.576314</ele>
        <time>2021-10-03T10:01:10.000Z</time>
      </trkpt>
      <trkpt lat="43.64158" lon="2.33042">
        <ele>334.469023</ele>
        <time>2021-10-03T10:01:11.000Z</time>
      </trkpt>
      <trkpt lat="43.64157" lon="2.33039">
        <ele>334.380248</ele>
        <time>2021-10-03T10:01:12.000Z</time>
      </trkpt>
      <trkpt lat="43.64156" lon="2.33035">
        <ele>334.28744</ele>
        <time>2021-10-03T10:01:13.000Z</time>
      </trkpt>
      <trkpt lat="43.64154" lon="2.33032">
        <ele>334.19676</ele>
        <time>2021-10-03T10:01:14.000Z</time>
      </trkpt>
      <trkpt lat="43.64152" lon="2.33029">
        <ele>334.098183</ele>
        <time>2021-10-03T10:01:15.000Z</time>
      </trkpt>
      <trkpt lat="43.6415" lon="2.33026">
        <ele>333.99478</ele>
        <time>2021-10-03T10:01:16.000Z</time>
      </trkpt>
      <trkpt lat="43.64148" lon="2.33024">
        <ele>333.917067</ele>
        <time>2021-10-03T10:01:17.000Z</time>
      </trkpt>
      <trkpt lat="43.64146" lon="2.33021">
        <ele>333.823331</ele>
        <time>2021-10-03T10:01:18.000Z</time>
      </trkpt>
      <trkpt lat="43.64144" lon="2.33018">
        <ele>333.706272</ele>
        <time>2021-10-03T10:01:19.000Z</time>
      </trkpt>
      <trkpt lat="43.64141" lon="2.33015">
        <ele>333.594802</ele>
        <time>2021-10-03T10:01:20.000Z</time>
      </trkpt>
      <trkpt lat="43.64138" lon="2.33012">
        <ele>333.487845</ele>
        <time>2021-10-03T10:01:21.000Z</time>
      </trkpt>
      <trkpt lat="43.64136" lon="2.3301">
        <ele>333.393065</ele>
        <time>2021-10-03T10:01:22.000Z</time>
      </trkpt>
      <trkpt lat="43.64134" lon="2.33007">
        <ele>333.294636</ele>
        <time>2021-10-03T10:01:23.000Z</time>
      </trkpt>
      <trkpt lat="43.64131" lon="2.33005">
        <ele>333.197805</ele>
        <time>2021-10-03T10:01:24.000Z</time>
      </trkpt>
      <trkpt lat="43.64129" lon="2.33002">
        <ele>333.092886</ele>
        <time>2021-10-03T10:01:25.000Z</time>
      </trkpt>
      <trkpt lat="43.64126" lon="2.32999">
        <ele>332.981416</ele>
        <time>2021-10-03T10:01:26.000Z</time>
      </trkpt>
      <trkpt lat="43.64124" lon="2.32996">
        <ele>332.874459</ele>
        <time>2021-10-03T10:01:27.000Z</time>
      </trkpt>
      <trkpt lat="43.64121" lon="2.32995">
        <ele>332.788621</ele>
        <time>2021-10-03T10:01:28.000Z</time>
      </trkpt>
      <trkpt lat="43.64119" lon="2.32992">
        <ele>332.69232</ele>
        <time>2021-10-03T10:01:29.000Z</time>
      </trkpt>
      <trkpt lat="43.64116" lon="2.32989">
        <ele>332.578304</ele>
        <time>2021-10-03T10:01:30.000Z</time>
      </trkpt>
      <trkpt lat="43.64114" lon="2.32986">
        <ele>332.466834</ele>
        <time>2021-10-03T10:01:31.000Z</time>
      </trkpt>
      <trkpt lat="43.64112" lon="2.32983">
        <ele>332.3611</ele>
        <time>2021-10-03T10:01:32.000Z</time>
      </trkpt>
      <trkpt lat="43.64109" lon="2.3298">
        <ele>332.245577</ele>
        <time>2021-10-03T10:01:33.000Z</time>
      </trkpt>
      <trkpt lat="43.64107" lon="2.32977">
        <ele>332.139844</ele>
        <time>2021-10-03T10:01:34.000Z</time>
      </trkpt>
      <trkpt lat="43.64105" lon="2.32973">
        <ele>332.037193</ele>
        <time>2021-10-03T10:01:35.000Z</time>
      </trkpt>
      <trkpt lat="43.64104" lon="2.3297">
        <ele>331.949781</ele>
        <time>2021-10-03T10:01:36.000Z</time>
      </trkpt>
      <trkpt lat="43.64103" lon="2.32966">
        <ele>331.851773</ele>
        <time>2021-10-03T10:01:37.000Z</time>
      </trkpt>
      <trkpt lat="43.64103" lon="2.32961">
        <ele>331.748342</ele>
        <time>2021-10-03T10:01:38.000Z</time>
      </trkpt>
      <trkpt lat="43.64102" lon="2.32957">
        <ele>331.640367</ele>
        <time>2021-10-03T10:01:39.000Z</time>
      </trkpt>
      <trkpt lat="43.64102" lon="2.32952">
        <ele>331.532392</ele>
        <time>2021-10-03T10:01:40.000Z</time>
      </trkpt>
      <trkpt lat="43.64101" lon="2.32948">
        <ele>331.484786</ele>
        <time>2021-10-03T10:01:41.000Z</time>
      </trkpt>
      <trkpt lat="43.64101" lon="2.32944">
        <ele>331.58379</ele>
        <time>2021-10-03T10:01:42.000Z</time>
      </trkpt>
      <trkpt lat="43.64101" lon="2.3294">
        <ele>331.688336</ele>
        <time>2021-10-03T10:01:43.000Z</time>
      </trkpt>
      <trkpt lat="43.641" lon="2.32935">
        <ele>331.798518</ele>
        <time>2021-10-03T10:01:44.000Z</time>
      </trkpt>
      <trkpt lat="43.641" lon="2.32932">
        <ele>331.893428</ele>
        <time>2021-10-03T10:01:45.000Z</time>
      </trkpt>
      <trkpt lat="43.641" lon="2.32928">
        <ele>331.987296</ele>
        <time>2021-10-03T10:01:46.000Z</time>
      </trkpt>
      <trkpt lat="43.641" lon="2.32924">
        <ele>332.081164</ele>
        <time>2021-10-03T10:01:47.000Z</time>
      </trkpt>
      <trkpt lat="43.641" lon="2.32921">
        <ele>332.164884</ele>
        <time>2021-10-03T10:01:48.000Z</time>
      </trkpt>
      <trkpt lat="43.64099" lon="2.32918">
        <ele>332.247269</ele>
        <time>2021-10-03T10:01:49.000Z</time>
      </trkpt>
      <trkpt lat="43.64098" lon="2.32915">
        <ele>332.328096</ele>
        <time>2021-10-03T10:01:50.000Z</time>
      </trkpt>
      <trkpt lat="43.64097" lon="2.32913">
        <ele>332.402324</ele>
        <time>2021-10-03T10:01:51.000Z</time>
      </trkpt>
      <trkpt lat="43.64096" lon="2.32911">
        <ele>332.464053</ele>
        <time>2021-10-03T10:01:52.000Z</time>
      </trkpt>
      <trkpt lat="43.64094" lon="2.32909">
        <ele>332.544812</ele>
        <time>2021-10-03T10:01:53.000Z</time>
      </trkpt>
      <trkpt lat="43.64092" lon="2.32908">
        <ele>332.615224</ele>
        <time>2021-10-03T10:01:54.000Z</time>
      </trkpt>
      <trkpt lat="43.6409" lon="2.32908">
        <ele>332.6826</ele>
        <time>2021-10-03T10:01:55.000Z</time>
      </trkpt>
      <trkpt lat="43.64088" lon="2.32907">
        <ele>332.752231</ele>
        <time>2021-10-03T10:01:56.000Z</time>
      </trkpt>
      <trkpt lat="43.64086" lon="2.32906">
        <ele>332.819272</ele>
        <time>2021-10-03T10:01:57.000Z</time>
      </trkpt>
      <trkpt lat="43.64084" lon="2.32906">
        <ele>332.886649</ele>
        <time>2021-10-03T10:01:58.000Z</time>
      </trkpt>
      <trkpt lat="43.64083" lon="2.32906">
        <ele>332.953304</ele>
        <time>2021-10-03T10:01:59.000Z</time>
      </trkpt>
      <trkpt lat="43.64081" lon="2.32906">
        <ele>333.020105</ele>
        <time>2021-10-03T10:02:00.000Z</time>
      </trkpt>
      <trkpt lat="43.64079" lon="2.32906">
        <ele>333.076196</ele>
        <time>2021-10-03T10:02:01.000Z</time>
      </trkpt>
      <trkpt lat="43.64078" lon="2.32906">
        <ele>333.128781</ele>
        <time>2021-10-03T10:02:02.000Z</time>
      </trkpt>
      <trkpt lat="43.64076" lon="2.32905">
        <ele>333.185385</ele>
        <time>2021-10-03T10:02:03.000Z</time>
      </trkpt>
      <trkpt lat="43.64074" lon="2.32905">
        <ele>333.252041</ele>
        <time>2021-10-03T10:02:04.000Z</time>
      </trkpt>
      <trkpt lat="43.64072" lon="2.32905">
        <ele>333.331791</ele>
        <time>2021-10-03T10:02:05.000Z</time>
      </trkpt>
      <trkpt lat="43.6407" lon="2.32904">
        <ele>333.399596</ele>
        <time>2021-10-03T10:02:06.000Z</time>
      </trkpt>
      <trkpt lat="43.64068" lon="2.32903">
        <ele>333.469227</ele>
        <time>2021-10-03T10:02:07.000Z</time>
      </trkpt>
      <trkpt lat="43.64066" lon="2.32903">
        <ele>333.541555</ele>
        <time>2021-10-03T10:02:08.000Z</time>
      </trkpt>
      <trkpt lat="43.64064" lon="2.32902">
        <ele>333.621988</ele>
        <time>2021-10-03T10:02:09.000Z</time>
      </trkpt>
      <trkpt lat="43.64062" lon="2.329">
        <ele>333.696314</ele>
        <time>2021-10-03T10:02:10.000Z</time>
      </trkpt>
      <trkpt lat="43.6406" lon="2.32899">
        <ele>333.77491</ele>
        <time>2021-10-03T10:02:11.000Z</time>
      </trkpt>
      <trkpt lat="43.64058" lon="2.32897">
        <ele>333.868647</ele>
        <time>2021-10-03T10:02:12.000Z</time>
      </trkpt>
      <trkpt lat="43.64055" lon="2.32894">
        <ele>333.971233</ele>
        <time>2021-10-03T10:02:13.000Z</time>
      </trkpt>
      <trkpt lat="43.64053" lon="2.32892">
        <ele>334.071043</ele>
        <time>2021-10-03T10:02:14.000Z</time>
      </trkpt>
      <trkpt lat="43.64052" lon="2.32889">
        <ele>334.163017</ele>
        <time>2021-10-03T10:02:15.000Z</time>
      </trkpt>
      <trkpt lat="43.6405" lon="2.32887">
        <ele>334.254992</ele>
        <time>2021-10-03T10:02:16.000Z</time>
      </trkpt>
      <trkpt lat="43.64048" lon="2.32883">
        <ele>334.358189</ele>
        <time>2021-10-03T10:02:17.000Z</time>
      </trkpt>
      <trkpt lat="43.64046" lon="2.3288">
        <ele>334.469189</ele>
        <time>2021-10-03T10:02:18.000Z</time>
      </trkpt>
      <trkpt lat="43.64045" lon="2.32877">
        <ele>334.551578</ele>
        <time>2021-10-03T10:02:19.000Z</time>
      </trkpt>
      <trkpt lat="43.64044" lon="2.32875">
        <ele>334.609189</ele>
        <time>2021-10-03T10:02:20.000Z</time>
      </trkpt>
      <trkpt lat="43.64043" lon="2.32872">
        <ele>334.692255</ele>
        <time>2021-10-03T10:02:21.000Z</time>
      </trkpt>
      <trkpt lat="43.64042" lon="2.32869">
        <ele>334.782132</ele>
        <time>2021-10-03T10:02:22.000Z</time>
      </trkpt>
      <trkpt lat="43.6404" lon="2.32866">
        <ele>334.874641</ele>
        <time>2021-10-03T10:02:23.000Z</time>
      </trkpt>
      <trkpt lat="43.64039" lon="2.32864">
        <ele>334.94399</ele>
        <time>2021-10-03T10:02:24.000Z</time>
      </trkpt>
      <trkpt lat="43.64039" lon="2.3286">
        <ele>335.033885</ele>
        <time>2021-10-03T10:02:25.000Z</time>
      </trkpt>
      <trkpt lat="43.64038" lon="2.32857">
        <ele>335.123762</ele>
        <time>2021-10-03T10:02:26.000Z</time>
      </trkpt>
      <trkpt lat="43.64037" lon="2.32854">
        <ele>335.209654</ele>
        <time>2021-10-03T10:02:27.000Z</time>
      </trkpt>
      <trkpt lat="43.64037" lon="2.3285">
        <ele>335.297044</ele>
        <time>2021-10-03T10:02:28.000Z</time>
      </trkpt>
      <trkpt lat="43.64036" lon="2.32847">
        <ele>335.37943</ele>
        <time>2021-10-03T10:02:29.000Z</time>
      </trkpt>
      <trkpt lat="43.64036" lon="2.32844">
        <ele>335.456988</ele>
        <time>2021-10-03T10:02:30.000Z</time>
      </trkpt>
      <trkpt lat="43.64035" lon="2.32842">
        <ele>335.521729</ele>
        <time>2021-10-03T10:02:31.000Z</time>
      </trkpt>
      <trkpt lat="43.64034" lon="2.32839">
        <ele>335.591078</ele>
        <time>2021-10-03T10:02:32.000Z</time>
      </trkpt>
      <trkpt lat="43.64033" lon="2.32837">
        <ele>335.659085</ele>
        <time>2021-10-03T10:02:33.000Z</time>
      </trkpt>
      <trkpt lat="43.64032" lon="2.32835">
        <ele>335.729027</ele>
        <time>2021-10-03T10:02:34.000Z</time>
      </trkpt>
      <trkpt lat="43.64031" lon="2.32832">
        <ele>335.805135</ele>
        <time>2021-10-03T10:02:35.000Z</time>
      </trkpt>
      <trkpt lat="43.64029" lon="2.3283">
        <ele>335.881818</ele>
        <time>2021-10-03T10:02:36.000Z</time>
      </trkpt>
      <trkpt lat="43.64029" lon="2.32827">
        <ele>335.951167</ele>
        <time>2021-10-03T10:02:37.000Z</time>
      </trkpt>
      <trkpt lat="43.64029" lon="2.32825">
        <ele>336.002028</ele>
        <time>2021-10-03T10:02:38.000Z</time>
      </trkpt>
      <trkpt lat="43.64028" lon="2.32823">
        <ele>336.072287</ele>
        <time>2021-10-03T10:02:39.000Z</time>
      </trkpt>
      <trkpt lat="43.64028" lon="2.32821">
        <ele>336.124106</ele>
        <time>2021-10-03T10:02:40.000Z</time>
      </trkpt>
      <trkpt lat="43.64027" lon="2.32819">
        <ele>336.183876</ele>
        <time>2021-10-03T10:02:41.000Z</time>
      </trkpt>
      <trkpt lat="43.64026" lon="2.32817">
        <ele>336.241851</ele>
        <time>2021-10-03T10:02:42.000Z</time>
      </trkpt>
      <trkpt lat="43.64024" lon="2.32815">
        <ele>336.30986</ele>
        <time>2021-10-03T10:02:43.000Z</time>
      </trkpt>
      <trkpt lat="43.64023" lon="2.32814">
        <ele>336.371932</ele>
        <time>2021-10-03T10:02:44.000Z</time>
      </trkpt>
      <trkpt lat="43.6402" lon="2.32812">
        <ele>336.472768</ele>
        <time>2021-10-03T10:02:45.000Z</time>
      </trkpt>
      <trkpt lat="43.64018" lon="2.3281">
        <ele>336.563986</ele>
        <time>2021-10-03T10:02:46.000Z</time>
      </trkpt>
      <trkpt lat="43.64017" lon="2.32807">
        <ele>336.660913</ele>
        <time>2021-10-03T10:02:47.000Z</time>
      </trkpt>
      <trkpt lat="43.64014" lon="2.32805">
        <ele>336.777752</ele>
        <time>2021-10-03T10:02:48.000Z</time>
      </trkpt>
      <trkpt lat="43.64012" lon="2.32802">
        <ele>336.875816</ele>
        <time>2021-10-03T10:02:49.000Z</time>
      </trkpt>
      <trkpt lat="43.64009" lon="2.32801">
        <ele>336.976652</ele>
        <time>2021-10-03T10:02:50.000Z</time>
      </trkpt>
      <trkpt lat="43.64006" lon="2.32799">
        <ele>337.090985</ele>
        <time>2021-10-03T10:02:51.000Z</time>
      </trkpt>
      <trkpt lat="43.64003" lon="2.32798">
        <ele>337.202828</ele>
        <time>2021-10-03T10:02:52.000Z</time>
      </trkpt>
      <trkpt lat="43.64" lon="2.32796">
        <ele>337.318837</ele>
        <time>2021-10-03T10:02:53.000Z</time>
      </trkpt>
      <trkpt lat="43.63997" lon="2.32796">
        <ele>337.425103</ele>
        <time>2021-10-03T10:02:54.000Z</time>
      </trkpt>
      <trkpt lat="43.63994" lon="2.32795">
        <ele>337.534516</ele>
        <time>2021-10-03T10:02:55.000Z</time>
      </trkpt>
      <trkpt lat="43.6399" lon="2.32795">
        <ele>337.650453</ele>
        <time>2021-10-03T10:02:56.000Z</time>
      </trkpt>
      <trkpt lat="43.63987" lon="2.32794">
        <ele>337.752299</ele>
        <time>2021-10-03T10:02:57.000Z</time>
      </trkpt>
      <trkpt lat="43.63983" lon="2.32795">
        <ele>337.727751</ele>
        <time>2021-10-03T10:02:58.000Z</time>
      </trkpt>
      <trkpt lat="43.6398" lon="2.32796">
        <ele>337.704174</ele>
        <time>2021-10-03T10:02:59.000Z</time>
      </trkpt>
      <trkpt lat="43.63977" lon="2.32797">
        <ele>337.681975</ele>
        <time>2021-10-03T10:03:00.000Z</time>
      </trkpt>
      <trkpt lat="43.63974" lon="2.32799">
        <ele>337.661082</ele>
        <time>2021-10-03T10:03:01.000Z</time>
      </trkpt>
      <trkpt lat="43.63972" lon="2.32802">
        <ele>337.639945</ele>
        <time>2021-10-03T10:03:02.000Z</time>
      </trkpt>
      <trkpt lat="43.6397" lon="2.32805">
        <ele>337.620051</ele>
        <time>2021-10-03T10:03:03.000Z</time>
      </trkpt>
      <trkpt lat="43.63968" lon="2.32807">
        <ele>337.599241</ele>
        <time>2021-10-03T10:03:04.000Z</time>
      </trkpt>
      <trkpt lat="43.63965" lon="2.3281">
        <ele>337.577954</ele>
        <time>2021-10-03T10:03:05.000Z</time>
      </trkpt>
      <trkpt lat="43.63963" lon="2.32811">
        <ele>337.562345</ele>
        <time>2021-10-03T10:03:06.000Z</time>
      </trkpt>
      <trkpt lat="43.63961" lon="2.32813">
        <ele>337.545429</ele>
        <time>2021-10-03T10:03:07.000Z</time>
      </trkpt>
      <trkpt lat="43.63959" lon="2.32814">
        <ele>337.526832</ele>
        <time>2021-10-03T10:03:08.000Z</time>
      </trkpt>
      <trkpt lat="43.63956" lon="2.32815">
        <ele>337.50789</ele>
        <time>2021-10-03T10:03:09.000Z</time>
      </trkpt>
      <trkpt lat="43.63953" lon="2.32816">
        <ele>337.489851</ele>
        <time>2021-10-03T10:03:10.000Z</time>
      </trkpt>
      <trkpt lat="43.63951" lon="2.32816">
        <ele>337.471206</ele>
        <time>2021-10-03T10:03:11.000Z</time>
      </trkpt>
      <trkpt lat="43.63948" lon="2.32815">
        <ele>337.450466</ele>
        <time>2021-10-03T10:03:12.000Z</time>
      </trkpt>
      <trkpt lat="43.63945" lon="2.32815">
        <ele>337.431681</ele>
        <time>2021-10-03T10:03:13.000Z</time>
      </trkpt>
      <trkpt lat="43.63941" lon="2.32814">
        <ele>337.407712</ele>
        <time>2021-10-03T10:03:14.000Z</time>
      </trkpt>
      <trkpt lat="43.63938" lon="2.32813">
        <ele>337.385761</ele>
        <time>2021-10-03T10:03:15.000Z</time>
      </trkpt>
      <trkpt lat="43.63935" lon="2.32812">
        <ele>337.364593</ele>
        <time>2021-10-03T10:03:16.000Z</time>
      </trkpt>
      <trkpt lat="43.63932" lon="2.32811">
        <ele>337.34013</ele>
        <time>2021-10-03T10:03:17.000Z</time>
      </trkpt>
      <trkpt lat="43.63928" lon="2.32811">
        <ele>337.313809</ele>
        <time>2021-10-03T10:03:18.000Z</time>
      </trkpt>
      <trkpt lat="43.63925" lon="2.32811">
        <ele>337.290365</ele>
        <time>2021-10-03T10:03:19.000Z</time>
      </trkpt>
      <trkpt lat="43.63922" lon="2.32811">
        <ele>337.268936</ele>
        <time>2021-10-03T10:03:20.000Z</time>
      </trkpt>
      <trkpt lat="43.63919" lon="2.32812">
        <ele>337.2481</ele>
        <time>2021-10-03T10:03:21.000Z</time>
      </trkpt>
      <trkpt lat="43.63915" lon="2.32812">
        <ele>337.224655</ele>
        <time>2021-10-03T10:03:22.000Z</time>
      </trkpt>
      <trkpt lat="43.63912" lon="2.32812">
        <ele>337.2005</ele>
        <time>2021-10-03T10:03:23.000Z</time>
      </trkpt>
      <trkpt lat="43.63908" lon="2.32812">
        <ele>337.174298</ele>
        <time>2021-10-03T10:03:24.000Z</time>
      </trkpt>
      <trkpt lat="43.63904" lon="2.32812">
        <ele>337.148095</ele>
        <time>2021-10-03T10:03:25.000Z</time>
      </trkpt>
      <trkpt lat="43.63899" lon="2.32811">
        <ele>337.116278</ele>
        <time>2021-10-03T10:03:26.000Z</time>
      </trkpt>
      <trkpt lat="43.63895" lon="2.3281">
        <ele>337.084766</ele>
        <time>2021-10-03T10:03:27.000Z</time>
      </trkpt>
      <trkpt lat="43.63891" lon="2.32809">
        <ele>337.055193</ele>
        <time>2021-10-03T10:03:28.000Z</time>
      </trkpt>
      <trkpt lat="43.63887" lon="2.32808">
        <ele>337.027642</ele>
        <time>2021-10-03T10:03:29.000Z</time>
      </trkpt>
      <trkpt lat="43.63884" lon="2.32806">
        <ele>337.005807</ele>
        <time>2021-10-03T10:03:30.000Z</time>
      </trkpt>
      <trkpt lat="43.6388" lon="2.32804">
        <ele>336.977942</ele>
        <time>2021-10-03T10:03:31.000Z</time>
      </trkpt>
      <trkpt lat="43.63876" lon="2.32803">
        <ele>336.950948</ele>
        <time>2021-10-03T10:03:32.000Z</time>
      </trkpt>
      <trkpt lat="43.63872" lon="2.32803">
        <ele>336.924669</ele>
        <time>2021-10-03T10:03:33.000Z</time>
      </trkpt>
      <trkpt lat="43.63869" lon="2.32802">
        <ele>336.897551</ele>
        <time>2021-10-03T10:03:34.000Z</time>
      </trkpt>
      <trkpt lat="43.63865" lon="2.32801">
        <ele>336.870966</ele>
        <time>2021-10-03T10:03:35.000Z</time>
      </trkpt>
      <trkpt lat="43.63861" lon="2.328">
        <ele>336.847263</ele>
        <time>2021-10-03T10:03:36.000Z</time>
      </trkpt>
      <trkpt lat="43.63859" lon="2.328">
        <ele>336.827929</ele>
        <time>2021-10-03T10:03:37.000Z</time>
      </trkpt>
      <trkpt lat="43.63856" lon="2.328">
        <ele>336.807219</ele>
        <time>2021-10-03T10:03:38.000Z</time>
      </trkpt>
      <trkpt lat="43.63853" lon="2.32799">
        <ele>336.788362</ele>
        <time>2021-10-03T10:03:39.000Z</time>
      </trkpt>
      <trkpt lat="43.63851" lon="2.32798">
        <ele>336.77141</ele>
        <time>2021-10-03T10:03:40.000Z</time>
      </trkpt>
      <trkpt lat="43.63848" lon="2.32796">
        <ele>336.748857</ele>
        <time>2021-10-03T10:03:41.000Z</time>
      </trkpt>
      <trkpt lat="43.63845" lon="2.32795">
        <ele>336.726683</ele>
        <time>2021-10-03T10:03:42.000Z</time>
      </trkpt>
      <trkpt lat="43.63842" lon="2.32794">
        <ele>336.709247</ele>
        <time>2021-10-03T10:03:43.000Z</time>
      </trkpt>
      <trkpt lat="43.6384" lon="2.32793">
        <ele>336.690638</ele>
        <time>2021-10-03T10:03:44.000Z</time>
      </trkpt>
      <trkpt lat="43.63837" lon="2.32791">
        <ele>336.672411</ele>
        <time>2021-10-03T10:03:45.000Z</time>
      </trkpt>
      <trkpt lat="43.63836" lon="2.32788">
        <ele>336.654996</ele>
        <time>2021-10-03T10:03:46.000Z</time>
      </trkpt>
      <trkpt lat="43.63834" lon="2.32785">
        <ele>336.63356</ele>
        <time>2021-10-03T10:03:47.000Z</time>
      </trkpt>
      <trkpt lat="43.63831" lon="2.32781">
        <ele>336.603754</ele>
        <time>2021-10-03T10:03:48.000Z</time>
      </trkpt>
      <trkpt lat="43.63828" lon="2.32777">
        <ele>336.578259</ele>
        <time>2021-10-03T10:03:49.000Z</time>
      </trkpt>
      <trkpt lat="43.63826" lon="2.32773">
        <ele>336.553403</ele>
        <time>2021-10-03T10:03:50.000Z</time>
      </trkpt>
      <trkpt lat="43.63823" lon="2.3277">
        <ele>336.526329</ele>
        <time>2021-10-03T10:03:51.000Z</time>
      </trkpt>
      <trkpt lat="43.6382" lon="2.32766">
        <ele>336.462415</ele>
        <time>2021-10-03T10:03:52.000Z</time>
      </trkpt>
      <trkpt lat="43.63818" lon="2.32763">
        <ele>336.380988</ele>
        <time>2021-10-03T10:03:53.000Z</time>
      </trkpt>
      <trkpt lat="43.63817" lon="2.32759">
        <ele>336.314703</ele>
        <time>2021-10-03T10:03:54.000Z</time>
      </trkpt>
      <trkpt lat="43.63816" lon="2.32756">
        <ele>336.246809</ele>
        <time>2021-10-03T10:03:55.000Z</time>
      </trkpt>
      <trkpt lat="43.63815" lon="2.32752">
        <ele>336.176673</ele>
        <time>2021-10-03T10:03:56.000Z</time>
      </trkpt>
      <trkpt lat="43.63814" lon="2.32748">
        <ele>336.096987</ele>
        <time>2021-10-03T10:03:57.000Z</time>
      </trkpt>
      <trkpt lat="43.63813" lon="2.32742">
        <ele>335.98968</ele>
        <time>2021-10-03T10:03:58.000Z</time>
      </trkpt>
      <trkpt lat="43.63812" lon="2.32735">
        <ele>335.867541</ele>
        <time>2021-10-03T10:03:59.000Z</time>
      </trkpt>
      <trkpt lat="43.6381" lon="2.3273">
        <ele>335.755303</ele>
        <time>2021-10-03T10:04:00.000Z</time>
      </trkpt>
      <trkpt lat="43.63809" lon="2.32723">
        <ele>335.636268</ele>
        <time>2021-10-03T10:04:01.000Z</time>
      </trkpt>
      <trkpt lat="43.63807" lon="2.32717">
        <ele>335.510393</ele>
        <time>2021-10-03T10:04:02.000Z</time>
      </trkpt>
      <trkpt lat="43.63806" lon="2.3271">
        <ele>335.384518</ele>
        <time>2021-10-03T10:04:03.000Z</time>
      </trkpt>
      <trkpt lat="43.63805" lon="2.32704">
        <ele>335.279807</ele>
        <time>2021-10-03T10:04:04.000Z</time>
      </trkpt>
      <trkpt lat="43.63804" lon="2.32699">
        <ele>335.175165</ele>
        <time>2021-10-03T10:04:05.000Z</time>
      </trkpt>
      <trkpt lat="43.63802" lon="2.32693">
        <ele>335.077204</ele>
        <time>2021-10-03T10:04:06.000Z</time>
      </trkpt>
      <trkpt lat="43.63801" lon="2.32688">
        <ele>334.978398</ele>
        <time>2021-10-03T10:04:07.000Z</time>
      </trkpt>
      <trkpt lat="43.638" lon="2.32684">
        <ele>334.89174</ele>
        <time>2021-10-03T10:04:08.000Z</time>
      </trkpt>
      <trkpt lat="43.638" lon="2.32679">
        <ele>334.812148</ele>
        <time>2021-10-03T10:04:09.000Z</time>
      </trkpt>
      <trkpt lat="43.63799" lon="2.32675">
        <ele>334.726899</ele>
        <time>2021-10-03T10:04:10.000Z</time>
      </trkpt>
      <trkpt lat="43.63798" lon="2.32671">
        <ele>334.652646</ele>
        <time>2021-10-03T10:04:11.000Z</time>
      </trkpt>
      <trkpt lat="43.63797" lon="2.32665">
        <ele>334.543294</ele>
        <time>2021-10-03T10:04:12.000Z</time>
      </trkpt>
      <trkpt lat="43.63796" lon="2.32659">
        <ele>334.441908</ele>
        <time>2021-10-03T10:04:13.000Z</time>
      </trkpt>
      <trkpt lat="43.63796" lon="2.32654">
        <ele>334.353404</ele>
        <time>2021-10-03T10:04:14.000Z</time>
      </trkpt>
      <trkpt lat="43.63795" lon="2.3265">
        <ele>334.275592</ele>
        <time>2021-10-03T10:04:15.000Z</time>
      </trkpt>
      <trkpt lat="43.63796" lon="2.32646">
        <ele>334.205214</ele>
        <time>2021-10-03T10:04:16.000Z</time>
      </trkpt>
      <trkpt lat="43.63796" lon="2.32642">
        <ele>334.129182</ele>
        <time>2021-10-03T10:04:17.000Z</time>
      </trkpt>
      <trkpt lat="43.63797" lon="2.32637">
        <ele>334.040776</ele>
        <time>2021-10-03T10:04:18.000Z</time>
      </trkpt>
      <trkpt lat="43.63798" lon="2.32633">
        <ele>333.962641</ele>
        <time>2021-10-03T10:04:19.000Z</time>
      </trkpt>
      <trkpt lat="43.638" lon="2.32629">
        <ele>333.87526</ele>
        <time>2021-10-03T10:04:20.000Z</time>
      </trkpt>
      <trkpt lat="43.63802" lon="2.32625">
        <ele>333.789385</ele>
        <time>2021-10-03T10:04:21.000Z</time>
      </trkpt>
      <trkpt lat="43.63804" lon="2.32621">
        <ele>333.702004</ele>
        <time>2021-10-03T10:04:22.000Z</time>
      </trkpt>
      <trkpt lat="43.63806" lon="2.32617">
        <ele>333.61158</ele>
        <time>2021-10-03T10:04:23.000Z</time>
      </trkpt>
      <trkpt lat="43.63808" lon="2.32612">
        <ele>333.51673</ele>
        <time>2021-10-03T10:04:24.000Z</time>
      </trkpt>
      <trkpt lat="43.63809" lon="2.32608">
        <ele>333.427572</ele>
        <time>2021-10-03T10:04:25.000Z</time>
      </trkpt>
      <trkpt lat="43.6381" lon="2.32604">
        <ele>333.347233</ele>
        <time>2021-10-03T10:04:26.000Z</time>
      </trkpt>
      <trkpt lat="43.63811" lon="2.326">
        <ele>333.282024</ele>
        <time>2021-10-03T10:04:27.000Z</time>
      </trkpt>
      <trkpt lat="43.63813" lon="2.32597">
        <ele>333.203497</ele>
        <time>2021-10-03T10:04:28.000Z</time>
      </trkpt>
      <trkpt lat="43.63815" lon="2.32593">
        <ele>333.123527</ele>
        <time>2021-10-03T10:04:29.000Z</time>
      </trkpt>
      <trkpt lat="43.63817" lon="2.3259">
        <ele>333.055098</ele>
        <time>2021-10-03T10:04:30.000Z</time>
      </trkpt>
      <trkpt lat="43.63818" lon="2.32587">
        <ele>332.990412</ele>
        <time>2021-10-03T10:04:31.000Z</time>
      </trkpt>
      <trkpt lat="43.63819" lon="2.32584">
        <ele>332.933029</ele>
        <time>2021-10-03T10:04:32.000Z</time>
      </trkpt>
      <trkpt lat="43.63821" lon="2.32581">
        <ele>332.856374</ele>
        <time>2021-10-03T10:04:33.000Z</time>
      </trkpt>
      <trkpt lat="43.63822" lon="2.32578">
        <ele>332.793276</ele>
        <time>2021-10-03T10:04:34.000Z</time>
      </trkpt>
      <trkpt lat="43.63824" lon="2.32575">
        <ele>332.726346</ele>
        <time>2021-10-03T10:04:35.000Z</time>
      </trkpt>
      <trkpt lat="43.63825" lon="2.32572">
        <ele>332.664825</ele>
        <time>2021-10-03T10:04:36.000Z</time>
      </trkpt>
      <trkpt lat="43.63826" lon="2.32569">
        <ele>332.609214</ele>
        <time>2021-10-03T10:04:37.000Z</time>
      </trkpt>
      <trkpt lat="43.63827" lon="2.32566">
        <ele>332.548123</ele>
        <time>2021-10-03T10:04:38.000Z</time>
      </trkpt>
      <trkpt lat="43.63828" lon="2.32564">
        <ele>332.502322</ele>
        <time>2021-10-03T10:04:39.000Z</time>
      </trkpt>
      <trkpt lat="43.6383" lon="2.32562">
        <ele>332.451856</ele>
        <time>2021-10-03T10:04:40.000Z</time>
      </trkpt>
      <trkpt lat="43.63831" lon="2.3256">
        <ele>332.403744</ele>
        <time>2021-10-03T10:04:41.000Z</time>
      </trkpt>
      <trkpt lat="43.63833" lon="2.32559">
        <ele>332.357712</ele>
        <time>2021-10-03T10:04:42.000Z</time>
      </trkpt>
      <trkpt lat="43.63834" lon="2.32557">
        <ele>332.310718</ele>
        <time>2021-10-03T10:04:43.000Z</time>
      </trkpt>
      <trkpt lat="43.63836" lon="2.32556">
        <ele>332.264798</ele>
        <time>2021-10-03T10:04:44.000Z</time>
      </trkpt>
      <trkpt lat="43.63838" lon="2.32555">
        <ele>332.204437</ele>
        <time>2021-10-03T10:04:45.000Z</time>
      </trkpt>
      <trkpt lat="43.6384" lon="2.32554">
        <ele>332.144077</ele>
        <time>2021-10-03T10:04:46.000Z</time>
      </trkpt>
      <trkpt lat="43.63844" lon="2.32552">
        <ele>332.05408</ele>
        <time>2021-10-03T10:04:47.000Z</time>
      </trkpt>
      <trkpt lat="43.63847" lon="2.32549">
        <ele>331.679288</ele>
        <time>2021-10-03T10:04:48.000Z</time>
      </trkpt>
      <trkpt lat="43.63851" lon="2.32546">
        <ele>331.301789</ele>
        <time>2021-10-03T10:04:49.000Z</time>
      </trkpt>
      <trkpt lat="43.63854" lon="2.32543">
        <ele>330.908827</ele>
        <time>2021-10-03T10:04:50.000Z</time>
      </trkpt>
      <trkpt lat="43.63859" lon="2.3254">
        <ele>330.403669</ele>
        <time>2021-10-03T10:04:51.000Z</time>
      </trkpt>
      <trkpt lat="43.63864" lon="2.32537">
        <ele>329.898511</ele>
        <time>2021-10-03T10:04:52.000Z</time>
      </trkpt>
      <trkpt lat="43.63869" lon="2.32534">
        <ele>329.40712</ele>
        <time>2021-10-03T10:04:53.000Z</time>
      </trkpt>
      <trkpt lat="43.63875" lon="2.32531">
        <ele>328.867757</ele>
        <time>2021-10-03T10:04:54.000Z</time>
      </trkpt>
      <trkpt lat="43.63879" lon="2.32528">
        <ele>328.392461</ele>
        <time>2021-10-03T10:04:55.000Z</time>
      </trkpt>
      <trkpt lat="43.63884" lon="2.32525">
        <ele>327.859108</ele>
        <time>2021-10-03T10:04:56.000Z</time>
      </trkpt>
      <trkpt lat="43.63889" lon="2.32522">
        <ele>327.353949</ele>
        <time>2021-10-03T10:04:57.000Z</time>
      </trkpt>
      <trkpt lat="43.63894" lon="2.32518">
        <ele>326.840446</ele>
        <time>2021-10-03T10:04:58.000Z</time>
      </trkpt>
      <trkpt lat="43.63899" lon="2.32515">
        <ele>326.329269</ele>
        <time>2021-10-03T10:04:59.000Z</time>
      </trkpt>
      <trkpt lat="43.63904" lon="2.32511">
        <ele>325.845822</ele>
        <time>2021-10-03T10:05:00.000Z</time>
      </trkpt>
      <trkpt lat="43.63909" lon="2.32508">
        <ele>325.337956</ele>
        <time>2021-10-03T10:05:01.000Z</time>
      </trkpt>
      <trkpt lat="43.63913" lon="2.32506">
        <ele>324.908672</ele>
        <time>2021-10-03T10:05:02.000Z</time>
      </trkpt>
      <trkpt lat="43.63917" lon="2.32504">
        <ele>324.525445</ele>
        <time>2021-10-03T10:05:03.000Z</time>
      </trkpt>
      <trkpt lat="43.63921" lon="2.32502">
        <ele>324.142218</ele>
        <time>2021-10-03T10:05:04.000Z</time>
      </trkpt>
      <trkpt lat="43.63924" lon="2.325">
        <ele>323.839123</ele>
        <time>2021-10-03T10:05:05.000Z</time>
      </trkpt>
      <trkpt lat="43.63927" lon="2.32498">
        <ele>323.541117</ele>
        <time>2021-10-03T10:05:06.000Z</time>
      </trkpt>
      <trkpt lat="43.63929" lon="2.32497">
        <ele>323.323513</ele>
        <time>2021-10-03T10:05:07.000Z</time>
      </trkpt>
      <trkpt lat="43.63931" lon="2.32495">
        <ele>323.096166</ele>
        <time>2021-10-03T10:05:08.000Z</time>
      </trkpt>
      <trkpt lat="43.63933" lon="2.32494">
        <ele>322.920662</ele>
        <time>2021-10-03T10:05:09.000Z</time>
      </trkpt>
      <trkpt lat="43.63935" lon="2.32493">
        <ele>322.675184</ele>
        <time>2021-10-03T10:05:10.000Z</time>
      </trkpt>
      <trkpt lat="43.63937" lon="2.32492">
        <ele>322.515093</ele>
        <time>2021-10-03T10:05:11.000Z</time>
      </trkpt>
      <trkpt lat="43.63939" lon="2.32491">
        <ele>322.321496</ele>
        <time>2021-10-03T10:05:12.000Z</time>
      </trkpt>
      <trkpt lat="43.63941" lon="2.3249">
        <ele>322.139267</ele>
        <time>2021-10-03T10:05:13.000Z</time>
      </trkpt>
      <trkpt lat="43.63943" lon="2.3249">
        <ele>321.893789</ele>
        <time>2021-10-03T10:05:14.000Z</time>
      </trkpt>
      <trkpt lat="43.63945" lon="2.32489">
        <ele>321.696684</ele>
        <time>2021-10-03T10:05:15.000Z</time>
      </trkpt>
      <trkpt lat="43.63948" lon="2.32488">
        <ele>321.475157</ele>
        <time>2021-10-03T10:05:16.000Z</time>
      </trkpt>
      <trkpt lat="43.6395" lon="2.32487">
        <ele>321.267345</ele>
        <time>2021-10-03T10:05:17.000Z</time>
      </trkpt>
      <trkpt lat="43.63952" lon="2.32486">
        <ele>321.041793</ele>
        <time>2021-10-03T10:05:18.000Z</time>
      </trkpt>
      <trkpt lat="43.63954" lon="2.32484">
        <ele>320.80316</ele>
        <time>2021-10-03T10:05:19.000Z</time>
      </trkpt>
      <trkpt lat="43.63957" lon="2.32482">
        <ele>320.531972</ele>
        <time>2021-10-03T10:05:20.000Z</time>
      </trkpt>
      <trkpt lat="43.6396" lon="2.3248">
        <ele>320.231609</ele>
        <time>2021-10-03T10:05:21.000Z</time>
      </trkpt>
      <trkpt lat="43.63962" lon="2.32478">
        <ele>319.975279</ele>
        <time>2021-10-03T10:05:22.000Z</time>
      </trkpt>
      <trkpt lat="43.63965" lon="2.32477">
        <ele>319.71031</ele>
        <time>2021-10-03T10:05:23.000Z</time>
      </trkpt>
      <trkpt lat="43.63967" lon="2.32476">
        <ele>319.484758</ele>
        <time>2021-10-03T10:05:24.000Z</time>
      </trkpt>
      <trkpt lat="43.63969" lon="2.32474">
        <ele>319.289251</ele>
        <time>2021-10-03T10:05:25.000Z</time>
      </trkpt>
      <trkpt lat="43.63971" lon="2.32471">
        <ele>319.046116</ele>
        <time>2021-10-03T10:05:26.000Z</time>
      </trkpt>
      <trkpt lat="43.63972" lon="2.32469">
        <ele>318.857541</ele>
        <time>2021-10-03T10:05:27.000Z</time>
      </trkpt>
      <trkpt lat="43.63974" lon="2.32467">
        <ele>318.644055</ele>
        <time>2021-10-03T10:05:28.000Z</time>
      </trkpt>
      <trkpt lat="43.63975" lon="2.32466">
        <ele>318.479921</ele>
        <time>2021-10-03T10:05:29.000Z</time>
      </trkpt>
      <trkpt lat="43.63977" lon="2.32464">
        <ele>318.235876</ele>
        <time>2021-10-03T10:05:30.000Z</time>
      </trkpt>
      <trkpt lat="43.63979" lon="2.32462">
        <ele>318.010402</ele>
        <time>2021-10-03T10:05:31.000Z</time>
      </trkpt>
      <trkpt lat="43.6398" lon="2.32459">
        <ele>317.797901</ele>
        <time>2021-10-03T10:05:32.000Z</time>
      </trkpt>
      <trkpt lat="43.63982" lon="2.32456">
        <ele>317.568015</ele>
        <time>2021-10-03T10:05:33.000Z</time>
      </trkpt>
      <trkpt lat="43.63983" lon="2.32453">
        <ele>317.360215</ele>
        <time>2021-10-03T10:05:34.000Z</time>
      </trkpt>
      <trkpt lat="43.63984" lon="2.32451">
        <ele>317.170056</ele>
        <time>2021-10-03T10:05:35.000Z</time>
      </trkpt>
      <trkpt lat="43.63985" lon="2.32449">
        <ele>316.978566</ele>
        <time>2021-10-03T10:05:36.000Z</time>
      </trkpt>
      <trkpt lat="43.63987" lon="2.32446">
        <ele>316.734</ele>
        <time>2021-10-03T10:05:37.000Z</time>
      </trkpt>
      <trkpt lat="43.63988" lon="2.32442">
        <ele>316.466945</ele>
        <time>2021-10-03T10:05:38.000Z</time>
      </trkpt>
      <trkpt lat="43.6399" lon="2.32439">
        <ele>316.19989</ele>
        <time>2021-10-03T10:05:39.000Z</time>
      </trkpt>
      <trkpt lat="43.63992" lon="2.32436">
        <ele>315.939038</ele>
        <time>2021-10-03T10:05:40.000Z</time>
      </trkpt>
      <trkpt lat="43.63992" lon="2.32433">
        <ele>315.749561</ele>
        <time>2021-10-03T10:05:41.000Z</time>
      </trkpt>
      <trkpt lat="43.63992" lon="2.3243">
        <ele>315.555069</ele>
        <time>2021-10-03T10:05:42.000Z</time>
      </trkpt>
      <trkpt lat="43.63992" lon="2.32428">
        <ele>315.37368</ele>
        <time>2021-10-03T10:05:43.000Z</time>
      </trkpt>
      <trkpt lat="43.63992" lon="2.32425">
        <ele>314.945525</ele>
        <time>2021-10-03T10:05:44.000Z</time>
      </trkpt>
      <trkpt lat="43.63992" lon="2.32422">
        <ele>314.495151</ele>
        <time>2021-10-03T10:05:45.000Z</time>
      </trkpt>
      <trkpt lat="43.63992" lon="2.32419">
        <ele>314.073783</ele>
        <time>2021-10-03T10:05:46.000Z</time>
      </trkpt>
      <trkpt lat="43.63992" lon="2.32416">
        <ele>313.68992</ele>
        <time>2021-10-03T10:05:47.000Z</time>
      </trkpt>
      <trkpt lat="43.63993" lon="2.32414">
        <ele>313.238577</ele>
        <time>2021-10-03T10:05:48.000Z</time>
      </trkpt>
      <trkpt lat="43.63993" lon="2.32411">
        <ele>312.82068</ele>
        <time>2021-10-03T10:05:49.000Z</time>
      </trkpt>
      <trkpt lat="43.63992" lon="2.32408">
        <ele>312.45707</ele>
        <time>2021-10-03T10:05:50.000Z</time>
      </trkpt>
      <trkpt lat="43.63991" lon="2.32406">
        <ele>312.03765</ele>
        <time>2021-10-03T10:05:51.000Z</time>
      </trkpt>
      <trkpt lat="43.63991" lon="2.32403">
        <ele>311.645209</ele>
        <time>2021-10-03T10:05:52.000Z</time>
      </trkpt>
      <trkpt lat="43.63991" lon="2.324">
        <ele>311.187526</ele>
        <time>2021-10-03T10:05:53.000Z</time>
      </trkpt>
      <trkpt lat="43.6399" lon="2.32396">
        <ele>310.591356</ele>
        <time>2021-10-03T10:05:54.000Z</time>
      </trkpt>
      <trkpt lat="43.6399" lon="2.32392">
        <ele>310.024421</ele>
        <time>2021-10-03T10:05:55.000Z</time>
      </trkpt>
      <trkpt lat="43.6399" lon="2.32388">
        <ele>309.384348</ele>
        <time>2021-10-03T10:05:56.000Z</time>
      </trkpt>
      <trkpt lat="43.63991" lon="2.32384">
        <ele>308.788178</ele>
        <time>2021-10-03T10:05:57.000Z</time>
      </trkpt>
      <trkpt lat="43.6399" lon="2.3238">
        <ele>308.180598</ele>
        <time>2021-10-03T10:05:58.000Z</time>
      </trkpt>
      <trkpt lat="43.6399" lon="2.32376">
        <ele>307.530663</ele>
        <time>2021-10-03T10:05:59.000Z</time>
      </trkpt>
      <trkpt lat="43.63989" lon="2.32372">
        <ele>306.908723</ele>
        <time>2021-10-03T10:06:00.000Z</time>
      </trkpt>
      <trkpt lat="43.63989" lon="2.32367">
        <ele>306.170525</ele>
        <time>2021-10-03T10:06:01.000Z</time>
      </trkpt>
      <trkpt lat="43.6399" lon="2.32362">
        <ele>305.447609</ele>
        <time>2021-10-03T10:06:02.000Z</time>
      </trkpt>
      <trkpt lat="43.63991" lon="2.32357">
        <ele>304.768056</ele>
        <time>2021-10-03T10:06:03.000Z</time>
      </trkpt>
      <trkpt lat="43.6399" lon="2.32352">
        <ele>304.042037</ele>
        <time>2021-10-03T10:06:04.000Z</time>
      </trkpt>
      <trkpt lat="43.6399" lon="2.32348">
        <ele>303.314015</ele>
        <time>2021-10-03T10:06:05.000Z</time>
      </trkpt>
      <trkpt lat="43.6399" lon="2.32343">
        <ele>302.59058</ele>
        <time>2021-10-03T10:06:06.000Z</time>
      </trkpt>
      <trkpt lat="43.63989" lon="2.32338">
        <ele>301.881458</ele>
        <time>2021-10-03T10:06:07.000Z</time>
      </trkpt>
      <trkpt lat="43.63989" lon="2.32334">
        <ele>301.267601</ele>
        <time>2021-10-03T10:06:08.000Z</time>
      </trkpt>
      <trkpt lat="43.63988" lon="2.3233">
        <ele>300.700666</ele>
        <time>2021-10-03T10:06:09.000Z</time>
      </trkpt>
      <trkpt lat="43.63988" lon="2.32326">
        <ele>300.121628</ele>
        <time>2021-10-03T10:06:10.000Z</time>
      </trkpt>
      <trkpt lat="43.63987" lon="2.32322">
        <ele>299.508932</ele>
        <time>2021-10-03T10:06:11.000Z</time>
      </trkpt>
      <trkpt lat="43.63986" lon="2.32318">
        <ele>298.881993</ele>
        <time>2021-10-03T10:06:12.000Z</time>
      </trkpt>
      <trkpt lat="43.63986" lon="2.32314">
        <ele>298.285822</ele>
        <time>2021-10-03T10:06:13.000Z</time>
      </trkpt>
      <trkpt lat="43.63986" lon="2.32311">
        <ele>297.84996</ele>
        <time>2021-10-03T10:06:14.000Z</time>
      </trkpt>
      <trkpt lat="43.63988" lon="2.32309">
        <ele>297.394846</ele>
        <time>2021-10-03T10:06:15.000Z</time>
      </trkpt>
      <trkpt lat="43.6399" lon="2.32305">
        <ele>296.707716</ele>
        <time>2021-10-03T10:06:16.000Z</time>
      </trkpt>
      <trkpt lat="43.63991" lon="2.32303">
        <ele>296.277036</ele>
        <time>2021-10-03T10:06:17.000Z</time>
      </trkpt>
      <trkpt lat="43.63992" lon="2.323">
        <ele>295.870142</ele>
        <time>2021-10-03T10:06:18.000Z</time>
      </trkpt>
      <trkpt lat="43.63991" lon="2.32298">
        <ele>295.583027</ele>
        <time>2021-10-03T10:06:19.000Z</time>
      </trkpt>
      <trkpt lat="43.6399" lon="2.32297">
        <ele>295.287735</ele>
        <time>2021-10-03T10:06:20.000Z</time>
      </trkpt>
      <trkpt lat="43.63989" lon="2.32296">
        <ele>294.967336</ele>
        <time>2021-10-03T10:06:21.000Z</time>
      </trkpt>
      <trkpt lat="43.63987" lon="2.32295">
        <ele>294.63932</ele>
        <time>2021-10-03T10:06:22.000Z</time>
      </trkpt>
      <trkpt lat="43.63986" lon="2.32293">
        <ele>294.313495</ele>
        <time>2021-10-03T10:06:23.000Z</time>
      </trkpt>
      <trkpt lat="43.63984" lon="2.32291">
        <ele>293.757482</ele>
        <time>2021-10-03T10:06:24.000Z</time>
      </trkpt>
      <trkpt lat="43.63983" lon="2.32289">
        <ele>293.321854</ele>
        <time>2021-10-03T10:06:25.000Z</time>
      </trkpt>
      <trkpt lat="43.63982" lon="2.32287">
        <ele>292.938289</ele>
        <time>2021-10-03T10:06:26.000Z</time>
      </trkpt>
      <trkpt lat="43.6398" lon="2.32285">
        <ele>292.513042</ele>
        <time>2021-10-03T10:06:27.000Z</time>
      </trkpt>
      <trkpt lat="43.63979" lon="2.32282">
        <ele>292.054835</ele>
        <time>2021-10-03T10:06:28.000Z</time>
      </trkpt>
      <trkpt lat="43.63978" lon="2.3228">
        <ele>291.619207</ele>
        <time>2021-10-03T10:06:29.000Z</time>
      </trkpt>
      <trkpt lat="43.63977" lon="2.32277">
        <ele>291.26883</ele>
        <time>2021-10-03T10:06:30.000Z</time>
      </trkpt>
      <trkpt lat="43.63976" lon="2.32276">
        <ele>290.981709</ele>
        <time>2021-10-03T10:06:31.000Z</time>
      </trkpt>
      <trkpt lat="43.63975" lon="2.32274">
        <ele>290.598973</ele>
        <time>2021-10-03T10:06:32.000Z</time>
      </trkpt>
      <trkpt lat="43.63974" lon="2.32272">
        <ele>290.30368</ele>
        <time>2021-10-03T10:06:33.000Z</time>
      </trkpt>
      <trkpt lat="43.63972" lon="2.32271">
        <ele>289.833711</ele>
        <time>2021-10-03T10:06:34.000Z</time>
      </trkpt>
      <trkpt lat="43.6397" lon="2.32268">
        <ele>289.236715</ele>
        <time>2021-10-03T10:06:35.000Z</time>
      </trkpt>
      <trkpt lat="43.63968" lon="2.32266">
        <ele>288.774933</ele>
        <time>2021-10-03T10:06:36.000Z</time>
      </trkpt>
      <trkpt lat="43.63966" lon="2.32266">
        <ele>288.365173</ele>
        <time>2021-10-03T10:06:37.000Z</time>
      </trkpt>
      <trkpt lat="43.63964" lon="2.32264">
        <ele>287.852444</ele>
        <time>2021-10-03T10:06:38.000Z</time>
      </trkpt>
      <trkpt lat="43.63962" lon="2.32262">
        <ele>287.298044</ele>
        <time>2021-10-03T10:06:39.000Z</time>
      </trkpt>
      <trkpt lat="43.63959" lon="2.3226">
        <ele>286.701048</ele>
        <time>2021-10-03T10:06:40.000Z</time>
      </trkpt>
      <trkpt lat="43.63957" lon="2.32257">
        <ele>286.138243</ele>
        <time>2021-10-03T10:06:41.000Z</time>
      </trkpt>
      <trkpt lat="43.63955" lon="2.32255">
        <ele>285.541247</ele>
        <time>2021-10-03T10:06:42.000Z</time>
      </trkpt>
      <trkpt lat="43.63953" lon="2.32252">
        <ele>284.928095</ele>
        <time>2021-10-03T10:06:43.000Z</time>
      </trkpt>
      <trkpt lat="43.63951" lon="2.32249">
        <ele>284.402927</ele>
        <time>2021-10-03T10:06:44.000Z</time>
      </trkpt>
      <trkpt lat="43.63949" lon="2.32247">
        <ele>283.967298</ele>
        <time>2021-10-03T10:06:45.000Z</time>
      </trkpt>
      <trkpt lat="43.63948" lon="2.32245">
        <ele>283.49911</ele>
        <time>2021-10-03T10:06:46.000Z</time>
      </trkpt>
      <trkpt lat="43.63946" lon="2.32243">
        <ele>282.993394</ele>
        <time>2021-10-03T10:06:47.000Z</time>
      </trkpt>
      <trkpt lat="43.63944" lon="2.32241">
        <ele>282.454142</ele>
        <time>2021-10-03T10:06:48.000Z</time>
      </trkpt>
      <trkpt lat="43.63941" lon="2.32239">
        <ele>281.914889</ele>
        <time>2021-10-03T10:06:49.000Z</time>
      </trkpt>
      <trkpt lat="43.63939" lon="2.32237">
        <ele>281.460962</ele>
        <time>2021-10-03T10:06:50.000Z</time>
      </trkpt>
      <trkpt lat="43.63938" lon="2.32236">
        <ele>281.040045</ele>
        <time>2021-10-03T10:06:51.000Z</time>
      </trkpt>
      <trkpt lat="43.63937" lon="2.32234">
        <ele>280.724759</ele>
        <time>2021-10-03T10:06:52.000Z</time>
      </trkpt>
      <trkpt lat="43.63936" lon="2.32233">
        <ele>280.449656</ele>
        <time>2021-10-03T10:06:53.000Z</time>
      </trkpt>
      <trkpt lat="43.63934" lon="2.32231">
        <ele>280.044354</ele>
        <time>2021-10-03T10:06:54.000Z</time>
      </trkpt>
      <trkpt lat="43.63933" lon="2.32229">
        <ele>279.729068</ele>
        <time>2021-10-03T10:06:55.000Z</time>
      </trkpt>
      <trkpt lat="43.63933" lon="2.32227">
        <ele>279.404527</ele>
        <time>2021-10-03T10:06:56.000Z</time>
      </trkpt>
      <trkpt lat="43.63932" lon="2.32226">
        <ele>279.163642</ele>
        <time>2021-10-03T10:06:57.000Z</time>
      </trkpt>
      <trkpt lat="43.6393" lon="2.32224">
        <ele>278.663185</ele>
        <time>2021-10-03T10:06:58.000Z</time>
      </trkpt>
      <trkpt lat="43.63928" lon="2.3222">
        <ele>278.037786</ele>
        <time>2021-10-03T10:06:59.000Z</time>
      </trkpt>
      <trkpt lat="43.63927" lon="2.32217">
        <ele>277.601009</ele>
        <time>2021-10-03T10:07:00.000Z</time>
      </trkpt>
      <trkpt lat="43.63926" lon="2.32214">
        <ele>277.098358</ele>
        <time>2021-10-03T10:07:01.000Z</time>
      </trkpt>
      <trkpt lat="43.63924" lon="2.32211">
        <ele>276.569246</ele>
        <time>2021-10-03T10:07:02.000Z</time>
      </trkpt>
      <trkpt lat="43.63923" lon="2.32209">
        <ele>276.233835</ele>
        <time>2021-10-03T10:07:03.000Z</time>
      </trkpt>
      <trkpt lat="43.63922" lon="2.32207">
        <ele>275.806012</ele>
        <time>2021-10-03T10:07:04.000Z</time>
      </trkpt>
      <trkpt lat="43.63921" lon="2.32203">
        <ele>275.330075</ele>
        <time>2021-10-03T10:07:05.000Z</time>
      </trkpt>
      <trkpt lat="43.6392" lon="2.32201">
        <ele>274.915104</ele>
        <time>2021-10-03T10:07:06.000Z</time>
      </trkpt>
      <trkpt lat="43.63919" lon="2.32199">
        <ele>274.587745</ele>
        <time>2021-10-03T10:07:07.000Z</time>
      </trkpt>
      <trkpt lat="43.63917" lon="2.32195">
        <ele>273.926695</ele>
        <time>2021-10-03T10:07:08.000Z</time>
      </trkpt>
      <trkpt lat="43.63915" lon="2.3219">
        <ele>273.123695</ele>
        <time>2021-10-03T10:07:09.000Z</time>
      </trkpt>
      <trkpt lat="43.63914" lon="2.32185">
        <ele>272.444695</ele>
        <time>2021-10-03T10:07:10.000Z</time>
      </trkpt>
      <trkpt lat="43.63914" lon="2.32181">
        <ele>271.901708</ele>
        <time>2021-10-03T10:07:11.000Z</time>
      </trkpt>
      <trkpt lat="43.63912" lon="2.32176">
        <ele>271.142832</ele>
        <time>2021-10-03T10:07:12.000Z</time>
      </trkpt>
      <trkpt lat="43.63912" lon="2.32172">
        <ele>270.623704</ele>
        <time>2021-10-03T10:07:13.000Z</time>
      </trkpt>
      <trkpt lat="43.6391" lon="2.32168">
        <ele>269.986064</ele>
        <time>2021-10-03T10:07:14.000Z</time>
      </trkpt>
      <trkpt lat="43.63908" lon="2.32164">
        <ele>269.327156</ele>
        <time>2021-10-03T10:07:15.000Z</time>
      </trkpt>
      <trkpt lat="43.63906" lon="2.32161">
        <ele>268.813103</ele>
        <time>2021-10-03T10:07:16.000Z</time>
      </trkpt>
      <trkpt lat="43.63904" lon="2.32159">
        <ele>268.322762</ele>
        <time>2021-10-03T10:07:17.000Z</time>
      </trkpt>
      <trkpt lat="43.63902" lon="2.32157">
        <ele>267.832421</ele>
        <time>2021-10-03T10:07:18.000Z</time>
      </trkpt>
      <trkpt lat="43.63901" lon="2.32155">
        <ele>267.430572</ele>
        <time>2021-10-03T10:07:19.000Z</time>
      </trkpt>
      <trkpt lat="43.639" lon="2.32153">
        <ele>267.139386</ele>
        <time>2021-10-03T10:07:20.000Z</time>
      </trkpt>
      <trkpt lat="43.63899" lon="2.32152">
        <ele>266.926919</ele>
        <time>2021-10-03T10:07:21.000Z</time>
      </trkpt>
      <trkpt lat="43.63899" lon="2.3215">
        <ele>266.760405</ele>
        <time>2021-10-03T10:07:22.000Z</time>
      </trkpt>
      <trkpt lat="43.63899" lon="2.3215">
        <ele>266.74662</ele>
        <time>2021-10-03T10:07:23.000Z</time>
      </trkpt>
      <trkpt lat="43.63899" lon="2.3215">
        <ele>266.74662</ele>
        <time>2021-10-03T10:07:24.000Z</time>
      </trkpt>
      <trkpt lat="43.63899" lon="2.3215">
        <ele>266.74662</ele>
        <time>2021-10-03T10:07:25.000Z</time>
      </trkpt>
      <trkpt lat="43.63899" lon="2.3215">
        <ele>266.74662</ele>
        <time>2021-10-03T10:07:27.000Z</time>
      </trkpt>
      <trkpt lat="43.63899" lon="2.3215">
        <ele>266.74662</ele>
        <time>2021-10-03T10:07:29.000Z</time>
      </trkpt>
      <trkpt lat="43.63903" lon="2.3215">
        <ele>266.089669</ele>
        <time>2021-10-03T10:07:52.000Z</time>
      </trkpt>
      <trkpt lat="43.63904" lon="2.32151">
        <ele>265.708987</ele>
        <time>2021-10-03T10:07:53.000Z</time>
      </trkpt>
      <trkpt lat="43.63906" lon="2.32153">
        <ele>265.298021</ele>
        <time>2021-10-03T10:07:54.000Z</time>
      </trkpt>
      <trkpt lat="43.63908" lon="2.32155">
        <ele>264.831032</ele>
        <time>2021-10-03T10:07:55.000Z</time>
      </trkpt>
      <trkpt lat="43.6391" lon="2.32158">
        <ele>264.317324</ele>
        <time>2021-10-03T10:07:56.000Z</time>
      </trkpt>
      <trkpt lat="43.63911" lon="2.3216">
        <ele>263.887376</ele>
        <time>2021-10-03T10:07:57.000Z</time>
      </trkpt>
      <trkpt lat="43.63913" lon="2.32161">
        <ele>263.489453</ele>
        <time>2021-10-03T10:07:58.000Z</time>
      </trkpt>
      <trkpt lat="43.63915" lon="2.32161">
        <ele>263.146313</ele>
        <time>2021-10-03T10:07:59.000Z</time>
      </trkpt>
      <trkpt lat="43.63916" lon="2.3216">
        <ele>262.847161</ele>
        <time>2021-10-03T10:08:00.000Z</time>
      </trkpt>
      <trkpt lat="43.63916" lon="2.32157">
        <ele>262.456975</ele>
        <time>2021-10-03T10:08:01.000Z</time>
      </trkpt>
      <trkpt lat="43.63915" lon="2.32154">
        <ele>262.009322</ele>
        <time>2021-10-03T10:08:02.000Z</time>
      </trkpt>
      <trkpt lat="43.63914" lon="2.32151">
        <ele>261.557976</ele>
        <time>2021-10-03T10:08:03.000Z</time>
      </trkpt>
      <trkpt lat="43.63913" lon="2.32149">
        <ele>261.178214</ele>
        <time>2021-10-03T10:08:04.000Z</time>
      </trkpt>
      <trkpt lat="43.63912" lon="2.32147">
        <ele>260.887028</ele>
        <time>2021-10-03T10:08:05.000Z</time>
      </trkpt>
      <trkpt lat="43.63911" lon="2.32145">
        <ele>260.518417</ele>
        <time>2021-10-03T10:08:06.000Z</time>
      </trkpt>
      <trkpt lat="43.6391" lon="2.32142">
        <ele>260.070754</ele>
        <time>2021-10-03T10:08:07.000Z</time>
      </trkpt>
      <trkpt lat="43.63908" lon="2.32139">
        <ele>259.622171</ele>
        <time>2021-10-03T10:08:08.000Z</time>
      </trkpt>
      <trkpt lat="43.63907" lon="2.32136">
        <ele>259.073258</ele>
        <time>2021-10-03T10:08:09.000Z</time>
      </trkpt>
      <trkpt lat="43.63905" lon="2.32133">
        <ele>258.524344</ele>
        <time>2021-10-03T10:08:10.000Z</time>
      </trkpt>
      <trkpt lat="43.63903" lon="2.32129">
        <ele>257.905842</ele>
        <time>2021-10-03T10:08:11.000Z</time>
      </trkpt>
      <trkpt lat="43.63901" lon="2.32127">
        <ele>257.433664</ele>
        <time>2021-10-03T10:08:12.000Z</time>
      </trkpt>
      <trkpt lat="43.63899" lon="2.32125">
        <ele>256.955196</ele>
        <time>2021-10-03T10:08:13.000Z</time>
      </trkpt>
      <trkpt lat="43.63897" lon="2.32124">
        <ele>256.518162</ele>
        <time>2021-10-03T10:08:14.000Z</time>
      </trkpt>
      <trkpt lat="43.63895" lon="2.32124">
        <ele>256.079194</ele>
        <time>2021-10-03T10:08:15.000Z</time>
      </trkpt>
      <trkpt lat="43.63892" lon="2.32124">
        <ele>255.580887</ele>
        <time>2021-10-03T10:08:16.000Z</time>
      </trkpt>
      <trkpt lat="43.6389" lon="2.32123">
        <ele>255.063646</ele>
        <time>2021-10-03T10:08:17.000Z</time>
      </trkpt>
      <trkpt lat="43.63886" lon="2.32122">
        <ele>254.321163</ele>
        <time>2021-10-03T10:08:18.000Z</time>
      </trkpt>
      <trkpt lat="43.63882" lon="2.32121">
        <ele>253.584333</ele>
        <time>2021-10-03T10:08:19.000Z</time>
      </trkpt>
      <trkpt lat="43.63879" lon="2.32121">
        <ele>252.993847</ele>
        <time>2021-10-03T10:08:20.000Z</time>
      </trkpt>
      <trkpt lat="43.63875" lon="2.32122">
        <ele>252.334441</ele>
        <time>2021-10-03T10:08:21.000Z</time>
      </trkpt>
      <trkpt lat="43.63872" lon="2.32123">
        <ele>251.683155</ele>
        <time>2021-10-03T10:08:22.000Z</time>
      </trkpt>
      <trkpt lat="43.63868" lon="2.32122">
        <ele>250.954623</ele>
        <time>2021-10-03T10:08:23.000Z</time>
      </trkpt>
      <trkpt lat="43.63864" lon="2.3212">
        <ele>250.143111</ele>
        <time>2021-10-03T10:08:24.000Z</time>
      </trkpt>
      <trkpt lat="43.63859" lon="2.32118">
        <ele>249.193373</ele>
        <time>2021-10-03T10:08:25.000Z</time>
      </trkpt>
      <trkpt lat="43.63855" lon="2.32116">
        <ele>248.193573</ele>
        <time>2021-10-03T10:08:26.000Z</time>
      </trkpt>
      <trkpt lat="43.6385" lon="2.32113">
        <ele>247.155265</ele>
        <time>2021-10-03T10:08:27.000Z</time>
      </trkpt>
      <trkpt lat="43.63845" lon="2.3211">
        <ele>246.260929</ele>
        <time>2021-10-03T10:08:28.000Z</time>
      </trkpt>
      <trkpt lat="43.63842" lon="2.32108">
        <ele>245.539493</ele>
        <time>2021-10-03T10:08:29.000Z</time>
      </trkpt>
      <trkpt lat="43.63839" lon="2.32106">
        <ele>244.974323</ele>
        <time>2021-10-03T10:08:30.000Z</time>
      </trkpt>
      <trkpt lat="43.63836" lon="2.32105">
        <ele>244.441875</ele>
        <time>2021-10-03T10:08:31.000Z</time>
      </trkpt>
      <trkpt lat="43.63835" lon="2.32103">
        <ele>244.018182</ele>
        <time>2021-10-03T10:08:32.000Z</time>
      </trkpt>
      <trkpt lat="43.63834" lon="2.32101">
        <ele>243.698081</ele>
        <time>2021-10-03T10:08:33.000Z</time>
      </trkpt>
      <trkpt lat="43.63834" lon="2.32098">
        <ele>243.416106</ele>
        <time>2021-10-03T10:08:34.000Z</time>
      </trkpt>
      <trkpt lat="43.63835" lon="2.32097">
        <ele>243.151248</ele>
        <time>2021-10-03T10:08:35.000Z</time>
      </trkpt>
      <trkpt lat="43.63836" lon="2.32097">
        <ele>242.956015</ele>
        <time>2021-10-03T10:08:36.000Z</time>
      </trkpt>
      <trkpt lat="43.63838" lon="2.32098">
        <ele>242.661059</ele>
        <time>2021-10-03T10:08:37.000Z</time>
      </trkpt>
      <trkpt lat="43.6384" lon="2.32099">
        <ele>242.179493</ele>
        <time>2021-10-03T10:08:38.000Z</time>
      </trkpt>
      <trkpt lat="43.63843" lon="2.321">
        <ele>241.712651</ele>
        <time>2021-10-03T10:08:39.000Z</time>
      </trkpt>
      <trkpt lat="43.63847" lon="2.321">
        <ele>241.038567</ele>
        <time>2021-10-03T10:08:40.000Z</time>
      </trkpt>
      <trkpt lat="43.63851" lon="2.321">
        <ele>240.365092</ele>
        <time>2021-10-03T10:08:41.000Z</time>
      </trkpt>
      <trkpt lat="43.63855" lon="2.32099">
        <ele>239.546802</ele>
        <time>2021-10-03T10:08:42.000Z</time>
      </trkpt>
      <trkpt lat="43.63859" lon="2.32099">
        <ele>238.800219</ele>
        <time>2021-10-03T10:08:43.000Z</time>
      </trkpt>
      <trkpt lat="43.63863" lon="2.32098">
        <ele>238.101953</ele>
        <time>2021-10-03T10:08:44.000Z</time>
      </trkpt>
      <trkpt lat="43.63867" lon="2.32097">
        <ele>237.428868</ele>
        <time>2021-10-03T10:08:45.000Z</time>
      </trkpt>
      <trkpt lat="43.63869" lon="2.32096">
        <ele>236.967935</ele>
        <time>2021-10-03T10:08:46.000Z</time>
      </trkpt>
      <trkpt lat="43.63872" lon="2.32094">
        <ele>236.375752</ele>
        <time>2021-10-03T10:08:47.000Z</time>
      </trkpt>
      <trkpt lat="43.63875" lon="2.32091">
        <ele>235.719849</ele>
        <time>2021-10-03T10:08:48.000Z</time>
      </trkpt>
      <trkpt lat="43.63878" lon="2.32089">
        <ele>235.164727</ele>
        <time>2021-10-03T10:08:49.000Z</time>
      </trkpt>
      <trkpt lat="43.63882" lon="2.32087">
        <ele>234.543249</ele>
        <time>2021-10-03T10:08:50.000Z</time>
      </trkpt>
      <trkpt lat="43.63884" lon="2.32085">
        <ele>233.994527</ele>
        <time>2021-10-03T10:08:51.000Z</time>
      </trkpt>
      <trkpt lat="43.63887" lon="2.32084">
        <ele>233.463607</ele>
        <time>2021-10-03T10:08:52.000Z</time>
      </trkpt>
      <trkpt lat="43.6389" lon="2.32082">
        <ele>232.835294</ele>
        <time>2021-10-03T10:08:53.000Z</time>
      </trkpt>
      <trkpt lat="43.63893" lon="2.32081">
        <ele>232.25359</ele>
        <time>2021-10-03T10:08:54.000Z</time>
      </trkpt>
      <trkpt lat="43.63896" lon="2.32079">
        <ele>231.68857</ele>
        <time>2021-10-03T10:08:55.000Z</time>
      </trkpt>
      <trkpt lat="43.639" lon="2.32078">
        <ele>231.075475</ele>
        <time>2021-10-03T10:08:56.000Z</time>
      </trkpt>
      <trkpt lat="43.63904" lon="2.32077">
        <ele>230.318404</ele>
        <time>2021-10-03T10:08:57.000Z</time>
      </trkpt>
      <trkpt lat="43.63909" lon="2.32077">
        <ele>229.520519</ele>
        <time>2021-10-03T10:08:58.000Z</time>
      </trkpt>
      <trkpt lat="43.63913" lon="2.32076">
        <ele>228.702229</ele>
        <time>2021-10-03T10:08:59.000Z</time>
      </trkpt>
      <trkpt lat="43.63918" lon="2.32074">
        <ele>227.855525</ele>
        <time>2021-10-03T10:09:00.000Z</time>
      </trkpt>
      <trkpt lat="43.63922" lon="2.32072">
        <ele>227.135372</ele>
        <time>2021-10-03T10:09:01.000Z</time>
      </trkpt>
      <trkpt lat="43.63925" lon="2.3207">
        <ele>226.512221</ele>
        <time>2021-10-03T10:09:02.000Z</time>
      </trkpt>
      <trkpt lat="43.63928" lon="2.32069">
        <ele>225.934626</ele>
        <time>2021-10-03T10:09:03.000Z</time>
      </trkpt>
      <trkpt lat="43.6393" lon="2.32067">
        <ele>225.428254</ele>
        <time>2021-10-03T10:09:04.000Z</time>
      </trkpt>
      <trkpt lat="43.63933" lon="2.32066">
        <ele>224.907361</ele>
        <time>2021-10-03T10:09:05.000Z</time>
      </trkpt>
      <trkpt lat="43.63934" lon="2.32063">
        <ele>224.491716</ele>
        <time>2021-10-03T10:09:06.000Z</time>
      </trkpt>
      <trkpt lat="43.63934" lon="2.32061">
        <ele>224.218457</ele>
        <time>2021-10-03T10:09:07.000Z</time>
      </trkpt>
      <trkpt lat="43.63933" lon="2.32061">
        <ele>224.023223</ele>
        <time>2021-10-03T10:09:08.000Z</time>
      </trkpt>
      <trkpt lat="43.63931" lon="2.32063">
        <ele>223.671378</ele>
        <time>2021-10-03T10:09:09.000Z</time>
      </trkpt>
      <trkpt lat="43.63929" lon="2.32065">
        <ele>223.215475</ele>
        <time>2021-10-03T10:09:10.000Z</time>
      </trkpt>
      <trkpt lat="43.63927" lon="2.32067">
        <ele>222.784578</ele>
        <time>2021-10-03T10:09:11.000Z</time>
      </trkpt>
      <trkpt lat="43.63925" lon="2.32068">
        <ele>222.43633</ele>
        <time>2021-10-03T10:09:12.000Z</time>
      </trkpt>
      <trkpt lat="43.63923" lon="2.32068">
        <ele>222.028996</ele>
        <time>2021-10-03T10:09:13.000Z</time>
      </trkpt>
      <trkpt lat="43.6392" lon="2.32067">
        <ele>221.562154</ele>
        <time>2021-10-03T10:09:14.000Z</time>
      </trkpt>
      <trkpt lat="43.63918" lon="2.32066">
        <ele>221.131111</ele>
        <time>2021-10-03T10:09:15.000Z</time>
      </trkpt>
      <trkpt lat="43.63915" lon="2.32065">
        <ele>220.639219</ele>
        <time>2021-10-03T10:09:16.000Z</time>
      </trkpt>
      <trkpt lat="43.63913" lon="2.32065">
        <ele>220.160358</ele>
        <time>2021-10-03T10:09:17.000Z</time>
      </trkpt>
      <trkpt lat="43.6391" lon="2.32065">
        <ele>219.753024</ele>
        <time>2021-10-03T10:09:18.000Z</time>
      </trkpt>
      <trkpt lat="43.63908" lon="2.32066">
        <ele>219.288121</ele>
        <time>2021-10-03T10:09:19.000Z</time>
      </trkpt>
      <trkpt lat="43.63905" lon="2.32065">
        <ele>218.735378</ele>
        <time>2021-10-03T10:09:20.000Z</time>
      </trkpt>
      <trkpt lat="43.63902" lon="2.32065">
        <ele>218.256517</ele>
        <time>2021-10-03T10:09:21.000Z</time>
      </trkpt>
      <trkpt lat="43.63899" lon="2.32064">
        <ele>217.706824</ele>
        <time>2021-10-03T10:09:22.000Z</time>
      </trkpt>
      <trkpt lat="43.63896" lon="2.32064">
        <ele>217.225908</ele>
        <time>2021-10-03T10:09:23.000Z</time>
      </trkpt>
      <trkpt lat="43.63895" lon="2.32065">
        <ele>216.924565</ele>
        <time>2021-10-03T10:09:24.000Z</time>
      </trkpt>
      <trkpt lat="43.63892" lon="2.32064">
        <ele>216.459662</ele>
        <time>2021-10-03T10:09:25.000Z</time>
      </trkpt>
      <trkpt lat="43.6389" lon="2.32064">
        <ele>215.999197</ele>
        <time>2021-10-03T10:09:26.000Z</time>
      </trkpt>
      <trkpt lat="43.63886" lon="2.32064">
        <ele>215.325722</ele>
        <time>2021-10-03T10:09:27.000Z</time>
      </trkpt>
      <trkpt lat="43.63883" lon="2.32065">
        <ele>214.774318</ele>
        <time>2021-10-03T10:09:28.000Z</time>
      </trkpt>
      <trkpt lat="43.6388" lon="2.32065">
        <ele>214.289999</ele>
        <time>2021-10-03T10:09:29.000Z</time>
      </trkpt>
      <trkpt lat="43.63877" lon="2.32063">
        <ele>213.656858</ele>
        <time>2021-10-03T10:09:30.000Z</time>
      </trkpt>
      <trkpt lat="43.63874" lon="2.32061">
        <ele>213.021177</ele>
        <time>2021-10-03T10:09:31.000Z</time>
      </trkpt>
      <trkpt lat="43.6387" lon="2.32058">
        <ele>212.480483</ele>
        <time>2021-10-03T10:09:32.000Z</time>
      </trkpt>
      <trkpt lat="43.63867" lon="2.32054">
        <ele>212.207193</ele>
        <time>2021-10-03T10:09:33.000Z</time>
      </trkpt>
      <trkpt lat="43.63863" lon="2.32049">
        <ele>211.912099</ele>
        <time>2021-10-03T10:09:34.000Z</time>
      </trkpt>
      <trkpt lat="43.63859" lon="2.32044">
        <ele>211.583578</ele>
        <time>2021-10-03T10:09:35.000Z</time>
      </trkpt>
      <trkpt lat="43.63856" lon="2.3204">
        <ele>211.299022</ele>
        <time>2021-10-03T10:09:36.000Z</time>
      </trkpt>
      <trkpt lat="43.63851" lon="2.32035">
        <ele>210.943716</ele>
        <time>2021-10-03T10:09:37.000Z</time>
      </trkpt>
      <trkpt lat="43.63847" lon="2.32033">
        <ele>210.668219</ele>
        <time>2021-10-03T10:09:38.000Z</time>
      </trkpt>
      <trkpt lat="43.63843" lon="2.32032">
        <ele>210.380104</ele>
        <time>2021-10-03T10:09:39.000Z</time>
      </trkpt>
      <trkpt lat="43.63838" lon="2.32032">
        <ele>210.118676</ele>
        <time>2021-10-03T10:09:40.000Z</time>
      </trkpt>
      <trkpt lat="43.63833" lon="2.32031">
        <ele>209.785612</ele>
        <time>2021-10-03T10:09:41.000Z</time>
      </trkpt>
      <trkpt lat="43.63828" lon="2.3203">
        <ele>209.453245</ele>
        <time>2021-10-03T10:09:42.000Z</time>
      </trkpt>
      <trkpt lat="43.63823" lon="2.32027">
        <ele>209.110054</ele>
        <time>2021-10-03T10:09:43.000Z</time>
      </trkpt>
      <trkpt lat="43.63809" lon="2.32026">
        <ele>212.7</ele>
      </trkpt>
      <trkpt lat="43.63791" lon="2.32">
        <ele>203.1</ele>
      </trkpt>
      <trkpt lat="43.63673" lon="2.31985">
        <ele>203.6</ele>
      </trkpt>
      <trkpt lat="43.63542" lon="2.3191">
        <ele>206.3</ele>
      </trkpt>
      <trkpt lat="43.63507" lon="2.31892">
        <ele>207.7</ele>
      </trkpt>
      <trkpt lat="43.63485" lon="2.31863">
        <ele>205.2</ele>
      </trkpt>
      <trkpt lat="43.6344" lon="2.31825">
        <ele>201.1</ele>
      </trkpt>
      <trkpt lat="43.63369" lon="2.31785">
        <ele>198.994767</ele>
        <time>2021-10-03T10:11:17.000Z</time>
      </trkpt>
      <trkpt lat="43.63366" lon="2.31782">
        <ele>198.98582</ele>
        <time>2021-10-03T10:11:18.000Z</time>
      </trkpt>
      <trkpt lat="43.63365" lon="2.31779">
        <ele>198.977267</ele>
        <time>2021-10-03T10:11:19.000Z</time>
      </trkpt>
      <trkpt lat="43.63362" lon="2.31775">
        <ele>198.965967</ele>
        <time>2021-10-03T10:11:20.000Z</time>
      </trkpt>
      <trkpt lat="43.6336" lon="2.31769">
        <ele>198.952708</ele>
        <time>2021-10-03T10:11:21.000Z</time>
      </trkpt>
      <trkpt lat="43.63358" lon="2.31764">
        <ele>198.939226</ele>
        <time>2021-10-03T10:11:22.000Z</time>
      </trkpt>
      <trkpt lat="43.63355" lon="2.31758">
        <ele>198.925036</ele>
        <time>2021-10-03T10:11:23.000Z</time>
      </trkpt>
      <trkpt lat="43.63353" lon="2.31752">
        <ele>198.910469</ele>
        <time>2021-10-03T10:11:24.000Z</time>
      </trkpt>
      <trkpt lat="43.63351" lon="2.31746">
        <ele>198.895902</ele>
        <time>2021-10-03T10:11:25.000Z</time>
      </trkpt>
      <trkpt lat="43.63349" lon="2.3174">
        <ele>198.881524</ele>
        <time>2021-10-03T10:11:26.000Z</time>
      </trkpt>
      <trkpt lat="43.63346" lon="2.31734">
        <ele>198.867335</ele>
        <time>2021-10-03T10:11:27.000Z</time>
      </trkpt>
      <trkpt lat="43.63344" lon="2.31728">
        <ele>198.852578</ele>
        <time>2021-10-03T10:11:28.000Z</time>
      </trkpt>
      <trkpt lat="43.63342" lon="2.31722">
        <ele>198.837247</ele>
        <time>2021-10-03T10:11:29.000Z</time>
      </trkpt>
      <trkpt lat="43.6334" lon="2.31716">
        <ele>198.822603</ele>
        <time>2021-10-03T10:11:30.000Z</time>
      </trkpt>
      <trkpt lat="43.63337" lon="2.31709">
        <ele>198.806693</ele>
        <time>2021-10-03T10:11:31.000Z</time>
      </trkpt>
      <trkpt lat="43.63335" lon="2.31703">
        <ele>198.791685</ele>
        <time>2021-10-03T10:11:32.000Z</time>
      </trkpt>
      <trkpt lat="43.63333" lon="2.31696">
        <ele>198.776926</ele>
        <time>2021-10-03T10:11:33.000Z</time>
      </trkpt>
      <trkpt lat="43.63331" lon="2.3169">
        <ele>198.761724</ele>
        <time>2021-10-03T10:11:34.000Z</time>
      </trkpt>
      <trkpt lat="43.63329" lon="2.31683">
        <ele>198.747197</ele>
        <time>2021-10-03T10:11:35.000Z</time>
      </trkpt>
      <trkpt lat="43.63327" lon="2.31677">
        <ele>198.73148</ele>
        <time>2021-10-03T10:11:36.000Z</time>
      </trkpt>
      <trkpt lat="43.63325" lon="2.31671">
        <ele>198.716837</ele>
        <time>2021-10-03T10:11:37.000Z</time>
      </trkpt>
      <trkpt lat="43.63323" lon="2.31664">
        <ele>198.702391</ele>
        <time>2021-10-03T10:11:38.000Z</time>
      </trkpt>
      <trkpt lat="43.63321" lon="2.31658">
        <ele>198.687824</ele>
        <time>2021-10-03T10:11:39.000Z</time>
      </trkpt>
      <trkpt lat="43.63318" lon="2.31652">
        <ele>198.67282</ele>
        <time>2021-10-03T10:11:40.000Z</time>
      </trkpt>
      <trkpt lat="43.63316" lon="2.31646">
        <ele>198.658253</ele>
        <time>2021-10-03T10:11:41.000Z</time>
      </trkpt>
      <trkpt lat="43.63314" lon="2.3164">
        <ele>198.643686</ele>
        <time>2021-10-03T10:11:42.000Z</time>
      </trkpt>
      <trkpt lat="43.63312" lon="2.31634">
        <ele>198.629966</ele>
        <time>2021-10-03T10:11:43.000Z</time>
      </trkpt>
      <trkpt lat="43.63311" lon="2.31629">
        <ele>198.616752</ele>
        <time>2021-10-03T10:11:44.000Z</time>
      </trkpt>
      <trkpt lat="43.6331" lon="2.31624">
        <ele>198.605653</ele>
        <time>2021-10-03T10:11:45.000Z</time>
      </trkpt>
      <trkpt lat="43.63308" lon="2.31618">
        <ele>198.593443</ele>
        <time>2021-10-03T10:11:46.000Z</time>
      </trkpt>
      <trkpt lat="43.63307" lon="2.31613">
        <ele>198.580229</ele>
        <time>2021-10-03T10:11:47.000Z</time>
      </trkpt>
      <trkpt lat="43.63305" lon="2.31606">
        <ele>198.566406</ele>
        <time>2021-10-03T10:11:48.000Z</time>
      </trkpt>
      <trkpt lat="43.63304" lon="2.316">
        <ele>198.552177</ele>
        <time>2021-10-03T10:11:49.000Z</time>
      </trkpt>
      <trkpt lat="43.63303" lon="2.31594">
        <ele>198.538242</ele>
        <time>2021-10-03T10:11:50.000Z</time>
      </trkpt>
      <trkpt lat="43.63301" lon="2.31587">
        <ele>198.523604</ele>
        <time>2021-10-03T10:11:51.000Z</time>
      </trkpt>
      <trkpt lat="43.633" lon="2.31581">
        <ele>198.509834</ele>
        <time>2021-10-03T10:11:52.000Z</time>
      </trkpt>
      <trkpt lat="43.63299" lon="2.31575">
        <ele>198.496417</ele>
        <time>2021-10-03T10:11:53.000Z</time>
      </trkpt>
      <trkpt lat="43.63297" lon="2.31569">
        <ele>198.467183</ele>
        <time>2021-10-03T10:11:54.000Z</time>
      </trkpt>
      <trkpt lat="43.63296" lon="2.31563">
        <ele>198.433986</ele>
        <time>2021-10-03T10:11:55.000Z</time>
      </trkpt>
      <trkpt lat="43.63294" lon="2.31556">
        <ele>198.395216</ele>
        <time>2021-10-03T10:11:56.000Z</time>
      </trkpt>
      <trkpt lat="43.63292" lon="2.31549">
        <ele>198.357884</ele>
        <time>2021-10-03T10:11:57.000Z</time>
      </trkpt>
      <trkpt lat="43.63291" lon="2.31542">
        <ele>198.320106</ele>
        <time>2021-10-03T10:11:58.000Z</time>
      </trkpt>
      <trkpt lat="43.6329" lon="2.31536">
        <ele>198.282271</ele>
        <time>2021-10-03T10:11:59.000Z</time>
      </trkpt>
      <trkpt lat="43.63288" lon="2.31529">
        <ele>198.245942</ele>
        <time>2021-10-03T10:12:00.000Z</time>
      </trkpt>
      <trkpt lat="43.63287" lon="2.31523">
        <ele>198.212109</ele>
        <time>2021-10-03T10:12:01.000Z</time>
      </trkpt>
      <trkpt lat="43.63285" lon="2.31517">
        <ele>198.179764</ele>
        <time>2021-10-03T10:12:02.000Z</time>
      </trkpt>
      <trkpt lat="43.63284" lon="2.31511">
        <ele>198.145552</ele>
        <time>2021-10-03T10:12:03.000Z</time>
      </trkpt>
      <trkpt lat="43.63283" lon="2.31504">
        <ele>198.106206</ele>
        <time>2021-10-03T10:12:04.000Z</time>
      </trkpt>
      <trkpt lat="43.63281" lon="2.31497">
        <ele>198.069877</ele>
        <time>2021-10-03T10:12:05.000Z</time>
      </trkpt>
      <trkpt lat="43.63279" lon="2.3149">
        <ele>198.028642</ele>
        <time>2021-10-03T10:12:06.000Z</time>
      </trkpt>
      <trkpt lat="43.63278" lon="2.31483">
        <ele>197.990091</ele>
        <time>2021-10-03T10:12:07.000Z</time>
      </trkpt>
      <trkpt lat="43.63276" lon="2.31475">
        <ele>197.948722</ele>
        <time>2021-10-03T10:12:08.000Z</time>
      </trkpt>
      <trkpt lat="43.63275" lon="2.31468">
        <ele>197.909921</ele>
        <time>2021-10-03T10:12:09.000Z</time>
      </trkpt>
      <trkpt lat="43.63274" lon="2.31461">
        <ele>197.871277</ele>
        <time>2021-10-03T10:12:10.000Z</time>
      </trkpt>
      <trkpt lat="43.63272" lon="2.31452">
        <ele>197.827368</ele>
        <time>2021-10-03T10:12:11.000Z</time>
      </trkpt>
      <trkpt lat="43.63271" lon="2.31445">
        <ele>197.786306</ele>
        <time>2021-10-03T10:12:12.000Z</time>
      </trkpt>
      <trkpt lat="43.63269" lon="2.31438">
        <ele>197.747464</ele>
        <time>2021-10-03T10:12:13.000Z</time>
      </trkpt>
      <trkpt lat="43.63267" lon="2.31431">
        <ele>197.711136</ele>
        <time>2021-10-03T10:12:14.000Z</time>
      </trkpt>
      <trkpt lat="43.63265" lon="2.31425">
        <ele>197.672499</ele>
        <time>2021-10-03T10:12:15.000Z</time>
      </trkpt>
      <trkpt lat="43.63263" lon="2.31419">
        <ele>197.638426</ele>
        <time>2021-10-03T10:12:16.000Z</time>
      </trkpt>
      <trkpt lat="43.63262" lon="2.31413">
        <ele>197.605229</ele>
        <time>2021-10-03T10:12:17.000Z</time>
      </trkpt>
      <trkpt lat="43.63261" lon="2.31406">
        <ele>197.571705</ele>
        <time>2021-10-03T10:12:18.000Z</time>
      </trkpt>
      <trkpt lat="43.63261" lon="2.314">
        <ele>197.540585</ele>
        <time>2021-10-03T10:12:19.000Z</time>
      </trkpt>
      <trkpt lat="43.6326" lon="2.31394">
        <ele>197.506994</ele>
        <time>2021-10-03T10:12:20.000Z</time>
      </trkpt>
      <trkpt lat="43.63258" lon="2.31387">
        <ele>197.465997</ele>
        <time>2021-10-03T10:12:21.000Z</time>
      </trkpt>
      <trkpt lat="43.63257" lon="2.31381">
        <ele>197.433812</ele>
        <time>2021-10-03T10:12:22.000Z</time>
      </trkpt>
      <trkpt lat="43.63256" lon="2.31376">
        <ele>197.405361</ele>
        <time>2021-10-03T10:12:23.000Z</time>
      </trkpt>
      <trkpt lat="43.63254" lon="2.31371">
        <ele>197.379819</ele>
        <time>2021-10-03T10:12:24.000Z</time>
      </trkpt>
      <trkpt lat="43.63253" lon="2.31365">
        <ele>197.345252</ele>
        <time>2021-10-03T10:12:25.000Z</time>
      </trkpt>
      <trkpt lat="43.63251" lon="2.31359">
        <ele>197.307568</ele>
        <time>2021-10-03T10:12:26.000Z</time>
      </trkpt>
      <trkpt lat="43.63249" lon="2.31353">
        <ele>197.27448</ele>
        <time>2021-10-03T10:12:27.000Z</time>
      </trkpt>
      <trkpt lat="43.63248" lon="2.31347">
        <ele>197.241284</ele>
        <time>2021-10-03T10:12:28.000Z</time>
      </trkpt>
      <trkpt lat="43.63247" lon="2.31341">
        <ele>197.211209</ele>
        <time>2021-10-03T10:12:29.000Z</time>
      </trkpt>
      <trkpt lat="43.63247" lon="2.31335">
        <ele>197.182476</ele>
        <time>2021-10-03T10:12:30.000Z</time>
      </trkpt>
      <trkpt lat="43.63246" lon="2.31329">
        <ele>197.152736</ele>
        <time>2021-10-03T10:12:31.000Z</time>
      </trkpt>
      <trkpt lat="43.63245" lon="2.31324">
        <ele>197.127193</ele>
        <time>2021-10-03T10:12:32.000Z</time>
      </trkpt>
      <trkpt lat="43.63243" lon="2.31318">
        <ele>197.096603</ele>
        <time>2021-10-03T10:12:33.000Z</time>
      </trkpt>
      <trkpt lat="43.63241" lon="2.31313">
        <ele>197.067461</ele>
        <time>2021-10-03T10:12:34.000Z</time>
      </trkpt>
      <trkpt lat="43.63239" lon="2.31306">
        <ele>197.032615</ele>
        <time>2021-10-03T10:12:35.000Z</time>
      </trkpt>
      <trkpt lat="43.63236" lon="2.313">
        <ele>196.997436</ele>
        <time>2021-10-03T10:12:36.000Z</time>
      </trkpt>
      <trkpt lat="43.63234" lon="2.31294">
        <ele>196.966132</ele>
        <time>2021-10-03T10:12:37.000Z</time>
      </trkpt>
      <trkpt lat="43.63232" lon="2.31288">
        <ele>196.933814</ele>
        <time>2021-10-03T10:12:38.000Z</time>
      </trkpt>
      <trkpt lat="43.63231" lon="2.31283">
        <ele>196.907589</ele>
        <time>2021-10-03T10:12:39.000Z</time>
      </trkpt>
      <trkpt lat="43.63229" lon="2.31278">
        <ele>196.881583</ele>
        <time>2021-10-03T10:12:40.000Z</time>
      </trkpt>
      <trkpt lat="43.63227" lon="2.31272">
        <ele>196.851866</ele>
        <time>2021-10-03T10:12:41.000Z</time>
      </trkpt>
      <trkpt lat="43.63225" lon="2.31267">
        <ele>196.824731</ele>
        <time>2021-10-03T10:12:42.000Z</time>
      </trkpt>
      <trkpt lat="43.63223" lon="2.31262">
        <ele>196.795449</ele>
        <time>2021-10-03T10:12:43.000Z</time>
      </trkpt>
      <trkpt lat="43.63222" lon="2.31256">
        <ele>196.765175</ele>
        <time>2021-10-03T10:12:44.000Z</time>
      </trkpt>
      <trkpt lat="43.6322" lon="2.3125">
        <ele>196.733267</ele>
        <time>2021-10-03T10:12:45.000Z</time>
      </trkpt>
      <trkpt lat="43.63218" lon="2.31243">
        <ele>196.700486</ele>
        <time>2021-10-03T10:12:46.000Z</time>
      </trkpt>
      <trkpt lat="43.63217" lon="2.31238">
        <ele>196.673803</ele>
        <time>2021-10-03T10:12:47.000Z</time>
      </trkpt>
      <trkpt lat="43.63217" lon="2.31234">
        <ele>196.652625</ele>
        <time>2021-10-03T10:12:48.000Z</time>
      </trkpt>
      <trkpt lat="43.63215" lon="2.31229">
        <ele>196.629582</ele>
        <time>2021-10-03T10:12:49.000Z</time>
      </trkpt>
      <trkpt lat="43.63214" lon="2.31224">
        <ele>196.602686</ele>
        <time>2021-10-03T10:12:50.000Z</time>
      </trkpt>
      <trkpt lat="43.63212" lon="2.31217">
        <ele>196.569447</ele>
        <time>2021-10-03T10:12:51.000Z</time>
      </trkpt>
      <trkpt lat="43.63212" lon="2.31211">
        <ele>196.539187</ele>
        <time>2021-10-03T10:12:52.000Z</time>
      </trkpt>
      <trkpt lat="43.6321" lon="2.31205">
        <ele>196.507112</ele>
        <time>2021-10-03T10:12:53.000Z</time>
      </trkpt>
      <trkpt lat="43.63208" lon="2.31198">
        <ele>196.471047</ele>
        <time>2021-10-03T10:12:54.000Z</time>
      </trkpt>
      <trkpt lat="43.63207" lon="2.31191">
        <ele>196.437471</ele>
        <time>2021-10-03T10:12:55.000Z</time>
      </trkpt>
      <trkpt lat="43.63207" lon="2.31184">
        <ele>196.40247</ele>
        <time>2021-10-03T10:12:56.000Z</time>
      </trkpt>
      <trkpt lat="43.63207" lon="2.31176">
        <ele>196.363979</ele>
        <time>2021-10-03T10:12:57.000Z</time>
      </trkpt>
      <trkpt lat="43.63207" lon="2.31168">
        <ele>196.327845</ele>
        <time>2021-10-03T10:12:58.000Z</time>
      </trkpt>
      <trkpt lat="43.63209" lon="2.31161">
        <ele>196.292603</ele>
        <time>2021-10-03T10:12:59.000Z</time>
      </trkpt>
      <trkpt lat="43.63211" lon="2.31155">
        <ele>196.259108</ele>
        <time>2021-10-03T10:13:00.000Z</time>
      </trkpt>
      <trkpt lat="43.63213" lon="2.3115">
        <ele>196.228914</ele>
        <time>2021-10-03T10:13:01.000Z</time>
      </trkpt>
      <trkpt lat="43.63215" lon="2.31144">
        <ele>196.197174</ele>
        <time>2021-10-03T10:13:02.000Z</time>
      </trkpt>
      <trkpt lat="43.63217" lon="2.31137">
        <ele>196.163936</ele>
        <time>2021-10-03T10:13:03.000Z</time>
      </trkpt>
      <trkpt lat="43.63219" lon="2.3113">
        <ele>196.128464</ele>
        <time>2021-10-03T10:13:04.000Z</time>
      </trkpt>
      <trkpt lat="43.63221" lon="2.31123">
        <ele>196.093847</ele>
        <time>2021-10-03T10:13:05.000Z</time>
      </trkpt>
      <trkpt lat="43.63222" lon="2.31115">
        <ele>196.054591</ele>
        <time>2021-10-03T10:13:06.000Z</time>
      </trkpt>
      <trkpt lat="43.63222" lon="2.31108">
        <ele>196.018074</ele>
        <time>2021-10-03T10:13:07.000Z</time>
      </trkpt>
      <trkpt lat="43.63222" lon="2.31101">
        <ele>195.987186</ele>
        <time>2021-10-03T10:13:08.000Z</time>
      </trkpt>
      <trkpt lat="43.63221" lon="2.31095">
        <ele>195.960457</ele>
        <time>2021-10-03T10:13:09.000Z</time>
      </trkpt>
      <trkpt lat="43.6322" lon="2.31089">
        <ele>195.937436</ele>
        <time>2021-10-03T10:13:10.000Z</time>
      </trkpt>
      <trkpt lat="43.6322" lon="2.31084">
        <ele>195.914816</ele>
        <time>2021-10-03T10:13:11.000Z</time>
      </trkpt>
      <trkpt lat="43.63218" lon="2.31078">
        <ele>195.891079</ele>
        <time>2021-10-03T10:13:12.000Z</time>
      </trkpt>
      <trkpt lat="43.63217" lon="2.31073">
        <ele>195.867252</ele>
        <time>2021-10-03T10:13:13.000Z</time>
      </trkpt>
      <trkpt lat="43.63216" lon="2.31067">
        <ele>195.843827</ele>
        <time>2021-10-03T10:13:14.000Z</time>
      </trkpt>
      <trkpt lat="43.63215" lon="2.31061">
        <ele>195.820015</ele>
        <time>2021-10-03T10:13:15.000Z</time>
      </trkpt>
      <trkpt lat="43.63214" lon="2.31056">
        <ele>195.796598</ele>
        <time>2021-10-03T10:13:16.000Z</time>
      </trkpt>
      <trkpt lat="43.63213" lon="2.31049">
        <ele>195.7686</ele>
        <time>2021-10-03T10:13:17.000Z</time>
      </trkpt>
      <trkpt lat="43.63211" lon="2.31044">
        <ele>195.7421</ele>
        <time>2021-10-03T10:13:18.000Z</time>
      </trkpt>
      <trkpt lat="43.63209" lon="2.31038">
        <ele>195.715599</ele>
        <time>2021-10-03T10:13:19.000Z</time>
      </trkpt>
      <trkpt lat="43.63207" lon="2.31032">
        <ele>195.688098</ele>
        <time>2021-10-03T10:13:20.000Z</time>
      </trkpt>
      <trkpt lat="43.63205" lon="2.31026">
        <ele>195.662626</ele>
        <time>2021-10-03T10:13:21.000Z</time>
      </trkpt>
      <trkpt lat="43.63203" lon="2.3102">
        <ele>195.637616</ele>
        <time>2021-10-03T10:13:22.000Z</time>
      </trkpt>
      <trkpt lat="43.63201" lon="2.31016">
        <ele>195.615164</ele>
        <time>2021-10-03T10:13:23.000Z</time>
      </trkpt>
      <trkpt lat="43.63199" lon="2.31011">
        <ele>195.592614</ele>
        <time>2021-10-03T10:13:24.000Z</time>
      </trkpt>
      <trkpt lat="43.63197" lon="2.31006">
        <ele>195.56881</ele>
        <time>2021-10-03T10:13:25.000Z</time>
      </trkpt>
      <trkpt lat="43.63196" lon="2.31">
        <ele>195.545838</ele>
        <time>2021-10-03T10:13:26.000Z</time>
      </trkpt>
      <trkpt lat="43.63194" lon="2.30995">
        <ele>195.523246</ele>
        <time>2021-10-03T10:13:27.000Z</time>
      </trkpt>
      <trkpt lat="43.63193" lon="2.30989">
        <ele>195.496115</ele>
        <time>2021-10-03T10:13:28.000Z</time>
      </trkpt>
      <trkpt lat="43.63191" lon="2.3098">
        <ele>195.456742</ele>
        <time>2021-10-03T10:13:29.000Z</time>
      </trkpt>
      <trkpt lat="43.63191" lon="2.30972">
        <ele>195.426242</ele>
        <time>2021-10-03T10:13:30.000Z</time>
      </trkpt>
      <trkpt lat="43.63188" lon="2.30964">
        <ele>195.389968</ele>
        <time>2021-10-03T10:13:31.000Z</time>
      </trkpt>
      <trkpt lat="43.63187" lon="2.30958">
        <ele>195.361404</ele>
        <time>2021-10-03T10:13:32.000Z</time>
      </trkpt>
      <trkpt lat="43.63185" lon="2.30951">
        <ele>195.332231</ele>
        <time>2021-10-03T10:13:33.000Z</time>
      </trkpt>
      <trkpt lat="43.63184" lon="2.30943">
        <ele>195.299506</ele>
        <time>2021-10-03T10:13:34.000Z</time>
      </trkpt>
      <trkpt lat="43.63183" lon="2.30934">
        <ele>195.263583</ele>
        <time>2021-10-03T10:13:35.000Z</time>
      </trkpt>
      <trkpt lat="43.63183" lon="2.30926">
        <ele>195.23063</ele>
        <time>2021-10-03T10:13:36.000Z</time>
      </trkpt>
      <trkpt lat="43.63182" lon="2.30918">
        <ele>195.197153</ele>
        <time>2021-10-03T10:13:37.000Z</time>
      </trkpt>
      <trkpt lat="43.63181" lon="2.30911">
        <ele>195.166151</ele>
        <time>2021-10-03T10:13:38.000Z</time>
      </trkpt>
      <trkpt lat="43.6318" lon="2.30902">
        <ele>195.131014</ele>
        <time>2021-10-03T10:13:39.000Z</time>
      </trkpt>
      <trkpt lat="43.63179" lon="2.30894">
        <ele>195.097999</ele>
        <time>2021-10-03T10:13:40.000Z</time>
      </trkpt>
      <trkpt lat="43.63179" lon="2.30887">
        <ele>195.065985</ele>
        <time>2021-10-03T10:13:41.000Z</time>
      </trkpt>
      <trkpt lat="43.63178" lon="2.3088">
        <ele>195.037617</ele>
        <time>2021-10-03T10:13:42.000Z</time>
      </trkpt>
      <trkpt lat="43.63178" lon="2.30873">
        <ele>195.01056</ele>
        <time>2021-10-03T10:13:43.000Z</time>
      </trkpt>
      <trkpt lat="43.63177" lon="2.30866">
        <ele>194.981743</ele>
        <time>2021-10-03T10:13:44.000Z</time>
      </trkpt>
      <trkpt lat="43.63176" lon="2.30859">
        <ele>194.959695</ele>
        <time>2021-10-03T10:13:45.000Z</time>
      </trkpt>
      <trkpt lat="43.63177" lon="2.30851">
        <ele>194.93906</ele>
        <time>2021-10-03T10:13:46.000Z</time>
      </trkpt>
      <trkpt lat="43.63177" lon="2.30844">
        <ele>194.918991</ele>
        <time>2021-10-03T10:13:47.000Z</time>
      </trkpt>
      <trkpt lat="43.63176" lon="2.30837">
        <ele>194.900226</ele>
        <time>2021-10-03T10:13:48.000Z</time>
      </trkpt>
      <trkpt lat="43.63176" lon="2.3083">
        <ele>194.880955</ele>
        <time>2021-10-03T10:13:49.000Z</time>
      </trkpt>
      <trkpt lat="43.63176" lon="2.30823">
        <ele>194.862759</ele>
        <time>2021-10-03T10:13:50.000Z</time>
      </trkpt>
      <trkpt lat="43.63176" lon="2.30816">
        <ele>194.844027</ele>
        <time>2021-10-03T10:13:51.000Z</time>
      </trkpt>
      <trkpt lat="43.63176" lon="2.30808">
        <ele>194.824492</ele>
        <time>2021-10-03T10:13:52.000Z</time>
      </trkpt>
      <trkpt lat="43.63176" lon="2.30801">
        <ele>194.80576</ele>
        <time>2021-10-03T10:13:53.000Z</time>
      </trkpt>
      <trkpt lat="43.63177" lon="2.30795">
        <ele>194.787237</ele>
        <time>2021-10-03T10:13:54.000Z</time>
      </trkpt>
      <trkpt lat="43.63176" lon="2.30787">
        <ele>194.768205</ele>
        <time>2021-10-03T10:13:55.000Z</time>
      </trkpt>
      <trkpt lat="43.63176" lon="2.3078">
        <ele>194.748667</ele>
        <time>2021-10-03T10:13:56.000Z</time>
      </trkpt>
      <trkpt lat="43.63177" lon="2.30773">
        <ele>194.728189</ele>
        <time>2021-10-03T10:13:57.000Z</time>
      </trkpt>
      <trkpt lat="43.63179" lon="2.30766">
        <ele>194.709166</ele>
        <time>2021-10-03T10:13:58.000Z</time>
      </trkpt>
      <trkpt lat="43.6318" lon="2.30759">
        <ele>194.690466</ele>
        <time>2021-10-03T10:13:59.000Z</time>
      </trkpt>
      <trkpt lat="43.63181" lon="2.30751">
        <ele>194.67018</ele>
        <time>2021-10-03T10:14:00.000Z</time>
      </trkpt>
      <trkpt lat="43.63181" lon="2.30745">
        <ele>194.65148</ele>
        <time>2021-10-03T10:14:01.000Z</time>
      </trkpt>
      <trkpt lat="43.63182" lon="2.30738">
        <ele>194.632835</ele>
        <time>2021-10-03T10:14:02.000Z</time>
      </trkpt>
      <trkpt lat="43.63184" lon="2.30731">
        <ele>194.614189</ele>
        <time>2021-10-03T10:14:03.000Z</time>
      </trkpt>
      <trkpt lat="43.63185" lon="2.30724">
        <ele>194.594678</ele>
        <time>2021-10-03T10:14:04.000Z</time>
      </trkpt>
      <trkpt lat="43.63187" lon="2.30717">
        <ele>194.575052</ele>
        <time>2021-10-03T10:14:05.000Z</time>
      </trkpt>
      <trkpt lat="43.63189" lon="2.3071">
        <ele>194.555162</ele>
        <time>2021-10-03T10:14:06.000Z</time>
      </trkpt>
      <trkpt lat="43.6319" lon="2.30703">
        <ele>194.536516</ele>
        <time>2021-10-03T10:14:07.000Z</time>
      </trkpt>
      <trkpt lat="43.63191" lon="2.30697">
        <ele>194.518565</ele>
        <time>2021-10-03T10:14:08.000Z</time>
      </trkpt>
      <trkpt lat="43.63192" lon="2.3069">
        <ele>194.500394</ele>
        <time>2021-10-03T10:14:09.000Z</time>
      </trkpt>
      <trkpt lat="43.63192" lon="2.30683">
        <ele>194.481337</ele>
        <time>2021-10-03T10:14:10.000Z</time>
      </trkpt>
      <trkpt lat="43.63193" lon="2.30676">
        <ele>194.461897</ele>
        <time>2021-10-03T10:14:11.000Z</time>
      </trkpt>
      <trkpt lat="43.63194" lon="2.30669">
        <ele>194.442933</ele>
        <time>2021-10-03T10:14:12.000Z</time>
      </trkpt>
      <trkpt lat="43.63194" lon="2.30662">
        <ele>194.424201</ele>
        <time>2021-10-03T10:14:13.000Z</time>
      </trkpt>
      <trkpt lat="43.63195" lon="2.30654">
        <ele>194.403379</ele>
        <time>2021-10-03T10:14:14.000Z</time>
      </trkpt>
      <trkpt lat="43.63196" lon="2.30647">
        <ele>194.384473</ele>
        <time>2021-10-03T10:14:15.000Z</time>
      </trkpt>
      <trkpt lat="43.63197" lon="2.30641">
        <ele>194.366263</ele>
        <time>2021-10-03T10:14:16.000Z</time>
      </trkpt>
      <trkpt lat="43.63198" lon="2.30635">
        <ele>194.349673</ele>
        <time>2021-10-03T10:14:17.000Z</time>
      </trkpt>
      <trkpt lat="43.63199" lon="2.30629">
        <ele>194.334466</ele>
        <time>2021-10-03T10:14:18.000Z</time>
      </trkpt>
      <trkpt lat="43.63199" lon="2.30623">
        <ele>194.318945</ele>
        <time>2021-10-03T10:14:19.000Z</time>
      </trkpt>
      <trkpt lat="43.632" lon="2.30617">
        <ele>194.299544</ele>
        <time>2021-10-03T10:14:20.000Z</time>
      </trkpt>
      <trkpt lat="43.63202" lon="2.3061">
        <ele>194.278751</ele>
        <time>2021-10-03T10:14:21.000Z</time>
      </trkpt>
      <trkpt lat="43.63203" lon="2.30603">
        <ele>194.258565</ele>
        <time>2021-10-03T10:14:22.000Z</time>
      </trkpt>
      <trkpt lat="43.63203" lon="2.30596">
        <ele>194.238661</ele>
        <time>2021-10-03T10:14:23.000Z</time>
      </trkpt>
      <trkpt lat="43.63204" lon="2.30589">
        <ele>194.218757</ele>
        <time>2021-10-03T10:14:24.000Z</time>
      </trkpt>
      <trkpt lat="43.63206" lon="2.30582">
        <ele>194.198071</ele>
        <time>2021-10-03T10:14:25.000Z</time>
      </trkpt>
      <trkpt lat="43.63207" lon="2.30575">
        <ele>194.177434</ele>
        <time>2021-10-03T10:14:26.000Z</time>
      </trkpt>
      <trkpt lat="43.63208" lon="2.30569">
        <ele>194.160839</ele>
        <time>2021-10-03T10:14:27.000Z</time>
      </trkpt>
      <trkpt lat="43.63208" lon="2.30563">
        <ele>194.142901</ele>
        <time>2021-10-03T10:14:28.000Z</time>
      </trkpt>
      <trkpt lat="43.6321" lon="2.30556">
        <ele>194.124164</ele>
        <time>2021-10-03T10:14:29.000Z</time>
      </trkpt>
      <trkpt lat="43.63211" lon="2.3055">
        <ele>194.105428</ele>
        <time>2021-10-03T10:14:30.000Z</time>
      </trkpt>
      <trkpt lat="43.63213" lon="2.30543">
        <ele>194.083063</ele>
        <time>2021-10-03T10:14:31.000Z</time>
      </trkpt>
      <trkpt lat="43.63216" lon="2.30536">
        <ele>194.060137</ele>
        <time>2021-10-03T10:14:32.000Z</time>
      </trkpt>
      <trkpt lat="43.63217" lon="2.30529">
        <ele>194.039228</ele>
        <time>2021-10-03T10:14:33.000Z</time>
      </trkpt>
      <trkpt lat="43.63218" lon="2.30522">
        <ele>194.019659</ele>
        <time>2021-10-03T10:14:34.000Z</time>
      </trkpt>
      <trkpt lat="43.6322" lon="2.30515">
        <ele>193.998631</ele>
        <time>2021-10-03T10:14:35.000Z</time>
      </trkpt>
      <trkpt lat="43.63221" lon="2.30509">
        <ele>193.980132</ele>
        <time>2021-10-03T10:14:36.000Z</time>
      </trkpt>
      <trkpt lat="43.63221" lon="2.30502">
        <ele>193.961551</ele>
        <time>2021-10-03T10:14:37.000Z</time>
      </trkpt>
      <trkpt lat="43.63222" lon="2.30495">
        <ele>193.939958</ele>
        <time>2021-10-03T10:14:38.000Z</time>
      </trkpt>
      <trkpt lat="43.63223" lon="2.30488">
        <ele>193.919957</ele>
        <time>2021-10-03T10:14:39.000Z</time>
      </trkpt>
      <trkpt lat="43.63222" lon="2.30481">
        <ele>193.901521</ele>
        <time>2021-10-03T10:14:40.000Z</time>
      </trkpt>
      <trkpt lat="43.63222" lon="2.30475">
        <ele>193.883572</ele>
        <time>2021-10-03T10:14:41.000Z</time>
      </trkpt>
      <trkpt lat="43.63223" lon="2.30468">
        <ele>193.862613</ele>
        <time>2021-10-03T10:14:42.000Z</time>
      </trkpt>
      <trkpt lat="43.63224" lon="2.3046">
        <ele>193.839074</ele>
        <time>2021-10-03T10:14:43.000Z</time>
      </trkpt>
      <trkpt lat="43.63225" lon="2.30453">
        <ele>193.819039</ele>
        <time>2021-10-03T10:14:44.000Z</time>
      </trkpt>
      <trkpt lat="43.63224" lon="2.30446">
        <ele>193.79989</ele>
        <time>2021-10-03T10:14:45.000Z</time>
      </trkpt>
      <trkpt lat="43.63224" lon="2.3044">
        <ele>193.781025</ele>
        <time>2021-10-03T10:14:46.000Z</time>
      </trkpt>
      <trkpt lat="43.63224" lon="2.30433">
        <ele>193.762189</ele>
        <time>2021-10-03T10:14:47.000Z</time>
      </trkpt>
      <trkpt lat="43.63223" lon="2.30426">
        <ele>193.742343</ele>
        <time>2021-10-03T10:14:48.000Z</time>
      </trkpt>
      <trkpt lat="43.63221" lon="2.3042">
        <ele>193.723452</ele>
        <time>2021-10-03T10:14:49.000Z</time>
      </trkpt>
      <trkpt lat="43.63221" lon="2.30413">
        <ele>193.704834</ele>
        <time>2021-10-03T10:14:50.000Z</time>
      </trkpt>
      <trkpt lat="43.6322" lon="2.30407">
        <ele>193.68682</ele>
        <time>2021-10-03T10:14:51.000Z</time>
      </trkpt>
      <trkpt lat="43.6322" lon="2.304">
        <ele>193.667167</ele>
        <time>2021-10-03T10:14:52.000Z</time>
      </trkpt>
      <trkpt lat="43.6322" lon="2.30394">
        <ele>193.648167</ele>
        <time>2021-10-03T10:14:53.000Z</time>
      </trkpt>
      <trkpt lat="43.63219" lon="2.30388">
        <ele>193.63079</ele>
        <time>2021-10-03T10:14:54.000Z</time>
      </trkpt>
      <trkpt lat="43.63217" lon="2.30382">
        <ele>193.612978</ele>
        <time>2021-10-03T10:14:55.000Z</time>
      </trkpt>
      <trkpt lat="43.63216" lon="2.30376">
        <ele>193.596598</ele>
        <time>2021-10-03T10:14:56.000Z</time>
      </trkpt>
      <trkpt lat="43.63216" lon="2.30371">
        <ele>193.579332</ele>
        <time>2021-10-03T10:14:57.000Z</time>
      </trkpt>
      <trkpt lat="43.63217" lon="2.30365">
        <ele>193.560988</ele>
        <time>2021-10-03T10:14:58.000Z</time>
      </trkpt>
      <trkpt lat="43.63218" lon="2.30359">
        <ele>193.542269</ele>
        <time>2021-10-03T10:14:59.000Z</time>
      </trkpt>
      <trkpt lat="43.63218" lon="2.30353">
        <ele>193.526314</ele>
        <time>2021-10-03T10:15:00.000Z</time>
      </trkpt>
      <trkpt lat="43.63217" lon="2.30348">
        <ele>193.509784</ele>
        <time>2021-10-03T10:15:01.000Z</time>
      </trkpt>
      <trkpt lat="43.63216" lon="2.30343">
        <ele>193.49476</ele>
        <time>2021-10-03T10:15:02.000Z</time>
      </trkpt>
      <trkpt lat="43.63215" lon="2.30338">
        <ele>193.477547</ele>
        <time>2021-10-03T10:15:03.000Z</time>
      </trkpt>
      <trkpt lat="43.63214" lon="2.30332">
        <ele>193.458557</ele>
        <time>2021-10-03T10:15:04.000Z</time>
      </trkpt>
      <trkpt lat="43.63213" lon="2.30325">
        <ele>193.436813</ele>
        <time>2021-10-03T10:15:05.000Z</time>
      </trkpt>
      <trkpt lat="43.63211" lon="2.30318">
        <ele>193.413757</ele>
        <time>2021-10-03T10:15:06.000Z</time>
      </trkpt>
      <trkpt lat="43.63209" lon="2.30311">
        <ele>193.389329</ele>
        <time>2021-10-03T10:15:07.000Z</time>
      </trkpt>
      <trkpt lat="43.63206" lon="2.30304">
        <ele>193.366021</ele>
        <time>2021-10-03T10:15:08.000Z</time>
      </trkpt>
      <trkpt lat="43.63205" lon="2.30298">
        <ele>193.347262</ele>
        <time>2021-10-03T10:15:09.000Z</time>
      </trkpt>
      <trkpt lat="43.63203" lon="2.30293">
        <ele>193.330372</ele>
        <time>2021-10-03T10:15:10.000Z</time>
      </trkpt>
      <trkpt lat="43.63202" lon="2.30288">
        <ele>193.314048</ele>
        <time>2021-10-03T10:15:11.000Z</time>
      </trkpt>
      <trkpt lat="43.63199" lon="2.30284">
        <ele>193.29614</ele>
        <time>2021-10-03T10:15:12.000Z</time>
      </trkpt>
      <trkpt lat="43.63196" lon="2.30278">
        <ele>193.276254</ele>
        <time>2021-10-03T10:15:13.000Z</time>
      </trkpt>
      <trkpt lat="43.63194" lon="2.30273">
        <ele>193.257278</ele>
        <time>2021-10-03T10:15:14.000Z</time>
      </trkpt>
      <trkpt lat="43.63193" lon="2.30267">
        <ele>193.237744</ele>
        <time>2021-10-03T10:15:15.000Z</time>
      </trkpt>
      <trkpt lat="43.63191" lon="2.30261">
        <ele>193.21849</ele>
        <time>2021-10-03T10:15:16.000Z</time>
      </trkpt>
      <trkpt lat="43.63188" lon="2.30257">
        <ele>193.201335</ele>
        <time>2021-10-03T10:15:17.000Z</time>
      </trkpt>
      <trkpt lat="43.63185" lon="2.3025">
        <ele>193.177682</ele>
        <time>2021-10-03T10:15:18.000Z</time>
      </trkpt>
      <trkpt lat="43.63182" lon="2.30244">
        <ele>193.153283</ele>
        <time>2021-10-03T10:15:19.000Z</time>
      </trkpt>
      <trkpt lat="43.6318" lon="2.30238">
        <ele>193.132451</ele>
        <time>2021-10-03T10:15:20.000Z</time>
      </trkpt>
      <trkpt lat="43.63178" lon="2.30232">
        <ele>193.114304</ele>
        <time>2021-10-03T10:15:21.000Z</time>
      </trkpt>
      <trkpt lat="43.63176" lon="2.30226">
        <ele>193.0932</ele>
        <time>2021-10-03T10:15:22.000Z</time>
      </trkpt>
      <trkpt lat="43.63174" lon="2.30221">
        <ele>193.074501</ele>
        <time>2021-10-03T10:15:23.000Z</time>
      </trkpt>
      <trkpt lat="43.63172" lon="2.30215">
        <ele>193.055012</ele>
        <time>2021-10-03T10:15:24.000Z</time>
      </trkpt>
      <trkpt lat="43.6317" lon="2.3021">
        <ele>193.037392</ele>
        <time>2021-10-03T10:15:25.000Z</time>
      </trkpt>
      <trkpt lat="43.63169" lon="2.30204">
        <ele>193.017507</ele>
        <time>2021-10-03T10:15:26.000Z</time>
      </trkpt>
      <trkpt lat="43.63167" lon="2.30198">
        <ele>192.998031</ele>
        <time>2021-10-03T10:15:27.000Z</time>
      </trkpt>
      <trkpt lat="43.63165" lon="2.30192">
        <ele>192.977936</ele>
        <time>2021-10-03T10:15:28.000Z</time>
      </trkpt>
      <trkpt lat="43.63164" lon="2.30186">
        <ele>192.957842</ele>
        <time>2021-10-03T10:15:29.000Z</time>
      </trkpt>
      <trkpt lat="43.63162" lon="2.30179">
        <ele>192.936048</ele>
        <time>2021-10-03T10:15:30.000Z</time>
      </trkpt>
      <trkpt lat="43.6316" lon="2.30173">
        <ele>192.914823</ele>
        <time>2021-10-03T10:15:31.000Z</time>
      </trkpt>
      <trkpt lat="43.63157" lon="2.30166">
        <ele>192.891026</ele>
        <time>2021-10-03T10:15:32.000Z</time>
      </trkpt>
      <trkpt lat="43.63155" lon="2.30159">
        <ele>192.870085</ele>
        <time>2021-10-03T10:15:33.000Z</time>
      </trkpt>
      <trkpt lat="43.63153" lon="2.30152">
        <ele>192.846571</ele>
        <time>2021-10-03T10:15:34.000Z</time>
      </trkpt>
      <trkpt lat="43.63152" lon="2.30145">
        <ele>192.82912</ele>
        <time>2021-10-03T10:15:35.000Z</time>
      </trkpt>
      <trkpt lat="43.63151" lon="2.30137">
        <ele>192.810595</ele>
        <time>2021-10-03T10:15:36.000Z</time>
      </trkpt>
      <trkpt lat="43.63152" lon="2.30129">
        <ele>192.795186</ele>
        <time>2021-10-03T10:15:37.000Z</time>
      </trkpt>
      <trkpt lat="43.63152" lon="2.30123">
        <ele>192.780677</ele>
        <time>2021-10-03T10:15:38.000Z</time>
      </trkpt>
      <trkpt lat="43.63152" lon="2.30117">
        <ele>192.768466</ele>
        <time>2021-10-03T10:15:39.000Z</time>
      </trkpt>
      <trkpt lat="43.63152" lon="2.30111">
        <ele>192.75519</ele>
        <time>2021-10-03T10:15:40.000Z</time>
      </trkpt>
      <trkpt lat="43.63153" lon="2.30104">
        <ele>192.741039</ele>
        <time>2021-10-03T10:15:41.000Z</time>
      </trkpt>
      <trkpt lat="43.63153" lon="2.30098">
        <ele>192.728165</ele>
        <time>2021-10-03T10:15:42.000Z</time>
      </trkpt>
      <trkpt lat="43.63154" lon="2.30094">
        <ele>192.718122</ele>
        <time>2021-10-03T10:15:43.000Z</time>
      </trkpt>
      <trkpt lat="43.63155" lon="2.30089">
        <ele>192.707974</ele>
        <time>2021-10-03T10:15:44.000Z</time>
      </trkpt>
      <trkpt lat="43.63156" lon="2.30084">
        <ele>192.697013</ele>
        <time>2021-10-03T10:15:45.000Z</time>
      </trkpt>
      <trkpt lat="43.63157" lon="2.30079">
        <ele>192.684535</ele>
        <time>2021-10-03T10:15:46.000Z</time>
      </trkpt>
      <trkpt lat="43.63158" lon="2.30072">
        <ele>192.668957</ele>
        <time>2021-10-03T10:15:47.000Z</time>
      </trkpt>
      <trkpt lat="43.63158" lon="2.30064">
        <ele>192.653761</ele>
        <time>2021-10-03T10:15:48.000Z</time>
      </trkpt>
      <trkpt lat="43.63159" lon="2.30057">
        <ele>192.637257</ele>
        <time>2021-10-03T10:15:49.000Z</time>
      </trkpt>
      <trkpt lat="43.63159" lon="2.3005">
        <ele>192.622298</ele>
        <time>2021-10-03T10:15:50.000Z</time>
      </trkpt>
      <trkpt lat="43.6316" lon="2.30043">
        <ele>192.606785</ele>
        <time>2021-10-03T10:15:51.000Z</time>
      </trkpt>
      <trkpt lat="43.63159" lon="2.30035">
        <ele>192.590644</ele>
        <time>2021-10-03T10:15:52.000Z</time>
      </trkpt>
      <trkpt lat="43.63158" lon="2.30028">
        <ele>192.57534</ele>
        <time>2021-10-03T10:15:53.000Z</time>
      </trkpt>
      <trkpt lat="43.63157" lon="2.30021">
        <ele>192.560409</ele>
        <time>2021-10-03T10:15:54.000Z</time>
      </trkpt>
      <trkpt lat="43.63156" lon="2.30015">
        <ele>192.546355</ele>
        <time>2021-10-03T10:15:55.000Z</time>
      </trkpt>
      <trkpt lat="43.63154" lon="2.30009">
        <ele>192.531575</ele>
        <time>2021-10-03T10:15:56.000Z</time>
      </trkpt>
      <trkpt lat="43.63153" lon="2.30002">
        <ele>192.51745</ele>
        <time>2021-10-03T10:15:57.000Z</time>
      </trkpt>
      <trkpt lat="43.63152" lon="2.29995">
        <ele>192.502145</ele>
        <time>2021-10-03T10:15:58.000Z</time>
      </trkpt>
      <trkpt lat="43.6315" lon="2.29989">
        <ele>192.486814</ele>
        <time>2021-10-03T10:15:59.000Z</time>
      </trkpt>
      <trkpt lat="43.63148" lon="2.29983">
        <ele>192.4727</ele>
        <time>2021-10-03T10:16:00.000Z</time>
      </trkpt>
      <trkpt lat="43.63147" lon="2.29977">
        <ele>192.459606</ele>
        <time>2021-10-03T10:16:01.000Z</time>
      </trkpt>
      <trkpt lat="43.63145" lon="2.29972">
        <ele>192.447952</ele>
        <time>2021-10-03T10:16:02.000Z</time>
      </trkpt>
      <trkpt lat="43.63144" lon="2.29966">
        <ele>192.435683</ele>
        <time>2021-10-03T10:16:03.000Z</time>
      </trkpt>
      <trkpt lat="43.63142" lon="2.29961">
        <ele>192.422854</ele>
        <time>2021-10-03T10:16:04.000Z</time>
      </trkpt>
      <trkpt lat="43.6314" lon="2.29956">
        <ele>192.409428</ele>
        <time>2021-10-03T10:16:05.000Z</time>
      </trkpt>
      <trkpt lat="43.63138" lon="2.2995">
        <ele>192.396366</ele>
        <time>2021-10-03T10:16:06.000Z</time>
      </trkpt>
      <trkpt lat="43.63137" lon="2.29945">
        <ele>192.384704</ele>
        <time>2021-10-03T10:16:07.000Z</time>
      </trkpt>
      <trkpt lat="43.63135" lon="2.29939">
        <ele>192.371835</ele>
        <time>2021-10-03T10:16:08.000Z</time>
      </trkpt>
      <trkpt lat="43.63132" lon="2.29934">
        <ele>192.357627</ele>
        <time>2021-10-03T10:16:09.000Z</time>
      </trkpt>
      <trkpt lat="43.63129" lon="2.29928">
        <ele>192.343121</ele>
        <time>2021-10-03T10:16:10.000Z</time>
      </trkpt>
      <trkpt lat="43.63127" lon="2.29923">
        <ele>192.329364</ele>
        <time>2021-10-03T10:16:11.000Z</time>
      </trkpt>
      <trkpt lat="43.63124" lon="2.29917">
        <ele>192.314306</ele>
        <time>2021-10-03T10:16:12.000Z</time>
      </trkpt>
      <trkpt lat="43.63121" lon="2.29911">
        <ele>192.301771</ele>
        <time>2021-10-03T10:16:13.000Z</time>
      </trkpt>
      <trkpt lat="43.63119" lon="2.29904">
        <ele>192.291238</ele>
        <time>2021-10-03T10:16:14.000Z</time>
      </trkpt>
      <trkpt lat="43.63117" lon="2.29897">
        <ele>192.281051</ele>
        <time>2021-10-03T10:16:15.000Z</time>
      </trkpt>
      <trkpt lat="43.63116" lon="2.2989">
        <ele>192.269603</ele>
        <time>2021-10-03T10:16:16.000Z</time>
      </trkpt>
      <trkpt lat="43.63114" lon="2.29883">
        <ele>192.259272</ele>
        <time>2021-10-03T10:16:17.000Z</time>
      </trkpt>
      <trkpt lat="43.63113" lon="2.29876">
        <ele>192.248743</ele>
        <time>2021-10-03T10:16:18.000Z</time>
      </trkpt>
      <trkpt lat="43.63111" lon="2.29869">
        <ele>192.237673</ele>
        <time>2021-10-03T10:16:19.000Z</time>
      </trkpt>
      <trkpt lat="43.63109" lon="2.29862">
        <ele>192.227557</ele>
        <time>2021-10-03T10:16:20.000Z</time>
      </trkpt>
      <trkpt lat="43.63108" lon="2.29856">
        <ele>192.217643</ele>
        <time>2021-10-03T10:16:21.000Z</time>
      </trkpt>
      <trkpt lat="43.63106" lon="2.29849">
        <ele>192.207665</ele>
        <time>2021-10-03T10:16:22.000Z</time>
      </trkpt>
      <trkpt lat="43.63105" lon="2.29843">
        <ele>192.198106</ele>
        <time>2021-10-03T10:16:23.000Z</time>
      </trkpt>
      <trkpt lat="43.63105" lon="2.29836">
        <ele>192.188046</ele>
        <time>2021-10-03T10:16:24.000Z</time>
      </trkpt>
      <trkpt lat="43.63104" lon="2.29829">
        <ele>192.177734</ele>
        <time>2021-10-03T10:16:25.000Z</time>
      </trkpt>
      <trkpt lat="43.63102" lon="2.29823">
        <ele>192.168033</ele>
        <time>2021-10-03T10:16:26.000Z</time>
      </trkpt>
      <trkpt lat="43.63101" lon="2.29816">
        <ele>192.158532</ele>
        <time>2021-10-03T10:16:27.000Z</time>
      </trkpt>
      <trkpt lat="43.631" lon="2.2981">
        <ele>192.149065</ele>
        <time>2021-10-03T10:16:28.000Z</time>
      </trkpt>
      <trkpt lat="43.63099" lon="2.29804">
        <ele>192.14007</ele>
        <time>2021-10-03T10:16:29.000Z</time>
      </trkpt>
      <trkpt lat="43.63098" lon="2.29798">
        <ele>192.131632</ele>
        <time>2021-10-03T10:16:30.000Z</time>
      </trkpt>
      <trkpt lat="43.63097" lon="2.29792">
        <ele>192.122766</ele>
        <time>2021-10-03T10:16:31.000Z</time>
      </trkpt>
      <trkpt lat="43.63096" lon="2.29786">
        <ele>192.113912</ele>
        <time>2021-10-03T10:16:32.000Z</time>
      </trkpt>
      <trkpt lat="43.63095" lon="2.29781">
        <ele>192.1059</ele>
        <time>2021-10-03T10:16:33.000Z</time>
      </trkpt>
      <trkpt lat="43.63093" lon="2.29775">
        <ele>192.096949</ele>
        <time>2021-10-03T10:16:34.000Z</time>
      </trkpt>
      <trkpt lat="43.63092" lon="2.29769">
        <ele>192.0872</ele>
        <time>2021-10-03T10:16:35.000Z</time>
      </trkpt>
      <trkpt lat="43.63091" lon="2.29763">
        <ele>192.077838</ele>
        <time>2021-10-03T10:16:36.000Z</time>
      </trkpt>
      <trkpt lat="43.6309" lon="2.29756">
        <ele>192.067778</ele>
        <time>2021-10-03T10:16:37.000Z</time>
      </trkpt>
      <trkpt lat="43.63089" lon="2.29748">
        <ele>192.056515</ele>
        <time>2021-10-03T10:16:38.000Z</time>
      </trkpt>
      <trkpt lat="43.63088" lon="2.2974">
        <ele>192.044642</ele>
        <time>2021-10-03T10:16:39.000Z</time>
      </trkpt>
      <trkpt lat="43.63087" lon="2.29734">
        <ele>192.034657</ele>
        <time>2021-10-03T10:16:40.000Z</time>
      </trkpt>
      <trkpt lat="43.63086" lon="2.29727">
        <ele>192.025362</ele>
        <time>2021-10-03T10:16:41.000Z</time>
      </trkpt>
      <trkpt lat="43.63085" lon="2.29721">
        <ele>192.01621</ele>
        <time>2021-10-03T10:16:42.000Z</time>
      </trkpt>
      <trkpt lat="43.63085" lon="2.29715">
        <ele>192.00666</ele>
        <time>2021-10-03T10:16:43.000Z</time>
      </trkpt>
      <trkpt lat="43.63083" lon="2.29708">
        <ele>191.996911</ele>
        <time>2021-10-03T10:16:44.000Z</time>
      </trkpt>
      <trkpt lat="43.63083" lon="2.29702">
        <ele>191.988045</ele>
        <time>2021-10-03T10:16:45.000Z</time>
      </trkpt>
      <trkpt lat="43.63081" lon="2.29697">
        <ele>191.979892</ele>
        <time>2021-10-03T10:16:46.000Z</time>
      </trkpt>
      <trkpt lat="43.63081" lon="2.29691">
        <ele>191.970883</ele>
        <time>2021-10-03T10:16:47.000Z</time>
      </trkpt>
      <trkpt lat="43.63079" lon="2.29684">
        <ele>191.961306</ele>
        <time>2021-10-03T10:16:48.000Z</time>
      </trkpt>
      <trkpt lat="43.63078" lon="2.29678">
        <ele>191.951979</ele>
        <time>2021-10-03T10:16:49.000Z</time>
      </trkpt>
      <trkpt lat="43.63077" lon="2.29673">
        <ele>191.939388</ele>
        <time>2021-10-03T10:16:50.000Z</time>
      </trkpt>
      <trkpt lat="43.63075" lon="2.29667">
        <ele>191.920394</ele>
        <time>2021-10-03T10:16:51.000Z</time>
      </trkpt>
      <trkpt lat="43.63075" lon="2.2966">
        <ele>191.901768</ele>
        <time>2021-10-03T10:16:52.000Z</time>
      </trkpt>
      <trkpt lat="43.63077" lon="2.29653">
        <ele>191.878679</ele>
        <time>2021-10-03T10:16:53.000Z</time>
      </trkpt>
      <trkpt lat="43.63079" lon="2.29648">
        <ele>191.861204</ele>
        <time>2021-10-03T10:16:54.000Z</time>
      </trkpt>
      <trkpt lat="43.63079" lon="2.29643">
        <ele>191.846237</ele>
        <time>2021-10-03T10:16:55.000Z</time>
      </trkpt>
      <trkpt lat="43.63079" lon="2.29639">
        <ele>191.834567</ele>
        <time>2021-10-03T10:16:56.000Z</time>
      </trkpt>
      <trkpt lat="43.63078" lon="2.29633">
        <ele>191.817563</ele>
        <time>2021-10-03T10:16:57.000Z</time>
      </trkpt>
      <trkpt lat="43.63078" lon="2.29628">
        <ele>191.8011</ele>
        <time>2021-10-03T10:16:58.000Z</time>
      </trkpt>
      <trkpt lat="43.63081" lon="2.2962">
        <ele>191.775133</ele>
        <time>2021-10-03T10:16:59.000Z</time>
      </trkpt>
      <trkpt lat="43.63082" lon="2.29612">
        <ele>191.750791</ele>
        <time>2021-10-03T10:17:00.000Z</time>
      </trkpt>
      <trkpt lat="43.63083" lon="2.29605">
        <ele>191.729586</ele>
        <time>2021-10-03T10:17:01.000Z</time>
      </trkpt>
      <trkpt lat="43.63085" lon="2.29598">
        <ele>191.706226</ele>
        <time>2021-10-03T10:17:02.000Z</time>
      </trkpt>
      <trkpt lat="43.63086" lon="2.29591">
        <ele>191.686048</ele>
        <time>2021-10-03T10:17:03.000Z</time>
      </trkpt>
      <trkpt lat="43.63087" lon="2.29585">
        <ele>191.666088</ele>
        <time>2021-10-03T10:17:04.000Z</time>
      </trkpt>
      <trkpt lat="43.63088" lon="2.29578">
        <ele>191.646306</ele>
        <time>2021-10-03T10:17:05.000Z</time>
      </trkpt>
      <trkpt lat="43.63089" lon="2.29573">
        <ele>191.628365</ele>
        <time>2021-10-03T10:17:06.000Z</time>
      </trkpt>
      <trkpt lat="43.63091" lon="2.29567">
        <ele>191.609739</ele>
        <time>2021-10-03T10:17:07.000Z</time>
      </trkpt>
      <trkpt lat="43.63091" lon="2.2956">
        <ele>191.590517</ele>
        <time>2021-10-03T10:17:08.000Z</time>
      </trkpt>
      <trkpt lat="43.63091" lon="2.29554">
        <ele>191.57219</ele>
        <time>2021-10-03T10:17:09.000Z</time>
      </trkpt>
      <trkpt lat="43.63091" lon="2.29547">
        <ele>191.550945</ele>
        <time>2021-10-03T10:17:10.000Z</time>
      </trkpt>
      <trkpt lat="43.63089" lon="2.2954">
        <ele>191.530366</ele>
        <time>2021-10-03T10:17:11.000Z</time>
      </trkpt>
      <trkpt lat="43.63088" lon="2.29534">
        <ele>191.509752</ele>
        <time>2021-10-03T10:17:12.000Z</time>
      </trkpt>
      <trkpt lat="43.63087" lon="2.29527">
        <ele>191.490475</ele>
        <time>2021-10-03T10:17:13.000Z</time>
      </trkpt>
      <trkpt lat="43.63086" lon="2.29521">
        <ele>191.469822</ele>
        <time>2021-10-03T10:17:14.000Z</time>
      </trkpt>
      <trkpt lat="43.63084" lon="2.29514">
        <ele>191.448846</ele>
        <time>2021-10-03T10:17:15.000Z</time>
      </trkpt>
      <trkpt lat="43.63086" lon="2.29507">
        <ele>191.425487</ele>
        <time>2021-10-03T10:17:16.000Z</time>
      </trkpt>
      <trkpt lat="43.63085" lon="2.29501">
        <ele>191.407064</ele>
        <time>2021-10-03T10:17:17.000Z</time>
      </trkpt>
      <trkpt lat="43.63085" lon="2.29495">
        <ele>191.388347</ele>
        <time>2021-10-03T10:17:18.000Z</time>
      </trkpt>
      <trkpt lat="43.63084" lon="2.29489">
        <ele>191.370052</ele>
        <time>2021-10-03T10:17:19.000Z</time>
      </trkpt>
      <trkpt lat="43.63083" lon="2.29484">
        <ele>191.353842</ele>
        <time>2021-10-03T10:17:20.000Z</time>
      </trkpt>
      <trkpt lat="43.63081" lon="2.29478">
        <ele>191.336255</ele>
        <time>2021-10-03T10:17:21.000Z</time>
      </trkpt>
      <trkpt lat="43.63081" lon="2.29472">
        <ele>191.317291</ele>
        <time>2021-10-03T10:17:22.000Z</time>
      </trkpt>
      <trkpt lat="43.63083" lon="2.29465">
        <ele>191.294181</ele>
        <time>2021-10-03T10:17:23.000Z</time>
      </trkpt>
      <trkpt lat="43.63084" lon="2.29458">
        <ele>191.274109</ele>
        <time>2021-10-03T10:17:24.000Z</time>
      </trkpt>
      <trkpt lat="43.63084" lon="2.29451">
        <ele>191.251368</ele>
        <time>2021-10-03T10:17:25.000Z</time>
      </trkpt>
      <trkpt lat="43.63084" lon="2.29443">
        <ele>191.229789</ele>
        <time>2021-10-03T10:17:26.000Z</time>
      </trkpt>
      <trkpt lat="43.63083" lon="2.29437">
        <ele>191.20947</ele>
        <time>2021-10-03T10:17:27.000Z</time>
      </trkpt>
      <trkpt lat="43.63083" lon="2.2943">
        <ele>191.184463</ele>
        <time>2021-10-03T10:17:28.000Z</time>
      </trkpt>
      <trkpt lat="43.6308" lon="2.29423">
        <ele>191.159142</ele>
        <time>2021-10-03T10:17:29.000Z</time>
      </trkpt>
      <trkpt lat="43.63079" lon="2.29417">
        <ele>191.13591</ele>
        <time>2021-10-03T10:17:30.000Z</time>
      </trkpt>
      <trkpt lat="43.63077" lon="2.29411">
        <ele>191.112733</ele>
        <time>2021-10-03T10:17:31.000Z</time>
      </trkpt>
      <trkpt lat="43.63075" lon="2.29405">
        <ele>191.088694</ele>
        <time>2021-10-03T10:17:32.000Z</time>
      </trkpt>
      <trkpt lat="43.63075" lon="2.29399">
        <ele>191.067321</ele>
        <time>2021-10-03T10:17:33.000Z</time>
      </trkpt>
      <trkpt lat="43.63073" lon="2.29393">
        <ele>191.043614</ele>
        <time>2021-10-03T10:17:34.000Z</time>
      </trkpt>
      <trkpt lat="43.63072" lon="2.29388">
        <ele>191.022126</ele>
        <time>2021-10-03T10:17:35.000Z</time>
      </trkpt>
      <trkpt lat="43.63071" lon="2.29382">
        <ele>191.001108</ele>
        <time>2021-10-03T10:17:36.000Z</time>
      </trkpt>
      <trkpt lat="43.6307" lon="2.29377">
        <ele>190.983738</ele>
        <time>2021-10-03T10:17:37.000Z</time>
      </trkpt>
      <trkpt lat="43.63069" lon="2.29372">
        <ele>190.965145</ele>
        <time>2021-10-03T10:17:38.000Z</time>
      </trkpt>
      <trkpt lat="43.63068" lon="2.29368">
        <ele>190.94759</ele>
        <time>2021-10-03T10:17:39.000Z</time>
      </trkpt>
      <trkpt lat="43.63067" lon="2.29362">
        <ele>190.927632</ele>
        <time>2021-10-03T10:17:40.000Z</time>
      </trkpt>
      <trkpt lat="43.63065" lon="2.29357">
        <ele>190.906694</ele>
        <time>2021-10-03T10:17:41.000Z</time>
      </trkpt>
      <trkpt lat="43.63064" lon="2.29351">
        <ele>190.881989</ele>
        <time>2021-10-03T10:17:42.000Z</time>
      </trkpt>
      <trkpt lat="43.6306" lon="2.29344">
        <ele>190.853838</ele>
        <time>2021-10-03T10:17:43.000Z</time>
      </trkpt>
      <trkpt lat="43.63058" lon="2.2934">
        <ele>190.834102</ele>
        <time>2021-10-03T10:17:44.000Z</time>
      </trkpt>
      <trkpt lat="43.63055" lon="2.29335">
        <ele>190.811418</ele>
        <time>2021-10-03T10:17:45.000Z</time>
      </trkpt>
      <trkpt lat="43.63053" lon="2.29329">
        <ele>190.787478</ele>
        <time>2021-10-03T10:17:46.000Z</time>
      </trkpt>
      <trkpt lat="43.6305" lon="2.29324">
        <ele>190.763121</ele>
        <time>2021-10-03T10:17:47.000Z</time>
      </trkpt>
      <trkpt lat="43.63048" lon="2.29318">
        <ele>190.739363</ele>
        <time>2021-10-03T10:17:48.000Z</time>
      </trkpt>
      <trkpt lat="43.63045" lon="2.29313">
        <ele>190.716682</ele>
        <time>2021-10-03T10:17:49.000Z</time>
      </trkpt>
      <trkpt lat="43.63043" lon="2.29307">
        <ele>190.693375</ele>
        <time>2021-10-03T10:17:50.000Z</time>
      </trkpt>
      <trkpt lat="43.63041" lon="2.29302">
        <ele>190.67031</ele>
        <time>2021-10-03T10:17:51.000Z</time>
      </trkpt>
      <trkpt lat="43.63038" lon="2.29295">
        <ele>190.644427</ele>
        <time>2021-10-03T10:17:52.000Z</time>
      </trkpt>
      <trkpt lat="43.63036" lon="2.2929">
        <ele>190.621746</ele>
        <time>2021-10-03T10:17:53.000Z</time>
      </trkpt>
      <trkpt lat="43.63033" lon="2.29285">
        <ele>190.599687</ele>
        <time>2021-10-03T10:17:54.000Z</time>
      </trkpt>
      <trkpt lat="43.63031" lon="2.2928">
        <ele>190.576809</ele>
        <time>2021-10-03T10:17:55.000Z</time>
      </trkpt>
      <trkpt lat="43.63029" lon="2.29275">
        <ele>190.555363</ele>
        <time>2021-10-03T10:17:56.000Z</time>
      </trkpt>
      <trkpt lat="43.63026" lon="2.29269">
        <ele>190.53237</ele>
        <time>2021-10-03T10:17:57.000Z</time>
      </trkpt>
      <trkpt lat="43.63025" lon="2.29263">
        <ele>190.507174</ele>
        <time>2021-10-03T10:17:58.000Z</time>
      </trkpt>
      <trkpt lat="43.63024" lon="2.29255">
        <ele>190.480089</ele>
        <time>2021-10-03T10:17:59.000Z</time>
      </trkpt>
      <trkpt lat="43.63024" lon="2.29247">
        <ele>190.452216</ele>
        <time>2021-10-03T10:18:00.000Z</time>
      </trkpt>
      <trkpt lat="43.63022" lon="2.29239">
        <ele>190.422301</ele>
        <time>2021-10-03T10:18:01.000Z</time>
      </trkpt>
      <trkpt lat="43.6302" lon="2.29232">
        <ele>190.394899</ele>
        <time>2021-10-03T10:18:02.000Z</time>
      </trkpt>
      <trkpt lat="43.63018" lon="2.29225">
        <ele>190.36447</ele>
        <time>2021-10-03T10:18:03.000Z</time>
      </trkpt>
      <trkpt lat="43.63015" lon="2.29218">
        <ele>190.336564</ele>
        <time>2021-10-03T10:18:04.000Z</time>
      </trkpt>
      <trkpt lat="43.63011" lon="2.29213">
        <ele>190.310593</ele>
        <time>2021-10-03T10:18:05.000Z</time>
      </trkpt>
      <trkpt lat="43.63008" lon="2.29208">
        <ele>190.291123</ele>
        <time>2021-10-03T10:18:06.000Z</time>
      </trkpt>
      <trkpt lat="43.63005" lon="2.29203">
        <ele>190.271314</ele>
        <time>2021-10-03T10:18:07.000Z</time>
      </trkpt>
      <trkpt lat="43.63001" lon="2.29197">
        <ele>190.250823</ele>
        <time>2021-10-03T10:18:08.000Z</time>
      </trkpt>
      <trkpt lat="43.62998" lon="2.29192">
        <ele>190.230672</ele>
        <time>2021-10-03T10:18:09.000Z</time>
      </trkpt>
      <trkpt lat="43.62995" lon="2.29186">
        <ele>190.209602</ele>
        <time>2021-10-03T10:18:10.000Z</time>
      </trkpt>
      <trkpt lat="43.62992" lon="2.29179">
        <ele>190.186239</ele>
        <time>2021-10-03T10:18:11.000Z</time>
      </trkpt>
      <trkpt lat="43.62989" lon="2.29172">
        <ele>190.163521</ele>
        <time>2021-10-03T10:18:12.000Z</time>
      </trkpt>
      <trkpt lat="43.62986" lon="2.29165">
        <ele>190.14149</ele>
        <time>2021-10-03T10:18:13.000Z</time>
      </trkpt>
      <trkpt lat="43.62983" lon="2.29159">
        <ele>190.119565</ele>
        <time>2021-10-03T10:18:14.000Z</time>
      </trkpt>
      <trkpt lat="43.62981" lon="2.29151">
        <ele>190.096799</ele>
        <time>2021-10-03T10:18:15.000Z</time>
      </trkpt>
      <trkpt lat="43.62979" lon="2.29144">
        <ele>190.074033</ele>
        <time>2021-10-03T10:18:16.000Z</time>
      </trkpt>
      <trkpt lat="43.62977" lon="2.29137">
        <ele>190.053022</ele>
        <time>2021-10-03T10:18:17.000Z</time>
      </trkpt>
      <trkpt lat="43.62975" lon="2.2913">
        <ele>190.032554</ele>
        <time>2021-10-03T10:18:18.000Z</time>
      </trkpt>
      <trkpt lat="43.62972" lon="2.29124">
        <ele>190.012102</ele>
        <time>2021-10-03T10:18:19.000Z</time>
      </trkpt>
      <trkpt lat="43.6297" lon="2.29117">
        <ele>189.990884</ele>
        <time>2021-10-03T10:18:20.000Z</time>
      </trkpt>
      <trkpt lat="43.62968" lon="2.2911">
        <ele>189.969921</ele>
        <time>2021-10-03T10:18:21.000Z</time>
      </trkpt>
      <trkpt lat="43.62966" lon="2.29103">
        <ele>189.950366</ele>
        <time>2021-10-03T10:18:22.000Z</time>
      </trkpt>
      <trkpt lat="43.62965" lon="2.29096">
        <ele>189.92948</ele>
        <time>2021-10-03T10:18:23.000Z</time>
      </trkpt>
      <trkpt lat="43.62965" lon="2.29089">
        <ele>189.908221</ele>
        <time>2021-10-03T10:18:24.000Z</time>
      </trkpt>
      <trkpt lat="43.62964" lon="2.29082">
        <ele>189.88871</ele>
        <time>2021-10-03T10:18:25.000Z</time>
      </trkpt>
      <trkpt lat="43.62962" lon="2.29076">
        <ele>189.870115</ele>
        <time>2021-10-03T10:18:26.000Z</time>
      </trkpt>
      <trkpt lat="43.62962" lon="2.2907">
        <ele>189.852868</ele>
        <time>2021-10-03T10:18:27.000Z</time>
      </trkpt>
      <trkpt lat="43.62961" lon="2.29063">
        <ele>189.835272</ele>
        <time>2021-10-03T10:18:28.000Z</time>
      </trkpt>
      <trkpt lat="43.62962" lon="2.29057">
        <ele>189.816549</ele>
        <time>2021-10-03T10:18:29.000Z</time>
      </trkpt>
      <trkpt lat="43.62963" lon="2.2905">
        <ele>189.796876</ele>
        <time>2021-10-03T10:18:30.000Z</time>
      </trkpt>
      <trkpt lat="43.62966" lon="2.29044">
        <ele>189.77662</ele>
        <time>2021-10-03T10:18:31.000Z</time>
      </trkpt>
      <trkpt lat="43.62968" lon="2.29038">
        <ele>189.758459</ele>
        <time>2021-10-03T10:18:32.000Z</time>
      </trkpt>
      <trkpt lat="43.62972" lon="2.29032">
        <ele>189.736645</ele>
        <time>2021-10-03T10:18:33.000Z</time>
      </trkpt>
      <trkpt lat="43.62976" lon="2.29027">
        <ele>189.714058</ele>
        <time>2021-10-03T10:18:34.000Z</time>
      </trkpt>
      <trkpt lat="43.62979" lon="2.29021">
        <ele>189.693448</ele>
        <time>2021-10-03T10:18:35.000Z</time>
      </trkpt>
      <trkpt lat="43.62981" lon="2.29015">
        <ele>189.673476</ele>
        <time>2021-10-03T10:18:36.000Z</time>
      </trkpt>
      <trkpt lat="43.62984" lon="2.29009">
        <ele>189.654033</ele>
        <time>2021-10-03T10:18:37.000Z</time>
      </trkpt>
      <trkpt lat="43.62985" lon="2.29002">
        <ele>189.634625</ele>
        <time>2021-10-03T10:18:38.000Z</time>
      </trkpt>
      <trkpt lat="43.62987" lon="2.28995">
        <ele>189.614529</ele>
        <time>2021-10-03T10:18:39.000Z</time>
      </trkpt>
      <trkpt lat="43.62988" lon="2.28988">
        <ele>189.587614</ele>
        <time>2021-10-03T10:18:40.000Z</time>
      </trkpt>
      <trkpt lat="43.62988" lon="2.28982">
        <ele>189.552156</ele>
        <time>2021-10-03T10:18:41.000Z</time>
      </trkpt>
      <trkpt lat="43.62989" lon="2.28976">
        <ele>189.517528</ele>
        <time>2021-10-03T10:18:42.000Z</time>
      </trkpt>
      <trkpt lat="43.62991" lon="2.28969">
        <ele>189.481484</ele>
        <time>2021-10-03T10:18:43.000Z</time>
      </trkpt>
      <trkpt lat="43.62993" lon="2.28964">
        <ele>189.448498</ele>
        <time>2021-10-03T10:18:44.000Z</time>
      </trkpt>
      <trkpt lat="43.62994" lon="2.28958">
        <ele>189.41595</ele>
        <time>2021-10-03T10:18:45.000Z</time>
      </trkpt>
      <trkpt lat="43.62996" lon="2.28952">
        <ele>189.380905</ele>
        <time>2021-10-03T10:18:46.000Z</time>
      </trkpt>
      <trkpt lat="43.62998" lon="2.28945">
        <ele>189.343582</ele>
        <time>2021-10-03T10:18:47.000Z</time>
      </trkpt>
      <trkpt lat="43.63" lon="2.28939">
        <ele>189.306258</ele>
        <time>2021-10-03T10:18:48.000Z</time>
      </trkpt>
      <trkpt lat="43.63001" lon="2.28933">
        <ele>189.270743</ele>
        <time>2021-10-03T10:18:49.000Z</time>
      </trkpt>
      <trkpt lat="43.63003" lon="2.28927">
        <ele>189.238018</ele>
        <time>2021-10-03T10:18:50.000Z</time>
      </trkpt>
      <trkpt lat="43.63005" lon="2.28921">
        <ele>189.203968</ele>
        <time>2021-10-03T10:18:51.000Z</time>
      </trkpt>
      <trkpt lat="43.63007" lon="2.28915">
        <ele>189.166032</ele>
        <time>2021-10-03T10:18:52.000Z</time>
      </trkpt>
      <trkpt lat="43.63009" lon="2.28909">
        <ele>189.129399</ele>
        <time>2021-10-03T10:18:53.000Z</time>
      </trkpt>
      <trkpt lat="43.63011" lon="2.28903">
        <ele>189.094638</ele>
        <time>2021-10-03T10:18:54.000Z</time>
      </trkpt>
      <trkpt lat="43.63012" lon="2.28897">
        <ele>189.060388</ele>
        <time>2021-10-03T10:18:55.000Z</time>
      </trkpt>
      <trkpt lat="43.63013" lon="2.28891">
        <ele>189.025759</ele>
        <time>2021-10-03T10:18:56.000Z</time>
      </trkpt>
      <trkpt lat="43.63014" lon="2.28885">
        <ele>188.993249</ele>
        <time>2021-10-03T10:18:57.000Z</time>
      </trkpt>
      <trkpt lat="43.63013" lon="2.28879">
        <ele>188.963649</ele>
        <time>2021-10-03T10:18:58.000Z</time>
      </trkpt>
      <trkpt lat="43.63012" lon="2.28874">
        <ele>188.934446</ele>
        <time>2021-10-03T10:18:59.000Z</time>
      </trkpt>
      <trkpt lat="43.63009" lon="2.2887">
        <ele>188.905591</ele>
        <time>2021-10-03T10:19:00.000Z</time>
      </trkpt>
      <trkpt lat="43.63007" lon="2.28865">
        <ele>188.871785</ele>
        <time>2021-10-03T10:19:01.000Z</time>
      </trkpt>
      <trkpt lat="43.63005" lon="2.28859">
        <ele>188.839873</ele>
        <time>2021-10-03T10:19:02.000Z</time>
      </trkpt>
      <trkpt lat="43.63005" lon="2.28854">
        <ele>188.808893</ele>
        <time>2021-10-03T10:19:03.000Z</time>
      </trkpt>
      <trkpt lat="43.63004" lon="2.28848">
        <ele>188.776382</ele>
        <time>2021-10-03T10:19:04.000Z</time>
      </trkpt>
      <trkpt lat="43.63005" lon="2.28841">
        <ele>188.742259</ele>
        <time>2021-10-03T10:19:05.000Z</time>
      </trkpt>
      <trkpt lat="43.63005" lon="2.28836">
        <ele>188.710885</ele>
        <time>2021-10-03T10:19:06.000Z</time>
      </trkpt>
      <trkpt lat="43.63006" lon="2.28829">
        <ele>188.67531</ele>
        <time>2021-10-03T10:19:07.000Z</time>
      </trkpt>
      <trkpt lat="43.63006" lon="2.28822">
        <ele>188.637475</ele>
        <time>2021-10-03T10:19:08.000Z</time>
      </trkpt>
      <trkpt lat="43.63005" lon="2.28815">
        <ele>188.600303</ele>
        <time>2021-10-03T10:19:09.000Z</time>
      </trkpt>
      <trkpt lat="43.63004" lon="2.28808">
        <ele>188.561341</ele>
        <time>2021-10-03T10:19:10.000Z</time>
      </trkpt>
      <trkpt lat="43.63003" lon="2.28801">
        <ele>188.524798</ele>
        <time>2021-10-03T10:19:11.000Z</time>
      </trkpt>
      <trkpt lat="43.63002" lon="2.28795">
        <ele>188.48878</ele>
        <time>2021-10-03T10:19:12.000Z</time>
      </trkpt>
      <trkpt lat="43.63001" lon="2.28788">
        <ele>188.45154</ele>
        <time>2021-10-03T10:19:13.000Z</time>
      </trkpt>
      <trkpt lat="43.63" lon="2.28781">
        <ele>188.41289</ele>
        <time>2021-10-03T10:19:14.000Z</time>
      </trkpt>
      <trkpt lat="43.62999" lon="2.28774">
        <ele>188.373587</ele>
        <time>2021-10-03T10:19:15.000Z</time>
      </trkpt>
      <trkpt lat="43.62998" lon="2.28767">
        <ele>188.336518</ele>
        <time>2021-10-03T10:19:16.000Z</time>
      </trkpt>
      <trkpt lat="43.62997" lon="2.28761">
        <ele>188.299801</ele>
        <time>2021-10-03T10:19:17.000Z</time>
      </trkpt>
      <trkpt lat="43.62995" lon="2.28754">
        <ele>188.26299</ele>
        <time>2021-10-03T10:19:18.000Z</time>
      </trkpt>
      <trkpt lat="43.62994" lon="2.28748">
        <ele>188.234264</ele>
        <time>2021-10-03T10:19:19.000Z</time>
      </trkpt>
      <trkpt lat="43.62993" lon="2.2874">
        <ele>188.204848</ele>
        <time>2021-10-03T10:19:20.000Z</time>
      </trkpt>
      <trkpt lat="43.62992" lon="2.28734">
        <ele>188.176737</ele>
        <time>2021-10-03T10:19:21.000Z</time>
      </trkpt>
      <trkpt lat="43.62991" lon="2.28727">
        <ele>188.148407</ele>
        <time>2021-10-03T10:19:22.000Z</time>
      </trkpt>
      <trkpt lat="43.62991" lon="2.2872">
        <ele>188.12101</ele>
        <time>2021-10-03T10:19:23.000Z</time>
      </trkpt>
      <trkpt lat="43.6299" lon="2.28713">
        <ele>188.093082</ele>
        <time>2021-10-03T10:19:24.000Z</time>
      </trkpt>
      <trkpt lat="43.6299" lon="2.28706">
        <ele>188.062973</ele>
        <time>2021-10-03T10:19:25.000Z</time>
      </trkpt>
      <trkpt lat="43.6299" lon="2.28698">
        <ele>188.032667</ele>
        <time>2021-10-03T10:19:26.000Z</time>
      </trkpt>
      <trkpt lat="43.62989" lon="2.28691">
        <ele>188.003935</ele>
        <time>2021-10-03T10:19:27.000Z</time>
      </trkpt>
      <trkpt lat="43.62989" lon="2.28684">
        <ele>187.976097</ele>
        <time>2021-10-03T10:19:28.000Z</time>
      </trkpt>
      <trkpt lat="43.62989" lon="2.28677">
        <ele>187.948611</ele>
        <time>2021-10-03T10:19:29.000Z</time>
      </trkpt>
      <trkpt lat="43.62988" lon="2.28671">
        <ele>187.922009</ele>
        <time>2021-10-03T10:19:30.000Z</time>
      </trkpt>
      <trkpt lat="43.62988" lon="2.28664">
        <ele>187.895288</ele>
        <time>2021-10-03T10:19:31.000Z</time>
      </trkpt>
      <trkpt lat="43.62988" lon="2.28657">
        <ele>187.86736</ele>
        <time>2021-10-03T10:19:32.000Z</time>
      </trkpt>
      <trkpt lat="43.62988" lon="2.2865">
        <ele>187.839522</ele>
        <time>2021-10-03T10:19:33.000Z</time>
      </trkpt>
      <trkpt lat="43.62988" lon="2.28644">
        <ele>187.811996</ele>
        <time>2021-10-03T10:19:34.000Z</time>
      </trkpt>
      <trkpt lat="43.62988" lon="2.28637">
        <ele>187.783666</ele>
        <time>2021-10-03T10:19:35.000Z</time>
      </trkpt>
      <trkpt lat="43.62988" lon="2.28629">
        <ele>187.75413</ele>
        <time>2021-10-03T10:19:36.000Z</time>
      </trkpt>
      <trkpt lat="43.62988" lon="2.28622">
        <ele>187.7258</ele>
        <time>2021-10-03T10:19:37.000Z</time>
      </trkpt>
      <trkpt lat="43.62987" lon="2.28615">
        <ele>187.698314</ele>
        <time>2021-10-03T10:19:38.000Z</time>
      </trkpt>
      <trkpt lat="43.62986" lon="2.28609">
        <ele>187.671315</ele>
        <time>2021-10-03T10:19:39.000Z</time>
      </trkpt>
      <trkpt lat="43.62987" lon="2.28603">
        <ele>187.64705</ele>
        <time>2021-10-03T10:19:40.000Z</time>
      </trkpt>
      <trkpt lat="43.62987" lon="2.28596">
        <ele>187.62073</ele>
        <time>2021-10-03T10:19:41.000Z</time>
      </trkpt>
      <trkpt lat="43.62988" lon="2.2859">
        <ele>187.594411</ele>
        <time>2021-10-03T10:19:42.000Z</time>
      </trkpt>
      <trkpt lat="43.62988" lon="2.28584">
        <ele>187.569094</ele>
        <time>2021-10-03T10:19:43.000Z</time>
      </trkpt>
      <trkpt lat="43.62989" lon="2.28578">
        <ele>187.545588</ele>
        <time>2021-10-03T10:19:44.000Z</time>
      </trkpt>
      <trkpt lat="43.62989" lon="2.28572">
        <ele>187.52218</ele>
        <time>2021-10-03T10:19:45.000Z</time>
      </trkpt>
      <trkpt lat="43.62989" lon="2.28566">
        <ele>187.495956</ele>
        <time>2021-10-03T10:19:46.000Z</time>
      </trkpt>
      <trkpt lat="43.62988" lon="2.28559">
        <ele>187.46843</ele>
        <time>2021-10-03T10:19:47.000Z</time>
      </trkpt>
      <trkpt lat="43.62988" lon="2.28553">
        <ele>187.443113</ele>
        <time>2021-10-03T10:19:48.000Z</time>
      </trkpt>
      <trkpt lat="43.62987" lon="2.28547">
        <ele>187.42041</ele>
        <time>2021-10-03T10:19:49.000Z</time>
      </trkpt>
      <trkpt lat="43.62986" lon="2.28542">
        <ele>187.398172</ele>
        <time>2021-10-03T10:19:50.000Z</time>
      </trkpt>
      <trkpt lat="43.62985" lon="2.28537">
        <ele>187.376707</ele>
        <time>2021-10-03T10:19:51.000Z</time>
      </trkpt>
      <trkpt lat="43.62984" lon="2.28532">
        <ele>187.355623</ele>
        <time>2021-10-03T10:19:52.000Z</time>
      </trkpt>
      <trkpt lat="43.62982" lon="2.28526">
        <ele>187.332663</ele>
        <time>2021-10-03T10:19:53.000Z</time>
      </trkpt>
      <trkpt lat="43.62982" lon="2.28521">
        <ele>187.310029</ele>
        <time>2021-10-03T10:19:54.000Z</time>
      </trkpt>
      <trkpt lat="43.62981" lon="2.28515">
        <ele>187.286622</ele>
        <time>2021-10-03T10:19:55.000Z</time>
      </trkpt>
      <trkpt lat="43.62982" lon="2.28509">
        <ele>187.262102</ele>
        <time>2021-10-03T10:19:56.000Z</time>
      </trkpt>
      <trkpt lat="43.62983" lon="2.28503">
        <ele>187.243653</ele>
        <time>2021-10-03T10:19:57.000Z</time>
      </trkpt>
      <trkpt lat="43.62984" lon="2.28496">
        <ele>187.22444</ele>
        <time>2021-10-03T10:19:58.000Z</time>
      </trkpt>
      <trkpt lat="43.62985" lon="2.2849">
        <ele>187.205362</ele>
        <time>2021-10-03T10:19:59.000Z</time>
      </trkpt>
      <trkpt lat="43.62985" lon="2.28483">
        <ele>187.185783</ele>
        <time>2021-10-03T10:20:00.000Z</time>
      </trkpt>
      <trkpt lat="43.62985" lon="2.28476">
        <ele>187.166767</ele>
        <time>2021-10-03T10:20:01.000Z</time>
      </trkpt>
      <trkpt lat="43.62985" lon="2.28469">
        <ele>187.14859</ele>
        <time>2021-10-03T10:20:02.000Z</time>
      </trkpt>
      <trkpt lat="43.62984" lon="2.28463">
        <ele>187.129378</ele>
        <time>2021-10-03T10:20:03.000Z</time>
      </trkpt>
      <trkpt lat="43.62983" lon="2.28456">
        <ele>187.110113</ele>
        <time>2021-10-03T10:20:04.000Z</time>
      </trkpt>
      <trkpt lat="43.62982" lon="2.28449">
        <ele>187.089743</ele>
        <time>2021-10-03T10:20:05.000Z</time>
      </trkpt>
      <trkpt lat="43.62982" lon="2.28441">
        <ele>187.069427</ele>
        <time>2021-10-03T10:20:06.000Z</time>
      </trkpt>
      <trkpt lat="43.62981" lon="2.28434">
        <ele>187.048504</ele>
        <time>2021-10-03T10:20:07.000Z</time>
      </trkpt>
      <trkpt lat="43.62981" lon="2.28427">
        <ele>187.02781</ele>
        <time>2021-10-03T10:20:08.000Z</time>
      </trkpt>
      <trkpt lat="43.6298" lon="2.28419">
        <ele>187.007716</ele>
        <time>2021-10-03T10:20:09.000Z</time>
      </trkpt>
      <trkpt lat="43.6298" lon="2.28413">
        <ele>186.988421</ele>
        <time>2021-10-03T10:20:10.000Z</time>
      </trkpt>
      <trkpt lat="43.6298" lon="2.28406">
        <ele>186.970244</ele>
        <time>2021-10-03T10:20:11.000Z</time>
      </trkpt>
      <trkpt lat="43.6298" lon="2.284">
        <ele>186.952067</ele>
        <time>2021-10-03T10:20:12.000Z</time>
      </trkpt>
      <trkpt lat="43.62981" lon="2.28393">
        <ele>186.933414</ele>
        <time>2021-10-03T10:20:13.000Z</time>
      </trkpt>
      <trkpt lat="43.62982" lon="2.28387">
        <ele>186.915562</ele>
        <time>2021-10-03T10:20:14.000Z</time>
      </trkpt>
      <trkpt lat="43.62984" lon="2.28381">
        <ele>186.89608</ele>
        <time>2021-10-03T10:20:15.000Z</time>
      </trkpt>
      <trkpt lat="43.62986" lon="2.28374">
        <ele>186.877534</ele>
        <time>2021-10-03T10:20:16.000Z</time>
      </trkpt>
      <trkpt lat="43.62986" lon="2.28368">
        <ele>186.859371</ele>
        <time>2021-10-03T10:20:17.000Z</time>
      </trkpt>
      <trkpt lat="43.62988" lon="2.28361">
        <ele>186.839492</ele>
        <time>2021-10-03T10:20:18.000Z</time>
      </trkpt>
      <trkpt lat="43.62989" lon="2.28355">
        <ele>186.821606</ele>
        <time>2021-10-03T10:20:19.000Z</time>
      </trkpt>
      <trkpt lat="43.6299" lon="2.28348">
        <ele>186.803211</ele>
        <time>2021-10-03T10:20:20.000Z</time>
      </trkpt>
      <trkpt lat="43.62991" lon="2.28342">
        <ele>186.783638</ele>
        <time>2021-10-03T10:20:21.000Z</time>
      </trkpt>
      <trkpt lat="43.62992" lon="2.28335">
        <ele>186.764293</ele>
        <time>2021-10-03T10:20:22.000Z</time>
      </trkpt>
      <trkpt lat="43.62994" lon="2.28328">
        <ele>186.745263</ele>
        <time>2021-10-03T10:20:23.000Z</time>
      </trkpt>
      <trkpt lat="43.62995" lon="2.28322">
        <ele>186.726324</ele>
        <time>2021-10-03T10:20:24.000Z</time>
      </trkpt>
      <trkpt lat="43.62997" lon="2.28315">
        <ele>186.706979</ele>
        <time>2021-10-03T10:20:25.000Z</time>
      </trkpt>
      <trkpt lat="43.62998" lon="2.28309">
        <ele>186.688491</ele>
        <time>2021-10-03T10:20:26.000Z</time>
      </trkpt>
      <trkpt lat="43.62999" lon="2.28303">
        <ele>186.670476</ele>
        <time>2021-10-03T10:20:27.000Z</time>
      </trkpt>
      <trkpt lat="43.63" lon="2.28297">
        <ele>186.65369</ele>
        <time>2021-10-03T10:20:28.000Z</time>
      </trkpt>
      <trkpt lat="43.63001" lon="2.28291">
        <ele>186.636418</ele>
        <time>2021-10-03T10:20:29.000Z</time>
      </trkpt>
      <trkpt lat="43.63002" lon="2.28284">
        <ele>186.616574</ele>
        <time>2021-10-03T10:20:30.000Z</time>
      </trkpt>
      <trkpt lat="43.63003" lon="2.28277">
        <ele>186.595704</ele>
        <time>2021-10-03T10:20:31.000Z</time>
      </trkpt>
      <trkpt lat="43.63004" lon="2.28269">
        <ele>186.575315</ele>
        <time>2021-10-03T10:20:32.000Z</time>
      </trkpt>
      <trkpt lat="43.63005" lon="2.28263">
        <ele>186.555662</ele>
        <time>2021-10-03T10:20:33.000Z</time>
      </trkpt>
      <trkpt lat="43.63005" lon="2.28258">
        <ele>186.536539</ele>
        <time>2021-10-03T10:20:34.000Z</time>
      </trkpt>
      <trkpt lat="43.63005" lon="2.28252">
        <ele>186.516701</ele>
        <time>2021-10-03T10:20:35.000Z</time>
      </trkpt>
      <trkpt lat="43.63004" lon="2.28246">
        <ele>186.492811</ele>
        <time>2021-10-03T10:20:36.000Z</time>
      </trkpt>
      <trkpt lat="43.63004" lon="2.28239">
        <ele>186.469464</ele>
        <time>2021-10-03T10:20:37.000Z</time>
      </trkpt>
      <trkpt lat="43.63004" lon="2.28233">
        <ele>186.445293</ele>
        <time>2021-10-03T10:20:38.000Z</time>
      </trkpt>
      <trkpt lat="43.63003" lon="2.28227">
        <ele>186.423239</ele>
        <time>2021-10-03T10:20:39.000Z</time>
      </trkpt>
      <trkpt lat="43.63003" lon="2.28219">
        <ele>186.39763</ele>
        <time>2021-10-03T10:20:40.000Z</time>
      </trkpt>
      <trkpt lat="43.63003" lon="2.28212">
        <ele>186.371299</ele>
        <time>2021-10-03T10:20:41.000Z</time>
      </trkpt>
      <trkpt lat="43.63003" lon="2.28205">
        <ele>186.344246</ele>
        <time>2021-10-03T10:20:42.000Z</time>
      </trkpt>
      <trkpt lat="43.63004" lon="2.28197">
        <ele>186.316432</ele>
        <time>2021-10-03T10:20:43.000Z</time>
      </trkpt>
      <trkpt lat="43.63005" lon="2.2819">
        <ele>186.289537</ele>
        <time>2021-10-03T10:20:44.000Z</time>
      </trkpt>
      <trkpt lat="43.63006" lon="2.28183">
        <ele>186.262742</ele>
        <time>2021-10-03T10:20:45.000Z</time>
      </trkpt>
      <trkpt lat="43.63008" lon="2.28176">
        <ele>186.236267</ele>
        <time>2021-10-03T10:20:46.000Z</time>
      </trkpt>
      <trkpt lat="43.6301" lon="2.2817">
        <ele>186.211649</ele>
        <time>2021-10-03T10:20:47.000Z</time>
      </trkpt>
      <trkpt lat="43.63012" lon="2.28164">
        <ele>186.190859</ele>
        <time>2021-10-03T10:20:48.000Z</time>
      </trkpt>
      <trkpt lat="43.63015" lon="2.28159">
        <ele>186.167694</ele>
        <time>2021-10-03T10:20:49.000Z</time>
      </trkpt>
      <trkpt lat="43.63016" lon="2.28152">
        <ele>186.143847</ele>
        <time>2021-10-03T10:20:50.000Z</time>
      </trkpt>
      <trkpt lat="43.63017" lon="2.28146">
        <ele>186.118998</ele>
        <time>2021-10-03T10:20:51.000Z</time>
      </trkpt>
      <trkpt lat="43.63017" lon="2.28139">
        <ele>186.095553</ele>
        <time>2021-10-03T10:20:52.000Z</time>
      </trkpt>
      <trkpt lat="43.63017" lon="2.28133">
        <ele>186.071492</ele>
        <time>2021-10-03T10:20:53.000Z</time>
      </trkpt>
      <trkpt lat="43.63018" lon="2.28126">
        <ele>186.047603</ele>
        <time>2021-10-03T10:20:54.000Z</time>
      </trkpt>
      <trkpt lat="43.63018" lon="2.28119">
        <ele>186.02271</ele>
        <time>2021-10-03T10:20:55.000Z</time>
      </trkpt>
      <trkpt lat="43.63018" lon="2.28112">
        <ele>185.997936</ele>
        <time>2021-10-03T10:20:56.000Z</time>
      </trkpt>
      <trkpt lat="43.63018" lon="2.28106">
        <ele>185.97449</ele>
        <time>2021-10-03T10:20:57.000Z</time>
      </trkpt>
      <trkpt lat="43.63018" lon="2.28099">
        <ele>185.94852</ele>
        <time>2021-10-03T10:20:58.000Z</time>
      </trkpt>
      <trkpt lat="43.63018" lon="2.28091">
        <ele>185.921107</ele>
        <time>2021-10-03T10:20:59.000Z</time>
      </trkpt>
      <trkpt lat="43.63019" lon="2.28084">
        <ele>185.894341</ele>
        <time>2021-10-03T10:21:00.000Z</time>
      </trkpt>
      <trkpt lat="43.63018" lon="2.28077">
        <ele>185.869924</ele>
        <time>2021-10-03T10:21:01.000Z</time>
      </trkpt>
      <trkpt lat="43.63018" lon="2.2807">
        <ele>185.845675</ele>
        <time>2021-10-03T10:21:02.000Z</time>
      </trkpt>
      <trkpt lat="43.63017" lon="2.28063">
        <ele>185.81855</ele>
        <time>2021-10-03T10:21:03.000Z</time>
      </trkpt>
      <trkpt lat="43.63017" lon="2.28055">
        <ele>185.792503</ele>
        <time>2021-10-03T10:21:04.000Z</time>
      </trkpt>
      <trkpt lat="43.63017" lon="2.28048">
        <ele>185.766816</ele>
        <time>2021-10-03T10:21:05.000Z</time>
      </trkpt>
      <trkpt lat="43.63016" lon="2.28041">
        <ele>185.740726</ele>
        <time>2021-10-03T10:21:06.000Z</time>
      </trkpt>
      <trkpt lat="43.63015" lon="2.28034">
        <ele>185.715437</ele>
        <time>2021-10-03T10:21:07.000Z</time>
      </trkpt>
      <trkpt lat="43.63014" lon="2.28028">
        <ele>185.692267</ele>
        <time>2021-10-03T10:21:08.000Z</time>
      </trkpt>
      <trkpt lat="43.63014" lon="2.28021">
        <ele>185.668414</ele>
        <time>2021-10-03T10:21:09.000Z</time>
      </trkpt>
      <trkpt lat="43.63013" lon="2.28015">
        <ele>185.631239</ele>
        <time>2021-10-03T10:21:10.000Z</time>
      </trkpt>
      <trkpt lat="43.63012" lon="2.28009">
        <ele>185.593575</ele>
        <time>2021-10-03T10:21:11.000Z</time>
      </trkpt>
      <trkpt lat="43.63011" lon="2.28002">
        <ele>185.555256</ele>
        <time>2021-10-03T10:21:12.000Z</time>
      </trkpt>
      <trkpt lat="43.6301" lon="2.27995">
        <ele>185.515329</ele>
        <time>2021-10-03T10:21:13.000Z</time>
      </trkpt>
      <trkpt lat="43.63009" lon="2.27989">
        <ele>185.479357</ele>
        <time>2021-10-03T10:21:14.000Z</time>
      </trkpt>
      <trkpt lat="43.63008" lon="2.27983">
        <ele>185.442184</ele>
        <time>2021-10-03T10:21:15.000Z</time>
      </trkpt>
      <trkpt lat="43.63007" lon="2.27977">
        <ele>185.403292</ele>
        <time>2021-10-03T10:21:16.000Z</time>
      </trkpt>
      <trkpt lat="43.63006" lon="2.2797">
        <ele>185.363931</ele>
        <time>2021-10-03T10:21:17.000Z</time>
      </trkpt>
      <trkpt lat="43.63006" lon="2.27964">
        <ele>185.326185</ele>
        <time>2021-10-03T10:21:18.000Z</time>
      </trkpt>
      <trkpt lat="43.63005" lon="2.27957">
        <ele>185.287293</ele>
        <time>2021-10-03T10:21:19.000Z</time>
      </trkpt>
      <trkpt lat="43.63003" lon="2.27951">
        <ele>185.249221</ele>
        <time>2021-10-03T10:21:20.000Z</time>
      </trkpt>
      <trkpt lat="43.63002" lon="2.27944">
        <ele>185.211148</ele>
        <time>2021-10-03T10:21:21.000Z</time>
      </trkpt>
      <trkpt lat="43.63001" lon="2.27938">
        <ele>185.175691</ele>
        <time>2021-10-03T10:21:22.000Z</time>
      </trkpt>
      <trkpt lat="43.63001" lon="2.27932">
        <ele>185.138761</ele>
        <time>2021-10-03T10:21:23.000Z</time>
      </trkpt>
      <trkpt lat="43.63" lon="2.27926">
        <ele>185.101831</ele>
        <time>2021-10-03T10:21:24.000Z</time>
      </trkpt>
      <trkpt lat="43.62999" lon="2.2792">
        <ele>185.068804</ele>
        <time>2021-10-03T10:21:25.000Z</time>
      </trkpt>
      <trkpt lat="43.62998" lon="2.27915">
        <ele>185.035641</ele>
        <time>2021-10-03T10:21:26.000Z</time>
      </trkpt>
      <trkpt lat="43.62997" lon="2.27909">
        <ele>185.002568</ele>
        <time>2021-10-03T10:21:27.000Z</time>
      </trkpt>
      <trkpt lat="43.62995" lon="2.27904">
        <ele>184.96973</ele>
        <time>2021-10-03T10:21:28.000Z</time>
      </trkpt>
      <trkpt lat="43.62994" lon="2.27899">
        <ele>184.939344</ele>
        <time>2021-10-03T10:21:29.000Z</time>
      </trkpt>
      <trkpt lat="43.62992" lon="2.27895">
        <ele>184.909492</ele>
        <time>2021-10-03T10:21:30.000Z</time>
      </trkpt>
      <trkpt lat="43.62991" lon="2.2789">
        <ele>184.88162</ele>
        <time>2021-10-03T10:21:31.000Z</time>
      </trkpt>
      <trkpt lat="43.6299" lon="2.27886">
        <ele>184.854016</ele>
        <time>2021-10-03T10:21:32.000Z</time>
      </trkpt>
      <trkpt lat="43.62989" lon="2.2788">
        <ele>184.822296</ele>
        <time>2021-10-03T10:21:33.000Z</time>
      </trkpt>
      <trkpt lat="43.62987" lon="2.27875">
        <ele>184.785953</ele>
        <time>2021-10-03T10:21:34.000Z</time>
      </trkpt>
      <trkpt lat="43.62986" lon="2.27868">
        <ele>184.748092</ele>
        <time>2021-10-03T10:21:35.000Z</time>
      </trkpt>
      <trkpt lat="43.62985" lon="2.27862">
        <ele>184.710651</ele>
        <time>2021-10-03T10:21:36.000Z</time>
      </trkpt>
      <trkpt lat="43.62983" lon="2.27855">
        <ele>184.668288</ele>
        <time>2021-10-03T10:21:37.000Z</time>
      </trkpt>
      <trkpt lat="43.62981" lon="2.27849">
        <ele>184.627298</ele>
        <time>2021-10-03T10:21:38.000Z</time>
      </trkpt>
      <trkpt lat="43.62979" lon="2.27843">
        <ele>184.587848</ele>
        <time>2021-10-03T10:21:39.000Z</time>
      </trkpt>
      <trkpt lat="43.62977" lon="2.27836">
        <ele>184.548183</ele>
        <time>2021-10-03T10:21:40.000Z</time>
      </trkpt>
      <trkpt lat="43.62976" lon="2.2783">
        <ele>184.509197</ele>
        <time>2021-10-03T10:21:41.000Z</time>
      </trkpt>
      <trkpt lat="43.62974" lon="2.27823">
        <ele>184.4701</ele>
        <time>2021-10-03T10:21:42.000Z</time>
      </trkpt>
      <trkpt lat="43.62972" lon="2.27817">
        <ele>184.431816</ele>
        <time>2021-10-03T10:21:43.000Z</time>
      </trkpt>
      <trkpt lat="43.62971" lon="2.27811">
        <ele>184.389995</ele>
        <time>2021-10-03T10:21:44.000Z</time>
      </trkpt>
      <trkpt lat="43.62969" lon="2.27804">
        <ele>184.348187</ele>
        <time>2021-10-03T10:21:45.000Z</time>
      </trkpt>
      <trkpt lat="43.62969" lon="2.27798">
        <ele>184.31273</ele>
        <time>2021-10-03T10:21:46.000Z</time>
      </trkpt>
      <trkpt lat="43.62968" lon="2.27792">
        <ele>184.28176</ele>
        <time>2021-10-03T10:21:47.000Z</time>
      </trkpt>
      <trkpt lat="43.62968" lon="2.27788">
        <ele>184.256188</ele>
        <time>2021-10-03T10:21:48.000Z</time>
      </trkpt>
      <trkpt lat="43.62968" lon="2.27784">
        <ele>184.232941</ele>
        <time>2021-10-03T10:21:49.000Z</time>
      </trkpt>
      <trkpt lat="43.62968" lon="2.2778">
        <ele>184.202862</ele>
        <time>2021-10-03T10:21:50.000Z</time>
      </trkpt>
      <trkpt lat="43.62968" lon="2.27777">
        <ele>184.176853</ele>
        <time>2021-10-03T10:21:51.000Z</time>
      </trkpt>
      <trkpt lat="43.62968" lon="2.27775">
        <ele>184.155329</ele>
        <time>2021-10-03T10:21:52.000Z</time>
      </trkpt>
      <trkpt lat="43.62967" lon="2.27773">
        <ele>184.13672</ele>
        <time>2021-10-03T10:21:53.000Z</time>
      </trkpt>
      <trkpt lat="43.62967" lon="2.2777">
        <ele>184.11268</ele>
        <time>2021-10-03T10:21:54.000Z</time>
      </trkpt>
      <trkpt lat="43.6297" lon="2.27765">
        <ele>184.049452</ele>
        <time>2021-10-03T10:23:36.000Z</time>
      </trkpt>
      <trkpt lat="43.62972" lon="2.27762">
        <ele>184.012662</ele>
        <time>2021-10-03T10:23:37.000Z</time>
      </trkpt>
      <trkpt lat="43.62974" lon="2.27757">
        <ele>183.968243</ele>
        <time>2021-10-03T10:23:38.000Z</time>
      </trkpt>
      <trkpt lat="43.62975" lon="2.27752">
        <ele>183.91804</ele>
        <time>2021-10-03T10:23:39.000Z</time>
      </trkpt>
      <trkpt lat="43.62976" lon="2.27746">
        <ele>183.862441</ele>
        <time>2021-10-03T10:23:40.000Z</time>
      </trkpt>
      <trkpt lat="43.62976" lon="2.2774">
        <ele>183.80483</ele>
        <time>2021-10-03T10:23:41.000Z</time>
      </trkpt>
      <trkpt lat="43.62977" lon="2.27733">
        <ele>183.743832</ele>
        <time>2021-10-03T10:23:42.000Z</time>
      </trkpt>
      <trkpt lat="43.62975" lon="2.27726">
        <ele>183.683091</ele>
        <time>2021-10-03T10:23:43.000Z</time>
      </trkpt>
      <trkpt lat="43.62974" lon="2.2772">
        <ele>183.622759</ele>
        <time>2021-10-03T10:23:44.000Z</time>
      </trkpt>
      <trkpt lat="43.62972" lon="2.27713">
        <ele>183.557387</ele>
        <time>2021-10-03T10:23:45.000Z</time>
      </trkpt>
      <trkpt lat="43.6297" lon="2.27706">
        <ele>183.489498</ele>
        <time>2021-10-03T10:23:46.000Z</time>
      </trkpt>
      <trkpt lat="43.62968" lon="2.27699">
        <ele>183.420554</ele>
        <time>2021-10-03T10:23:47.000Z</time>
      </trkpt>
      <trkpt lat="43.62966" lon="2.27692">
        <ele>183.352425</ele>
        <time>2021-10-03T10:23:48.000Z</time>
      </trkpt>
      <trkpt lat="43.62963" lon="2.27685">
        <ele>183.280198</ele>
        <time>2021-10-03T10:23:49.000Z</time>
      </trkpt>
      <trkpt lat="43.62961" lon="2.27677">
        <ele>183.208794</ele>
        <time>2021-10-03T10:23:50.000Z</time>
      </trkpt>
      <trkpt lat="43.62959" lon="2.2767">
        <ele>183.140906</ele>
        <time>2021-10-03T10:23:51.000Z</time>
      </trkpt>
      <trkpt lat="43.62957" lon="2.27663">
        <ele>183.073017</ele>
        <time>2021-10-03T10:23:52.000Z</time>
      </trkpt>
      <trkpt lat="43.62955" lon="2.27656">
        <ele>183.005701</ele>
        <time>2021-10-03T10:23:53.000Z</time>
      </trkpt>
      <trkpt lat="43.62953" lon="2.27649">
        <ele>182.938653</ele>
        <time>2021-10-03T10:23:54.000Z</time>
      </trkpt>
      <trkpt lat="43.62951" lon="2.27643">
        <ele>182.870524</ele>
        <time>2021-10-03T10:23:55.000Z</time>
      </trkpt>
      <trkpt lat="43.62949" lon="2.27636">
        <ele>182.805152</ele>
        <time>2021-10-03T10:23:56.000Z</time>
      </trkpt>
      <trkpt lat="43.62947" lon="2.27629">
        <ele>182.742282</ele>
        <time>2021-10-03T10:23:57.000Z</time>
      </trkpt>
      <trkpt lat="43.62945" lon="2.27622">
        <ele>182.676073</ele>
        <time>2021-10-03T10:23:58.000Z</time>
      </trkpt>
      <trkpt lat="43.62943" lon="2.27616">
        <ele>182.608757</ele>
        <time>2021-10-03T10:23:59.000Z</time>
      </trkpt>
      <trkpt lat="43.62941" lon="2.27609">
        <ele>182.545503</ele>
        <time>2021-10-03T10:24:00.000Z</time>
      </trkpt>
      <trkpt lat="43.62939" lon="2.27602">
        <ele>182.476338</ele>
        <time>2021-10-03T10:24:01.000Z</time>
      </trkpt>
      <trkpt lat="43.62937" lon="2.27595">
        <ele>182.409833</ele>
        <time>2021-10-03T10:24:02.000Z</time>
      </trkpt>
      <trkpt lat="43.62934" lon="2.27589">
        <ele>182.347351</ele>
        <time>2021-10-03T10:24:03.000Z</time>
      </trkpt>
      <trkpt lat="43.62932" lon="2.27582">
        <ele>182.282463</ele>
        <time>2021-10-03T10:24:04.000Z</time>
      </trkpt>
      <trkpt lat="43.6293" lon="2.27575">
        <ele>182.214842</ele>
        <time>2021-10-03T10:24:05.000Z</time>
      </trkpt>
      <trkpt lat="43.62928" lon="2.27569">
        <ele>182.14947</ele>
        <time>2021-10-03T10:24:06.000Z</time>
      </trkpt>
      <trkpt lat="43.62926" lon="2.27561">
        <ele>182.076418</ele>
        <time>2021-10-03T10:24:07.000Z</time>
      </trkpt>
      <trkpt lat="43.62924" lon="2.27554">
        <ele>182.008089</ele>
        <time>2021-10-03T10:24:08.000Z</time>
      </trkpt>
      <trkpt lat="43.62922" lon="2.27547">
        <ele>181.954264</ele>
        <time>2021-10-03T10:24:09.000Z</time>
      </trkpt>
      <trkpt lat="43.62919" lon="2.2754">
        <ele>181.903136</ele>
        <time>2021-10-03T10:24:10.000Z</time>
      </trkpt>
      <trkpt lat="43.62917" lon="2.27534">
        <ele>181.851614</ele>
        <time>2021-10-03T10:24:11.000Z</time>
      </trkpt>
      <trkpt lat="43.62915" lon="2.27527">
        <ele>181.801333</ele>
        <time>2021-10-03T10:24:12.000Z</time>
      </trkpt>
      <trkpt lat="43.62913" lon="2.2752">
        <ele>181.749188</ele>
        <time>2021-10-03T10:24:13.000Z</time>
      </trkpt>
      <trkpt lat="43.6291" lon="2.27513">
        <ele>181.697666</ele>
        <time>2021-10-03T10:24:14.000Z</time>
      </trkpt>
      <trkpt lat="43.62908" lon="2.27506">
        <ele>181.645522</ele>
        <time>2021-10-03T10:24:15.000Z</time>
      </trkpt>
      <trkpt lat="43.62906" lon="2.275">
        <ele>181.594</ele>
        <time>2021-10-03T10:24:16.000Z</time>
      </trkpt>
      <trkpt lat="43.62903" lon="2.27492">
        <ele>181.540605</ele>
        <time>2021-10-03T10:24:17.000Z</time>
      </trkpt>
    </trkseg>
  </trk>
</gpx>